<?xml version="1.0" encoding="UTF-8" standalone="no" ?>
<gpx xmlns="http://www.topografix.com/GPX/1/1" xmlns:xsi="http://www.w3.org/2001/XMLSchema-instance" xsi:schemaLocation="http://www.topografix.com/GPX/1/1 http://www.topografix.com/GPX/1/1/gpx.xsd" version="1.1" creator="VisuGPX - https://www.visugpx.com">
  <metadata>
    <name>ainsa</name>
  </metadata>
  <trk>
    <name><![CDATA[Ainsa 4 puis un bout 5]]></name>
    <extensions>
      <line xmlns="http://www.topografix.com/GPX/gpx_style/0/2">
        <color>00FF00</color>
        <width>4</width>
      </line>
    </extensions>
    <trkseg>
      <trkpt lat="42.41541" lon="0.1407">
        <ele>538.5</ele>
        <time>2017-07-02T09:19:30Z</time>
      </trkpt>
      <trkpt lat="42.41508" lon="0.14402">
        <ele>525</ele>
        <time>2017-07-02T09:19:36Z</time>
      </trkpt>
      <trkpt lat="42.41511" lon="0.144">
        <ele>525.1</ele>
        <time>2017-07-02T09:19:37Z</time>
      </trkpt>
      <trkpt lat="42.41511" lon="0.14408">
        <ele>525.3</ele>
        <time>2017-07-02T09:19:38Z</time>
      </trkpt>
      <trkpt lat="42.41506" lon="0.14402">
        <ele>525.5</ele>
        <time>2017-07-02T09:19:39Z</time>
      </trkpt>
      <trkpt lat="42.4151" lon="0.1441">
        <ele>525.8</ele>
        <time>2017-07-02T09:19:40Z</time>
      </trkpt>
      <trkpt lat="42.41511" lon="0.14417">
        <ele>526</ele>
        <time>2017-07-02T09:19:41Z</time>
      </trkpt>
      <trkpt lat="42.41518" lon="0.14415">
        <ele>526.2</ele>
        <time>2017-07-02T09:19:46Z</time>
      </trkpt>
      <trkpt lat="42.41514" lon="0.14415">
        <ele>530</ele>
        <time>2017-07-02T09:19:50Z</time>
      </trkpt>
      <trkpt lat="42.41511" lon="0.14414">
        <ele>530</ele>
        <time>2017-07-02T09:19:58Z</time>
      </trkpt>
      <trkpt lat="42.41508" lon="0.14414">
        <ele>530</ele>
        <time>2017-07-02T09:20:01Z</time>
      </trkpt>
      <trkpt lat="42.41502" lon="0.14414">
        <ele>530</ele>
        <time>2017-07-02T09:26:14Z</time>
      </trkpt>
      <trkpt lat="42.41503" lon="0.14418">
        <ele>530</ele>
        <time>2017-07-02T09:26:17Z</time>
      </trkpt>
      <trkpt lat="42.41507" lon="0.1442">
        <ele>530</ele>
        <time>2017-07-02T09:26:21Z</time>
      </trkpt>
      <trkpt lat="42.4151" lon="0.14418">
        <ele>530</ele>
        <time>2017-07-02T09:26:31Z</time>
      </trkpt>
      <trkpt lat="42.41508" lon="0.14422">
        <ele>530</ele>
        <time>2017-07-02T09:26:34Z</time>
      </trkpt>
      <trkpt lat="42.41505" lon="0.14421">
        <ele>530</ele>
        <time>2017-07-02T09:26:36Z</time>
      </trkpt>
      <trkpt lat="42.41502" lon="0.14417">
        <ele>530</ele>
        <time>2017-07-02T09:26:38Z</time>
      </trkpt>
      <trkpt lat="42.41501" lon="0.1441">
        <ele>530</ele>
        <time>2017-07-02T09:26:40Z</time>
      </trkpt>
      <trkpt lat="42.41497" lon="0.14408">
        <ele>530</ele>
        <time>2017-07-02T09:26:42Z</time>
      </trkpt>
      <trkpt lat="42.41495" lon="0.14411">
        <ele>530</ele>
        <time>2017-07-02T09:26:43Z</time>
      </trkpt>
      <trkpt lat="42.41493" lon="0.14415">
        <ele>530</ele>
        <time>2017-07-02T09:26:44Z</time>
      </trkpt>
      <trkpt lat="42.41492" lon="0.14418">
        <ele>530</ele>
        <time>2017-07-02T09:26:45Z</time>
      </trkpt>
      <trkpt lat="42.4149" lon="0.14422">
        <ele>530</ele>
        <time>2017-07-02T09:26:46Z</time>
      </trkpt>
      <trkpt lat="42.41489" lon="0.14426">
        <ele>530</ele>
        <time>2017-07-02T09:26:47Z</time>
      </trkpt>
      <trkpt lat="42.41489" lon="0.14429">
        <ele>530</ele>
        <time>2017-07-02T09:26:48Z</time>
      </trkpt>
      <trkpt lat="42.41488" lon="0.14433">
        <ele>530</ele>
        <time>2017-07-02T09:26:49Z</time>
      </trkpt>
      <trkpt lat="42.41488" lon="0.14437">
        <ele>530</ele>
        <time>2017-07-02T09:26:50Z</time>
      </trkpt>
      <trkpt lat="42.41489" lon="0.14441">
        <ele>530</ele>
        <time>2017-07-02T09:26:51Z</time>
      </trkpt>
      <trkpt lat="42.41491" lon="0.14443">
        <ele>530</ele>
        <time>2017-07-02T09:26:52Z</time>
      </trkpt>
      <trkpt lat="42.41494" lon="0.14445">
        <ele>530</ele>
        <time>2017-07-02T09:26:53Z</time>
      </trkpt>
      <trkpt lat="42.41498" lon="0.14446">
        <ele>530</ele>
        <time>2017-07-02T09:26:54Z</time>
      </trkpt>
      <trkpt lat="42.41501" lon="0.14447">
        <ele>530</ele>
        <time>2017-07-02T09:26:55Z</time>
      </trkpt>
      <trkpt lat="42.41504" lon="0.14448">
        <ele>530</ele>
        <time>2017-07-02T09:26:56Z</time>
      </trkpt>
      <trkpt lat="42.41508" lon="0.1445">
        <ele>530</ele>
        <time>2017-07-02T09:26:57Z</time>
      </trkpt>
      <trkpt lat="42.41511" lon="0.14451">
        <ele>530</ele>
        <time>2017-07-02T09:26:58Z</time>
      </trkpt>
      <trkpt lat="42.41515" lon="0.14452">
        <ele>530</ele>
        <time>2017-07-02T09:26:59Z</time>
      </trkpt>
      <trkpt lat="42.41519" lon="0.14453">
        <ele>530</ele>
        <time>2017-07-02T09:27:00Z</time>
      </trkpt>
      <trkpt lat="42.41523" lon="0.14453">
        <ele>530</ele>
        <time>2017-07-02T09:27:01Z</time>
      </trkpt>
      <trkpt lat="42.41527" lon="0.14453">
        <ele>530</ele>
        <time>2017-07-02T09:27:02Z</time>
      </trkpt>
      <trkpt lat="42.41531" lon="0.14451">
        <ele>530</ele>
        <time>2017-07-02T09:27:03Z</time>
      </trkpt>
      <trkpt lat="42.41533" lon="0.14447">
        <ele>530</ele>
        <time>2017-07-02T09:27:04Z</time>
      </trkpt>
      <trkpt lat="42.41532" lon="0.14436">
        <ele>530</ele>
        <time>2017-07-02T09:27:05Z</time>
      </trkpt>
      <trkpt lat="42.41531" lon="0.1443">
        <ele>530</ele>
        <time>2017-07-02T09:27:06Z</time>
      </trkpt>
      <trkpt lat="42.4153" lon="0.14424">
        <ele>530</ele>
        <time>2017-07-02T09:27:07Z</time>
      </trkpt>
      <trkpt lat="42.41528" lon="0.14419">
        <ele>529.9</ele>
        <time>2017-07-02T09:27:08Z</time>
      </trkpt>
      <trkpt lat="42.41526" lon="0.14414">
        <ele>528.4</ele>
        <time>2017-07-02T09:27:09Z</time>
      </trkpt>
      <trkpt lat="42.41524" lon="0.14406">
        <ele>526.6</ele>
        <time>2017-07-02T09:27:10Z</time>
      </trkpt>
      <trkpt lat="42.41522" lon="0.14402">
        <ele>525</ele>
        <time>2017-07-02T09:27:11Z</time>
      </trkpt>
      <trkpt lat="42.41522" lon="0.14396">
        <ele>525</ele>
        <time>2017-07-02T09:27:12Z</time>
      </trkpt>
      <trkpt lat="42.4152" lon="0.14391">
        <ele>525</ele>
        <time>2017-07-02T09:27:13Z</time>
      </trkpt>
      <trkpt lat="42.41519" lon="0.14385">
        <ele>525</ele>
        <time>2017-07-02T09:27:14Z</time>
      </trkpt>
      <trkpt lat="42.41518" lon="0.1438">
        <ele>525</ele>
        <time>2017-07-02T09:27:15Z</time>
      </trkpt>
      <trkpt lat="42.41517" lon="0.14374">
        <ele>525</ele>
        <time>2017-07-02T09:27:16Z</time>
      </trkpt>
      <trkpt lat="42.41515" lon="0.14368">
        <ele>525</ele>
        <time>2017-07-02T09:27:17Z</time>
      </trkpt>
      <trkpt lat="42.41514" lon="0.14361">
        <ele>525</ele>
        <time>2017-07-02T09:27:18Z</time>
      </trkpt>
      <trkpt lat="42.41513" lon="0.14354">
        <ele>525.2</ele>
        <time>2017-07-02T09:27:19Z</time>
      </trkpt>
      <trkpt lat="42.41511" lon="0.14345">
        <ele>526</ele>
        <time>2017-07-02T09:27:20Z</time>
      </trkpt>
      <trkpt lat="42.4151" lon="0.14338">
        <ele>526.5</ele>
        <time>2017-07-02T09:27:21Z</time>
      </trkpt>
      <trkpt lat="42.41508" lon="0.14331">
        <ele>527.2</ele>
        <time>2017-07-02T09:27:22Z</time>
      </trkpt>
      <trkpt lat="42.41507" lon="0.14325">
        <ele>527.9</ele>
        <time>2017-07-02T09:27:23Z</time>
      </trkpt>
      <trkpt lat="42.41506" lon="0.14318">
        <ele>528.4</ele>
        <time>2017-07-02T09:27:24Z</time>
      </trkpt>
      <trkpt lat="42.41504" lon="0.14311">
        <ele>528.9</ele>
        <time>2017-07-02T09:27:25Z</time>
      </trkpt>
      <trkpt lat="42.41503" lon="0.14303">
        <ele>529.4</ele>
        <time>2017-07-02T09:27:26Z</time>
      </trkpt>
      <trkpt lat="42.41502" lon="0.14297">
        <ele>529.9</ele>
        <time>2017-07-02T09:27:27Z</time>
      </trkpt>
      <trkpt lat="42.41501" lon="0.1429">
        <ele>530.3</ele>
        <time>2017-07-02T09:27:28Z</time>
      </trkpt>
      <trkpt lat="42.41501" lon="0.14283">
        <ele>530.8</ele>
        <time>2017-07-02T09:27:29Z</time>
      </trkpt>
      <trkpt lat="42.415" lon="0.14276">
        <ele>531.2</ele>
        <time>2017-07-02T09:27:30Z</time>
      </trkpt>
      <trkpt lat="42.41499" lon="0.1427">
        <ele>531.4</ele>
        <time>2017-07-02T09:27:31Z</time>
      </trkpt>
      <trkpt lat="42.41498" lon="0.14262">
        <ele>531.7</ele>
        <time>2017-07-02T09:27:32Z</time>
      </trkpt>
      <trkpt lat="42.41497" lon="0.14255">
        <ele>532</ele>
        <time>2017-07-02T09:27:33Z</time>
      </trkpt>
      <trkpt lat="42.41497" lon="0.14249">
        <ele>532.3</ele>
        <time>2017-07-02T09:27:34Z</time>
      </trkpt>
      <trkpt lat="42.41496" lon="0.14243">
        <ele>532.5</ele>
        <time>2017-07-02T09:27:35Z</time>
      </trkpt>
      <trkpt lat="42.41496" lon="0.14236">
        <ele>532.8</ele>
        <time>2017-07-02T09:27:36Z</time>
      </trkpt>
      <trkpt lat="42.41495" lon="0.1423">
        <ele>533</ele>
        <time>2017-07-02T09:27:37Z</time>
      </trkpt>
      <trkpt lat="42.41494" lon="0.14224">
        <ele>533.3</ele>
        <time>2017-07-02T09:27:38Z</time>
      </trkpt>
      <trkpt lat="42.41494" lon="0.14217">
        <ele>533.6</ele>
        <time>2017-07-02T09:27:39Z</time>
      </trkpt>
      <trkpt lat="42.41493" lon="0.1421">
        <ele>533.9</ele>
        <time>2017-07-02T09:27:40Z</time>
      </trkpt>
      <trkpt lat="42.41492" lon="0.14205">
        <ele>534.1</ele>
        <time>2017-07-02T09:27:41Z</time>
      </trkpt>
      <trkpt lat="42.41491" lon="0.14199">
        <ele>534.4</ele>
        <time>2017-07-02T09:27:42Z</time>
      </trkpt>
      <trkpt lat="42.4149" lon="0.14194">
        <ele>534.6</ele>
        <time>2017-07-02T09:27:43Z</time>
      </trkpt>
      <trkpt lat="42.41489" lon="0.14187">
        <ele>535</ele>
        <time>2017-07-02T09:27:44Z</time>
      </trkpt>
      <trkpt lat="42.41488" lon="0.14181">
        <ele>535.2</ele>
        <time>2017-07-02T09:27:45Z</time>
      </trkpt>
      <trkpt lat="42.41487" lon="0.14175">
        <ele>535.5</ele>
        <time>2017-07-02T09:27:46Z</time>
      </trkpt>
      <trkpt lat="42.41485" lon="0.14168">
        <ele>535.9</ele>
        <time>2017-07-02T09:27:47Z</time>
      </trkpt>
      <trkpt lat="42.41484" lon="0.1416">
        <ele>536</ele>
        <time>2017-07-02T09:27:48Z</time>
      </trkpt>
      <trkpt lat="42.41483" lon="0.14154">
        <ele>535.9</ele>
        <time>2017-07-02T09:27:49Z</time>
      </trkpt>
      <trkpt lat="42.41482" lon="0.14149">
        <ele>535.8</ele>
        <time>2017-07-02T09:27:50Z</time>
      </trkpt>
      <trkpt lat="42.41482" lon="0.14142">
        <ele>535.7</ele>
        <time>2017-07-02T09:27:51Z</time>
      </trkpt>
      <trkpt lat="42.4148" lon="0.14137">
        <ele>535.6</ele>
        <time>2017-07-02T09:27:52Z</time>
      </trkpt>
      <trkpt lat="42.41479" lon="0.1413">
        <ele>535.4</ele>
        <time>2017-07-02T09:27:53Z</time>
      </trkpt>
      <trkpt lat="42.41478" lon="0.14124">
        <ele>535.3</ele>
        <time>2017-07-02T09:27:54Z</time>
      </trkpt>
      <trkpt lat="42.41477" lon="0.14118">
        <ele>535.1</ele>
        <time>2017-07-02T09:27:55Z</time>
      </trkpt>
      <trkpt lat="42.41477" lon="0.14113">
        <ele>535</ele>
        <time>2017-07-02T09:27:56Z</time>
      </trkpt>
      <trkpt lat="42.41477" lon="0.14108">
        <ele>534.9</ele>
        <time>2017-07-02T09:27:57Z</time>
      </trkpt>
      <trkpt lat="42.41476" lon="0.141">
        <ele>534.7</ele>
        <time>2017-07-02T09:27:58Z</time>
      </trkpt>
      <trkpt lat="42.41475" lon="0.14096">
        <ele>534.6</ele>
        <time>2017-07-02T09:27:59Z</time>
      </trkpt>
      <trkpt lat="42.41476" lon="0.14089">
        <ele>534.5</ele>
        <time>2017-07-02T09:28:00Z</time>
      </trkpt>
      <trkpt lat="42.41476" lon="0.14083">
        <ele>534.4</ele>
        <time>2017-07-02T09:28:01Z</time>
      </trkpt>
      <trkpt lat="42.41475" lon="0.14077">
        <ele>534.3</ele>
        <time>2017-07-02T09:28:02Z</time>
      </trkpt>
      <trkpt lat="42.41474" lon="0.14072">
        <ele>534.2</ele>
        <time>2017-07-02T09:28:03Z</time>
      </trkpt>
      <trkpt lat="42.41473" lon="0.14067">
        <ele>534.1</ele>
        <time>2017-07-02T09:28:04Z</time>
      </trkpt>
      <trkpt lat="42.41473" lon="0.1406">
        <ele>534</ele>
        <time>2017-07-02T09:28:06Z</time>
      </trkpt>
      <trkpt lat="42.4147" lon="0.14055">
        <ele>534</ele>
        <time>2017-07-02T09:28:08Z</time>
      </trkpt>
      <trkpt lat="42.41468" lon="0.14049">
        <ele>534</ele>
        <time>2017-07-02T09:28:10Z</time>
      </trkpt>
      <trkpt lat="42.41466" lon="0.14044">
        <ele>534</ele>
        <time>2017-07-02T09:28:12Z</time>
      </trkpt>
      <trkpt lat="42.41463" lon="0.14037">
        <ele>534</ele>
        <time>2017-07-02T09:28:14Z</time>
      </trkpt>
      <trkpt lat="42.4146" lon="0.14033">
        <ele>534</ele>
        <time>2017-07-02T09:28:15Z</time>
      </trkpt>
      <trkpt lat="42.41457" lon="0.14031">
        <ele>534</ele>
        <time>2017-07-02T09:28:16Z</time>
      </trkpt>
      <trkpt lat="42.41453" lon="0.1403">
        <ele>534</ele>
        <time>2017-07-02T09:28:17Z</time>
      </trkpt>
      <trkpt lat="42.41448" lon="0.14031">
        <ele>534</ele>
        <time>2017-07-02T09:28:18Z</time>
      </trkpt>
      <trkpt lat="42.41443" lon="0.14031">
        <ele>534</ele>
        <time>2017-07-02T09:28:19Z</time>
      </trkpt>
      <trkpt lat="42.41438" lon="0.14032">
        <ele>534</ele>
        <time>2017-07-02T09:28:20Z</time>
      </trkpt>
      <trkpt lat="42.41434" lon="0.14032">
        <ele>534</ele>
        <time>2017-07-02T09:28:21Z</time>
      </trkpt>
      <trkpt lat="42.41429" lon="0.14032">
        <ele>534</ele>
        <time>2017-07-02T09:28:22Z</time>
      </trkpt>
      <trkpt lat="42.41425" lon="0.14032">
        <ele>534</ele>
        <time>2017-07-02T09:28:23Z</time>
      </trkpt>
      <trkpt lat="42.4142" lon="0.14033">
        <ele>533.8</ele>
        <time>2017-07-02T09:28:24Z</time>
      </trkpt>
      <trkpt lat="42.41416" lon="0.14033">
        <ele>533.5</ele>
        <time>2017-07-02T09:28:25Z</time>
      </trkpt>
      <trkpt lat="42.41411" lon="0.14034">
        <ele>533.2</ele>
        <time>2017-07-02T09:28:26Z</time>
      </trkpt>
      <trkpt lat="42.41407" lon="0.14035">
        <ele>532.8</ele>
        <time>2017-07-02T09:28:27Z</time>
      </trkpt>
      <trkpt lat="42.41403" lon="0.14035">
        <ele>532.6</ele>
        <time>2017-07-02T09:28:28Z</time>
      </trkpt>
      <trkpt lat="42.41398" lon="0.14036">
        <ele>532.3</ele>
        <time>2017-07-02T09:28:29Z</time>
      </trkpt>
      <trkpt lat="42.41392" lon="0.14037">
        <ele>531.4</ele>
        <time>2017-07-02T09:28:30Z</time>
      </trkpt>
      <trkpt lat="42.41385" lon="0.14035">
        <ele>530.5</ele>
        <time>2017-07-02T09:28:31Z</time>
      </trkpt>
      <trkpt lat="42.41383" lon="0.14037">
        <ele>530.1</ele>
        <time>2017-07-02T09:28:32Z</time>
      </trkpt>
      <trkpt lat="42.41378" lon="0.14036">
        <ele>529.4</ele>
        <time>2017-07-02T09:28:33Z</time>
      </trkpt>
      <trkpt lat="42.41373" lon="0.14038">
        <ele>528.8</ele>
        <time>2017-07-02T09:28:34Z</time>
      </trkpt>
      <trkpt lat="42.4137" lon="0.14037">
        <ele>528.2</ele>
        <time>2017-07-02T09:28:35Z</time>
      </trkpt>
      <trkpt lat="42.41366" lon="0.14038">
        <ele>528</ele>
        <time>2017-07-02T09:28:36Z</time>
      </trkpt>
      <trkpt lat="42.41362" lon="0.14039">
        <ele>528.1</ele>
        <time>2017-07-02T09:28:37Z</time>
      </trkpt>
      <trkpt lat="42.41357" lon="0.14039">
        <ele>528.2</ele>
        <time>2017-07-02T09:28:38Z</time>
      </trkpt>
      <trkpt lat="42.41353" lon="0.14038">
        <ele>528.4</ele>
        <time>2017-07-02T09:28:39Z</time>
      </trkpt>
      <trkpt lat="42.41348" lon="0.14039">
        <ele>528.6</ele>
        <time>2017-07-02T09:28:40Z</time>
      </trkpt>
      <trkpt lat="42.41343" lon="0.1404">
        <ele>528.8</ele>
        <time>2017-07-02T09:28:41Z</time>
      </trkpt>
      <trkpt lat="42.41337" lon="0.14038">
        <ele>529</ele>
        <time>2017-07-02T09:28:42Z</time>
      </trkpt>
      <trkpt lat="42.41333" lon="0.14036">
        <ele>529.2</ele>
        <time>2017-07-02T09:28:43Z</time>
      </trkpt>
      <trkpt lat="42.41329" lon="0.14036">
        <ele>529.4</ele>
        <time>2017-07-02T09:28:44Z</time>
      </trkpt>
      <trkpt lat="42.41324" lon="0.14037">
        <ele>529.6</ele>
        <time>2017-07-02T09:28:45Z</time>
      </trkpt>
      <trkpt lat="42.41319" lon="0.14038">
        <ele>529.9</ele>
        <time>2017-07-02T09:28:46Z</time>
      </trkpt>
      <trkpt lat="42.41314" lon="0.14039">
        <ele>530.1</ele>
        <time>2017-07-02T09:28:47Z</time>
      </trkpt>
      <trkpt lat="42.4131" lon="0.14041">
        <ele>530.4</ele>
        <time>2017-07-02T09:28:48Z</time>
      </trkpt>
      <trkpt lat="42.41304" lon="0.14041">
        <ele>530.8</ele>
        <time>2017-07-02T09:28:49Z</time>
      </trkpt>
      <trkpt lat="42.413" lon="0.14042">
        <ele>531.1</ele>
        <time>2017-07-02T09:28:50Z</time>
      </trkpt>
      <trkpt lat="42.41295" lon="0.1404">
        <ele>531.5</ele>
        <time>2017-07-02T09:28:51Z</time>
      </trkpt>
      <trkpt lat="42.41288" lon="0.14039">
        <ele>532</ele>
        <time>2017-07-02T09:28:52Z</time>
      </trkpt>
      <trkpt lat="42.41283" lon="0.1404">
        <ele>532.2</ele>
        <time>2017-07-02T09:28:53Z</time>
      </trkpt>
      <trkpt lat="42.41278" lon="0.14041">
        <ele>532.4</ele>
        <time>2017-07-02T09:28:54Z</time>
      </trkpt>
      <trkpt lat="42.41273" lon="0.14041">
        <ele>532.7</ele>
        <time>2017-07-02T09:28:55Z</time>
      </trkpt>
      <trkpt lat="42.41268" lon="0.1404">
        <ele>533</ele>
        <time>2017-07-02T09:28:56Z</time>
      </trkpt>
      <trkpt lat="42.41263" lon="0.14037">
        <ele>533</ele>
        <time>2017-07-02T09:28:57Z</time>
      </trkpt>
      <trkpt lat="42.41261" lon="0.14034">
        <ele>533</ele>
        <time>2017-07-02T09:28:58Z</time>
      </trkpt>
      <trkpt lat="42.41258" lon="0.14032">
        <ele>533</ele>
        <time>2017-07-02T09:28:59Z</time>
      </trkpt>
      <trkpt lat="42.41254" lon="0.14031">
        <ele>533.3</ele>
        <time>2017-07-02T09:29:00Z</time>
      </trkpt>
      <trkpt lat="42.4125" lon="0.1403">
        <ele>533.7</ele>
        <time>2017-07-02T09:29:01Z</time>
      </trkpt>
      <trkpt lat="42.41246" lon="0.14033">
        <ele>534.2</ele>
        <time>2017-07-02T09:29:02Z</time>
      </trkpt>
      <trkpt lat="42.41244" lon="0.14038">
        <ele>537</ele>
        <time>2017-07-02T09:29:03Z</time>
      </trkpt>
      <trkpt lat="42.41241" lon="0.14044">
        <ele>537</ele>
        <time>2017-07-02T09:29:04Z</time>
      </trkpt>
      <trkpt lat="42.41242" lon="0.14048">
        <ele>537</ele>
        <time>2017-07-02T09:29:05Z</time>
      </trkpt>
      <trkpt lat="42.41242" lon="0.14055">
        <ele>537</ele>
        <time>2017-07-02T09:29:06Z</time>
      </trkpt>
      <trkpt lat="42.41242" lon="0.14058">
        <ele>537</ele>
        <time>2017-07-02T09:29:07Z</time>
      </trkpt>
      <trkpt lat="42.41241" lon="0.14063">
        <ele>537</ele>
        <time>2017-07-02T09:29:08Z</time>
      </trkpt>
      <trkpt lat="42.41241" lon="0.14067">
        <ele>537</ele>
        <time>2017-07-02T09:29:09Z</time>
      </trkpt>
      <trkpt lat="42.41237" lon="0.14071">
        <ele>537</ele>
        <time>2017-07-02T09:29:11Z</time>
      </trkpt>
      <trkpt lat="42.41233" lon="0.14071">
        <ele>537.1</ele>
        <time>2017-07-02T09:29:13Z</time>
      </trkpt>
      <trkpt lat="42.41231" lon="0.1407">
        <ele>537.1</ele>
        <time>2017-07-02T09:29:15Z</time>
      </trkpt>
      <trkpt lat="42.41228" lon="0.1407">
        <ele>537.2</ele>
        <time>2017-07-02T09:29:17Z</time>
      </trkpt>
      <trkpt lat="42.41225" lon="0.1407">
        <ele>536.9</ele>
        <time>2017-07-02T09:29:19Z</time>
      </trkpt>
      <trkpt lat="42.41221" lon="0.14071">
        <ele>536.5</ele>
        <time>2017-07-02T09:29:21Z</time>
      </trkpt>
      <trkpt lat="42.41218" lon="0.14068">
        <ele>536.3</ele>
        <time>2017-07-02T09:29:23Z</time>
      </trkpt>
      <trkpt lat="42.41214" lon="0.14066">
        <ele>536.3</ele>
        <time>2017-07-02T09:29:26Z</time>
      </trkpt>
      <trkpt lat="42.4121" lon="0.14064">
        <ele>536.3</ele>
        <time>2017-07-02T09:29:29Z</time>
      </trkpt>
      <trkpt lat="42.41207" lon="0.14064">
        <ele>536.3</ele>
        <time>2017-07-02T09:29:31Z</time>
      </trkpt>
      <trkpt lat="42.41202" lon="0.14064">
        <ele>536.2</ele>
        <time>2017-07-02T09:29:33Z</time>
      </trkpt>
      <trkpt lat="42.41198" lon="0.14064">
        <ele>536.2</ele>
        <time>2017-07-02T09:29:35Z</time>
      </trkpt>
      <trkpt lat="42.41192" lon="0.14063">
        <ele>536.3</ele>
        <time>2017-07-02T09:29:37Z</time>
      </trkpt>
      <trkpt lat="42.41188" lon="0.14063">
        <ele>536.9</ele>
        <time>2017-07-02T09:29:39Z</time>
      </trkpt>
      <trkpt lat="42.41184" lon="0.14063">
        <ele>537.4</ele>
        <time>2017-07-02T09:29:41Z</time>
      </trkpt>
      <trkpt lat="42.4118" lon="0.14062">
        <ele>538.1</ele>
        <time>2017-07-02T09:29:43Z</time>
      </trkpt>
      <trkpt lat="42.41176" lon="0.14061">
        <ele>538.8</ele>
        <time>2017-07-02T09:29:45Z</time>
      </trkpt>
      <trkpt lat="42.41173" lon="0.1406">
        <ele>539.2</ele>
        <time>2017-07-02T09:29:47Z</time>
      </trkpt>
      <trkpt lat="42.4117" lon="0.1406">
        <ele>539.7</ele>
        <time>2017-07-02T09:29:49Z</time>
      </trkpt>
      <trkpt lat="42.41167" lon="0.14059">
        <ele>540</ele>
        <time>2017-07-02T09:29:51Z</time>
      </trkpt>
      <trkpt lat="42.41163" lon="0.14058">
        <ele>540</ele>
        <time>2017-07-02T09:29:53Z</time>
      </trkpt>
      <trkpt lat="42.4116" lon="0.14057">
        <ele>539.9</ele>
        <time>2017-07-02T09:29:55Z</time>
      </trkpt>
      <trkpt lat="42.41156" lon="0.14057">
        <ele>540.3</ele>
        <time>2017-07-02T09:29:57Z</time>
      </trkpt>
      <trkpt lat="42.41153" lon="0.14058">
        <ele>540.8</ele>
        <time>2017-07-02T09:29:59Z</time>
      </trkpt>
      <trkpt lat="42.4115" lon="0.14058">
        <ele>541.2</ele>
        <time>2017-07-02T09:30:01Z</time>
      </trkpt>
      <trkpt lat="42.41147" lon="0.14058">
        <ele>541.6</ele>
        <time>2017-07-02T09:30:03Z</time>
      </trkpt>
      <trkpt lat="42.41143" lon="0.14058">
        <ele>542</ele>
        <time>2017-07-02T09:30:05Z</time>
      </trkpt>
      <trkpt lat="42.4114" lon="0.14059">
        <ele>542.3</ele>
        <time>2017-07-02T09:30:07Z</time>
      </trkpt>
      <trkpt lat="42.41137" lon="0.14061">
        <ele>542.6</ele>
        <time>2017-07-02T09:30:09Z</time>
      </trkpt>
      <trkpt lat="42.41134" lon="0.14063">
        <ele>542.9</ele>
        <time>2017-07-02T09:30:11Z</time>
      </trkpt>
      <trkpt lat="42.41131" lon="0.14064">
        <ele>543.7</ele>
        <time>2017-07-02T09:30:13Z</time>
      </trkpt>
      <trkpt lat="42.41128" lon="0.14065">
        <ele>544.5</ele>
        <time>2017-07-02T09:30:15Z</time>
      </trkpt>
      <trkpt lat="42.41125" lon="0.14063">
        <ele>545</ele>
        <time>2017-07-02T09:30:17Z</time>
      </trkpt>
      <trkpt lat="42.41121" lon="0.14061">
        <ele>544.7</ele>
        <time>2017-07-02T09:30:19Z</time>
      </trkpt>
      <trkpt lat="42.41119" lon="0.14059">
        <ele>544.6</ele>
        <time>2017-07-02T09:30:21Z</time>
      </trkpt>
      <trkpt lat="42.41116" lon="0.14058">
        <ele>544.4</ele>
        <time>2017-07-02T09:30:23Z</time>
      </trkpt>
      <trkpt lat="42.41113" lon="0.14057">
        <ele>544.4</ele>
        <time>2017-07-02T09:30:25Z</time>
      </trkpt>
      <trkpt lat="42.41109" lon="0.14056">
        <ele>544.8</ele>
        <time>2017-07-02T09:30:27Z</time>
      </trkpt>
      <trkpt lat="42.41106" lon="0.14056">
        <ele>545.2</ele>
        <time>2017-07-02T09:30:29Z</time>
      </trkpt>
      <trkpt lat="42.41103" lon="0.14057">
        <ele>545.7</ele>
        <time>2017-07-02T09:30:31Z</time>
      </trkpt>
      <trkpt lat="42.411" lon="0.14057">
        <ele>546.6</ele>
        <time>2017-07-02T09:30:33Z</time>
      </trkpt>
      <trkpt lat="42.41096" lon="0.14057">
        <ele>547.4</ele>
        <time>2017-07-02T09:30:35Z</time>
      </trkpt>
      <trkpt lat="42.41093" lon="0.14057">
        <ele>548.2</ele>
        <time>2017-07-02T09:30:37Z</time>
      </trkpt>
      <trkpt lat="42.4109" lon="0.14058">
        <ele>549.3</ele>
        <time>2017-07-02T09:30:40Z</time>
      </trkpt>
      <trkpt lat="42.41087" lon="0.1406">
        <ele>550</ele>
        <time>2017-07-02T09:30:42Z</time>
      </trkpt>
      <trkpt lat="42.41085" lon="0.14061">
        <ele>550.8</ele>
        <time>2017-07-02T09:30:44Z</time>
      </trkpt>
      <trkpt lat="42.41082" lon="0.1406">
        <ele>551.5</ele>
        <time>2017-07-02T09:30:46Z</time>
      </trkpt>
      <trkpt lat="42.41079" lon="0.1406">
        <ele>552.3</ele>
        <time>2017-07-02T09:30:48Z</time>
      </trkpt>
      <trkpt lat="42.41076" lon="0.14061">
        <ele>553.2</ele>
        <time>2017-07-02T09:30:50Z</time>
      </trkpt>
      <trkpt lat="42.41073" lon="0.14062">
        <ele>554.1</ele>
        <time>2017-07-02T09:30:52Z</time>
      </trkpt>
      <trkpt lat="42.4107" lon="0.14062">
        <ele>555.1</ele>
        <time>2017-07-02T09:30:54Z</time>
      </trkpt>
      <trkpt lat="42.41067" lon="0.14062">
        <ele>556.3</ele>
        <time>2017-07-02T09:30:56Z</time>
      </trkpt>
      <trkpt lat="42.41064" lon="0.14062">
        <ele>557.5</ele>
        <time>2017-07-02T09:30:58Z</time>
      </trkpt>
      <trkpt lat="42.41061" lon="0.14061">
        <ele>558.5</ele>
        <time>2017-07-02T09:31:00Z</time>
      </trkpt>
      <trkpt lat="42.41057" lon="0.14062">
        <ele>559.4</ele>
        <time>2017-07-02T09:31:02Z</time>
      </trkpt>
      <trkpt lat="42.41054" lon="0.14063">
        <ele>560.3</ele>
        <time>2017-07-02T09:31:04Z</time>
      </trkpt>
      <trkpt lat="42.41051" lon="0.14066">
        <ele>561.5</ele>
        <time>2017-07-02T09:31:06Z</time>
      </trkpt>
      <trkpt lat="42.41048" lon="0.14069">
        <ele>562.7</ele>
        <time>2017-07-02T09:31:08Z</time>
      </trkpt>
      <trkpt lat="42.41044" lon="0.1407">
        <ele>563.8</ele>
        <time>2017-07-02T09:31:10Z</time>
      </trkpt>
      <trkpt lat="42.4104" lon="0.14071">
        <ele>564.8</ele>
        <time>2017-07-02T09:31:12Z</time>
      </trkpt>
      <trkpt lat="42.41037" lon="0.14074">
        <ele>565.7</ele>
        <time>2017-07-02T09:31:14Z</time>
      </trkpt>
      <trkpt lat="42.41034" lon="0.14076">
        <ele>565.8</ele>
        <time>2017-07-02T09:31:16Z</time>
      </trkpt>
      <trkpt lat="42.4103" lon="0.14078">
        <ele>565.9</ele>
        <time>2017-07-02T09:31:18Z</time>
      </trkpt>
      <trkpt lat="42.41026" lon="0.14078">
        <ele>565.7</ele>
        <time>2017-07-02T09:31:20Z</time>
      </trkpt>
      <trkpt lat="42.41022" lon="0.14078">
        <ele>565.3</ele>
        <time>2017-07-02T09:31:22Z</time>
      </trkpt>
      <trkpt lat="42.41018" lon="0.14077">
        <ele>565.2</ele>
        <time>2017-07-02T09:31:24Z</time>
      </trkpt>
      <trkpt lat="42.41015" lon="0.14075">
        <ele>565.5</ele>
        <time>2017-07-02T09:31:26Z</time>
      </trkpt>
      <trkpt lat="42.41011" lon="0.14072">
        <ele>565.6</ele>
        <time>2017-07-02T09:31:28Z</time>
      </trkpt>
      <trkpt lat="42.41008" lon="0.1407">
        <ele>565.3</ele>
        <time>2017-07-02T09:31:30Z</time>
      </trkpt>
      <trkpt lat="42.41004" lon="0.14069">
        <ele>565.1</ele>
        <time>2017-07-02T09:31:32Z</time>
      </trkpt>
      <trkpt lat="42.41" lon="0.14067">
        <ele>564.9</ele>
        <time>2017-07-02T09:31:34Z</time>
      </trkpt>
      <trkpt lat="42.40997" lon="0.14064">
        <ele>564.9</ele>
        <time>2017-07-02T09:31:36Z</time>
      </trkpt>
      <trkpt lat="42.40993" lon="0.14061">
        <ele>565.3</ele>
        <time>2017-07-02T09:31:38Z</time>
      </trkpt>
      <trkpt lat="42.40989" lon="0.14059">
        <ele>565.7</ele>
        <time>2017-07-02T09:31:40Z</time>
      </trkpt>
      <trkpt lat="42.40984" lon="0.14057">
        <ele>566.1</ele>
        <time>2017-07-02T09:31:42Z</time>
      </trkpt>
      <trkpt lat="42.4098" lon="0.14054">
        <ele>566.5</ele>
        <time>2017-07-02T09:31:44Z</time>
      </trkpt>
      <trkpt lat="42.40976" lon="0.14052">
        <ele>566.8</ele>
        <time>2017-07-02T09:31:46Z</time>
      </trkpt>
      <trkpt lat="42.40971" lon="0.1405">
        <ele>567.4</ele>
        <time>2017-07-02T09:31:48Z</time>
      </trkpt>
      <trkpt lat="42.40967" lon="0.14048">
        <ele>568</ele>
        <time>2017-07-02T09:31:50Z</time>
      </trkpt>
      <trkpt lat="42.40963" lon="0.14046">
        <ele>568.5</ele>
        <time>2017-07-02T09:31:52Z</time>
      </trkpt>
      <trkpt lat="42.40959" lon="0.14046">
        <ele>568.8</ele>
        <time>2017-07-02T09:31:54Z</time>
      </trkpt>
      <trkpt lat="42.40954" lon="0.14046">
        <ele>568.9</ele>
        <time>2017-07-02T09:31:56Z</time>
      </trkpt>
      <trkpt lat="42.4095" lon="0.14046">
        <ele>569.3</ele>
        <time>2017-07-02T09:31:58Z</time>
      </trkpt>
      <trkpt lat="42.40946" lon="0.14046">
        <ele>569.7</ele>
        <time>2017-07-02T09:32:00Z</time>
      </trkpt>
      <trkpt lat="42.40942" lon="0.14045">
        <ele>569.6</ele>
        <time>2017-07-02T09:32:02Z</time>
      </trkpt>
      <trkpt lat="42.40938" lon="0.14045">
        <ele>569.5</ele>
        <time>2017-07-02T09:32:04Z</time>
      </trkpt>
      <trkpt lat="42.40935" lon="0.14043">
        <ele>569.7</ele>
        <time>2017-07-02T09:32:06Z</time>
      </trkpt>
      <trkpt lat="42.4093" lon="0.14041">
        <ele>570</ele>
        <time>2017-07-02T09:32:08Z</time>
      </trkpt>
      <trkpt lat="42.40925" lon="0.1404">
        <ele>570.1</ele>
        <time>2017-07-02T09:32:10Z</time>
      </trkpt>
      <trkpt lat="42.40923" lon="0.14039">
        <ele>570.1</ele>
        <time>2017-07-02T09:32:11Z</time>
      </trkpt>
      <trkpt lat="42.4092" lon="0.14038">
        <ele>570.1</ele>
        <time>2017-07-02T09:32:12Z</time>
      </trkpt>
      <trkpt lat="42.40917" lon="0.14037">
        <ele>570.1</ele>
        <time>2017-07-02T09:32:13Z</time>
      </trkpt>
      <trkpt lat="42.40912" lon="0.14036">
        <ele>570.4</ele>
        <time>2017-07-02T09:32:15Z</time>
      </trkpt>
      <trkpt lat="42.40907" lon="0.14035">
        <ele>570.7</ele>
        <time>2017-07-02T09:32:17Z</time>
      </trkpt>
      <trkpt lat="42.40902" lon="0.14034">
        <ele>571</ele>
        <time>2017-07-02T09:32:19Z</time>
      </trkpt>
      <trkpt lat="42.40898" lon="0.14032">
        <ele>571.2</ele>
        <time>2017-07-02T09:32:21Z</time>
      </trkpt>
      <trkpt lat="42.40893" lon="0.14028">
        <ele>571.7</ele>
        <time>2017-07-02T09:32:23Z</time>
      </trkpt>
      <trkpt lat="42.40891" lon="0.14026">
        <ele>571.9</ele>
        <time>2017-07-02T09:32:24Z</time>
      </trkpt>
      <trkpt lat="42.40888" lon="0.14024">
        <ele>572.1</ele>
        <time>2017-07-02T09:32:25Z</time>
      </trkpt>
      <trkpt lat="42.40886" lon="0.14022">
        <ele>572.3</ele>
        <time>2017-07-02T09:32:26Z</time>
      </trkpt>
      <trkpt lat="42.40883" lon="0.1402">
        <ele>572.5</ele>
        <time>2017-07-02T09:32:27Z</time>
      </trkpt>
      <trkpt lat="42.40881" lon="0.14019">
        <ele>572.5</ele>
        <time>2017-07-02T09:32:28Z</time>
      </trkpt>
      <trkpt lat="42.40878" lon="0.14017">
        <ele>572.6</ele>
        <time>2017-07-02T09:32:29Z</time>
      </trkpt>
      <trkpt lat="42.40875" lon="0.14016">
        <ele>572.5</ele>
        <time>2017-07-02T09:32:30Z</time>
      </trkpt>
      <trkpt lat="42.40873" lon="0.14015">
        <ele>572.4</ele>
        <time>2017-07-02T09:32:31Z</time>
      </trkpt>
      <trkpt lat="42.40867" lon="0.14014">
        <ele>572.2</ele>
        <time>2017-07-02T09:32:33Z</time>
      </trkpt>
      <trkpt lat="42.40862" lon="0.14013">
        <ele>572.1</ele>
        <time>2017-07-02T09:32:35Z</time>
      </trkpt>
      <trkpt lat="42.40858" lon="0.14013">
        <ele>572.7</ele>
        <time>2017-07-02T09:32:37Z</time>
      </trkpt>
      <trkpt lat="42.40853" lon="0.14014">
        <ele>574.2</ele>
        <time>2017-07-02T09:32:39Z</time>
      </trkpt>
      <trkpt lat="42.40849" lon="0.14018">
        <ele>575.5</ele>
        <time>2017-07-02T09:32:41Z</time>
      </trkpt>
      <trkpt lat="42.40847" lon="0.1402">
        <ele>576.2</ele>
        <time>2017-07-02T09:32:42Z</time>
      </trkpt>
      <trkpt lat="42.40844" lon="0.14023">
        <ele>577.2</ele>
        <time>2017-07-02T09:32:43Z</time>
      </trkpt>
      <trkpt lat="42.40843" lon="0.14026">
        <ele>578.2</ele>
        <time>2017-07-02T09:32:44Z</time>
      </trkpt>
      <trkpt lat="42.40841" lon="0.14029">
        <ele>579.3</ele>
        <time>2017-07-02T09:32:45Z</time>
      </trkpt>
      <trkpt lat="42.4084" lon="0.14033">
        <ele>579.9</ele>
        <time>2017-07-02T09:32:46Z</time>
      </trkpt>
      <trkpt lat="42.40838" lon="0.14036">
        <ele>580.6</ele>
        <time>2017-07-02T09:32:47Z</time>
      </trkpt>
      <trkpt lat="42.40836" lon="0.14039">
        <ele>581.2</ele>
        <time>2017-07-02T09:32:48Z</time>
      </trkpt>
      <trkpt lat="42.40833" lon="0.14041">
        <ele>581.9</ele>
        <time>2017-07-02T09:32:49Z</time>
      </trkpt>
      <trkpt lat="42.4083" lon="0.14042">
        <ele>582.5</ele>
        <time>2017-07-02T09:32:50Z</time>
      </trkpt>
      <trkpt lat="42.40827" lon="0.14044">
        <ele>583.4</ele>
        <time>2017-07-02T09:32:51Z</time>
      </trkpt>
      <trkpt lat="42.40824" lon="0.14045">
        <ele>584.3</ele>
        <time>2017-07-02T09:32:52Z</time>
      </trkpt>
      <trkpt lat="42.40821" lon="0.14046">
        <ele>585.1</ele>
        <time>2017-07-02T09:32:53Z</time>
      </trkpt>
      <trkpt lat="42.40817" lon="0.14047">
        <ele>585.9</ele>
        <time>2017-07-02T09:32:54Z</time>
      </trkpt>
      <trkpt lat="42.40814" lon="0.14049">
        <ele>586.7</ele>
        <time>2017-07-02T09:32:55Z</time>
      </trkpt>
      <trkpt lat="42.40811" lon="0.14051">
        <ele>587</ele>
        <time>2017-07-02T09:32:56Z</time>
      </trkpt>
      <trkpt lat="42.40809" lon="0.14054">
        <ele>587.3</ele>
        <time>2017-07-02T09:32:57Z</time>
      </trkpt>
      <trkpt lat="42.40806" lon="0.14055">
        <ele>587.7</ele>
        <time>2017-07-02T09:32:58Z</time>
      </trkpt>
      <trkpt lat="42.40804" lon="0.14057">
        <ele>588.3</ele>
        <time>2017-07-02T09:32:59Z</time>
      </trkpt>
      <trkpt lat="42.40801" lon="0.14059">
        <ele>588.8</ele>
        <time>2017-07-02T09:33:00Z</time>
      </trkpt>
      <trkpt lat="42.40797" lon="0.14062">
        <ele>589.7</ele>
        <time>2017-07-02T09:33:02Z</time>
      </trkpt>
      <trkpt lat="42.40792" lon="0.14065">
        <ele>590.8</ele>
        <time>2017-07-02T09:33:04Z</time>
      </trkpt>
      <trkpt lat="42.40787" lon="0.14067">
        <ele>591.7</ele>
        <time>2017-07-02T09:33:06Z</time>
      </trkpt>
      <trkpt lat="42.40783" lon="0.14068">
        <ele>592.5</ele>
        <time>2017-07-02T09:33:08Z</time>
      </trkpt>
      <trkpt lat="42.4078" lon="0.14068">
        <ele>592.9</ele>
        <time>2017-07-02T09:33:09Z</time>
      </trkpt>
      <trkpt lat="42.40777" lon="0.1407">
        <ele>593.2</ele>
        <time>2017-07-02T09:33:10Z</time>
      </trkpt>
      <trkpt lat="42.40775" lon="0.14071">
        <ele>593.6</ele>
        <time>2017-07-02T09:33:11Z</time>
      </trkpt>
      <trkpt lat="42.40772" lon="0.14073">
        <ele>593.7</ele>
        <time>2017-07-02T09:33:12Z</time>
      </trkpt>
      <trkpt lat="42.40769" lon="0.14075">
        <ele>593.8</ele>
        <time>2017-07-02T09:33:13Z</time>
      </trkpt>
      <trkpt lat="42.40766" lon="0.14076">
        <ele>593.9</ele>
        <time>2017-07-02T09:33:14Z</time>
      </trkpt>
      <trkpt lat="42.40761" lon="0.14078">
        <ele>594.2</ele>
        <time>2017-07-02T09:33:16Z</time>
      </trkpt>
      <trkpt lat="42.40756" lon="0.14079">
        <ele>594.3</ele>
        <time>2017-07-02T09:33:18Z</time>
      </trkpt>
      <trkpt lat="42.40751" lon="0.1408">
        <ele>594.2</ele>
        <time>2017-07-02T09:33:20Z</time>
      </trkpt>
      <trkpt lat="42.40746" lon="0.14081">
        <ele>594.3</ele>
        <time>2017-07-02T09:33:22Z</time>
      </trkpt>
      <trkpt lat="42.40742" lon="0.14082">
        <ele>594.4</ele>
        <time>2017-07-02T09:33:24Z</time>
      </trkpt>
      <trkpt lat="42.40737" lon="0.14083">
        <ele>594.3</ele>
        <time>2017-07-02T09:33:26Z</time>
      </trkpt>
      <trkpt lat="42.40732" lon="0.14083">
        <ele>594.5</ele>
        <time>2017-07-02T09:33:28Z</time>
      </trkpt>
      <trkpt lat="42.40729" lon="0.14083">
        <ele>594.7</ele>
        <time>2017-07-02T09:33:29Z</time>
      </trkpt>
      <trkpt lat="42.40726" lon="0.14083">
        <ele>594.9</ele>
        <time>2017-07-02T09:33:30Z</time>
      </trkpt>
      <trkpt lat="42.40723" lon="0.14084">
        <ele>595.1</ele>
        <time>2017-07-02T09:33:31Z</time>
      </trkpt>
      <trkpt lat="42.40718" lon="0.14086">
        <ele>595.6</ele>
        <time>2017-07-02T09:33:33Z</time>
      </trkpt>
      <trkpt lat="42.40713" lon="0.14089">
        <ele>596.2</ele>
        <time>2017-07-02T09:33:35Z</time>
      </trkpt>
      <trkpt lat="42.40711" lon="0.14091">
        <ele>596.5</ele>
        <time>2017-07-02T09:33:36Z</time>
      </trkpt>
      <trkpt lat="42.40706" lon="0.14094">
        <ele>597.4</ele>
        <time>2017-07-02T09:33:38Z</time>
      </trkpt>
      <trkpt lat="42.40701" lon="0.14098">
        <ele>598.5</ele>
        <time>2017-07-02T09:33:40Z</time>
      </trkpt>
      <trkpt lat="42.40697" lon="0.14101">
        <ele>599.1</ele>
        <time>2017-07-02T09:33:42Z</time>
      </trkpt>
      <trkpt lat="42.40692" lon="0.14104">
        <ele>599.6</ele>
        <time>2017-07-02T09:33:44Z</time>
      </trkpt>
      <trkpt lat="42.40688" lon="0.14107">
        <ele>600.1</ele>
        <time>2017-07-02T09:33:46Z</time>
      </trkpt>
      <trkpt lat="42.40684" lon="0.14109">
        <ele>600.6</ele>
        <time>2017-07-02T09:33:48Z</time>
      </trkpt>
      <trkpt lat="42.4068" lon="0.14111">
        <ele>601.1</ele>
        <time>2017-07-02T09:33:50Z</time>
      </trkpt>
      <trkpt lat="42.40675" lon="0.14113">
        <ele>601.7</ele>
        <time>2017-07-02T09:33:52Z</time>
      </trkpt>
      <trkpt lat="42.4067" lon="0.14115">
        <ele>601.1</ele>
        <time>2017-07-02T09:33:54Z</time>
      </trkpt>
      <trkpt lat="42.40665" lon="0.14117">
        <ele>600.2</ele>
        <time>2017-07-02T09:33:56Z</time>
      </trkpt>
      <trkpt lat="42.40662" lon="0.14118">
        <ele>600.3</ele>
        <time>2017-07-02T09:33:57Z</time>
      </trkpt>
      <trkpt lat="42.40659" lon="0.14118">
        <ele>600.6</ele>
        <time>2017-07-02T09:33:58Z</time>
      </trkpt>
      <trkpt lat="42.40656" lon="0.14119">
        <ele>600.9</ele>
        <time>2017-07-02T09:33:59Z</time>
      </trkpt>
      <trkpt lat="42.40651" lon="0.14118">
        <ele>601.4</ele>
        <time>2017-07-02T09:34:01Z</time>
      </trkpt>
      <trkpt lat="42.40646" lon="0.14117">
        <ele>601.6</ele>
        <time>2017-07-02T09:34:03Z</time>
      </trkpt>
      <trkpt lat="42.40641" lon="0.14116">
        <ele>601.6</ele>
        <time>2017-07-02T09:34:05Z</time>
      </trkpt>
      <trkpt lat="42.40637" lon="0.14115">
        <ele>601.4</ele>
        <time>2017-07-02T09:34:07Z</time>
      </trkpt>
      <trkpt lat="42.40632" lon="0.14115">
        <ele>601.4</ele>
        <time>2017-07-02T09:34:09Z</time>
      </trkpt>
      <trkpt lat="42.40628" lon="0.14114">
        <ele>601.4</ele>
        <time>2017-07-02T09:34:11Z</time>
      </trkpt>
      <trkpt lat="42.40623" lon="0.14112">
        <ele>601.4</ele>
        <time>2017-07-02T09:34:13Z</time>
      </trkpt>
      <trkpt lat="42.40618" lon="0.1411">
        <ele>601.4</ele>
        <time>2017-07-02T09:34:15Z</time>
      </trkpt>
      <trkpt lat="42.40613" lon="0.14109">
        <ele>601.4</ele>
        <time>2017-07-02T09:34:17Z</time>
      </trkpt>
      <trkpt lat="42.40608" lon="0.14107">
        <ele>601.4</ele>
        <time>2017-07-02T09:34:19Z</time>
      </trkpt>
      <trkpt lat="42.40603" lon="0.14105">
        <ele>601.5</ele>
        <time>2017-07-02T09:34:21Z</time>
      </trkpt>
      <trkpt lat="42.40598" lon="0.14104">
        <ele>601.8</ele>
        <time>2017-07-02T09:34:23Z</time>
      </trkpt>
      <trkpt lat="42.40593" lon="0.14102">
        <ele>602</ele>
        <time>2017-07-02T09:34:25Z</time>
      </trkpt>
      <trkpt lat="42.40588" lon="0.14101">
        <ele>602.3</ele>
        <time>2017-07-02T09:34:27Z</time>
      </trkpt>
      <trkpt lat="42.40585" lon="0.141">
        <ele>602.3</ele>
        <time>2017-07-02T09:34:28Z</time>
      </trkpt>
      <trkpt lat="42.4058" lon="0.14099">
        <ele>602.5</ele>
        <time>2017-07-02T09:34:30Z</time>
      </trkpt>
      <trkpt lat="42.40575" lon="0.14099">
        <ele>602.5</ele>
        <time>2017-07-02T09:34:32Z</time>
      </trkpt>
      <trkpt lat="42.40572" lon="0.14099">
        <ele>602.5</ele>
        <time>2017-07-02T09:34:33Z</time>
      </trkpt>
      <trkpt lat="42.40569" lon="0.14099">
        <ele>602.4</ele>
        <time>2017-07-02T09:34:34Z</time>
      </trkpt>
      <trkpt lat="42.40566" lon="0.14099">
        <ele>602.4</ele>
        <time>2017-07-02T09:34:35Z</time>
      </trkpt>
      <trkpt lat="42.40563" lon="0.141">
        <ele>602.3</ele>
        <time>2017-07-02T09:34:36Z</time>
      </trkpt>
      <trkpt lat="42.40561" lon="0.141">
        <ele>602.3</ele>
        <time>2017-07-02T09:34:37Z</time>
      </trkpt>
      <trkpt lat="42.40558" lon="0.14101">
        <ele>602.3</ele>
        <time>2017-07-02T09:34:38Z</time>
      </trkpt>
      <trkpt lat="42.40555" lon="0.14101">
        <ele>602.4</ele>
        <time>2017-07-02T09:34:39Z</time>
      </trkpt>
      <trkpt lat="42.40552" lon="0.14101">
        <ele>602.4</ele>
        <time>2017-07-02T09:34:40Z</time>
      </trkpt>
      <trkpt lat="42.40549" lon="0.14101">
        <ele>602.6</ele>
        <time>2017-07-02T09:34:41Z</time>
      </trkpt>
      <trkpt lat="42.40546" lon="0.14101">
        <ele>602.7</ele>
        <time>2017-07-02T09:34:42Z</time>
      </trkpt>
      <trkpt lat="42.40543" lon="0.14101">
        <ele>602.8</ele>
        <time>2017-07-02T09:34:43Z</time>
      </trkpt>
      <trkpt lat="42.4054" lon="0.14101">
        <ele>603</ele>
        <time>2017-07-02T09:34:44Z</time>
      </trkpt>
      <trkpt lat="42.40535" lon="0.141">
        <ele>603.2</ele>
        <time>2017-07-02T09:34:46Z</time>
      </trkpt>
      <trkpt lat="42.4053" lon="0.141">
        <ele>603.4</ele>
        <time>2017-07-02T09:34:48Z</time>
      </trkpt>
      <trkpt lat="42.40526" lon="0.14101">
        <ele>603.6</ele>
        <time>2017-07-02T09:34:50Z</time>
      </trkpt>
      <trkpt lat="42.40521" lon="0.14101">
        <ele>603.7</ele>
        <time>2017-07-02T09:34:52Z</time>
      </trkpt>
      <trkpt lat="42.40516" lon="0.141">
        <ele>603.8</ele>
        <time>2017-07-02T09:34:54Z</time>
      </trkpt>
      <trkpt lat="42.4051" lon="0.14101">
        <ele>604</ele>
        <time>2017-07-02T09:34:56Z</time>
      </trkpt>
      <trkpt lat="42.40508" lon="0.14101">
        <ele>604.1</ele>
        <time>2017-07-02T09:34:57Z</time>
      </trkpt>
      <trkpt lat="42.40505" lon="0.14101">
        <ele>604.2</ele>
        <time>2017-07-02T09:34:58Z</time>
      </trkpt>
      <trkpt lat="42.40502" lon="0.14102">
        <ele>604.4</ele>
        <time>2017-07-02T09:34:59Z</time>
      </trkpt>
      <trkpt lat="42.40499" lon="0.14103">
        <ele>604.6</ele>
        <time>2017-07-02T09:35:00Z</time>
      </trkpt>
      <trkpt lat="42.40495" lon="0.14103">
        <ele>604.9</ele>
        <time>2017-07-02T09:35:01Z</time>
      </trkpt>
      <trkpt lat="42.40492" lon="0.14104">
        <ele>605.2</ele>
        <time>2017-07-02T09:35:02Z</time>
      </trkpt>
      <trkpt lat="42.40489" lon="0.14104">
        <ele>605.5</ele>
        <time>2017-07-02T09:35:03Z</time>
      </trkpt>
      <trkpt lat="42.40486" lon="0.14104">
        <ele>605.8</ele>
        <time>2017-07-02T09:35:04Z</time>
      </trkpt>
      <trkpt lat="42.40483" lon="0.14105">
        <ele>606.2</ele>
        <time>2017-07-02T09:35:05Z</time>
      </trkpt>
      <trkpt lat="42.4048" lon="0.14105">
        <ele>606.4</ele>
        <time>2017-07-02T09:35:06Z</time>
      </trkpt>
      <trkpt lat="42.40476" lon="0.14106">
        <ele>606.6</ele>
        <time>2017-07-02T09:35:07Z</time>
      </trkpt>
      <trkpt lat="42.40473" lon="0.14107">
        <ele>606.9</ele>
        <time>2017-07-02T09:35:08Z</time>
      </trkpt>
      <trkpt lat="42.40469" lon="0.14108">
        <ele>607.2</ele>
        <time>2017-07-02T09:35:09Z</time>
      </trkpt>
      <trkpt lat="42.40466" lon="0.14109">
        <ele>607.5</ele>
        <time>2017-07-02T09:35:10Z</time>
      </trkpt>
      <trkpt lat="42.40462" lon="0.1411">
        <ele>607.5</ele>
        <time>2017-07-02T09:35:11Z</time>
      </trkpt>
      <trkpt lat="42.40459" lon="0.14111">
        <ele>607.6</ele>
        <time>2017-07-02T09:35:12Z</time>
      </trkpt>
      <trkpt lat="42.40456" lon="0.14112">
        <ele>607.6</ele>
        <time>2017-07-02T09:35:13Z</time>
      </trkpt>
      <trkpt lat="42.40452" lon="0.14113">
        <ele>607.5</ele>
        <time>2017-07-02T09:35:14Z</time>
      </trkpt>
      <trkpt lat="42.40449" lon="0.14113">
        <ele>607.5</ele>
        <time>2017-07-02T09:35:15Z</time>
      </trkpt>
      <trkpt lat="42.40446" lon="0.14114">
        <ele>607.3</ele>
        <time>2017-07-02T09:35:16Z</time>
      </trkpt>
      <trkpt lat="42.40442" lon="0.14115">
        <ele>607.1</ele>
        <time>2017-07-02T09:35:17Z</time>
      </trkpt>
      <trkpt lat="42.40439" lon="0.14116">
        <ele>606.9</ele>
        <time>2017-07-02T09:35:18Z</time>
      </trkpt>
      <trkpt lat="42.40436" lon="0.14118">
        <ele>606.7</ele>
        <time>2017-07-02T09:35:19Z</time>
      </trkpt>
      <trkpt lat="42.40432" lon="0.14119">
        <ele>606.4</ele>
        <time>2017-07-02T09:35:20Z</time>
      </trkpt>
      <trkpt lat="42.40429" lon="0.1412">
        <ele>606</ele>
        <time>2017-07-02T09:35:21Z</time>
      </trkpt>
      <trkpt lat="42.40426" lon="0.14121">
        <ele>605.6</ele>
        <time>2017-07-02T09:35:22Z</time>
      </trkpt>
      <trkpt lat="42.40422" lon="0.14122">
        <ele>605.2</ele>
        <time>2017-07-02T09:35:23Z</time>
      </trkpt>
      <trkpt lat="42.40419" lon="0.14123">
        <ele>604.8</ele>
        <time>2017-07-02T09:35:24Z</time>
      </trkpt>
      <trkpt lat="42.40416" lon="0.14124">
        <ele>604.5</ele>
        <time>2017-07-02T09:35:25Z</time>
      </trkpt>
      <trkpt lat="42.40412" lon="0.14126">
        <ele>604.2</ele>
        <time>2017-07-02T09:35:26Z</time>
      </trkpt>
      <trkpt lat="42.40409" lon="0.14127">
        <ele>603.9</ele>
        <time>2017-07-02T09:35:27Z</time>
      </trkpt>
      <trkpt lat="42.40406" lon="0.14129">
        <ele>603.6</ele>
        <time>2017-07-02T09:35:28Z</time>
      </trkpt>
      <trkpt lat="42.40402" lon="0.1413">
        <ele>603.2</ele>
        <time>2017-07-02T09:35:29Z</time>
      </trkpt>
      <trkpt lat="42.40399" lon="0.14132">
        <ele>602.8</ele>
        <time>2017-07-02T09:35:30Z</time>
      </trkpt>
      <trkpt lat="42.40396" lon="0.14134">
        <ele>602.4</ele>
        <time>2017-07-02T09:35:31Z</time>
      </trkpt>
      <trkpt lat="42.40393" lon="0.14135">
        <ele>602</ele>
        <time>2017-07-02T09:35:32Z</time>
      </trkpt>
      <trkpt lat="42.40389" lon="0.14137">
        <ele>601.7</ele>
        <time>2017-07-02T09:35:33Z</time>
      </trkpt>
      <trkpt lat="42.40386" lon="0.14138">
        <ele>601.5</ele>
        <time>2017-07-02T09:35:34Z</time>
      </trkpt>
      <trkpt lat="42.40383" lon="0.14139">
        <ele>601.3</ele>
        <time>2017-07-02T09:35:35Z</time>
      </trkpt>
      <trkpt lat="42.4038" lon="0.14141">
        <ele>601.1</ele>
        <time>2017-07-02T09:35:36Z</time>
      </trkpt>
      <trkpt lat="42.40376" lon="0.14143">
        <ele>601</ele>
        <time>2017-07-02T09:35:37Z</time>
      </trkpt>
      <trkpt lat="42.40373" lon="0.14145">
        <ele>600.8</ele>
        <time>2017-07-02T09:35:38Z</time>
      </trkpt>
      <trkpt lat="42.40369" lon="0.14148">
        <ele>600.7</ele>
        <time>2017-07-02T09:35:39Z</time>
      </trkpt>
      <trkpt lat="42.40365" lon="0.14152">
        <ele>600.5</ele>
        <time>2017-07-02T09:35:40Z</time>
      </trkpt>
      <trkpt lat="42.40361" lon="0.14157">
        <ele>600.3</ele>
        <time>2017-07-02T09:35:41Z</time>
      </trkpt>
      <trkpt lat="42.40356" lon="0.14161">
        <ele>600.5</ele>
        <time>2017-07-02T09:35:42Z</time>
      </trkpt>
      <trkpt lat="42.40351" lon="0.14166">
        <ele>601.1</ele>
        <time>2017-07-02T09:35:43Z</time>
      </trkpt>
      <trkpt lat="42.40346" lon="0.1417">
        <ele>602</ele>
        <time>2017-07-02T09:35:44Z</time>
      </trkpt>
      <trkpt lat="42.4034" lon="0.14173">
        <ele>603.2</ele>
        <time>2017-07-02T09:35:45Z</time>
      </trkpt>
      <trkpt lat="42.40335" lon="0.14176">
        <ele>604.3</ele>
        <time>2017-07-02T09:35:46Z</time>
      </trkpt>
      <trkpt lat="42.4033" lon="0.14178">
        <ele>604.9</ele>
        <time>2017-07-02T09:35:47Z</time>
      </trkpt>
      <trkpt lat="42.40326" lon="0.14178">
        <ele>605.3</ele>
        <time>2017-07-02T09:35:48Z</time>
      </trkpt>
      <trkpt lat="42.40322" lon="0.14178">
        <ele>605.6</ele>
        <time>2017-07-02T09:35:49Z</time>
      </trkpt>
      <trkpt lat="42.40319" lon="0.14177">
        <ele>605.7</ele>
        <time>2017-07-02T09:35:50Z</time>
      </trkpt>
      <trkpt lat="42.40315" lon="0.14175">
        <ele>605.6</ele>
        <time>2017-07-02T09:35:52Z</time>
      </trkpt>
      <trkpt lat="42.40311" lon="0.14174">
        <ele>605.8</ele>
        <time>2017-07-02T09:35:54Z</time>
      </trkpt>
      <trkpt lat="42.40308" lon="0.14173">
        <ele>606.1</ele>
        <time>2017-07-02T09:35:56Z</time>
      </trkpt>
      <trkpt lat="42.40305" lon="0.14171">
        <ele>606.5</ele>
        <time>2017-07-02T09:35:59Z</time>
      </trkpt>
      <trkpt lat="42.40296" lon="0.14173">
        <ele>608.2</ele>
        <time>2017-07-02T09:36:55Z</time>
      </trkpt>
      <trkpt lat="42.40293" lon="0.14174">
        <ele>609</ele>
        <time>2017-07-02T09:36:56Z</time>
      </trkpt>
      <trkpt lat="42.4029" lon="0.14176">
        <ele>609.6</ele>
        <time>2017-07-02T09:36:57Z</time>
      </trkpt>
      <trkpt lat="42.40287" lon="0.14177">
        <ele>610.2</ele>
        <time>2017-07-02T09:36:58Z</time>
      </trkpt>
      <trkpt lat="42.40284" lon="0.14179">
        <ele>610.5</ele>
        <time>2017-07-02T09:36:59Z</time>
      </trkpt>
      <trkpt lat="42.40281" lon="0.14181">
        <ele>610.8</ele>
        <time>2017-07-02T09:37:00Z</time>
      </trkpt>
      <trkpt lat="42.40278" lon="0.14182">
        <ele>611</ele>
        <time>2017-07-02T09:37:01Z</time>
      </trkpt>
      <trkpt lat="42.40274" lon="0.14185">
        <ele>611.4</ele>
        <time>2017-07-02T09:37:03Z</time>
      </trkpt>
      <trkpt lat="42.40269" lon="0.14186">
        <ele>611.5</ele>
        <time>2017-07-02T09:37:05Z</time>
      </trkpt>
      <trkpt lat="42.40265" lon="0.14185">
        <ele>611.7</ele>
        <time>2017-07-02T09:37:07Z</time>
      </trkpt>
      <trkpt lat="42.40261" lon="0.14185">
        <ele>612</ele>
        <time>2017-07-02T09:37:09Z</time>
      </trkpt>
      <trkpt lat="42.40257" lon="0.14185">
        <ele>612.3</ele>
        <time>2017-07-02T09:37:11Z</time>
      </trkpt>
      <trkpt lat="42.40253" lon="0.14182">
        <ele>612.6</ele>
        <time>2017-07-02T09:37:14Z</time>
      </trkpt>
      <trkpt lat="42.40252" lon="0.14174">
        <ele>614.4</ele>
        <time>2017-07-02T09:37:16Z</time>
      </trkpt>
      <trkpt lat="42.40252" lon="0.14167">
        <ele>616</ele>
        <time>2017-07-02T09:37:18Z</time>
      </trkpt>
      <trkpt lat="42.40251" lon="0.14161">
        <ele>618.3</ele>
        <time>2017-07-02T09:37:20Z</time>
      </trkpt>
      <trkpt lat="42.40251" lon="0.14155">
        <ele>620.5</ele>
        <time>2017-07-02T09:37:22Z</time>
      </trkpt>
      <trkpt lat="42.4025" lon="0.14148">
        <ele>623.2</ele>
        <time>2017-07-02T09:37:24Z</time>
      </trkpt>
      <trkpt lat="42.4025" lon="0.14142">
        <ele>624.6</ele>
        <time>2017-07-02T09:37:26Z</time>
      </trkpt>
      <trkpt lat="42.40249" lon="0.14137">
        <ele>626.4</ele>
        <time>2017-07-02T09:37:28Z</time>
      </trkpt>
      <trkpt lat="42.40249" lon="0.14131">
        <ele>627.9</ele>
        <time>2017-07-02T09:37:30Z</time>
      </trkpt>
      <trkpt lat="42.40249" lon="0.14125">
        <ele>628.9</ele>
        <time>2017-07-02T09:37:32Z</time>
      </trkpt>
      <trkpt lat="42.40248" lon="0.14121">
        <ele>629.4</ele>
        <time>2017-07-02T09:37:34Z</time>
      </trkpt>
      <trkpt lat="42.40247" lon="0.14116">
        <ele>629.8</ele>
        <time>2017-07-02T09:37:36Z</time>
      </trkpt>
      <trkpt lat="42.40246" lon="0.14112">
        <ele>630.3</ele>
        <time>2017-07-02T09:37:38Z</time>
      </trkpt>
      <trkpt lat="42.40245" lon="0.14108">
        <ele>630.8</ele>
        <time>2017-07-02T09:37:40Z</time>
      </trkpt>
      <trkpt lat="42.40243" lon="0.14103">
        <ele>631.4</ele>
        <time>2017-07-02T09:37:42Z</time>
      </trkpt>
      <trkpt lat="42.40242" lon="0.14098">
        <ele>631.9</ele>
        <time>2017-07-02T09:37:44Z</time>
      </trkpt>
      <trkpt lat="42.40241" lon="0.14093">
        <ele>632.7</ele>
        <time>2017-07-02T09:37:46Z</time>
      </trkpt>
      <trkpt lat="42.40239" lon="0.14089">
        <ele>634</ele>
        <time>2017-07-02T09:37:48Z</time>
      </trkpt>
      <trkpt lat="42.40236" lon="0.14084">
        <ele>635</ele>
        <time>2017-07-02T09:37:50Z</time>
      </trkpt>
      <trkpt lat="42.40234" lon="0.1408">
        <ele>635.6</ele>
        <time>2017-07-02T09:37:52Z</time>
      </trkpt>
      <trkpt lat="42.40231" lon="0.14075">
        <ele>636.3</ele>
        <time>2017-07-02T09:37:54Z</time>
      </trkpt>
      <trkpt lat="42.40229" lon="0.1407">
        <ele>636.9</ele>
        <time>2017-07-02T09:37:56Z</time>
      </trkpt>
      <trkpt lat="42.40227" lon="0.14067">
        <ele>637.2</ele>
        <time>2017-07-02T09:37:58Z</time>
      </trkpt>
      <trkpt lat="42.40224" lon="0.14064">
        <ele>637.7</ele>
        <time>2017-07-02T09:38:00Z</time>
      </trkpt>
      <trkpt lat="42.4022" lon="0.14059">
        <ele>638</ele>
        <time>2017-07-02T09:38:02Z</time>
      </trkpt>
      <trkpt lat="42.40218" lon="0.14056">
        <ele>638.2</ele>
        <time>2017-07-02T09:38:03Z</time>
      </trkpt>
      <trkpt lat="42.40214" lon="0.14054">
        <ele>638.4</ele>
        <time>2017-07-02T09:38:04Z</time>
      </trkpt>
      <trkpt lat="42.4021" lon="0.14053">
        <ele>638.7</ele>
        <time>2017-07-02T09:38:05Z</time>
      </trkpt>
      <trkpt lat="42.40205" lon="0.14052">
        <ele>638.9</ele>
        <time>2017-07-02T09:38:06Z</time>
      </trkpt>
      <trkpt lat="42.40199" lon="0.14051">
        <ele>639.2</ele>
        <time>2017-07-02T09:38:07Z</time>
      </trkpt>
      <trkpt lat="42.40194" lon="0.14049">
        <ele>639.6</ele>
        <time>2017-07-02T09:38:08Z</time>
      </trkpt>
      <trkpt lat="42.4019" lon="0.14046">
        <ele>639.9</ele>
        <time>2017-07-02T09:38:09Z</time>
      </trkpt>
      <trkpt lat="42.40186" lon="0.14042">
        <ele>640.2</ele>
        <time>2017-07-02T09:38:10Z</time>
      </trkpt>
      <trkpt lat="42.40183" lon="0.14038">
        <ele>640.4</ele>
        <time>2017-07-02T09:38:11Z</time>
      </trkpt>
      <trkpt lat="42.40182" lon="0.14034">
        <ele>640.8</ele>
        <time>2017-07-02T09:38:12Z</time>
      </trkpt>
      <trkpt lat="42.4018" lon="0.14031">
        <ele>641</ele>
        <time>2017-07-02T09:38:13Z</time>
      </trkpt>
      <trkpt lat="42.40177" lon="0.14026">
        <ele>641.3</ele>
        <time>2017-07-02T09:38:15Z</time>
      </trkpt>
      <trkpt lat="42.40174" lon="0.14023">
        <ele>641.6</ele>
        <time>2017-07-02T09:38:17Z</time>
      </trkpt>
      <trkpt lat="42.4017" lon="0.14021">
        <ele>642</ele>
        <time>2017-07-02T09:38:19Z</time>
      </trkpt>
      <trkpt lat="42.40167" lon="0.14018">
        <ele>642.4</ele>
        <time>2017-07-02T09:38:21Z</time>
      </trkpt>
      <trkpt lat="42.40164" lon="0.14015">
        <ele>642.8</ele>
        <time>2017-07-02T09:38:23Z</time>
      </trkpt>
      <trkpt lat="42.4016" lon="0.14013">
        <ele>643.7</ele>
        <time>2017-07-02T09:38:25Z</time>
      </trkpt>
      <trkpt lat="42.40156" lon="0.14011">
        <ele>645</ele>
        <time>2017-07-02T09:38:27Z</time>
      </trkpt>
      <trkpt lat="42.40153" lon="0.14009">
        <ele>646.2</ele>
        <time>2017-07-02T09:38:29Z</time>
      </trkpt>
      <trkpt lat="42.40151" lon="0.14007">
        <ele>646.7</ele>
        <time>2017-07-02T09:38:33Z</time>
      </trkpt>
      <trkpt lat="42.40147" lon="0.14006">
        <ele>647.5</ele>
        <time>2017-07-02T09:38:36Z</time>
      </trkpt>
      <trkpt lat="42.40143" lon="0.14005">
        <ele>648.1</ele>
        <time>2017-07-02T09:38:38Z</time>
      </trkpt>
      <trkpt lat="42.4014" lon="0.14003">
        <ele>649</ele>
        <time>2017-07-02T09:38:40Z</time>
      </trkpt>
      <trkpt lat="42.40137" lon="0.14002">
        <ele>649.9</ele>
        <time>2017-07-02T09:38:42Z</time>
      </trkpt>
      <trkpt lat="42.40134" lon="0.14">
        <ele>651.2</ele>
        <time>2017-07-02T09:38:44Z</time>
      </trkpt>
      <trkpt lat="42.40131" lon="0.13998">
        <ele>652.7</ele>
        <time>2017-07-02T09:38:46Z</time>
      </trkpt>
      <trkpt lat="42.40128" lon="0.13995">
        <ele>654.1</ele>
        <time>2017-07-02T09:38:48Z</time>
      </trkpt>
      <trkpt lat="42.40124" lon="0.13993">
        <ele>654.7</ele>
        <time>2017-07-02T09:38:50Z</time>
      </trkpt>
      <trkpt lat="42.40121" lon="0.13991">
        <ele>655.3</ele>
        <time>2017-07-02T09:38:52Z</time>
      </trkpt>
      <trkpt lat="42.40118" lon="0.13989">
        <ele>655.9</ele>
        <time>2017-07-02T09:38:54Z</time>
      </trkpt>
      <trkpt lat="42.40114" lon="0.13987">
        <ele>657.4</ele>
        <time>2017-07-02T09:38:56Z</time>
      </trkpt>
      <trkpt lat="42.40112" lon="0.13983">
        <ele>658.5</ele>
        <time>2017-07-02T09:38:58Z</time>
      </trkpt>
      <trkpt lat="42.40109" lon="0.1398">
        <ele>659.3</ele>
        <time>2017-07-02T09:39:00Z</time>
      </trkpt>
      <trkpt lat="42.40107" lon="0.13977">
        <ele>660</ele>
        <time>2017-07-02T09:39:02Z</time>
      </trkpt>
      <trkpt lat="42.40104" lon="0.13975">
        <ele>661.1</ele>
        <time>2017-07-02T09:39:04Z</time>
      </trkpt>
      <trkpt lat="42.40101" lon="0.13974">
        <ele>662.7</ele>
        <time>2017-07-02T09:39:06Z</time>
      </trkpt>
      <trkpt lat="42.40098" lon="0.13973">
        <ele>663.9</ele>
        <time>2017-07-02T09:39:08Z</time>
      </trkpt>
      <trkpt lat="42.40095" lon="0.13972">
        <ele>664.7</ele>
        <time>2017-07-02T09:39:10Z</time>
      </trkpt>
      <trkpt lat="42.40092" lon="0.1397">
        <ele>665.5</ele>
        <time>2017-07-02T09:39:12Z</time>
      </trkpt>
      <trkpt lat="42.4009" lon="0.13968">
        <ele>666.8</ele>
        <time>2017-07-02T09:39:14Z</time>
      </trkpt>
      <trkpt lat="42.40088" lon="0.13966">
        <ele>668.3</ele>
        <time>2017-07-02T09:39:16Z</time>
      </trkpt>
      <trkpt lat="42.40085" lon="0.13965">
        <ele>669.6</ele>
        <time>2017-07-02T09:39:18Z</time>
      </trkpt>
      <trkpt lat="42.40083" lon="0.13961">
        <ele>670.6</ele>
        <time>2017-07-02T09:39:21Z</time>
      </trkpt>
      <trkpt lat="42.40082" lon="0.13956">
        <ele>672.2</ele>
        <time>2017-07-02T09:39:24Z</time>
      </trkpt>
      <trkpt lat="42.4008" lon="0.13952">
        <ele>675.1</ele>
        <time>2017-07-02T09:39:27Z</time>
      </trkpt>
      <trkpt lat="42.40078" lon="0.13949">
        <ele>675.4</ele>
        <time>2017-07-02T09:39:30Z</time>
      </trkpt>
      <trkpt lat="42.40075" lon="0.13949">
        <ele>676</ele>
        <time>2017-07-02T09:39:33Z</time>
      </trkpt>
      <trkpt lat="42.40071" lon="0.13948">
        <ele>676.7</ele>
        <time>2017-07-02T09:39:36Z</time>
      </trkpt>
      <trkpt lat="42.40068" lon="0.13949">
        <ele>677.2</ele>
        <time>2017-07-02T09:39:39Z</time>
      </trkpt>
      <trkpt lat="42.40067" lon="0.13953">
        <ele>677.8</ele>
        <time>2017-07-02T09:39:42Z</time>
      </trkpt>
      <trkpt lat="42.40065" lon="0.13956">
        <ele>678.5</ele>
        <time>2017-07-02T09:39:46Z</time>
      </trkpt>
      <trkpt lat="42.40063" lon="0.13959">
        <ele>679.1</ele>
        <time>2017-07-02T09:39:49Z</time>
      </trkpt>
      <trkpt lat="42.40062" lon="0.13963">
        <ele>679.6</ele>
        <time>2017-07-02T09:39:52Z</time>
      </trkpt>
      <trkpt lat="42.4006" lon="0.13968">
        <ele>680.4</ele>
        <time>2017-07-02T09:39:55Z</time>
      </trkpt>
      <trkpt lat="42.40058" lon="0.13971">
        <ele>680.7</ele>
        <time>2017-07-02T09:39:58Z</time>
      </trkpt>
      <trkpt lat="42.40056" lon="0.13973">
        <ele>681</ele>
        <time>2017-07-02T09:40:01Z</time>
      </trkpt>
      <trkpt lat="42.40053" lon="0.13975">
        <ele>681.4</ele>
        <time>2017-07-02T09:40:04Z</time>
      </trkpt>
      <trkpt lat="42.4005" lon="0.13977">
        <ele>682.1</ele>
        <time>2017-07-02T09:40:07Z</time>
      </trkpt>
      <trkpt lat="42.40047" lon="0.13977">
        <ele>682.6</ele>
        <time>2017-07-02T09:40:09Z</time>
      </trkpt>
      <trkpt lat="42.40044" lon="0.13979">
        <ele>683</ele>
        <time>2017-07-02T09:40:12Z</time>
      </trkpt>
      <trkpt lat="42.40041" lon="0.13982">
        <ele>683.6</ele>
        <time>2017-07-02T09:40:17Z</time>
      </trkpt>
      <trkpt lat="42.40037" lon="0.13983">
        <ele>684.3</ele>
        <time>2017-07-02T09:40:20Z</time>
      </trkpt>
      <trkpt lat="42.40034" lon="0.13983">
        <ele>684.7</ele>
        <time>2017-07-02T09:40:23Z</time>
      </trkpt>
      <trkpt lat="42.4003" lon="0.13983">
        <ele>685.4</ele>
        <time>2017-07-02T09:40:26Z</time>
      </trkpt>
      <trkpt lat="42.40027" lon="0.13985">
        <ele>685.7</ele>
        <time>2017-07-02T09:40:28Z</time>
      </trkpt>
      <trkpt lat="42.40024" lon="0.13987">
        <ele>686</ele>
        <time>2017-07-02T09:40:30Z</time>
      </trkpt>
      <trkpt lat="42.40021" lon="0.13989">
        <ele>686.1</ele>
        <time>2017-07-02T09:40:32Z</time>
      </trkpt>
      <trkpt lat="42.40018" lon="0.1399">
        <ele>686.3</ele>
        <time>2017-07-02T09:40:34Z</time>
      </trkpt>
      <trkpt lat="42.40015" lon="0.13989">
        <ele>686.4</ele>
        <time>2017-07-02T09:40:37Z</time>
      </trkpt>
      <trkpt lat="42.40012" lon="0.13988">
        <ele>686.8</ele>
        <time>2017-07-02T09:40:40Z</time>
      </trkpt>
      <trkpt lat="42.40008" lon="0.13989">
        <ele>687.3</ele>
        <time>2017-07-02T09:40:43Z</time>
      </trkpt>
      <trkpt lat="42.40006" lon="0.13991">
        <ele>687.6</ele>
        <time>2017-07-02T09:40:45Z</time>
      </trkpt>
      <trkpt lat="42.40003" lon="0.13993">
        <ele>687.9</ele>
        <time>2017-07-02T09:40:48Z</time>
      </trkpt>
      <trkpt lat="42.4" lon="0.13995">
        <ele>688.1</ele>
        <time>2017-07-02T09:40:52Z</time>
      </trkpt>
      <trkpt lat="42.39997" lon="0.13997">
        <ele>688.3</ele>
        <time>2017-07-02T09:40:55Z</time>
      </trkpt>
      <trkpt lat="42.39994" lon="0.14001">
        <ele>688.4</ele>
        <time>2017-07-02T09:40:58Z</time>
      </trkpt>
      <trkpt lat="42.39992" lon="0.14003">
        <ele>688.6</ele>
        <time>2017-07-02T09:41:00Z</time>
      </trkpt>
      <trkpt lat="42.3999" lon="0.14005">
        <ele>689</ele>
        <time>2017-07-02T09:41:02Z</time>
      </trkpt>
      <trkpt lat="42.39987" lon="0.14007">
        <ele>689.4</ele>
        <time>2017-07-02T09:41:04Z</time>
      </trkpt>
      <trkpt lat="42.39983" lon="0.14009">
        <ele>689.8</ele>
        <time>2017-07-02T09:41:06Z</time>
      </trkpt>
      <trkpt lat="42.39979" lon="0.14011">
        <ele>690.1</ele>
        <time>2017-07-02T09:41:08Z</time>
      </trkpt>
      <trkpt lat="42.39976" lon="0.14014">
        <ele>690.7</ele>
        <time>2017-07-02T09:41:10Z</time>
      </trkpt>
      <trkpt lat="42.39974" lon="0.14016">
        <ele>691.2</ele>
        <time>2017-07-02T09:41:12Z</time>
      </trkpt>
      <trkpt lat="42.39972" lon="0.14019">
        <ele>691.8</ele>
        <time>2017-07-02T09:41:14Z</time>
      </trkpt>
      <trkpt lat="42.39969" lon="0.14021">
        <ele>692.2</ele>
        <time>2017-07-02T09:41:16Z</time>
      </trkpt>
      <trkpt lat="42.39966" lon="0.14024">
        <ele>692.8</ele>
        <time>2017-07-02T09:41:18Z</time>
      </trkpt>
      <trkpt lat="42.39963" lon="0.14026">
        <ele>693.4</ele>
        <time>2017-07-02T09:41:20Z</time>
      </trkpt>
      <trkpt lat="42.39959" lon="0.14027">
        <ele>693.8</ele>
        <time>2017-07-02T09:41:22Z</time>
      </trkpt>
      <trkpt lat="42.39954" lon="0.14027">
        <ele>694.2</ele>
        <time>2017-07-02T09:41:24Z</time>
      </trkpt>
      <trkpt lat="42.3995" lon="0.14029">
        <ele>694.9</ele>
        <time>2017-07-02T09:41:26Z</time>
      </trkpt>
      <trkpt lat="42.39947" lon="0.1403">
        <ele>695.4</ele>
        <time>2017-07-02T09:41:28Z</time>
      </trkpt>
      <trkpt lat="42.39944" lon="0.14032">
        <ele>695.7</ele>
        <time>2017-07-02T09:41:30Z</time>
      </trkpt>
      <trkpt lat="42.39943" lon="0.14035">
        <ele>695.9</ele>
        <time>2017-07-02T09:41:32Z</time>
      </trkpt>
      <trkpt lat="42.39941" lon="0.14038">
        <ele>696.1</ele>
        <time>2017-07-02T09:41:34Z</time>
      </trkpt>
      <trkpt lat="42.39938" lon="0.14041">
        <ele>696.6</ele>
        <time>2017-07-02T09:41:36Z</time>
      </trkpt>
      <trkpt lat="42.39936" lon="0.14043">
        <ele>697</ele>
        <time>2017-07-02T09:41:38Z</time>
      </trkpt>
      <trkpt lat="42.39933" lon="0.14046">
        <ele>697.4</ele>
        <time>2017-07-02T09:41:40Z</time>
      </trkpt>
      <trkpt lat="42.3993" lon="0.14048">
        <ele>698</ele>
        <time>2017-07-02T09:41:42Z</time>
      </trkpt>
      <trkpt lat="42.39927" lon="0.14049">
        <ele>698.4</ele>
        <time>2017-07-02T09:41:44Z</time>
      </trkpt>
      <trkpt lat="42.39923" lon="0.14049">
        <ele>698.7</ele>
        <time>2017-07-02T09:41:47Z</time>
      </trkpt>
      <trkpt lat="42.3992" lon="0.14049">
        <ele>698.9</ele>
        <time>2017-07-02T09:41:49Z</time>
      </trkpt>
      <trkpt lat="42.39917" lon="0.14048">
        <ele>698.9</ele>
        <time>2017-07-02T09:41:51Z</time>
      </trkpt>
      <trkpt lat="42.39914" lon="0.14045">
        <ele>699</ele>
        <time>2017-07-02T09:41:53Z</time>
      </trkpt>
      <trkpt lat="42.39912" lon="0.14042">
        <ele>699.1</ele>
        <time>2017-07-02T09:41:55Z</time>
      </trkpt>
      <trkpt lat="42.39909" lon="0.1404">
        <ele>699.1</ele>
        <time>2017-07-02T09:41:57Z</time>
      </trkpt>
      <trkpt lat="42.39906" lon="0.14039">
        <ele>699.2</ele>
        <time>2017-07-02T09:41:59Z</time>
      </trkpt>
      <trkpt lat="42.39903" lon="0.14037">
        <ele>699.3</ele>
        <time>2017-07-02T09:42:01Z</time>
      </trkpt>
      <trkpt lat="42.399" lon="0.14036">
        <ele>699.4</ele>
        <time>2017-07-02T09:42:03Z</time>
      </trkpt>
      <trkpt lat="42.39895" lon="0.14038">
        <ele>699.6</ele>
        <time>2017-07-02T09:42:05Z</time>
      </trkpt>
      <trkpt lat="42.39892" lon="0.14041">
        <ele>699.7</ele>
        <time>2017-07-02T09:42:07Z</time>
      </trkpt>
      <trkpt lat="42.39888" lon="0.14045">
        <ele>700.2</ele>
        <time>2017-07-02T09:42:09Z</time>
      </trkpt>
      <trkpt lat="42.39885" lon="0.14048">
        <ele>700.6</ele>
        <time>2017-07-02T09:42:10Z</time>
      </trkpt>
      <trkpt lat="42.39882" lon="0.14051">
        <ele>700.9</ele>
        <time>2017-07-02T09:42:11Z</time>
      </trkpt>
      <trkpt lat="42.3988" lon="0.14054">
        <ele>701</ele>
        <time>2017-07-02T09:42:12Z</time>
      </trkpt>
      <trkpt lat="42.39876" lon="0.14058">
        <ele>701.4</ele>
        <time>2017-07-02T09:42:14Z</time>
      </trkpt>
      <trkpt lat="42.39873" lon="0.14062">
        <ele>702</ele>
        <time>2017-07-02T09:42:16Z</time>
      </trkpt>
      <trkpt lat="42.39869" lon="0.14066">
        <ele>702.4</ele>
        <time>2017-07-02T09:42:18Z</time>
      </trkpt>
      <trkpt lat="42.39866" lon="0.14067">
        <ele>702.6</ele>
        <time>2017-07-02T09:42:20Z</time>
      </trkpt>
      <trkpt lat="42.39862" lon="0.14067">
        <ele>702.8</ele>
        <time>2017-07-02T09:42:22Z</time>
      </trkpt>
      <trkpt lat="42.39858" lon="0.14068">
        <ele>703</ele>
        <time>2017-07-02T09:42:24Z</time>
      </trkpt>
      <trkpt lat="42.39855" lon="0.14068">
        <ele>703.1</ele>
        <time>2017-07-02T09:42:26Z</time>
      </trkpt>
      <trkpt lat="42.39851" lon="0.14066">
        <ele>703.5</ele>
        <time>2017-07-02T09:42:28Z</time>
      </trkpt>
      <trkpt lat="42.39848" lon="0.14065">
        <ele>703.9</ele>
        <time>2017-07-02T09:42:30Z</time>
      </trkpt>
      <trkpt lat="42.39845" lon="0.14066">
        <ele>704.4</ele>
        <time>2017-07-02T09:42:32Z</time>
      </trkpt>
      <trkpt lat="42.39841" lon="0.14071">
        <ele>704.7</ele>
        <time>2017-07-02T09:42:34Z</time>
      </trkpt>
      <trkpt lat="42.39839" lon="0.14077">
        <ele>705.3</ele>
        <time>2017-07-02T09:42:36Z</time>
      </trkpt>
      <trkpt lat="42.39836" lon="0.14082">
        <ele>706</ele>
        <time>2017-07-02T09:42:38Z</time>
      </trkpt>
      <trkpt lat="42.39834" lon="0.14086">
        <ele>706.5</ele>
        <time>2017-07-02T09:42:40Z</time>
      </trkpt>
      <trkpt lat="42.39831" lon="0.14089">
        <ele>706.8</ele>
        <time>2017-07-02T09:42:42Z</time>
      </trkpt>
      <trkpt lat="42.39828" lon="0.14089">
        <ele>707.4</ele>
        <time>2017-07-02T09:42:44Z</time>
      </trkpt>
      <trkpt lat="42.39824" lon="0.14088">
        <ele>707.9</ele>
        <time>2017-07-02T09:42:46Z</time>
      </trkpt>
      <trkpt lat="42.3982" lon="0.14086">
        <ele>708.2</ele>
        <time>2017-07-02T09:42:48Z</time>
      </trkpt>
      <trkpt lat="42.39816" lon="0.14085">
        <ele>708.4</ele>
        <time>2017-07-02T09:42:50Z</time>
      </trkpt>
      <trkpt lat="42.39813" lon="0.14084">
        <ele>708.9</ele>
        <time>2017-07-02T09:42:52Z</time>
      </trkpt>
      <trkpt lat="42.3981" lon="0.14085">
        <ele>709.5</ele>
        <time>2017-07-02T09:42:54Z</time>
      </trkpt>
      <trkpt lat="42.39806" lon="0.14085">
        <ele>710.2</ele>
        <time>2017-07-02T09:42:57Z</time>
      </trkpt>
      <trkpt lat="42.39802" lon="0.14085">
        <ele>710.7</ele>
        <time>2017-07-02T09:43:00Z</time>
      </trkpt>
      <trkpt lat="42.39798" lon="0.14087">
        <ele>711.3</ele>
        <time>2017-07-02T09:43:03Z</time>
      </trkpt>
      <trkpt lat="42.39796" lon="0.14089">
        <ele>711.8</ele>
        <time>2017-07-02T09:43:05Z</time>
      </trkpt>
      <trkpt lat="42.39793" lon="0.14091">
        <ele>712.1</ele>
        <time>2017-07-02T09:43:07Z</time>
      </trkpt>
      <trkpt lat="42.3979" lon="0.14093">
        <ele>712.4</ele>
        <time>2017-07-02T09:43:09Z</time>
      </trkpt>
      <trkpt lat="42.39788" lon="0.14095">
        <ele>712.8</ele>
        <time>2017-07-02T09:43:11Z</time>
      </trkpt>
      <trkpt lat="42.39785" lon="0.14098">
        <ele>713.2</ele>
        <time>2017-07-02T09:43:13Z</time>
      </trkpt>
      <trkpt lat="42.39783" lon="0.14101">
        <ele>713.3</ele>
        <time>2017-07-02T09:43:15Z</time>
      </trkpt>
      <trkpt lat="42.39781" lon="0.14103">
        <ele>713.4</ele>
        <time>2017-07-02T09:43:17Z</time>
      </trkpt>
      <trkpt lat="42.39779" lon="0.14106">
        <ele>713.4</ele>
        <time>2017-07-02T09:43:19Z</time>
      </trkpt>
      <trkpt lat="42.39776" lon="0.14109">
        <ele>713.5</ele>
        <time>2017-07-02T09:43:21Z</time>
      </trkpt>
      <trkpt lat="42.39773" lon="0.14112">
        <ele>713.5</ele>
        <time>2017-07-02T09:43:23Z</time>
      </trkpt>
      <trkpt lat="42.39771" lon="0.14115">
        <ele>713.4</ele>
        <time>2017-07-02T09:43:25Z</time>
      </trkpt>
      <trkpt lat="42.39767" lon="0.14117">
        <ele>713.3</ele>
        <time>2017-07-02T09:43:27Z</time>
      </trkpt>
      <trkpt lat="42.39764" lon="0.1412">
        <ele>713.2</ele>
        <time>2017-07-02T09:43:29Z</time>
      </trkpt>
      <trkpt lat="42.39761" lon="0.14123">
        <ele>713</ele>
        <time>2017-07-02T09:43:31Z</time>
      </trkpt>
      <trkpt lat="42.39757" lon="0.14127">
        <ele>712.9</ele>
        <time>2017-07-02T09:43:33Z</time>
      </trkpt>
      <trkpt lat="42.39754" lon="0.14129">
        <ele>712.7</ele>
        <time>2017-07-02T09:43:35Z</time>
      </trkpt>
      <trkpt lat="42.39751" lon="0.14131">
        <ele>712.5</ele>
        <time>2017-07-02T09:43:37Z</time>
      </trkpt>
      <trkpt lat="42.39747" lon="0.14133">
        <ele>712.2</ele>
        <time>2017-07-02T09:43:39Z</time>
      </trkpt>
      <trkpt lat="42.39744" lon="0.14136">
        <ele>711.7</ele>
        <time>2017-07-02T09:43:41Z</time>
      </trkpt>
      <trkpt lat="42.39741" lon="0.1414">
        <ele>711</ele>
        <time>2017-07-02T09:43:43Z</time>
      </trkpt>
      <trkpt lat="42.39737" lon="0.14144">
        <ele>710.2</ele>
        <time>2017-07-02T09:43:45Z</time>
      </trkpt>
      <trkpt lat="42.39734" lon="0.14146">
        <ele>709.7</ele>
        <time>2017-07-02T09:43:46Z</time>
      </trkpt>
      <trkpt lat="42.39731" lon="0.14148">
        <ele>709</ele>
        <time>2017-07-02T09:43:47Z</time>
      </trkpt>
      <trkpt lat="42.39727" lon="0.1415">
        <ele>708.3</ele>
        <time>2017-07-02T09:43:48Z</time>
      </trkpt>
      <trkpt lat="42.39724" lon="0.14152">
        <ele>707.5</ele>
        <time>2017-07-02T09:43:49Z</time>
      </trkpt>
      <trkpt lat="42.3972" lon="0.14152">
        <ele>706.6</ele>
        <time>2017-07-02T09:43:50Z</time>
      </trkpt>
      <trkpt lat="42.39717" lon="0.14151">
        <ele>705.9</ele>
        <time>2017-07-02T09:43:51Z</time>
      </trkpt>
      <trkpt lat="42.39712" lon="0.14151">
        <ele>704.7</ele>
        <time>2017-07-02T09:43:53Z</time>
      </trkpt>
      <trkpt lat="42.39708" lon="0.14151">
        <ele>703.7</ele>
        <time>2017-07-02T09:43:55Z</time>
      </trkpt>
      <trkpt lat="42.39702" lon="0.14149">
        <ele>702.3</ele>
        <time>2017-07-02T09:43:57Z</time>
      </trkpt>
      <trkpt lat="42.397" lon="0.14147">
        <ele>701.5</ele>
        <time>2017-07-02T09:43:58Z</time>
      </trkpt>
      <trkpt lat="42.39695" lon="0.14144">
        <ele>699.5</ele>
        <time>2017-07-02T09:44:00Z</time>
      </trkpt>
      <trkpt lat="42.3969" lon="0.14142">
        <ele>698.1</ele>
        <time>2017-07-02T09:44:02Z</time>
      </trkpt>
      <trkpt lat="42.39686" lon="0.14141">
        <ele>696.9</ele>
        <time>2017-07-02T09:44:04Z</time>
      </trkpt>
      <trkpt lat="42.39682" lon="0.1414">
        <ele>695.8</ele>
        <time>2017-07-02T09:44:06Z</time>
      </trkpt>
      <trkpt lat="42.39678" lon="0.14138">
        <ele>694.7</ele>
        <time>2017-07-02T09:44:08Z</time>
      </trkpt>
      <trkpt lat="42.39674" lon="0.14136">
        <ele>693.8</ele>
        <time>2017-07-02T09:44:10Z</time>
      </trkpt>
      <trkpt lat="42.39671" lon="0.14134">
        <ele>693.1</ele>
        <time>2017-07-02T09:44:12Z</time>
      </trkpt>
      <trkpt lat="42.39663" lon="0.14127">
        <ele>691</ele>
        <time>2017-07-02T09:45:10Z</time>
      </trkpt>
      <trkpt lat="42.39659" lon="0.14126">
        <ele>690.3</ele>
        <time>2017-07-02T09:45:12Z</time>
      </trkpt>
      <trkpt lat="42.39655" lon="0.14126">
        <ele>689.5</ele>
        <time>2017-07-02T09:45:14Z</time>
      </trkpt>
      <trkpt lat="42.39651" lon="0.14127">
        <ele>688.6</ele>
        <time>2017-07-02T09:45:16Z</time>
      </trkpt>
      <trkpt lat="42.39646" lon="0.14126">
        <ele>687.7</ele>
        <time>2017-07-02T09:45:18Z</time>
      </trkpt>
      <trkpt lat="42.39641" lon="0.14126">
        <ele>686.9</ele>
        <time>2017-07-02T09:45:20Z</time>
      </trkpt>
      <trkpt lat="42.39636" lon="0.14125">
        <ele>685.9</ele>
        <time>2017-07-02T09:45:22Z</time>
      </trkpt>
      <trkpt lat="42.39633" lon="0.14124">
        <ele>685.4</ele>
        <time>2017-07-02T09:45:23Z</time>
      </trkpt>
      <trkpt lat="42.39631" lon="0.1412">
        <ele>684.9</ele>
        <time>2017-07-02T09:45:25Z</time>
      </trkpt>
      <trkpt lat="42.39627" lon="0.14113">
        <ele>684</ele>
        <time>2017-07-02T09:46:02Z</time>
      </trkpt>
      <trkpt lat="42.39623" lon="0.14111">
        <ele>683.3</ele>
        <time>2017-07-02T09:46:04Z</time>
      </trkpt>
      <trkpt lat="42.39619" lon="0.1411">
        <ele>682.7</ele>
        <time>2017-07-02T09:46:06Z</time>
      </trkpt>
      <trkpt lat="42.39616" lon="0.14109">
        <ele>682.3</ele>
        <time>2017-07-02T09:46:09Z</time>
      </trkpt>
      <trkpt lat="42.39612" lon="0.14108">
        <ele>681.9</ele>
        <time>2017-07-02T09:46:11Z</time>
      </trkpt>
      <trkpt lat="42.39607" lon="0.14107">
        <ele>681.2</ele>
        <time>2017-07-02T09:46:13Z</time>
      </trkpt>
      <trkpt lat="42.39604" lon="0.14105">
        <ele>680.7</ele>
        <time>2017-07-02T09:46:14Z</time>
      </trkpt>
      <trkpt lat="42.396" lon="0.14103">
        <ele>680.2</ele>
        <time>2017-07-02T09:46:15Z</time>
      </trkpt>
      <trkpt lat="42.39596" lon="0.14101">
        <ele>679.6</ele>
        <time>2017-07-02T09:46:16Z</time>
      </trkpt>
      <trkpt lat="42.39593" lon="0.14098">
        <ele>679</ele>
        <time>2017-07-02T09:46:17Z</time>
      </trkpt>
      <trkpt lat="42.39589" lon="0.14095">
        <ele>678.5</ele>
        <time>2017-07-02T09:46:18Z</time>
      </trkpt>
      <trkpt lat="42.39587" lon="0.14093">
        <ele>678</ele>
        <time>2017-07-02T09:46:19Z</time>
      </trkpt>
      <trkpt lat="42.39583" lon="0.14092">
        <ele>677.5</ele>
        <time>2017-07-02T09:46:20Z</time>
      </trkpt>
      <trkpt lat="42.39578" lon="0.1409">
        <ele>676.9</ele>
        <time>2017-07-02T09:46:21Z</time>
      </trkpt>
      <trkpt lat="42.39573" lon="0.1409">
        <ele>676.3</ele>
        <time>2017-07-02T09:46:22Z</time>
      </trkpt>
      <trkpt lat="42.39568" lon="0.14088">
        <ele>675.6</ele>
        <time>2017-07-02T09:46:23Z</time>
      </trkpt>
      <trkpt lat="42.39562" lon="0.14086">
        <ele>675</ele>
        <time>2017-07-02T09:46:24Z</time>
      </trkpt>
      <trkpt lat="42.39557" lon="0.14084">
        <ele>674.6</ele>
        <time>2017-07-02T09:46:25Z</time>
      </trkpt>
      <trkpt lat="42.39553" lon="0.14083">
        <ele>674.6</ele>
        <time>2017-07-02T09:46:26Z</time>
      </trkpt>
      <trkpt lat="42.39548" lon="0.14082">
        <ele>674.9</ele>
        <time>2017-07-02T09:46:28Z</time>
      </trkpt>
      <trkpt lat="42.39544" lon="0.14083">
        <ele>675.7</ele>
        <time>2017-07-02T09:46:30Z</time>
      </trkpt>
      <trkpt lat="42.39541" lon="0.14084">
        <ele>676.4</ele>
        <time>2017-07-02T09:46:32Z</time>
      </trkpt>
      <trkpt lat="42.39538" lon="0.14086">
        <ele>676.8</ele>
        <time>2017-07-02T09:46:35Z</time>
      </trkpt>
      <trkpt lat="42.39534" lon="0.14088">
        <ele>677</ele>
        <time>2017-07-02T09:46:38Z</time>
      </trkpt>
      <trkpt lat="42.39531" lon="0.14086">
        <ele>677.1</ele>
        <time>2017-07-02T09:46:44Z</time>
      </trkpt>
      <trkpt lat="42.39528" lon="0.14084">
        <ele>677.2</ele>
        <time>2017-07-02T09:46:46Z</time>
      </trkpt>
      <trkpt lat="42.39525" lon="0.14082">
        <ele>677.3</ele>
        <time>2017-07-02T09:46:48Z</time>
      </trkpt>
      <trkpt lat="42.39522" lon="0.1408">
        <ele>677.6</ele>
        <time>2017-07-02T09:46:51Z</time>
      </trkpt>
      <trkpt lat="42.39519" lon="0.14078">
        <ele>677.8</ele>
        <time>2017-07-02T09:46:53Z</time>
      </trkpt>
      <trkpt lat="42.39516" lon="0.14076">
        <ele>678</ele>
        <time>2017-07-02T09:46:56Z</time>
      </trkpt>
      <trkpt lat="42.39512" lon="0.14075">
        <ele>678.2</ele>
        <time>2017-07-02T09:46:58Z</time>
      </trkpt>
      <trkpt lat="42.39508" lon="0.14076">
        <ele>678.5</ele>
        <time>2017-07-02T09:47:00Z</time>
      </trkpt>
      <trkpt lat="42.39503" lon="0.14077">
        <ele>679</ele>
        <time>2017-07-02T09:47:02Z</time>
      </trkpt>
      <trkpt lat="42.39498" lon="0.14077">
        <ele>679.2</ele>
        <time>2017-07-02T09:47:04Z</time>
      </trkpt>
      <trkpt lat="42.39493" lon="0.14077">
        <ele>679.5</ele>
        <time>2017-07-02T09:47:06Z</time>
      </trkpt>
      <trkpt lat="42.39491" lon="0.14078">
        <ele>679.7</ele>
        <time>2017-07-02T09:47:07Z</time>
      </trkpt>
      <trkpt lat="42.39488" lon="0.14078">
        <ele>680.1</ele>
        <time>2017-07-02T09:47:08Z</time>
      </trkpt>
      <trkpt lat="42.39483" lon="0.14078">
        <ele>680.6</ele>
        <time>2017-07-02T09:47:10Z</time>
      </trkpt>
      <trkpt lat="42.39479" lon="0.14077">
        <ele>680.9</ele>
        <time>2017-07-02T09:47:12Z</time>
      </trkpt>
      <trkpt lat="42.39475" lon="0.14076">
        <ele>681</ele>
        <time>2017-07-02T09:47:14Z</time>
      </trkpt>
      <trkpt lat="42.39472" lon="0.14075">
        <ele>681.1</ele>
        <time>2017-07-02T09:47:16Z</time>
      </trkpt>
      <trkpt lat="42.39467" lon="0.14073">
        <ele>681.3</ele>
        <time>2017-07-02T09:47:18Z</time>
      </trkpt>
      <trkpt lat="42.39463" lon="0.14071">
        <ele>681.5</ele>
        <time>2017-07-02T09:47:20Z</time>
      </trkpt>
      <trkpt lat="42.39458" lon="0.14069">
        <ele>681.8</ele>
        <time>2017-07-02T09:47:22Z</time>
      </trkpt>
      <trkpt lat="42.39455" lon="0.14069">
        <ele>682.4</ele>
        <time>2017-07-02T09:47:24Z</time>
      </trkpt>
      <trkpt lat="42.39452" lon="0.14069">
        <ele>682.8</ele>
        <time>2017-07-02T09:47:26Z</time>
      </trkpt>
      <trkpt lat="42.39447" lon="0.14068">
        <ele>683.2</ele>
        <time>2017-07-02T09:47:28Z</time>
      </trkpt>
      <trkpt lat="42.39444" lon="0.14068">
        <ele>683.9</ele>
        <time>2017-07-02T09:47:30Z</time>
      </trkpt>
      <trkpt lat="42.3944" lon="0.14067">
        <ele>684.5</ele>
        <time>2017-07-02T09:47:32Z</time>
      </trkpt>
      <trkpt lat="42.39436" lon="0.14067">
        <ele>684.7</ele>
        <time>2017-07-02T09:47:35Z</time>
      </trkpt>
      <trkpt lat="42.39434" lon="0.14066">
        <ele>684.8</ele>
        <time>2017-07-02T09:47:37Z</time>
      </trkpt>
      <trkpt lat="42.39431" lon="0.14065">
        <ele>684.9</ele>
        <time>2017-07-02T09:47:42Z</time>
      </trkpt>
      <trkpt lat="42.39427" lon="0.14066">
        <ele>685.2</ele>
        <time>2017-07-02T09:47:55Z</time>
      </trkpt>
      <trkpt lat="42.39424" lon="0.14065">
        <ele>685.4</ele>
        <time>2017-07-02T09:47:57Z</time>
      </trkpt>
      <trkpt lat="42.39421" lon="0.14063">
        <ele>685.8</ele>
        <time>2017-07-02T09:48:00Z</time>
      </trkpt>
      <trkpt lat="42.39419" lon="0.1406">
        <ele>686.1</ele>
        <time>2017-07-02T09:48:03Z</time>
      </trkpt>
      <trkpt lat="42.39416" lon="0.14058">
        <ele>686.2</ele>
        <time>2017-07-02T09:48:05Z</time>
      </trkpt>
      <trkpt lat="42.39413" lon="0.14056">
        <ele>686.3</ele>
        <time>2017-07-02T09:48:07Z</time>
      </trkpt>
      <trkpt lat="42.39409" lon="0.14054">
        <ele>686.4</ele>
        <time>2017-07-02T09:48:09Z</time>
      </trkpt>
      <trkpt lat="42.39407" lon="0.14053">
        <ele>686.5</ele>
        <time>2017-07-02T09:48:10Z</time>
      </trkpt>
      <trkpt lat="42.39404" lon="0.14052">
        <ele>686.6</ele>
        <time>2017-07-02T09:48:11Z</time>
      </trkpt>
      <trkpt lat="42.39401" lon="0.14051">
        <ele>686.6</ele>
        <time>2017-07-02T09:48:12Z</time>
      </trkpt>
      <trkpt lat="42.39398" lon="0.14051">
        <ele>686.7</ele>
        <time>2017-07-02T09:48:13Z</time>
      </trkpt>
      <trkpt lat="42.39396" lon="0.14052">
        <ele>686.8</ele>
        <time>2017-07-02T09:48:14Z</time>
      </trkpt>
      <trkpt lat="42.39393" lon="0.14054">
        <ele>686.9</ele>
        <time>2017-07-02T09:48:15Z</time>
      </trkpt>
      <trkpt lat="42.3939" lon="0.14056">
        <ele>687</ele>
        <time>2017-07-02T09:48:16Z</time>
      </trkpt>
      <trkpt lat="42.39387" lon="0.14058">
        <ele>687.2</ele>
        <time>2017-07-02T09:48:17Z</time>
      </trkpt>
      <trkpt lat="42.39384" lon="0.1406">
        <ele>687.5</ele>
        <time>2017-07-02T09:48:18Z</time>
      </trkpt>
      <trkpt lat="42.3938" lon="0.14063">
        <ele>688.1</ele>
        <time>2017-07-02T09:48:19Z</time>
      </trkpt>
      <trkpt lat="42.39377" lon="0.14066">
        <ele>688.5</ele>
        <time>2017-07-02T09:48:20Z</time>
      </trkpt>
      <trkpt lat="42.39374" lon="0.14069">
        <ele>688.8</ele>
        <time>2017-07-02T09:48:21Z</time>
      </trkpt>
      <trkpt lat="42.39372" lon="0.14073">
        <ele>689.3</ele>
        <time>2017-07-02T09:48:22Z</time>
      </trkpt>
      <trkpt lat="42.39369" lon="0.14076">
        <ele>689.9</ele>
        <time>2017-07-02T09:48:23Z</time>
      </trkpt>
      <trkpt lat="42.39367" lon="0.14079">
        <ele>690.2</ele>
        <time>2017-07-02T09:48:24Z</time>
      </trkpt>
      <trkpt lat="42.39364" lon="0.14081">
        <ele>690.3</ele>
        <time>2017-07-02T09:48:25Z</time>
      </trkpt>
      <trkpt lat="42.39362" lon="0.14083">
        <ele>690.5</ele>
        <time>2017-07-02T09:48:26Z</time>
      </trkpt>
      <trkpt lat="42.39359" lon="0.14085">
        <ele>690.6</ele>
        <time>2017-07-02T09:48:27Z</time>
      </trkpt>
      <trkpt lat="42.39355" lon="0.14088">
        <ele>691.1</ele>
        <time>2017-07-02T09:48:29Z</time>
      </trkpt>
      <trkpt lat="42.39352" lon="0.14091">
        <ele>691.6</ele>
        <time>2017-07-02T09:48:31Z</time>
      </trkpt>
      <trkpt lat="42.39349" lon="0.14095">
        <ele>691.9</ele>
        <time>2017-07-02T09:48:33Z</time>
      </trkpt>
      <trkpt lat="42.39346" lon="0.14098">
        <ele>692</ele>
        <time>2017-07-02T09:48:35Z</time>
      </trkpt>
      <trkpt lat="42.39344" lon="0.14102">
        <ele>692.2</ele>
        <time>2017-07-02T09:48:37Z</time>
      </trkpt>
      <trkpt lat="42.39342" lon="0.14106">
        <ele>692.3</ele>
        <time>2017-07-02T09:48:39Z</time>
      </trkpt>
      <trkpt lat="42.39338" lon="0.14109">
        <ele>692.5</ele>
        <time>2017-07-02T09:48:41Z</time>
      </trkpt>
      <trkpt lat="42.39334" lon="0.14112">
        <ele>692.6</ele>
        <time>2017-07-02T09:48:43Z</time>
      </trkpt>
      <trkpt lat="42.3933" lon="0.14114">
        <ele>692.8</ele>
        <time>2017-07-02T09:48:45Z</time>
      </trkpt>
      <trkpt lat="42.39327" lon="0.14116">
        <ele>693</ele>
        <time>2017-07-02T09:48:47Z</time>
      </trkpt>
      <trkpt lat="42.39324" lon="0.14119">
        <ele>693.5</ele>
        <time>2017-07-02T09:48:50Z</time>
      </trkpt>
      <trkpt lat="42.39322" lon="0.14122">
        <ele>693.7</ele>
        <time>2017-07-02T09:48:52Z</time>
      </trkpt>
      <trkpt lat="42.39319" lon="0.14125">
        <ele>694</ele>
        <time>2017-07-02T09:48:54Z</time>
      </trkpt>
      <trkpt lat="42.39316" lon="0.14129">
        <ele>694.1</ele>
        <time>2017-07-02T09:48:56Z</time>
      </trkpt>
      <trkpt lat="42.39312" lon="0.14132">
        <ele>694.3</ele>
        <time>2017-07-02T09:48:58Z</time>
      </trkpt>
      <trkpt lat="42.39309" lon="0.14135">
        <ele>694.6</ele>
        <time>2017-07-02T09:49:00Z</time>
      </trkpt>
      <trkpt lat="42.39305" lon="0.14138">
        <ele>694.9</ele>
        <time>2017-07-02T09:49:02Z</time>
      </trkpt>
      <trkpt lat="42.39301" lon="0.14141">
        <ele>695.5</ele>
        <time>2017-07-02T09:49:04Z</time>
      </trkpt>
      <trkpt lat="42.39297" lon="0.14144">
        <ele>695.8</ele>
        <time>2017-07-02T09:49:06Z</time>
      </trkpt>
      <trkpt lat="42.39294" lon="0.14147">
        <ele>696.1</ele>
        <time>2017-07-02T09:49:08Z</time>
      </trkpt>
      <trkpt lat="42.3929" lon="0.1415">
        <ele>696.8</ele>
        <time>2017-07-02T09:49:10Z</time>
      </trkpt>
      <trkpt lat="42.39286" lon="0.14153">
        <ele>697.5</ele>
        <time>2017-07-02T09:49:12Z</time>
      </trkpt>
      <trkpt lat="42.39283" lon="0.14156">
        <ele>697.7</ele>
        <time>2017-07-02T09:49:14Z</time>
      </trkpt>
      <trkpt lat="42.39279" lon="0.14157">
        <ele>697.9</ele>
        <time>2017-07-02T09:49:16Z</time>
      </trkpt>
      <trkpt lat="42.39276" lon="0.14159">
        <ele>698.3</ele>
        <time>2017-07-02T09:49:18Z</time>
      </trkpt>
      <trkpt lat="42.39272" lon="0.14161">
        <ele>698.7</ele>
        <time>2017-07-02T09:49:20Z</time>
      </trkpt>
      <trkpt lat="42.39269" lon="0.14162">
        <ele>698.8</ele>
        <time>2017-07-02T09:49:22Z</time>
      </trkpt>
      <trkpt lat="42.39264" lon="0.14165">
        <ele>699</ele>
        <time>2017-07-02T09:49:24Z</time>
      </trkpt>
      <trkpt lat="42.3926" lon="0.14167">
        <ele>699.1</ele>
        <time>2017-07-02T09:49:26Z</time>
      </trkpt>
      <trkpt lat="42.39256" lon="0.1417">
        <ele>699.2</ele>
        <time>2017-07-02T09:49:28Z</time>
      </trkpt>
      <trkpt lat="42.39253" lon="0.14174">
        <ele>699.3</ele>
        <time>2017-07-02T09:49:30Z</time>
      </trkpt>
      <trkpt lat="42.39249" lon="0.14178">
        <ele>699.4</ele>
        <time>2017-07-02T09:49:32Z</time>
      </trkpt>
      <trkpt lat="42.39246" lon="0.14182">
        <ele>699.5</ele>
        <time>2017-07-02T09:49:34Z</time>
      </trkpt>
      <trkpt lat="42.39244" lon="0.14185">
        <ele>699.6</ele>
        <time>2017-07-02T09:49:36Z</time>
      </trkpt>
      <trkpt lat="42.39241" lon="0.14187">
        <ele>699.6</ele>
        <time>2017-07-02T09:49:38Z</time>
      </trkpt>
      <trkpt lat="42.39239" lon="0.1419">
        <ele>699.7</ele>
        <time>2017-07-02T09:49:40Z</time>
      </trkpt>
      <trkpt lat="42.39236" lon="0.14193">
        <ele>700.1</ele>
        <time>2017-07-02T09:49:42Z</time>
      </trkpt>
      <trkpt lat="42.39232" lon="0.14196">
        <ele>700.5</ele>
        <time>2017-07-02T09:49:44Z</time>
      </trkpt>
      <trkpt lat="42.39229" lon="0.14201">
        <ele>700.8</ele>
        <time>2017-07-02T09:49:46Z</time>
      </trkpt>
      <trkpt lat="42.39225" lon="0.14205">
        <ele>700.9</ele>
        <time>2017-07-02T09:49:48Z</time>
      </trkpt>
      <trkpt lat="42.39223" lon="0.14208">
        <ele>701</ele>
        <time>2017-07-02T09:49:49Z</time>
      </trkpt>
      <trkpt lat="42.3922" lon="0.14213">
        <ele>701</ele>
        <time>2017-07-02T09:49:51Z</time>
      </trkpt>
      <trkpt lat="42.39216" lon="0.14217">
        <ele>701.1</ele>
        <time>2017-07-02T09:49:53Z</time>
      </trkpt>
      <trkpt lat="42.39214" lon="0.14219">
        <ele>701.2</ele>
        <time>2017-07-02T09:49:54Z</time>
      </trkpt>
      <trkpt lat="42.39209" lon="0.14222">
        <ele>701.3</ele>
        <time>2017-07-02T09:49:56Z</time>
      </trkpt>
      <trkpt lat="42.39205" lon="0.14224">
        <ele>701.4</ele>
        <time>2017-07-02T09:49:58Z</time>
      </trkpt>
      <trkpt lat="42.392" lon="0.14225">
        <ele>701.6</ele>
        <time>2017-07-02T09:50:00Z</time>
      </trkpt>
      <trkpt lat="42.39196" lon="0.14227">
        <ele>701.9</ele>
        <time>2017-07-02T09:50:02Z</time>
      </trkpt>
      <trkpt lat="42.39191" lon="0.14228">
        <ele>702.4</ele>
        <time>2017-07-02T09:50:04Z</time>
      </trkpt>
      <trkpt lat="42.39186" lon="0.1423">
        <ele>702.8</ele>
        <time>2017-07-02T09:50:06Z</time>
      </trkpt>
      <trkpt lat="42.39183" lon="0.14232">
        <ele>703</ele>
        <time>2017-07-02T09:50:08Z</time>
      </trkpt>
      <trkpt lat="42.3918" lon="0.14232">
        <ele>703.3</ele>
        <time>2017-07-02T09:50:10Z</time>
      </trkpt>
      <trkpt lat="42.39177" lon="0.14233">
        <ele>703.8</ele>
        <time>2017-07-02T09:50:14Z</time>
      </trkpt>
      <trkpt lat="42.39174" lon="0.14233">
        <ele>704.2</ele>
        <time>2017-07-02T09:50:19Z</time>
      </trkpt>
      <trkpt lat="42.39169" lon="0.1424">
        <ele>705</ele>
        <time>2017-07-02T09:51:17Z</time>
      </trkpt>
      <trkpt lat="42.39167" lon="0.14243">
        <ele>705.3</ele>
        <time>2017-07-02T09:51:19Z</time>
      </trkpt>
      <trkpt lat="42.39166" lon="0.14247">
        <ele>705.6</ele>
        <time>2017-07-02T09:51:21Z</time>
      </trkpt>
      <trkpt lat="42.39166" lon="0.14251">
        <ele>706</ele>
        <time>2017-07-02T09:51:24Z</time>
      </trkpt>
      <trkpt lat="42.3917" lon="0.14252">
        <ele>706.3</ele>
        <time>2017-07-02T09:51:27Z</time>
      </trkpt>
      <trkpt lat="42.39174" lon="0.1425">
        <ele>706.4</ele>
        <time>2017-07-02T09:51:29Z</time>
      </trkpt>
      <trkpt lat="42.39178" lon="0.1425">
        <ele>706.5</ele>
        <time>2017-07-02T09:51:31Z</time>
      </trkpt>
      <trkpt lat="42.39181" lon="0.14251">
        <ele>706.7</ele>
        <time>2017-07-02T09:51:33Z</time>
      </trkpt>
      <trkpt lat="42.39183" lon="0.14254">
        <ele>706.8</ele>
        <time>2017-07-02T09:51:35Z</time>
      </trkpt>
      <trkpt lat="42.39184" lon="0.14259">
        <ele>707.1</ele>
        <time>2017-07-02T09:51:37Z</time>
      </trkpt>
      <trkpt lat="42.39183" lon="0.14264">
        <ele>707.5</ele>
        <time>2017-07-02T09:51:39Z</time>
      </trkpt>
      <trkpt lat="42.39181" lon="0.14268">
        <ele>707.9</ele>
        <time>2017-07-02T09:51:40Z</time>
      </trkpt>
      <trkpt lat="42.39179" lon="0.14271">
        <ele>708.2</ele>
        <time>2017-07-02T09:51:42Z</time>
      </trkpt>
      <trkpt lat="42.39177" lon="0.14276">
        <ele>708.5</ele>
        <time>2017-07-02T09:51:45Z</time>
      </trkpt>
      <trkpt lat="42.39174" lon="0.14282">
        <ele>708.9</ele>
        <time>2017-07-02T09:51:47Z</time>
      </trkpt>
      <trkpt lat="42.39173" lon="0.14286">
        <ele>709.4</ele>
        <time>2017-07-02T09:51:49Z</time>
      </trkpt>
      <trkpt lat="42.3917" lon="0.14291">
        <ele>710.3</ele>
        <time>2017-07-02T09:51:51Z</time>
      </trkpt>
      <trkpt lat="42.39169" lon="0.14295">
        <ele>710.8</ele>
        <time>2017-07-02T09:51:53Z</time>
      </trkpt>
      <trkpt lat="42.39168" lon="0.143">
        <ele>711.7</ele>
        <time>2017-07-02T09:51:55Z</time>
      </trkpt>
      <trkpt lat="42.39166" lon="0.14305">
        <ele>712.6</ele>
        <time>2017-07-02T09:51:58Z</time>
      </trkpt>
      <trkpt lat="42.39166" lon="0.1431">
        <ele>713.6</ele>
        <time>2017-07-02T09:52:01Z</time>
      </trkpt>
      <trkpt lat="42.39167" lon="0.14315">
        <ele>714.4</ele>
        <time>2017-07-02T09:52:04Z</time>
      </trkpt>
      <trkpt lat="42.39167" lon="0.14319">
        <ele>715.1</ele>
        <time>2017-07-02T09:52:06Z</time>
      </trkpt>
      <trkpt lat="42.39167" lon="0.14323">
        <ele>715.9</ele>
        <time>2017-07-02T09:52:08Z</time>
      </trkpt>
      <trkpt lat="42.39168" lon="0.14328">
        <ele>718.1</ele>
        <time>2017-07-02T09:52:10Z</time>
      </trkpt>
      <trkpt lat="42.3917" lon="0.1433">
        <ele>718.2</ele>
        <time>2017-07-02T09:52:13Z</time>
      </trkpt>
      <trkpt lat="42.39173" lon="0.14332">
        <ele>718.4</ele>
        <time>2017-07-02T09:52:17Z</time>
      </trkpt>
      <trkpt lat="42.39176" lon="0.1433">
        <ele>718.5</ele>
        <time>2017-07-02T09:52:23Z</time>
      </trkpt>
      <trkpt lat="42.3918" lon="0.1433">
        <ele>718.9</ele>
        <time>2017-07-02T09:52:26Z</time>
      </trkpt>
      <trkpt lat="42.39183" lon="0.1433">
        <ele>719.3</ele>
        <time>2017-07-02T09:52:28Z</time>
      </trkpt>
      <trkpt lat="42.39186" lon="0.14332">
        <ele>719.9</ele>
        <time>2017-07-02T09:52:30Z</time>
      </trkpt>
      <trkpt lat="42.3919" lon="0.14332">
        <ele>720.4</ele>
        <time>2017-07-02T09:52:33Z</time>
      </trkpt>
      <trkpt lat="42.39193" lon="0.14333">
        <ele>720.8</ele>
        <time>2017-07-02T09:52:37Z</time>
      </trkpt>
      <trkpt lat="42.39196" lon="0.14336">
        <ele>721.5</ele>
        <time>2017-07-02T09:52:41Z</time>
      </trkpt>
      <trkpt lat="42.39199" lon="0.14338">
        <ele>722</ele>
        <time>2017-07-02T09:52:46Z</time>
      </trkpt>
      <trkpt lat="42.39202" lon="0.14342">
        <ele>722.3</ele>
        <time>2017-07-02T09:52:49Z</time>
      </trkpt>
      <trkpt lat="42.39204" lon="0.14344">
        <ele>722.5</ele>
        <time>2017-07-02T09:52:51Z</time>
      </trkpt>
      <trkpt lat="42.39206" lon="0.14348">
        <ele>723.3</ele>
        <time>2017-07-02T09:52:53Z</time>
      </trkpt>
      <trkpt lat="42.39207" lon="0.14352">
        <ele>723.8</ele>
        <time>2017-07-02T09:52:55Z</time>
      </trkpt>
      <trkpt lat="42.39205" lon="0.14356">
        <ele>724.2</ele>
        <time>2017-07-02T09:52:58Z</time>
      </trkpt>
      <trkpt lat="42.39204" lon="0.1436">
        <ele>724.4</ele>
        <time>2017-07-02T09:53:01Z</time>
      </trkpt>
      <trkpt lat="42.39202" lon="0.14363">
        <ele>724.5</ele>
        <time>2017-07-02T09:53:04Z</time>
      </trkpt>
      <trkpt lat="42.39201" lon="0.14367">
        <ele>725</ele>
        <time>2017-07-02T09:53:07Z</time>
      </trkpt>
      <trkpt lat="42.39201" lon="0.14371">
        <ele>725.9</ele>
        <time>2017-07-02T09:53:11Z</time>
      </trkpt>
      <trkpt lat="42.39197" lon="0.14374">
        <ele>728.1</ele>
        <time>2017-07-02T09:53:14Z</time>
      </trkpt>
      <trkpt lat="42.39194" lon="0.14376">
        <ele>729.9</ele>
        <time>2017-07-02T09:53:16Z</time>
      </trkpt>
      <trkpt lat="42.39192" lon="0.14379">
        <ele>730.1</ele>
        <time>2017-07-02T09:53:18Z</time>
      </trkpt>
      <trkpt lat="42.39189" lon="0.14382">
        <ele>730.5</ele>
        <time>2017-07-02T09:53:21Z</time>
      </trkpt>
      <trkpt lat="42.39187" lon="0.14386">
        <ele>731.1</ele>
        <time>2017-07-02T09:53:23Z</time>
      </trkpt>
      <trkpt lat="42.39186" lon="0.14388">
        <ele>731.8</ele>
        <time>2017-07-02T09:53:25Z</time>
      </trkpt>
      <trkpt lat="42.39183" lon="0.14391">
        <ele>732.1</ele>
        <time>2017-07-02T09:53:28Z</time>
      </trkpt>
      <trkpt lat="42.39181" lon="0.14395">
        <ele>732.7</ele>
        <time>2017-07-02T09:53:31Z</time>
      </trkpt>
      <trkpt lat="42.39179" lon="0.14397">
        <ele>733.4</ele>
        <time>2017-07-02T09:53:34Z</time>
      </trkpt>
      <trkpt lat="42.39176" lon="0.144">
        <ele>733.8</ele>
        <time>2017-07-02T09:53:37Z</time>
      </trkpt>
      <trkpt lat="42.39175" lon="0.14404">
        <ele>734.2</ele>
        <time>2017-07-02T09:53:40Z</time>
      </trkpt>
      <trkpt lat="42.39178" lon="0.14407">
        <ele>735</ele>
        <time>2017-07-02T09:53:53Z</time>
      </trkpt>
      <trkpt lat="42.39181" lon="0.14407">
        <ele>735.4</ele>
        <time>2017-07-02T09:53:57Z</time>
      </trkpt>
      <trkpt lat="42.39183" lon="0.1441">
        <ele>735.7</ele>
        <time>2017-07-02T09:53:59Z</time>
      </trkpt>
      <trkpt lat="42.39184" lon="0.14414">
        <ele>736.3</ele>
        <time>2017-07-02T09:54:01Z</time>
      </trkpt>
      <trkpt lat="42.39185" lon="0.14418">
        <ele>737.2</ele>
        <time>2017-07-02T09:54:04Z</time>
      </trkpt>
      <trkpt lat="42.39187" lon="0.14421">
        <ele>737.9</ele>
        <time>2017-07-02T09:54:06Z</time>
      </trkpt>
      <trkpt lat="42.39188" lon="0.14425">
        <ele>738.6</ele>
        <time>2017-07-02T09:54:09Z</time>
      </trkpt>
      <trkpt lat="42.3919" lon="0.14429">
        <ele>739</ele>
        <time>2017-07-02T09:54:13Z</time>
      </trkpt>
      <trkpt lat="42.39192" lon="0.14432">
        <ele>739.2</ele>
        <time>2017-07-02T09:54:15Z</time>
      </trkpt>
      <trkpt lat="42.39195" lon="0.14434">
        <ele>739.5</ele>
        <time>2017-07-02T09:54:17Z</time>
      </trkpt>
      <trkpt lat="42.39198" lon="0.14437">
        <ele>740</ele>
        <time>2017-07-02T09:54:20Z</time>
      </trkpt>
      <trkpt lat="42.39201" lon="0.14438">
        <ele>740.7</ele>
        <time>2017-07-02T09:54:23Z</time>
      </trkpt>
      <trkpt lat="42.39204" lon="0.14441">
        <ele>741</ele>
        <time>2017-07-02T09:54:26Z</time>
      </trkpt>
      <trkpt lat="42.39208" lon="0.14442">
        <ele>741.6</ele>
        <time>2017-07-02T09:54:29Z</time>
      </trkpt>
      <trkpt lat="42.3921" lon="0.14444">
        <ele>742.3</ele>
        <time>2017-07-02T09:54:31Z</time>
      </trkpt>
      <trkpt lat="42.39212" lon="0.14447">
        <ele>742.5</ele>
        <time>2017-07-02T09:54:33Z</time>
      </trkpt>
      <trkpt lat="42.39216" lon="0.14449">
        <ele>742.5</ele>
        <time>2017-07-02T09:54:36Z</time>
      </trkpt>
      <trkpt lat="42.39219" lon="0.1445">
        <ele>742.5</ele>
        <time>2017-07-02T09:54:44Z</time>
      </trkpt>
      <trkpt lat="42.39222" lon="0.1445">
        <ele>742.5</ele>
        <time>2017-07-02T09:54:55Z</time>
      </trkpt>
      <trkpt lat="42.39225" lon="0.14448">
        <ele>742.5</ele>
        <time>2017-07-02T09:54:58Z</time>
      </trkpt>
      <trkpt lat="42.39228" lon="0.14449">
        <ele>742.5</ele>
        <time>2017-07-02T09:55:01Z</time>
      </trkpt>
      <trkpt lat="42.39231" lon="0.14452">
        <ele>742.5</ele>
        <time>2017-07-02T09:55:04Z</time>
      </trkpt>
      <trkpt lat="42.39234" lon="0.14454">
        <ele>742.6</ele>
        <time>2017-07-02T09:55:06Z</time>
      </trkpt>
      <trkpt lat="42.39237" lon="0.14454">
        <ele>742.6</ele>
        <time>2017-07-02T09:55:08Z</time>
      </trkpt>
      <trkpt lat="42.39241" lon="0.14454">
        <ele>742.7</ele>
        <time>2017-07-02T09:55:14Z</time>
      </trkpt>
      <trkpt lat="42.39244" lon="0.14455">
        <ele>742.9</ele>
        <time>2017-07-02T09:55:17Z</time>
      </trkpt>
      <trkpt lat="42.39247" lon="0.14455">
        <ele>743.2</ele>
        <time>2017-07-02T09:55:21Z</time>
      </trkpt>
      <trkpt lat="42.39251" lon="0.14455">
        <ele>743.7</ele>
        <time>2017-07-02T09:55:23Z</time>
      </trkpt>
      <trkpt lat="42.39254" lon="0.14455">
        <ele>744.2</ele>
        <time>2017-07-02T09:55:25Z</time>
      </trkpt>
      <trkpt lat="42.39257" lon="0.14455">
        <ele>744.6</ele>
        <time>2017-07-02T09:55:27Z</time>
      </trkpt>
      <trkpt lat="42.39261" lon="0.14455">
        <ele>745</ele>
        <time>2017-07-02T09:55:29Z</time>
      </trkpt>
      <trkpt lat="42.39265" lon="0.14456">
        <ele>745.8</ele>
        <time>2017-07-02T09:55:31Z</time>
      </trkpt>
      <trkpt lat="42.39267" lon="0.14458">
        <ele>746.2</ele>
        <time>2017-07-02T09:55:32Z</time>
      </trkpt>
      <trkpt lat="42.39269" lon="0.14461">
        <ele>746.6</ele>
        <time>2017-07-02T09:55:33Z</time>
      </trkpt>
      <trkpt lat="42.39272" lon="0.14463">
        <ele>747.2</ele>
        <time>2017-07-02T09:55:34Z</time>
      </trkpt>
      <trkpt lat="42.39275" lon="0.14464">
        <ele>747.5</ele>
        <time>2017-07-02T09:55:35Z</time>
      </trkpt>
      <trkpt lat="42.39277" lon="0.14465">
        <ele>747.6</ele>
        <time>2017-07-02T09:55:36Z</time>
      </trkpt>
      <trkpt lat="42.39281" lon="0.14469">
        <ele>747.8</ele>
        <time>2017-07-02T09:55:38Z</time>
      </trkpt>
      <trkpt lat="42.39284" lon="0.14473">
        <ele>747.8</ele>
        <time>2017-07-02T09:55:40Z</time>
      </trkpt>
      <trkpt lat="42.39286" lon="0.14475">
        <ele>747.9</ele>
        <time>2017-07-02T09:55:42Z</time>
      </trkpt>
      <trkpt lat="42.39289" lon="0.14478">
        <ele>747.9</ele>
        <time>2017-07-02T09:55:44Z</time>
      </trkpt>
      <trkpt lat="42.39292" lon="0.14479">
        <ele>747.9</ele>
        <time>2017-07-02T09:55:46Z</time>
      </trkpt>
      <trkpt lat="42.39295" lon="0.14481">
        <ele>747.9</ele>
        <time>2017-07-02T09:55:48Z</time>
      </trkpt>
      <trkpt lat="42.39298" lon="0.14484">
        <ele>747.9</ele>
        <time>2017-07-02T09:55:50Z</time>
      </trkpt>
      <trkpt lat="42.393" lon="0.14489">
        <ele>748</ele>
        <time>2017-07-02T09:55:52Z</time>
      </trkpt>
      <trkpt lat="42.39302" lon="0.14494">
        <ele>748.1</ele>
        <time>2017-07-02T09:55:54Z</time>
      </trkpt>
      <trkpt lat="42.39302" lon="0.14499">
        <ele>748.4</ele>
        <time>2017-07-02T09:55:56Z</time>
      </trkpt>
      <trkpt lat="42.393" lon="0.14503">
        <ele>748.8</ele>
        <time>2017-07-02T09:55:58Z</time>
      </trkpt>
      <trkpt lat="42.39296" lon="0.14505">
        <ele>749.6</ele>
        <time>2017-07-02T09:56:00Z</time>
      </trkpt>
      <trkpt lat="42.39293" lon="0.14505">
        <ele>749.8</ele>
        <time>2017-07-02T09:56:02Z</time>
      </trkpt>
      <trkpt lat="42.39289" lon="0.14505">
        <ele>750.1</ele>
        <time>2017-07-02T09:56:05Z</time>
      </trkpt>
      <trkpt lat="42.3929" lon="0.14509">
        <ele>750.6</ele>
        <time>2017-07-02T09:56:44Z</time>
      </trkpt>
      <trkpt lat="42.39292" lon="0.14507">
        <ele>751</ele>
        <time>2017-07-02T09:59:08Z</time>
      </trkpt>
      <trkpt lat="42.39289" lon="0.14508">
        <ele>751.3</ele>
        <time>2017-07-02T09:59:16Z</time>
      </trkpt>
      <trkpt lat="42.39286" lon="0.14507">
        <ele>751.6</ele>
        <time>2017-07-02T09:59:21Z</time>
      </trkpt>
      <trkpt lat="42.39283" lon="0.14508">
        <ele>752</ele>
        <time>2017-07-02T09:59:24Z</time>
      </trkpt>
      <trkpt lat="42.3928" lon="0.14509">
        <ele>752.4</ele>
        <time>2017-07-02T09:59:26Z</time>
      </trkpt>
      <trkpt lat="42.39277" lon="0.14509">
        <ele>752.8</ele>
        <time>2017-07-02T09:59:28Z</time>
      </trkpt>
      <trkpt lat="42.39274" lon="0.14508">
        <ele>752.9</ele>
        <time>2017-07-02T09:59:30Z</time>
      </trkpt>
      <trkpt lat="42.3927" lon="0.14506">
        <ele>753.3</ele>
        <time>2017-07-02T09:59:32Z</time>
      </trkpt>
      <trkpt lat="42.39265" lon="0.14507">
        <ele>753.5</ele>
        <time>2017-07-02T09:59:34Z</time>
      </trkpt>
      <trkpt lat="42.39262" lon="0.14504">
        <ele>753.6</ele>
        <time>2017-07-02T09:59:37Z</time>
      </trkpt>
      <trkpt lat="42.3926" lon="0.14501">
        <ele>753.9</ele>
        <time>2017-07-02T09:59:40Z</time>
      </trkpt>
      <trkpt lat="42.39258" lon="0.14501">
        <ele>754.3</ele>
        <time>2017-07-02T09:59:43Z</time>
      </trkpt>
      <trkpt lat="42.39255" lon="0.14504">
        <ele>754.6</ele>
        <time>2017-07-02T09:59:46Z</time>
      </trkpt>
      <trkpt lat="42.39251" lon="0.14506">
        <ele>755</ele>
        <time>2017-07-02T09:59:49Z</time>
      </trkpt>
      <trkpt lat="42.39249" lon="0.14509">
        <ele>755.2</ele>
        <time>2017-07-02T09:59:51Z</time>
      </trkpt>
      <trkpt lat="42.39247" lon="0.14511">
        <ele>755.6</ele>
        <time>2017-07-02T09:59:53Z</time>
      </trkpt>
      <trkpt lat="42.39244" lon="0.14514">
        <ele>756.1</ele>
        <time>2017-07-02T09:59:55Z</time>
      </trkpt>
      <trkpt lat="42.39242" lon="0.14516">
        <ele>756.5</ele>
        <time>2017-07-02T09:59:57Z</time>
      </trkpt>
      <trkpt lat="42.39239" lon="0.14519">
        <ele>756.9</ele>
        <time>2017-07-02T09:59:59Z</time>
      </trkpt>
      <trkpt lat="42.39237" lon="0.14522">
        <ele>757.1</ele>
        <time>2017-07-02T10:00:01Z</time>
      </trkpt>
      <trkpt lat="42.39233" lon="0.14522">
        <ele>757.4</ele>
        <time>2017-07-02T10:00:03Z</time>
      </trkpt>
      <trkpt lat="42.39229" lon="0.14523">
        <ele>757.9</ele>
        <time>2017-07-02T10:00:05Z</time>
      </trkpt>
      <trkpt lat="42.39226" lon="0.14525">
        <ele>758.6</ele>
        <time>2017-07-02T10:00:07Z</time>
      </trkpt>
      <trkpt lat="42.39224" lon="0.14529">
        <ele>759.1</ele>
        <time>2017-07-02T10:00:09Z</time>
      </trkpt>
      <trkpt lat="42.3922" lon="0.14532">
        <ele>760</ele>
        <time>2017-07-02T10:00:11Z</time>
      </trkpt>
      <trkpt lat="42.39217" lon="0.14534">
        <ele>760.4</ele>
        <time>2017-07-02T10:00:13Z</time>
      </trkpt>
      <trkpt lat="42.39214" lon="0.14537">
        <ele>760.9</ele>
        <time>2017-07-02T10:00:15Z</time>
      </trkpt>
      <trkpt lat="42.39211" lon="0.1454">
        <ele>761.1</ele>
        <time>2017-07-02T10:00:17Z</time>
      </trkpt>
      <trkpt lat="42.39209" lon="0.14543">
        <ele>761.3</ele>
        <time>2017-07-02T10:00:19Z</time>
      </trkpt>
      <trkpt lat="42.39206" lon="0.14547">
        <ele>761.8</ele>
        <time>2017-07-02T10:00:22Z</time>
      </trkpt>
      <trkpt lat="42.39203" lon="0.1455">
        <ele>762.3</ele>
        <time>2017-07-02T10:00:24Z</time>
      </trkpt>
      <trkpt lat="42.392" lon="0.14552">
        <ele>762.5</ele>
        <time>2017-07-02T10:00:26Z</time>
      </trkpt>
      <trkpt lat="42.39197" lon="0.14554">
        <ele>762.8</ele>
        <time>2017-07-02T10:00:28Z</time>
      </trkpt>
      <trkpt lat="42.39194" lon="0.14557">
        <ele>763.1</ele>
        <time>2017-07-02T10:00:30Z</time>
      </trkpt>
      <trkpt lat="42.39192" lon="0.14561">
        <ele>763.5</ele>
        <time>2017-07-02T10:00:32Z</time>
      </trkpt>
      <trkpt lat="42.39191" lon="0.14566">
        <ele>763.7</ele>
        <time>2017-07-02T10:00:34Z</time>
      </trkpt>
      <trkpt lat="42.39189" lon="0.14571">
        <ele>763.6</ele>
        <time>2017-07-02T10:00:36Z</time>
      </trkpt>
      <trkpt lat="42.39188" lon="0.14575">
        <ele>763.6</ele>
        <time>2017-07-02T10:00:38Z</time>
      </trkpt>
      <trkpt lat="42.39187" lon="0.14579">
        <ele>763.6</ele>
        <time>2017-07-02T10:00:41Z</time>
      </trkpt>
      <trkpt lat="42.39184" lon="0.14582">
        <ele>763.4</ele>
        <time>2017-07-02T10:00:44Z</time>
      </trkpt>
      <trkpt lat="42.39182" lon="0.14585">
        <ele>763.3</ele>
        <time>2017-07-02T10:00:46Z</time>
      </trkpt>
      <trkpt lat="42.3918" lon="0.14589">
        <ele>763</ele>
        <time>2017-07-02T10:00:49Z</time>
      </trkpt>
      <trkpt lat="42.39177" lon="0.14592">
        <ele>762.6</ele>
        <time>2017-07-02T10:00:51Z</time>
      </trkpt>
      <trkpt lat="42.39175" lon="0.14596">
        <ele>761.7</ele>
        <time>2017-07-02T10:00:53Z</time>
      </trkpt>
      <trkpt lat="42.39172" lon="0.14599">
        <ele>760.8</ele>
        <time>2017-07-02T10:00:55Z</time>
      </trkpt>
      <trkpt lat="42.39169" lon="0.14602">
        <ele>760.1</ele>
        <time>2017-07-02T10:00:58Z</time>
      </trkpt>
      <trkpt lat="42.39166" lon="0.14606">
        <ele>759.8</ele>
        <time>2017-07-02T10:01:00Z</time>
      </trkpt>
      <trkpt lat="42.39164" lon="0.14608">
        <ele>759.6</ele>
        <time>2017-07-02T10:01:02Z</time>
      </trkpt>
      <trkpt lat="42.39161" lon="0.1461">
        <ele>759.5</ele>
        <time>2017-07-02T10:01:04Z</time>
      </trkpt>
      <trkpt lat="42.39159" lon="0.14612">
        <ele>759.4</ele>
        <time>2017-07-02T10:01:06Z</time>
      </trkpt>
      <trkpt lat="42.39156" lon="0.14616">
        <ele>759.3</ele>
        <time>2017-07-02T10:01:09Z</time>
      </trkpt>
      <trkpt lat="42.39155" lon="0.14619">
        <ele>759.3</ele>
        <time>2017-07-02T10:01:12Z</time>
      </trkpt>
      <trkpt lat="42.39152" lon="0.14622">
        <ele>759.2</ele>
        <time>2017-07-02T10:01:15Z</time>
      </trkpt>
      <trkpt lat="42.39148" lon="0.14624">
        <ele>759.2</ele>
        <time>2017-07-02T10:01:17Z</time>
      </trkpt>
      <trkpt lat="42.39144" lon="0.14625">
        <ele>759.2</ele>
        <time>2017-07-02T10:01:19Z</time>
      </trkpt>
      <trkpt lat="42.39139" lon="0.14624">
        <ele>759.2</ele>
        <time>2017-07-02T10:01:21Z</time>
      </trkpt>
      <trkpt lat="42.39134" lon="0.14622">
        <ele>759.1</ele>
        <time>2017-07-02T10:01:23Z</time>
      </trkpt>
      <trkpt lat="42.39129" lon="0.14622">
        <ele>759.1</ele>
        <time>2017-07-02T10:01:25Z</time>
      </trkpt>
      <trkpt lat="42.39127" lon="0.14625">
        <ele>759.2</ele>
        <time>2017-07-02T10:01:28Z</time>
      </trkpt>
      <trkpt lat="42.39128" lon="0.14629">
        <ele>759.2</ele>
        <time>2017-07-02T10:01:32Z</time>
      </trkpt>
      <trkpt lat="42.39126" lon="0.14633">
        <ele>759.2</ele>
        <time>2017-07-02T10:01:35Z</time>
      </trkpt>
      <trkpt lat="42.39122" lon="0.14635">
        <ele>759.3</ele>
        <time>2017-07-02T10:01:37Z</time>
      </trkpt>
      <trkpt lat="42.39117" lon="0.14637">
        <ele>759.4</ele>
        <time>2017-07-02T10:01:39Z</time>
      </trkpt>
      <trkpt lat="42.39114" lon="0.1464">
        <ele>759.4</ele>
        <time>2017-07-02T10:01:41Z</time>
      </trkpt>
      <trkpt lat="42.39111" lon="0.14643">
        <ele>759.8</ele>
        <time>2017-07-02T10:01:45Z</time>
      </trkpt>
      <trkpt lat="42.39108" lon="0.14644">
        <ele>760.3</ele>
        <time>2017-07-02T10:01:47Z</time>
      </trkpt>
      <trkpt lat="42.39103" lon="0.14646">
        <ele>761.5</ele>
        <time>2017-07-02T10:01:49Z</time>
      </trkpt>
      <trkpt lat="42.39099" lon="0.14648">
        <ele>761.3</ele>
        <time>2017-07-02T10:01:51Z</time>
      </trkpt>
      <trkpt lat="42.39095" lon="0.14647">
        <ele>762.1</ele>
        <time>2017-07-02T10:01:53Z</time>
      </trkpt>
      <trkpt lat="42.39089" lon="0.14647">
        <ele>763.5</ele>
        <time>2017-07-02T10:01:55Z</time>
      </trkpt>
      <trkpt lat="42.39087" lon="0.14649">
        <ele>764.3</ele>
        <time>2017-07-02T10:01:56Z</time>
      </trkpt>
      <trkpt lat="42.39083" lon="0.14653">
        <ele>764.1</ele>
        <time>2017-07-02T10:01:58Z</time>
      </trkpt>
      <trkpt lat="42.39081" lon="0.14657">
        <ele>764.1</ele>
        <time>2017-07-02T10:02:00Z</time>
      </trkpt>
      <trkpt lat="42.39077" lon="0.1466">
        <ele>764.3</ele>
        <time>2017-07-02T10:02:02Z</time>
      </trkpt>
      <trkpt lat="42.39072" lon="0.14661">
        <ele>765.4</ele>
        <time>2017-07-02T10:02:04Z</time>
      </trkpt>
      <trkpt lat="42.39067" lon="0.14663">
        <ele>767.3</ele>
        <time>2017-07-02T10:02:06Z</time>
      </trkpt>
      <trkpt lat="42.39064" lon="0.14664">
        <ele>768.1</ele>
        <time>2017-07-02T10:02:07Z</time>
      </trkpt>
      <trkpt lat="42.39062" lon="0.14666">
        <ele>769.2</ele>
        <time>2017-07-02T10:02:08Z</time>
      </trkpt>
      <trkpt lat="42.39059" lon="0.14669">
        <ele>770</ele>
        <time>2017-07-02T10:02:10Z</time>
      </trkpt>
      <trkpt lat="42.39061" lon="0.14672">
        <ele>769.6</ele>
        <time>2017-07-02T10:02:14Z</time>
      </trkpt>
      <trkpt lat="42.39063" lon="0.14675">
        <ele>768.6</ele>
        <time>2017-07-02T10:02:22Z</time>
      </trkpt>
      <trkpt lat="42.39066" lon="0.14678">
        <ele>768.4</ele>
        <time>2017-07-02T10:02:25Z</time>
      </trkpt>
      <trkpt lat="42.39066" lon="0.14681">
        <ele>768.4</ele>
        <time>2017-07-02T10:02:30Z</time>
      </trkpt>
      <trkpt lat="42.39065" lon="0.14685">
        <ele>768.5</ele>
        <time>2017-07-02T10:02:34Z</time>
      </trkpt>
      <trkpt lat="42.39063" lon="0.14689">
        <ele>768.5</ele>
        <time>2017-07-02T10:02:40Z</time>
      </trkpt>
      <trkpt lat="42.39061" lon="0.14692">
        <ele>768.5</ele>
        <time>2017-07-02T10:02:44Z</time>
      </trkpt>
      <trkpt lat="42.39059" lon="0.14695">
        <ele>768.5</ele>
        <time>2017-07-02T10:02:51Z</time>
      </trkpt>
      <trkpt lat="42.39059" lon="0.14699">
        <ele>768.5</ele>
        <time>2017-07-02T10:02:59Z</time>
      </trkpt>
      <trkpt lat="42.39058" lon="0.14703">
        <ele>768.5</ele>
        <time>2017-07-02T10:03:05Z</time>
      </trkpt>
      <trkpt lat="42.39058" lon="0.14707">
        <ele>768.5</ele>
        <time>2017-07-02T10:03:10Z</time>
      </trkpt>
      <trkpt lat="42.39055" lon="0.14709">
        <ele>768.5</ele>
        <time>2017-07-02T10:03:17Z</time>
      </trkpt>
      <trkpt lat="42.39053" lon="0.14711">
        <ele>768.5</ele>
        <time>2017-07-02T10:03:19Z</time>
      </trkpt>
      <trkpt lat="42.3905" lon="0.14714">
        <ele>768.4</ele>
        <time>2017-07-02T10:03:21Z</time>
      </trkpt>
      <trkpt lat="42.39049" lon="0.14718">
        <ele>768.4</ele>
        <time>2017-07-02T10:03:24Z</time>
      </trkpt>
      <trkpt lat="42.39045" lon="0.14721">
        <ele>768.4</ele>
        <time>2017-07-02T10:03:27Z</time>
      </trkpt>
      <trkpt lat="42.39041" lon="0.14722">
        <ele>768.4</ele>
        <time>2017-07-02T10:03:29Z</time>
      </trkpt>
      <trkpt lat="42.39037" lon="0.14725">
        <ele>768.4</ele>
        <time>2017-07-02T10:03:31Z</time>
      </trkpt>
      <trkpt lat="42.39034" lon="0.14728">
        <ele>768.3</ele>
        <time>2017-07-02T10:03:33Z</time>
      </trkpt>
      <trkpt lat="42.39031" lon="0.14731">
        <ele>768.3</ele>
        <time>2017-07-02T10:03:35Z</time>
      </trkpt>
      <trkpt lat="42.39026" lon="0.14731">
        <ele>768.3</ele>
        <time>2017-07-02T10:03:37Z</time>
      </trkpt>
      <trkpt lat="42.39023" lon="0.1473">
        <ele>768.3</ele>
        <time>2017-07-02T10:03:38Z</time>
      </trkpt>
      <trkpt lat="42.3902" lon="0.14731">
        <ele>768.3</ele>
        <time>2017-07-02T10:03:39Z</time>
      </trkpt>
      <trkpt lat="42.39017" lon="0.14732">
        <ele>768.2</ele>
        <time>2017-07-02T10:03:40Z</time>
      </trkpt>
      <trkpt lat="42.39014" lon="0.14734">
        <ele>768.2</ele>
        <time>2017-07-02T10:03:41Z</time>
      </trkpt>
      <trkpt lat="42.39011" lon="0.14736">
        <ele>768.2</ele>
        <time>2017-07-02T10:03:42Z</time>
      </trkpt>
      <trkpt lat="42.39008" lon="0.14737">
        <ele>768.2</ele>
        <time>2017-07-02T10:03:43Z</time>
      </trkpt>
      <trkpt lat="42.39005" lon="0.14739">
        <ele>768.2</ele>
        <time>2017-07-02T10:03:44Z</time>
      </trkpt>
      <trkpt lat="42.39002" lon="0.1474">
        <ele>768.1</ele>
        <time>2017-07-02T10:03:45Z</time>
      </trkpt>
      <trkpt lat="42.38999" lon="0.14741">
        <ele>768.1</ele>
        <time>2017-07-02T10:03:46Z</time>
      </trkpt>
      <trkpt lat="42.38995" lon="0.14743">
        <ele>768.1</ele>
        <time>2017-07-02T10:03:47Z</time>
      </trkpt>
      <trkpt lat="42.38992" lon="0.14745">
        <ele>768.1</ele>
        <time>2017-07-02T10:03:48Z</time>
      </trkpt>
      <trkpt lat="42.3899" lon="0.14749">
        <ele>768</ele>
        <time>2017-07-02T10:03:49Z</time>
      </trkpt>
      <trkpt lat="42.38988" lon="0.14753">
        <ele>768</ele>
        <time>2017-07-02T10:03:50Z</time>
      </trkpt>
      <trkpt lat="42.38987" lon="0.14756">
        <ele>768</ele>
        <time>2017-07-02T10:03:51Z</time>
      </trkpt>
      <trkpt lat="42.38985" lon="0.14762">
        <ele>768</ele>
        <time>2017-07-02T10:03:53Z</time>
      </trkpt>
      <trkpt lat="42.38983" lon="0.14768">
        <ele>768</ele>
        <time>2017-07-02T10:03:55Z</time>
      </trkpt>
      <trkpt lat="42.38981" lon="0.14772">
        <ele>767.9</ele>
        <time>2017-07-02T10:03:57Z</time>
      </trkpt>
      <trkpt lat="42.38977" lon="0.14776">
        <ele>767.9</ele>
        <time>2017-07-02T10:03:59Z</time>
      </trkpt>
      <trkpt lat="42.38974" lon="0.1478">
        <ele>767.9</ele>
        <time>2017-07-02T10:04:01Z</time>
      </trkpt>
      <trkpt lat="42.38968" lon="0.14781">
        <ele>767.8</ele>
        <time>2017-07-02T10:04:03Z</time>
      </trkpt>
      <trkpt lat="42.38965" lon="0.14782">
        <ele>767.7</ele>
        <time>2017-07-02T10:04:04Z</time>
      </trkpt>
      <trkpt lat="42.38961" lon="0.14786">
        <ele>767.6</ele>
        <time>2017-07-02T10:04:06Z</time>
      </trkpt>
      <trkpt lat="42.38958" lon="0.14791">
        <ele>767.5</ele>
        <time>2017-07-02T10:04:08Z</time>
      </trkpt>
      <trkpt lat="42.38954" lon="0.14795">
        <ele>767.3</ele>
        <time>2017-07-02T10:04:10Z</time>
      </trkpt>
      <trkpt lat="42.38951" lon="0.14797">
        <ele>767.2</ele>
        <time>2017-07-02T10:04:11Z</time>
      </trkpt>
      <trkpt lat="42.38948" lon="0.14799">
        <ele>767.1</ele>
        <time>2017-07-02T10:04:12Z</time>
      </trkpt>
      <trkpt lat="42.38945" lon="0.14801">
        <ele>767</ele>
        <time>2017-07-02T10:04:13Z</time>
      </trkpt>
      <trkpt lat="42.38942" lon="0.14803">
        <ele>766.9</ele>
        <time>2017-07-02T10:04:14Z</time>
      </trkpt>
      <trkpt lat="42.3894" lon="0.14806">
        <ele>766.8</ele>
        <time>2017-07-02T10:04:15Z</time>
      </trkpt>
      <trkpt lat="42.38937" lon="0.14808">
        <ele>766.5</ele>
        <time>2017-07-02T10:04:16Z</time>
      </trkpt>
      <trkpt lat="42.38934" lon="0.14812">
        <ele>766.1</ele>
        <time>2017-07-02T10:04:18Z</time>
      </trkpt>
      <trkpt lat="42.3893" lon="0.14815">
        <ele>765.5</ele>
        <time>2017-07-02T10:04:20Z</time>
      </trkpt>
      <trkpt lat="42.38924" lon="0.14816">
        <ele>764.7</ele>
        <time>2017-07-02T10:04:22Z</time>
      </trkpt>
      <trkpt lat="42.38921" lon="0.14817">
        <ele>764.2</ele>
        <time>2017-07-02T10:04:23Z</time>
      </trkpt>
      <trkpt lat="42.38918" lon="0.14819">
        <ele>763.4</ele>
        <time>2017-07-02T10:04:24Z</time>
      </trkpt>
      <trkpt lat="42.38915" lon="0.14822">
        <ele>762.8</ele>
        <time>2017-07-02T10:04:25Z</time>
      </trkpt>
      <trkpt lat="42.38913" lon="0.14825">
        <ele>762.3</ele>
        <time>2017-07-02T10:04:26Z</time>
      </trkpt>
      <trkpt lat="42.3891" lon="0.14828">
        <ele>761.6</ele>
        <time>2017-07-02T10:04:27Z</time>
      </trkpt>
      <trkpt lat="42.38907" lon="0.14831">
        <ele>761</ele>
        <time>2017-07-02T10:04:28Z</time>
      </trkpt>
      <trkpt lat="42.38904" lon="0.14832">
        <ele>760.4</ele>
        <time>2017-07-02T10:04:29Z</time>
      </trkpt>
      <trkpt lat="42.38899" lon="0.1483">
        <ele>759.4</ele>
        <time>2017-07-02T10:04:31Z</time>
      </trkpt>
      <trkpt lat="42.38896" lon="0.14829">
        <ele>758.8</ele>
        <time>2017-07-02T10:04:32Z</time>
      </trkpt>
      <trkpt lat="42.38892" lon="0.14829">
        <ele>757.9</ele>
        <time>2017-07-02T10:04:34Z</time>
      </trkpt>
      <trkpt lat="42.38889" lon="0.14832">
        <ele>756.9</ele>
        <time>2017-07-02T10:04:36Z</time>
      </trkpt>
      <trkpt lat="42.38887" lon="0.14835">
        <ele>756.1</ele>
        <time>2017-07-02T10:04:45Z</time>
      </trkpt>
      <trkpt lat="42.38884" lon="0.14837">
        <ele>755.4</ele>
        <time>2017-07-02T10:04:50Z</time>
      </trkpt>
      <trkpt lat="42.38882" lon="0.14839">
        <ele>754.5</ele>
        <time>2017-07-02T10:04:54Z</time>
      </trkpt>
      <trkpt lat="42.38879" lon="0.14843">
        <ele>753.6</ele>
        <time>2017-07-02T10:04:56Z</time>
      </trkpt>
      <trkpt lat="42.38876" lon="0.14845">
        <ele>752.8</ele>
        <time>2017-07-02T10:04:58Z</time>
      </trkpt>
      <trkpt lat="42.38874" lon="0.14848">
        <ele>751.9</ele>
        <time>2017-07-02T10:05:00Z</time>
      </trkpt>
      <trkpt lat="42.38872" lon="0.14852">
        <ele>751.4</ele>
        <time>2017-07-02T10:05:02Z</time>
      </trkpt>
      <trkpt lat="42.38871" lon="0.14857">
        <ele>751.1</ele>
        <time>2017-07-02T10:05:04Z</time>
      </trkpt>
      <trkpt lat="42.38867" lon="0.14862">
        <ele>750.8</ele>
        <time>2017-07-02T10:05:06Z</time>
      </trkpt>
      <trkpt lat="42.38863" lon="0.14864">
        <ele>750.6</ele>
        <time>2017-07-02T10:05:08Z</time>
      </trkpt>
      <trkpt lat="42.3886" lon="0.14866">
        <ele>750.5</ele>
        <time>2017-07-02T10:05:10Z</time>
      </trkpt>
      <trkpt lat="42.38855" lon="0.14869">
        <ele>750.4</ele>
        <time>2017-07-02T10:05:12Z</time>
      </trkpt>
      <trkpt lat="42.38851" lon="0.14869">
        <ele>750.4</ele>
        <time>2017-07-02T10:05:14Z</time>
      </trkpt>
      <trkpt lat="42.38846" lon="0.14871">
        <ele>750.3</ele>
        <time>2017-07-02T10:05:16Z</time>
      </trkpt>
      <trkpt lat="42.38842" lon="0.14875">
        <ele>750.3</ele>
        <time>2017-07-02T10:05:18Z</time>
      </trkpt>
      <trkpt lat="42.38839" lon="0.1488">
        <ele>750.3</ele>
        <time>2017-07-02T10:05:20Z</time>
      </trkpt>
      <trkpt lat="42.38837" lon="0.14885">
        <ele>750.2</ele>
        <time>2017-07-02T10:05:22Z</time>
      </trkpt>
      <trkpt lat="42.38836" lon="0.14891">
        <ele>750.2</ele>
        <time>2017-07-02T10:05:24Z</time>
      </trkpt>
      <trkpt lat="42.38834" lon="0.14896">
        <ele>750.2</ele>
        <time>2017-07-02T10:05:26Z</time>
      </trkpt>
      <trkpt lat="42.3883" lon="0.14901">
        <ele>750.2</ele>
        <time>2017-07-02T10:05:28Z</time>
      </trkpt>
      <trkpt lat="42.38827" lon="0.14903">
        <ele>750.2</ele>
        <time>2017-07-02T10:05:29Z</time>
      </trkpt>
      <trkpt lat="42.38824" lon="0.14904">
        <ele>750.2</ele>
        <time>2017-07-02T10:05:30Z</time>
      </trkpt>
      <trkpt lat="42.38821" lon="0.14905">
        <ele>750.2</ele>
        <time>2017-07-02T10:05:31Z</time>
      </trkpt>
      <trkpt lat="42.38818" lon="0.14906">
        <ele>750.3</ele>
        <time>2017-07-02T10:05:32Z</time>
      </trkpt>
      <trkpt lat="42.38814" lon="0.14908">
        <ele>750.3</ele>
        <time>2017-07-02T10:05:33Z</time>
      </trkpt>
      <trkpt lat="42.38811" lon="0.1491">
        <ele>750.4</ele>
        <time>2017-07-02T10:05:34Z</time>
      </trkpt>
      <trkpt lat="42.38807" lon="0.14912">
        <ele>750.5</ele>
        <time>2017-07-02T10:05:35Z</time>
      </trkpt>
      <trkpt lat="42.38804" lon="0.14914">
        <ele>750.7</ele>
        <time>2017-07-02T10:05:36Z</time>
      </trkpt>
      <trkpt lat="42.388" lon="0.14916">
        <ele>751.1</ele>
        <time>2017-07-02T10:05:37Z</time>
      </trkpt>
      <trkpt lat="42.38797" lon="0.14917">
        <ele>751.3</ele>
        <time>2017-07-02T10:05:38Z</time>
      </trkpt>
      <trkpt lat="42.38793" lon="0.14917">
        <ele>751.4</ele>
        <time>2017-07-02T10:05:39Z</time>
      </trkpt>
      <trkpt lat="42.3879" lon="0.14916">
        <ele>751.5</ele>
        <time>2017-07-02T10:05:40Z</time>
      </trkpt>
      <trkpt lat="42.38788" lon="0.14916">
        <ele>751.6</ele>
        <time>2017-07-02T10:05:41Z</time>
      </trkpt>
      <trkpt lat="42.38784" lon="0.14917">
        <ele>751.7</ele>
        <time>2017-07-02T10:05:43Z</time>
      </trkpt>
      <trkpt lat="42.3878" lon="0.14919">
        <ele>751.8</ele>
        <time>2017-07-02T10:05:45Z</time>
      </trkpt>
      <trkpt lat="42.38777" lon="0.1492">
        <ele>751.9</ele>
        <time>2017-07-02T10:05:47Z</time>
      </trkpt>
      <trkpt lat="42.38773" lon="0.14919">
        <ele>752.2</ele>
        <time>2017-07-02T10:05:49Z</time>
      </trkpt>
      <trkpt lat="42.3877" lon="0.1492">
        <ele>752.4</ele>
        <time>2017-07-02T10:05:50Z</time>
      </trkpt>
      <trkpt lat="42.38767" lon="0.14921">
        <ele>752.8</ele>
        <time>2017-07-02T10:05:51Z</time>
      </trkpt>
      <trkpt lat="42.38763" lon="0.14925">
        <ele>753.2</ele>
        <time>2017-07-02T10:05:53Z</time>
      </trkpt>
      <trkpt lat="42.3876" lon="0.14927">
        <ele>753.4</ele>
        <time>2017-07-02T10:05:55Z</time>
      </trkpt>
      <trkpt lat="42.38756" lon="0.14928">
        <ele>753.6</ele>
        <time>2017-07-02T10:05:57Z</time>
      </trkpt>
      <trkpt lat="42.38751" lon="0.14928">
        <ele>753.7</ele>
        <time>2017-07-02T10:05:59Z</time>
      </trkpt>
      <trkpt lat="42.38747" lon="0.14929">
        <ele>754</ele>
        <time>2017-07-02T10:06:01Z</time>
      </trkpt>
      <trkpt lat="42.38743" lon="0.14933">
        <ele>754.3</ele>
        <time>2017-07-02T10:06:03Z</time>
      </trkpt>
      <trkpt lat="42.3874" lon="0.14937">
        <ele>754.6</ele>
        <time>2017-07-02T10:06:05Z</time>
      </trkpt>
      <trkpt lat="42.38737" lon="0.1494">
        <ele>754.8</ele>
        <time>2017-07-02T10:06:07Z</time>
      </trkpt>
      <trkpt lat="42.38732" lon="0.14944">
        <ele>754.8</ele>
        <time>2017-07-02T10:06:09Z</time>
      </trkpt>
      <trkpt lat="42.38729" lon="0.14948">
        <ele>754.7</ele>
        <time>2017-07-02T10:06:11Z</time>
      </trkpt>
      <trkpt lat="42.38726" lon="0.1495">
        <ele>754.6</ele>
        <time>2017-07-02T10:06:13Z</time>
      </trkpt>
      <trkpt lat="42.38721" lon="0.14952">
        <ele>754.5</ele>
        <time>2017-07-02T10:06:15Z</time>
      </trkpt>
      <trkpt lat="42.38718" lon="0.14955">
        <ele>754.3</ele>
        <time>2017-07-02T10:06:17Z</time>
      </trkpt>
      <trkpt lat="42.38717" lon="0.14959">
        <ele>754.2</ele>
        <time>2017-07-02T10:06:19Z</time>
      </trkpt>
      <trkpt lat="42.38715" lon="0.14963">
        <ele>753.9</ele>
        <time>2017-07-02T10:06:21Z</time>
      </trkpt>
      <trkpt lat="42.38712" lon="0.14968">
        <ele>753.4</ele>
        <time>2017-07-02T10:06:23Z</time>
      </trkpt>
      <trkpt lat="42.3871" lon="0.14971">
        <ele>752.8</ele>
        <time>2017-07-02T10:06:25Z</time>
      </trkpt>
      <trkpt lat="42.38708" lon="0.14973">
        <ele>752.3</ele>
        <time>2017-07-02T10:06:27Z</time>
      </trkpt>
      <trkpt lat="42.38705" lon="0.14975">
        <ele>751.7</ele>
        <time>2017-07-02T10:06:29Z</time>
      </trkpt>
      <trkpt lat="42.38702" lon="0.14978">
        <ele>750.9</ele>
        <time>2017-07-02T10:06:31Z</time>
      </trkpt>
      <trkpt lat="42.387" lon="0.14981">
        <ele>750.4</ele>
        <time>2017-07-02T10:06:33Z</time>
      </trkpt>
      <trkpt lat="42.38691" lon="0.14984">
        <ele>749.3</ele>
        <time>2017-07-02T10:09:42Z</time>
      </trkpt>
      <trkpt lat="42.38688" lon="0.14986">
        <ele>748.9</ele>
        <time>2017-07-02T10:09:44Z</time>
      </trkpt>
      <trkpt lat="42.38686" lon="0.14988">
        <ele>748.5</ele>
        <time>2017-07-02T10:09:46Z</time>
      </trkpt>
      <trkpt lat="42.38683" lon="0.14989">
        <ele>748.1</ele>
        <time>2017-07-02T10:09:48Z</time>
      </trkpt>
      <trkpt lat="42.3868" lon="0.14989">
        <ele>747.7</ele>
        <time>2017-07-02T10:09:50Z</time>
      </trkpt>
      <trkpt lat="42.38677" lon="0.1499">
        <ele>747.3</ele>
        <time>2017-07-02T10:09:52Z</time>
      </trkpt>
      <trkpt lat="42.38673" lon="0.14989">
        <ele>746.8</ele>
        <time>2017-07-02T10:09:54Z</time>
      </trkpt>
      <trkpt lat="42.38669" lon="0.14991">
        <ele>746.3</ele>
        <time>2017-07-02T10:09:56Z</time>
      </trkpt>
      <trkpt lat="42.38667" lon="0.14993">
        <ele>745.9</ele>
        <time>2017-07-02T10:09:57Z</time>
      </trkpt>
      <trkpt lat="42.38665" lon="0.14996">
        <ele>745.6</ele>
        <time>2017-07-02T10:09:58Z</time>
      </trkpt>
      <trkpt lat="42.38662" lon="0.14999">
        <ele>745.2</ele>
        <time>2017-07-02T10:10:00Z</time>
      </trkpt>
      <trkpt lat="42.38659" lon="0.14998">
        <ele>744.9</ele>
        <time>2017-07-02T10:10:21Z</time>
      </trkpt>
      <trkpt lat="42.38657" lon="0.15">
        <ele>744.5</ele>
        <time>2017-07-02T10:10:23Z</time>
      </trkpt>
      <trkpt lat="42.38654" lon="0.15002">
        <ele>744.2</ele>
        <time>2017-07-02T10:10:26Z</time>
      </trkpt>
      <trkpt lat="42.38651" lon="0.15005">
        <ele>743.8</ele>
        <time>2017-07-02T10:10:32Z</time>
      </trkpt>
      <trkpt lat="42.38649" lon="0.15008">
        <ele>743.5</ele>
        <time>2017-07-02T10:10:35Z</time>
      </trkpt>
      <trkpt lat="42.38646" lon="0.15012">
        <ele>743</ele>
        <time>2017-07-02T10:10:37Z</time>
      </trkpt>
      <trkpt lat="42.38644" lon="0.15015">
        <ele>742.7</ele>
        <time>2017-07-02T10:10:38Z</time>
      </trkpt>
      <trkpt lat="42.38641" lon="0.15017">
        <ele>742.4</ele>
        <time>2017-07-02T10:10:40Z</time>
      </trkpt>
      <trkpt lat="42.38638" lon="0.15021">
        <ele>742</ele>
        <time>2017-07-02T10:11:44Z</time>
      </trkpt>
      <trkpt lat="42.38634" lon="0.15024">
        <ele>741.5</ele>
        <time>2017-07-02T10:11:46Z</time>
      </trkpt>
      <trkpt lat="42.38631" lon="0.15026">
        <ele>741.3</ele>
        <time>2017-07-02T10:11:47Z</time>
      </trkpt>
      <trkpt lat="42.38628" lon="0.15028">
        <ele>741</ele>
        <time>2017-07-02T10:11:48Z</time>
      </trkpt>
      <trkpt lat="42.38624" lon="0.15029">
        <ele>740.7</ele>
        <time>2017-07-02T10:11:49Z</time>
      </trkpt>
      <trkpt lat="42.38619" lon="0.1503">
        <ele>740.6</ele>
        <time>2017-07-02T10:11:50Z</time>
      </trkpt>
      <trkpt lat="42.38613" lon="0.15033">
        <ele>740.5</ele>
        <time>2017-07-02T10:11:51Z</time>
      </trkpt>
      <trkpt lat="42.38608" lon="0.15035">
        <ele>740.4</ele>
        <time>2017-07-02T10:11:52Z</time>
      </trkpt>
      <trkpt lat="42.38603" lon="0.15037">
        <ele>740.3</ele>
        <time>2017-07-02T10:11:53Z</time>
      </trkpt>
      <trkpt lat="42.38598" lon="0.15039">
        <ele>740.3</ele>
        <time>2017-07-02T10:11:54Z</time>
      </trkpt>
      <trkpt lat="42.38594" lon="0.15042">
        <ele>740.2</ele>
        <time>2017-07-02T10:11:55Z</time>
      </trkpt>
      <trkpt lat="42.3859" lon="0.15045">
        <ele>740.2</ele>
        <time>2017-07-02T10:11:56Z</time>
      </trkpt>
      <trkpt lat="42.38587" lon="0.15048">
        <ele>740.2</ele>
        <time>2017-07-02T10:11:57Z</time>
      </trkpt>
      <trkpt lat="42.38584" lon="0.15052">
        <ele>740.2</ele>
        <time>2017-07-02T10:11:58Z</time>
      </trkpt>
      <trkpt lat="42.38583" lon="0.15055">
        <ele>740.2</ele>
        <time>2017-07-02T10:11:59Z</time>
      </trkpt>
      <trkpt lat="42.3858" lon="0.1506">
        <ele>740.2</ele>
        <time>2017-07-02T10:12:01Z</time>
      </trkpt>
      <trkpt lat="42.38578" lon="0.15064">
        <ele>740.2</ele>
        <time>2017-07-02T10:12:03Z</time>
      </trkpt>
      <trkpt lat="42.38573" lon="0.15066">
        <ele>740.2</ele>
        <time>2017-07-02T10:12:05Z</time>
      </trkpt>
      <trkpt lat="42.3857" lon="0.15067">
        <ele>740.2</ele>
        <time>2017-07-02T10:12:06Z</time>
      </trkpt>
      <trkpt lat="42.38567" lon="0.15068">
        <ele>740.2</ele>
        <time>2017-07-02T10:12:07Z</time>
      </trkpt>
      <trkpt lat="42.38563" lon="0.1507">
        <ele>740.2</ele>
        <time>2017-07-02T10:12:08Z</time>
      </trkpt>
      <trkpt lat="42.3856" lon="0.15071">
        <ele>740.3</ele>
        <time>2017-07-02T10:12:09Z</time>
      </trkpt>
      <trkpt lat="42.38556" lon="0.15073">
        <ele>740.4</ele>
        <time>2017-07-02T10:12:10Z</time>
      </trkpt>
      <trkpt lat="42.38553" lon="0.15075">
        <ele>740.6</ele>
        <time>2017-07-02T10:12:11Z</time>
      </trkpt>
      <trkpt lat="42.3855" lon="0.15076">
        <ele>740.9</ele>
        <time>2017-07-02T10:12:12Z</time>
      </trkpt>
      <trkpt lat="42.38547" lon="0.15077">
        <ele>741.2</ele>
        <time>2017-07-02T10:12:14Z</time>
      </trkpt>
      <trkpt lat="42.38544" lon="0.15076">
        <ele>741.3</ele>
        <time>2017-07-02T10:12:16Z</time>
      </trkpt>
      <trkpt lat="42.3854" lon="0.15077">
        <ele>741.4</ele>
        <time>2017-07-02T10:12:18Z</time>
      </trkpt>
      <trkpt lat="42.38535" lon="0.1508">
        <ele>741.5</ele>
        <time>2017-07-02T10:12:20Z</time>
      </trkpt>
      <trkpt lat="42.3853" lon="0.15082">
        <ele>741.5</ele>
        <time>2017-07-02T10:12:22Z</time>
      </trkpt>
      <trkpt lat="42.38526" lon="0.15083">
        <ele>741.6</ele>
        <time>2017-07-02T10:12:24Z</time>
      </trkpt>
      <trkpt lat="42.38522" lon="0.15084">
        <ele>741.6</ele>
        <time>2017-07-02T10:12:26Z</time>
      </trkpt>
      <trkpt lat="42.38517" lon="0.15086">
        <ele>741.6</ele>
        <time>2017-07-02T10:12:28Z</time>
      </trkpt>
      <trkpt lat="42.38513" lon="0.15088">
        <ele>741.6</ele>
        <time>2017-07-02T10:12:30Z</time>
      </trkpt>
      <trkpt lat="42.38509" lon="0.15091">
        <ele>741.5</ele>
        <time>2017-07-02T10:12:32Z</time>
      </trkpt>
      <trkpt lat="42.38506" lon="0.15093">
        <ele>741.5</ele>
        <time>2017-07-02T10:12:34Z</time>
      </trkpt>
      <trkpt lat="42.38502" lon="0.15095">
        <ele>741.5</ele>
        <time>2017-07-02T10:12:36Z</time>
      </trkpt>
      <trkpt lat="42.38498" lon="0.15095">
        <ele>741.5</ele>
        <time>2017-07-02T10:12:38Z</time>
      </trkpt>
      <trkpt lat="42.38494" lon="0.15094">
        <ele>741.5</ele>
        <time>2017-07-02T10:12:39Z</time>
      </trkpt>
      <trkpt lat="42.38491" lon="0.15092">
        <ele>741.4</ele>
        <time>2017-07-02T10:12:40Z</time>
      </trkpt>
      <trkpt lat="42.38488" lon="0.1509">
        <ele>741.4</ele>
        <time>2017-07-02T10:12:41Z</time>
      </trkpt>
      <trkpt lat="42.38484" lon="0.15089">
        <ele>741.4</ele>
        <time>2017-07-02T10:12:42Z</time>
      </trkpt>
      <trkpt lat="42.38481" lon="0.15089">
        <ele>741.4</ele>
        <time>2017-07-02T10:12:43Z</time>
      </trkpt>
      <trkpt lat="42.38476" lon="0.1509">
        <ele>741.3</ele>
        <time>2017-07-02T10:12:45Z</time>
      </trkpt>
      <trkpt lat="42.38472" lon="0.15092">
        <ele>741.3</ele>
        <time>2017-07-02T10:12:47Z</time>
      </trkpt>
      <trkpt lat="42.38469" lon="0.15094">
        <ele>741.3</ele>
        <time>2017-07-02T10:12:49Z</time>
      </trkpt>
      <trkpt lat="42.38464" lon="0.15094">
        <ele>741</ele>
        <time>2017-07-02T10:12:51Z</time>
      </trkpt>
      <trkpt lat="42.3846" lon="0.15095">
        <ele>740.4</ele>
        <time>2017-07-02T10:12:52Z</time>
      </trkpt>
      <trkpt lat="42.38457" lon="0.15096">
        <ele>740</ele>
        <time>2017-07-02T10:12:53Z</time>
      </trkpt>
      <trkpt lat="42.38454" lon="0.15099">
        <ele>739.8</ele>
        <time>2017-07-02T10:12:54Z</time>
      </trkpt>
      <trkpt lat="42.38451" lon="0.15102">
        <ele>739.5</ele>
        <time>2017-07-02T10:12:55Z</time>
      </trkpt>
      <trkpt lat="42.38448" lon="0.15106">
        <ele>739.6</ele>
        <time>2017-07-02T10:12:57Z</time>
      </trkpt>
      <trkpt lat="42.38443" lon="0.15109">
        <ele>739.8</ele>
        <time>2017-07-02T10:12:59Z</time>
      </trkpt>
      <trkpt lat="42.3844" lon="0.15111">
        <ele>740.1</ele>
        <time>2017-07-02T10:13:00Z</time>
      </trkpt>
      <trkpt lat="42.38437" lon="0.15113">
        <ele>740</ele>
        <time>2017-07-02T10:13:01Z</time>
      </trkpt>
      <trkpt lat="42.38434" lon="0.15116">
        <ele>740.4</ele>
        <time>2017-07-02T10:13:02Z</time>
      </trkpt>
      <trkpt lat="42.38431" lon="0.15118">
        <ele>740.3</ele>
        <time>2017-07-02T10:13:03Z</time>
      </trkpt>
      <trkpt lat="42.38428" lon="0.15121">
        <ele>740.7</ele>
        <time>2017-07-02T10:13:04Z</time>
      </trkpt>
      <trkpt lat="42.38425" lon="0.15123">
        <ele>740.5</ele>
        <time>2017-07-02T10:13:05Z</time>
      </trkpt>
      <trkpt lat="42.38422" lon="0.15126">
        <ele>740.7</ele>
        <time>2017-07-02T10:13:06Z</time>
      </trkpt>
      <trkpt lat="42.3842" lon="0.15128">
        <ele>741</ele>
        <time>2017-07-02T10:13:07Z</time>
      </trkpt>
      <trkpt lat="42.38417" lon="0.15132">
        <ele>741</ele>
        <time>2017-07-02T10:13:09Z</time>
      </trkpt>
      <trkpt lat="42.38414" lon="0.15135">
        <ele>740.6</ele>
        <time>2017-07-02T10:13:11Z</time>
      </trkpt>
      <trkpt lat="42.38412" lon="0.15136">
        <ele>740.5</ele>
        <time>2017-07-02T10:13:13Z</time>
      </trkpt>
      <trkpt lat="42.38409" lon="0.15139">
        <ele>740</ele>
        <time>2017-07-02T10:13:15Z</time>
      </trkpt>
      <trkpt lat="42.38406" lon="0.15142">
        <ele>739.7</ele>
        <time>2017-07-02T10:13:18Z</time>
      </trkpt>
      <trkpt lat="42.38403" lon="0.15144">
        <ele>739.1</ele>
        <time>2017-07-02T10:13:35Z</time>
      </trkpt>
      <trkpt lat="42.38401" lon="0.15145">
        <ele>739.4</ele>
        <time>2017-07-02T10:13:41Z</time>
      </trkpt>
      <trkpt lat="42.38398" lon="0.15147">
        <ele>738.8</ele>
        <time>2017-07-02T10:13:45Z</time>
      </trkpt>
      <trkpt lat="42.38396" lon="0.15149">
        <ele>738.1</ele>
        <time>2017-07-02T10:13:49Z</time>
      </trkpt>
      <trkpt lat="42.38392" lon="0.15145">
        <ele>737.6</ele>
        <time>2017-07-02T10:13:53Z</time>
      </trkpt>
      <trkpt lat="42.38388" lon="0.15147">
        <ele>737.1</ele>
        <time>2017-07-02T10:13:55Z</time>
      </trkpt>
      <trkpt lat="42.38385" lon="0.15149">
        <ele>737</ele>
        <time>2017-07-02T10:13:56Z</time>
      </trkpt>
      <trkpt lat="42.38382" lon="0.15152">
        <ele>736.6</ele>
        <time>2017-07-02T10:13:57Z</time>
      </trkpt>
      <trkpt lat="42.38379" lon="0.15154">
        <ele>736.4</ele>
        <time>2017-07-02T10:13:58Z</time>
      </trkpt>
      <trkpt lat="42.38375" lon="0.15155">
        <ele>735.8</ele>
        <time>2017-07-02T10:13:59Z</time>
      </trkpt>
      <trkpt lat="42.38371" lon="0.15156">
        <ele>735.4</ele>
        <time>2017-07-02T10:14:00Z</time>
      </trkpt>
      <trkpt lat="42.38367" lon="0.15155">
        <ele>735</ele>
        <time>2017-07-02T10:14:02Z</time>
      </trkpt>
      <trkpt lat="42.38363" lon="0.15155">
        <ele>734.6</ele>
        <time>2017-07-02T10:14:04Z</time>
      </trkpt>
      <trkpt lat="42.3836" lon="0.15155">
        <ele>734.2</ele>
        <time>2017-07-02T10:14:06Z</time>
      </trkpt>
      <trkpt lat="42.38357" lon="0.15157">
        <ele>733.7</ele>
        <time>2017-07-02T10:14:08Z</time>
      </trkpt>
      <trkpt lat="42.38354" lon="0.15161">
        <ele>733.4</ele>
        <time>2017-07-02T10:14:10Z</time>
      </trkpt>
      <trkpt lat="42.38352" lon="0.15164">
        <ele>733</ele>
        <time>2017-07-02T10:14:11Z</time>
      </trkpt>
      <trkpt lat="42.3835" lon="0.15167">
        <ele>733</ele>
        <time>2017-07-02T10:14:12Z</time>
      </trkpt>
      <trkpt lat="42.38348" lon="0.15169">
        <ele>732.4</ele>
        <time>2017-07-02T10:14:13Z</time>
      </trkpt>
      <trkpt lat="42.38345" lon="0.15172">
        <ele>731.9</ele>
        <time>2017-07-02T10:14:14Z</time>
      </trkpt>
      <trkpt lat="42.38343" lon="0.15175">
        <ele>731.2</ele>
        <time>2017-07-02T10:14:15Z</time>
      </trkpt>
      <trkpt lat="42.3834" lon="0.15178">
        <ele>731.5</ele>
        <time>2017-07-02T10:14:16Z</time>
      </trkpt>
      <trkpt lat="42.38338" lon="0.15181">
        <ele>731.3</ele>
        <time>2017-07-02T10:14:17Z</time>
      </trkpt>
      <trkpt lat="42.38336" lon="0.15184">
        <ele>731.2</ele>
        <time>2017-07-02T10:14:18Z</time>
      </trkpt>
      <trkpt lat="42.38334" lon="0.15189">
        <ele>731.5</ele>
        <time>2017-07-02T10:14:19Z</time>
      </trkpt>
      <trkpt lat="42.38333" lon="0.15192">
        <ele>730.9</ele>
        <time>2017-07-02T10:14:20Z</time>
      </trkpt>
      <trkpt lat="42.38331" lon="0.15198">
        <ele>731.6</ele>
        <time>2017-07-02T10:14:22Z</time>
      </trkpt>
      <trkpt lat="42.38331" lon="0.15202">
        <ele>731.8</ele>
        <time>2017-07-02T10:14:23Z</time>
      </trkpt>
      <trkpt lat="42.38331" lon="0.15207">
        <ele>732.1</ele>
        <time>2017-07-02T10:14:24Z</time>
      </trkpt>
      <trkpt lat="42.3833" lon="0.15212">
        <ele>732.6</ele>
        <time>2017-07-02T10:14:25Z</time>
      </trkpt>
      <trkpt lat="42.38329" lon="0.15216">
        <ele>732.9</ele>
        <time>2017-07-02T10:14:26Z</time>
      </trkpt>
      <trkpt lat="42.38327" lon="0.15222">
        <ele>733.4</ele>
        <time>2017-07-02T10:14:28Z</time>
      </trkpt>
      <trkpt lat="42.38327" lon="0.15226">
        <ele>733.8</ele>
        <time>2017-07-02T10:14:31Z</time>
      </trkpt>
      <trkpt lat="42.38325" lon="0.1523">
        <ele>734.2</ele>
        <time>2017-07-02T10:14:33Z</time>
      </trkpt>
      <trkpt lat="42.38323" lon="0.15235">
        <ele>734.5</ele>
        <time>2017-07-02T10:14:35Z</time>
      </trkpt>
      <trkpt lat="42.38321" lon="0.15238">
        <ele>734.6</ele>
        <time>2017-07-02T10:14:39Z</time>
      </trkpt>
      <trkpt lat="42.3832" lon="0.15241">
        <ele>734.8</ele>
        <time>2017-07-02T10:14:45Z</time>
      </trkpt>
      <trkpt lat="42.38319" lon="0.15245">
        <ele>735</ele>
        <time>2017-07-02T10:14:47Z</time>
      </trkpt>
      <trkpt lat="42.38318" lon="0.1525">
        <ele>735.4</ele>
        <time>2017-07-02T10:14:49Z</time>
      </trkpt>
      <trkpt lat="42.38317" lon="0.15254">
        <ele>735.8</ele>
        <time>2017-07-02T10:14:52Z</time>
      </trkpt>
      <trkpt lat="42.38315" lon="0.15256">
        <ele>736</ele>
        <time>2017-07-02T10:14:54Z</time>
      </trkpt>
      <trkpt lat="42.38312" lon="0.15258">
        <ele>736.2</ele>
        <time>2017-07-02T10:14:56Z</time>
      </trkpt>
      <trkpt lat="42.3831" lon="0.1526">
        <ele>736.4</ele>
        <time>2017-07-02T10:14:58Z</time>
      </trkpt>
      <trkpt lat="42.38307" lon="0.15263">
        <ele>736.5</ele>
        <time>2017-07-02T10:15:01Z</time>
      </trkpt>
      <trkpt lat="42.38303" lon="0.15265">
        <ele>736.8</ele>
        <time>2017-07-02T10:15:03Z</time>
      </trkpt>
      <trkpt lat="42.383" lon="0.15268">
        <ele>737.4</ele>
        <time>2017-07-02T10:15:05Z</time>
      </trkpt>
      <trkpt lat="42.38297" lon="0.1527">
        <ele>738</ele>
        <time>2017-07-02T10:15:07Z</time>
      </trkpt>
      <trkpt lat="42.38296" lon="0.15273">
        <ele>738.7</ele>
        <time>2017-07-02T10:15:10Z</time>
      </trkpt>
      <trkpt lat="42.38293" lon="0.15276">
        <ele>739.2</ele>
        <time>2017-07-02T10:15:18Z</time>
      </trkpt>
      <trkpt lat="42.38291" lon="0.15278">
        <ele>739.3</ele>
        <time>2017-07-02T10:15:24Z</time>
      </trkpt>
      <trkpt lat="42.38289" lon="0.15281">
        <ele>739.4</ele>
        <time>2017-07-02T10:15:28Z</time>
      </trkpt>
      <trkpt lat="42.38286" lon="0.15283">
        <ele>739.4</ele>
        <time>2017-07-02T10:15:36Z</time>
      </trkpt>
      <trkpt lat="42.38285" lon="0.15287">
        <ele>739.5</ele>
        <time>2017-07-02T10:15:51Z</time>
      </trkpt>
      <trkpt lat="42.38284" lon="0.1529">
        <ele>739.5</ele>
        <time>2017-07-02T10:15:55Z</time>
      </trkpt>
      <trkpt lat="42.38281" lon="0.15293">
        <ele>739.5</ele>
        <time>2017-07-02T10:16:00Z</time>
      </trkpt>
      <trkpt lat="42.38284" lon="0.15291">
        <ele>739.5</ele>
        <time>2017-07-02T10:18:04Z</time>
      </trkpt>
      <trkpt lat="42.38287" lon="0.15291">
        <ele>739.4</ele>
        <time>2017-07-02T10:18:11Z</time>
      </trkpt>
      <trkpt lat="42.38285" lon="0.15293">
        <ele>739.4</ele>
        <time>2017-07-02T10:18:18Z</time>
      </trkpt>
      <trkpt lat="42.38283" lon="0.15296">
        <ele>739.3</ele>
        <time>2017-07-02T10:18:23Z</time>
      </trkpt>
      <trkpt lat="42.38281" lon="0.15292">
        <ele>739.2</ele>
        <time>2017-07-02T10:20:39Z</time>
      </trkpt>
      <trkpt lat="42.38281" lon="0.15282">
        <ele>739.1</ele>
        <time>2017-07-02T10:22:05Z</time>
      </trkpt>
      <trkpt lat="42.38278" lon="0.15284">
        <ele>738.9</ele>
        <time>2017-07-02T10:22:07Z</time>
      </trkpt>
      <trkpt lat="42.38275" lon="0.15288">
        <ele>738.8</ele>
        <time>2017-07-02T10:22:09Z</time>
      </trkpt>
      <trkpt lat="42.38271" lon="0.15291">
        <ele>738.6</ele>
        <time>2017-07-02T10:22:11Z</time>
      </trkpt>
      <trkpt lat="42.38267" lon="0.15295">
        <ele>738.3</ele>
        <time>2017-07-02T10:22:13Z</time>
      </trkpt>
      <trkpt lat="42.38265" lon="0.15298">
        <ele>738.1</ele>
        <time>2017-07-02T10:22:14Z</time>
      </trkpt>
      <trkpt lat="42.38262" lon="0.153">
        <ele>737.8</ele>
        <time>2017-07-02T10:22:15Z</time>
      </trkpt>
      <trkpt lat="42.38259" lon="0.15302">
        <ele>737.6</ele>
        <time>2017-07-02T10:22:16Z</time>
      </trkpt>
      <trkpt lat="42.38255" lon="0.15303">
        <ele>737.3</ele>
        <time>2017-07-02T10:22:17Z</time>
      </trkpt>
      <trkpt lat="42.38252" lon="0.15303">
        <ele>737</ele>
        <time>2017-07-02T10:22:18Z</time>
      </trkpt>
      <trkpt lat="42.38249" lon="0.15304">
        <ele>736.8</ele>
        <time>2017-07-02T10:22:19Z</time>
      </trkpt>
      <trkpt lat="42.38247" lon="0.15305">
        <ele>736.5</ele>
        <time>2017-07-02T10:22:20Z</time>
      </trkpt>
      <trkpt lat="42.38244" lon="0.15307">
        <ele>736.2</ele>
        <time>2017-07-02T10:22:21Z</time>
      </trkpt>
      <trkpt lat="42.38241" lon="0.15308">
        <ele>735.9</ele>
        <time>2017-07-02T10:22:22Z</time>
      </trkpt>
      <trkpt lat="42.38238" lon="0.1531">
        <ele>735.6</ele>
        <time>2017-07-02T10:22:23Z</time>
      </trkpt>
      <trkpt lat="42.38235" lon="0.15311">
        <ele>735.2</ele>
        <time>2017-07-02T10:22:24Z</time>
      </trkpt>
      <trkpt lat="42.38232" lon="0.15313">
        <ele>734.8</ele>
        <time>2017-07-02T10:22:25Z</time>
      </trkpt>
      <trkpt lat="42.38229" lon="0.15313">
        <ele>734.4</ele>
        <time>2017-07-02T10:22:26Z</time>
      </trkpt>
      <trkpt lat="42.38226" lon="0.15314">
        <ele>734</ele>
        <time>2017-07-02T10:22:27Z</time>
      </trkpt>
      <trkpt lat="42.38224" lon="0.15315">
        <ele>733.6</ele>
        <time>2017-07-02T10:22:28Z</time>
      </trkpt>
      <trkpt lat="42.3822" lon="0.15317">
        <ele>733</ele>
        <time>2017-07-02T10:22:30Z</time>
      </trkpt>
      <trkpt lat="42.38218" lon="0.15321">
        <ele>732.7</ele>
        <time>2017-07-02T10:22:32Z</time>
      </trkpt>
      <trkpt lat="42.38218" lon="0.15327">
        <ele>732.3</ele>
        <time>2017-07-02T10:22:34Z</time>
      </trkpt>
      <trkpt lat="42.38216" lon="0.15331">
        <ele>731.9</ele>
        <time>2017-07-02T10:22:36Z</time>
      </trkpt>
      <trkpt lat="42.38213" lon="0.15331">
        <ele>731.3</ele>
        <time>2017-07-02T10:22:38Z</time>
      </trkpt>
      <trkpt lat="42.3821" lon="0.15329">
        <ele>730.7</ele>
        <time>2017-07-02T10:22:40Z</time>
      </trkpt>
      <trkpt lat="42.38207" lon="0.15327">
        <ele>729.6</ele>
        <time>2017-07-02T10:22:42Z</time>
      </trkpt>
      <trkpt lat="42.38204" lon="0.15325">
        <ele>729.2</ele>
        <time>2017-07-02T10:22:44Z</time>
      </trkpt>
      <trkpt lat="42.38199" lon="0.15323">
        <ele>728.6</ele>
        <time>2017-07-02T10:22:46Z</time>
      </trkpt>
      <trkpt lat="42.38196" lon="0.15319">
        <ele>728.7</ele>
        <time>2017-07-02T10:22:49Z</time>
      </trkpt>
      <trkpt lat="42.38197" lon="0.15314">
        <ele>728.7</ele>
        <time>2017-07-02T10:22:51Z</time>
      </trkpt>
      <trkpt lat="42.38198" lon="0.15309">
        <ele>729.2</ele>
        <time>2017-07-02T10:22:54Z</time>
      </trkpt>
      <trkpt lat="42.38194" lon="0.15307">
        <ele>727.4</ele>
        <time>2017-07-02T10:22:57Z</time>
      </trkpt>
      <trkpt lat="42.38191" lon="0.15305">
        <ele>726.7</ele>
        <time>2017-07-02T10:22:59Z</time>
      </trkpt>
      <trkpt lat="42.3819" lon="0.153">
        <ele>726.3</ele>
        <time>2017-07-02T10:23:01Z</time>
      </trkpt>
      <trkpt lat="42.38188" lon="0.15295">
        <ele>726.4</ele>
        <time>2017-07-02T10:23:03Z</time>
      </trkpt>
      <trkpt lat="42.38187" lon="0.15289">
        <ele>725.5</ele>
        <time>2017-07-02T10:23:05Z</time>
      </trkpt>
      <trkpt lat="42.38186" lon="0.15283">
        <ele>725.5</ele>
        <time>2017-07-02T10:23:07Z</time>
      </trkpt>
      <trkpt lat="42.38186" lon="0.15275">
        <ele>724.9</ele>
        <time>2017-07-02T10:23:09Z</time>
      </trkpt>
      <trkpt lat="42.38187" lon="0.15271">
        <ele>724.5</ele>
        <time>2017-07-02T10:23:10Z</time>
      </trkpt>
      <trkpt lat="42.38188" lon="0.15267">
        <ele>724</ele>
        <time>2017-07-02T10:23:11Z</time>
      </trkpt>
      <trkpt lat="42.38191" lon="0.15262">
        <ele>724.4</ele>
        <time>2017-07-02T10:23:13Z</time>
      </trkpt>
      <trkpt lat="42.38192" lon="0.15259">
        <ele>724.8</ele>
        <time>2017-07-02T10:23:14Z</time>
      </trkpt>
      <trkpt lat="42.38196" lon="0.15254">
        <ele>725.1</ele>
        <time>2017-07-02T10:23:16Z</time>
      </trkpt>
      <trkpt lat="42.382" lon="0.1525">
        <ele>725.5</ele>
        <time>2017-07-02T10:23:18Z</time>
      </trkpt>
      <trkpt lat="42.38204" lon="0.15247">
        <ele>726.8</ele>
        <time>2017-07-02T10:23:20Z</time>
      </trkpt>
      <trkpt lat="42.38207" lon="0.15243">
        <ele>725.9</ele>
        <time>2017-07-02T10:23:22Z</time>
      </trkpt>
      <trkpt lat="42.38209" lon="0.15235">
        <ele>724.9</ele>
        <time>2017-07-02T10:23:24Z</time>
      </trkpt>
      <trkpt lat="42.3821" lon="0.15231">
        <ele>723.9</ele>
        <time>2017-07-02T10:23:25Z</time>
      </trkpt>
      <trkpt lat="42.38211" lon="0.15227">
        <ele>724.6</ele>
        <time>2017-07-02T10:23:26Z</time>
      </trkpt>
      <trkpt lat="42.38213" lon="0.15223">
        <ele>723.7</ele>
        <time>2017-07-02T10:23:27Z</time>
      </trkpt>
      <trkpt lat="42.38216" lon="0.1522">
        <ele>723.4</ele>
        <time>2017-07-02T10:23:28Z</time>
      </trkpt>
      <trkpt lat="42.38219" lon="0.15218">
        <ele>722.9</ele>
        <time>2017-07-02T10:23:29Z</time>
      </trkpt>
      <trkpt lat="42.38222" lon="0.15216">
        <ele>723.2</ele>
        <time>2017-07-02T10:23:30Z</time>
      </trkpt>
      <trkpt lat="42.38224" lon="0.15216">
        <ele>723.4</ele>
        <time>2017-07-02T10:23:31Z</time>
      </trkpt>
      <trkpt lat="42.38229" lon="0.15214">
        <ele>724.3</ele>
        <time>2017-07-02T10:23:33Z</time>
      </trkpt>
      <trkpt lat="42.38234" lon="0.15212">
        <ele>723.6</ele>
        <time>2017-07-02T10:23:35Z</time>
      </trkpt>
      <trkpt lat="42.38238" lon="0.15212">
        <ele>724.1</ele>
        <time>2017-07-02T10:23:37Z</time>
      </trkpt>
      <trkpt lat="42.38243" lon="0.15212">
        <ele>725</ele>
        <time>2017-07-02T10:23:41Z</time>
      </trkpt>
      <trkpt lat="42.38248" lon="0.15214">
        <ele>726.9</ele>
        <time>2017-07-02T10:23:43Z</time>
      </trkpt>
      <trkpt lat="42.38252" lon="0.15214">
        <ele>727.5</ele>
        <time>2017-07-02T10:23:45Z</time>
      </trkpt>
      <trkpt lat="42.38254" lon="0.15213">
        <ele>725.9</ele>
        <time>2017-07-02T10:23:47Z</time>
      </trkpt>
      <trkpt lat="42.38256" lon="0.1521">
        <ele>726.2</ele>
        <time>2017-07-02T10:23:49Z</time>
      </trkpt>
      <trkpt lat="42.38259" lon="0.15206">
        <ele>724.9</ele>
        <time>2017-07-02T10:23:51Z</time>
      </trkpt>
      <trkpt lat="42.38262" lon="0.15201">
        <ele>722.5</ele>
        <time>2017-07-02T10:23:53Z</time>
      </trkpt>
      <trkpt lat="42.38266" lon="0.15197">
        <ele>723</ele>
        <time>2017-07-02T10:23:55Z</time>
      </trkpt>
      <trkpt lat="42.38266" lon="0.15193">
        <ele>721.8</ele>
        <time>2017-07-02T10:23:58Z</time>
      </trkpt>
      <trkpt lat="42.38263" lon="0.15188">
        <ele>720.2</ele>
        <time>2017-07-02T10:24:00Z</time>
      </trkpt>
      <trkpt lat="42.3826" lon="0.15185">
        <ele>718.6</ele>
        <time>2017-07-02T10:24:01Z</time>
      </trkpt>
      <trkpt lat="42.38257" lon="0.15182">
        <ele>717.2</ele>
        <time>2017-07-02T10:24:02Z</time>
      </trkpt>
      <trkpt lat="42.38253" lon="0.1518">
        <ele>716.9</ele>
        <time>2017-07-02T10:24:03Z</time>
      </trkpt>
      <trkpt lat="42.38251" lon="0.15179">
        <ele>715.7</ele>
        <time>2017-07-02T10:24:04Z</time>
      </trkpt>
      <trkpt lat="42.38247" lon="0.15177">
        <ele>715.6</ele>
        <time>2017-07-02T10:24:06Z</time>
      </trkpt>
      <trkpt lat="42.38247" lon="0.15173">
        <ele>714.7</ele>
        <time>2017-07-02T10:24:16Z</time>
      </trkpt>
      <trkpt lat="42.38249" lon="0.15169">
        <ele>713.9</ele>
        <time>2017-07-02T10:24:21Z</time>
      </trkpt>
      <trkpt lat="42.38248" lon="0.15166">
        <ele>713</ele>
        <time>2017-07-02T10:24:26Z</time>
      </trkpt>
      <trkpt lat="42.38244" lon="0.15165">
        <ele>712.8</ele>
        <time>2017-07-02T10:24:28Z</time>
      </trkpt>
      <trkpt lat="42.38239" lon="0.15164">
        <ele>712.4</ele>
        <time>2017-07-02T10:24:30Z</time>
      </trkpt>
      <trkpt lat="42.38234" lon="0.15162">
        <ele>711.7</ele>
        <time>2017-07-02T10:24:32Z</time>
      </trkpt>
      <trkpt lat="42.38231" lon="0.15162">
        <ele>710</ele>
        <time>2017-07-02T10:24:33Z</time>
      </trkpt>
      <trkpt lat="42.38226" lon="0.15162">
        <ele>709.4</ele>
        <time>2017-07-02T10:24:35Z</time>
      </trkpt>
      <trkpt lat="42.38224" lon="0.15162">
        <ele>710</ele>
        <time>2017-07-02T10:24:36Z</time>
      </trkpt>
      <trkpt lat="42.38219" lon="0.15163">
        <ele>708.6</ele>
        <time>2017-07-02T10:24:38Z</time>
      </trkpt>
      <trkpt lat="42.38216" lon="0.15162">
        <ele>706.3</ele>
        <time>2017-07-02T10:24:40Z</time>
      </trkpt>
      <trkpt lat="42.38215" lon="0.15158">
        <ele>706.2</ele>
        <time>2017-07-02T10:24:42Z</time>
      </trkpt>
      <trkpt lat="42.38213" lon="0.15152">
        <ele>702.2</ele>
        <time>2017-07-02T10:24:44Z</time>
      </trkpt>
      <trkpt lat="42.3821" lon="0.15148">
        <ele>699.7</ele>
        <time>2017-07-02T10:24:46Z</time>
      </trkpt>
      <trkpt lat="42.38207" lon="0.15145">
        <ele>698.6</ele>
        <time>2017-07-02T10:24:48Z</time>
      </trkpt>
      <trkpt lat="42.38204" lon="0.15141">
        <ele>696.5</ele>
        <time>2017-07-02T10:24:50Z</time>
      </trkpt>
      <trkpt lat="42.382" lon="0.15137">
        <ele>694.8</ele>
        <time>2017-07-02T10:24:52Z</time>
      </trkpt>
      <trkpt lat="42.38196" lon="0.15135">
        <ele>693.2</ele>
        <time>2017-07-02T10:24:54Z</time>
      </trkpt>
      <trkpt lat="42.38193" lon="0.15132">
        <ele>691.7</ele>
        <time>2017-07-02T10:24:56Z</time>
      </trkpt>
      <trkpt lat="42.38192" lon="0.15127">
        <ele>690.6</ele>
        <time>2017-07-02T10:24:58Z</time>
      </trkpt>
      <trkpt lat="42.38193" lon="0.15123">
        <ele>689.5</ele>
        <time>2017-07-02T10:25:00Z</time>
      </trkpt>
      <trkpt lat="42.38194" lon="0.15118">
        <ele>688.5</ele>
        <time>2017-07-02T10:25:02Z</time>
      </trkpt>
      <trkpt lat="42.38193" lon="0.15114">
        <ele>687.7</ele>
        <time>2017-07-02T10:25:04Z</time>
      </trkpt>
      <trkpt lat="42.38192" lon="0.15109">
        <ele>686.9</ele>
        <time>2017-07-02T10:25:07Z</time>
      </trkpt>
      <trkpt lat="42.38194" lon="0.15104">
        <ele>686</ele>
        <time>2017-07-02T10:25:09Z</time>
      </trkpt>
      <trkpt lat="42.38194" lon="0.15099">
        <ele>685</ele>
        <time>2017-07-02T10:25:11Z</time>
      </trkpt>
      <trkpt lat="42.38192" lon="0.15096">
        <ele>683.9</ele>
        <time>2017-07-02T10:25:13Z</time>
      </trkpt>
      <trkpt lat="42.38189" lon="0.15093">
        <ele>683.6</ele>
        <time>2017-07-02T10:25:15Z</time>
      </trkpt>
      <trkpt lat="42.38185" lon="0.15091">
        <ele>682.1</ele>
        <time>2017-07-02T10:25:17Z</time>
      </trkpt>
      <trkpt lat="42.38182" lon="0.15089">
        <ele>680.8</ele>
        <time>2017-07-02T10:25:18Z</time>
      </trkpt>
      <trkpt lat="42.38178" lon="0.15087">
        <ele>679.9</ele>
        <time>2017-07-02T10:25:19Z</time>
      </trkpt>
      <trkpt lat="42.38173" lon="0.15087">
        <ele>679.5</ele>
        <time>2017-07-02T10:25:20Z</time>
      </trkpt>
      <trkpt lat="42.38169" lon="0.15088">
        <ele>679.1</ele>
        <time>2017-07-02T10:25:21Z</time>
      </trkpt>
      <trkpt lat="42.38166" lon="0.1509">
        <ele>679.5</ele>
        <time>2017-07-02T10:25:22Z</time>
      </trkpt>
      <trkpt lat="42.38163" lon="0.15092">
        <ele>678.7</ele>
        <time>2017-07-02T10:25:23Z</time>
      </trkpt>
      <trkpt lat="42.3816" lon="0.15093">
        <ele>678</ele>
        <time>2017-07-02T10:25:24Z</time>
      </trkpt>
      <trkpt lat="42.38156" lon="0.15092">
        <ele>677.1</ele>
        <time>2017-07-02T10:25:26Z</time>
      </trkpt>
      <trkpt lat="42.38154" lon="0.1509">
        <ele>676.4</ele>
        <time>2017-07-02T10:25:28Z</time>
      </trkpt>
      <trkpt lat="42.3815" lon="0.1509">
        <ele>675.7</ele>
        <time>2017-07-02T10:25:30Z</time>
      </trkpt>
      <trkpt lat="42.38147" lon="0.15089">
        <ele>674.8</ele>
        <time>2017-07-02T10:25:33Z</time>
      </trkpt>
      <trkpt lat="42.38144" lon="0.15089">
        <ele>674.1</ele>
        <time>2017-07-02T10:25:35Z</time>
      </trkpt>
      <trkpt lat="42.3814" lon="0.15092">
        <ele>673.1</ele>
        <time>2017-07-02T10:25:37Z</time>
      </trkpt>
      <trkpt lat="42.38136" lon="0.15092">
        <ele>672</ele>
        <time>2017-07-02T10:25:39Z</time>
      </trkpt>
      <trkpt lat="42.38131" lon="0.15089">
        <ele>671</ele>
        <time>2017-07-02T10:25:41Z</time>
      </trkpt>
      <trkpt lat="42.38128" lon="0.15087">
        <ele>670.4</ele>
        <time>2017-07-02T10:25:42Z</time>
      </trkpt>
      <trkpt lat="42.38125" lon="0.15085">
        <ele>669.4</ele>
        <time>2017-07-02T10:25:44Z</time>
      </trkpt>
      <trkpt lat="42.38121" lon="0.15086">
        <ele>668.5</ele>
        <time>2017-07-02T10:25:46Z</time>
      </trkpt>
      <trkpt lat="42.38118" lon="0.15088">
        <ele>667.5</ele>
        <time>2017-07-02T10:25:48Z</time>
      </trkpt>
      <trkpt lat="42.38114" lon="0.15088">
        <ele>666.2</ele>
        <time>2017-07-02T10:25:51Z</time>
      </trkpt>
      <trkpt lat="42.38114" lon="0.15084">
        <ele>665.2</ele>
        <time>2017-07-02T10:25:54Z</time>
      </trkpt>
      <trkpt lat="42.38116" lon="0.15079">
        <ele>663.7</ele>
        <time>2017-07-02T10:25:56Z</time>
      </trkpt>
      <trkpt lat="42.38116" lon="0.15074">
        <ele>662.6</ele>
        <time>2017-07-02T10:25:58Z</time>
      </trkpt>
      <trkpt lat="42.38113" lon="0.15071">
        <ele>661.8</ele>
        <time>2017-07-02T10:26:00Z</time>
      </trkpt>
      <trkpt lat="42.3811" lon="0.1507">
        <ele>661</ele>
        <time>2017-07-02T10:26:02Z</time>
      </trkpt>
      <trkpt lat="42.38105" lon="0.15071">
        <ele>660.1</ele>
        <time>2017-07-02T10:26:04Z</time>
      </trkpt>
      <trkpt lat="42.381" lon="0.15071">
        <ele>658.9</ele>
        <time>2017-07-02T10:26:06Z</time>
      </trkpt>
      <trkpt lat="42.38097" lon="0.15071">
        <ele>658.1</ele>
        <time>2017-07-02T10:26:08Z</time>
      </trkpt>
      <trkpt lat="42.38093" lon="0.15071">
        <ele>657.1</ele>
        <time>2017-07-02T10:26:10Z</time>
      </trkpt>
      <trkpt lat="42.38088" lon="0.15069">
        <ele>656.1</ele>
        <time>2017-07-02T10:26:12Z</time>
      </trkpt>
      <trkpt lat="42.38084" lon="0.15068">
        <ele>655.2</ele>
        <time>2017-07-02T10:26:14Z</time>
      </trkpt>
      <trkpt lat="42.38079" lon="0.15067">
        <ele>654.2</ele>
        <time>2017-07-02T10:26:16Z</time>
      </trkpt>
      <trkpt lat="42.38076" lon="0.15067">
        <ele>653.4</ele>
        <time>2017-07-02T10:26:18Z</time>
      </trkpt>
      <trkpt lat="42.38073" lon="0.15068">
        <ele>652.7</ele>
        <time>2017-07-02T10:26:19Z</time>
      </trkpt>
      <trkpt lat="42.3807" lon="0.15068">
        <ele>652</ele>
        <time>2017-07-02T10:26:20Z</time>
      </trkpt>
      <trkpt lat="42.38065" lon="0.15067">
        <ele>650.6</ele>
        <time>2017-07-02T10:26:22Z</time>
      </trkpt>
      <trkpt lat="42.38061" lon="0.15064">
        <ele>649.4</ele>
        <time>2017-07-02T10:26:24Z</time>
      </trkpt>
      <trkpt lat="42.38059" lon="0.15058">
        <ele>647.9</ele>
        <time>2017-07-02T10:26:26Z</time>
      </trkpt>
      <trkpt lat="42.38057" lon="0.15055">
        <ele>647.1</ele>
        <time>2017-07-02T10:26:27Z</time>
      </trkpt>
      <trkpt lat="42.38055" lon="0.15051">
        <ele>645.9</ele>
        <time>2017-07-02T10:26:29Z</time>
      </trkpt>
      <trkpt lat="42.38059" lon="0.15049">
        <ele>644.5</ele>
        <time>2017-07-02T10:26:39Z</time>
      </trkpt>
      <trkpt lat="42.38061" lon="0.15052">
        <ele>643.4</ele>
        <time>2017-07-02T10:27:09Z</time>
      </trkpt>
      <trkpt lat="42.38058" lon="0.15053">
        <ele>642.4</ele>
        <time>2017-07-02T10:27:18Z</time>
      </trkpt>
      <trkpt lat="42.38056" lon="0.1505">
        <ele>641.1</ele>
        <time>2017-07-02T10:27:23Z</time>
      </trkpt>
      <trkpt lat="42.38053" lon="0.15049">
        <ele>640.1</ele>
        <time>2017-07-02T10:27:27Z</time>
      </trkpt>
      <trkpt lat="42.38052" lon="0.15046">
        <ele>639.5</ele>
        <time>2017-07-02T10:27:32Z</time>
      </trkpt>
      <trkpt lat="42.38051" lon="0.15042">
        <ele>638.9</ele>
        <time>2017-07-02T10:27:37Z</time>
      </trkpt>
      <trkpt lat="42.38048" lon="0.15041">
        <ele>638.2</ele>
        <time>2017-07-02T10:27:44Z</time>
      </trkpt>
      <trkpt lat="42.38044" lon="0.15042">
        <ele>637.3</ele>
        <time>2017-07-02T10:27:55Z</time>
      </trkpt>
      <trkpt lat="42.38043" lon="0.15045">
        <ele>636.4</ele>
        <time>2017-07-02T10:28:03Z</time>
      </trkpt>
      <trkpt lat="42.3804" lon="0.15044">
        <ele>635.3</ele>
        <time>2017-07-02T10:28:26Z</time>
      </trkpt>
      <trkpt lat="42.38037" lon="0.15042">
        <ele>634.3</ele>
        <time>2017-07-02T10:28:31Z</time>
      </trkpt>
      <trkpt lat="42.38036" lon="0.15039">
        <ele>633.4</ele>
        <time>2017-07-02T10:28:37Z</time>
      </trkpt>
      <trkpt lat="42.38035" lon="0.15035">
        <ele>632.5</ele>
        <time>2017-07-02T10:28:42Z</time>
      </trkpt>
      <trkpt lat="42.38033" lon="0.15032">
        <ele>631.8</ele>
        <time>2017-07-02T10:28:46Z</time>
      </trkpt>
      <trkpt lat="42.38031" lon="0.15034">
        <ele>630.9</ele>
        <time>2017-07-02T10:28:54Z</time>
      </trkpt>
      <trkpt lat="42.3803" lon="0.15039">
        <ele>629.8</ele>
        <time>2017-07-02T10:28:56Z</time>
      </trkpt>
      <trkpt lat="42.3803" lon="0.15042">
        <ele>628.9</ele>
        <time>2017-07-02T10:28:57Z</time>
      </trkpt>
      <trkpt lat="42.3803" lon="0.15046">
        <ele>627.9</ele>
        <time>2017-07-02T10:28:58Z</time>
      </trkpt>
      <trkpt lat="42.38029" lon="0.1505">
        <ele>626.9</ele>
        <time>2017-07-02T10:28:59Z</time>
      </trkpt>
      <trkpt lat="42.38028" lon="0.15054">
        <ele>625.9</ele>
        <time>2017-07-02T10:29:00Z</time>
      </trkpt>
      <trkpt lat="42.38026" lon="0.15058">
        <ele>625</ele>
        <time>2017-07-02T10:29:01Z</time>
      </trkpt>
      <trkpt lat="42.38024" lon="0.15061">
        <ele>622.6</ele>
        <time>2017-07-02T10:29:02Z</time>
      </trkpt>
      <trkpt lat="42.38022" lon="0.15063">
        <ele>622.4</ele>
        <time>2017-07-02T10:29:03Z</time>
      </trkpt>
      <trkpt lat="42.38019" lon="0.15065">
        <ele>622.2</ele>
        <time>2017-07-02T10:29:04Z</time>
      </trkpt>
      <trkpt lat="42.38016" lon="0.15067">
        <ele>622.1</ele>
        <time>2017-07-02T10:29:05Z</time>
      </trkpt>
      <trkpt lat="42.38013" lon="0.15069">
        <ele>621.9</ele>
        <time>2017-07-02T10:29:06Z</time>
      </trkpt>
      <trkpt lat="42.38011" lon="0.15074">
        <ele>621.4</ele>
        <time>2017-07-02T10:29:08Z</time>
      </trkpt>
      <trkpt lat="42.38008" lon="0.1508">
        <ele>620.8</ele>
        <time>2017-07-02T10:29:10Z</time>
      </trkpt>
      <trkpt lat="42.38006" lon="0.15083">
        <ele>620.5</ele>
        <time>2017-07-02T10:29:11Z</time>
      </trkpt>
      <trkpt lat="42.38004" lon="0.15086">
        <ele>620.2</ele>
        <time>2017-07-02T10:29:12Z</time>
      </trkpt>
      <trkpt lat="42.38003" lon="0.15089">
        <ele>620</ele>
        <time>2017-07-02T10:29:13Z</time>
      </trkpt>
      <trkpt lat="42.38001" lon="0.15094">
        <ele>619.8</ele>
        <time>2017-07-02T10:29:15Z</time>
      </trkpt>
      <trkpt lat="42.37998" lon="0.15098">
        <ele>619.5</ele>
        <time>2017-07-02T10:29:17Z</time>
      </trkpt>
      <trkpt lat="42.37996" lon="0.15103">
        <ele>619</ele>
        <time>2017-07-02T10:29:19Z</time>
      </trkpt>
      <trkpt lat="42.37994" lon="0.15107">
        <ele>618.7</ele>
        <time>2017-07-02T10:29:20Z</time>
      </trkpt>
      <trkpt lat="42.37993" lon="0.1511">
        <ele>618.3</ele>
        <time>2017-07-02T10:29:21Z</time>
      </trkpt>
      <trkpt lat="42.37991" lon="0.15115">
        <ele>617.8</ele>
        <time>2017-07-02T10:29:23Z</time>
      </trkpt>
      <trkpt lat="42.37993" lon="0.15118">
        <ele>617.4</ele>
        <time>2017-07-02T10:29:31Z</time>
      </trkpt>
      <trkpt lat="42.37995" lon="0.15122">
        <ele>617</ele>
        <time>2017-07-02T10:29:36Z</time>
      </trkpt>
      <trkpt lat="42.37997" lon="0.15125">
        <ele>616.5</ele>
        <time>2017-07-02T10:29:42Z</time>
      </trkpt>
      <trkpt lat="42.37999" lon="0.15128">
        <ele>615.9</ele>
        <time>2017-07-02T10:29:51Z</time>
      </trkpt>
      <trkpt lat="42.38" lon="0.15131">
        <ele>615.3</ele>
        <time>2017-07-02T10:29:58Z</time>
      </trkpt>
      <trkpt lat="42.37998" lon="0.15133">
        <ele>614.6</ele>
        <time>2017-07-02T10:30:08Z</time>
      </trkpt>
      <trkpt lat="42.37995" lon="0.15135">
        <ele>613.7</ele>
        <time>2017-07-02T10:30:17Z</time>
      </trkpt>
      <trkpt lat="42.37992" lon="0.15138">
        <ele>612.6</ele>
        <time>2017-07-02T10:30:22Z</time>
      </trkpt>
      <trkpt lat="42.3799" lon="0.15141">
        <ele>610.1</ele>
        <time>2017-07-02T10:30:25Z</time>
      </trkpt>
      <trkpt lat="42.37989" lon="0.15147">
        <ele>609.2</ele>
        <time>2017-07-02T10:30:27Z</time>
      </trkpt>
      <trkpt lat="42.37989" lon="0.15152">
        <ele>608.3</ele>
        <time>2017-07-02T10:30:29Z</time>
      </trkpt>
      <trkpt lat="42.37991" lon="0.15156">
        <ele>608</ele>
        <time>2017-07-02T10:30:33Z</time>
      </trkpt>
      <trkpt lat="42.37991" lon="0.15161">
        <ele>607.8</ele>
        <time>2017-07-02T10:30:38Z</time>
      </trkpt>
      <trkpt lat="42.3799" lon="0.15164">
        <ele>607.5</ele>
        <time>2017-07-02T10:30:41Z</time>
      </trkpt>
      <trkpt lat="42.37989" lon="0.15169">
        <ele>607.3</ele>
        <time>2017-07-02T10:30:43Z</time>
      </trkpt>
      <trkpt lat="42.3799" lon="0.15173">
        <ele>606.9</ele>
        <time>2017-07-02T10:30:46Z</time>
      </trkpt>
      <trkpt lat="42.37991" lon="0.15177">
        <ele>606.5</ele>
        <time>2017-07-02T10:30:49Z</time>
      </trkpt>
      <trkpt lat="42.37991" lon="0.15183">
        <ele>606</ele>
        <time>2017-07-02T10:30:51Z</time>
      </trkpt>
      <trkpt lat="42.37989" lon="0.1519">
        <ele>605.3</ele>
        <time>2017-07-02T10:30:53Z</time>
      </trkpt>
      <trkpt lat="42.37988" lon="0.15196">
        <ele>604.7</ele>
        <time>2017-07-02T10:30:55Z</time>
      </trkpt>
      <trkpt lat="42.37988" lon="0.15202">
        <ele>604.2</ele>
        <time>2017-07-02T10:30:57Z</time>
      </trkpt>
      <trkpt lat="42.37987" lon="0.15208">
        <ele>603.7</ele>
        <time>2017-07-02T10:30:59Z</time>
      </trkpt>
      <trkpt lat="42.37986" lon="0.15213">
        <ele>603.3</ele>
        <time>2017-07-02T10:31:01Z</time>
      </trkpt>
      <trkpt lat="42.37985" lon="0.15219">
        <ele>603</ele>
        <time>2017-07-02T10:31:03Z</time>
      </trkpt>
      <trkpt lat="42.37986" lon="0.15226">
        <ele>602.9</ele>
        <time>2017-07-02T10:31:05Z</time>
      </trkpt>
      <trkpt lat="42.37986" lon="0.15231">
        <ele>602.7</ele>
        <time>2017-07-02T10:31:06Z</time>
      </trkpt>
      <trkpt lat="42.37986" lon="0.15235">
        <ele>602.6</ele>
        <time>2017-07-02T10:31:07Z</time>
      </trkpt>
      <trkpt lat="42.37985" lon="0.15238">
        <ele>602.3</ele>
        <time>2017-07-02T10:31:08Z</time>
      </trkpt>
      <trkpt lat="42.37984" lon="0.15242">
        <ele>602.2</ele>
        <time>2017-07-02T10:31:09Z</time>
      </trkpt>
      <trkpt lat="42.37982" lon="0.15245">
        <ele>602</ele>
        <time>2017-07-02T10:31:10Z</time>
      </trkpt>
      <trkpt lat="42.37979" lon="0.15248">
        <ele>601.6</ele>
        <time>2017-07-02T10:31:12Z</time>
      </trkpt>
      <trkpt lat="42.37975" lon="0.15249">
        <ele>601.2</ele>
        <time>2017-07-02T10:31:14Z</time>
      </trkpt>
      <trkpt lat="42.37971" lon="0.1525">
        <ele>600.6</ele>
        <time>2017-07-02T10:31:16Z</time>
      </trkpt>
      <trkpt lat="42.37967" lon="0.15253">
        <ele>600.1</ele>
        <time>2017-07-02T10:31:18Z</time>
      </trkpt>
      <trkpt lat="42.37963" lon="0.15258">
        <ele>599.3</ele>
        <time>2017-07-02T10:31:20Z</time>
      </trkpt>
      <trkpt lat="42.37961" lon="0.1526">
        <ele>598.8</ele>
        <time>2017-07-02T10:31:21Z</time>
      </trkpt>
      <trkpt lat="42.37958" lon="0.15262">
        <ele>598.2</ele>
        <time>2017-07-02T10:31:22Z</time>
      </trkpt>
      <trkpt lat="42.37954" lon="0.15264">
        <ele>597.2</ele>
        <time>2017-07-02T10:31:23Z</time>
      </trkpt>
      <trkpt lat="42.3795" lon="0.15266">
        <ele>595.8</ele>
        <time>2017-07-02T10:31:24Z</time>
      </trkpt>
      <trkpt lat="42.37947" lon="0.15268">
        <ele>595.5</ele>
        <time>2017-07-02T10:31:25Z</time>
      </trkpt>
      <trkpt lat="42.37944" lon="0.1527">
        <ele>595.3</ele>
        <time>2017-07-02T10:31:26Z</time>
      </trkpt>
      <trkpt lat="42.37942" lon="0.15272">
        <ele>595.1</ele>
        <time>2017-07-02T10:31:27Z</time>
      </trkpt>
      <trkpt lat="42.37939" lon="0.15277">
        <ele>594.6</ele>
        <time>2017-07-02T10:31:29Z</time>
      </trkpt>
      <trkpt lat="42.37937" lon="0.15281">
        <ele>594.2</ele>
        <time>2017-07-02T10:31:30Z</time>
      </trkpt>
      <trkpt lat="42.37936" lon="0.15285">
        <ele>593.8</ele>
        <time>2017-07-02T10:31:31Z</time>
      </trkpt>
      <trkpt lat="42.37934" lon="0.15289">
        <ele>593.4</ele>
        <time>2017-07-02T10:31:32Z</time>
      </trkpt>
      <trkpt lat="42.37933" lon="0.15293">
        <ele>593</ele>
        <time>2017-07-02T10:31:33Z</time>
      </trkpt>
      <trkpt lat="42.37931" lon="0.15296">
        <ele>592.6</ele>
        <time>2017-07-02T10:31:34Z</time>
      </trkpt>
      <trkpt lat="42.37929" lon="0.15299">
        <ele>592.2</ele>
        <time>2017-07-02T10:31:35Z</time>
      </trkpt>
      <trkpt lat="42.37929" lon="0.15305">
        <ele>591.6</ele>
        <time>2017-07-02T10:31:37Z</time>
      </trkpt>
      <trkpt lat="42.37932" lon="0.1531">
        <ele>590.8</ele>
        <time>2017-07-02T10:31:39Z</time>
      </trkpt>
      <trkpt lat="42.37934" lon="0.15313">
        <ele>590.4</ele>
        <time>2017-07-02T10:31:40Z</time>
      </trkpt>
      <trkpt lat="42.37936" lon="0.15318">
        <ele>589.9</ele>
        <time>2017-07-02T10:31:41Z</time>
      </trkpt>
      <trkpt lat="42.37938" lon="0.15323">
        <ele>589.3</ele>
        <time>2017-07-02T10:31:42Z</time>
      </trkpt>
      <trkpt lat="42.3794" lon="0.15327">
        <ele>588.7</ele>
        <time>2017-07-02T10:31:43Z</time>
      </trkpt>
      <trkpt lat="42.3794" lon="0.15332">
        <ele>588.2</ele>
        <time>2017-07-02T10:31:44Z</time>
      </trkpt>
      <trkpt lat="42.3794" lon="0.15336">
        <ele>587.7</ele>
        <time>2017-07-02T10:31:45Z</time>
      </trkpt>
      <trkpt lat="42.37938" lon="0.15339">
        <ele>587.2</ele>
        <time>2017-07-02T10:31:46Z</time>
      </trkpt>
      <trkpt lat="42.37937" lon="0.15343">
        <ele>586.7</ele>
        <time>2017-07-02T10:31:47Z</time>
      </trkpt>
      <trkpt lat="42.37934" lon="0.15346">
        <ele>586.1</ele>
        <time>2017-07-02T10:31:48Z</time>
      </trkpt>
      <trkpt lat="42.37931" lon="0.15349">
        <ele>585.4</ele>
        <time>2017-07-02T10:31:49Z</time>
      </trkpt>
      <trkpt lat="42.37928" lon="0.15352">
        <ele>584.8</ele>
        <time>2017-07-02T10:31:50Z</time>
      </trkpt>
      <trkpt lat="42.37925" lon="0.15353">
        <ele>584.3</ele>
        <time>2017-07-02T10:31:51Z</time>
      </trkpt>
      <trkpt lat="42.37922" lon="0.15355">
        <ele>583.8</ele>
        <time>2017-07-02T10:31:52Z</time>
      </trkpt>
      <trkpt lat="42.37919" lon="0.15357">
        <ele>583.3</ele>
        <time>2017-07-02T10:31:53Z</time>
      </trkpt>
      <trkpt lat="42.37917" lon="0.15359">
        <ele>583</ele>
        <time>2017-07-02T10:31:54Z</time>
      </trkpt>
      <trkpt lat="42.37916" lon="0.15364">
        <ele>582.5</ele>
        <time>2017-07-02T10:31:55Z</time>
      </trkpt>
      <trkpt lat="42.37915" lon="0.1537">
        <ele>581.9</ele>
        <time>2017-07-02T10:31:56Z</time>
      </trkpt>
      <trkpt lat="42.37915" lon="0.15376">
        <ele>581.4</ele>
        <time>2017-07-02T10:31:57Z</time>
      </trkpt>
      <trkpt lat="42.37914" lon="0.15382">
        <ele>580.9</ele>
        <time>2017-07-02T10:31:58Z</time>
      </trkpt>
      <trkpt lat="42.37912" lon="0.15387">
        <ele>580.3</ele>
        <time>2017-07-02T10:31:59Z</time>
      </trkpt>
      <trkpt lat="42.37909" lon="0.15391">
        <ele>579.7</ele>
        <time>2017-07-02T10:32:00Z</time>
      </trkpt>
      <trkpt lat="42.37905" lon="0.15393">
        <ele>578.9</ele>
        <time>2017-07-02T10:32:01Z</time>
      </trkpt>
      <trkpt lat="42.37901" lon="0.15392">
        <ele>578.1</ele>
        <time>2017-07-02T10:32:02Z</time>
      </trkpt>
      <trkpt lat="42.37898" lon="0.1539">
        <ele>577.4</ele>
        <time>2017-07-02T10:32:03Z</time>
      </trkpt>
      <trkpt lat="42.37895" lon="0.15387">
        <ele>576.7</ele>
        <time>2017-07-02T10:32:04Z</time>
      </trkpt>
      <trkpt lat="42.37892" lon="0.15384">
        <ele>576.2</ele>
        <time>2017-07-02T10:32:06Z</time>
      </trkpt>
      <trkpt lat="42.37889" lon="0.15381">
        <ele>575.9</ele>
        <time>2017-07-02T10:32:08Z</time>
      </trkpt>
      <trkpt lat="42.37887" lon="0.15378">
        <ele>575.6</ele>
        <time>2017-07-02T10:32:10Z</time>
      </trkpt>
      <trkpt lat="42.37884" lon="0.15376">
        <ele>575</ele>
        <time>2017-07-02T10:32:12Z</time>
      </trkpt>
      <trkpt lat="42.37882" lon="0.15375">
        <ele>574.4</ele>
        <time>2017-07-02T10:32:14Z</time>
      </trkpt>
      <trkpt lat="42.37879" lon="0.15372">
        <ele>573.9</ele>
        <time>2017-07-02T10:32:16Z</time>
      </trkpt>
      <trkpt lat="42.37876" lon="0.1537">
        <ele>573.1</ele>
        <time>2017-07-02T10:32:18Z</time>
      </trkpt>
      <trkpt lat="42.37872" lon="0.15368">
        <ele>572.3</ele>
        <time>2017-07-02T10:32:20Z</time>
      </trkpt>
      <trkpt lat="42.37868" lon="0.15366">
        <ele>571.4</ele>
        <time>2017-07-02T10:32:22Z</time>
      </trkpt>
      <trkpt lat="42.37863" lon="0.15362">
        <ele>570.2</ele>
        <time>2017-07-02T10:32:24Z</time>
      </trkpt>
      <trkpt lat="42.37859" lon="0.15361">
        <ele>569.3</ele>
        <time>2017-07-02T10:32:25Z</time>
      </trkpt>
      <trkpt lat="42.37854" lon="0.1536">
        <ele>568.3</ele>
        <time>2017-07-02T10:32:26Z</time>
      </trkpt>
      <trkpt lat="42.3785" lon="0.1536">
        <ele>567.2</ele>
        <time>2017-07-02T10:32:27Z</time>
      </trkpt>
      <trkpt lat="42.37846" lon="0.15361">
        <ele>566.2</ele>
        <time>2017-07-02T10:32:28Z</time>
      </trkpt>
      <trkpt lat="42.37841" lon="0.15363">
        <ele>565</ele>
        <time>2017-07-02T10:32:30Z</time>
      </trkpt>
      <trkpt lat="42.37837" lon="0.15363">
        <ele>564.2</ele>
        <time>2017-07-02T10:32:32Z</time>
      </trkpt>
      <trkpt lat="42.37833" lon="0.15362">
        <ele>563.4</ele>
        <time>2017-07-02T10:32:34Z</time>
      </trkpt>
      <trkpt lat="42.37828" lon="0.15361">
        <ele>562.5</ele>
        <time>2017-07-02T10:32:36Z</time>
      </trkpt>
      <trkpt lat="42.37825" lon="0.1536">
        <ele>561.9</ele>
        <time>2017-07-02T10:32:37Z</time>
      </trkpt>
      <trkpt lat="42.37822" lon="0.15359">
        <ele>561.4</ele>
        <time>2017-07-02T10:32:38Z</time>
      </trkpt>
      <trkpt lat="42.37819" lon="0.15358">
        <ele>560.8</ele>
        <time>2017-07-02T10:32:39Z</time>
      </trkpt>
      <trkpt lat="42.37816" lon="0.15355">
        <ele>560.2</ele>
        <time>2017-07-02T10:32:40Z</time>
      </trkpt>
      <trkpt lat="42.37813" lon="0.15353">
        <ele>559.6</ele>
        <time>2017-07-02T10:32:41Z</time>
      </trkpt>
      <trkpt lat="42.37808" lon="0.1535">
        <ele>558.6</ele>
        <time>2017-07-02T10:32:43Z</time>
      </trkpt>
      <trkpt lat="42.37806" lon="0.15348">
        <ele>558.1</ele>
        <time>2017-07-02T10:32:44Z</time>
      </trkpt>
      <trkpt lat="42.37804" lon="0.15345">
        <ele>557.6</ele>
        <time>2017-07-02T10:32:45Z</time>
      </trkpt>
      <trkpt lat="42.37803" lon="0.1534">
        <ele>557</ele>
        <time>2017-07-02T10:32:46Z</time>
      </trkpt>
      <trkpt lat="42.37802" lon="0.15336">
        <ele>556.5</ele>
        <time>2017-07-02T10:32:47Z</time>
      </trkpt>
      <trkpt lat="42.378" lon="0.15333">
        <ele>555.9</ele>
        <time>2017-07-02T10:32:48Z</time>
      </trkpt>
      <trkpt lat="42.37799" lon="0.1533">
        <ele>555.4</ele>
        <time>2017-07-02T10:32:49Z</time>
      </trkpt>
      <trkpt lat="42.37797" lon="0.15326">
        <ele>554.8</ele>
        <time>2017-07-02T10:32:50Z</time>
      </trkpt>
      <trkpt lat="42.37795" lon="0.15323">
        <ele>554.1</ele>
        <time>2017-07-02T10:32:51Z</time>
      </trkpt>
      <trkpt lat="42.37793" lon="0.15319">
        <ele>553.1</ele>
        <time>2017-07-02T10:32:52Z</time>
      </trkpt>
      <trkpt lat="42.37791" lon="0.15316">
        <ele>550.4</ele>
        <time>2017-07-02T10:32:54Z</time>
      </trkpt>
      <trkpt lat="42.37789" lon="0.15314">
        <ele>550</ele>
        <time>2017-07-02T10:32:57Z</time>
      </trkpt>
      <trkpt lat="42.37786" lon="0.15311">
        <ele>549.8</ele>
        <time>2017-07-02T10:33:02Z</time>
      </trkpt>
      <trkpt lat="42.37779" lon="0.15308">
        <ele>549.4</ele>
        <time>2017-07-02T10:33:30Z</time>
      </trkpt>
      <trkpt lat="42.37775" lon="0.15311">
        <ele>549.1</ele>
        <time>2017-07-02T10:33:32Z</time>
      </trkpt>
      <trkpt lat="42.37772" lon="0.15316">
        <ele>548.7</ele>
        <time>2017-07-02T10:33:34Z</time>
      </trkpt>
      <trkpt lat="42.37768" lon="0.15321">
        <ele>548.2</ele>
        <time>2017-07-02T10:33:36Z</time>
      </trkpt>
      <trkpt lat="42.37766" lon="0.15324">
        <ele>548</ele>
        <time>2017-07-02T10:33:37Z</time>
      </trkpt>
      <trkpt lat="42.37764" lon="0.15327">
        <ele>547.8</ele>
        <time>2017-07-02T10:33:38Z</time>
      </trkpt>
      <trkpt lat="42.37762" lon="0.15329">
        <ele>547.7</ele>
        <time>2017-07-02T10:33:39Z</time>
      </trkpt>
      <trkpt lat="42.37759" lon="0.15331">
        <ele>547.6</ele>
        <time>2017-07-02T10:33:40Z</time>
      </trkpt>
      <trkpt lat="42.37756" lon="0.15334">
        <ele>547.4</ele>
        <time>2017-07-02T10:33:41Z</time>
      </trkpt>
      <trkpt lat="42.37753" lon="0.15337">
        <ele>547.3</ele>
        <time>2017-07-02T10:33:42Z</time>
      </trkpt>
      <trkpt lat="42.37749" lon="0.15339">
        <ele>547.1</ele>
        <time>2017-07-02T10:33:43Z</time>
      </trkpt>
      <trkpt lat="42.37746" lon="0.15342">
        <ele>547</ele>
        <time>2017-07-02T10:33:44Z</time>
      </trkpt>
      <trkpt lat="42.37742" lon="0.15345">
        <ele>546.9</ele>
        <time>2017-07-02T10:33:45Z</time>
      </trkpt>
      <trkpt lat="42.37736" lon="0.15349">
        <ele>546.7</ele>
        <time>2017-07-02T10:33:46Z</time>
      </trkpt>
      <trkpt lat="42.37731" lon="0.15352">
        <ele>546.5</ele>
        <time>2017-07-02T10:33:47Z</time>
      </trkpt>
      <trkpt lat="42.37728" lon="0.15354">
        <ele>546.2</ele>
        <time>2017-07-02T10:33:48Z</time>
      </trkpt>
      <trkpt lat="42.37722" lon="0.15358">
        <ele>545.7</ele>
        <time>2017-07-02T10:33:50Z</time>
      </trkpt>
      <trkpt lat="42.37717" lon="0.15361">
        <ele>545.4</ele>
        <time>2017-07-02T10:33:51Z</time>
      </trkpt>
      <trkpt lat="42.37713" lon="0.15364">
        <ele>545.2</ele>
        <time>2017-07-02T10:33:52Z</time>
      </trkpt>
      <trkpt lat="42.37709" lon="0.15366">
        <ele>544.9</ele>
        <time>2017-07-02T10:33:53Z</time>
      </trkpt>
      <trkpt lat="42.37705" lon="0.15368">
        <ele>544.8</ele>
        <time>2017-07-02T10:33:54Z</time>
      </trkpt>
      <trkpt lat="42.37699" lon="0.15371">
        <ele>544.5</ele>
        <time>2017-07-02T10:33:55Z</time>
      </trkpt>
      <trkpt lat="42.37694" lon="0.15372">
        <ele>544.3</ele>
        <time>2017-07-02T10:33:56Z</time>
      </trkpt>
      <trkpt lat="42.3769" lon="0.15374">
        <ele>544</ele>
        <time>2017-07-02T10:33:57Z</time>
      </trkpt>
      <trkpt lat="42.37687" lon="0.15376">
        <ele>543.7</ele>
        <time>2017-07-02T10:33:58Z</time>
      </trkpt>
      <trkpt lat="42.37684" lon="0.15378">
        <ele>543.4</ele>
        <time>2017-07-02T10:34:00Z</time>
      </trkpt>
      <trkpt lat="42.3768" lon="0.1538">
        <ele>543.1</ele>
        <time>2017-07-02T10:34:02Z</time>
      </trkpt>
      <trkpt lat="42.37677" lon="0.15381">
        <ele>543</ele>
        <time>2017-07-02T10:34:04Z</time>
      </trkpt>
      <trkpt lat="42.37673" lon="0.1538">
        <ele>542.7</ele>
        <time>2017-07-02T10:34:07Z</time>
      </trkpt>
      <trkpt lat="42.37669" lon="0.15376">
        <ele>542.6</ele>
        <time>2017-07-02T10:34:09Z</time>
      </trkpt>
      <trkpt lat="42.37666" lon="0.1537">
        <ele>542.4</ele>
        <time>2017-07-02T10:34:11Z</time>
      </trkpt>
      <trkpt lat="42.37664" lon="0.15367">
        <ele>542.3</ele>
        <time>2017-07-02T10:34:12Z</time>
      </trkpt>
      <trkpt lat="42.37662" lon="0.15364">
        <ele>542.1</ele>
        <time>2017-07-02T10:34:13Z</time>
      </trkpt>
      <trkpt lat="42.3766" lon="0.15361">
        <ele>542</ele>
        <time>2017-07-02T10:34:14Z</time>
      </trkpt>
      <trkpt lat="42.37657" lon="0.15355">
        <ele>541.6</ele>
        <time>2017-07-02T10:34:16Z</time>
      </trkpt>
      <trkpt lat="42.37654" lon="0.1535">
        <ele>541.3</ele>
        <time>2017-07-02T10:34:18Z</time>
      </trkpt>
      <trkpt lat="42.37653" lon="0.15347">
        <ele>541.1</ele>
        <time>2017-07-02T10:34:19Z</time>
      </trkpt>
      <trkpt lat="42.37652" lon="0.15343">
        <ele>540.9</ele>
        <time>2017-07-02T10:34:20Z</time>
      </trkpt>
      <trkpt lat="42.37651" lon="0.15339">
        <ele>540.8</ele>
        <time>2017-07-02T10:34:21Z</time>
      </trkpt>
      <trkpt lat="42.37651" lon="0.15335">
        <ele>540.7</ele>
        <time>2017-07-02T10:34:22Z</time>
      </trkpt>
      <trkpt lat="42.37654" lon="0.15331">
        <ele>540.6</ele>
        <time>2017-07-02T10:34:23Z</time>
      </trkpt>
      <trkpt lat="42.37656" lon="0.15326">
        <ele>540.5</ele>
        <time>2017-07-02T10:34:25Z</time>
      </trkpt>
      <trkpt lat="42.37661" lon="0.15322">
        <ele>540.4</ele>
        <time>2017-07-02T10:34:27Z</time>
      </trkpt>
      <trkpt lat="42.37664" lon="0.15317">
        <ele>540.3</ele>
        <time>2017-07-02T10:34:29Z</time>
      </trkpt>
      <trkpt lat="42.37666" lon="0.15311">
        <ele>540.3</ele>
        <time>2017-07-02T10:34:31Z</time>
      </trkpt>
      <trkpt lat="42.37667" lon="0.15305">
        <ele>540.2</ele>
        <time>2017-07-02T10:34:33Z</time>
      </trkpt>
      <trkpt lat="42.37665" lon="0.15299">
        <ele>540.2</ele>
        <time>2017-07-02T10:34:35Z</time>
      </trkpt>
      <trkpt lat="42.37661" lon="0.15295">
        <ele>540.2</ele>
        <time>2017-07-02T10:34:37Z</time>
      </trkpt>
      <trkpt lat="42.37658" lon="0.15293">
        <ele>540.2</ele>
        <time>2017-07-02T10:34:39Z</time>
      </trkpt>
      <trkpt lat="42.37654" lon="0.15292">
        <ele>540.1</ele>
        <time>2017-07-02T10:34:41Z</time>
      </trkpt>
      <trkpt lat="42.37651" lon="0.15291">
        <ele>540.1</ele>
        <time>2017-07-02T10:34:43Z</time>
      </trkpt>
      <trkpt lat="42.37648" lon="0.1529">
        <ele>540.1</ele>
        <time>2017-07-02T10:34:45Z</time>
      </trkpt>
      <trkpt lat="42.37644" lon="0.15288">
        <ele>540.1</ele>
        <time>2017-07-02T10:34:47Z</time>
      </trkpt>
      <trkpt lat="42.37639" lon="0.15286">
        <ele>540.1</ele>
        <time>2017-07-02T10:34:49Z</time>
      </trkpt>
      <trkpt lat="42.37633" lon="0.15284">
        <ele>540</ele>
        <time>2017-07-02T10:34:51Z</time>
      </trkpt>
      <trkpt lat="42.37631" lon="0.15283">
        <ele>540</ele>
        <time>2017-07-02T10:34:52Z</time>
      </trkpt>
      <trkpt lat="42.37628" lon="0.15282">
        <ele>540</ele>
        <time>2017-07-02T10:34:53Z</time>
      </trkpt>
      <trkpt lat="42.37625" lon="0.15281">
        <ele>540</ele>
        <time>2017-07-02T10:34:54Z</time>
      </trkpt>
      <trkpt lat="42.3762" lon="0.1528">
        <ele>540</ele>
        <time>2017-07-02T10:34:56Z</time>
      </trkpt>
      <trkpt lat="42.37615" lon="0.15279">
        <ele>540</ele>
        <time>2017-07-02T10:34:58Z</time>
      </trkpt>
      <trkpt lat="42.37612" lon="0.15278">
        <ele>540</ele>
        <time>2017-07-02T10:34:59Z</time>
      </trkpt>
      <trkpt lat="42.37609" lon="0.15278">
        <ele>539.9</ele>
        <time>2017-07-02T10:35:00Z</time>
      </trkpt>
      <trkpt lat="42.37604" lon="0.15275">
        <ele>539.9</ele>
        <time>2017-07-02T10:35:02Z</time>
      </trkpt>
      <trkpt lat="42.37602" lon="0.15274">
        <ele>539.9</ele>
        <time>2017-07-02T10:35:03Z</time>
      </trkpt>
      <trkpt lat="42.37597" lon="0.15271">
        <ele>539.9</ele>
        <time>2017-07-02T10:35:05Z</time>
      </trkpt>
      <trkpt lat="42.37593" lon="0.15269">
        <ele>539.8</ele>
        <time>2017-07-02T10:35:07Z</time>
      </trkpt>
      <trkpt lat="42.37588" lon="0.15267">
        <ele>539.8</ele>
        <time>2017-07-02T10:35:09Z</time>
      </trkpt>
      <trkpt lat="42.37584" lon="0.15266">
        <ele>539.8</ele>
        <time>2017-07-02T10:35:11Z</time>
      </trkpt>
      <trkpt lat="42.3758" lon="0.15265">
        <ele>539.8</ele>
        <time>2017-07-02T10:35:12Z</time>
      </trkpt>
      <trkpt lat="42.37577" lon="0.15264">
        <ele>539.8</ele>
        <time>2017-07-02T10:35:13Z</time>
      </trkpt>
      <trkpt lat="42.37575" lon="0.15263">
        <ele>539.7</ele>
        <time>2017-07-02T10:35:14Z</time>
      </trkpt>
      <trkpt lat="42.37572" lon="0.15262">
        <ele>539.7</ele>
        <time>2017-07-02T10:35:15Z</time>
      </trkpt>
      <trkpt lat="42.37569" lon="0.1526">
        <ele>539.6</ele>
        <time>2017-07-02T10:35:16Z</time>
      </trkpt>
      <trkpt lat="42.37566" lon="0.15259">
        <ele>539.5</ele>
        <time>2017-07-02T10:35:17Z</time>
      </trkpt>
      <trkpt lat="42.37563" lon="0.15259">
        <ele>539.4</ele>
        <time>2017-07-02T10:35:18Z</time>
      </trkpt>
      <trkpt lat="42.3756" lon="0.15256">
        <ele>539.3</ele>
        <time>2017-07-02T10:35:21Z</time>
      </trkpt>
      <trkpt lat="42.37557" lon="0.15258">
        <ele>539.2</ele>
        <time>2017-07-02T10:35:25Z</time>
      </trkpt>
      <trkpt lat="42.37557" lon="0.15263">
        <ele>539</ele>
        <time>2017-07-02T10:35:26Z</time>
      </trkpt>
      <trkpt lat="42.37557" lon="0.15268">
        <ele>538.8</ele>
        <time>2017-07-02T10:35:27Z</time>
      </trkpt>
      <trkpt lat="42.37557" lon="0.15272">
        <ele>538.5</ele>
        <time>2017-07-02T10:35:28Z</time>
      </trkpt>
      <trkpt lat="42.37557" lon="0.15276">
        <ele>538.3</ele>
        <time>2017-07-02T10:35:29Z</time>
      </trkpt>
      <trkpt lat="42.37557" lon="0.1528">
        <ele>538</ele>
        <time>2017-07-02T10:35:30Z</time>
      </trkpt>
      <trkpt lat="42.37555" lon="0.15283">
        <ele>537.7</ele>
        <time>2017-07-02T10:35:31Z</time>
      </trkpt>
      <trkpt lat="42.37553" lon="0.15286">
        <ele>537.4</ele>
        <time>2017-07-02T10:35:32Z</time>
      </trkpt>
      <trkpt lat="42.3755" lon="0.15288">
        <ele>537</ele>
        <time>2017-07-02T10:35:33Z</time>
      </trkpt>
      <trkpt lat="42.37547" lon="0.1529">
        <ele>536.6</ele>
        <time>2017-07-02T10:35:34Z</time>
      </trkpt>
      <trkpt lat="42.37544" lon="0.1529">
        <ele>536</ele>
        <time>2017-07-02T10:35:35Z</time>
      </trkpt>
      <trkpt lat="42.37541" lon="0.1529">
        <ele>536</ele>
        <time>2017-07-02T10:35:36Z</time>
      </trkpt>
      <trkpt lat="42.37536" lon="0.15291">
        <ele>536</ele>
        <time>2017-07-02T10:35:37Z</time>
      </trkpt>
      <trkpt lat="42.37532" lon="0.15292">
        <ele>536</ele>
        <time>2017-07-02T10:35:38Z</time>
      </trkpt>
      <trkpt lat="42.37526" lon="0.15293">
        <ele>536</ele>
        <time>2017-07-02T10:35:39Z</time>
      </trkpt>
      <trkpt lat="42.37521" lon="0.15294">
        <ele>535.8</ele>
        <time>2017-07-02T10:35:40Z</time>
      </trkpt>
      <trkpt lat="42.37516" lon="0.15294">
        <ele>534.8</ele>
        <time>2017-07-02T10:35:41Z</time>
      </trkpt>
      <trkpt lat="42.37511" lon="0.15295">
        <ele>533.8</ele>
        <time>2017-07-02T10:35:42Z</time>
      </trkpt>
      <trkpt lat="42.37508" lon="0.15294">
        <ele>533</ele>
        <time>2017-07-02T10:35:43Z</time>
      </trkpt>
      <trkpt lat="42.37504" lon="0.15293">
        <ele>532.3</ele>
        <time>2017-07-02T10:35:45Z</time>
      </trkpt>
      <trkpt lat="42.37501" lon="0.15291">
        <ele>531.7</ele>
        <time>2017-07-02T10:35:46Z</time>
      </trkpt>
      <trkpt lat="42.37499" lon="0.15289">
        <ele>531</ele>
        <time>2017-07-02T10:35:47Z</time>
      </trkpt>
      <trkpt lat="42.37497" lon="0.15284">
        <ele>530.6</ele>
        <time>2017-07-02T10:35:48Z</time>
      </trkpt>
      <trkpt lat="42.37496" lon="0.15279">
        <ele>530.9</ele>
        <time>2017-07-02T10:35:49Z</time>
      </trkpt>
      <trkpt lat="42.37493" lon="0.15275">
        <ele>531.2</ele>
        <time>2017-07-02T10:35:50Z</time>
      </trkpt>
      <trkpt lat="42.37489" lon="0.1527">
        <ele>531.6</ele>
        <time>2017-07-02T10:35:51Z</time>
      </trkpt>
      <trkpt lat="42.37488" lon="0.15265">
        <ele>531.9</ele>
        <time>2017-07-02T10:35:52Z</time>
      </trkpt>
      <trkpt lat="42.37486" lon="0.15259">
        <ele>532.2</ele>
        <time>2017-07-02T10:35:53Z</time>
      </trkpt>
      <trkpt lat="42.37484" lon="0.15254">
        <ele>532.5</ele>
        <time>2017-07-02T10:35:54Z</time>
      </trkpt>
      <trkpt lat="42.37482" lon="0.15249">
        <ele>532.8</ele>
        <time>2017-07-02T10:35:55Z</time>
      </trkpt>
      <trkpt lat="42.3748" lon="0.15244">
        <ele>533.1</ele>
        <time>2017-07-02T10:35:56Z</time>
      </trkpt>
      <trkpt lat="42.37478" lon="0.15239">
        <ele>533.3</ele>
        <time>2017-07-02T10:35:57Z</time>
      </trkpt>
      <trkpt lat="42.37474" lon="0.15234">
        <ele>533.5</ele>
        <time>2017-07-02T10:35:58Z</time>
      </trkpt>
      <trkpt lat="42.37471" lon="0.15229">
        <ele>533.8</ele>
        <time>2017-07-02T10:35:59Z</time>
      </trkpt>
      <trkpt lat="42.37469" lon="0.15223">
        <ele>534</ele>
        <time>2017-07-02T10:36:00Z</time>
      </trkpt>
      <trkpt lat="42.37468" lon="0.15218">
        <ele>534.2</ele>
        <time>2017-07-02T10:36:01Z</time>
      </trkpt>
      <trkpt lat="42.37467" lon="0.15212">
        <ele>534.4</ele>
        <time>2017-07-02T10:36:02Z</time>
      </trkpt>
      <trkpt lat="42.37465" lon="0.15207">
        <ele>534.5</ele>
        <time>2017-07-02T10:36:03Z</time>
      </trkpt>
      <trkpt lat="42.37465" lon="0.15202">
        <ele>534.7</ele>
        <time>2017-07-02T10:36:04Z</time>
      </trkpt>
      <trkpt lat="42.37463" lon="0.15197">
        <ele>534.8</ele>
        <time>2017-07-02T10:36:05Z</time>
      </trkpt>
      <trkpt lat="42.37462" lon="0.15192">
        <ele>535</ele>
        <time>2017-07-02T10:36:06Z</time>
      </trkpt>
      <trkpt lat="42.37459" lon="0.15187">
        <ele>535.1</ele>
        <time>2017-07-02T10:36:07Z</time>
      </trkpt>
      <trkpt lat="42.37457" lon="0.1518">
        <ele>535.2</ele>
        <time>2017-07-02T10:36:08Z</time>
      </trkpt>
      <trkpt lat="42.37456" lon="0.15175">
        <ele>535.3</ele>
        <time>2017-07-02T10:36:09Z</time>
      </trkpt>
      <trkpt lat="42.37452" lon="0.15169">
        <ele>535.4</ele>
        <time>2017-07-02T10:36:10Z</time>
      </trkpt>
      <trkpt lat="42.37451" lon="0.15163">
        <ele>535.5</ele>
        <time>2017-07-02T10:36:11Z</time>
      </trkpt>
      <trkpt lat="42.37449" lon="0.15158">
        <ele>535.7</ele>
        <time>2017-07-02T10:36:12Z</time>
      </trkpt>
      <trkpt lat="42.37445" lon="0.15152">
        <ele>535.8</ele>
        <time>2017-07-02T10:36:13Z</time>
      </trkpt>
      <trkpt lat="42.37443" lon="0.15147">
        <ele>535.9</ele>
        <time>2017-07-02T10:36:14Z</time>
      </trkpt>
      <trkpt lat="42.37441" lon="0.15142">
        <ele>536</ele>
        <time>2017-07-02T10:36:15Z</time>
      </trkpt>
      <trkpt lat="42.37439" lon="0.15137">
        <ele>536</ele>
        <time>2017-07-02T10:36:16Z</time>
      </trkpt>
      <trkpt lat="42.37439" lon="0.15131">
        <ele>536</ele>
        <time>2017-07-02T10:36:17Z</time>
      </trkpt>
      <trkpt lat="42.37437" lon="0.15125">
        <ele>535.9</ele>
        <time>2017-07-02T10:36:18Z</time>
      </trkpt>
      <trkpt lat="42.37436" lon="0.15119">
        <ele>535.9</ele>
        <time>2017-07-02T10:36:19Z</time>
      </trkpt>
      <trkpt lat="42.37434" lon="0.15114">
        <ele>535.9</ele>
        <time>2017-07-02T10:36:20Z</time>
      </trkpt>
      <trkpt lat="42.37432" lon="0.15109">
        <ele>535.9</ele>
        <time>2017-07-02T10:36:21Z</time>
      </trkpt>
      <trkpt lat="42.3743" lon="0.15103">
        <ele>535.9</ele>
        <time>2017-07-02T10:36:22Z</time>
      </trkpt>
      <trkpt lat="42.37429" lon="0.15098">
        <ele>535.8</ele>
        <time>2017-07-02T10:36:23Z</time>
      </trkpt>
      <trkpt lat="42.37428" lon="0.15092">
        <ele>535.8</ele>
        <time>2017-07-02T10:36:24Z</time>
      </trkpt>
      <trkpt lat="42.37427" lon="0.15086">
        <ele>535.8</ele>
        <time>2017-07-02T10:36:25Z</time>
      </trkpt>
      <trkpt lat="42.37426" lon="0.15079">
        <ele>535.8</ele>
        <time>2017-07-02T10:36:26Z</time>
      </trkpt>
      <trkpt lat="42.37426" lon="0.15073">
        <ele>535.7</ele>
        <time>2017-07-02T10:36:27Z</time>
      </trkpt>
      <trkpt lat="42.37426" lon="0.15068">
        <ele>535.7</ele>
        <time>2017-07-02T10:36:28Z</time>
      </trkpt>
      <trkpt lat="42.37424" lon="0.15062">
        <ele>535.7</ele>
        <time>2017-07-02T10:36:29Z</time>
      </trkpt>
      <trkpt lat="42.37424" lon="0.15055">
        <ele>535.7</ele>
        <time>2017-07-02T10:36:30Z</time>
      </trkpt>
      <trkpt lat="42.37424" lon="0.15049">
        <ele>535.7</ele>
        <time>2017-07-02T10:36:31Z</time>
      </trkpt>
      <trkpt lat="42.37424" lon="0.15044">
        <ele>535.6</ele>
        <time>2017-07-02T10:36:32Z</time>
      </trkpt>
      <trkpt lat="42.37427" lon="0.15036">
        <ele>535.6</ele>
        <time>2017-07-02T10:36:33Z</time>
      </trkpt>
      <trkpt lat="42.37427" lon="0.15031">
        <ele>535.6</ele>
        <time>2017-07-02T10:36:34Z</time>
      </trkpt>
      <trkpt lat="42.37425" lon="0.15025">
        <ele>535.6</ele>
        <time>2017-07-02T10:36:35Z</time>
      </trkpt>
      <trkpt lat="42.37426" lon="0.15019">
        <ele>535.6</ele>
        <time>2017-07-02T10:36:36Z</time>
      </trkpt>
      <trkpt lat="42.37425" lon="0.15012">
        <ele>535.5</ele>
        <time>2017-07-02T10:36:37Z</time>
      </trkpt>
      <trkpt lat="42.37424" lon="0.15006">
        <ele>535.5</ele>
        <time>2017-07-02T10:36:38Z</time>
      </trkpt>
      <trkpt lat="42.37425" lon="0.15">
        <ele>535.5</ele>
        <time>2017-07-02T10:36:39Z</time>
      </trkpt>
      <trkpt lat="42.37426" lon="0.14994">
        <ele>535.5</ele>
        <time>2017-07-02T10:36:40Z</time>
      </trkpt>
      <trkpt lat="42.37426" lon="0.14987">
        <ele>535.5</ele>
        <time>2017-07-02T10:36:41Z</time>
      </trkpt>
      <trkpt lat="42.37427" lon="0.14979">
        <ele>535.4</ele>
        <time>2017-07-02T10:36:42Z</time>
      </trkpt>
      <trkpt lat="42.37428" lon="0.14972">
        <ele>535.4</ele>
        <time>2017-07-02T10:36:43Z</time>
      </trkpt>
      <trkpt lat="42.37431" lon="0.14966">
        <ele>535.4</ele>
        <time>2017-07-02T10:36:44Z</time>
      </trkpt>
      <trkpt lat="42.37432" lon="0.1496">
        <ele>535.4</ele>
        <time>2017-07-02T10:36:45Z</time>
      </trkpt>
      <trkpt lat="42.37433" lon="0.14954">
        <ele>535.4</ele>
        <time>2017-07-02T10:36:46Z</time>
      </trkpt>
      <trkpt lat="42.37434" lon="0.14948">
        <ele>535.4</ele>
        <time>2017-07-02T10:36:47Z</time>
      </trkpt>
      <trkpt lat="42.37436" lon="0.14942">
        <ele>535.4</ele>
        <time>2017-07-02T10:36:48Z</time>
      </trkpt>
      <trkpt lat="42.37439" lon="0.14937">
        <ele>535.4</ele>
        <time>2017-07-02T10:36:49Z</time>
      </trkpt>
      <trkpt lat="42.37441" lon="0.14931">
        <ele>535.4</ele>
        <time>2017-07-02T10:36:50Z</time>
      </trkpt>
      <trkpt lat="42.37442" lon="0.14925">
        <ele>535.4</ele>
        <time>2017-07-02T10:36:51Z</time>
      </trkpt>
      <trkpt lat="42.37444" lon="0.14919">
        <ele>535.4</ele>
        <time>2017-07-02T10:36:52Z</time>
      </trkpt>
      <trkpt lat="42.37446" lon="0.14914">
        <ele>535.4</ele>
        <time>2017-07-02T10:36:53Z</time>
      </trkpt>
      <trkpt lat="42.37448" lon="0.14908">
        <ele>535.5</ele>
        <time>2017-07-02T10:36:54Z</time>
      </trkpt>
      <trkpt lat="42.3745" lon="0.14902">
        <ele>535.5</ele>
        <time>2017-07-02T10:36:55Z</time>
      </trkpt>
      <trkpt lat="42.37452" lon="0.14897">
        <ele>535.7</ele>
        <time>2017-07-02T10:36:56Z</time>
      </trkpt>
      <trkpt lat="42.37455" lon="0.14892">
        <ele>535.9</ele>
        <time>2017-07-02T10:36:57Z</time>
      </trkpt>
      <trkpt lat="42.37456" lon="0.14886">
        <ele>536</ele>
        <time>2017-07-02T10:36:58Z</time>
      </trkpt>
      <trkpt lat="42.37459" lon="0.1488">
        <ele>536.2</ele>
        <time>2017-07-02T10:36:59Z</time>
      </trkpt>
      <trkpt lat="42.37461" lon="0.14875">
        <ele>536.2</ele>
        <time>2017-07-02T10:37:00Z</time>
      </trkpt>
      <trkpt lat="42.37463" lon="0.1487">
        <ele>536.2</ele>
        <time>2017-07-02T10:37:01Z</time>
      </trkpt>
      <trkpt lat="42.37466" lon="0.14864">
        <ele>536.2</ele>
        <time>2017-07-02T10:37:02Z</time>
      </trkpt>
      <trkpt lat="42.37468" lon="0.14858">
        <ele>536.2</ele>
        <time>2017-07-02T10:37:03Z</time>
      </trkpt>
      <trkpt lat="42.37471" lon="0.14853">
        <ele>536.3</ele>
        <time>2017-07-02T10:37:04Z</time>
      </trkpt>
      <trkpt lat="42.37472" lon="0.14847">
        <ele>536.3</ele>
        <time>2017-07-02T10:37:05Z</time>
      </trkpt>
      <trkpt lat="42.37474" lon="0.14842">
        <ele>536.3</ele>
        <time>2017-07-02T10:37:06Z</time>
      </trkpt>
      <trkpt lat="42.37475" lon="0.14838">
        <ele>536.3</ele>
        <time>2017-07-02T10:37:07Z</time>
      </trkpt>
      <trkpt lat="42.37478" lon="0.14829">
        <ele>536.2</ele>
        <time>2017-07-02T10:37:09Z</time>
      </trkpt>
      <trkpt lat="42.3748" lon="0.14824">
        <ele>536.2</ele>
        <time>2017-07-02T10:37:10Z</time>
      </trkpt>
      <trkpt lat="42.37482" lon="0.14819">
        <ele>536.2</ele>
        <time>2017-07-02T10:37:11Z</time>
      </trkpt>
      <trkpt lat="42.37484" lon="0.14814">
        <ele>536.2</ele>
        <time>2017-07-02T10:37:12Z</time>
      </trkpt>
      <trkpt lat="42.37486" lon="0.1481">
        <ele>536.2</ele>
        <time>2017-07-02T10:37:13Z</time>
      </trkpt>
      <trkpt lat="42.37487" lon="0.14805">
        <ele>536.4</ele>
        <time>2017-07-02T10:37:14Z</time>
      </trkpt>
      <trkpt lat="42.37489" lon="0.148">
        <ele>536.6</ele>
        <time>2017-07-02T10:37:15Z</time>
      </trkpt>
      <trkpt lat="42.3749" lon="0.14796">
        <ele>537</ele>
        <time>2017-07-02T10:37:16Z</time>
      </trkpt>
      <trkpt lat="42.37492" lon="0.14793">
        <ele>537.4</ele>
        <time>2017-07-02T10:37:17Z</time>
      </trkpt>
      <trkpt lat="42.37495" lon="0.1479">
        <ele>537.9</ele>
        <time>2017-07-02T10:37:18Z</time>
      </trkpt>
      <trkpt lat="42.37498" lon="0.14789">
        <ele>538.3</ele>
        <time>2017-07-02T10:37:19Z</time>
      </trkpt>
      <trkpt lat="42.37501" lon="0.1479">
        <ele>538.6</ele>
        <time>2017-07-02T10:37:20Z</time>
      </trkpt>
      <trkpt lat="42.37505" lon="0.14792">
        <ele>539</ele>
        <time>2017-07-02T10:37:21Z</time>
      </trkpt>
      <trkpt lat="42.37507" lon="0.14795">
        <ele>539.5</ele>
        <time>2017-07-02T10:37:22Z</time>
      </trkpt>
      <trkpt lat="42.3751" lon="0.14798">
        <ele>539.9</ele>
        <time>2017-07-02T10:37:23Z</time>
      </trkpt>
      <trkpt lat="42.37512" lon="0.14803">
        <ele>540.4</ele>
        <time>2017-07-02T10:37:25Z</time>
      </trkpt>
      <trkpt lat="42.37514" lon="0.14808">
        <ele>540.6</ele>
        <time>2017-07-02T10:37:27Z</time>
      </trkpt>
      <trkpt lat="42.37518" lon="0.14813">
        <ele>540.9</ele>
        <time>2017-07-02T10:37:29Z</time>
      </trkpt>
      <trkpt lat="42.37522" lon="0.14816">
        <ele>541.1</ele>
        <time>2017-07-02T10:37:31Z</time>
      </trkpt>
      <trkpt lat="42.37526" lon="0.1482">
        <ele>541.6</ele>
        <time>2017-07-02T10:37:33Z</time>
      </trkpt>
      <trkpt lat="42.37527" lon="0.14827">
        <ele>542.1</ele>
        <time>2017-07-02T10:37:35Z</time>
      </trkpt>
      <trkpt lat="42.37525" lon="0.14835">
        <ele>542.4</ele>
        <time>2017-07-02T10:37:37Z</time>
      </trkpt>
      <trkpt lat="42.37523" lon="0.14839">
        <ele>542.5</ele>
        <time>2017-07-02T10:37:38Z</time>
      </trkpt>
      <trkpt lat="42.37521" lon="0.14843">
        <ele>542.7</ele>
        <time>2017-07-02T10:37:39Z</time>
      </trkpt>
      <trkpt lat="42.3752" lon="0.14846">
        <ele>542.9</ele>
        <time>2017-07-02T10:37:40Z</time>
      </trkpt>
      <trkpt lat="42.37519" lon="0.14849">
        <ele>543</ele>
        <time>2017-07-02T10:37:41Z</time>
      </trkpt>
      <trkpt lat="42.37516" lon="0.14854">
        <ele>543.2</ele>
        <time>2017-07-02T10:37:43Z</time>
      </trkpt>
      <trkpt lat="42.37513" lon="0.1486">
        <ele>543.3</ele>
        <time>2017-07-02T10:37:45Z</time>
      </trkpt>
      <trkpt lat="42.37511" lon="0.14863">
        <ele>543.4</ele>
        <time>2017-07-02T10:37:46Z</time>
      </trkpt>
      <trkpt lat="42.37509" lon="0.14868">
        <ele>543.7</ele>
        <time>2017-07-02T10:37:48Z</time>
      </trkpt>
      <trkpt lat="42.37506" lon="0.14871">
        <ele>544</ele>
        <time>2017-07-02T10:37:50Z</time>
      </trkpt>
      <trkpt lat="42.37503" lon="0.14875">
        <ele>544.5</ele>
        <time>2017-07-02T10:37:52Z</time>
      </trkpt>
      <trkpt lat="42.375" lon="0.14877">
        <ele>544.9</ele>
        <time>2017-07-02T10:37:55Z</time>
      </trkpt>
      <trkpt lat="42.37497" lon="0.14879">
        <ele>545</ele>
        <time>2017-07-02T10:37:58Z</time>
      </trkpt>
      <trkpt lat="42.37496" lon="0.14885">
        <ele>545.2</ele>
        <time>2017-07-02T10:38:01Z</time>
      </trkpt>
      <trkpt lat="42.37495" lon="0.1489">
        <ele>545.4</ele>
        <time>2017-07-02T10:38:03Z</time>
      </trkpt>
      <trkpt lat="42.37494" lon="0.14894">
        <ele>545.6</ele>
        <time>2017-07-02T10:38:05Z</time>
      </trkpt>
      <trkpt lat="42.37491" lon="0.14899">
        <ele>545.8</ele>
        <time>2017-07-02T10:38:07Z</time>
      </trkpt>
      <trkpt lat="42.37488" lon="0.14903">
        <ele>546.2</ele>
        <time>2017-07-02T10:38:09Z</time>
      </trkpt>
      <trkpt lat="42.37485" lon="0.14907">
        <ele>546.7</ele>
        <time>2017-07-02T10:38:11Z</time>
      </trkpt>
      <trkpt lat="42.37483" lon="0.14912">
        <ele>547.1</ele>
        <time>2017-07-02T10:38:13Z</time>
      </trkpt>
      <trkpt lat="42.37481" lon="0.14917">
        <ele>547.4</ele>
        <time>2017-07-02T10:38:15Z</time>
      </trkpt>
      <trkpt lat="42.37478" lon="0.14922">
        <ele>547.6</ele>
        <time>2017-07-02T10:38:17Z</time>
      </trkpt>
      <trkpt lat="42.37476" lon="0.14927">
        <ele>548</ele>
        <time>2017-07-02T10:38:19Z</time>
      </trkpt>
      <trkpt lat="42.37473" lon="0.14932">
        <ele>548.8</ele>
        <time>2017-07-02T10:38:21Z</time>
      </trkpt>
      <trkpt lat="42.37471" lon="0.14937">
        <ele>549.3</ele>
        <time>2017-07-02T10:38:23Z</time>
      </trkpt>
      <trkpt lat="42.37468" lon="0.14942">
        <ele>549.7</ele>
        <time>2017-07-02T10:38:25Z</time>
      </trkpt>
      <trkpt lat="42.37465" lon="0.14947">
        <ele>550</ele>
        <time>2017-07-02T10:38:27Z</time>
      </trkpt>
      <trkpt lat="42.37463" lon="0.14952">
        <ele>550.3</ele>
        <time>2017-07-02T10:38:29Z</time>
      </trkpt>
      <trkpt lat="42.3746" lon="0.14957">
        <ele>550.9</ele>
        <time>2017-07-02T10:38:31Z</time>
      </trkpt>
      <trkpt lat="42.37459" lon="0.14963">
        <ele>551.4</ele>
        <time>2017-07-02T10:38:33Z</time>
      </trkpt>
      <trkpt lat="42.37458" lon="0.14968">
        <ele>551.7</ele>
        <time>2017-07-02T10:38:35Z</time>
      </trkpt>
      <trkpt lat="42.37457" lon="0.14974">
        <ele>551.9</ele>
        <time>2017-07-02T10:38:37Z</time>
      </trkpt>
      <trkpt lat="42.37456" lon="0.14979">
        <ele>552.3</ele>
        <time>2017-07-02T10:38:39Z</time>
      </trkpt>
      <trkpt lat="42.37455" lon="0.14984">
        <ele>552.8</ele>
        <time>2017-07-02T10:38:41Z</time>
      </trkpt>
      <trkpt lat="42.37455" lon="0.14989">
        <ele>553.4</ele>
        <time>2017-07-02T10:38:43Z</time>
      </trkpt>
      <trkpt lat="42.37455" lon="0.14994">
        <ele>553.8</ele>
        <time>2017-07-02T10:38:45Z</time>
      </trkpt>
      <trkpt lat="42.37456" lon="0.14999">
        <ele>554</ele>
        <time>2017-07-02T10:38:47Z</time>
      </trkpt>
      <trkpt lat="42.37456" lon="0.15003">
        <ele>554.3</ele>
        <time>2017-07-02T10:38:49Z</time>
      </trkpt>
      <trkpt lat="42.37458" lon="0.15008">
        <ele>554.9</ele>
        <time>2017-07-02T10:38:51Z</time>
      </trkpt>
      <trkpt lat="42.37459" lon="0.15013">
        <ele>555.5</ele>
        <time>2017-07-02T10:38:53Z</time>
      </trkpt>
      <trkpt lat="42.37461" lon="0.15017">
        <ele>555.8</ele>
        <time>2017-07-02T10:38:55Z</time>
      </trkpt>
      <trkpt lat="42.37463" lon="0.15021">
        <ele>556.2</ele>
        <time>2017-07-02T10:38:57Z</time>
      </trkpt>
      <trkpt lat="42.37465" lon="0.15026">
        <ele>556.4</ele>
        <time>2017-07-02T10:38:59Z</time>
      </trkpt>
      <trkpt lat="42.37467" lon="0.15029">
        <ele>556.6</ele>
        <time>2017-07-02T10:39:01Z</time>
      </trkpt>
      <trkpt lat="42.37468" lon="0.15033">
        <ele>556.7</ele>
        <time>2017-07-02T10:39:03Z</time>
      </trkpt>
      <trkpt lat="42.3747" lon="0.15036">
        <ele>556.9</ele>
        <time>2017-07-02T10:39:05Z</time>
      </trkpt>
      <trkpt lat="42.37473" lon="0.15039">
        <ele>557.4</ele>
        <time>2017-07-02T10:39:07Z</time>
      </trkpt>
      <trkpt lat="42.37475" lon="0.15042">
        <ele>557.8</ele>
        <time>2017-07-02T10:39:09Z</time>
      </trkpt>
      <trkpt lat="42.37478" lon="0.15044">
        <ele>558</ele>
        <time>2017-07-02T10:39:11Z</time>
      </trkpt>
      <trkpt lat="42.37481" lon="0.15045">
        <ele>558.3</ele>
        <time>2017-07-02T10:39:13Z</time>
      </trkpt>
      <trkpt lat="42.37484" lon="0.15046">
        <ele>558.5</ele>
        <time>2017-07-02T10:39:15Z</time>
      </trkpt>
      <trkpt lat="42.37487" lon="0.15047">
        <ele>558.8</ele>
        <time>2017-07-02T10:39:17Z</time>
      </trkpt>
      <trkpt lat="42.3749" lon="0.15048">
        <ele>559.2</ele>
        <time>2017-07-02T10:39:19Z</time>
      </trkpt>
      <trkpt lat="42.37494" lon="0.15049">
        <ele>559.8</ele>
        <time>2017-07-02T10:39:21Z</time>
      </trkpt>
      <trkpt lat="42.37498" lon="0.15049">
        <ele>560.3</ele>
        <time>2017-07-02T10:39:23Z</time>
      </trkpt>
      <trkpt lat="42.37501" lon="0.15048">
        <ele>560.5</ele>
        <time>2017-07-02T10:39:25Z</time>
      </trkpt>
      <trkpt lat="42.37505" lon="0.15047">
        <ele>560.8</ele>
        <time>2017-07-02T10:39:27Z</time>
      </trkpt>
      <trkpt lat="42.37509" lon="0.15047">
        <ele>561.4</ele>
        <time>2017-07-02T10:39:29Z</time>
      </trkpt>
      <trkpt lat="42.37513" lon="0.15048">
        <ele>562.1</ele>
        <time>2017-07-02T10:39:31Z</time>
      </trkpt>
      <trkpt lat="42.37516" lon="0.15048">
        <ele>562.6</ele>
        <time>2017-07-02T10:39:33Z</time>
      </trkpt>
      <trkpt lat="42.37519" lon="0.15049">
        <ele>562.8</ele>
        <time>2017-07-02T10:39:35Z</time>
      </trkpt>
      <trkpt lat="42.37523" lon="0.1505">
        <ele>563.1</ele>
        <time>2017-07-02T10:39:37Z</time>
      </trkpt>
      <trkpt lat="42.37526" lon="0.15051">
        <ele>563.3</ele>
        <time>2017-07-02T10:39:39Z</time>
      </trkpt>
      <trkpt lat="42.3753" lon="0.15051">
        <ele>563.5</ele>
        <time>2017-07-02T10:39:41Z</time>
      </trkpt>
      <trkpt lat="42.37533" lon="0.15053">
        <ele>563.7</ele>
        <time>2017-07-02T10:39:43Z</time>
      </trkpt>
      <trkpt lat="42.37536" lon="0.15055">
        <ele>564.3</ele>
        <time>2017-07-02T10:39:45Z</time>
      </trkpt>
      <trkpt lat="42.3754" lon="0.15056">
        <ele>564.8</ele>
        <time>2017-07-02T10:39:47Z</time>
      </trkpt>
      <trkpt lat="42.37544" lon="0.15057">
        <ele>565.2</ele>
        <time>2017-07-02T10:39:49Z</time>
      </trkpt>
      <trkpt lat="42.37547" lon="0.15058">
        <ele>565.4</ele>
        <time>2017-07-02T10:39:51Z</time>
      </trkpt>
      <trkpt lat="42.37551" lon="0.15059">
        <ele>565.8</ele>
        <time>2017-07-02T10:39:53Z</time>
      </trkpt>
      <trkpt lat="42.37555" lon="0.15059">
        <ele>566.2</ele>
        <time>2017-07-02T10:39:55Z</time>
      </trkpt>
      <trkpt lat="42.37558" lon="0.15059">
        <ele>566.7</ele>
        <time>2017-07-02T10:39:57Z</time>
      </trkpt>
      <trkpt lat="42.37562" lon="0.1506">
        <ele>567.1</ele>
        <time>2017-07-02T10:39:59Z</time>
      </trkpt>
      <trkpt lat="42.37565" lon="0.15061">
        <ele>567.4</ele>
        <time>2017-07-02T10:40:01Z</time>
      </trkpt>
      <trkpt lat="42.37569" lon="0.15063">
        <ele>567.6</ele>
        <time>2017-07-02T10:40:03Z</time>
      </trkpt>
      <trkpt lat="42.37572" lon="0.15065">
        <ele>567.8</ele>
        <time>2017-07-02T10:40:05Z</time>
      </trkpt>
      <trkpt lat="42.37575" lon="0.15067">
        <ele>568.2</ele>
        <time>2017-07-02T10:40:07Z</time>
      </trkpt>
      <trkpt lat="42.37578" lon="0.1507">
        <ele>568.8</ele>
        <time>2017-07-02T10:40:09Z</time>
      </trkpt>
      <trkpt lat="42.37582" lon="0.15072">
        <ele>569.2</ele>
        <time>2017-07-02T10:40:11Z</time>
      </trkpt>
      <trkpt lat="42.37585" lon="0.15074">
        <ele>569.5</ele>
        <time>2017-07-02T10:40:13Z</time>
      </trkpt>
      <trkpt lat="42.37589" lon="0.15076">
        <ele>569.8</ele>
        <time>2017-07-02T10:40:15Z</time>
      </trkpt>
      <trkpt lat="42.37593" lon="0.15078">
        <ele>570.1</ele>
        <time>2017-07-02T10:40:17Z</time>
      </trkpt>
      <trkpt lat="42.37596" lon="0.1508">
        <ele>570.6</ele>
        <time>2017-07-02T10:40:19Z</time>
      </trkpt>
      <trkpt lat="42.37599" lon="0.15082">
        <ele>571.2</ele>
        <time>2017-07-02T10:40:21Z</time>
      </trkpt>
      <trkpt lat="42.37602" lon="0.15085">
        <ele>571.5</ele>
        <time>2017-07-02T10:40:23Z</time>
      </trkpt>
      <trkpt lat="42.37604" lon="0.15087">
        <ele>571.7</ele>
        <time>2017-07-02T10:40:25Z</time>
      </trkpt>
      <trkpt lat="42.37607" lon="0.15089">
        <ele>572</ele>
        <time>2017-07-02T10:40:27Z</time>
      </trkpt>
      <trkpt lat="42.3761" lon="0.1509">
        <ele>572.4</ele>
        <time>2017-07-02T10:40:29Z</time>
      </trkpt>
      <trkpt lat="42.37614" lon="0.15091">
        <ele>572.9</ele>
        <time>2017-07-02T10:40:31Z</time>
      </trkpt>
      <trkpt lat="42.37618" lon="0.15092">
        <ele>573.5</ele>
        <time>2017-07-02T10:40:33Z</time>
      </trkpt>
      <trkpt lat="42.37622" lon="0.15092">
        <ele>573.9</ele>
        <time>2017-07-02T10:40:35Z</time>
      </trkpt>
      <trkpt lat="42.37625" lon="0.15092">
        <ele>574.2</ele>
        <time>2017-07-02T10:40:37Z</time>
      </trkpt>
      <trkpt lat="42.37629" lon="0.15093">
        <ele>574.6</ele>
        <time>2017-07-02T10:40:39Z</time>
      </trkpt>
      <trkpt lat="42.37632" lon="0.15093">
        <ele>575.1</ele>
        <time>2017-07-02T10:40:41Z</time>
      </trkpt>
      <trkpt lat="42.37635" lon="0.15093">
        <ele>575.6</ele>
        <time>2017-07-02T10:40:43Z</time>
      </trkpt>
      <trkpt lat="42.37639" lon="0.15094">
        <ele>576</ele>
        <time>2017-07-02T10:40:45Z</time>
      </trkpt>
      <trkpt lat="42.37642" lon="0.15095">
        <ele>576.5</ele>
        <time>2017-07-02T10:40:47Z</time>
      </trkpt>
      <trkpt lat="42.37646" lon="0.15096">
        <ele>576.8</ele>
        <time>2017-07-02T10:40:49Z</time>
      </trkpt>
      <trkpt lat="42.3765" lon="0.15096">
        <ele>577.4</ele>
        <time>2017-07-02T10:40:51Z</time>
      </trkpt>
      <trkpt lat="42.37653" lon="0.15097">
        <ele>578</ele>
        <time>2017-07-02T10:40:53Z</time>
      </trkpt>
      <trkpt lat="42.37657" lon="0.15099">
        <ele>578.3</ele>
        <time>2017-07-02T10:40:55Z</time>
      </trkpt>
      <trkpt lat="42.3766" lon="0.15099">
        <ele>578.5</ele>
        <time>2017-07-02T10:40:57Z</time>
      </trkpt>
      <trkpt lat="42.37663" lon="0.151">
        <ele>578.7</ele>
        <time>2017-07-02T10:40:59Z</time>
      </trkpt>
      <trkpt lat="42.37667" lon="0.15101">
        <ele>579</ele>
        <time>2017-07-02T10:41:01Z</time>
      </trkpt>
      <trkpt lat="42.3767" lon="0.151">
        <ele>579.4</ele>
        <time>2017-07-02T10:41:03Z</time>
      </trkpt>
      <trkpt lat="42.37673" lon="0.151">
        <ele>579.9</ele>
        <time>2017-07-02T10:41:05Z</time>
      </trkpt>
      <trkpt lat="42.37676" lon="0.15098">
        <ele>580.4</ele>
        <time>2017-07-02T10:41:07Z</time>
      </trkpt>
      <trkpt lat="42.37679" lon="0.15097">
        <ele>580.6</ele>
        <time>2017-07-02T10:41:09Z</time>
      </trkpt>
      <trkpt lat="42.37682" lon="0.15095">
        <ele>580.8</ele>
        <time>2017-07-02T10:41:11Z</time>
      </trkpt>
      <trkpt lat="42.37685" lon="0.15092">
        <ele>581.1</ele>
        <time>2017-07-02T10:41:13Z</time>
      </trkpt>
      <trkpt lat="42.37687" lon="0.15089">
        <ele>581.4</ele>
        <time>2017-07-02T10:41:15Z</time>
      </trkpt>
      <trkpt lat="42.3769" lon="0.15086">
        <ele>582</ele>
        <time>2017-07-02T10:41:17Z</time>
      </trkpt>
      <trkpt lat="42.37693" lon="0.15084">
        <ele>582.5</ele>
        <time>2017-07-02T10:41:19Z</time>
      </trkpt>
      <trkpt lat="42.37696" lon="0.15082">
        <ele>583</ele>
        <time>2017-07-02T10:41:21Z</time>
      </trkpt>
      <trkpt lat="42.37699" lon="0.15079">
        <ele>583.2</ele>
        <time>2017-07-02T10:41:23Z</time>
      </trkpt>
      <trkpt lat="42.37701" lon="0.15075">
        <ele>583.4</ele>
        <time>2017-07-02T10:41:25Z</time>
      </trkpt>
      <trkpt lat="42.37704" lon="0.15072">
        <ele>583.6</ele>
        <time>2017-07-02T10:41:27Z</time>
      </trkpt>
      <trkpt lat="42.37707" lon="0.1507">
        <ele>583.8</ele>
        <time>2017-07-02T10:41:29Z</time>
      </trkpt>
      <trkpt lat="42.37709" lon="0.15067">
        <ele>584.1</ele>
        <time>2017-07-02T10:41:31Z</time>
      </trkpt>
      <trkpt lat="42.37712" lon="0.15064">
        <ele>584.7</ele>
        <time>2017-07-02T10:41:33Z</time>
      </trkpt>
      <trkpt lat="42.37714" lon="0.15061">
        <ele>585.2</ele>
        <time>2017-07-02T10:41:35Z</time>
      </trkpt>
      <trkpt lat="42.37717" lon="0.15059">
        <ele>585.5</ele>
        <time>2017-07-02T10:41:37Z</time>
      </trkpt>
      <trkpt lat="42.3772" lon="0.15056">
        <ele>585.8</ele>
        <time>2017-07-02T10:41:39Z</time>
      </trkpt>
      <trkpt lat="42.37723" lon="0.15054">
        <ele>586</ele>
        <time>2017-07-02T10:41:41Z</time>
      </trkpt>
      <trkpt lat="42.37726" lon="0.15052">
        <ele>586.5</ele>
        <time>2017-07-02T10:41:43Z</time>
      </trkpt>
      <trkpt lat="42.37729" lon="0.15049">
        <ele>587.1</ele>
        <time>2017-07-02T10:41:45Z</time>
      </trkpt>
      <trkpt lat="42.37732" lon="0.15047">
        <ele>587.5</ele>
        <time>2017-07-02T10:41:47Z</time>
      </trkpt>
      <trkpt lat="42.37735" lon="0.15046">
        <ele>587.8</ele>
        <time>2017-07-02T10:41:49Z</time>
      </trkpt>
      <trkpt lat="42.37738" lon="0.15044">
        <ele>588.4</ele>
        <time>2017-07-02T10:41:51Z</time>
      </trkpt>
      <trkpt lat="42.37741" lon="0.15041">
        <ele>589</ele>
        <time>2017-07-02T10:41:53Z</time>
      </trkpt>
      <trkpt lat="42.37744" lon="0.15038">
        <ele>589.5</ele>
        <time>2017-07-02T10:41:55Z</time>
      </trkpt>
      <trkpt lat="42.37746" lon="0.15036">
        <ele>589.9</ele>
        <time>2017-07-02T10:41:57Z</time>
      </trkpt>
      <trkpt lat="42.37749" lon="0.15034">
        <ele>590.1</ele>
        <time>2017-07-02T10:41:59Z</time>
      </trkpt>
      <trkpt lat="42.37752" lon="0.15032">
        <ele>590.2</ele>
        <time>2017-07-02T10:42:01Z</time>
      </trkpt>
      <trkpt lat="42.37756" lon="0.15031">
        <ele>590.4</ele>
        <time>2017-07-02T10:42:03Z</time>
      </trkpt>
      <trkpt lat="42.37758" lon="0.15029">
        <ele>590.6</ele>
        <time>2017-07-02T10:42:05Z</time>
      </trkpt>
      <trkpt lat="42.37761" lon="0.15027">
        <ele>591</ele>
        <time>2017-07-02T10:42:07Z</time>
      </trkpt>
      <trkpt lat="42.37764" lon="0.15026">
        <ele>591.5</ele>
        <time>2017-07-02T10:42:09Z</time>
      </trkpt>
      <trkpt lat="42.37767" lon="0.15024">
        <ele>591.9</ele>
        <time>2017-07-02T10:42:11Z</time>
      </trkpt>
      <trkpt lat="42.3777" lon="0.15021">
        <ele>592.2</ele>
        <time>2017-07-02T10:42:13Z</time>
      </trkpt>
      <trkpt lat="42.37773" lon="0.15018">
        <ele>592.4</ele>
        <time>2017-07-02T10:42:15Z</time>
      </trkpt>
      <trkpt lat="42.37775" lon="0.15014">
        <ele>592.6</ele>
        <time>2017-07-02T10:42:17Z</time>
      </trkpt>
      <trkpt lat="42.37777" lon="0.1501">
        <ele>593.1</ele>
        <time>2017-07-02T10:42:19Z</time>
      </trkpt>
      <trkpt lat="42.37779" lon="0.15006">
        <ele>593.6</ele>
        <time>2017-07-02T10:42:21Z</time>
      </trkpt>
      <trkpt lat="42.3778" lon="0.15002">
        <ele>594</ele>
        <time>2017-07-02T10:42:23Z</time>
      </trkpt>
      <trkpt lat="42.37783" lon="0.14999">
        <ele>594.3</ele>
        <time>2017-07-02T10:42:25Z</time>
      </trkpt>
      <trkpt lat="42.37786" lon="0.14995">
        <ele>594.6</ele>
        <time>2017-07-02T10:42:27Z</time>
      </trkpt>
      <trkpt lat="42.3779" lon="0.14992">
        <ele>595</ele>
        <time>2017-07-02T10:42:29Z</time>
      </trkpt>
      <trkpt lat="42.37793" lon="0.14988">
        <ele>595.6</ele>
        <time>2017-07-02T10:42:31Z</time>
      </trkpt>
      <trkpt lat="42.37795" lon="0.14985">
        <ele>596.2</ele>
        <time>2017-07-02T10:42:33Z</time>
      </trkpt>
      <trkpt lat="42.37798" lon="0.14982">
        <ele>596.4</ele>
        <time>2017-07-02T10:42:35Z</time>
      </trkpt>
      <trkpt lat="42.37801" lon="0.1498">
        <ele>596.6</ele>
        <time>2017-07-02T10:42:37Z</time>
      </trkpt>
      <trkpt lat="42.37804" lon="0.14978">
        <ele>596.8</ele>
        <time>2017-07-02T10:42:39Z</time>
      </trkpt>
      <trkpt lat="42.37808" lon="0.14977">
        <ele>597.2</ele>
        <time>2017-07-02T10:42:41Z</time>
      </trkpt>
      <trkpt lat="42.37811" lon="0.14976">
        <ele>597.8</ele>
        <time>2017-07-02T10:42:43Z</time>
      </trkpt>
      <trkpt lat="42.37815" lon="0.14975">
        <ele>598.2</ele>
        <time>2017-07-02T10:42:45Z</time>
      </trkpt>
      <trkpt lat="42.37819" lon="0.14974">
        <ele>598.5</ele>
        <time>2017-07-02T10:42:47Z</time>
      </trkpt>
      <trkpt lat="42.37823" lon="0.14973">
        <ele>598.7</ele>
        <time>2017-07-02T10:42:49Z</time>
      </trkpt>
      <trkpt lat="42.37826" lon="0.14972">
        <ele>598.8</ele>
        <time>2017-07-02T10:42:51Z</time>
      </trkpt>
      <trkpt lat="42.3783" lon="0.1497">
        <ele>599</ele>
        <time>2017-07-02T10:42:53Z</time>
      </trkpt>
      <trkpt lat="42.37833" lon="0.14968">
        <ele>599.3</ele>
        <time>2017-07-02T10:42:55Z</time>
      </trkpt>
      <trkpt lat="42.37836" lon="0.14966">
        <ele>599.8</ele>
        <time>2017-07-02T10:42:57Z</time>
      </trkpt>
      <trkpt lat="42.37839" lon="0.14964">
        <ele>600.5</ele>
        <time>2017-07-02T10:42:59Z</time>
      </trkpt>
      <trkpt lat="42.37842" lon="0.14961">
        <ele>600.9</ele>
        <time>2017-07-02T10:43:01Z</time>
      </trkpt>
      <trkpt lat="42.37845" lon="0.14959">
        <ele>601.4</ele>
        <time>2017-07-02T10:43:03Z</time>
      </trkpt>
      <trkpt lat="42.37849" lon="0.14957">
        <ele>602.2</ele>
        <time>2017-07-02T10:43:05Z</time>
      </trkpt>
      <trkpt lat="42.37852" lon="0.14955">
        <ele>602.9</ele>
        <time>2017-07-02T10:43:07Z</time>
      </trkpt>
      <trkpt lat="42.37856" lon="0.14953">
        <ele>603.2</ele>
        <time>2017-07-02T10:43:09Z</time>
      </trkpt>
      <trkpt lat="42.37859" lon="0.14951">
        <ele>603.5</ele>
        <time>2017-07-02T10:43:11Z</time>
      </trkpt>
      <trkpt lat="42.37862" lon="0.14949">
        <ele>604.1</ele>
        <time>2017-07-02T10:43:13Z</time>
      </trkpt>
      <trkpt lat="42.37865" lon="0.14947">
        <ele>604.6</ele>
        <time>2017-07-02T10:43:15Z</time>
      </trkpt>
      <trkpt lat="42.37868" lon="0.14945">
        <ele>605</ele>
        <time>2017-07-02T10:43:17Z</time>
      </trkpt>
      <trkpt lat="42.3787" lon="0.14943">
        <ele>605.3</ele>
        <time>2017-07-02T10:43:19Z</time>
      </trkpt>
      <trkpt lat="42.37873" lon="0.14941">
        <ele>605.5</ele>
        <time>2017-07-02T10:43:21Z</time>
      </trkpt>
      <trkpt lat="42.37875" lon="0.14939">
        <ele>605.9</ele>
        <time>2017-07-02T10:43:23Z</time>
      </trkpt>
      <trkpt lat="42.37878" lon="0.14937">
        <ele>606.3</ele>
        <time>2017-07-02T10:43:25Z</time>
      </trkpt>
      <trkpt lat="42.37882" lon="0.14935">
        <ele>606.9</ele>
        <time>2017-07-02T10:43:27Z</time>
      </trkpt>
      <trkpt lat="42.37885" lon="0.14933">
        <ele>607.2</ele>
        <time>2017-07-02T10:43:29Z</time>
      </trkpt>
      <trkpt lat="42.37889" lon="0.14931">
        <ele>607.4</ele>
        <time>2017-07-02T10:43:31Z</time>
      </trkpt>
      <trkpt lat="42.37892" lon="0.14929">
        <ele>607.7</ele>
        <time>2017-07-02T10:43:33Z</time>
      </trkpt>
      <trkpt lat="42.37895" lon="0.14927">
        <ele>607.9</ele>
        <time>2017-07-02T10:43:35Z</time>
      </trkpt>
      <trkpt lat="42.37899" lon="0.14924">
        <ele>608.3</ele>
        <time>2017-07-02T10:43:37Z</time>
      </trkpt>
      <trkpt lat="42.37901" lon="0.14921">
        <ele>608.9</ele>
        <time>2017-07-02T10:43:39Z</time>
      </trkpt>
      <trkpt lat="42.37905" lon="0.14917">
        <ele>609.5</ele>
        <time>2017-07-02T10:43:41Z</time>
      </trkpt>
      <trkpt lat="42.37908" lon="0.14914">
        <ele>609.8</ele>
        <time>2017-07-02T10:43:43Z</time>
      </trkpt>
      <trkpt lat="42.37911" lon="0.14912">
        <ele>610.5</ele>
        <time>2017-07-02T10:43:45Z</time>
      </trkpt>
      <trkpt lat="42.37915" lon="0.1491">
        <ele>611.2</ele>
        <time>2017-07-02T10:43:47Z</time>
      </trkpt>
      <trkpt lat="42.37919" lon="0.14909">
        <ele>611.8</ele>
        <time>2017-07-02T10:43:49Z</time>
      </trkpt>
      <trkpt lat="42.37923" lon="0.14909">
        <ele>612.3</ele>
        <time>2017-07-02T10:43:51Z</time>
      </trkpt>
      <trkpt lat="42.37927" lon="0.14908">
        <ele>612.9</ele>
        <time>2017-07-02T10:43:53Z</time>
      </trkpt>
      <trkpt lat="42.37932" lon="0.14907">
        <ele>613.4</ele>
        <time>2017-07-02T10:43:55Z</time>
      </trkpt>
      <trkpt lat="42.37936" lon="0.14907">
        <ele>613.6</ele>
        <time>2017-07-02T10:43:57Z</time>
      </trkpt>
      <trkpt lat="42.37939" lon="0.14908">
        <ele>613.8</ele>
        <time>2017-07-02T10:43:59Z</time>
      </trkpt>
      <trkpt lat="42.37943" lon="0.14909">
        <ele>614</ele>
        <time>2017-07-02T10:44:01Z</time>
      </trkpt>
      <trkpt lat="42.37946" lon="0.14909">
        <ele>614.1</ele>
        <time>2017-07-02T10:44:03Z</time>
      </trkpt>
      <trkpt lat="42.37949" lon="0.14908">
        <ele>614.2</ele>
        <time>2017-07-02T10:44:05Z</time>
      </trkpt>
      <trkpt lat="42.37952" lon="0.14906">
        <ele>614.4</ele>
        <time>2017-07-02T10:44:07Z</time>
      </trkpt>
      <trkpt lat="42.37955" lon="0.14902">
        <ele>614.6</ele>
        <time>2017-07-02T10:44:09Z</time>
      </trkpt>
      <trkpt lat="42.37956" lon="0.14898">
        <ele>614.9</ele>
        <time>2017-07-02T10:44:11Z</time>
      </trkpt>
      <trkpt lat="42.37957" lon="0.14893">
        <ele>615.4</ele>
        <time>2017-07-02T10:44:13Z</time>
      </trkpt>
      <trkpt lat="42.37957" lon="0.14888">
        <ele>615.9</ele>
        <time>2017-07-02T10:44:15Z</time>
      </trkpt>
      <trkpt lat="42.37957" lon="0.14883">
        <ele>616.2</ele>
        <time>2017-07-02T10:44:17Z</time>
      </trkpt>
      <trkpt lat="42.37956" lon="0.14878">
        <ele>616.5</ele>
        <time>2017-07-02T10:44:19Z</time>
      </trkpt>
      <trkpt lat="42.37955" lon="0.14874">
        <ele>616.9</ele>
        <time>2017-07-02T10:44:21Z</time>
      </trkpt>
      <trkpt lat="42.37953" lon="0.1487">
        <ele>617.6</ele>
        <time>2017-07-02T10:44:23Z</time>
      </trkpt>
      <trkpt lat="42.37951" lon="0.14865">
        <ele>618</ele>
        <time>2017-07-02T10:44:25Z</time>
      </trkpt>
      <trkpt lat="42.3795" lon="0.14861">
        <ele>618.4</ele>
        <time>2017-07-02T10:44:27Z</time>
      </trkpt>
      <trkpt lat="42.37949" lon="0.14857">
        <ele>619</ele>
        <time>2017-07-02T10:44:29Z</time>
      </trkpt>
      <trkpt lat="42.37949" lon="0.14852">
        <ele>619.7</ele>
        <time>2017-07-02T10:44:31Z</time>
      </trkpt>
      <trkpt lat="42.37949" lon="0.14847">
        <ele>620.3</ele>
        <time>2017-07-02T10:44:33Z</time>
      </trkpt>
      <trkpt lat="42.37949" lon="0.14843">
        <ele>620.6</ele>
        <time>2017-07-02T10:44:35Z</time>
      </trkpt>
      <trkpt lat="42.37949" lon="0.14839">
        <ele>620.8</ele>
        <time>2017-07-02T10:44:37Z</time>
      </trkpt>
      <trkpt lat="42.37951" lon="0.14835">
        <ele>621.1</ele>
        <time>2017-07-02T10:44:39Z</time>
      </trkpt>
      <trkpt lat="42.37953" lon="0.14832">
        <ele>621.8</ele>
        <time>2017-07-02T10:44:41Z</time>
      </trkpt>
      <trkpt lat="42.37956" lon="0.14829">
        <ele>622.4</ele>
        <time>2017-07-02T10:44:43Z</time>
      </trkpt>
      <trkpt lat="42.37959" lon="0.14826">
        <ele>622.7</ele>
        <time>2017-07-02T10:44:45Z</time>
      </trkpt>
      <trkpt lat="42.3796" lon="0.14822">
        <ele>623</ele>
        <time>2017-07-02T10:44:47Z</time>
      </trkpt>
      <trkpt lat="42.37962" lon="0.14818">
        <ele>623.6</ele>
        <time>2017-07-02T10:44:50Z</time>
      </trkpt>
      <trkpt lat="42.37964" lon="0.14815">
        <ele>624.1</ele>
        <time>2017-07-02T10:44:52Z</time>
      </trkpt>
      <trkpt lat="42.37966" lon="0.14812">
        <ele>624.5</ele>
        <time>2017-07-02T10:44:54Z</time>
      </trkpt>
      <trkpt lat="42.37968" lon="0.14808">
        <ele>624.9</ele>
        <time>2017-07-02T10:44:57Z</time>
      </trkpt>
      <trkpt lat="42.37969" lon="0.14804">
        <ele>625.2</ele>
        <time>2017-07-02T10:45:00Z</time>
      </trkpt>
      <trkpt lat="42.37969" lon="0.14799">
        <ele>625.8</ele>
        <time>2017-07-02T10:45:03Z</time>
      </trkpt>
      <trkpt lat="42.37971" lon="0.14794">
        <ele>626.5</ele>
        <time>2017-07-02T10:45:06Z</time>
      </trkpt>
      <trkpt lat="42.37972" lon="0.14789">
        <ele>627.1</ele>
        <time>2017-07-02T10:45:09Z</time>
      </trkpt>
      <trkpt lat="42.37973" lon="0.14785">
        <ele>627.3</ele>
        <time>2017-07-02T10:45:11Z</time>
      </trkpt>
      <trkpt lat="42.37974" lon="0.1478">
        <ele>627.9</ele>
        <time>2017-07-02T10:45:14Z</time>
      </trkpt>
      <trkpt lat="42.37974" lon="0.14776">
        <ele>628.2</ele>
        <time>2017-07-02T10:45:16Z</time>
      </trkpt>
      <trkpt lat="42.37974" lon="0.14771">
        <ele>628.7</ele>
        <time>2017-07-02T10:45:19Z</time>
      </trkpt>
      <trkpt lat="42.37975" lon="0.14766">
        <ele>628.9</ele>
        <time>2017-07-02T10:45:22Z</time>
      </trkpt>
      <trkpt lat="42.37976" lon="0.14763">
        <ele>628.9</ele>
        <time>2017-07-02T10:45:24Z</time>
      </trkpt>
      <trkpt lat="42.37977" lon="0.1476">
        <ele>629</ele>
        <time>2017-07-02T10:45:26Z</time>
      </trkpt>
      <trkpt lat="42.3798" lon="0.14757">
        <ele>629.1</ele>
        <time>2017-07-02T10:45:28Z</time>
      </trkpt>
      <trkpt lat="42.37983" lon="0.14754">
        <ele>629.2</ele>
        <time>2017-07-02T10:45:30Z</time>
      </trkpt>
      <trkpt lat="42.37987" lon="0.1475">
        <ele>629.4</ele>
        <time>2017-07-02T10:45:32Z</time>
      </trkpt>
      <trkpt lat="42.3799" lon="0.14746">
        <ele>629.5</ele>
        <time>2017-07-02T10:45:34Z</time>
      </trkpt>
      <trkpt lat="42.37994" lon="0.14742">
        <ele>629.7</ele>
        <time>2017-07-02T10:45:36Z</time>
      </trkpt>
      <trkpt lat="42.37998" lon="0.14739">
        <ele>629.9</ele>
        <time>2017-07-02T10:45:38Z</time>
      </trkpt>
      <trkpt lat="42.38002" lon="0.14735">
        <ele>630.3</ele>
        <time>2017-07-02T10:45:40Z</time>
      </trkpt>
      <trkpt lat="42.38005" lon="0.14732">
        <ele>630.7</ele>
        <time>2017-07-02T10:45:42Z</time>
      </trkpt>
      <trkpt lat="42.38008" lon="0.14729">
        <ele>630.8</ele>
        <time>2017-07-02T10:45:44Z</time>
      </trkpt>
      <trkpt lat="42.38012" lon="0.14724">
        <ele>631</ele>
        <time>2017-07-02T10:45:46Z</time>
      </trkpt>
      <trkpt lat="42.38016" lon="0.1472">
        <ele>631.1</ele>
        <time>2017-07-02T10:45:48Z</time>
      </trkpt>
      <trkpt lat="42.38019" lon="0.14716">
        <ele>631.3</ele>
        <time>2017-07-02T10:45:50Z</time>
      </trkpt>
      <trkpt lat="42.38022" lon="0.1471">
        <ele>631.4</ele>
        <time>2017-07-02T10:45:52Z</time>
      </trkpt>
      <trkpt lat="42.38024" lon="0.14707">
        <ele>631.5</ele>
        <time>2017-07-02T10:45:53Z</time>
      </trkpt>
      <trkpt lat="42.38025" lon="0.14704">
        <ele>631.6</ele>
        <time>2017-07-02T10:45:54Z</time>
      </trkpt>
      <trkpt lat="42.38027" lon="0.14701">
        <ele>631.6</ele>
        <time>2017-07-02T10:45:55Z</time>
      </trkpt>
      <trkpt lat="42.3803" lon="0.14695">
        <ele>631.9</ele>
        <time>2017-07-02T10:45:57Z</time>
      </trkpt>
      <trkpt lat="42.38032" lon="0.14692">
        <ele>632.1</ele>
        <time>2017-07-02T10:45:58Z</time>
      </trkpt>
      <trkpt lat="42.38034" lon="0.14689">
        <ele>632.4</ele>
        <time>2017-07-02T10:45:59Z</time>
      </trkpt>
      <trkpt lat="42.38036" lon="0.14685">
        <ele>632.6</ele>
        <time>2017-07-02T10:46:00Z</time>
      </trkpt>
      <trkpt lat="42.38037" lon="0.14681">
        <ele>632.9</ele>
        <time>2017-07-02T10:46:01Z</time>
      </trkpt>
      <trkpt lat="42.38039" lon="0.14677">
        <ele>633</ele>
        <time>2017-07-02T10:46:02Z</time>
      </trkpt>
      <trkpt lat="42.38041" lon="0.14674">
        <ele>633.1</ele>
        <time>2017-07-02T10:46:03Z</time>
      </trkpt>
      <trkpt lat="42.38043" lon="0.1467">
        <ele>633.2</ele>
        <time>2017-07-02T10:46:04Z</time>
      </trkpt>
      <trkpt lat="42.38044" lon="0.14666">
        <ele>633.3</ele>
        <time>2017-07-02T10:46:05Z</time>
      </trkpt>
      <trkpt lat="42.38046" lon="0.14662">
        <ele>633.4</ele>
        <time>2017-07-02T10:46:06Z</time>
      </trkpt>
      <trkpt lat="42.38048" lon="0.14657">
        <ele>633.5</ele>
        <time>2017-07-02T10:46:07Z</time>
      </trkpt>
      <trkpt lat="42.38049" lon="0.14653">
        <ele>633.6</ele>
        <time>2017-07-02T10:46:08Z</time>
      </trkpt>
      <trkpt lat="42.38051" lon="0.1465">
        <ele>633.7</ele>
        <time>2017-07-02T10:46:09Z</time>
      </trkpt>
      <trkpt lat="42.38053" lon="0.14646">
        <ele>633.8</ele>
        <time>2017-07-02T10:46:10Z</time>
      </trkpt>
      <trkpt lat="42.38054" lon="0.14643">
        <ele>633.8</ele>
        <time>2017-07-02T10:46:11Z</time>
      </trkpt>
      <trkpt lat="42.38057" lon="0.14637">
        <ele>634</ele>
        <time>2017-07-02T10:46:13Z</time>
      </trkpt>
      <trkpt lat="42.38059" lon="0.14633">
        <ele>634.1</ele>
        <time>2017-07-02T10:46:14Z</time>
      </trkpt>
      <trkpt lat="42.3806" lon="0.1463">
        <ele>634.1</ele>
        <time>2017-07-02T10:46:15Z</time>
      </trkpt>
      <trkpt lat="42.38062" lon="0.14627">
        <ele>634.2</ele>
        <time>2017-07-02T10:46:16Z</time>
      </trkpt>
      <trkpt lat="42.38063" lon="0.14624">
        <ele>634.3</ele>
        <time>2017-07-02T10:46:17Z</time>
      </trkpt>
      <trkpt lat="42.38066" lon="0.14617">
        <ele>634.5</ele>
        <time>2017-07-02T10:46:19Z</time>
      </trkpt>
      <trkpt lat="42.38067" lon="0.14614">
        <ele>634.7</ele>
        <time>2017-07-02T10:46:20Z</time>
      </trkpt>
      <trkpt lat="42.38068" lon="0.1461">
        <ele>634.9</ele>
        <time>2017-07-02T10:46:21Z</time>
      </trkpt>
      <trkpt lat="42.3807" lon="0.14607">
        <ele>635.1</ele>
        <time>2017-07-02T10:46:22Z</time>
      </trkpt>
      <trkpt lat="42.38072" lon="0.14604">
        <ele>635.3</ele>
        <time>2017-07-02T10:46:23Z</time>
      </trkpt>
      <trkpt lat="42.38073" lon="0.146">
        <ele>635.4</ele>
        <time>2017-07-02T10:46:24Z</time>
      </trkpt>
      <trkpt lat="42.38075" lon="0.14597">
        <ele>635.5</ele>
        <time>2017-07-02T10:46:25Z</time>
      </trkpt>
      <trkpt lat="42.38076" lon="0.14593">
        <ele>635.6</ele>
        <time>2017-07-02T10:46:26Z</time>
      </trkpt>
      <trkpt lat="42.38078" lon="0.1459">
        <ele>635.7</ele>
        <time>2017-07-02T10:46:27Z</time>
      </trkpt>
      <trkpt lat="42.38079" lon="0.14586">
        <ele>635.8</ele>
        <time>2017-07-02T10:46:28Z</time>
      </trkpt>
      <trkpt lat="42.3808" lon="0.14583">
        <ele>635.9</ele>
        <time>2017-07-02T10:46:29Z</time>
      </trkpt>
      <trkpt lat="42.38082" lon="0.14576">
        <ele>636.1</ele>
        <time>2017-07-02T10:46:31Z</time>
      </trkpt>
      <trkpt lat="42.38082" lon="0.14573">
        <ele>636.2</ele>
        <time>2017-07-02T10:46:32Z</time>
      </trkpt>
      <trkpt lat="42.38083" lon="0.14569">
        <ele>636.3</ele>
        <time>2017-07-02T10:46:33Z</time>
      </trkpt>
      <trkpt lat="42.38083" lon="0.14565">
        <ele>636.4</ele>
        <time>2017-07-02T10:46:34Z</time>
      </trkpt>
      <trkpt lat="42.38084" lon="0.14562">
        <ele>636.5</ele>
        <time>2017-07-02T10:46:35Z</time>
      </trkpt>
      <trkpt lat="42.38085" lon="0.14555">
        <ele>636.7</ele>
        <time>2017-07-02T10:46:37Z</time>
      </trkpt>
      <trkpt lat="42.38085" lon="0.14548">
        <ele>637</ele>
        <time>2017-07-02T10:46:39Z</time>
      </trkpt>
      <trkpt lat="42.38085" lon="0.14541">
        <ele>637.4</ele>
        <time>2017-07-02T10:46:41Z</time>
      </trkpt>
      <trkpt lat="42.38084" lon="0.14535">
        <ele>637.8</ele>
        <time>2017-07-02T10:46:43Z</time>
      </trkpt>
      <trkpt lat="42.38084" lon="0.14528">
        <ele>638</ele>
        <time>2017-07-02T10:46:45Z</time>
      </trkpt>
      <trkpt lat="42.38084" lon="0.14522">
        <ele>638.1</ele>
        <time>2017-07-02T10:46:47Z</time>
      </trkpt>
      <trkpt lat="42.38084" lon="0.14515">
        <ele>638.3</ele>
        <time>2017-07-02T10:46:49Z</time>
      </trkpt>
      <trkpt lat="42.38087" lon="0.14509">
        <ele>638.4</ele>
        <time>2017-07-02T10:46:51Z</time>
      </trkpt>
      <trkpt lat="42.38089" lon="0.14503">
        <ele>638.6</ele>
        <time>2017-07-02T10:46:53Z</time>
      </trkpt>
      <trkpt lat="42.38092" lon="0.14498">
        <ele>639</ele>
        <time>2017-07-02T10:46:55Z</time>
      </trkpt>
      <trkpt lat="42.38094" lon="0.14492">
        <ele>639.3</ele>
        <time>2017-07-02T10:46:57Z</time>
      </trkpt>
      <trkpt lat="42.38096" lon="0.14486">
        <ele>639.7</ele>
        <time>2017-07-02T10:46:59Z</time>
      </trkpt>
      <trkpt lat="42.38099" lon="0.1448">
        <ele>639.9</ele>
        <time>2017-07-02T10:47:01Z</time>
      </trkpt>
      <trkpt lat="42.38102" lon="0.14475">
        <ele>640</ele>
        <time>2017-07-02T10:47:03Z</time>
      </trkpt>
      <trkpt lat="42.38104" lon="0.14472">
        <ele>640.1</ele>
        <time>2017-07-02T10:47:04Z</time>
      </trkpt>
      <trkpt lat="42.38105" lon="0.14468">
        <ele>640.1</ele>
        <time>2017-07-02T10:47:05Z</time>
      </trkpt>
      <trkpt lat="42.38106" lon="0.14465">
        <ele>640.2</ele>
        <time>2017-07-02T10:47:06Z</time>
      </trkpt>
      <trkpt lat="42.38107" lon="0.14461">
        <ele>640.2</ele>
        <time>2017-07-02T10:47:07Z</time>
      </trkpt>
      <trkpt lat="42.38108" lon="0.14458">
        <ele>640.3</ele>
        <time>2017-07-02T10:47:08Z</time>
      </trkpt>
      <trkpt lat="42.38109" lon="0.14454">
        <ele>640.3</ele>
        <time>2017-07-02T10:47:09Z</time>
      </trkpt>
      <trkpt lat="42.3811" lon="0.14451">
        <ele>640.4</ele>
        <time>2017-07-02T10:47:10Z</time>
      </trkpt>
      <trkpt lat="42.38112" lon="0.14445">
        <ele>640.5</ele>
        <time>2017-07-02T10:47:12Z</time>
      </trkpt>
      <trkpt lat="42.38114" lon="0.14438">
        <ele>640.6</ele>
        <time>2017-07-02T10:47:14Z</time>
      </trkpt>
      <trkpt lat="42.38116" lon="0.14435">
        <ele>640.7</ele>
        <time>2017-07-02T10:47:15Z</time>
      </trkpt>
      <trkpt lat="42.38118" lon="0.14432">
        <ele>640.7</ele>
        <time>2017-07-02T10:47:16Z</time>
      </trkpt>
      <trkpt lat="42.38121" lon="0.14426">
        <ele>641</ele>
        <time>2017-07-02T10:47:18Z</time>
      </trkpt>
      <trkpt lat="42.38125" lon="0.14422">
        <ele>641.5</ele>
        <time>2017-07-02T10:47:20Z</time>
      </trkpt>
      <trkpt lat="42.38129" lon="0.14417">
        <ele>642.1</ele>
        <time>2017-07-02T10:47:22Z</time>
      </trkpt>
      <trkpt lat="42.38132" lon="0.14414">
        <ele>642.5</ele>
        <time>2017-07-02T10:47:24Z</time>
      </trkpt>
      <trkpt lat="42.38136" lon="0.1441">
        <ele>642.9</ele>
        <time>2017-07-02T10:47:26Z</time>
      </trkpt>
      <trkpt lat="42.3814" lon="0.14407">
        <ele>643.4</ele>
        <time>2017-07-02T10:47:28Z</time>
      </trkpt>
      <trkpt lat="42.38144" lon="0.14404">
        <ele>644</ele>
        <time>2017-07-02T10:47:30Z</time>
      </trkpt>
      <trkpt lat="42.38148" lon="0.14401">
        <ele>644.4</ele>
        <time>2017-07-02T10:47:32Z</time>
      </trkpt>
      <trkpt lat="42.38151" lon="0.14397">
        <ele>644.7</ele>
        <time>2017-07-02T10:47:34Z</time>
      </trkpt>
      <trkpt lat="42.38155" lon="0.14394">
        <ele>644.9</ele>
        <time>2017-07-02T10:47:36Z</time>
      </trkpt>
      <trkpt lat="42.38159" lon="0.1439">
        <ele>645.2</ele>
        <time>2017-07-02T10:47:38Z</time>
      </trkpt>
      <trkpt lat="42.38162" lon="0.14386">
        <ele>645.7</ele>
        <time>2017-07-02T10:47:40Z</time>
      </trkpt>
      <trkpt lat="42.38166" lon="0.14382">
        <ele>646.2</ele>
        <time>2017-07-02T10:47:42Z</time>
      </trkpt>
      <trkpt lat="42.3817" lon="0.14377">
        <ele>646.6</ele>
        <time>2017-07-02T10:47:44Z</time>
      </trkpt>
      <trkpt lat="42.38172" lon="0.14374">
        <ele>646.8</ele>
        <time>2017-07-02T10:47:45Z</time>
      </trkpt>
      <trkpt lat="42.38174" lon="0.14371">
        <ele>646.9</ele>
        <time>2017-07-02T10:47:46Z</time>
      </trkpt>
      <trkpt lat="42.38175" lon="0.14369">
        <ele>647</ele>
        <time>2017-07-02T10:47:47Z</time>
      </trkpt>
      <trkpt lat="42.38179" lon="0.14363">
        <ele>647.2</ele>
        <time>2017-07-02T10:47:49Z</time>
      </trkpt>
      <trkpt lat="42.38182" lon="0.14358">
        <ele>647.5</ele>
        <time>2017-07-02T10:47:51Z</time>
      </trkpt>
      <trkpt lat="42.38185" lon="0.14353">
        <ele>647.9</ele>
        <time>2017-07-02T10:47:53Z</time>
      </trkpt>
      <trkpt lat="42.38188" lon="0.14347">
        <ele>648.5</ele>
        <time>2017-07-02T10:47:55Z</time>
      </trkpt>
      <trkpt lat="42.38192" lon="0.14342">
        <ele>648.7</ele>
        <time>2017-07-02T10:47:57Z</time>
      </trkpt>
      <trkpt lat="42.38195" lon="0.14338">
        <ele>648.8</ele>
        <time>2017-07-02T10:47:59Z</time>
      </trkpt>
      <trkpt lat="42.38199" lon="0.14334">
        <ele>648.9</ele>
        <time>2017-07-02T10:48:01Z</time>
      </trkpt>
      <trkpt lat="42.38203" lon="0.1433">
        <ele>649.1</ele>
        <time>2017-07-02T10:48:03Z</time>
      </trkpt>
      <trkpt lat="42.38207" lon="0.14325">
        <ele>649.2</ele>
        <time>2017-07-02T10:48:05Z</time>
      </trkpt>
      <trkpt lat="42.38209" lon="0.14323">
        <ele>649.3</ele>
        <time>2017-07-02T10:48:06Z</time>
      </trkpt>
      <trkpt lat="42.38212" lon="0.1432">
        <ele>649.4</ele>
        <time>2017-07-02T10:48:07Z</time>
      </trkpt>
      <trkpt lat="42.38214" lon="0.14318">
        <ele>649.5</ele>
        <time>2017-07-02T10:48:08Z</time>
      </trkpt>
      <trkpt lat="42.38216" lon="0.14315">
        <ele>649.6</ele>
        <time>2017-07-02T10:48:09Z</time>
      </trkpt>
      <trkpt lat="42.38221" lon="0.14311">
        <ele>649.9</ele>
        <time>2017-07-02T10:48:11Z</time>
      </trkpt>
      <trkpt lat="42.38223" lon="0.14308">
        <ele>650.1</ele>
        <time>2017-07-02T10:48:12Z</time>
      </trkpt>
      <trkpt lat="42.38225" lon="0.14306">
        <ele>650.4</ele>
        <time>2017-07-02T10:48:13Z</time>
      </trkpt>
      <trkpt lat="42.38228" lon="0.14304">
        <ele>650.8</ele>
        <time>2017-07-02T10:48:14Z</time>
      </trkpt>
      <trkpt lat="42.38232" lon="0.14301">
        <ele>651.2</ele>
        <time>2017-07-02T10:48:16Z</time>
      </trkpt>
      <trkpt lat="42.38237" lon="0.14299">
        <ele>651.4</ele>
        <time>2017-07-02T10:48:18Z</time>
      </trkpt>
      <trkpt lat="42.38241" lon="0.14296">
        <ele>651.6</ele>
        <time>2017-07-02T10:48:20Z</time>
      </trkpt>
      <trkpt lat="42.38246" lon="0.14293">
        <ele>651.8</ele>
        <time>2017-07-02T10:48:22Z</time>
      </trkpt>
      <trkpt lat="42.38248" lon="0.14291">
        <ele>651.9</ele>
        <time>2017-07-02T10:48:23Z</time>
      </trkpt>
      <trkpt lat="42.38251" lon="0.14289">
        <ele>652.1</ele>
        <time>2017-07-02T10:48:24Z</time>
      </trkpt>
      <trkpt lat="42.38253" lon="0.14288">
        <ele>652.2</ele>
        <time>2017-07-02T10:48:25Z</time>
      </trkpt>
      <trkpt lat="42.38256" lon="0.14287">
        <ele>652.3</ele>
        <time>2017-07-02T10:48:26Z</time>
      </trkpt>
      <trkpt lat="42.38261" lon="0.14284">
        <ele>652.9</ele>
        <time>2017-07-02T10:48:28Z</time>
      </trkpt>
      <trkpt lat="42.38264" lon="0.14283">
        <ele>653.2</ele>
        <time>2017-07-02T10:48:29Z</time>
      </trkpt>
      <trkpt lat="42.38268" lon="0.14281">
        <ele>653.5</ele>
        <time>2017-07-02T10:48:31Z</time>
      </trkpt>
      <trkpt lat="42.38271" lon="0.14279">
        <ele>653.6</ele>
        <time>2017-07-02T10:48:33Z</time>
      </trkpt>
      <trkpt lat="42.38275" lon="0.14277">
        <ele>653.8</ele>
        <time>2017-07-02T10:48:35Z</time>
      </trkpt>
      <trkpt lat="42.38279" lon="0.14276">
        <ele>653.9</ele>
        <time>2017-07-02T10:48:37Z</time>
      </trkpt>
      <trkpt lat="42.38284" lon="0.14275">
        <ele>654.1</ele>
        <time>2017-07-02T10:48:39Z</time>
      </trkpt>
      <trkpt lat="42.38288" lon="0.14274">
        <ele>654.3</ele>
        <time>2017-07-02T10:48:41Z</time>
      </trkpt>
      <trkpt lat="42.38293" lon="0.14274">
        <ele>654.5</ele>
        <time>2017-07-02T10:48:43Z</time>
      </trkpt>
      <trkpt lat="42.38298" lon="0.14273">
        <ele>654.7</ele>
        <time>2017-07-02T10:48:45Z</time>
      </trkpt>
      <trkpt lat="42.38303" lon="0.14272">
        <ele>655.1</ele>
        <time>2017-07-02T10:48:47Z</time>
      </trkpt>
      <trkpt lat="42.38308" lon="0.14269">
        <ele>655.6</ele>
        <time>2017-07-02T10:48:49Z</time>
      </trkpt>
      <trkpt lat="42.38311" lon="0.14268">
        <ele>655.8</ele>
        <time>2017-07-02T10:48:50Z</time>
      </trkpt>
      <trkpt lat="42.38316" lon="0.14266">
        <ele>656</ele>
        <time>2017-07-02T10:48:52Z</time>
      </trkpt>
      <trkpt lat="42.3832" lon="0.14265">
        <ele>656.1</ele>
        <time>2017-07-02T10:48:54Z</time>
      </trkpt>
      <trkpt lat="42.38324" lon="0.14264">
        <ele>656.3</ele>
        <time>2017-07-02T10:48:56Z</time>
      </trkpt>
      <trkpt lat="42.38329" lon="0.14263">
        <ele>656.4</ele>
        <time>2017-07-02T10:48:58Z</time>
      </trkpt>
      <trkpt lat="42.38333" lon="0.14262">
        <ele>656.6</ele>
        <time>2017-07-02T10:49:00Z</time>
      </trkpt>
      <trkpt lat="42.38338" lon="0.14261">
        <ele>656.7</ele>
        <time>2017-07-02T10:49:02Z</time>
      </trkpt>
      <trkpt lat="42.38343" lon="0.1426">
        <ele>656.9</ele>
        <time>2017-07-02T10:49:04Z</time>
      </trkpt>
      <trkpt lat="42.38348" lon="0.14258">
        <ele>657</ele>
        <time>2017-07-02T10:49:06Z</time>
      </trkpt>
      <trkpt lat="42.38352" lon="0.14257">
        <ele>657.5</ele>
        <time>2017-07-02T10:49:08Z</time>
      </trkpt>
      <trkpt lat="42.38357" lon="0.14255">
        <ele>658</ele>
        <time>2017-07-02T10:49:10Z</time>
      </trkpt>
      <trkpt lat="42.38362" lon="0.14254">
        <ele>658.3</ele>
        <time>2017-07-02T10:49:12Z</time>
      </trkpt>
      <trkpt lat="42.38366" lon="0.14254">
        <ele>658.5</ele>
        <time>2017-07-02T10:49:14Z</time>
      </trkpt>
      <trkpt lat="42.38371" lon="0.14253">
        <ele>658.7</ele>
        <time>2017-07-02T10:49:16Z</time>
      </trkpt>
      <trkpt lat="42.38375" lon="0.14251">
        <ele>659</ele>
        <time>2017-07-02T10:49:18Z</time>
      </trkpt>
      <trkpt lat="42.38379" lon="0.14249">
        <ele>659.2</ele>
        <time>2017-07-02T10:49:20Z</time>
      </trkpt>
      <trkpt lat="42.38384" lon="0.14248">
        <ele>659.7</ele>
        <time>2017-07-02T10:49:22Z</time>
      </trkpt>
      <trkpt lat="42.38387" lon="0.14246">
        <ele>660.2</ele>
        <time>2017-07-02T10:49:24Z</time>
      </trkpt>
      <trkpt lat="42.38391" lon="0.14245">
        <ele>660.7</ele>
        <time>2017-07-02T10:49:26Z</time>
      </trkpt>
      <trkpt lat="42.38394" lon="0.14243">
        <ele>661</ele>
        <time>2017-07-02T10:49:28Z</time>
      </trkpt>
      <trkpt lat="42.38397" lon="0.14242">
        <ele>661.3</ele>
        <time>2017-07-02T10:49:30Z</time>
      </trkpt>
      <trkpt lat="42.384" lon="0.14241">
        <ele>661.7</ele>
        <time>2017-07-02T10:49:32Z</time>
      </trkpt>
      <trkpt lat="42.38403" lon="0.14241">
        <ele>662.2</ele>
        <time>2017-07-02T10:49:34Z</time>
      </trkpt>
      <trkpt lat="42.38406" lon="0.1424">
        <ele>662.7</ele>
        <time>2017-07-02T10:49:36Z</time>
      </trkpt>
      <trkpt lat="42.38409" lon="0.1424">
        <ele>663.1</ele>
        <time>2017-07-02T10:49:38Z</time>
      </trkpt>
      <trkpt lat="42.38412" lon="0.1424">
        <ele>663.4</ele>
        <time>2017-07-02T10:49:40Z</time>
      </trkpt>
      <trkpt lat="42.38414" lon="0.14239">
        <ele>663.7</ele>
        <time>2017-07-02T10:49:42Z</time>
      </trkpt>
      <trkpt lat="42.38417" lon="0.14238">
        <ele>664.2</ele>
        <time>2017-07-02T10:49:44Z</time>
      </trkpt>
      <trkpt lat="42.3842" lon="0.14238">
        <ele>664.7</ele>
        <time>2017-07-02T10:49:46Z</time>
      </trkpt>
      <trkpt lat="42.38423" lon="0.14237">
        <ele>665.2</ele>
        <time>2017-07-02T10:49:48Z</time>
      </trkpt>
      <trkpt lat="42.38426" lon="0.14236">
        <ele>665.6</ele>
        <time>2017-07-02T10:49:50Z</time>
      </trkpt>
      <trkpt lat="42.38429" lon="0.14235">
        <ele>666</ele>
        <time>2017-07-02T10:49:52Z</time>
      </trkpt>
      <trkpt lat="42.38432" lon="0.14235">
        <ele>666.5</ele>
        <time>2017-07-02T10:49:54Z</time>
      </trkpt>
      <trkpt lat="42.38435" lon="0.14234">
        <ele>667</ele>
        <time>2017-07-02T10:49:56Z</time>
      </trkpt>
      <trkpt lat="42.38439" lon="0.14234">
        <ele>667.4</ele>
        <time>2017-07-02T10:49:58Z</time>
      </trkpt>
      <trkpt lat="42.38442" lon="0.14234">
        <ele>667.8</ele>
        <time>2017-07-02T10:50:00Z</time>
      </trkpt>
      <trkpt lat="42.38445" lon="0.14234">
        <ele>668.1</ele>
        <time>2017-07-02T10:50:02Z</time>
      </trkpt>
      <trkpt lat="42.38449" lon="0.14235">
        <ele>668.3</ele>
        <time>2017-07-02T10:50:04Z</time>
      </trkpt>
      <trkpt lat="42.38451" lon="0.14237">
        <ele>668.8</ele>
        <time>2017-07-02T10:50:06Z</time>
      </trkpt>
      <trkpt lat="42.38454" lon="0.14238">
        <ele>669.2</ele>
        <time>2017-07-02T10:50:08Z</time>
      </trkpt>
      <trkpt lat="42.38457" lon="0.1424">
        <ele>669.7</ele>
        <time>2017-07-02T10:50:10Z</time>
      </trkpt>
      <trkpt lat="42.3846" lon="0.14241">
        <ele>669.9</ele>
        <time>2017-07-02T10:50:12Z</time>
      </trkpt>
      <trkpt lat="42.38463" lon="0.14241">
        <ele>670</ele>
        <time>2017-07-02T10:50:14Z</time>
      </trkpt>
      <trkpt lat="42.38466" lon="0.14241">
        <ele>670.2</ele>
        <time>2017-07-02T10:50:16Z</time>
      </trkpt>
      <trkpt lat="42.38469" lon="0.14241">
        <ele>670.4</ele>
        <time>2017-07-02T10:50:18Z</time>
      </trkpt>
      <trkpt lat="42.38472" lon="0.14241">
        <ele>670.8</ele>
        <time>2017-07-02T10:50:20Z</time>
      </trkpt>
      <trkpt lat="42.38475" lon="0.1424">
        <ele>671.3</ele>
        <time>2017-07-02T10:50:22Z</time>
      </trkpt>
      <trkpt lat="42.38478" lon="0.14238">
        <ele>671.9</ele>
        <time>2017-07-02T10:50:24Z</time>
      </trkpt>
      <trkpt lat="42.38482" lon="0.14237">
        <ele>672.2</ele>
        <time>2017-07-02T10:50:26Z</time>
      </trkpt>
      <trkpt lat="42.38485" lon="0.14236">
        <ele>672.5</ele>
        <time>2017-07-02T10:50:28Z</time>
      </trkpt>
      <trkpt lat="42.38488" lon="0.14235">
        <ele>672.8</ele>
        <time>2017-07-02T10:50:30Z</time>
      </trkpt>
      <trkpt lat="42.38491" lon="0.14233">
        <ele>673.3</ele>
        <time>2017-07-02T10:50:32Z</time>
      </trkpt>
      <trkpt lat="42.38494" lon="0.14232">
        <ele>673.8</ele>
        <time>2017-07-02T10:50:34Z</time>
      </trkpt>
      <trkpt lat="42.38498" lon="0.1423">
        <ele>674.2</ele>
        <time>2017-07-02T10:50:36Z</time>
      </trkpt>
      <trkpt lat="42.38501" lon="0.14229">
        <ele>674.5</ele>
        <time>2017-07-02T10:50:38Z</time>
      </trkpt>
      <trkpt lat="42.38504" lon="0.14228">
        <ele>674.8</ele>
        <time>2017-07-02T10:50:40Z</time>
      </trkpt>
      <trkpt lat="42.38507" lon="0.14228">
        <ele>675.1</ele>
        <time>2017-07-02T10:50:42Z</time>
      </trkpt>
      <trkpt lat="42.38511" lon="0.14227">
        <ele>675.6</ele>
        <time>2017-07-02T10:50:44Z</time>
      </trkpt>
      <trkpt lat="42.38514" lon="0.14226">
        <ele>676</ele>
        <time>2017-07-02T10:50:46Z</time>
      </trkpt>
      <trkpt lat="42.38517" lon="0.14226">
        <ele>676.5</ele>
        <time>2017-07-02T10:50:48Z</time>
      </trkpt>
      <trkpt lat="42.38521" lon="0.14225">
        <ele>676.8</ele>
        <time>2017-07-02T10:50:50Z</time>
      </trkpt>
      <trkpt lat="42.38525" lon="0.14225">
        <ele>677.1</ele>
        <time>2017-07-02T10:50:52Z</time>
      </trkpt>
      <trkpt lat="42.38528" lon="0.14225">
        <ele>677.3</ele>
        <time>2017-07-02T10:50:54Z</time>
      </trkpt>
      <trkpt lat="42.38532" lon="0.14225">
        <ele>677.5</ele>
        <time>2017-07-02T10:50:56Z</time>
      </trkpt>
      <trkpt lat="42.38536" lon="0.14225">
        <ele>678.1</ele>
        <time>2017-07-02T10:50:58Z</time>
      </trkpt>
      <trkpt lat="42.3854" lon="0.14226">
        <ele>678.5</ele>
        <time>2017-07-02T10:51:00Z</time>
      </trkpt>
      <trkpt lat="42.38543" lon="0.1423">
        <ele>678.8</ele>
        <time>2017-07-02T10:51:02Z</time>
      </trkpt>
      <trkpt lat="42.38546" lon="0.14235">
        <ele>679</ele>
        <time>2017-07-02T10:51:04Z</time>
      </trkpt>
      <trkpt lat="42.38549" lon="0.14241">
        <ele>679.3</ele>
        <time>2017-07-02T10:51:06Z</time>
      </trkpt>
      <trkpt lat="42.38549" lon="0.14247">
        <ele>679.7</ele>
        <time>2017-07-02T10:51:08Z</time>
      </trkpt>
      <trkpt lat="42.38548" lon="0.14253">
        <ele>680.3</ele>
        <time>2017-07-02T10:51:10Z</time>
      </trkpt>
      <trkpt lat="42.38547" lon="0.1426">
        <ele>680.8</ele>
        <time>2017-07-02T10:51:12Z</time>
      </trkpt>
      <trkpt lat="42.38547" lon="0.14267">
        <ele>681.1</ele>
        <time>2017-07-02T10:51:14Z</time>
      </trkpt>
      <trkpt lat="42.38546" lon="0.14273">
        <ele>681.3</ele>
        <time>2017-07-02T10:51:16Z</time>
      </trkpt>
      <trkpt lat="42.38545" lon="0.1428">
        <ele>681.4</ele>
        <time>2017-07-02T10:51:18Z</time>
      </trkpt>
      <trkpt lat="42.38545" lon="0.14287">
        <ele>681.6</ele>
        <time>2017-07-02T10:51:20Z</time>
      </trkpt>
      <trkpt lat="42.38545" lon="0.14293">
        <ele>681.8</ele>
        <time>2017-07-02T10:51:22Z</time>
      </trkpt>
      <trkpt lat="42.38544" lon="0.143">
        <ele>682.2</ele>
        <time>2017-07-02T10:51:24Z</time>
      </trkpt>
      <trkpt lat="42.38543" lon="0.14304">
        <ele>682.4</ele>
        <time>2017-07-02T10:51:25Z</time>
      </trkpt>
      <trkpt lat="42.3854" lon="0.1431">
        <ele>683</ele>
        <time>2017-07-02T10:51:27Z</time>
      </trkpt>
      <trkpt lat="42.38538" lon="0.14316">
        <ele>683.3</ele>
        <time>2017-07-02T10:51:29Z</time>
      </trkpt>
      <trkpt lat="42.38536" lon="0.14322">
        <ele>683.5</ele>
        <time>2017-07-02T10:51:31Z</time>
      </trkpt>
      <trkpt lat="42.38533" lon="0.14328">
        <ele>683.8</ele>
        <time>2017-07-02T10:51:33Z</time>
      </trkpt>
      <trkpt lat="42.38532" lon="0.14334">
        <ele>684</ele>
        <time>2017-07-02T10:51:35Z</time>
      </trkpt>
      <trkpt lat="42.38531" lon="0.1434">
        <ele>684.3</ele>
        <time>2017-07-02T10:51:37Z</time>
      </trkpt>
      <trkpt lat="42.3853" lon="0.14346">
        <ele>684.9</ele>
        <time>2017-07-02T10:51:39Z</time>
      </trkpt>
      <trkpt lat="42.38528" lon="0.14352">
        <ele>685.6</ele>
        <time>2017-07-02T10:51:41Z</time>
      </trkpt>
      <trkpt lat="42.38525" lon="0.14358">
        <ele>686.1</ele>
        <time>2017-07-02T10:51:43Z</time>
      </trkpt>
      <trkpt lat="42.38524" lon="0.14363">
        <ele>686.5</ele>
        <time>2017-07-02T10:51:45Z</time>
      </trkpt>
      <trkpt lat="42.38522" lon="0.14369">
        <ele>687</ele>
        <time>2017-07-02T10:51:47Z</time>
      </trkpt>
      <trkpt lat="42.38522" lon="0.14376">
        <ele>687.7</ele>
        <time>2017-07-02T10:51:49Z</time>
      </trkpt>
      <trkpt lat="42.38524" lon="0.14381">
        <ele>688</ele>
        <time>2017-07-02T10:51:51Z</time>
      </trkpt>
      <trkpt lat="42.38528" lon="0.14384">
        <ele>688.3</ele>
        <time>2017-07-02T10:51:53Z</time>
      </trkpt>
      <trkpt lat="42.38533" lon="0.14382">
        <ele>688.8</ele>
        <time>2017-07-02T10:51:55Z</time>
      </trkpt>
      <trkpt lat="42.38536" lon="0.1438">
        <ele>689.2</ele>
        <time>2017-07-02T10:51:56Z</time>
      </trkpt>
      <trkpt lat="42.38538" lon="0.14377">
        <ele>689.6</ele>
        <time>2017-07-02T10:51:57Z</time>
      </trkpt>
      <trkpt lat="42.3854" lon="0.14374">
        <ele>689.9</ele>
        <time>2017-07-02T10:51:58Z</time>
      </trkpt>
      <trkpt lat="42.38543" lon="0.1437">
        <ele>690.2</ele>
        <time>2017-07-02T10:52:00Z</time>
      </trkpt>
      <trkpt lat="42.38546" lon="0.14366">
        <ele>690.4</ele>
        <time>2017-07-02T10:52:02Z</time>
      </trkpt>
      <trkpt lat="42.3855" lon="0.14363">
        <ele>690.6</ele>
        <time>2017-07-02T10:52:04Z</time>
      </trkpt>
      <trkpt lat="42.38554" lon="0.14359">
        <ele>690.9</ele>
        <time>2017-07-02T10:52:06Z</time>
      </trkpt>
      <trkpt lat="42.38557" lon="0.14356">
        <ele>691.2</ele>
        <time>2017-07-02T10:52:08Z</time>
      </trkpt>
      <trkpt lat="42.3856" lon="0.14352">
        <ele>691.7</ele>
        <time>2017-07-02T10:52:10Z</time>
      </trkpt>
      <trkpt lat="42.38563" lon="0.14349">
        <ele>692.2</ele>
        <time>2017-07-02T10:52:12Z</time>
      </trkpt>
      <trkpt lat="42.38566" lon="0.14346">
        <ele>692.5</ele>
        <time>2017-07-02T10:52:14Z</time>
      </trkpt>
      <trkpt lat="42.3857" lon="0.14343">
        <ele>692.8</ele>
        <time>2017-07-02T10:52:16Z</time>
      </trkpt>
      <trkpt lat="42.38574" lon="0.1434">
        <ele>693.2</ele>
        <time>2017-07-02T10:52:18Z</time>
      </trkpt>
      <trkpt lat="42.38577" lon="0.14336">
        <ele>693.9</ele>
        <time>2017-07-02T10:52:20Z</time>
      </trkpt>
      <trkpt lat="42.38581" lon="0.14334">
        <ele>694.5</ele>
        <time>2017-07-02T10:52:22Z</time>
      </trkpt>
      <trkpt lat="42.38584" lon="0.14332">
        <ele>694.9</ele>
        <time>2017-07-02T10:52:24Z</time>
      </trkpt>
      <trkpt lat="42.38588" lon="0.1433">
        <ele>695.2</ele>
        <time>2017-07-02T10:52:26Z</time>
      </trkpt>
      <trkpt lat="42.38591" lon="0.14327">
        <ele>695.6</ele>
        <time>2017-07-02T10:52:28Z</time>
      </trkpt>
      <trkpt lat="42.38593" lon="0.14325">
        <ele>696.1</ele>
        <time>2017-07-02T10:52:30Z</time>
      </trkpt>
      <trkpt lat="42.38597" lon="0.14324">
        <ele>696.6</ele>
        <time>2017-07-02T10:52:32Z</time>
      </trkpt>
      <trkpt lat="42.386" lon="0.14323">
        <ele>697.2</ele>
        <time>2017-07-02T10:52:34Z</time>
      </trkpt>
      <trkpt lat="42.38603" lon="0.14321">
        <ele>697.5</ele>
        <time>2017-07-02T10:52:36Z</time>
      </trkpt>
      <trkpt lat="42.38606" lon="0.14319">
        <ele>697.8</ele>
        <time>2017-07-02T10:52:38Z</time>
      </trkpt>
      <trkpt lat="42.38609" lon="0.14318">
        <ele>698.2</ele>
        <time>2017-07-02T10:52:40Z</time>
      </trkpt>
      <trkpt lat="42.38612" lon="0.14317">
        <ele>698.7</ele>
        <time>2017-07-02T10:52:42Z</time>
      </trkpt>
      <trkpt lat="42.38616" lon="0.14315">
        <ele>699.2</ele>
        <time>2017-07-02T10:52:44Z</time>
      </trkpt>
      <trkpt lat="42.38618" lon="0.14312">
        <ele>699.5</ele>
        <time>2017-07-02T10:52:46Z</time>
      </trkpt>
      <trkpt lat="42.38621" lon="0.1431">
        <ele>699.7</ele>
        <time>2017-07-02T10:52:48Z</time>
      </trkpt>
      <trkpt lat="42.38624" lon="0.14307">
        <ele>700.2</ele>
        <time>2017-07-02T10:52:50Z</time>
      </trkpt>
      <trkpt lat="42.38627" lon="0.14304">
        <ele>700.7</ele>
        <time>2017-07-02T10:52:52Z</time>
      </trkpt>
      <trkpt lat="42.38631" lon="0.14302">
        <ele>701.2</ele>
        <time>2017-07-02T10:52:54Z</time>
      </trkpt>
      <trkpt lat="42.38634" lon="0.143">
        <ele>701.6</ele>
        <time>2017-07-02T10:52:56Z</time>
      </trkpt>
      <trkpt lat="42.38637" lon="0.14298">
        <ele>702</ele>
        <time>2017-07-02T10:52:58Z</time>
      </trkpt>
      <trkpt lat="42.38641" lon="0.14297">
        <ele>702.2</ele>
        <time>2017-07-02T10:53:00Z</time>
      </trkpt>
      <trkpt lat="42.38645" lon="0.14294">
        <ele>702.5</ele>
        <time>2017-07-02T10:53:02Z</time>
      </trkpt>
      <trkpt lat="42.38648" lon="0.14292">
        <ele>702.7</ele>
        <time>2017-07-02T10:53:04Z</time>
      </trkpt>
      <trkpt lat="42.38651" lon="0.14291">
        <ele>703.2</ele>
        <time>2017-07-02T10:53:06Z</time>
      </trkpt>
      <trkpt lat="42.38655" lon="0.14289">
        <ele>703.7</ele>
        <time>2017-07-02T10:53:08Z</time>
      </trkpt>
      <trkpt lat="42.38658" lon="0.14288">
        <ele>704</ele>
        <time>2017-07-02T10:53:10Z</time>
      </trkpt>
      <trkpt lat="42.38662" lon="0.14286">
        <ele>704.1</ele>
        <time>2017-07-02T10:53:12Z</time>
      </trkpt>
      <trkpt lat="42.38666" lon="0.14284">
        <ele>704.4</ele>
        <time>2017-07-02T10:53:14Z</time>
      </trkpt>
      <trkpt lat="42.38668" lon="0.14283">
        <ele>704.5</ele>
        <time>2017-07-02T10:53:15Z</time>
      </trkpt>
      <trkpt lat="42.38673" lon="0.14282">
        <ele>705</ele>
        <time>2017-07-02T10:53:17Z</time>
      </trkpt>
      <trkpt lat="42.38677" lon="0.1428">
        <ele>705.6</ele>
        <time>2017-07-02T10:53:19Z</time>
      </trkpt>
      <trkpt lat="42.38681" lon="0.14278">
        <ele>706.1</ele>
        <time>2017-07-02T10:53:21Z</time>
      </trkpt>
      <trkpt lat="42.38685" lon="0.14276">
        <ele>706.3</ele>
        <time>2017-07-02T10:53:23Z</time>
      </trkpt>
      <trkpt lat="42.38689" lon="0.14275">
        <ele>706.5</ele>
        <time>2017-07-02T10:53:25Z</time>
      </trkpt>
      <trkpt lat="42.38692" lon="0.14272">
        <ele>706.7</ele>
        <time>2017-07-02T10:53:27Z</time>
      </trkpt>
      <trkpt lat="42.38695" lon="0.1427">
        <ele>707.1</ele>
        <time>2017-07-02T10:53:29Z</time>
      </trkpt>
      <trkpt lat="42.38699" lon="0.14268">
        <ele>707.5</ele>
        <time>2017-07-02T10:53:31Z</time>
      </trkpt>
      <trkpt lat="42.38702" lon="0.14266">
        <ele>707.8</ele>
        <time>2017-07-02T10:53:33Z</time>
      </trkpt>
      <trkpt lat="42.38705" lon="0.14264">
        <ele>708.1</ele>
        <time>2017-07-02T10:53:35Z</time>
      </trkpt>
      <trkpt lat="42.38708" lon="0.14262">
        <ele>708.3</ele>
        <time>2017-07-02T10:53:37Z</time>
      </trkpt>
      <trkpt lat="42.38712" lon="0.14259">
        <ele>708.4</ele>
        <time>2017-07-02T10:53:39Z</time>
      </trkpt>
      <trkpt lat="42.38715" lon="0.14257">
        <ele>708.6</ele>
        <time>2017-07-02T10:53:41Z</time>
      </trkpt>
      <trkpt lat="42.38719" lon="0.14254">
        <ele>708.7</ele>
        <time>2017-07-02T10:53:43Z</time>
      </trkpt>
      <trkpt lat="42.38721" lon="0.14251">
        <ele>708.8</ele>
        <time>2017-07-02T10:53:45Z</time>
      </trkpt>
      <trkpt lat="42.38724" lon="0.14247">
        <ele>708.9</ele>
        <time>2017-07-02T10:53:47Z</time>
      </trkpt>
      <trkpt lat="42.38726" lon="0.14243">
        <ele>709</ele>
        <time>2017-07-02T10:53:49Z</time>
      </trkpt>
      <trkpt lat="42.38729" lon="0.14239">
        <ele>709.2</ele>
        <time>2017-07-02T10:53:51Z</time>
      </trkpt>
      <trkpt lat="42.3873" lon="0.14234">
        <ele>709.5</ele>
        <time>2017-07-02T10:53:53Z</time>
      </trkpt>
      <trkpt lat="42.38732" lon="0.14229">
        <ele>709.9</ele>
        <time>2017-07-02T10:53:55Z</time>
      </trkpt>
      <trkpt lat="42.38734" lon="0.14224">
        <ele>710.3</ele>
        <time>2017-07-02T10:53:57Z</time>
      </trkpt>
      <trkpt lat="42.38736" lon="0.14219">
        <ele>710.6</ele>
        <time>2017-07-02T10:53:59Z</time>
      </trkpt>
      <trkpt lat="42.38739" lon="0.14213">
        <ele>710.8</ele>
        <time>2017-07-02T10:54:01Z</time>
      </trkpt>
      <trkpt lat="42.3874" lon="0.14208">
        <ele>711</ele>
        <time>2017-07-02T10:54:03Z</time>
      </trkpt>
      <trkpt lat="42.38742" lon="0.14204">
        <ele>711.1</ele>
        <time>2017-07-02T10:54:05Z</time>
      </trkpt>
      <trkpt lat="42.38744" lon="0.142">
        <ele>711.2</ele>
        <time>2017-07-02T10:54:07Z</time>
      </trkpt>
      <trkpt lat="42.38746" lon="0.14197">
        <ele>711.4</ele>
        <time>2017-07-02T10:54:09Z</time>
      </trkpt>
      <trkpt lat="42.38748" lon="0.14193">
        <ele>711.7</ele>
        <time>2017-07-02T10:54:11Z</time>
      </trkpt>
      <trkpt lat="42.38751" lon="0.14189">
        <ele>712</ele>
        <time>2017-07-02T10:54:13Z</time>
      </trkpt>
      <trkpt lat="42.38754" lon="0.14185">
        <ele>712.1</ele>
        <time>2017-07-02T10:54:15Z</time>
      </trkpt>
      <trkpt lat="42.38757" lon="0.14181">
        <ele>712.2</ele>
        <time>2017-07-02T10:54:17Z</time>
      </trkpt>
      <trkpt lat="42.3876" lon="0.14177">
        <ele>712.3</ele>
        <time>2017-07-02T10:54:19Z</time>
      </trkpt>
      <trkpt lat="42.38763" lon="0.14172">
        <ele>712.4</ele>
        <time>2017-07-02T10:54:21Z</time>
      </trkpt>
      <trkpt lat="42.38766" lon="0.14168">
        <ele>712.5</ele>
        <time>2017-07-02T10:54:23Z</time>
      </trkpt>
      <trkpt lat="42.38769" lon="0.14164">
        <ele>712.5</ele>
        <time>2017-07-02T10:54:25Z</time>
      </trkpt>
      <trkpt lat="42.38773" lon="0.14159">
        <ele>712.6</ele>
        <time>2017-07-02T10:54:27Z</time>
      </trkpt>
      <trkpt lat="42.38775" lon="0.14156">
        <ele>712.6</ele>
        <time>2017-07-02T10:54:28Z</time>
      </trkpt>
      <trkpt lat="42.38778" lon="0.14153">
        <ele>712.7</ele>
        <time>2017-07-02T10:54:29Z</time>
      </trkpt>
      <trkpt lat="42.38781" lon="0.1415">
        <ele>712.7</ele>
        <time>2017-07-02T10:54:30Z</time>
      </trkpt>
      <trkpt lat="42.38783" lon="0.14147">
        <ele>712.8</ele>
        <time>2017-07-02T10:54:31Z</time>
      </trkpt>
      <trkpt lat="42.38786" lon="0.14143">
        <ele>712.8</ele>
        <time>2017-07-02T10:54:32Z</time>
      </trkpt>
      <trkpt lat="42.38789" lon="0.14139">
        <ele>712.8</ele>
        <time>2017-07-02T10:54:33Z</time>
      </trkpt>
      <trkpt lat="42.38793" lon="0.14135">
        <ele>712.8</ele>
        <time>2017-07-02T10:54:34Z</time>
      </trkpt>
      <trkpt lat="42.38796" lon="0.14131">
        <ele>712.8</ele>
        <time>2017-07-02T10:54:35Z</time>
      </trkpt>
      <trkpt lat="42.38799" lon="0.14126">
        <ele>712.8</ele>
        <time>2017-07-02T10:54:36Z</time>
      </trkpt>
      <trkpt lat="42.38802" lon="0.14122">
        <ele>712.8</ele>
        <time>2017-07-02T10:54:37Z</time>
      </trkpt>
      <trkpt lat="42.38805" lon="0.14117">
        <ele>712.8</ele>
        <time>2017-07-02T10:54:38Z</time>
      </trkpt>
      <trkpt lat="42.38809" lon="0.14111">
        <ele>712.7</ele>
        <time>2017-07-02T10:54:39Z</time>
      </trkpt>
      <trkpt lat="42.38812" lon="0.14106">
        <ele>712.7</ele>
        <time>2017-07-02T10:54:40Z</time>
      </trkpt>
      <trkpt lat="42.38816" lon="0.14101">
        <ele>712.6</ele>
        <time>2017-07-02T10:54:41Z</time>
      </trkpt>
      <trkpt lat="42.3882" lon="0.14096">
        <ele>712.5</ele>
        <time>2017-07-02T10:54:42Z</time>
      </trkpt>
      <trkpt lat="42.38823" lon="0.14092">
        <ele>712.3</ele>
        <time>2017-07-02T10:54:43Z</time>
      </trkpt>
      <trkpt lat="42.38827" lon="0.14088">
        <ele>712.1</ele>
        <time>2017-07-02T10:54:44Z</time>
      </trkpt>
      <trkpt lat="42.38831" lon="0.14085">
        <ele>711.9</ele>
        <time>2017-07-02T10:54:45Z</time>
      </trkpt>
      <trkpt lat="42.38834" lon="0.14082">
        <ele>711.9</ele>
        <time>2017-07-02T10:54:46Z</time>
      </trkpt>
      <trkpt lat="42.38837" lon="0.1408">
        <ele>711.9</ele>
        <time>2017-07-02T10:54:47Z</time>
      </trkpt>
      <trkpt lat="42.3884" lon="0.14077">
        <ele>711.9</ele>
        <time>2017-07-02T10:54:48Z</time>
      </trkpt>
      <trkpt lat="42.38842" lon="0.14074">
        <ele>711.9</ele>
        <time>2017-07-02T10:54:49Z</time>
      </trkpt>
      <trkpt lat="42.38845" lon="0.14072">
        <ele>711.9</ele>
        <time>2017-07-02T10:54:50Z</time>
      </trkpt>
      <trkpt lat="42.38848" lon="0.14069">
        <ele>712</ele>
        <time>2017-07-02T10:54:51Z</time>
      </trkpt>
      <trkpt lat="42.3885" lon="0.14067">
        <ele>712.2</ele>
        <time>2017-07-02T10:54:52Z</time>
      </trkpt>
      <trkpt lat="42.38852" lon="0.14065">
        <ele>712.5</ele>
        <time>2017-07-02T10:54:53Z</time>
      </trkpt>
      <trkpt lat="42.38856" lon="0.1406">
        <ele>713.1</ele>
        <time>2017-07-02T10:54:55Z</time>
      </trkpt>
      <trkpt lat="42.38858" lon="0.14058">
        <ele>713.3</ele>
        <time>2017-07-02T10:54:56Z</time>
      </trkpt>
      <trkpt lat="42.38861" lon="0.14055">
        <ele>713.5</ele>
        <time>2017-07-02T10:54:57Z</time>
      </trkpt>
      <trkpt lat="42.38863" lon="0.14053">
        <ele>713.7</ele>
        <time>2017-07-02T10:54:58Z</time>
      </trkpt>
      <trkpt lat="42.38865" lon="0.1405">
        <ele>713.9</ele>
        <time>2017-07-02T10:54:59Z</time>
      </trkpt>
      <trkpt lat="42.38868" lon="0.14048">
        <ele>714.1</ele>
        <time>2017-07-02T10:55:00Z</time>
      </trkpt>
      <trkpt lat="42.3887" lon="0.14045">
        <ele>714.2</ele>
        <time>2017-07-02T10:55:01Z</time>
      </trkpt>
      <trkpt lat="42.38873" lon="0.14043">
        <ele>714.5</ele>
        <time>2017-07-02T10:55:02Z</time>
      </trkpt>
      <trkpt lat="42.38875" lon="0.1404">
        <ele>714.9</ele>
        <time>2017-07-02T10:55:03Z</time>
      </trkpt>
      <trkpt lat="42.38878" lon="0.14038">
        <ele>715.3</ele>
        <time>2017-07-02T10:55:04Z</time>
      </trkpt>
      <trkpt lat="42.38881" lon="0.14035">
        <ele>715.7</ele>
        <time>2017-07-02T10:55:05Z</time>
      </trkpt>
      <trkpt lat="42.38883" lon="0.14033">
        <ele>715.8</ele>
        <time>2017-07-02T10:55:06Z</time>
      </trkpt>
      <trkpt lat="42.38885" lon="0.1403">
        <ele>716</ele>
        <time>2017-07-02T10:55:07Z</time>
      </trkpt>
      <trkpt lat="42.38888" lon="0.14027">
        <ele>716.2</ele>
        <time>2017-07-02T10:55:08Z</time>
      </trkpt>
      <trkpt lat="42.3889" lon="0.14024">
        <ele>716.3</ele>
        <time>2017-07-02T10:55:09Z</time>
      </trkpt>
      <trkpt lat="42.38892" lon="0.14021">
        <ele>716.7</ele>
        <time>2017-07-02T10:55:10Z</time>
      </trkpt>
      <trkpt lat="42.38894" lon="0.14018">
        <ele>717.1</ele>
        <time>2017-07-02T10:55:11Z</time>
      </trkpt>
      <trkpt lat="42.38896" lon="0.14015">
        <ele>717.4</ele>
        <time>2017-07-02T10:55:12Z</time>
      </trkpt>
      <trkpt lat="42.38898" lon="0.14013">
        <ele>717.7</ele>
        <time>2017-07-02T10:55:13Z</time>
      </trkpt>
      <trkpt lat="42.38901" lon="0.1401">
        <ele>717.8</ele>
        <time>2017-07-02T10:55:14Z</time>
      </trkpt>
      <trkpt lat="42.38903" lon="0.14007">
        <ele>718</ele>
        <time>2017-07-02T10:55:15Z</time>
      </trkpt>
      <trkpt lat="42.38906" lon="0.14005">
        <ele>718.2</ele>
        <time>2017-07-02T10:55:16Z</time>
      </trkpt>
      <trkpt lat="42.38909" lon="0.14">
        <ele>718.5</ele>
        <time>2017-07-02T10:55:18Z</time>
      </trkpt>
      <trkpt lat="42.38912" lon="0.13996">
        <ele>719</ele>
        <time>2017-07-02T10:55:20Z</time>
      </trkpt>
      <trkpt lat="42.38915" lon="0.13991">
        <ele>719.4</ele>
        <time>2017-07-02T10:55:22Z</time>
      </trkpt>
      <trkpt lat="42.38918" lon="0.13988">
        <ele>719.7</ele>
        <time>2017-07-02T10:55:24Z</time>
      </trkpt>
      <trkpt lat="42.38921" lon="0.13984">
        <ele>719.9</ele>
        <time>2017-07-02T10:55:26Z</time>
      </trkpt>
      <trkpt lat="42.38923" lon="0.13981">
        <ele>720</ele>
        <time>2017-07-02T10:55:28Z</time>
      </trkpt>
      <trkpt lat="42.38927" lon="0.13976">
        <ele>720.1</ele>
        <time>2017-07-02T10:55:30Z</time>
      </trkpt>
      <trkpt lat="42.3893" lon="0.13972">
        <ele>720.2</ele>
        <time>2017-07-02T10:55:32Z</time>
      </trkpt>
      <trkpt lat="42.38933" lon="0.13967">
        <ele>720.3</ele>
        <time>2017-07-02T10:55:34Z</time>
      </trkpt>
      <trkpt lat="42.38936" lon="0.13961">
        <ele>720.4</ele>
        <time>2017-07-02T10:55:36Z</time>
      </trkpt>
      <trkpt lat="42.38938" lon="0.13955">
        <ele>720.5</ele>
        <time>2017-07-02T10:55:38Z</time>
      </trkpt>
      <trkpt lat="42.38941" lon="0.1395">
        <ele>720.6</ele>
        <time>2017-07-02T10:55:40Z</time>
      </trkpt>
      <trkpt lat="42.38943" lon="0.13944">
        <ele>720.7</ele>
        <time>2017-07-02T10:55:42Z</time>
      </trkpt>
      <trkpt lat="42.38945" lon="0.13941">
        <ele>720.9</ele>
        <time>2017-07-02T10:55:43Z</time>
      </trkpt>
      <trkpt lat="42.38948" lon="0.13935">
        <ele>721.4</ele>
        <time>2017-07-02T10:55:45Z</time>
      </trkpt>
      <trkpt lat="42.3895" lon="0.13929">
        <ele>722</ele>
        <time>2017-07-02T10:55:47Z</time>
      </trkpt>
      <trkpt lat="42.38953" lon="0.13923">
        <ele>722.4</ele>
        <time>2017-07-02T10:55:49Z</time>
      </trkpt>
      <trkpt lat="42.38955" lon="0.13918">
        <ele>722.6</ele>
        <time>2017-07-02T10:55:51Z</time>
      </trkpt>
      <trkpt lat="42.38957" lon="0.13912">
        <ele>722.9</ele>
        <time>2017-07-02T10:55:53Z</time>
      </trkpt>
      <trkpt lat="42.38959" lon="0.13908">
        <ele>723.1</ele>
        <time>2017-07-02T10:55:55Z</time>
      </trkpt>
      <trkpt lat="42.38961" lon="0.13904">
        <ele>723.4</ele>
        <time>2017-07-02T10:55:57Z</time>
      </trkpt>
      <trkpt lat="42.38963" lon="0.13899">
        <ele>723.9</ele>
        <time>2017-07-02T10:55:59Z</time>
      </trkpt>
      <trkpt lat="42.38966" lon="0.13895">
        <ele>724.5</ele>
        <time>2017-07-02T10:56:01Z</time>
      </trkpt>
      <trkpt lat="42.38968" lon="0.1389">
        <ele>724.9</ele>
        <time>2017-07-02T10:56:03Z</time>
      </trkpt>
      <trkpt lat="42.3897" lon="0.13884">
        <ele>725.3</ele>
        <time>2017-07-02T10:56:05Z</time>
      </trkpt>
      <trkpt lat="42.38972" lon="0.13879">
        <ele>725.8</ele>
        <time>2017-07-02T10:56:07Z</time>
      </trkpt>
      <trkpt lat="42.38974" lon="0.13875">
        <ele>726.4</ele>
        <time>2017-07-02T10:56:09Z</time>
      </trkpt>
      <trkpt lat="42.38976" lon="0.13871">
        <ele>726.8</ele>
        <time>2017-07-02T10:56:11Z</time>
      </trkpt>
      <trkpt lat="42.38977" lon="0.13868">
        <ele>727.1</ele>
        <time>2017-07-02T10:56:13Z</time>
      </trkpt>
      <trkpt lat="42.38979" lon="0.13864">
        <ele>727.7</ele>
        <time>2017-07-02T10:56:15Z</time>
      </trkpt>
      <trkpt lat="42.38981" lon="0.1386">
        <ele>728.3</ele>
        <time>2017-07-02T10:56:17Z</time>
      </trkpt>
      <trkpt lat="42.38982" lon="0.13856">
        <ele>728.9</ele>
        <time>2017-07-02T10:56:19Z</time>
      </trkpt>
      <trkpt lat="42.38984" lon="0.13852">
        <ele>729.4</ele>
        <time>2017-07-02T10:56:21Z</time>
      </trkpt>
      <trkpt lat="42.38985" lon="0.13848">
        <ele>729.7</ele>
        <time>2017-07-02T10:56:23Z</time>
      </trkpt>
      <trkpt lat="42.38987" lon="0.13844">
        <ele>730.2</ele>
        <time>2017-07-02T10:56:25Z</time>
      </trkpt>
      <trkpt lat="42.38989" lon="0.1384">
        <ele>730.7</ele>
        <time>2017-07-02T10:56:27Z</time>
      </trkpt>
      <trkpt lat="42.38991" lon="0.13836">
        <ele>731.3</ele>
        <time>2017-07-02T10:56:29Z</time>
      </trkpt>
      <trkpt lat="42.38992" lon="0.13832">
        <ele>731.5</ele>
        <time>2017-07-02T10:56:31Z</time>
      </trkpt>
      <trkpt lat="42.38993" lon="0.13827">
        <ele>731.8</ele>
        <time>2017-07-02T10:56:33Z</time>
      </trkpt>
      <trkpt lat="42.38994" lon="0.13822">
        <ele>732.1</ele>
        <time>2017-07-02T10:56:35Z</time>
      </trkpt>
      <trkpt lat="42.38996" lon="0.13818">
        <ele>732.7</ele>
        <time>2017-07-02T10:56:37Z</time>
      </trkpt>
      <trkpt lat="42.38997" lon="0.13814">
        <ele>733.3</ele>
        <time>2017-07-02T10:56:39Z</time>
      </trkpt>
      <trkpt lat="42.38999" lon="0.13809">
        <ele>733.9</ele>
        <time>2017-07-02T10:56:41Z</time>
      </trkpt>
      <trkpt lat="42.39001" lon="0.13805">
        <ele>734.2</ele>
        <time>2017-07-02T10:56:43Z</time>
      </trkpt>
      <trkpt lat="42.39003" lon="0.13801">
        <ele>734.6</ele>
        <time>2017-07-02T10:56:45Z</time>
      </trkpt>
      <trkpt lat="42.39007" lon="0.13797">
        <ele>735.1</ele>
        <time>2017-07-02T10:56:47Z</time>
      </trkpt>
      <trkpt lat="42.39009" lon="0.13793">
        <ele>735.6</ele>
        <time>2017-07-02T10:56:49Z</time>
      </trkpt>
      <trkpt lat="42.39011" lon="0.13789">
        <ele>735.8</ele>
        <time>2017-07-02T10:56:51Z</time>
      </trkpt>
      <trkpt lat="42.39012" lon="0.13786">
        <ele>736</ele>
        <time>2017-07-02T10:56:53Z</time>
      </trkpt>
      <trkpt lat="42.39014" lon="0.13782">
        <ele>736.2</ele>
        <time>2017-07-02T10:56:55Z</time>
      </trkpt>
      <trkpt lat="42.39016" lon="0.13778">
        <ele>736.3</ele>
        <time>2017-07-02T10:56:57Z</time>
      </trkpt>
      <trkpt lat="42.39018" lon="0.13774">
        <ele>736.6</ele>
        <time>2017-07-02T10:56:59Z</time>
      </trkpt>
      <trkpt lat="42.39021" lon="0.1377">
        <ele>737</ele>
        <time>2017-07-02T10:57:01Z</time>
      </trkpt>
      <trkpt lat="42.39023" lon="0.13766">
        <ele>737.5</ele>
        <time>2017-07-02T10:57:03Z</time>
      </trkpt>
      <trkpt lat="42.39026" lon="0.13762">
        <ele>738</ele>
        <time>2017-07-02T10:57:05Z</time>
      </trkpt>
      <trkpt lat="42.39028" lon="0.13758">
        <ele>738.3</ele>
        <time>2017-07-02T10:57:07Z</time>
      </trkpt>
      <trkpt lat="42.3903" lon="0.13754">
        <ele>738.7</ele>
        <time>2017-07-02T10:57:09Z</time>
      </trkpt>
      <trkpt lat="42.39033" lon="0.1375">
        <ele>739.1</ele>
        <time>2017-07-02T10:57:11Z</time>
      </trkpt>
      <trkpt lat="42.39035" lon="0.13746">
        <ele>739.6</ele>
        <time>2017-07-02T10:57:13Z</time>
      </trkpt>
      <trkpt lat="42.39037" lon="0.13742">
        <ele>740.1</ele>
        <time>2017-07-02T10:57:15Z</time>
      </trkpt>
      <trkpt lat="42.39039" lon="0.13738">
        <ele>740.5</ele>
        <time>2017-07-02T10:57:17Z</time>
      </trkpt>
      <trkpt lat="42.39041" lon="0.13734">
        <ele>740.8</ele>
        <time>2017-07-02T10:57:19Z</time>
      </trkpt>
      <trkpt lat="42.39043" lon="0.13729">
        <ele>741.1</ele>
        <time>2017-07-02T10:57:21Z</time>
      </trkpt>
      <trkpt lat="42.39045" lon="0.13724">
        <ele>741.6</ele>
        <time>2017-07-02T10:57:23Z</time>
      </trkpt>
      <trkpt lat="42.39047" lon="0.13718">
        <ele>742.2</ele>
        <time>2017-07-02T10:57:25Z</time>
      </trkpt>
      <trkpt lat="42.39049" lon="0.13713">
        <ele>742.8</ele>
        <time>2017-07-02T10:57:27Z</time>
      </trkpt>
      <trkpt lat="42.39052" lon="0.13708">
        <ele>743.1</ele>
        <time>2017-07-02T10:57:29Z</time>
      </trkpt>
      <trkpt lat="42.39055" lon="0.13703">
        <ele>743.4</ele>
        <time>2017-07-02T10:57:31Z</time>
      </trkpt>
      <trkpt lat="42.39057" lon="0.13699">
        <ele>743.9</ele>
        <time>2017-07-02T10:57:33Z</time>
      </trkpt>
      <trkpt lat="42.3906" lon="0.13694">
        <ele>744.6</ele>
        <time>2017-07-02T10:57:35Z</time>
      </trkpt>
      <trkpt lat="42.39063" lon="0.1369">
        <ele>745.1</ele>
        <time>2017-07-02T10:57:37Z</time>
      </trkpt>
      <trkpt lat="42.39066" lon="0.13685">
        <ele>745.3</ele>
        <time>2017-07-02T10:57:39Z</time>
      </trkpt>
      <trkpt lat="42.39069" lon="0.1368">
        <ele>745.6</ele>
        <time>2017-07-02T10:57:41Z</time>
      </trkpt>
      <trkpt lat="42.39071" lon="0.13675">
        <ele>745.8</ele>
        <time>2017-07-02T10:57:43Z</time>
      </trkpt>
      <trkpt lat="42.39073" lon="0.1367">
        <ele>746.3</ele>
        <time>2017-07-02T10:57:45Z</time>
      </trkpt>
      <trkpt lat="42.39076" lon="0.13665">
        <ele>746.7</ele>
        <time>2017-07-02T10:57:47Z</time>
      </trkpt>
      <trkpt lat="42.3908" lon="0.1366">
        <ele>746.8</ele>
        <time>2017-07-02T10:57:49Z</time>
      </trkpt>
      <trkpt lat="42.39083" lon="0.13654">
        <ele>746.9</ele>
        <time>2017-07-02T10:57:51Z</time>
      </trkpt>
      <trkpt lat="42.39086" lon="0.1365">
        <ele>747</ele>
        <time>2017-07-02T10:57:53Z</time>
      </trkpt>
      <trkpt lat="42.3909" lon="0.13646">
        <ele>747.1</ele>
        <time>2017-07-02T10:57:55Z</time>
      </trkpt>
      <trkpt lat="42.39094" lon="0.13642">
        <ele>747.1</ele>
        <time>2017-07-02T10:57:57Z</time>
      </trkpt>
      <trkpt lat="42.39097" lon="0.13639">
        <ele>747.2</ele>
        <time>2017-07-02T10:57:59Z</time>
      </trkpt>
      <trkpt lat="42.39101" lon="0.13635">
        <ele>747.2</ele>
        <time>2017-07-02T10:58:01Z</time>
      </trkpt>
      <trkpt lat="42.39106" lon="0.13631">
        <ele>747.2</ele>
        <time>2017-07-02T10:58:03Z</time>
      </trkpt>
      <trkpt lat="42.39108" lon="0.13628">
        <ele>747.3</ele>
        <time>2017-07-02T10:58:04Z</time>
      </trkpt>
      <trkpt lat="42.39111" lon="0.13625">
        <ele>747.3</ele>
        <time>2017-07-02T10:58:05Z</time>
      </trkpt>
      <trkpt lat="42.39114" lon="0.13623">
        <ele>747.3</ele>
        <time>2017-07-02T10:58:06Z</time>
      </trkpt>
      <trkpt lat="42.39117" lon="0.13621">
        <ele>747.3</ele>
        <time>2017-07-02T10:58:07Z</time>
      </trkpt>
      <trkpt lat="42.39119" lon="0.13618">
        <ele>747.3</ele>
        <time>2017-07-02T10:58:08Z</time>
      </trkpt>
      <trkpt lat="42.39122" lon="0.13616">
        <ele>747.4</ele>
        <time>2017-07-02T10:58:09Z</time>
      </trkpt>
      <trkpt lat="42.39124" lon="0.13614">
        <ele>747.4</ele>
        <time>2017-07-02T10:58:10Z</time>
      </trkpt>
      <trkpt lat="42.39127" lon="0.13612">
        <ele>747.4</ele>
        <time>2017-07-02T10:58:11Z</time>
      </trkpt>
      <trkpt lat="42.3913" lon="0.13609">
        <ele>747.4</ele>
        <time>2017-07-02T10:58:12Z</time>
      </trkpt>
      <trkpt lat="42.39133" lon="0.13607">
        <ele>747.4</ele>
        <time>2017-07-02T10:58:13Z</time>
      </trkpt>
      <trkpt lat="42.39136" lon="0.13605">
        <ele>747.5</ele>
        <time>2017-07-02T10:58:14Z</time>
      </trkpt>
      <trkpt lat="42.39139" lon="0.13603">
        <ele>747.5</ele>
        <time>2017-07-02T10:58:15Z</time>
      </trkpt>
      <trkpt lat="42.39143" lon="0.13601">
        <ele>747.5</ele>
        <time>2017-07-02T10:58:16Z</time>
      </trkpt>
      <trkpt lat="42.39146" lon="0.136">
        <ele>747.6</ele>
        <time>2017-07-02T10:58:17Z</time>
      </trkpt>
      <trkpt lat="42.3915" lon="0.13599">
        <ele>747.6</ele>
        <time>2017-07-02T10:58:18Z</time>
      </trkpt>
      <trkpt lat="42.39154" lon="0.13598">
        <ele>747.7</ele>
        <time>2017-07-02T10:58:19Z</time>
      </trkpt>
      <trkpt lat="42.39158" lon="0.13598">
        <ele>747.7</ele>
        <time>2017-07-02T10:58:20Z</time>
      </trkpt>
      <trkpt lat="42.39161" lon="0.13597">
        <ele>747.8</ele>
        <time>2017-07-02T10:58:21Z</time>
      </trkpt>
      <trkpt lat="42.39166" lon="0.13596">
        <ele>747.9</ele>
        <time>2017-07-02T10:58:23Z</time>
      </trkpt>
      <trkpt lat="42.39169" lon="0.13595">
        <ele>748</ele>
        <time>2017-07-02T10:58:24Z</time>
      </trkpt>
      <trkpt lat="42.39171" lon="0.13595">
        <ele>748.1</ele>
        <time>2017-07-02T10:58:25Z</time>
      </trkpt>
      <trkpt lat="42.39176" lon="0.13594">
        <ele>748.7</ele>
        <time>2017-07-02T10:58:27Z</time>
      </trkpt>
      <trkpt lat="42.39181" lon="0.13593">
        <ele>749.5</ele>
        <time>2017-07-02T10:58:29Z</time>
      </trkpt>
      <trkpt lat="42.39186" lon="0.13592">
        <ele>750.1</ele>
        <time>2017-07-02T10:58:31Z</time>
      </trkpt>
      <trkpt lat="42.39191" lon="0.13591">
        <ele>750.7</ele>
        <time>2017-07-02T10:58:33Z</time>
      </trkpt>
      <trkpt lat="42.39196" lon="0.1359">
        <ele>751.7</ele>
        <time>2017-07-02T10:58:35Z</time>
      </trkpt>
      <trkpt lat="42.39201" lon="0.13589">
        <ele>752.4</ele>
        <time>2017-07-02T10:58:37Z</time>
      </trkpt>
      <trkpt lat="42.39203" lon="0.13589">
        <ele>752.8</ele>
        <time>2017-07-02T10:58:38Z</time>
      </trkpt>
      <trkpt lat="42.39207" lon="0.13588">
        <ele>753.3</ele>
        <time>2017-07-02T10:58:39Z</time>
      </trkpt>
      <trkpt lat="42.3921" lon="0.13587">
        <ele>754</ele>
        <time>2017-07-02T10:58:40Z</time>
      </trkpt>
      <trkpt lat="42.39213" lon="0.13586">
        <ele>754.4</ele>
        <time>2017-07-02T10:58:41Z</time>
      </trkpt>
      <trkpt lat="42.39216" lon="0.13584">
        <ele>754.7</ele>
        <time>2017-07-02T10:58:42Z</time>
      </trkpt>
      <trkpt lat="42.39218" lon="0.13583">
        <ele>755.1</ele>
        <time>2017-07-02T10:58:43Z</time>
      </trkpt>
      <trkpt lat="42.39221" lon="0.13582">
        <ele>755.5</ele>
        <time>2017-07-02T10:58:44Z</time>
      </trkpt>
      <trkpt lat="42.39223" lon="0.1358">
        <ele>755.8</ele>
        <time>2017-07-02T10:58:45Z</time>
      </trkpt>
      <trkpt lat="42.39226" lon="0.13579">
        <ele>756.2</ele>
        <time>2017-07-02T10:58:46Z</time>
      </trkpt>
      <trkpt lat="42.39229" lon="0.13577">
        <ele>756.4</ele>
        <time>2017-07-02T10:58:47Z</time>
      </trkpt>
      <trkpt lat="42.39231" lon="0.13575">
        <ele>756.5</ele>
        <time>2017-07-02T10:58:48Z</time>
      </trkpt>
      <trkpt lat="42.39233" lon="0.13572">
        <ele>756.6</ele>
        <time>2017-07-02T10:58:49Z</time>
      </trkpt>
      <trkpt lat="42.39235" lon="0.13569">
        <ele>756.7</ele>
        <time>2017-07-02T10:58:50Z</time>
      </trkpt>
      <trkpt lat="42.39238" lon="0.13566">
        <ele>756.9</ele>
        <time>2017-07-02T10:58:51Z</time>
      </trkpt>
      <trkpt lat="42.3924" lon="0.13563">
        <ele>757</ele>
        <time>2017-07-02T10:58:52Z</time>
      </trkpt>
      <trkpt lat="42.39242" lon="0.13559">
        <ele>757.3</ele>
        <time>2017-07-02T10:58:53Z</time>
      </trkpt>
      <trkpt lat="42.39244" lon="0.13556">
        <ele>757.6</ele>
        <time>2017-07-02T10:58:54Z</time>
      </trkpt>
      <trkpt lat="42.39246" lon="0.13553">
        <ele>757.9</ele>
        <time>2017-07-02T10:58:55Z</time>
      </trkpt>
      <trkpt lat="42.39248" lon="0.13548">
        <ele>758.3</ele>
        <time>2017-07-02T10:58:57Z</time>
      </trkpt>
      <trkpt lat="42.39251" lon="0.13542">
        <ele>758.5</ele>
        <time>2017-07-02T10:58:59Z</time>
      </trkpt>
      <trkpt lat="42.39255" lon="0.13536">
        <ele>758.6</ele>
        <time>2017-07-02T10:59:01Z</time>
      </trkpt>
      <trkpt lat="42.39256" lon="0.13532">
        <ele>758.6</ele>
        <time>2017-07-02T10:59:02Z</time>
      </trkpt>
      <trkpt lat="42.39258" lon="0.13529">
        <ele>758.7</ele>
        <time>2017-07-02T10:59:03Z</time>
      </trkpt>
      <trkpt lat="42.3926" lon="0.13525">
        <ele>758.7</ele>
        <time>2017-07-02T10:59:04Z</time>
      </trkpt>
      <trkpt lat="42.39262" lon="0.13521">
        <ele>758.7</ele>
        <time>2017-07-02T10:59:05Z</time>
      </trkpt>
      <trkpt lat="42.39263" lon="0.13517">
        <ele>758.7</ele>
        <time>2017-07-02T10:59:06Z</time>
      </trkpt>
      <trkpt lat="42.39265" lon="0.13513">
        <ele>758.7</ele>
        <time>2017-07-02T10:59:07Z</time>
      </trkpt>
      <trkpt lat="42.39267" lon="0.13509">
        <ele>758.7</ele>
        <time>2017-07-02T10:59:08Z</time>
      </trkpt>
      <trkpt lat="42.39269" lon="0.13504">
        <ele>758.7</ele>
        <time>2017-07-02T10:59:09Z</time>
      </trkpt>
      <trkpt lat="42.3927" lon="0.135">
        <ele>758.7</ele>
        <time>2017-07-02T10:59:10Z</time>
      </trkpt>
      <trkpt lat="42.39272" lon="0.13496">
        <ele>758.7</ele>
        <time>2017-07-02T10:59:11Z</time>
      </trkpt>
      <trkpt lat="42.39274" lon="0.13492">
        <ele>758.7</ele>
        <time>2017-07-02T10:59:12Z</time>
      </trkpt>
      <trkpt lat="42.39277" lon="0.13488">
        <ele>758.7</ele>
        <time>2017-07-02T10:59:13Z</time>
      </trkpt>
      <trkpt lat="42.3928" lon="0.13484">
        <ele>758.7</ele>
        <time>2017-07-02T10:59:14Z</time>
      </trkpt>
      <trkpt lat="42.39283" lon="0.1348">
        <ele>758.6</ele>
        <time>2017-07-02T10:59:15Z</time>
      </trkpt>
      <trkpt lat="42.39288" lon="0.13474">
        <ele>758.5</ele>
        <time>2017-07-02T10:59:16Z</time>
      </trkpt>
      <trkpt lat="42.39292" lon="0.13468">
        <ele>758.4</ele>
        <time>2017-07-02T10:59:17Z</time>
      </trkpt>
      <trkpt lat="42.39297" lon="0.13462">
        <ele>758.1</ele>
        <time>2017-07-02T10:59:18Z</time>
      </trkpt>
      <trkpt lat="42.39302" lon="0.13455">
        <ele>757.7</ele>
        <time>2017-07-02T10:59:19Z</time>
      </trkpt>
      <trkpt lat="42.39307" lon="0.13447">
        <ele>757.2</ele>
        <time>2017-07-02T10:59:20Z</time>
      </trkpt>
      <trkpt lat="42.39312" lon="0.13439">
        <ele>756.7</ele>
        <time>2017-07-02T10:59:21Z</time>
      </trkpt>
      <trkpt lat="42.39317" lon="0.1343">
        <ele>756</ele>
        <time>2017-07-02T10:59:22Z</time>
      </trkpt>
      <trkpt lat="42.39319" lon="0.13422">
        <ele>755.5</ele>
        <time>2017-07-02T10:59:23Z</time>
      </trkpt>
      <trkpt lat="42.39317" lon="0.13414">
        <ele>755</ele>
        <time>2017-07-02T10:59:24Z</time>
      </trkpt>
      <trkpt lat="42.39318" lon="0.13406">
        <ele>754.4</ele>
        <time>2017-07-02T10:59:25Z</time>
      </trkpt>
      <trkpt lat="42.39319" lon="0.13399">
        <ele>753.9</ele>
        <time>2017-07-02T10:59:26Z</time>
      </trkpt>
      <trkpt lat="42.3932" lon="0.1339">
        <ele>753.3</ele>
        <time>2017-07-02T10:59:27Z</time>
      </trkpt>
      <trkpt lat="42.39321" lon="0.1338">
        <ele>752.6</ele>
        <time>2017-07-02T10:59:28Z</time>
      </trkpt>
      <trkpt lat="42.39321" lon="0.1337">
        <ele>752</ele>
        <time>2017-07-02T10:59:29Z</time>
      </trkpt>
      <trkpt lat="42.3932" lon="0.1336">
        <ele>751.5</ele>
        <time>2017-07-02T10:59:30Z</time>
      </trkpt>
      <trkpt lat="42.39319" lon="0.1335">
        <ele>751</ele>
        <time>2017-07-02T10:59:31Z</time>
      </trkpt>
      <trkpt lat="42.3932" lon="0.1334">
        <ele>750.6</ele>
        <time>2017-07-02T10:59:32Z</time>
      </trkpt>
      <trkpt lat="42.39321" lon="0.13329">
        <ele>750.1</ele>
        <time>2017-07-02T10:59:33Z</time>
      </trkpt>
      <trkpt lat="42.39321" lon="0.13319">
        <ele>749.7</ele>
        <time>2017-07-02T10:59:34Z</time>
      </trkpt>
      <trkpt lat="42.39322" lon="0.13311">
        <ele>749.3</ele>
        <time>2017-07-02T10:59:35Z</time>
      </trkpt>
      <trkpt lat="42.39323" lon="0.13303">
        <ele>748.9</ele>
        <time>2017-07-02T10:59:36Z</time>
      </trkpt>
      <trkpt lat="42.39324" lon="0.13296">
        <ele>748.6</ele>
        <time>2017-07-02T10:59:37Z</time>
      </trkpt>
      <trkpt lat="42.39325" lon="0.13288">
        <ele>748.2</ele>
        <time>2017-07-02T10:59:38Z</time>
      </trkpt>
      <trkpt lat="42.39327" lon="0.13283">
        <ele>747.9</ele>
        <time>2017-07-02T10:59:39Z</time>
      </trkpt>
      <trkpt lat="42.3933" lon="0.13277">
        <ele>747.5</ele>
        <time>2017-07-02T10:59:40Z</time>
      </trkpt>
      <trkpt lat="42.39334" lon="0.1327">
        <ele>747</ele>
        <time>2017-07-02T10:59:41Z</time>
      </trkpt>
      <trkpt lat="42.39338" lon="0.13265">
        <ele>746.5</ele>
        <time>2017-07-02T10:59:42Z</time>
      </trkpt>
      <trkpt lat="42.39342" lon="0.1326">
        <ele>746.1</ele>
        <time>2017-07-02T10:59:43Z</time>
      </trkpt>
      <trkpt lat="42.39345" lon="0.13254">
        <ele>745.6</ele>
        <time>2017-07-02T10:59:44Z</time>
      </trkpt>
      <trkpt lat="42.39348" lon="0.13246">
        <ele>745</ele>
        <time>2017-07-02T10:59:45Z</time>
      </trkpt>
      <trkpt lat="42.39349" lon="0.13237">
        <ele>744.5</ele>
        <time>2017-07-02T10:59:46Z</time>
      </trkpt>
      <trkpt lat="42.39352" lon="0.13229">
        <ele>743.9</ele>
        <time>2017-07-02T10:59:47Z</time>
      </trkpt>
      <trkpt lat="42.39356" lon="0.13222">
        <ele>743.3</ele>
        <time>2017-07-02T10:59:48Z</time>
      </trkpt>
      <trkpt lat="42.39361" lon="0.13216">
        <ele>742.8</ele>
        <time>2017-07-02T10:59:49Z</time>
      </trkpt>
      <trkpt lat="42.39365" lon="0.13209">
        <ele>742.3</ele>
        <time>2017-07-02T10:59:50Z</time>
      </trkpt>
      <trkpt lat="42.39371" lon="0.13203">
        <ele>741.8</ele>
        <time>2017-07-02T10:59:51Z</time>
      </trkpt>
      <trkpt lat="42.39375" lon="0.13197">
        <ele>741.3</ele>
        <time>2017-07-02T10:59:52Z</time>
      </trkpt>
      <trkpt lat="42.39381" lon="0.13191">
        <ele>740.8</ele>
        <time>2017-07-02T10:59:53Z</time>
      </trkpt>
      <trkpt lat="42.39385" lon="0.13185">
        <ele>740.3</ele>
        <time>2017-07-02T10:59:54Z</time>
      </trkpt>
      <trkpt lat="42.39391" lon="0.1318">
        <ele>739.8</ele>
        <time>2017-07-02T10:59:55Z</time>
      </trkpt>
      <trkpt lat="42.39396" lon="0.13176">
        <ele>739.3</ele>
        <time>2017-07-02T10:59:56Z</time>
      </trkpt>
      <trkpt lat="42.39401" lon="0.1317">
        <ele>738.8</ele>
        <time>2017-07-02T10:59:57Z</time>
      </trkpt>
      <trkpt lat="42.39411" lon="0.13165">
        <ele>738</ele>
        <time>2017-07-02T10:59:58Z</time>
      </trkpt>
      <trkpt lat="42.39409" lon="0.13158">
        <ele>737.5</ele>
        <time>2017-07-02T10:59:59Z</time>
      </trkpt>
      <trkpt lat="42.3941" lon="0.13152">
        <ele>737.1</ele>
        <time>2017-07-02T11:00:00Z</time>
      </trkpt>
      <trkpt lat="42.3941" lon="0.13145">
        <ele>736.8</ele>
        <time>2017-07-02T11:00:01Z</time>
      </trkpt>
      <trkpt lat="42.39412" lon="0.13139">
        <ele>736.4</ele>
        <time>2017-07-02T11:00:02Z</time>
      </trkpt>
      <trkpt lat="42.39412" lon="0.13134">
        <ele>736.3</ele>
        <time>2017-07-02T11:00:03Z</time>
      </trkpt>
      <trkpt lat="42.39415" lon="0.13129">
        <ele>736.1</ele>
        <time>2017-07-02T11:00:04Z</time>
      </trkpt>
      <trkpt lat="42.39419" lon="0.13122">
        <ele>735.7</ele>
        <time>2017-07-02T11:00:05Z</time>
      </trkpt>
      <trkpt lat="42.39418" lon="0.13113">
        <ele>735.4</ele>
        <time>2017-07-02T11:00:06Z</time>
      </trkpt>
      <trkpt lat="42.39419" lon="0.13106">
        <ele>735.1</ele>
        <time>2017-07-02T11:00:07Z</time>
      </trkpt>
      <trkpt lat="42.39418" lon="0.13099">
        <ele>734.9</ele>
        <time>2017-07-02T11:00:08Z</time>
      </trkpt>
      <trkpt lat="42.39418" lon="0.13092">
        <ele>734.7</ele>
        <time>2017-07-02T11:00:09Z</time>
      </trkpt>
      <trkpt lat="42.39422" lon="0.13085">
        <ele>734.6</ele>
        <time>2017-07-02T11:00:10Z</time>
      </trkpt>
      <trkpt lat="42.39425" lon="0.13079">
        <ele>734.5</ele>
        <time>2017-07-02T11:00:11Z</time>
      </trkpt>
      <trkpt lat="42.39428" lon="0.13073">
        <ele>734.4</ele>
        <time>2017-07-02T11:00:12Z</time>
      </trkpt>
      <trkpt lat="42.39431" lon="0.13067">
        <ele>734.4</ele>
        <time>2017-07-02T11:00:13Z</time>
      </trkpt>
      <trkpt lat="42.39435" lon="0.13063">
        <ele>734.3</ele>
        <time>2017-07-02T11:00:14Z</time>
      </trkpt>
      <trkpt lat="42.39438" lon="0.13059">
        <ele>734.3</ele>
        <time>2017-07-02T11:00:15Z</time>
      </trkpt>
      <trkpt lat="42.39444" lon="0.13055">
        <ele>734.3</ele>
        <time>2017-07-02T11:00:16Z</time>
      </trkpt>
      <trkpt lat="42.39448" lon="0.13051">
        <ele>734.2</ele>
        <time>2017-07-02T11:00:17Z</time>
      </trkpt>
      <trkpt lat="42.39451" lon="0.13046">
        <ele>734.2</ele>
        <time>2017-07-02T11:00:18Z</time>
      </trkpt>
      <trkpt lat="42.39454" lon="0.13041">
        <ele>734.1</ele>
        <time>2017-07-02T11:00:19Z</time>
      </trkpt>
      <trkpt lat="42.39458" lon="0.13036">
        <ele>734</ele>
        <time>2017-07-02T11:00:20Z</time>
      </trkpt>
      <trkpt lat="42.39463" lon="0.13031">
        <ele>733.9</ele>
        <time>2017-07-02T11:00:21Z</time>
      </trkpt>
      <trkpt lat="42.39457" lon="0.13023">
        <ele>733.7</ele>
        <time>2017-07-02T11:00:22Z</time>
      </trkpt>
      <trkpt lat="42.3946" lon="0.13019">
        <ele>733.5</ele>
        <time>2017-07-02T11:00:23Z</time>
      </trkpt>
      <trkpt lat="42.39463" lon="0.1302">
        <ele>733.4</ele>
        <time>2017-07-02T11:00:24Z</time>
      </trkpt>
      <trkpt lat="42.39466" lon="0.13015">
        <ele>733.2</ele>
        <time>2017-07-02T11:00:25Z</time>
      </trkpt>
      <trkpt lat="42.39472" lon="0.13011">
        <ele>732.9</ele>
        <time>2017-07-02T11:00:26Z</time>
      </trkpt>
      <trkpt lat="42.39475" lon="0.13005">
        <ele>732.7</ele>
        <time>2017-07-02T11:00:27Z</time>
      </trkpt>
      <trkpt lat="42.39478" lon="0.13">
        <ele>732.6</ele>
        <time>2017-07-02T11:00:28Z</time>
      </trkpt>
      <trkpt lat="42.39481" lon="0.12996">
        <ele>732.5</ele>
        <time>2017-07-02T11:00:29Z</time>
      </trkpt>
      <trkpt lat="42.39484" lon="0.1299">
        <ele>732.4</ele>
        <time>2017-07-02T11:00:30Z</time>
      </trkpt>
      <trkpt lat="42.39486" lon="0.12983">
        <ele>732.4</ele>
        <time>2017-07-02T11:00:31Z</time>
      </trkpt>
      <trkpt lat="42.39489" lon="0.12976">
        <ele>732.3</ele>
        <time>2017-07-02T11:00:32Z</time>
      </trkpt>
      <trkpt lat="42.39491" lon="0.1297">
        <ele>732.3</ele>
        <time>2017-07-02T11:00:33Z</time>
      </trkpt>
      <trkpt lat="42.39495" lon="0.12965">
        <ele>732.3</ele>
        <time>2017-07-02T11:00:34Z</time>
      </trkpt>
      <trkpt lat="42.39496" lon="0.12958">
        <ele>732.3</ele>
        <time>2017-07-02T11:00:35Z</time>
      </trkpt>
      <trkpt lat="42.395" lon="0.12952">
        <ele>732.2</ele>
        <time>2017-07-02T11:00:36Z</time>
      </trkpt>
      <trkpt lat="42.39501" lon="0.12945">
        <ele>732.2</ele>
        <time>2017-07-02T11:00:37Z</time>
      </trkpt>
      <trkpt lat="42.39502" lon="0.1294">
        <ele>732.2</ele>
        <time>2017-07-02T11:00:38Z</time>
      </trkpt>
      <trkpt lat="42.39503" lon="0.12933">
        <ele>732.2</ele>
        <time>2017-07-02T11:00:39Z</time>
      </trkpt>
      <trkpt lat="42.39503" lon="0.12928">
        <ele>732.2</ele>
        <time>2017-07-02T11:00:40Z</time>
      </trkpt>
      <trkpt lat="42.39504" lon="0.12922">
        <ele>732.1</ele>
        <time>2017-07-02T11:00:41Z</time>
      </trkpt>
      <trkpt lat="42.39505" lon="0.12917">
        <ele>732.1</ele>
        <time>2017-07-02T11:00:42Z</time>
      </trkpt>
      <trkpt lat="42.39507" lon="0.12912">
        <ele>732.1</ele>
        <time>2017-07-02T11:00:43Z</time>
      </trkpt>
      <trkpt lat="42.39509" lon="0.12907">
        <ele>732</ele>
        <time>2017-07-02T11:00:44Z</time>
      </trkpt>
      <trkpt lat="42.39514" lon="0.12902">
        <ele>732</ele>
        <time>2017-07-02T11:00:45Z</time>
      </trkpt>
      <trkpt lat="42.39518" lon="0.12897">
        <ele>731.8</ele>
        <time>2017-07-02T11:00:46Z</time>
      </trkpt>
      <trkpt lat="42.3952" lon="0.12892">
        <ele>731.7</ele>
        <time>2017-07-02T11:00:47Z</time>
      </trkpt>
      <trkpt lat="42.39523" lon="0.12887">
        <ele>731.6</ele>
        <time>2017-07-02T11:00:48Z</time>
      </trkpt>
      <trkpt lat="42.39526" lon="0.12883">
        <ele>731.6</ele>
        <time>2017-07-02T11:00:49Z</time>
      </trkpt>
      <trkpt lat="42.39529" lon="0.12878">
        <ele>731.6</ele>
        <time>2017-07-02T11:00:50Z</time>
      </trkpt>
      <trkpt lat="42.39531" lon="0.12876">
        <ele>731.6</ele>
        <time>2017-07-02T11:00:51Z</time>
      </trkpt>
      <trkpt lat="42.39535" lon="0.12874">
        <ele>731.8</ele>
        <time>2017-07-02T11:00:52Z</time>
      </trkpt>
      <trkpt lat="42.39539" lon="0.1287">
        <ele>732.1</ele>
        <time>2017-07-02T11:00:54Z</time>
      </trkpt>
      <trkpt lat="42.39541" lon="0.12868">
        <ele>732.3</ele>
        <time>2017-07-02T11:00:55Z</time>
      </trkpt>
      <trkpt lat="42.39543" lon="0.12865">
        <ele>732.4</ele>
        <time>2017-07-02T11:00:56Z</time>
      </trkpt>
      <trkpt lat="42.39546" lon="0.12861">
        <ele>732.6</ele>
        <time>2017-07-02T11:00:58Z</time>
      </trkpt>
      <trkpt lat="42.3955" lon="0.12861">
        <ele>732.9</ele>
        <time>2017-07-02T11:00:59Z</time>
      </trkpt>
      <trkpt lat="42.39553" lon="0.12859">
        <ele>733.1</ele>
        <time>2017-07-02T11:01:00Z</time>
      </trkpt>
      <trkpt lat="42.39557" lon="0.12856">
        <ele>733.4</ele>
        <time>2017-07-02T11:01:02Z</time>
      </trkpt>
      <trkpt lat="42.3956" lon="0.12852">
        <ele>733.5</ele>
        <time>2017-07-02T11:01:04Z</time>
      </trkpt>
      <trkpt lat="42.39563" lon="0.12849">
        <ele>733.6</ele>
        <time>2017-07-02T11:01:06Z</time>
      </trkpt>
      <trkpt lat="42.39566" lon="0.12847">
        <ele>733.6</ele>
        <time>2017-07-02T11:01:08Z</time>
      </trkpt>
      <trkpt lat="42.3957" lon="0.12844">
        <ele>733.7</ele>
        <time>2017-07-02T11:01:10Z</time>
      </trkpt>
      <trkpt lat="42.39573" lon="0.12841">
        <ele>733.8</ele>
        <time>2017-07-02T11:01:12Z</time>
      </trkpt>
      <trkpt lat="42.39577" lon="0.12838">
        <ele>733.9</ele>
        <time>2017-07-02T11:01:14Z</time>
      </trkpt>
      <trkpt lat="42.3958" lon="0.12835">
        <ele>734</ele>
        <time>2017-07-02T11:01:16Z</time>
      </trkpt>
      <trkpt lat="42.39584" lon="0.12832">
        <ele>734</ele>
        <time>2017-07-02T11:01:18Z</time>
      </trkpt>
      <trkpt lat="42.39586" lon="0.12828">
        <ele>734.2</ele>
        <time>2017-07-02T11:01:20Z</time>
      </trkpt>
      <trkpt lat="42.3959" lon="0.12824">
        <ele>734.4</ele>
        <time>2017-07-02T11:01:22Z</time>
      </trkpt>
      <trkpt lat="42.39594" lon="0.1282">
        <ele>734.7</ele>
        <time>2017-07-02T11:01:24Z</time>
      </trkpt>
      <trkpt lat="42.39597" lon="0.12817">
        <ele>734.9</ele>
        <time>2017-07-02T11:01:26Z</time>
      </trkpt>
      <trkpt lat="42.39601" lon="0.12814">
        <ele>735</ele>
        <time>2017-07-02T11:01:28Z</time>
      </trkpt>
      <trkpt lat="42.39606" lon="0.12811">
        <ele>735.1</ele>
        <time>2017-07-02T11:01:30Z</time>
      </trkpt>
      <trkpt lat="42.39608" lon="0.12809">
        <ele>735.2</ele>
        <time>2017-07-02T11:01:31Z</time>
      </trkpt>
      <trkpt lat="42.39613" lon="0.12807">
        <ele>735.3</ele>
        <time>2017-07-02T11:01:33Z</time>
      </trkpt>
      <trkpt lat="42.39617" lon="0.12807">
        <ele>735.4</ele>
        <time>2017-07-02T11:01:35Z</time>
      </trkpt>
      <trkpt lat="42.3962" lon="0.12806">
        <ele>735.7</ele>
        <time>2017-07-02T11:01:37Z</time>
      </trkpt>
      <trkpt lat="42.39624" lon="0.12804">
        <ele>736</ele>
        <time>2017-07-02T11:01:39Z</time>
      </trkpt>
      <trkpt lat="42.39627" lon="0.12802">
        <ele>736.1</ele>
        <time>2017-07-02T11:01:41Z</time>
      </trkpt>
      <trkpt lat="42.39631" lon="0.12799">
        <ele>736.1</ele>
        <time>2017-07-02T11:01:43Z</time>
      </trkpt>
      <trkpt lat="42.39634" lon="0.12797">
        <ele>736.2</ele>
        <time>2017-07-02T11:01:45Z</time>
      </trkpt>
      <trkpt lat="42.39638" lon="0.12795">
        <ele>736.2</ele>
        <time>2017-07-02T11:01:47Z</time>
      </trkpt>
      <trkpt lat="42.39641" lon="0.12793">
        <ele>736.3</ele>
        <time>2017-07-02T11:01:49Z</time>
      </trkpt>
      <trkpt lat="42.39645" lon="0.1279">
        <ele>736.4</ele>
        <time>2017-07-02T11:01:51Z</time>
      </trkpt>
      <trkpt lat="42.3965" lon="0.12786">
        <ele>736.4</ele>
        <time>2017-07-02T11:01:53Z</time>
      </trkpt>
      <trkpt lat="42.39652" lon="0.12784">
        <ele>736.5</ele>
        <time>2017-07-02T11:01:54Z</time>
      </trkpt>
      <trkpt lat="42.39656" lon="0.12781">
        <ele>736.7</ele>
        <time>2017-07-02T11:01:56Z</time>
      </trkpt>
      <trkpt lat="42.39659" lon="0.12778">
        <ele>736.9</ele>
        <time>2017-07-02T11:01:58Z</time>
      </trkpt>
      <trkpt lat="42.39661" lon="0.12775">
        <ele>737.3</ele>
        <time>2017-07-02T11:02:00Z</time>
      </trkpt>
      <trkpt lat="42.39664" lon="0.12773">
        <ele>737.6</ele>
        <time>2017-07-02T11:02:02Z</time>
      </trkpt>
      <trkpt lat="42.39666" lon="0.1277">
        <ele>737.9</ele>
        <time>2017-07-02T11:02:05Z</time>
      </trkpt>
      <trkpt lat="42.39666" lon="0.12767">
        <ele>738.3</ele>
        <time>2017-07-02T11:02:08Z</time>
      </trkpt>
      <trkpt lat="42.39668" lon="0.12762">
        <ele>738.8</ele>
        <time>2017-07-02T11:02:11Z</time>
      </trkpt>
      <trkpt lat="42.39669" lon="0.12758">
        <ele>739.3</ele>
        <time>2017-07-02T11:02:14Z</time>
      </trkpt>
      <trkpt lat="42.39669" lon="0.12754">
        <ele>739.7</ele>
        <time>2017-07-02T11:02:16Z</time>
      </trkpt>
      <trkpt lat="42.39668" lon="0.1275">
        <ele>740.2</ele>
        <time>2017-07-02T11:02:19Z</time>
      </trkpt>
      <trkpt lat="42.39667" lon="0.12744">
        <ele>740.5</ele>
        <time>2017-07-02T11:02:22Z</time>
      </trkpt>
      <trkpt lat="42.39666" lon="0.12739">
        <ele>740.8</ele>
        <time>2017-07-02T11:02:25Z</time>
      </trkpt>
      <trkpt lat="42.39664" lon="0.12737">
        <ele>741.2</ele>
        <time>2017-07-02T11:02:27Z</time>
      </trkpt>
      <trkpt lat="42.39661" lon="0.12733">
        <ele>741.5</ele>
        <time>2017-07-02T11:02:30Z</time>
      </trkpt>
      <trkpt lat="42.39658" lon="0.12732">
        <ele>741.7</ele>
        <time>2017-07-02T11:02:32Z</time>
      </trkpt>
      <trkpt lat="42.39654" lon="0.12733">
        <ele>741.9</ele>
        <time>2017-07-02T11:02:34Z</time>
      </trkpt>
      <trkpt lat="42.39651" lon="0.12734">
        <ele>742.1</ele>
        <time>2017-07-02T11:02:36Z</time>
      </trkpt>
      <trkpt lat="42.39648" lon="0.12734">
        <ele>742.4</ele>
        <time>2017-07-02T11:02:38Z</time>
      </trkpt>
      <trkpt lat="42.39644" lon="0.12734">
        <ele>743</ele>
        <time>2017-07-02T11:02:41Z</time>
      </trkpt>
      <trkpt lat="42.39641" lon="0.1273">
        <ele>743.5</ele>
        <time>2017-07-02T11:02:44Z</time>
      </trkpt>
      <trkpt lat="42.3964" lon="0.12726">
        <ele>743.9</ele>
        <time>2017-07-02T11:02:46Z</time>
      </trkpt>
      <trkpt lat="42.39638" lon="0.12721">
        <ele>744.1</ele>
        <time>2017-07-02T11:02:48Z</time>
      </trkpt>
      <trkpt lat="42.39636" lon="0.12716">
        <ele>744.2</ele>
        <time>2017-07-02T11:02:50Z</time>
      </trkpt>
      <trkpt lat="42.39633" lon="0.12713">
        <ele>744.2</ele>
        <time>2017-07-02T11:02:52Z</time>
      </trkpt>
      <trkpt lat="42.39631" lon="0.12712">
        <ele>744.3</ele>
        <time>2017-07-02T11:02:54Z</time>
      </trkpt>
      <trkpt lat="42.39626" lon="0.12711">
        <ele>744.3</ele>
        <time>2017-07-02T11:02:56Z</time>
      </trkpt>
      <trkpt lat="42.39622" lon="0.12711">
        <ele>744.3</ele>
        <time>2017-07-02T11:02:57Z</time>
      </trkpt>
      <trkpt lat="42.39618" lon="0.12711">
        <ele>744.2</ele>
        <time>2017-07-02T11:02:58Z</time>
      </trkpt>
      <trkpt lat="42.39614" lon="0.12712">
        <ele>744.2</ele>
        <time>2017-07-02T11:02:59Z</time>
      </trkpt>
      <trkpt lat="42.39611" lon="0.12714">
        <ele>744.1</ele>
        <time>2017-07-02T11:03:00Z</time>
      </trkpt>
      <trkpt lat="42.39608" lon="0.12716">
        <ele>744.1</ele>
        <time>2017-07-02T11:03:01Z</time>
      </trkpt>
      <trkpt lat="42.39605" lon="0.12718">
        <ele>744.1</ele>
        <time>2017-07-02T11:03:03Z</time>
      </trkpt>
      <trkpt lat="42.39602" lon="0.12717">
        <ele>744.1</ele>
        <time>2017-07-02T11:03:05Z</time>
      </trkpt>
      <trkpt lat="42.39599" lon="0.12714">
        <ele>744.1</ele>
        <time>2017-07-02T11:03:07Z</time>
      </trkpt>
      <trkpt lat="42.39595" lon="0.12711">
        <ele>744.2</ele>
        <time>2017-07-02T11:03:09Z</time>
      </trkpt>
      <trkpt lat="42.39592" lon="0.12708">
        <ele>744.3</ele>
        <time>2017-07-02T11:03:11Z</time>
      </trkpt>
      <trkpt lat="42.3959" lon="0.12706">
        <ele>744.3</ele>
        <time>2017-07-02T11:03:13Z</time>
      </trkpt>
      <trkpt lat="42.39587" lon="0.12704">
        <ele>744.4</ele>
        <time>2017-07-02T11:03:15Z</time>
      </trkpt>
      <trkpt lat="42.39585" lon="0.12702">
        <ele>744.5</ele>
        <time>2017-07-02T11:03:17Z</time>
      </trkpt>
      <trkpt lat="42.39582" lon="0.127">
        <ele>744.7</ele>
        <time>2017-07-02T11:03:19Z</time>
      </trkpt>
      <trkpt lat="42.39579" lon="0.127">
        <ele>745</ele>
        <time>2017-07-02T11:03:21Z</time>
      </trkpt>
      <trkpt lat="42.39576" lon="0.127">
        <ele>745.2</ele>
        <time>2017-07-02T11:03:23Z</time>
      </trkpt>
      <trkpt lat="42.39573" lon="0.12699">
        <ele>745.5</ele>
        <time>2017-07-02T11:03:26Z</time>
      </trkpt>
      <trkpt lat="42.39569" lon="0.12697">
        <ele>745.7</ele>
        <time>2017-07-02T11:03:29Z</time>
      </trkpt>
      <trkpt lat="42.39566" lon="0.12694">
        <ele>746.1</ele>
        <time>2017-07-02T11:03:32Z</time>
      </trkpt>
      <trkpt lat="42.39564" lon="0.12691">
        <ele>746.5</ele>
        <time>2017-07-02T11:03:34Z</time>
      </trkpt>
      <trkpt lat="42.39563" lon="0.12688">
        <ele>746.7</ele>
        <time>2017-07-02T11:03:36Z</time>
      </trkpt>
      <trkpt lat="42.39562" lon="0.12683">
        <ele>747.1</ele>
        <time>2017-07-02T11:03:39Z</time>
      </trkpt>
      <trkpt lat="42.39561" lon="0.1268">
        <ele>747.5</ele>
        <time>2017-07-02T11:03:41Z</time>
      </trkpt>
      <trkpt lat="42.39558" lon="0.12676">
        <ele>747.9</ele>
        <time>2017-07-02T11:03:43Z</time>
      </trkpt>
      <trkpt lat="42.39556" lon="0.12673">
        <ele>748.2</ele>
        <time>2017-07-02T11:03:45Z</time>
      </trkpt>
      <trkpt lat="42.39553" lon="0.12671">
        <ele>748.5</ele>
        <time>2017-07-02T11:03:47Z</time>
      </trkpt>
      <trkpt lat="42.3955" lon="0.1267">
        <ele>748.9</ele>
        <time>2017-07-02T11:03:49Z</time>
      </trkpt>
      <trkpt lat="42.39547" lon="0.12669">
        <ele>749.3</ele>
        <time>2017-07-02T11:03:51Z</time>
      </trkpt>
      <trkpt lat="42.39544" lon="0.12668">
        <ele>749.6</ele>
        <time>2017-07-02T11:03:53Z</time>
      </trkpt>
      <trkpt lat="42.3954" lon="0.12669">
        <ele>749.8</ele>
        <time>2017-07-02T11:03:55Z</time>
      </trkpt>
      <trkpt lat="42.39537" lon="0.1267">
        <ele>750.2</ele>
        <time>2017-07-02T11:03:57Z</time>
      </trkpt>
      <trkpt lat="42.39534" lon="0.12672">
        <ele>750.6</ele>
        <time>2017-07-02T11:03:59Z</time>
      </trkpt>
      <trkpt lat="42.3953" lon="0.12672">
        <ele>750.9</ele>
        <time>2017-07-02T11:04:01Z</time>
      </trkpt>
      <trkpt lat="42.39527" lon="0.12671">
        <ele>751</ele>
        <time>2017-07-02T11:04:03Z</time>
      </trkpt>
      <trkpt lat="42.39524" lon="0.12669">
        <ele>751.2</ele>
        <time>2017-07-02T11:04:05Z</time>
      </trkpt>
      <trkpt lat="42.39521" lon="0.12668">
        <ele>751.3</ele>
        <time>2017-07-02T11:04:07Z</time>
      </trkpt>
      <trkpt lat="42.39517" lon="0.12667">
        <ele>751.4</ele>
        <time>2017-07-02T11:04:09Z</time>
      </trkpt>
      <trkpt lat="42.39514" lon="0.12666">
        <ele>751.6</ele>
        <time>2017-07-02T11:04:11Z</time>
      </trkpt>
      <trkpt lat="42.39511" lon="0.12665">
        <ele>751.8</ele>
        <time>2017-07-02T11:04:13Z</time>
      </trkpt>
      <trkpt lat="42.39509" lon="0.12663">
        <ele>752.1</ele>
        <time>2017-07-02T11:04:15Z</time>
      </trkpt>
      <trkpt lat="42.39506" lon="0.12662">
        <ele>752.2</ele>
        <time>2017-07-02T11:04:17Z</time>
      </trkpt>
      <trkpt lat="42.39503" lon="0.12662">
        <ele>752.3</ele>
        <time>2017-07-02T11:04:19Z</time>
      </trkpt>
      <trkpt lat="42.395" lon="0.12662">
        <ele>752.4</ele>
        <time>2017-07-02T11:04:21Z</time>
      </trkpt>
      <trkpt lat="42.39498" lon="0.12662">
        <ele>752.5</ele>
        <time>2017-07-02T11:04:23Z</time>
      </trkpt>
      <trkpt lat="42.39495" lon="0.12664">
        <ele>752.7</ele>
        <time>2017-07-02T11:04:25Z</time>
      </trkpt>
      <trkpt lat="42.39492" lon="0.12666">
        <ele>752.8</ele>
        <time>2017-07-02T11:04:27Z</time>
      </trkpt>
      <trkpt lat="42.39489" lon="0.12667">
        <ele>753.1</ele>
        <time>2017-07-02T11:04:29Z</time>
      </trkpt>
      <trkpt lat="42.39486" lon="0.12667">
        <ele>753.4</ele>
        <time>2017-07-02T11:04:31Z</time>
      </trkpt>
      <trkpt lat="42.39483" lon="0.12665">
        <ele>753.6</ele>
        <time>2017-07-02T11:04:33Z</time>
      </trkpt>
      <trkpt lat="42.39481" lon="0.12663">
        <ele>753.8</ele>
        <time>2017-07-02T11:04:35Z</time>
      </trkpt>
      <trkpt lat="42.39478" lon="0.12661">
        <ele>754</ele>
        <time>2017-07-02T11:04:37Z</time>
      </trkpt>
      <trkpt lat="42.39476" lon="0.12659">
        <ele>754.2</ele>
        <time>2017-07-02T11:04:39Z</time>
      </trkpt>
      <trkpt lat="42.39473" lon="0.12658">
        <ele>754.6</ele>
        <time>2017-07-02T11:04:42Z</time>
      </trkpt>
      <trkpt lat="42.3947" lon="0.12658">
        <ele>754.9</ele>
        <time>2017-07-02T11:04:45Z</time>
      </trkpt>
      <trkpt lat="42.39466" lon="0.1266">
        <ele>755.3</ele>
        <time>2017-07-02T11:04:48Z</time>
      </trkpt>
      <trkpt lat="42.39464" lon="0.12662">
        <ele>755.5</ele>
        <time>2017-07-02T11:04:50Z</time>
      </trkpt>
      <trkpt lat="42.3946" lon="0.12665">
        <ele>755.8</ele>
        <time>2017-07-02T11:04:53Z</time>
      </trkpt>
      <trkpt lat="42.39457" lon="0.12663">
        <ele>756.2</ele>
        <time>2017-07-02T11:04:55Z</time>
      </trkpt>
      <trkpt lat="42.39454" lon="0.12658">
        <ele>756.4</ele>
        <time>2017-07-02T11:04:57Z</time>
      </trkpt>
      <trkpt lat="42.39454" lon="0.12653">
        <ele>756.6</ele>
        <time>2017-07-02T11:04:59Z</time>
      </trkpt>
      <trkpt lat="42.39454" lon="0.1265">
        <ele>756.7</ele>
        <time>2017-07-02T11:05:01Z</time>
      </trkpt>
      <trkpt lat="42.39456" lon="0.12646">
        <ele>756.8</ele>
        <time>2017-07-02T11:05:03Z</time>
      </trkpt>
      <trkpt lat="42.3946" lon="0.12642">
        <ele>757.1</ele>
        <time>2017-07-02T11:05:49Z</time>
      </trkpt>
      <trkpt lat="42.39463" lon="0.1264">
        <ele>757.3</ele>
        <time>2017-07-02T11:05:51Z</time>
      </trkpt>
      <trkpt lat="42.39466" lon="0.12638">
        <ele>757.6</ele>
        <time>2017-07-02T11:05:53Z</time>
      </trkpt>
      <trkpt lat="42.39468" lon="0.12636">
        <ele>758</ele>
        <time>2017-07-02T11:05:55Z</time>
      </trkpt>
      <trkpt lat="42.3947" lon="0.12634">
        <ele>758.4</ele>
        <time>2017-07-02T11:05:57Z</time>
      </trkpt>
      <trkpt lat="42.39472" lon="0.12631">
        <ele>758.8</ele>
        <time>2017-07-02T11:05:59Z</time>
      </trkpt>
      <trkpt lat="42.39475" lon="0.12628">
        <ele>759.1</ele>
        <time>2017-07-02T11:06:01Z</time>
      </trkpt>
      <trkpt lat="42.39477" lon="0.12627">
        <ele>759.3</ele>
        <time>2017-07-02T11:06:03Z</time>
      </trkpt>
      <trkpt lat="42.3948" lon="0.12624">
        <ele>759.7</ele>
        <time>2017-07-02T11:06:06Z</time>
      </trkpt>
      <trkpt lat="42.39483" lon="0.12622">
        <ele>760</ele>
        <time>2017-07-02T11:06:08Z</time>
      </trkpt>
      <trkpt lat="42.39486" lon="0.12621">
        <ele>760.6</ele>
        <time>2017-07-02T11:06:11Z</time>
      </trkpt>
      <trkpt lat="42.3949" lon="0.12621">
        <ele>761.2</ele>
        <time>2017-07-02T11:06:13Z</time>
      </trkpt>
      <trkpt lat="42.39494" lon="0.1262">
        <ele>761.7</ele>
        <time>2017-07-02T11:06:15Z</time>
      </trkpt>
      <trkpt lat="42.39498" lon="0.1262">
        <ele>762.4</ele>
        <time>2017-07-02T11:06:18Z</time>
      </trkpt>
      <trkpt lat="42.39501" lon="0.12618">
        <ele>763</ele>
        <time>2017-07-02T11:06:21Z</time>
      </trkpt>
      <trkpt lat="42.39504" lon="0.12616">
        <ele>763.5</ele>
        <time>2017-07-02T11:06:23Z</time>
      </trkpt>
      <trkpt lat="42.39507" lon="0.12616">
        <ele>764</ele>
        <time>2017-07-02T11:06:25Z</time>
      </trkpt>
      <trkpt lat="42.3951" lon="0.12618">
        <ele>764.5</ele>
        <time>2017-07-02T11:06:27Z</time>
      </trkpt>
      <trkpt lat="42.39513" lon="0.12619">
        <ele>764.7</ele>
        <time>2017-07-02T11:06:29Z</time>
      </trkpt>
      <trkpt lat="42.39516" lon="0.12622">
        <ele>764.9</ele>
        <time>2017-07-02T11:06:32Z</time>
      </trkpt>
      <trkpt lat="42.39518" lon="0.12624">
        <ele>765</ele>
        <time>2017-07-02T11:06:34Z</time>
      </trkpt>
      <trkpt lat="42.39523" lon="0.12623">
        <ele>765.2</ele>
        <time>2017-07-02T11:06:37Z</time>
      </trkpt>
      <trkpt lat="42.39525" lon="0.1262">
        <ele>765.4</ele>
        <time>2017-07-02T11:06:39Z</time>
      </trkpt>
      <trkpt lat="42.39528" lon="0.12617">
        <ele>765.6</ele>
        <time>2017-07-02T11:06:41Z</time>
      </trkpt>
      <trkpt lat="42.3953" lon="0.12614">
        <ele>765.8</ele>
        <time>2017-07-02T11:06:43Z</time>
      </trkpt>
      <trkpt lat="42.39532" lon="0.12612">
        <ele>766.1</ele>
        <time>2017-07-02T11:06:46Z</time>
      </trkpt>
      <trkpt lat="42.39536" lon="0.12611">
        <ele>766.6</ele>
        <time>2017-07-02T11:06:48Z</time>
      </trkpt>
      <trkpt lat="42.39539" lon="0.12611">
        <ele>766.9</ele>
        <time>2017-07-02T11:06:50Z</time>
      </trkpt>
      <trkpt lat="42.39542" lon="0.12611">
        <ele>767.1</ele>
        <time>2017-07-02T11:06:52Z</time>
      </trkpt>
      <trkpt lat="42.39546" lon="0.12607">
        <ele>767.5</ele>
        <time>2017-07-02T11:06:55Z</time>
      </trkpt>
      <trkpt lat="42.39549" lon="0.12606">
        <ele>767.7</ele>
        <time>2017-07-02T11:06:57Z</time>
      </trkpt>
      <trkpt lat="42.39552" lon="0.12605">
        <ele>768.2</ele>
        <time>2017-07-02T11:06:59Z</time>
      </trkpt>
      <trkpt lat="42.39556" lon="0.12604">
        <ele>768.8</ele>
        <time>2017-07-02T11:07:01Z</time>
      </trkpt>
      <trkpt lat="42.39559" lon="0.12604">
        <ele>769.2</ele>
        <time>2017-07-02T11:07:03Z</time>
      </trkpt>
      <trkpt lat="42.39562" lon="0.12605">
        <ele>769.5</ele>
        <time>2017-07-02T11:07:05Z</time>
      </trkpt>
      <trkpt lat="42.39565" lon="0.12603">
        <ele>769.8</ele>
        <time>2017-07-02T11:07:07Z</time>
      </trkpt>
      <trkpt lat="42.39567" lon="0.12602">
        <ele>770.3</ele>
        <time>2017-07-02T11:07:09Z</time>
      </trkpt>
      <trkpt lat="42.3957" lon="0.12601">
        <ele>770.7</ele>
        <time>2017-07-02T11:07:11Z</time>
      </trkpt>
      <trkpt lat="42.39573" lon="0.12599">
        <ele>771.1</ele>
        <time>2017-07-02T11:07:14Z</time>
      </trkpt>
      <trkpt lat="42.39577" lon="0.12598">
        <ele>771.4</ele>
        <time>2017-07-02T11:07:16Z</time>
      </trkpt>
      <trkpt lat="42.39581" lon="0.12599">
        <ele>771.8</ele>
        <time>2017-07-02T11:07:18Z</time>
      </trkpt>
      <trkpt lat="42.39584" lon="0.126">
        <ele>772.2</ele>
        <time>2017-07-02T11:07:20Z</time>
      </trkpt>
      <trkpt lat="42.39587" lon="0.12598">
        <ele>772.9</ele>
        <time>2017-07-02T11:07:23Z</time>
      </trkpt>
      <trkpt lat="42.39589" lon="0.12595">
        <ele>773.5</ele>
        <time>2017-07-02T11:07:25Z</time>
      </trkpt>
      <trkpt lat="42.39592" lon="0.12593">
        <ele>774.2</ele>
        <time>2017-07-02T11:07:27Z</time>
      </trkpt>
      <trkpt lat="42.39595" lon="0.12593">
        <ele>774.9</ele>
        <time>2017-07-02T11:07:29Z</time>
      </trkpt>
      <trkpt lat="42.39599" lon="0.12594">
        <ele>775.3</ele>
        <time>2017-07-02T11:07:31Z</time>
      </trkpt>
      <trkpt lat="42.39601" lon="0.12598">
        <ele>775.7</ele>
        <time>2017-07-02T11:07:33Z</time>
      </trkpt>
      <trkpt lat="42.39603" lon="0.12602">
        <ele>776.2</ele>
        <time>2017-07-02T11:07:35Z</time>
      </trkpt>
      <trkpt lat="42.39604" lon="0.12606">
        <ele>776.8</ele>
        <time>2017-07-02T11:07:37Z</time>
      </trkpt>
      <trkpt lat="42.39607" lon="0.12609">
        <ele>777.3</ele>
        <time>2017-07-02T11:07:39Z</time>
      </trkpt>
      <trkpt lat="42.39611" lon="0.12608">
        <ele>777.7</ele>
        <time>2017-07-02T11:07:42Z</time>
      </trkpt>
      <trkpt lat="42.39614" lon="0.12607">
        <ele>777.9</ele>
        <time>2017-07-02T11:07:44Z</time>
      </trkpt>
      <trkpt lat="42.39617" lon="0.12607">
        <ele>778.2</ele>
        <time>2017-07-02T11:07:46Z</time>
      </trkpt>
      <trkpt lat="42.3962" lon="0.12606">
        <ele>778.6</ele>
        <time>2017-07-02T11:07:48Z</time>
      </trkpt>
      <trkpt lat="42.39624" lon="0.12607">
        <ele>779.2</ele>
        <time>2017-07-02T11:07:50Z</time>
      </trkpt>
      <trkpt lat="42.39627" lon="0.12608">
        <ele>779.6</ele>
        <time>2017-07-02T11:07:52Z</time>
      </trkpt>
      <trkpt lat="42.3963" lon="0.12606">
        <ele>779.9</ele>
        <time>2017-07-02T11:07:54Z</time>
      </trkpt>
      <trkpt lat="42.39633" lon="0.12602">
        <ele>780.2</ele>
        <time>2017-07-02T11:07:57Z</time>
      </trkpt>
      <trkpt lat="42.39636" lon="0.12601">
        <ele>780.4</ele>
        <time>2017-07-02T11:07:59Z</time>
      </trkpt>
      <trkpt lat="42.3964" lon="0.12601">
        <ele>780.9</ele>
        <time>2017-07-02T11:08:01Z</time>
      </trkpt>
      <trkpt lat="42.39643" lon="0.126">
        <ele>781.5</ele>
        <time>2017-07-02T11:08:03Z</time>
      </trkpt>
      <trkpt lat="42.39645" lon="0.12597">
        <ele>781.9</ele>
        <time>2017-07-02T11:08:07Z</time>
      </trkpt>
      <trkpt lat="42.39648" lon="0.12596">
        <ele>782.2</ele>
        <time>2017-07-02T11:08:10Z</time>
      </trkpt>
      <trkpt lat="42.39652" lon="0.12596">
        <ele>782.5</ele>
        <time>2017-07-02T11:08:13Z</time>
      </trkpt>
      <trkpt lat="42.39655" lon="0.12595">
        <ele>783</ele>
        <time>2017-07-02T11:08:15Z</time>
      </trkpt>
      <trkpt lat="42.39658" lon="0.12595">
        <ele>783.5</ele>
        <time>2017-07-02T11:08:17Z</time>
      </trkpt>
      <trkpt lat="42.39661" lon="0.12592">
        <ele>783.7</ele>
        <time>2017-07-02T11:08:20Z</time>
      </trkpt>
      <trkpt lat="42.39665" lon="0.12592">
        <ele>784</ele>
        <time>2017-07-02T11:08:22Z</time>
      </trkpt>
      <trkpt lat="42.39668" lon="0.12592">
        <ele>784.3</ele>
        <time>2017-07-02T11:08:24Z</time>
      </trkpt>
      <trkpt lat="42.39671" lon="0.12592">
        <ele>784.6</ele>
        <time>2017-07-02T11:08:26Z</time>
      </trkpt>
      <trkpt lat="42.39674" lon="0.12592">
        <ele>785.1</ele>
        <time>2017-07-02T11:08:28Z</time>
      </trkpt>
      <trkpt lat="42.39678" lon="0.12591">
        <ele>785.6</ele>
        <time>2017-07-02T11:08:31Z</time>
      </trkpt>
      <trkpt lat="42.39681" lon="0.12587">
        <ele>785.9</ele>
        <time>2017-07-02T11:08:34Z</time>
      </trkpt>
      <trkpt lat="42.39684" lon="0.12585">
        <ele>786.3</ele>
        <time>2017-07-02T11:08:37Z</time>
      </trkpt>
      <trkpt lat="42.39687" lon="0.12585">
        <ele>786.8</ele>
        <time>2017-07-02T11:08:39Z</time>
      </trkpt>
      <trkpt lat="42.39691" lon="0.12587">
        <ele>787.3</ele>
        <time>2017-07-02T11:08:42Z</time>
      </trkpt>
      <trkpt lat="42.39695" lon="0.12586">
        <ele>787.7</ele>
        <time>2017-07-02T11:08:44Z</time>
      </trkpt>
      <trkpt lat="42.39698" lon="0.12585">
        <ele>787.9</ele>
        <time>2017-07-02T11:08:46Z</time>
      </trkpt>
      <trkpt lat="42.39701" lon="0.12585">
        <ele>788.1</ele>
        <time>2017-07-02T11:08:48Z</time>
      </trkpt>
      <trkpt lat="42.39705" lon="0.12584">
        <ele>788.3</ele>
        <time>2017-07-02T11:08:50Z</time>
      </trkpt>
      <trkpt lat="42.39707" lon="0.12582">
        <ele>788.5</ele>
        <time>2017-07-02T11:08:52Z</time>
      </trkpt>
      <trkpt lat="42.39709" lon="0.12579">
        <ele>788.8</ele>
        <time>2017-07-02T11:08:54Z</time>
      </trkpt>
      <trkpt lat="42.39713" lon="0.12577">
        <ele>789.4</ele>
        <time>2017-07-02T11:08:57Z</time>
      </trkpt>
      <trkpt lat="42.39716" lon="0.12576">
        <ele>789.9</ele>
        <time>2017-07-02T11:09:00Z</time>
      </trkpt>
      <trkpt lat="42.39718" lon="0.12573">
        <ele>790.3</ele>
        <time>2017-07-02T11:09:03Z</time>
      </trkpt>
      <trkpt lat="42.39722" lon="0.12572">
        <ele>790.7</ele>
        <time>2017-07-02T11:09:06Z</time>
      </trkpt>
      <trkpt lat="42.39727" lon="0.12571">
        <ele>791.4</ele>
        <time>2017-07-02T11:09:09Z</time>
      </trkpt>
      <trkpt lat="42.3973" lon="0.1257">
        <ele>791.9</ele>
        <time>2017-07-02T11:09:11Z</time>
      </trkpt>
      <trkpt lat="42.39733" lon="0.12571">
        <ele>792.1</ele>
        <time>2017-07-02T11:09:13Z</time>
      </trkpt>
      <trkpt lat="42.39736" lon="0.12572">
        <ele>792.3</ele>
        <time>2017-07-02T11:09:15Z</time>
      </trkpt>
      <trkpt lat="42.39739" lon="0.12572">
        <ele>792.6</ele>
        <time>2017-07-02T11:09:17Z</time>
      </trkpt>
      <trkpt lat="42.39742" lon="0.1257">
        <ele>793</ele>
        <time>2017-07-02T11:09:20Z</time>
      </trkpt>
      <trkpt lat="42.39746" lon="0.12568">
        <ele>793.5</ele>
        <time>2017-07-02T11:09:22Z</time>
      </trkpt>
      <trkpt lat="42.39749" lon="0.12567">
        <ele>793.9</ele>
        <time>2017-07-02T11:09:24Z</time>
      </trkpt>
      <trkpt lat="42.39753" lon="0.12567">
        <ele>794.4</ele>
        <time>2017-07-02T11:09:27Z</time>
      </trkpt>
      <trkpt lat="42.39756" lon="0.12568">
        <ele>794.8</ele>
        <time>2017-07-02T11:09:29Z</time>
      </trkpt>
      <trkpt lat="42.3976" lon="0.12567">
        <ele>795.4</ele>
        <time>2017-07-02T11:09:32Z</time>
      </trkpt>
      <trkpt lat="42.39765" lon="0.12566">
        <ele>795.8</ele>
        <time>2017-07-02T11:09:34Z</time>
      </trkpt>
      <trkpt lat="42.39769" lon="0.12565">
        <ele>796.1</ele>
        <time>2017-07-02T11:09:36Z</time>
      </trkpt>
      <trkpt lat="42.39773" lon="0.12565">
        <ele>796.2</ele>
        <time>2017-07-02T11:09:38Z</time>
      </trkpt>
      <trkpt lat="42.39776" lon="0.12564">
        <ele>796.3</ele>
        <time>2017-07-02T11:09:40Z</time>
      </trkpt>
      <trkpt lat="42.3978" lon="0.12562">
        <ele>796.5</ele>
        <time>2017-07-02T11:09:42Z</time>
      </trkpt>
      <trkpt lat="42.39782" lon="0.1256">
        <ele>796.7</ele>
        <time>2017-07-02T11:09:43Z</time>
      </trkpt>
      <trkpt lat="42.39785" lon="0.12559">
        <ele>797</ele>
        <time>2017-07-02T11:09:44Z</time>
      </trkpt>
      <trkpt lat="42.39789" lon="0.12558">
        <ele>797.5</ele>
        <time>2017-07-02T11:09:46Z</time>
      </trkpt>
      <trkpt lat="42.39793" lon="0.12557">
        <ele>797.9</ele>
        <time>2017-07-02T11:09:48Z</time>
      </trkpt>
      <trkpt lat="42.39796" lon="0.12555">
        <ele>798.1</ele>
        <time>2017-07-02T11:09:50Z</time>
      </trkpt>
      <trkpt lat="42.398" lon="0.12554">
        <ele>798.2</ele>
        <time>2017-07-02T11:09:52Z</time>
      </trkpt>
      <trkpt lat="42.39804" lon="0.12553">
        <ele>798.4</ele>
        <time>2017-07-02T11:09:54Z</time>
      </trkpt>
      <trkpt lat="42.39807" lon="0.12552">
        <ele>798.6</ele>
        <time>2017-07-02T11:09:56Z</time>
      </trkpt>
      <trkpt lat="42.39811" lon="0.12551">
        <ele>798.8</ele>
        <time>2017-07-02T11:09:58Z</time>
      </trkpt>
      <trkpt lat="42.39815" lon="0.12549">
        <ele>799.4</ele>
        <time>2017-07-02T11:10:00Z</time>
      </trkpt>
      <trkpt lat="42.39818" lon="0.12547">
        <ele>799.8</ele>
        <time>2017-07-02T11:10:02Z</time>
      </trkpt>
      <trkpt lat="42.39821" lon="0.12545">
        <ele>800.1</ele>
        <time>2017-07-02T11:10:04Z</time>
      </trkpt>
      <trkpt lat="42.39825" lon="0.12545">
        <ele>800.4</ele>
        <time>2017-07-02T11:10:06Z</time>
      </trkpt>
      <trkpt lat="42.39828" lon="0.12545">
        <ele>800.7</ele>
        <time>2017-07-02T11:10:08Z</time>
      </trkpt>
      <trkpt lat="42.39831" lon="0.12544">
        <ele>801.2</ele>
        <time>2017-07-02T11:10:10Z</time>
      </trkpt>
      <trkpt lat="42.39835" lon="0.12542">
        <ele>801.7</ele>
        <time>2017-07-02T11:10:12Z</time>
      </trkpt>
      <trkpt lat="42.39839" lon="0.12541">
        <ele>802.1</ele>
        <time>2017-07-02T11:10:14Z</time>
      </trkpt>
      <trkpt lat="42.39842" lon="0.1254">
        <ele>802.4</ele>
        <time>2017-07-02T11:10:16Z</time>
      </trkpt>
      <trkpt lat="42.39845" lon="0.12539">
        <ele>802.6</ele>
        <time>2017-07-02T11:10:18Z</time>
      </trkpt>
      <trkpt lat="42.39849" lon="0.12537">
        <ele>802.9</ele>
        <time>2017-07-02T11:10:20Z</time>
      </trkpt>
      <trkpt lat="42.39852" lon="0.12536">
        <ele>803.2</ele>
        <time>2017-07-02T11:10:22Z</time>
      </trkpt>
      <trkpt lat="42.39856" lon="0.12533">
        <ele>803.8</ele>
        <time>2017-07-02T11:10:24Z</time>
      </trkpt>
      <trkpt lat="42.39859" lon="0.12531">
        <ele>804.3</ele>
        <time>2017-07-02T11:10:26Z</time>
      </trkpt>
      <trkpt lat="42.39862" lon="0.1253">
        <ele>804.8</ele>
        <time>2017-07-02T11:10:28Z</time>
      </trkpt>
      <trkpt lat="42.39865" lon="0.12528">
        <ele>805.4</ele>
        <time>2017-07-02T11:10:30Z</time>
      </trkpt>
      <trkpt lat="42.39869" lon="0.12528">
        <ele>806.1</ele>
        <time>2017-07-02T11:10:32Z</time>
      </trkpt>
      <trkpt lat="42.39874" lon="0.1253">
        <ele>806.6</ele>
        <time>2017-07-02T11:10:34Z</time>
      </trkpt>
      <trkpt lat="42.39878" lon="0.12531">
        <ele>807.3</ele>
        <time>2017-07-02T11:10:36Z</time>
      </trkpt>
      <trkpt lat="42.39882" lon="0.1253">
        <ele>807.9</ele>
        <time>2017-07-02T11:10:38Z</time>
      </trkpt>
      <trkpt lat="42.39886" lon="0.12527">
        <ele>808.3</ele>
        <time>2017-07-02T11:10:40Z</time>
      </trkpt>
      <trkpt lat="42.39889" lon="0.12526">
        <ele>808.5</ele>
        <time>2017-07-02T11:10:42Z</time>
      </trkpt>
      <trkpt lat="42.39891" lon="0.12524">
        <ele>808.8</ele>
        <time>2017-07-02T11:10:44Z</time>
      </trkpt>
      <trkpt lat="42.39895" lon="0.12524">
        <ele>809.3</ele>
        <time>2017-07-02T11:10:46Z</time>
      </trkpt>
      <trkpt lat="42.39898" lon="0.12525">
        <ele>809.9</ele>
        <time>2017-07-02T11:10:49Z</time>
      </trkpt>
      <trkpt lat="42.39901" lon="0.12523">
        <ele>810.2</ele>
        <time>2017-07-02T11:10:52Z</time>
      </trkpt>
      <trkpt lat="42.39904" lon="0.12522">
        <ele>810.4</ele>
        <time>2017-07-02T11:10:54Z</time>
      </trkpt>
      <trkpt lat="42.39908" lon="0.12523">
        <ele>810.6</ele>
        <time>2017-07-02T11:10:56Z</time>
      </trkpt>
      <trkpt lat="42.39911" lon="0.12521">
        <ele>810.8</ele>
        <time>2017-07-02T11:10:58Z</time>
      </trkpt>
      <trkpt lat="42.39914" lon="0.12518">
        <ele>810.9</ele>
        <time>2017-07-02T11:11:00Z</time>
      </trkpt>
      <trkpt lat="42.39917" lon="0.12515">
        <ele>811</ele>
        <time>2017-07-02T11:11:02Z</time>
      </trkpt>
      <trkpt lat="42.3992" lon="0.12514">
        <ele>811.3</ele>
        <time>2017-07-02T11:11:04Z</time>
      </trkpt>
      <trkpt lat="42.39923" lon="0.12513">
        <ele>811.5</ele>
        <time>2017-07-02T11:11:06Z</time>
      </trkpt>
      <trkpt lat="42.39927" lon="0.1251">
        <ele>811.8</ele>
        <time>2017-07-02T11:11:09Z</time>
      </trkpt>
      <trkpt lat="42.3993" lon="0.12509">
        <ele>811.9</ele>
        <time>2017-07-02T11:11:11Z</time>
      </trkpt>
      <trkpt lat="42.39933" lon="0.12508">
        <ele>812</ele>
        <time>2017-07-02T11:11:13Z</time>
      </trkpt>
      <trkpt lat="42.39936" lon="0.12506">
        <ele>812</ele>
        <time>2017-07-02T11:11:15Z</time>
      </trkpt>
      <trkpt lat="42.39938" lon="0.12503">
        <ele>812</ele>
        <time>2017-07-02T11:11:17Z</time>
      </trkpt>
      <trkpt lat="42.39941" lon="0.125">
        <ele>812</ele>
        <time>2017-07-02T11:11:20Z</time>
      </trkpt>
      <trkpt lat="42.39944" lon="0.12495">
        <ele>812</ele>
        <time>2017-07-02T11:11:22Z</time>
      </trkpt>
      <trkpt lat="42.39949" lon="0.12491">
        <ele>811.9</ele>
        <time>2017-07-02T11:11:24Z</time>
      </trkpt>
      <trkpt lat="42.39952" lon="0.12487">
        <ele>811.7</ele>
        <time>2017-07-02T11:11:26Z</time>
      </trkpt>
      <trkpt lat="42.39954" lon="0.12483">
        <ele>811.6</ele>
        <time>2017-07-02T11:11:28Z</time>
      </trkpt>
      <trkpt lat="42.39957" lon="0.12478">
        <ele>811.2</ele>
        <time>2017-07-02T11:11:30Z</time>
      </trkpt>
      <trkpt lat="42.39959" lon="0.12476">
        <ele>810.9</ele>
        <time>2017-07-02T11:11:32Z</time>
      </trkpt>
      <trkpt lat="42.39962" lon="0.12472">
        <ele>810.5</ele>
        <time>2017-07-02T11:11:35Z</time>
      </trkpt>
      <trkpt lat="42.39964" lon="0.12469">
        <ele>810.3</ele>
        <time>2017-07-02T11:11:37Z</time>
      </trkpt>
      <trkpt lat="42.39968" lon="0.12465">
        <ele>810.1</ele>
        <time>2017-07-02T11:11:39Z</time>
      </trkpt>
      <trkpt lat="42.39971" lon="0.12463">
        <ele>809.8</ele>
        <time>2017-07-02T11:11:41Z</time>
      </trkpt>
      <trkpt lat="42.39975" lon="0.12459">
        <ele>809.4</ele>
        <time>2017-07-02T11:11:43Z</time>
      </trkpt>
      <trkpt lat="42.39977" lon="0.12457">
        <ele>809.1</ele>
        <time>2017-07-02T11:11:44Z</time>
      </trkpt>
      <trkpt lat="42.3998" lon="0.12451">
        <ele>808.7</ele>
        <time>2017-07-02T11:11:46Z</time>
      </trkpt>
      <trkpt lat="42.39982" lon="0.12449">
        <ele>808.5</ele>
        <time>2017-07-02T11:11:47Z</time>
      </trkpt>
      <trkpt lat="42.39985" lon="0.12446">
        <ele>808.4</ele>
        <time>2017-07-02T11:11:48Z</time>
      </trkpt>
      <trkpt lat="42.39987" lon="0.12444">
        <ele>808.4</ele>
        <time>2017-07-02T11:11:49Z</time>
      </trkpt>
      <trkpt lat="42.3999" lon="0.12442">
        <ele>808.3</ele>
        <time>2017-07-02T11:11:50Z</time>
      </trkpt>
      <trkpt lat="42.39992" lon="0.1244">
        <ele>808.2</ele>
        <time>2017-07-02T11:11:51Z</time>
      </trkpt>
      <trkpt lat="42.39997" lon="0.12438">
        <ele>808.1</ele>
        <time>2017-07-02T11:11:53Z</time>
      </trkpt>
      <trkpt lat="42.39999" lon="0.12437">
        <ele>808</ele>
        <time>2017-07-02T11:11:55Z</time>
      </trkpt>
      <trkpt lat="42.40002" lon="0.12434">
        <ele>808</ele>
        <time>2017-07-02T11:11:57Z</time>
      </trkpt>
      <trkpt lat="42.40006" lon="0.1243">
        <ele>807.9</ele>
        <time>2017-07-02T11:11:59Z</time>
      </trkpt>
      <trkpt lat="42.40008" lon="0.12428">
        <ele>807.8</ele>
        <time>2017-07-02T11:12:00Z</time>
      </trkpt>
      <trkpt lat="42.40012" lon="0.12425">
        <ele>807.7</ele>
        <time>2017-07-02T11:12:02Z</time>
      </trkpt>
      <trkpt lat="42.40016" lon="0.1242">
        <ele>807.5</ele>
        <time>2017-07-02T11:12:04Z</time>
      </trkpt>
      <trkpt lat="42.40019" lon="0.12417">
        <ele>807.3</ele>
        <time>2017-07-02T11:12:05Z</time>
      </trkpt>
      <trkpt lat="42.40023" lon="0.12414">
        <ele>806.9</ele>
        <time>2017-07-02T11:12:07Z</time>
      </trkpt>
      <trkpt lat="42.40026" lon="0.12412">
        <ele>806.5</ele>
        <time>2017-07-02T11:12:09Z</time>
      </trkpt>
      <trkpt lat="42.4003" lon="0.12408">
        <ele>806.4</ele>
        <time>2017-07-02T11:12:11Z</time>
      </trkpt>
      <trkpt lat="42.40033" lon="0.12402">
        <ele>806.2</ele>
        <time>2017-07-02T11:12:13Z</time>
      </trkpt>
      <trkpt lat="42.40036" lon="0.12399">
        <ele>806.2</ele>
        <time>2017-07-02T11:12:14Z</time>
      </trkpt>
      <trkpt lat="42.40038" lon="0.12396">
        <ele>806.1</ele>
        <time>2017-07-02T11:12:15Z</time>
      </trkpt>
      <trkpt lat="42.40041" lon="0.12394">
        <ele>806.1</ele>
        <time>2017-07-02T11:12:16Z</time>
      </trkpt>
      <trkpt lat="42.40044" lon="0.12392">
        <ele>806.1</ele>
        <time>2017-07-02T11:12:17Z</time>
      </trkpt>
      <trkpt lat="42.40047" lon="0.12391">
        <ele>806</ele>
        <time>2017-07-02T11:12:19Z</time>
      </trkpt>
      <trkpt lat="42.4005" lon="0.1239">
        <ele>806</ele>
        <time>2017-07-02T11:12:21Z</time>
      </trkpt>
      <trkpt lat="42.40053" lon="0.12387">
        <ele>806</ele>
        <time>2017-07-02T11:12:23Z</time>
      </trkpt>
      <trkpt lat="42.40057" lon="0.12385">
        <ele>806</ele>
        <time>2017-07-02T11:12:25Z</time>
      </trkpt>
      <trkpt lat="42.40061" lon="0.12384">
        <ele>806</ele>
        <time>2017-07-02T11:12:27Z</time>
      </trkpt>
      <trkpt lat="42.40064" lon="0.12383">
        <ele>806</ele>
        <time>2017-07-02T11:12:29Z</time>
      </trkpt>
      <trkpt lat="42.40067" lon="0.1238">
        <ele>806.1</ele>
        <time>2017-07-02T11:12:31Z</time>
      </trkpt>
      <trkpt lat="42.40071" lon="0.12375">
        <ele>806.1</ele>
        <time>2017-07-02T11:12:33Z</time>
      </trkpt>
      <trkpt lat="42.40074" lon="0.12373">
        <ele>806.1</ele>
        <time>2017-07-02T11:12:34Z</time>
      </trkpt>
      <trkpt lat="42.40076" lon="0.1237">
        <ele>806.2</ele>
        <time>2017-07-02T11:12:35Z</time>
      </trkpt>
      <trkpt lat="42.40078" lon="0.12368">
        <ele>806.2</ele>
        <time>2017-07-02T11:12:36Z</time>
      </trkpt>
      <trkpt lat="42.40083" lon="0.12365">
        <ele>806.3</ele>
        <time>2017-07-02T11:12:38Z</time>
      </trkpt>
      <trkpt lat="42.40087" lon="0.12364">
        <ele>806.5</ele>
        <time>2017-07-02T11:12:40Z</time>
      </trkpt>
      <trkpt lat="42.40091" lon="0.12363">
        <ele>806.6</ele>
        <time>2017-07-02T11:12:42Z</time>
      </trkpt>
      <trkpt lat="42.40095" lon="0.12362">
        <ele>806.8</ele>
        <time>2017-07-02T11:12:44Z</time>
      </trkpt>
      <trkpt lat="42.40099" lon="0.12361">
        <ele>807.2</ele>
        <time>2017-07-02T11:12:46Z</time>
      </trkpt>
      <trkpt lat="42.40102" lon="0.12359">
        <ele>807.6</ele>
        <time>2017-07-02T11:12:48Z</time>
      </trkpt>
      <trkpt lat="42.40105" lon="0.12357">
        <ele>808</ele>
        <time>2017-07-02T11:12:50Z</time>
      </trkpt>
      <trkpt lat="42.40108" lon="0.12354">
        <ele>808.3</ele>
        <time>2017-07-02T11:12:52Z</time>
      </trkpt>
      <trkpt lat="42.4011" lon="0.12351">
        <ele>808.8</ele>
        <time>2017-07-02T11:12:57Z</time>
      </trkpt>
      <trkpt lat="42.40113" lon="0.12348">
        <ele>809.5</ele>
        <time>2017-07-02T11:13:00Z</time>
      </trkpt>
      <trkpt lat="42.40117" lon="0.12348">
        <ele>809.9</ele>
        <time>2017-07-02T11:13:09Z</time>
      </trkpt>
      <trkpt lat="42.4012" lon="0.12349">
        <ele>810.5</ele>
        <time>2017-07-02T11:13:12Z</time>
      </trkpt>
      <trkpt lat="42.40122" lon="0.12351">
        <ele>811</ele>
        <time>2017-07-02T11:13:15Z</time>
      </trkpt>
      <trkpt lat="42.40123" lon="0.12355">
        <ele>811.6</ele>
        <time>2017-07-02T11:13:19Z</time>
      </trkpt>
      <trkpt lat="42.40125" lon="0.12358">
        <ele>812.4</ele>
        <time>2017-07-02T11:13:23Z</time>
      </trkpt>
      <trkpt lat="42.40129" lon="0.12359">
        <ele>813.1</ele>
        <time>2017-07-02T11:13:27Z</time>
      </trkpt>
      <trkpt lat="42.40131" lon="0.12357">
        <ele>813.9</ele>
        <time>2017-07-02T11:13:30Z</time>
      </trkpt>
      <trkpt lat="42.40134" lon="0.12354">
        <ele>814.6</ele>
        <time>2017-07-02T11:13:34Z</time>
      </trkpt>
      <trkpt lat="42.40138" lon="0.12353">
        <ele>815.1</ele>
        <time>2017-07-02T11:13:37Z</time>
      </trkpt>
      <trkpt lat="42.4014" lon="0.12352">
        <ele>815.8</ele>
        <time>2017-07-02T11:13:40Z</time>
      </trkpt>
      <trkpt lat="42.40143" lon="0.12354">
        <ele>816.6</ele>
        <time>2017-07-02T11:13:43Z</time>
      </trkpt>
      <trkpt lat="42.40146" lon="0.12356">
        <ele>817.1</ele>
        <time>2017-07-02T11:13:47Z</time>
      </trkpt>
      <trkpt lat="42.40148" lon="0.12358">
        <ele>817.8</ele>
        <time>2017-07-02T11:14:05Z</time>
      </trkpt>
      <trkpt lat="42.40151" lon="0.12357">
        <ele>818.4</ele>
        <time>2017-07-02T11:14:07Z</time>
      </trkpt>
      <trkpt lat="42.40154" lon="0.12357">
        <ele>818.8</ele>
        <time>2017-07-02T11:14:09Z</time>
      </trkpt>
      <trkpt lat="42.40157" lon="0.12356">
        <ele>819.2</ele>
        <time>2017-07-02T11:14:11Z</time>
      </trkpt>
      <trkpt lat="42.40161" lon="0.12355">
        <ele>819.7</ele>
        <time>2017-07-02T11:14:13Z</time>
      </trkpt>
      <trkpt lat="42.40163" lon="0.12355">
        <ele>820.2</ele>
        <time>2017-07-02T11:14:16Z</time>
      </trkpt>
      <trkpt lat="42.40166" lon="0.12351">
        <ele>820.8</ele>
        <time>2017-07-02T11:14:19Z</time>
      </trkpt>
      <trkpt lat="42.4017" lon="0.12349">
        <ele>821.1</ele>
        <time>2017-07-02T11:14:22Z</time>
      </trkpt>
      <trkpt lat="42.40173" lon="0.12348">
        <ele>821.5</ele>
        <time>2017-07-02T11:14:24Z</time>
      </trkpt>
      <trkpt lat="42.40177" lon="0.12348">
        <ele>822.1</ele>
        <time>2017-07-02T11:14:26Z</time>
      </trkpt>
      <trkpt lat="42.40179" lon="0.12351">
        <ele>822.7</ele>
        <time>2017-07-02T11:14:28Z</time>
      </trkpt>
      <trkpt lat="42.40183" lon="0.12351">
        <ele>823.1</ele>
        <time>2017-07-02T11:14:31Z</time>
      </trkpt>
      <trkpt lat="42.40185" lon="0.1235">
        <ele>823.4</ele>
        <time>2017-07-02T11:14:33Z</time>
      </trkpt>
      <trkpt lat="42.40188" lon="0.12348">
        <ele>824</ele>
        <time>2017-07-02T11:14:35Z</time>
      </trkpt>
      <trkpt lat="42.40191" lon="0.12347">
        <ele>824.6</ele>
        <time>2017-07-02T11:14:37Z</time>
      </trkpt>
      <trkpt lat="42.40194" lon="0.12346">
        <ele>825</ele>
        <time>2017-07-02T11:14:39Z</time>
      </trkpt>
      <trkpt lat="42.40197" lon="0.12345">
        <ele>825.3</ele>
        <time>2017-07-02T11:14:41Z</time>
      </trkpt>
      <trkpt lat="42.40201" lon="0.12346">
        <ele>825.9</ele>
        <time>2017-07-02T11:14:44Z</time>
      </trkpt>
      <trkpt lat="42.40205" lon="0.12344">
        <ele>826.5</ele>
        <time>2017-07-02T11:14:47Z</time>
      </trkpt>
      <trkpt lat="42.40208" lon="0.12343">
        <ele>826.8</ele>
        <time>2017-07-02T11:14:49Z</time>
      </trkpt>
      <trkpt lat="42.40211" lon="0.12341">
        <ele>827.1</ele>
        <time>2017-07-02T11:14:52Z</time>
      </trkpt>
      <trkpt lat="42.40214" lon="0.12339">
        <ele>827.5</ele>
        <time>2017-07-02T11:14:55Z</time>
      </trkpt>
      <trkpt lat="42.40217" lon="0.12342">
        <ele>828.1</ele>
        <time>2017-07-02T11:14:58Z</time>
      </trkpt>
      <trkpt lat="42.4022" lon="0.12343">
        <ele>828.6</ele>
        <time>2017-07-02T11:15:00Z</time>
      </trkpt>
      <trkpt lat="42.40223" lon="0.12341">
        <ele>829</ele>
        <time>2017-07-02T11:15:02Z</time>
      </trkpt>
      <trkpt lat="42.40226" lon="0.12338">
        <ele>829.4</ele>
        <time>2017-07-02T11:15:05Z</time>
      </trkpt>
      <trkpt lat="42.40229" lon="0.12339">
        <ele>829.9</ele>
        <time>2017-07-02T11:15:09Z</time>
      </trkpt>
      <trkpt lat="42.40232" lon="0.12339">
        <ele>830.5</ele>
        <time>2017-07-02T11:15:13Z</time>
      </trkpt>
      <trkpt lat="42.40236" lon="0.12338">
        <ele>830.8</ele>
        <time>2017-07-02T11:15:15Z</time>
      </trkpt>
      <trkpt lat="42.40238" lon="0.12337">
        <ele>831</ele>
        <time>2017-07-02T11:15:17Z</time>
      </trkpt>
      <trkpt lat="42.40241" lon="0.12335">
        <ele>831.2</ele>
        <time>2017-07-02T11:15:19Z</time>
      </trkpt>
      <trkpt lat="42.40244" lon="0.12334">
        <ele>831.4</ele>
        <time>2017-07-02T11:15:21Z</time>
      </trkpt>
      <trkpt lat="42.40247" lon="0.12333">
        <ele>831.6</ele>
        <time>2017-07-02T11:15:23Z</time>
      </trkpt>
      <trkpt lat="42.40251" lon="0.12333">
        <ele>832.2</ele>
        <time>2017-07-02T11:15:25Z</time>
      </trkpt>
      <trkpt lat="42.40257" lon="0.12335">
        <ele>832.8</ele>
        <time>2017-07-02T11:15:27Z</time>
      </trkpt>
      <trkpt lat="42.40261" lon="0.12336">
        <ele>833.2</ele>
        <time>2017-07-02T11:15:29Z</time>
      </trkpt>
      <trkpt lat="42.40264" lon="0.12335">
        <ele>833.6</ele>
        <time>2017-07-02T11:15:31Z</time>
      </trkpt>
      <trkpt lat="42.40267" lon="0.12333">
        <ele>834.1</ele>
        <time>2017-07-02T11:15:33Z</time>
      </trkpt>
      <trkpt lat="42.40269" lon="0.12331">
        <ele>835.1</ele>
        <time>2017-07-02T11:15:35Z</time>
      </trkpt>
      <trkpt lat="42.40272" lon="0.12329">
        <ele>835.8</ele>
        <time>2017-07-02T11:15:37Z</time>
      </trkpt>
      <trkpt lat="42.40266" lon="0.12331">
        <ele>836.7</ele>
        <time>2017-07-02T11:24:08Z</time>
      </trkpt>
      <trkpt lat="42.40273" lon="0.12322">
        <ele>837.1</ele>
        <time>2017-07-02T11:24:42Z</time>
      </trkpt>
      <trkpt lat="42.40275" lon="0.12318">
        <ele>837.1</ele>
        <time>2017-07-02T11:24:45Z</time>
      </trkpt>
      <trkpt lat="42.40278" lon="0.12315">
        <ele>837.1</ele>
        <time>2017-07-02T11:24:48Z</time>
      </trkpt>
      <trkpt lat="42.40281" lon="0.12312">
        <ele>837.1</ele>
        <time>2017-07-02T11:24:50Z</time>
      </trkpt>
      <trkpt lat="42.40284" lon="0.12309">
        <ele>837.1</ele>
        <time>2017-07-02T11:24:52Z</time>
      </trkpt>
      <trkpt lat="42.40287" lon="0.12307">
        <ele>837.1</ele>
        <time>2017-07-02T11:24:54Z</time>
      </trkpt>
      <trkpt lat="42.40291" lon="0.12306">
        <ele>837.1</ele>
        <time>2017-07-02T11:24:56Z</time>
      </trkpt>
      <trkpt lat="42.40295" lon="0.12305">
        <ele>837.1</ele>
        <time>2017-07-02T11:24:58Z</time>
      </trkpt>
      <trkpt lat="42.40298" lon="0.12303">
        <ele>837.1</ele>
        <time>2017-07-02T11:25:00Z</time>
      </trkpt>
      <trkpt lat="42.40302" lon="0.12299">
        <ele>837.1</ele>
        <time>2017-07-02T11:25:02Z</time>
      </trkpt>
      <trkpt lat="42.40303" lon="0.12296">
        <ele>837.1</ele>
        <time>2017-07-02T11:25:03Z</time>
      </trkpt>
      <trkpt lat="42.40307" lon="0.12292">
        <ele>837.1</ele>
        <time>2017-07-02T11:25:05Z</time>
      </trkpt>
      <trkpt lat="42.4031" lon="0.1229">
        <ele>837.1</ele>
        <time>2017-07-02T11:25:07Z</time>
      </trkpt>
      <trkpt lat="42.40314" lon="0.12287">
        <ele>837.1</ele>
        <time>2017-07-02T11:25:09Z</time>
      </trkpt>
      <trkpt lat="42.40319" lon="0.12283">
        <ele>837.1</ele>
        <time>2017-07-02T11:25:11Z</time>
      </trkpt>
      <trkpt lat="42.40321" lon="0.1228">
        <ele>837.1</ele>
        <time>2017-07-02T11:25:12Z</time>
      </trkpt>
      <trkpt lat="42.40323" lon="0.12277">
        <ele>837.1</ele>
        <time>2017-07-02T11:25:13Z</time>
      </trkpt>
      <trkpt lat="42.40324" lon="0.12273">
        <ele>837.1</ele>
        <time>2017-07-02T11:25:14Z</time>
      </trkpt>
      <trkpt lat="42.40327" lon="0.1227">
        <ele>837.1</ele>
        <time>2017-07-02T11:25:15Z</time>
      </trkpt>
      <trkpt lat="42.4033" lon="0.12268">
        <ele>837.1</ele>
        <time>2017-07-02T11:25:16Z</time>
      </trkpt>
      <trkpt lat="42.40333" lon="0.12266">
        <ele>837.1</ele>
        <time>2017-07-02T11:25:17Z</time>
      </trkpt>
      <trkpt lat="42.40336" lon="0.12266">
        <ele>837.1</ele>
        <time>2017-07-02T11:25:18Z</time>
      </trkpt>
      <trkpt lat="42.40339" lon="0.12266">
        <ele>837.1</ele>
        <time>2017-07-02T11:25:20Z</time>
      </trkpt>
      <trkpt lat="42.40342" lon="0.12265">
        <ele>837.1</ele>
        <time>2017-07-02T11:25:22Z</time>
      </trkpt>
      <trkpt lat="42.40345" lon="0.12262">
        <ele>837.1</ele>
        <time>2017-07-02T11:25:24Z</time>
      </trkpt>
      <trkpt lat="42.40349" lon="0.1226">
        <ele>837.1</ele>
        <time>2017-07-02T11:25:26Z</time>
      </trkpt>
      <trkpt lat="42.40353" lon="0.12257">
        <ele>837</ele>
        <time>2017-07-02T11:25:28Z</time>
      </trkpt>
      <trkpt lat="42.40357" lon="0.12254">
        <ele>837</ele>
        <time>2017-07-02T11:25:30Z</time>
      </trkpt>
      <trkpt lat="42.4036" lon="0.12252">
        <ele>837</ele>
        <time>2017-07-02T11:25:32Z</time>
      </trkpt>
      <trkpt lat="42.40364" lon="0.1225">
        <ele>837</ele>
        <time>2017-07-02T11:25:34Z</time>
      </trkpt>
      <trkpt lat="42.40367" lon="0.12248">
        <ele>836.9</ele>
        <time>2017-07-02T11:25:35Z</time>
      </trkpt>
      <trkpt lat="42.40369" lon="0.12247">
        <ele>836.9</ele>
        <time>2017-07-02T11:25:36Z</time>
      </trkpt>
      <trkpt lat="42.40373" lon="0.12243">
        <ele>836.8</ele>
        <time>2017-07-02T11:25:38Z</time>
      </trkpt>
      <trkpt lat="42.40376" lon="0.12238">
        <ele>836.7</ele>
        <time>2017-07-02T11:25:40Z</time>
      </trkpt>
      <trkpt lat="42.40378" lon="0.12235">
        <ele>836.6</ele>
        <time>2017-07-02T11:25:41Z</time>
      </trkpt>
      <trkpt lat="42.4038" lon="0.12231">
        <ele>836.3</ele>
        <time>2017-07-02T11:25:42Z</time>
      </trkpt>
      <trkpt lat="42.40382" lon="0.12228">
        <ele>835.9</ele>
        <time>2017-07-02T11:25:43Z</time>
      </trkpt>
      <trkpt lat="42.40385" lon="0.12225">
        <ele>835.5</ele>
        <time>2017-07-02T11:25:45Z</time>
      </trkpt>
      <trkpt lat="42.40389" lon="0.12221">
        <ele>835.2</ele>
        <time>2017-07-02T11:25:47Z</time>
      </trkpt>
      <trkpt lat="42.40392" lon="0.12219">
        <ele>835.1</ele>
        <time>2017-07-02T11:25:48Z</time>
      </trkpt>
      <trkpt lat="42.40395" lon="0.12218">
        <ele>835</ele>
        <time>2017-07-02T11:25:49Z</time>
      </trkpt>
      <trkpt lat="42.40399" lon="0.12216">
        <ele>834.8</ele>
        <time>2017-07-02T11:25:51Z</time>
      </trkpt>
      <trkpt lat="42.40403" lon="0.12211">
        <ele>834.7</ele>
        <time>2017-07-02T11:25:53Z</time>
      </trkpt>
      <trkpt lat="42.40405" lon="0.12209">
        <ele>834.6</ele>
        <time>2017-07-02T11:25:54Z</time>
      </trkpt>
      <trkpt lat="42.40407" lon="0.12206">
        <ele>834.5</ele>
        <time>2017-07-02T11:25:55Z</time>
      </trkpt>
      <trkpt lat="42.40409" lon="0.12202">
        <ele>834.4</ele>
        <time>2017-07-02T11:25:56Z</time>
      </trkpt>
      <trkpt lat="42.40411" lon="0.12199">
        <ele>834.4</ele>
        <time>2017-07-02T11:25:57Z</time>
      </trkpt>
      <trkpt lat="42.40414" lon="0.12196">
        <ele>834.3</ele>
        <time>2017-07-02T11:25:58Z</time>
      </trkpt>
      <trkpt lat="42.40417" lon="0.12194">
        <ele>834</ele>
        <time>2017-07-02T11:25:59Z</time>
      </trkpt>
      <trkpt lat="42.4042" lon="0.12193">
        <ele>833.8</ele>
        <time>2017-07-02T11:26:00Z</time>
      </trkpt>
      <trkpt lat="42.40425" lon="0.12192">
        <ele>833.3</ele>
        <time>2017-07-02T11:26:02Z</time>
      </trkpt>
      <trkpt lat="42.40428" lon="0.12192">
        <ele>833.1</ele>
        <time>2017-07-02T11:26:04Z</time>
      </trkpt>
      <trkpt lat="42.40431" lon="0.12186">
        <ele>832.9</ele>
        <time>2017-07-02T11:26:06Z</time>
      </trkpt>
      <trkpt lat="42.40433" lon="0.12182">
        <ele>832.8</ele>
        <time>2017-07-02T11:26:07Z</time>
      </trkpt>
      <trkpt lat="42.40434" lon="0.12178">
        <ele>832.8</ele>
        <time>2017-07-02T11:26:08Z</time>
      </trkpt>
      <trkpt lat="42.40436" lon="0.12175">
        <ele>832.7</ele>
        <time>2017-07-02T11:26:09Z</time>
      </trkpt>
      <trkpt lat="42.40439" lon="0.12171">
        <ele>832.6</ele>
        <time>2017-07-02T11:26:10Z</time>
      </trkpt>
      <trkpt lat="42.40443" lon="0.12168">
        <ele>832.4</ele>
        <time>2017-07-02T11:26:11Z</time>
      </trkpt>
      <trkpt lat="42.40445" lon="0.12164">
        <ele>832.3</ele>
        <time>2017-07-02T11:26:12Z</time>
      </trkpt>
      <trkpt lat="42.40448" lon="0.12161">
        <ele>832.2</ele>
        <time>2017-07-02T11:26:13Z</time>
      </trkpt>
      <trkpt lat="42.4045" lon="0.12158">
        <ele>832.1</ele>
        <time>2017-07-02T11:26:14Z</time>
      </trkpt>
      <trkpt lat="42.40453" lon="0.12155">
        <ele>832</ele>
        <time>2017-07-02T11:26:15Z</time>
      </trkpt>
      <trkpt lat="42.40456" lon="0.12153">
        <ele>831.8</ele>
        <time>2017-07-02T11:26:16Z</time>
      </trkpt>
      <trkpt lat="42.40461" lon="0.12151">
        <ele>831.5</ele>
        <time>2017-07-02T11:26:18Z</time>
      </trkpt>
      <trkpt lat="42.40466" lon="0.12149">
        <ele>831.1</ele>
        <time>2017-07-02T11:26:20Z</time>
      </trkpt>
      <trkpt lat="42.40468" lon="0.12148">
        <ele>830.9</ele>
        <time>2017-07-02T11:26:21Z</time>
      </trkpt>
      <trkpt lat="42.40472" lon="0.12145">
        <ele>830.6</ele>
        <time>2017-07-02T11:26:23Z</time>
      </trkpt>
      <trkpt lat="42.40475" lon="0.12143">
        <ele>830.6</ele>
        <time>2017-07-02T11:26:24Z</time>
      </trkpt>
      <trkpt lat="42.40477" lon="0.12141">
        <ele>830.5</ele>
        <time>2017-07-02T11:26:25Z</time>
      </trkpt>
      <trkpt lat="42.40481" lon="0.12137">
        <ele>830.4</ele>
        <time>2017-07-02T11:26:27Z</time>
      </trkpt>
      <trkpt lat="42.40484" lon="0.12135">
        <ele>830.4</ele>
        <time>2017-07-02T11:26:28Z</time>
      </trkpt>
      <trkpt lat="42.40487" lon="0.12132">
        <ele>830.4</ele>
        <time>2017-07-02T11:26:29Z</time>
      </trkpt>
      <trkpt lat="42.4049" lon="0.12129">
        <ele>830.4</ele>
        <time>2017-07-02T11:26:30Z</time>
      </trkpt>
      <trkpt lat="42.40492" lon="0.12127">
        <ele>830.4</ele>
        <time>2017-07-02T11:26:31Z</time>
      </trkpt>
      <trkpt lat="42.40495" lon="0.12124">
        <ele>830.3</ele>
        <time>2017-07-02T11:26:32Z</time>
      </trkpt>
      <trkpt lat="42.40497" lon="0.12122">
        <ele>830.3</ele>
        <time>2017-07-02T11:26:33Z</time>
      </trkpt>
      <trkpt lat="42.405" lon="0.12119">
        <ele>830.3</ele>
        <time>2017-07-02T11:26:34Z</time>
      </trkpt>
      <trkpt lat="42.40502" lon="0.12117">
        <ele>830.3</ele>
        <time>2017-07-02T11:26:35Z</time>
      </trkpt>
      <trkpt lat="42.40504" lon="0.12114">
        <ele>830.3</ele>
        <time>2017-07-02T11:26:36Z</time>
      </trkpt>
      <trkpt lat="42.40507" lon="0.12112">
        <ele>830.3</ele>
        <time>2017-07-02T11:26:37Z</time>
      </trkpt>
      <trkpt lat="42.40509" lon="0.12109">
        <ele>830.3</ele>
        <time>2017-07-02T11:26:38Z</time>
      </trkpt>
      <trkpt lat="42.40512" lon="0.12102">
        <ele>830.3</ele>
        <time>2017-07-02T11:26:40Z</time>
      </trkpt>
      <trkpt lat="42.40514" lon="0.12098">
        <ele>830.3</ele>
        <time>2017-07-02T11:26:41Z</time>
      </trkpt>
      <trkpt lat="42.40517" lon="0.12095">
        <ele>830.3</ele>
        <time>2017-07-02T11:26:42Z</time>
      </trkpt>
      <trkpt lat="42.40519" lon="0.12092">
        <ele>830.3</ele>
        <time>2017-07-02T11:26:43Z</time>
      </trkpt>
      <trkpt lat="42.40522" lon="0.1209">
        <ele>830.3</ele>
        <time>2017-07-02T11:26:44Z</time>
      </trkpt>
      <trkpt lat="42.40525" lon="0.12089">
        <ele>830.3</ele>
        <time>2017-07-02T11:26:45Z</time>
      </trkpt>
      <trkpt lat="42.40528" lon="0.12087">
        <ele>830.3</ele>
        <time>2017-07-02T11:26:46Z</time>
      </trkpt>
      <trkpt lat="42.40531" lon="0.12086">
        <ele>830.3</ele>
        <time>2017-07-02T11:26:47Z</time>
      </trkpt>
      <trkpt lat="42.40533" lon="0.12083">
        <ele>830.3</ele>
        <time>2017-07-02T11:26:48Z</time>
      </trkpt>
      <trkpt lat="42.40535" lon="0.1208">
        <ele>830.2</ele>
        <time>2017-07-02T11:26:49Z</time>
      </trkpt>
      <trkpt lat="42.40537" lon="0.12077">
        <ele>830.2</ele>
        <time>2017-07-02T11:26:50Z</time>
      </trkpt>
      <trkpt lat="42.40539" lon="0.12074">
        <ele>830.1</ele>
        <time>2017-07-02T11:26:51Z</time>
      </trkpt>
      <trkpt lat="42.4054" lon="0.12071">
        <ele>830.1</ele>
        <time>2017-07-02T11:26:52Z</time>
      </trkpt>
      <trkpt lat="42.40542" lon="0.12067">
        <ele>830</ele>
        <time>2017-07-02T11:26:53Z</time>
      </trkpt>
      <trkpt lat="42.40544" lon="0.12064">
        <ele>829.9</ele>
        <time>2017-07-02T11:26:54Z</time>
      </trkpt>
      <trkpt lat="42.40546" lon="0.12061">
        <ele>829.8</ele>
        <time>2017-07-02T11:26:55Z</time>
      </trkpt>
      <trkpt lat="42.40548" lon="0.12058">
        <ele>829.7</ele>
        <time>2017-07-02T11:26:56Z</time>
      </trkpt>
      <trkpt lat="42.40552" lon="0.12053">
        <ele>829.6</ele>
        <time>2017-07-02T11:26:58Z</time>
      </trkpt>
      <trkpt lat="42.40557" lon="0.12051">
        <ele>829.3</ele>
        <time>2017-07-02T11:27:00Z</time>
      </trkpt>
      <trkpt lat="42.40562" lon="0.12049">
        <ele>829</ele>
        <time>2017-07-02T11:27:02Z</time>
      </trkpt>
      <trkpt lat="42.40565" lon="0.12046">
        <ele>828.8</ele>
        <time>2017-07-02T11:27:04Z</time>
      </trkpt>
      <trkpt lat="42.40568" lon="0.12045">
        <ele>828.6</ele>
        <time>2017-07-02T11:27:07Z</time>
      </trkpt>
      <trkpt lat="42.4057" lon="0.12043">
        <ele>828.4</ele>
        <time>2017-07-02T11:27:11Z</time>
      </trkpt>
      <trkpt lat="42.40572" lon="0.12039">
        <ele>828.3</ele>
        <time>2017-07-02T11:27:16Z</time>
      </trkpt>
      <trkpt lat="42.40575" lon="0.12033">
        <ele>828.2</ele>
        <time>2017-07-02T11:27:18Z</time>
      </trkpt>
      <trkpt lat="42.40577" lon="0.12031">
        <ele>828.2</ele>
        <time>2017-07-02T11:27:19Z</time>
      </trkpt>
      <trkpt lat="42.40579" lon="0.12029">
        <ele>828.1</ele>
        <time>2017-07-02T11:27:20Z</time>
      </trkpt>
      <trkpt lat="42.40581" lon="0.12026">
        <ele>828.1</ele>
        <time>2017-07-02T11:27:21Z</time>
      </trkpt>
      <trkpt lat="42.40585" lon="0.12022">
        <ele>828.1</ele>
        <time>2017-07-02T11:27:23Z</time>
      </trkpt>
      <trkpt lat="42.40587" lon="0.1202">
        <ele>828.1</ele>
        <time>2017-07-02T11:27:24Z</time>
      </trkpt>
      <trkpt lat="42.40591" lon="0.12016">
        <ele>828.1</ele>
        <time>2017-07-02T11:27:26Z</time>
      </trkpt>
      <trkpt lat="42.40595" lon="0.12014">
        <ele>828</ele>
        <time>2017-07-02T11:27:28Z</time>
      </trkpt>
      <trkpt lat="42.406" lon="0.12013">
        <ele>828</ele>
        <time>2017-07-02T11:27:30Z</time>
      </trkpt>
      <trkpt lat="42.40603" lon="0.12013">
        <ele>828</ele>
        <time>2017-07-02T11:27:32Z</time>
      </trkpt>
      <trkpt lat="42.40606" lon="0.12013">
        <ele>828</ele>
        <time>2017-07-02T11:27:34Z</time>
      </trkpt>
      <trkpt lat="42.40609" lon="0.1201">
        <ele>828</ele>
        <time>2017-07-02T11:27:36Z</time>
      </trkpt>
      <trkpt lat="42.40613" lon="0.12008">
        <ele>828</ele>
        <time>2017-07-02T11:27:38Z</time>
      </trkpt>
      <trkpt lat="42.40616" lon="0.12007">
        <ele>828</ele>
        <time>2017-07-02T11:27:41Z</time>
      </trkpt>
      <trkpt lat="42.4062" lon="0.12005">
        <ele>828</ele>
        <time>2017-07-02T11:27:45Z</time>
      </trkpt>
      <trkpt lat="42.40623" lon="0.12003">
        <ele>828</ele>
        <time>2017-07-02T11:27:47Z</time>
      </trkpt>
      <trkpt lat="42.40626" lon="0.12">
        <ele>828</ele>
        <time>2017-07-02T11:27:49Z</time>
      </trkpt>
      <trkpt lat="42.40629" lon="0.11996">
        <ele>828</ele>
        <time>2017-07-02T11:27:51Z</time>
      </trkpt>
      <trkpt lat="42.40632" lon="0.11991">
        <ele>828</ele>
        <time>2017-07-02T11:27:53Z</time>
      </trkpt>
      <trkpt lat="42.40634" lon="0.11986">
        <ele>828</ele>
        <time>2017-07-02T11:27:55Z</time>
      </trkpt>
      <trkpt lat="42.40637" lon="0.11982">
        <ele>828</ele>
        <time>2017-07-02T11:27:57Z</time>
      </trkpt>
      <trkpt lat="42.40639" lon="0.11979">
        <ele>827.9</ele>
        <time>2017-07-02T11:27:58Z</time>
      </trkpt>
      <trkpt lat="42.40642" lon="0.11976">
        <ele>827.9</ele>
        <time>2017-07-02T11:27:59Z</time>
      </trkpt>
      <trkpt lat="42.40645" lon="0.11972">
        <ele>827.8</ele>
        <time>2017-07-02T11:28:00Z</time>
      </trkpt>
      <trkpt lat="42.40648" lon="0.11969">
        <ele>827.6</ele>
        <time>2017-07-02T11:28:01Z</time>
      </trkpt>
      <trkpt lat="42.40651" lon="0.11967">
        <ele>827.5</ele>
        <time>2017-07-02T11:28:02Z</time>
      </trkpt>
      <trkpt lat="42.40655" lon="0.11964">
        <ele>827.3</ele>
        <time>2017-07-02T11:28:04Z</time>
      </trkpt>
      <trkpt lat="42.40658" lon="0.1196">
        <ele>827</ele>
        <time>2017-07-02T11:28:06Z</time>
      </trkpt>
      <trkpt lat="42.40661" lon="0.11957">
        <ele>826.6</ele>
        <time>2017-07-02T11:28:08Z</time>
      </trkpt>
      <trkpt lat="42.40664" lon="0.11952">
        <ele>826.2</ele>
        <time>2017-07-02T11:28:10Z</time>
      </trkpt>
      <trkpt lat="42.40666" lon="0.11947">
        <ele>825.7</ele>
        <time>2017-07-02T11:28:12Z</time>
      </trkpt>
      <trkpt lat="42.40667" lon="0.11942">
        <ele>825.2</ele>
        <time>2017-07-02T11:28:14Z</time>
      </trkpt>
      <trkpt lat="42.40669" lon="0.11936">
        <ele>824.7</ele>
        <time>2017-07-02T11:28:16Z</time>
      </trkpt>
      <trkpt lat="42.4067" lon="0.11931">
        <ele>824.2</ele>
        <time>2017-07-02T11:28:18Z</time>
      </trkpt>
      <trkpt lat="42.40671" lon="0.11927">
        <ele>823.8</ele>
        <time>2017-07-02T11:28:20Z</time>
      </trkpt>
      <trkpt lat="42.40671" lon="0.11922">
        <ele>823.4</ele>
        <time>2017-07-02T11:28:22Z</time>
      </trkpt>
      <trkpt lat="42.40671" lon="0.11919">
        <ele>823.1</ele>
        <time>2017-07-02T11:28:25Z</time>
      </trkpt>
      <trkpt lat="42.40674" lon="0.11916">
        <ele>822.6</ele>
        <time>2017-07-02T11:28:28Z</time>
      </trkpt>
      <trkpt lat="42.40676" lon="0.11912">
        <ele>822.2</ele>
        <time>2017-07-02T11:28:30Z</time>
      </trkpt>
      <trkpt lat="42.40677" lon="0.11908">
        <ele>821.8</ele>
        <time>2017-07-02T11:28:32Z</time>
      </trkpt>
      <trkpt lat="42.40679" lon="0.11904">
        <ele>821.4</ele>
        <time>2017-07-02T11:28:34Z</time>
      </trkpt>
      <trkpt lat="42.40682" lon="0.11901">
        <ele>821</ele>
        <time>2017-07-02T11:28:36Z</time>
      </trkpt>
      <trkpt lat="42.40685" lon="0.119">
        <ele>820.6</ele>
        <time>2017-07-02T11:28:38Z</time>
      </trkpt>
      <trkpt lat="42.40686" lon="0.11905">
        <ele>820.1</ele>
        <time>2017-07-02T11:28:55Z</time>
      </trkpt>
      <trkpt lat="42.40689" lon="0.11896">
        <ele>819.3</ele>
        <time>2017-07-02T11:29:21Z</time>
      </trkpt>
      <trkpt lat="42.40691" lon="0.11893">
        <ele>818.3</ele>
        <time>2017-07-02T11:29:23Z</time>
      </trkpt>
      <trkpt lat="42.40693" lon="0.11888">
        <ele>817.2</ele>
        <time>2017-07-02T11:29:25Z</time>
      </trkpt>
      <trkpt lat="42.40694" lon="0.11883">
        <ele>816.9</ele>
        <time>2017-07-02T11:29:27Z</time>
      </trkpt>
      <trkpt lat="42.40694" lon="0.11879">
        <ele>816.6</ele>
        <time>2017-07-02T11:29:29Z</time>
      </trkpt>
      <trkpt lat="42.40697" lon="0.11871">
        <ele>815.9</ele>
        <time>2017-07-02T11:29:31Z</time>
      </trkpt>
      <trkpt lat="42.407" lon="0.11866">
        <ele>815.2</ele>
        <time>2017-07-02T11:29:32Z</time>
      </trkpt>
      <trkpt lat="42.40702" lon="0.1186">
        <ele>814.5</ele>
        <time>2017-07-02T11:29:33Z</time>
      </trkpt>
      <trkpt lat="42.40703" lon="0.11854">
        <ele>814.3</ele>
        <time>2017-07-02T11:29:34Z</time>
      </trkpt>
      <trkpt lat="42.40705" lon="0.11849">
        <ele>813.5</ele>
        <time>2017-07-02T11:29:35Z</time>
      </trkpt>
      <trkpt lat="42.40707" lon="0.11844">
        <ele>812.8</ele>
        <time>2017-07-02T11:29:36Z</time>
      </trkpt>
      <trkpt lat="42.40708" lon="0.1184">
        <ele>812</ele>
        <time>2017-07-02T11:29:37Z</time>
      </trkpt>
      <trkpt lat="42.40709" lon="0.11835">
        <ele>811.6</ele>
        <time>2017-07-02T11:29:38Z</time>
      </trkpt>
      <trkpt lat="42.40709" lon="0.11831">
        <ele>811.1</ele>
        <time>2017-07-02T11:29:39Z</time>
      </trkpt>
      <trkpt lat="42.40709" lon="0.11827">
        <ele>810.7</ele>
        <time>2017-07-02T11:29:40Z</time>
      </trkpt>
      <trkpt lat="42.4071" lon="0.11823">
        <ele>810.6</ele>
        <time>2017-07-02T11:29:41Z</time>
      </trkpt>
      <trkpt lat="42.40713" lon="0.11821">
        <ele>810.1</ele>
        <time>2017-07-02T11:29:42Z</time>
      </trkpt>
      <trkpt lat="42.40716" lon="0.1182">
        <ele>809.8</ele>
        <time>2017-07-02T11:29:43Z</time>
      </trkpt>
      <trkpt lat="42.40718" lon="0.11819">
        <ele>809.5</ele>
        <time>2017-07-02T11:29:44Z</time>
      </trkpt>
      <trkpt lat="42.40721" lon="0.11819">
        <ele>809.3</ele>
        <time>2017-07-02T11:29:45Z</time>
      </trkpt>
      <trkpt lat="42.40726" lon="0.11816">
        <ele>809</ele>
        <time>2017-07-02T11:29:47Z</time>
      </trkpt>
      <trkpt lat="42.40729" lon="0.11814">
        <ele>808.8</ele>
        <time>2017-07-02T11:29:48Z</time>
      </trkpt>
      <trkpt lat="42.40732" lon="0.11811">
        <ele>808.4</ele>
        <time>2017-07-02T11:29:50Z</time>
      </trkpt>
      <trkpt lat="42.40734" lon="0.11808">
        <ele>808</ele>
        <time>2017-07-02T11:29:52Z</time>
      </trkpt>
      <trkpt lat="42.40736" lon="0.11805">
        <ele>807.9</ele>
        <time>2017-07-02T11:29:53Z</time>
      </trkpt>
      <trkpt lat="42.40738" lon="0.11802">
        <ele>807.4</ele>
        <time>2017-07-02T11:29:54Z</time>
      </trkpt>
      <trkpt lat="42.40741" lon="0.11799">
        <ele>806.7</ele>
        <time>2017-07-02T11:29:55Z</time>
      </trkpt>
      <trkpt lat="42.40744" lon="0.11796">
        <ele>805.9</ele>
        <time>2017-07-02T11:29:56Z</time>
      </trkpt>
      <trkpt lat="42.40747" lon="0.11792">
        <ele>805.1</ele>
        <time>2017-07-02T11:29:57Z</time>
      </trkpt>
      <trkpt lat="42.40749" lon="0.11788">
        <ele>804.3</ele>
        <time>2017-07-02T11:29:58Z</time>
      </trkpt>
      <trkpt lat="42.40752" lon="0.11784">
        <ele>803.3</ele>
        <time>2017-07-02T11:29:59Z</time>
      </trkpt>
      <trkpt lat="42.40755" lon="0.1178">
        <ele>803.1</ele>
        <time>2017-07-02T11:30:00Z</time>
      </trkpt>
      <trkpt lat="42.40757" lon="0.11775">
        <ele>802.1</ele>
        <time>2017-07-02T11:30:01Z</time>
      </trkpt>
      <trkpt lat="42.40759" lon="0.11771">
        <ele>801</ele>
        <time>2017-07-02T11:30:02Z</time>
      </trkpt>
      <trkpt lat="42.40761" lon="0.11768">
        <ele>800.9</ele>
        <time>2017-07-02T11:30:03Z</time>
      </trkpt>
      <trkpt lat="42.40764" lon="0.11766">
        <ele>799.8</ele>
        <time>2017-07-02T11:30:04Z</time>
      </trkpt>
      <trkpt lat="42.40766" lon="0.11764">
        <ele>798.8</ele>
        <time>2017-07-02T11:30:05Z</time>
      </trkpt>
      <trkpt lat="42.40771" lon="0.11762">
        <ele>796.9</ele>
        <time>2017-07-02T11:30:07Z</time>
      </trkpt>
      <trkpt lat="42.40775" lon="0.1176">
        <ele>796</ele>
        <time>2017-07-02T11:30:09Z</time>
      </trkpt>
      <trkpt lat="42.40778" lon="0.11754">
        <ele>795.5</ele>
        <time>2017-07-02T11:30:11Z</time>
      </trkpt>
      <trkpt lat="42.4078" lon="0.1175">
        <ele>795</ele>
        <time>2017-07-02T11:30:13Z</time>
      </trkpt>
      <trkpt lat="42.40782" lon="0.11746">
        <ele>794.6</ele>
        <time>2017-07-02T11:30:16Z</time>
      </trkpt>
      <trkpt lat="42.40785" lon="0.11742">
        <ele>794.2</ele>
        <time>2017-07-02T11:30:19Z</time>
      </trkpt>
      <trkpt lat="42.40786" lon="0.11739">
        <ele>793.9</ele>
        <time>2017-07-02T11:30:20Z</time>
      </trkpt>
      <trkpt lat="42.40787" lon="0.11732">
        <ele>793.3</ele>
        <time>2017-07-02T11:30:22Z</time>
      </trkpt>
      <trkpt lat="42.40786" lon="0.11728">
        <ele>793</ele>
        <time>2017-07-02T11:30:23Z</time>
      </trkpt>
      <trkpt lat="42.40786" lon="0.11723">
        <ele>792.6</ele>
        <time>2017-07-02T11:30:24Z</time>
      </trkpt>
      <trkpt lat="42.40785" lon="0.11719">
        <ele>792.2</ele>
        <time>2017-07-02T11:30:25Z</time>
      </trkpt>
      <trkpt lat="42.40783" lon="0.11716">
        <ele>791.9</ele>
        <time>2017-07-02T11:30:26Z</time>
      </trkpt>
      <trkpt lat="42.40782" lon="0.11712">
        <ele>791.6</ele>
        <time>2017-07-02T11:30:27Z</time>
      </trkpt>
      <trkpt lat="42.40782" lon="0.11708">
        <ele>791.3</ele>
        <time>2017-07-02T11:30:28Z</time>
      </trkpt>
      <trkpt lat="42.40783" lon="0.11704">
        <ele>790.9</ele>
        <time>2017-07-02T11:30:29Z</time>
      </trkpt>
      <trkpt lat="42.40784" lon="0.11701">
        <ele>790.6</ele>
        <time>2017-07-02T11:30:30Z</time>
      </trkpt>
      <trkpt lat="42.40786" lon="0.11698">
        <ele>790.2</ele>
        <time>2017-07-02T11:30:31Z</time>
      </trkpt>
      <trkpt lat="42.40788" lon="0.11694">
        <ele>789.7</ele>
        <time>2017-07-02T11:30:32Z</time>
      </trkpt>
      <trkpt lat="42.4079" lon="0.11689">
        <ele>789.2</ele>
        <time>2017-07-02T11:30:33Z</time>
      </trkpt>
      <trkpt lat="42.40792" lon="0.11684">
        <ele>788.5</ele>
        <time>2017-07-02T11:30:34Z</time>
      </trkpt>
      <trkpt lat="42.40795" lon="0.11681">
        <ele>788</ele>
        <time>2017-07-02T11:30:35Z</time>
      </trkpt>
      <trkpt lat="42.40797" lon="0.11679">
        <ele>787.5</ele>
        <time>2017-07-02T11:30:36Z</time>
      </trkpt>
      <trkpt lat="42.408" lon="0.11677">
        <ele>787</ele>
        <time>2017-07-02T11:30:37Z</time>
      </trkpt>
      <trkpt lat="42.40803" lon="0.11675">
        <ele>786.5</ele>
        <time>2017-07-02T11:30:38Z</time>
      </trkpt>
      <trkpt lat="42.40806" lon="0.11672">
        <ele>785.9</ele>
        <time>2017-07-02T11:30:40Z</time>
      </trkpt>
      <trkpt lat="42.40804" lon="0.11667">
        <ele>785.1</ele>
        <time>2017-07-02T11:30:43Z</time>
      </trkpt>
      <trkpt lat="42.40804" lon="0.11661">
        <ele>784.3</ele>
        <time>2017-07-02T11:30:45Z</time>
      </trkpt>
      <trkpt lat="42.40806" lon="0.11657">
        <ele>783.8</ele>
        <time>2017-07-02T11:30:46Z</time>
      </trkpt>
      <trkpt lat="42.40808" lon="0.11654">
        <ele>783.3</ele>
        <time>2017-07-02T11:30:47Z</time>
      </trkpt>
      <trkpt lat="42.4081" lon="0.11651">
        <ele>782.5</ele>
        <time>2017-07-02T11:30:48Z</time>
      </trkpt>
      <trkpt lat="42.40813" lon="0.11648">
        <ele>781.9</ele>
        <time>2017-07-02T11:30:50Z</time>
      </trkpt>
      <trkpt lat="42.40815" lon="0.11645">
        <ele>781.5</ele>
        <time>2017-07-02T11:30:52Z</time>
      </trkpt>
      <trkpt lat="42.40818" lon="0.1164">
        <ele>780.9</ele>
        <time>2017-07-02T11:30:55Z</time>
      </trkpt>
      <trkpt lat="42.40821" lon="0.11635">
        <ele>780.1</ele>
        <time>2017-07-02T11:30:57Z</time>
      </trkpt>
      <trkpt lat="42.40824" lon="0.11629">
        <ele>779.3</ele>
        <time>2017-07-02T11:30:59Z</time>
      </trkpt>
      <trkpt lat="42.40826" lon="0.11622">
        <ele>778.4</ele>
        <time>2017-07-02T11:31:01Z</time>
      </trkpt>
      <trkpt lat="42.40828" lon="0.11619">
        <ele>777.9</ele>
        <time>2017-07-02T11:31:02Z</time>
      </trkpt>
      <trkpt lat="42.4083" lon="0.11615">
        <ele>777.4</ele>
        <time>2017-07-02T11:31:03Z</time>
      </trkpt>
      <trkpt lat="42.40832" lon="0.11612">
        <ele>776.9</ele>
        <time>2017-07-02T11:31:04Z</time>
      </trkpt>
      <trkpt lat="42.40835" lon="0.11607">
        <ele>776.1</ele>
        <time>2017-07-02T11:31:06Z</time>
      </trkpt>
      <trkpt lat="42.40836" lon="0.11604">
        <ele>775.6</ele>
        <time>2017-07-02T11:31:07Z</time>
      </trkpt>
      <trkpt lat="42.40837" lon="0.116">
        <ele>775</ele>
        <time>2017-07-02T11:31:08Z</time>
      </trkpt>
      <trkpt lat="42.40838" lon="0.11596">
        <ele>774.4</ele>
        <time>2017-07-02T11:31:09Z</time>
      </trkpt>
      <trkpt lat="42.40838" lon="0.11592">
        <ele>773.7</ele>
        <time>2017-07-02T11:31:10Z</time>
      </trkpt>
      <trkpt lat="42.40839" lon="0.11588">
        <ele>773</ele>
        <time>2017-07-02T11:31:12Z</time>
      </trkpt>
      <trkpt lat="42.40841" lon="0.11584">
        <ele>772.1</ele>
        <time>2017-07-02T11:31:14Z</time>
      </trkpt>
      <trkpt lat="42.40842" lon="0.11579">
        <ele>771.3</ele>
        <time>2017-07-02T11:31:16Z</time>
      </trkpt>
      <trkpt lat="42.40841" lon="0.11574">
        <ele>771</ele>
        <time>2017-07-02T11:31:18Z</time>
      </trkpt>
      <trkpt lat="42.40843" lon="0.11568">
        <ele>770.6</ele>
        <time>2017-07-02T11:31:20Z</time>
      </trkpt>
      <trkpt lat="42.40845" lon="0.11566">
        <ele>770.4</ele>
        <time>2017-07-02T11:31:21Z</time>
      </trkpt>
      <trkpt lat="42.40847" lon="0.11563">
        <ele>770</ele>
        <time>2017-07-02T11:31:22Z</time>
      </trkpt>
      <trkpt lat="42.40852" lon="0.1156">
        <ele>769.3</ele>
        <time>2017-07-02T11:31:24Z</time>
      </trkpt>
      <trkpt lat="42.40855" lon="0.11555">
        <ele>768.6</ele>
        <time>2017-07-02T11:31:26Z</time>
      </trkpt>
      <trkpt lat="42.40856" lon="0.11551">
        <ele>768.2</ele>
        <time>2017-07-02T11:31:27Z</time>
      </trkpt>
      <trkpt lat="42.40857" lon="0.11548">
        <ele>767.9</ele>
        <time>2017-07-02T11:31:28Z</time>
      </trkpt>
      <trkpt lat="42.40856" lon="0.11541">
        <ele>767.2</ele>
        <time>2017-07-02T11:31:30Z</time>
      </trkpt>
      <trkpt lat="42.40854" lon="0.11537">
        <ele>766.5</ele>
        <time>2017-07-02T11:31:32Z</time>
      </trkpt>
      <trkpt lat="42.40855" lon="0.11532">
        <ele>765.9</ele>
        <time>2017-07-02T11:31:34Z</time>
      </trkpt>
      <trkpt lat="42.40857" lon="0.11526">
        <ele>765</ele>
        <time>2017-07-02T11:31:36Z</time>
      </trkpt>
      <trkpt lat="42.4086" lon="0.11522">
        <ele>764.1</ele>
        <time>2017-07-02T11:31:38Z</time>
      </trkpt>
      <trkpt lat="42.40863" lon="0.11518">
        <ele>763.5</ele>
        <time>2017-07-02T11:31:40Z</time>
      </trkpt>
      <trkpt lat="42.40864" lon="0.11514">
        <ele>763</ele>
        <time>2017-07-02T11:31:42Z</time>
      </trkpt>
      <trkpt lat="42.40868" lon="0.11509">
        <ele>762.2</ele>
        <time>2017-07-02T11:31:44Z</time>
      </trkpt>
      <trkpt lat="42.40871" lon="0.11506">
        <ele>761.8</ele>
        <time>2017-07-02T11:31:45Z</time>
      </trkpt>
      <trkpt lat="42.40874" lon="0.11503">
        <ele>761.3</ele>
        <time>2017-07-02T11:31:46Z</time>
      </trkpt>
      <trkpt lat="42.40878" lon="0.115">
        <ele>760.8</ele>
        <time>2017-07-02T11:31:47Z</time>
      </trkpt>
      <trkpt lat="42.40881" lon="0.11497">
        <ele>760.3</ele>
        <time>2017-07-02T11:31:48Z</time>
      </trkpt>
      <trkpt lat="42.40883" lon="0.11493">
        <ele>760</ele>
        <time>2017-07-02T11:31:49Z</time>
      </trkpt>
      <trkpt lat="42.40885" lon="0.11489">
        <ele>759.6</ele>
        <time>2017-07-02T11:31:50Z</time>
      </trkpt>
      <trkpt lat="42.40887" lon="0.11484">
        <ele>759.3</ele>
        <time>2017-07-02T11:31:51Z</time>
      </trkpt>
      <trkpt lat="42.40889" lon="0.11479">
        <ele>758.9</ele>
        <time>2017-07-02T11:31:52Z</time>
      </trkpt>
      <trkpt lat="42.4089" lon="0.11475">
        <ele>758.5</ele>
        <time>2017-07-02T11:31:53Z</time>
      </trkpt>
      <trkpt lat="42.40892" lon="0.1147">
        <ele>758.2</ele>
        <time>2017-07-02T11:31:54Z</time>
      </trkpt>
      <trkpt lat="42.40893" lon="0.11466">
        <ele>757.9</ele>
        <time>2017-07-02T11:31:55Z</time>
      </trkpt>
      <trkpt lat="42.40895" lon="0.11462">
        <ele>757.6</ele>
        <time>2017-07-02T11:31:56Z</time>
      </trkpt>
      <trkpt lat="42.40896" lon="0.11459">
        <ele>757.3</ele>
        <time>2017-07-02T11:31:57Z</time>
      </trkpt>
      <trkpt lat="42.40898" lon="0.11455">
        <ele>756.9</ele>
        <time>2017-07-02T11:31:58Z</time>
      </trkpt>
      <trkpt lat="42.40899" lon="0.11452">
        <ele>756.7</ele>
        <time>2017-07-02T11:31:59Z</time>
      </trkpt>
      <trkpt lat="42.40898" lon="0.11445">
        <ele>756.1</ele>
        <time>2017-07-02T11:32:01Z</time>
      </trkpt>
      <trkpt lat="42.40896" lon="0.11441">
        <ele>755.7</ele>
        <time>2017-07-02T11:32:03Z</time>
      </trkpt>
      <trkpt lat="42.40898" lon="0.11437">
        <ele>755.4</ele>
        <time>2017-07-02T11:32:05Z</time>
      </trkpt>
      <trkpt lat="42.409" lon="0.11432">
        <ele>755</ele>
        <time>2017-07-02T11:32:07Z</time>
      </trkpt>
      <trkpt lat="42.409" lon="0.11429">
        <ele>754.7</ele>
        <time>2017-07-02T11:32:08Z</time>
      </trkpt>
      <trkpt lat="42.409" lon="0.11424">
        <ele>754.4</ele>
        <time>2017-07-02T11:32:09Z</time>
      </trkpt>
      <trkpt lat="42.409" lon="0.1142">
        <ele>754.1</ele>
        <time>2017-07-02T11:32:10Z</time>
      </trkpt>
      <trkpt lat="42.40901" lon="0.11415">
        <ele>753.6</ele>
        <time>2017-07-02T11:32:11Z</time>
      </trkpt>
      <trkpt lat="42.40903" lon="0.11411">
        <ele>753.2</ele>
        <time>2017-07-02T11:32:12Z</time>
      </trkpt>
      <trkpt lat="42.40905" lon="0.11408">
        <ele>752.8</ele>
        <time>2017-07-02T11:32:13Z</time>
      </trkpt>
      <trkpt lat="42.40907" lon="0.11405">
        <ele>752.4</ele>
        <time>2017-07-02T11:32:14Z</time>
      </trkpt>
      <trkpt lat="42.40909" lon="0.11401">
        <ele>752</ele>
        <time>2017-07-02T11:32:15Z</time>
      </trkpt>
      <trkpt lat="42.40911" lon="0.11397">
        <ele>751.3</ele>
        <time>2017-07-02T11:32:16Z</time>
      </trkpt>
      <trkpt lat="42.40912" lon="0.11392">
        <ele>750.6</ele>
        <time>2017-07-02T11:32:17Z</time>
      </trkpt>
      <trkpt lat="42.40912" lon="0.11387">
        <ele>749.7</ele>
        <time>2017-07-02T11:32:18Z</time>
      </trkpt>
      <trkpt lat="42.4091" lon="0.11381">
        <ele>748.9</ele>
        <time>2017-07-02T11:32:19Z</time>
      </trkpt>
      <trkpt lat="42.40908" lon="0.11377">
        <ele>748.1</ele>
        <time>2017-07-02T11:32:20Z</time>
      </trkpt>
      <trkpt lat="42.40905" lon="0.11374">
        <ele>747.4</ele>
        <time>2017-07-02T11:32:21Z</time>
      </trkpt>
      <trkpt lat="42.40902" lon="0.11372">
        <ele>746.8</ele>
        <time>2017-07-02T11:32:22Z</time>
      </trkpt>
      <trkpt lat="42.40899" lon="0.11368">
        <ele>746.2</ele>
        <time>2017-07-02T11:32:24Z</time>
      </trkpt>
      <trkpt lat="42.409" lon="0.11364">
        <ele>745.6</ele>
        <time>2017-07-02T11:32:25Z</time>
      </trkpt>
      <trkpt lat="42.40901" lon="0.11359">
        <ele>745</ele>
        <time>2017-07-02T11:32:26Z</time>
      </trkpt>
      <trkpt lat="42.40903" lon="0.11356">
        <ele>744.5</ele>
        <time>2017-07-02T11:32:27Z</time>
      </trkpt>
      <trkpt lat="42.40906" lon="0.11352">
        <ele>743.8</ele>
        <time>2017-07-02T11:32:29Z</time>
      </trkpt>
      <trkpt lat="42.40908" lon="0.11349">
        <ele>743.3</ele>
        <time>2017-07-02T11:32:30Z</time>
      </trkpt>
      <trkpt lat="42.40911" lon="0.11346">
        <ele>742.7</ele>
        <time>2017-07-02T11:32:31Z</time>
      </trkpt>
      <trkpt lat="42.40914" lon="0.11342">
        <ele>741.8</ele>
        <time>2017-07-02T11:32:32Z</time>
      </trkpt>
      <trkpt lat="42.40916" lon="0.11338">
        <ele>741</ele>
        <time>2017-07-02T11:32:33Z</time>
      </trkpt>
      <trkpt lat="42.40917" lon="0.11334">
        <ele>740.2</ele>
        <time>2017-07-02T11:32:34Z</time>
      </trkpt>
      <trkpt lat="42.40917" lon="0.1133">
        <ele>739.5</ele>
        <time>2017-07-02T11:32:35Z</time>
      </trkpt>
      <trkpt lat="42.40919" lon="0.11324">
        <ele>738.3</ele>
        <time>2017-07-02T11:32:37Z</time>
      </trkpt>
      <trkpt lat="42.4092" lon="0.1132">
        <ele>737.7</ele>
        <time>2017-07-02T11:32:39Z</time>
      </trkpt>
      <trkpt lat="42.40919" lon="0.11314">
        <ele>736.8</ele>
        <time>2017-07-02T11:32:41Z</time>
      </trkpt>
      <trkpt lat="42.40921" lon="0.11308">
        <ele>735.9</ele>
        <time>2017-07-02T11:32:43Z</time>
      </trkpt>
      <trkpt lat="42.40923" lon="0.11305">
        <ele>735.4</ele>
        <time>2017-07-02T11:32:44Z</time>
      </trkpt>
      <trkpt lat="42.40926" lon="0.11299">
        <ele>734.2</ele>
        <time>2017-07-02T11:32:46Z</time>
      </trkpt>
      <trkpt lat="42.40928" lon="0.11295">
        <ele>733.5</ele>
        <time>2017-07-02T11:32:47Z</time>
      </trkpt>
      <trkpt lat="42.4093" lon="0.11291">
        <ele>732.7</ele>
        <time>2017-07-02T11:32:48Z</time>
      </trkpt>
      <trkpt lat="42.4093" lon="0.11285">
        <ele>731.5</ele>
        <time>2017-07-02T11:32:50Z</time>
      </trkpt>
      <trkpt lat="42.40929" lon="0.11281">
        <ele>730.8</ele>
        <time>2017-07-02T11:32:51Z</time>
      </trkpt>
      <trkpt lat="42.40927" lon="0.11279">
        <ele>730</ele>
        <time>2017-07-02T11:32:52Z</time>
      </trkpt>
      <trkpt lat="42.40925" lon="0.11276">
        <ele>729.1</ele>
        <time>2017-07-02T11:32:53Z</time>
      </trkpt>
      <trkpt lat="42.40923" lon="0.11273">
        <ele>728.3</ele>
        <time>2017-07-02T11:32:54Z</time>
      </trkpt>
      <trkpt lat="42.40921" lon="0.11269">
        <ele>727.4</ele>
        <time>2017-07-02T11:32:55Z</time>
      </trkpt>
      <trkpt lat="42.4092" lon="0.11265">
        <ele>726.5</ele>
        <time>2017-07-02T11:32:56Z</time>
      </trkpt>
      <trkpt lat="42.40921" lon="0.11259">
        <ele>725.3</ele>
        <time>2017-07-02T11:32:58Z</time>
      </trkpt>
      <trkpt lat="42.40922" lon="0.11254">
        <ele>724.3</ele>
        <time>2017-07-02T11:33:00Z</time>
      </trkpt>
      <trkpt lat="42.40921" lon="0.11247">
        <ele>723.1</ele>
        <time>2017-07-02T11:33:02Z</time>
      </trkpt>
      <trkpt lat="42.40919" lon="0.11243">
        <ele>722.1</ele>
        <time>2017-07-02T11:33:04Z</time>
      </trkpt>
      <trkpt lat="42.40918" lon="0.11239">
        <ele>721.1</ele>
        <time>2017-07-02T11:33:06Z</time>
      </trkpt>
      <trkpt lat="42.40918" lon="0.11233">
        <ele>719.9</ele>
        <time>2017-07-02T11:33:08Z</time>
      </trkpt>
      <trkpt lat="42.40919" lon="0.11226">
        <ele>718.5</ele>
        <time>2017-07-02T11:33:10Z</time>
      </trkpt>
      <trkpt lat="42.40921" lon="0.11221">
        <ele>717.4</ele>
        <time>2017-07-02T11:33:12Z</time>
      </trkpt>
      <trkpt lat="42.40923" lon="0.11217">
        <ele>716.5</ele>
        <time>2017-07-02T11:33:14Z</time>
      </trkpt>
      <trkpt lat="42.40923" lon="0.11213">
        <ele>715.7</ele>
        <time>2017-07-02T11:33:16Z</time>
      </trkpt>
      <trkpt lat="42.40921" lon="0.11208">
        <ele>714.6</ele>
        <time>2017-07-02T11:33:18Z</time>
      </trkpt>
      <trkpt lat="42.40921" lon="0.11204">
        <ele>713.9</ele>
        <time>2017-07-02T11:33:19Z</time>
      </trkpt>
      <trkpt lat="42.40921" lon="0.112">
        <ele>713.2</ele>
        <time>2017-07-02T11:33:20Z</time>
      </trkpt>
      <trkpt lat="42.40923" lon="0.11195">
        <ele>712.1</ele>
        <time>2017-07-02T11:33:22Z</time>
      </trkpt>
      <trkpt lat="42.40919" lon="0.1119">
        <ele>710.7</ele>
        <time>2017-07-02T11:33:24Z</time>
      </trkpt>
      <trkpt lat="42.40915" lon="0.11187">
        <ele>709.3</ele>
        <time>2017-07-02T11:33:26Z</time>
      </trkpt>
      <trkpt lat="42.40913" lon="0.11181">
        <ele>707.8</ele>
        <time>2017-07-02T11:33:28Z</time>
      </trkpt>
      <trkpt lat="42.40912" lon="0.11176">
        <ele>706.7</ele>
        <time>2017-07-02T11:33:29Z</time>
      </trkpt>
      <trkpt lat="42.4091" lon="0.11172">
        <ele>705.9</ele>
        <time>2017-07-02T11:33:30Z</time>
      </trkpt>
      <trkpt lat="42.40907" lon="0.11169">
        <ele>705.4</ele>
        <time>2017-07-02T11:33:31Z</time>
      </trkpt>
      <trkpt lat="42.40905" lon="0.11166">
        <ele>705.2</ele>
        <time>2017-07-02T11:33:32Z</time>
      </trkpt>
      <trkpt lat="42.409" lon="0.11163">
        <ele>704.8</ele>
        <time>2017-07-02T11:33:34Z</time>
      </trkpt>
      <trkpt lat="42.40897" lon="0.11162">
        <ele>704.5</ele>
        <time>2017-07-02T11:33:36Z</time>
      </trkpt>
      <trkpt lat="42.40894" lon="0.11162">
        <ele>704.3</ele>
        <time>2017-07-02T11:33:38Z</time>
      </trkpt>
      <trkpt lat="42.40892" lon="0.11158">
        <ele>704</ele>
        <time>2017-07-02T11:33:48Z</time>
      </trkpt>
      <trkpt lat="42.40891" lon="0.11155">
        <ele>703.7</ele>
        <time>2017-07-02T11:33:50Z</time>
      </trkpt>
      <trkpt lat="42.40889" lon="0.1115">
        <ele>703.1</ele>
        <time>2017-07-02T11:33:52Z</time>
      </trkpt>
      <trkpt lat="42.40891" lon="0.11143">
        <ele>702.3</ele>
        <time>2017-07-02T11:33:54Z</time>
      </trkpt>
      <trkpt lat="42.40892" lon="0.11139">
        <ele>701.8</ele>
        <time>2017-07-02T11:33:55Z</time>
      </trkpt>
      <trkpt lat="42.40892" lon="0.11134">
        <ele>701</ele>
        <time>2017-07-02T11:33:56Z</time>
      </trkpt>
      <trkpt lat="42.40892" lon="0.11129">
        <ele>700.2</ele>
        <time>2017-07-02T11:33:57Z</time>
      </trkpt>
      <trkpt lat="42.40891" lon="0.11125">
        <ele>699.4</ele>
        <time>2017-07-02T11:33:58Z</time>
      </trkpt>
      <trkpt lat="42.40887" lon="0.11119">
        <ele>698.3</ele>
        <time>2017-07-02T11:34:00Z</time>
      </trkpt>
      <trkpt lat="42.40885" lon="0.11116">
        <ele>697.6</ele>
        <time>2017-07-02T11:34:01Z</time>
      </trkpt>
      <trkpt lat="42.40881" lon="0.11113">
        <ele>696.5</ele>
        <time>2017-07-02T11:34:03Z</time>
      </trkpt>
      <trkpt lat="42.40878" lon="0.11109">
        <ele>695.6</ele>
        <time>2017-07-02T11:34:05Z</time>
      </trkpt>
      <trkpt lat="42.40876" lon="0.11106">
        <ele>695</ele>
        <time>2017-07-02T11:34:06Z</time>
      </trkpt>
      <trkpt lat="42.40874" lon="0.11103">
        <ele>694.5</ele>
        <time>2017-07-02T11:34:07Z</time>
      </trkpt>
      <trkpt lat="42.40872" lon="0.11101">
        <ele>694</ele>
        <time>2017-07-02T11:34:08Z</time>
      </trkpt>
      <trkpt lat="42.40869" lon="0.11098">
        <ele>693.5</ele>
        <time>2017-07-02T11:34:10Z</time>
      </trkpt>
      <trkpt lat="42.40867" lon="0.11095">
        <ele>692.9</ele>
        <time>2017-07-02T11:34:12Z</time>
      </trkpt>
      <trkpt lat="42.40863" lon="0.11092">
        <ele>692.4</ele>
        <time>2017-07-02T11:34:14Z</time>
      </trkpt>
      <trkpt lat="42.40862" lon="0.11086">
        <ele>691.6</ele>
        <time>2017-07-02T11:34:16Z</time>
      </trkpt>
      <trkpt lat="42.40865" lon="0.1108">
        <ele>690.4</ele>
        <time>2017-07-02T11:34:18Z</time>
      </trkpt>
      <trkpt lat="42.40865" lon="0.11074">
        <ele>689</ele>
        <time>2017-07-02T11:34:20Z</time>
      </trkpt>
      <trkpt lat="42.40863" lon="0.1107">
        <ele>688</ele>
        <time>2017-07-02T11:34:21Z</time>
      </trkpt>
      <trkpt lat="42.40862" lon="0.11067">
        <ele>687.1</ele>
        <time>2017-07-02T11:34:22Z</time>
      </trkpt>
      <trkpt lat="42.40858" lon="0.11063">
        <ele>685.8</ele>
        <time>2017-07-02T11:34:24Z</time>
      </trkpt>
      <trkpt lat="42.40856" lon="0.11061">
        <ele>684.9</ele>
        <time>2017-07-02T11:34:26Z</time>
      </trkpt>
      <trkpt lat="42.40859" lon="0.1106">
        <ele>684</ele>
        <time>2017-07-02T11:34:45Z</time>
      </trkpt>
      <trkpt lat="42.40861" lon="0.11062">
        <ele>682.8</ele>
        <time>2017-07-02T11:35:08Z</time>
      </trkpt>
      <trkpt lat="42.40863" lon="0.11058">
        <ele>681.7</ele>
        <time>2017-07-02T11:35:13Z</time>
      </trkpt>
      <trkpt lat="42.40861" lon="0.11054">
        <ele>680.4</ele>
        <time>2017-07-02T11:35:18Z</time>
      </trkpt>
      <trkpt lat="42.4086" lon="0.1105">
        <ele>679.3</ele>
        <time>2017-07-02T11:35:26Z</time>
      </trkpt>
      <trkpt lat="42.40858" lon="0.11046">
        <ele>678</ele>
        <time>2017-07-02T11:35:28Z</time>
      </trkpt>
      <trkpt lat="42.40854" lon="0.1104">
        <ele>676.4</ele>
        <time>2017-07-02T11:35:30Z</time>
      </trkpt>
      <trkpt lat="42.40853" lon="0.11037">
        <ele>675.7</ele>
        <time>2017-07-02T11:35:31Z</time>
      </trkpt>
      <trkpt lat="42.40851" lon="0.11034">
        <ele>675</ele>
        <time>2017-07-02T11:35:32Z</time>
      </trkpt>
      <trkpt lat="42.40848" lon="0.11029">
        <ele>673.8</ele>
        <time>2017-07-02T11:35:34Z</time>
      </trkpt>
      <trkpt lat="42.40845" lon="0.11024">
        <ele>672.7</ele>
        <time>2017-07-02T11:35:36Z</time>
      </trkpt>
      <trkpt lat="42.40843" lon="0.1102">
        <ele>671.8</ele>
        <time>2017-07-02T11:35:38Z</time>
      </trkpt>
      <trkpt lat="42.40842" lon="0.11015">
        <ele>670.8</ele>
        <time>2017-07-02T11:35:40Z</time>
      </trkpt>
      <trkpt lat="42.40841" lon="0.11009">
        <ele>669.4</ele>
        <time>2017-07-02T11:35:42Z</time>
      </trkpt>
      <trkpt lat="42.4084" lon="0.11005">
        <ele>668.2</ele>
        <time>2017-07-02T11:35:43Z</time>
      </trkpt>
      <trkpt lat="42.4084" lon="0.11001">
        <ele>667</ele>
        <time>2017-07-02T11:35:44Z</time>
      </trkpt>
      <trkpt lat="42.40839" lon="0.10995">
        <ele>665.4</ele>
        <time>2017-07-02T11:35:46Z</time>
      </trkpt>
      <trkpt lat="42.4084" lon="0.10991">
        <ele>664.5</ele>
        <time>2017-07-02T11:35:51Z</time>
      </trkpt>
      <trkpt lat="42.40842" lon="0.10989">
        <ele>663.4</ele>
        <time>2017-07-02T11:35:57Z</time>
      </trkpt>
      <trkpt lat="42.40845" lon="0.10989">
        <ele>662.6</ele>
        <time>2017-07-02T11:36:04Z</time>
      </trkpt>
      <trkpt lat="42.40844" lon="0.10985">
        <ele>661.4</ele>
        <time>2017-07-02T11:36:07Z</time>
      </trkpt>
      <trkpt lat="42.40842" lon="0.1098">
        <ele>660.1</ele>
        <time>2017-07-02T11:36:09Z</time>
      </trkpt>
      <trkpt lat="42.40841" lon="0.10975">
        <ele>658.9</ele>
        <time>2017-07-02T11:36:11Z</time>
      </trkpt>
      <trkpt lat="42.40841" lon="0.1097">
        <ele>658.1</ele>
        <time>2017-07-02T11:36:13Z</time>
      </trkpt>
      <trkpt lat="42.4084" lon="0.10966">
        <ele>657.3</ele>
        <time>2017-07-02T11:36:15Z</time>
      </trkpt>
      <trkpt lat="42.40839" lon="0.10962">
        <ele>656.5</ele>
        <time>2017-07-02T11:36:18Z</time>
      </trkpt>
      <trkpt lat="42.40839" lon="0.10958">
        <ele>656</ele>
        <time>2017-07-02T11:36:20Z</time>
      </trkpt>
      <trkpt lat="42.40841" lon="0.10952">
        <ele>655.2</ele>
        <time>2017-07-02T11:36:22Z</time>
      </trkpt>
      <trkpt lat="42.40843" lon="0.10948">
        <ele>654.5</ele>
        <time>2017-07-02T11:36:24Z</time>
      </trkpt>
      <trkpt lat="42.40843" lon="0.10942">
        <ele>653.8</ele>
        <time>2017-07-02T11:36:26Z</time>
      </trkpt>
      <trkpt lat="42.40843" lon="0.10938">
        <ele>653.2</ele>
        <time>2017-07-02T11:36:27Z</time>
      </trkpt>
      <trkpt lat="42.40842" lon="0.10933">
        <ele>652.6</ele>
        <time>2017-07-02T11:36:28Z</time>
      </trkpt>
      <trkpt lat="42.40842" lon="0.10928">
        <ele>651.9</ele>
        <time>2017-07-02T11:36:29Z</time>
      </trkpt>
      <trkpt lat="42.40842" lon="0.10924">
        <ele>651.3</ele>
        <time>2017-07-02T11:36:30Z</time>
      </trkpt>
      <trkpt lat="42.40842" lon="0.1092">
        <ele>650.7</ele>
        <time>2017-07-02T11:36:31Z</time>
      </trkpt>
      <trkpt lat="42.40841" lon="0.10915">
        <ele>650</ele>
        <time>2017-07-02T11:36:32Z</time>
      </trkpt>
      <trkpt lat="42.40839" lon="0.1091">
        <ele>649.3</ele>
        <time>2017-07-02T11:36:33Z</time>
      </trkpt>
      <trkpt lat="42.40837" lon="0.10907">
        <ele>648.7</ele>
        <time>2017-07-02T11:36:34Z</time>
      </trkpt>
      <trkpt lat="42.40834" lon="0.10903">
        <ele>647.8</ele>
        <time>2017-07-02T11:36:35Z</time>
      </trkpt>
      <trkpt lat="42.40831" lon="0.109">
        <ele>647</ele>
        <time>2017-07-02T11:36:36Z</time>
      </trkpt>
      <trkpt lat="42.40828" lon="0.10898">
        <ele>646.3</ele>
        <time>2017-07-02T11:36:37Z</time>
      </trkpt>
      <trkpt lat="42.40825" lon="0.10894">
        <ele>645.4</ele>
        <time>2017-07-02T11:36:39Z</time>
      </trkpt>
      <trkpt lat="42.40824" lon="0.10888">
        <ele>644.5</ele>
        <time>2017-07-02T11:36:41Z</time>
      </trkpt>
      <trkpt lat="42.40823" lon="0.10884">
        <ele>643.9</ele>
        <time>2017-07-02T11:36:43Z</time>
      </trkpt>
      <trkpt lat="42.40818" lon="0.10881">
        <ele>642.9</ele>
        <time>2017-07-02T11:36:45Z</time>
      </trkpt>
      <trkpt lat="42.40814" lon="0.1088">
        <ele>642.2</ele>
        <time>2017-07-02T11:36:46Z</time>
      </trkpt>
      <trkpt lat="42.40811" lon="0.10879">
        <ele>641.7</ele>
        <time>2017-07-02T11:36:47Z</time>
      </trkpt>
      <trkpt lat="42.40808" lon="0.10873">
        <ele>640.6</ele>
        <time>2017-07-02T11:36:49Z</time>
      </trkpt>
      <trkpt lat="42.40807" lon="0.10867">
        <ele>639.7</ele>
        <time>2017-07-02T11:36:50Z</time>
      </trkpt>
      <trkpt lat="42.40808" lon="0.10863">
        <ele>638.9</ele>
        <time>2017-07-02T11:36:51Z</time>
      </trkpt>
      <trkpt lat="42.40808" lon="0.10857">
        <ele>637.8</ele>
        <time>2017-07-02T11:36:53Z</time>
      </trkpt>
      <trkpt lat="42.40809" lon="0.10851">
        <ele>636.6</ele>
        <time>2017-07-02T11:36:55Z</time>
      </trkpt>
      <trkpt lat="42.40811" lon="0.10846">
        <ele>635.4</ele>
        <time>2017-07-02T11:36:57Z</time>
      </trkpt>
      <trkpt lat="42.40819" lon="0.10828">
        <ele>629.7</ele>
        <time>2017-07-02T11:38:03Z</time>
      </trkpt>
      <trkpt lat="42.40821" lon="0.10826">
        <ele>628.7</ele>
        <time>2017-07-02T11:38:06Z</time>
      </trkpt>
      <trkpt lat="42.40824" lon="0.10824">
        <ele>627.5</ele>
        <time>2017-07-02T11:38:14Z</time>
      </trkpt>
      <trkpt lat="42.40826" lon="0.1082">
        <ele>626.5</ele>
        <time>2017-07-02T11:38:23Z</time>
      </trkpt>
      <trkpt lat="42.40826" lon="0.10817">
        <ele>625.4</ele>
        <time>2017-07-02T11:38:27Z</time>
      </trkpt>
      <trkpt lat="42.40827" lon="0.10813">
        <ele>624.1</ele>
        <time>2017-07-02T11:38:36Z</time>
      </trkpt>
      <trkpt lat="42.40825" lon="0.1081">
        <ele>623.2</ele>
        <time>2017-07-02T11:38:43Z</time>
      </trkpt>
      <trkpt lat="42.40825" lon="0.10806">
        <ele>622.1</ele>
        <time>2017-07-02T11:38:49Z</time>
      </trkpt>
      <trkpt lat="42.40825" lon="0.10802">
        <ele>620.9</ele>
        <time>2017-07-02T11:38:55Z</time>
      </trkpt>
      <trkpt lat="42.40826" lon="0.10798">
        <ele>619.8</ele>
        <time>2017-07-02T11:38:58Z</time>
      </trkpt>
      <trkpt lat="42.40827" lon="0.10794">
        <ele>618.9</ele>
        <time>2017-07-02T11:39:07Z</time>
      </trkpt>
      <trkpt lat="42.40829" lon="0.10791">
        <ele>617.9</ele>
        <time>2017-07-02T11:39:10Z</time>
      </trkpt>
      <trkpt lat="42.40832" lon="0.10788">
        <ele>616.9</ele>
        <time>2017-07-02T11:39:15Z</time>
      </trkpt>
      <trkpt lat="42.40833" lon="0.10784">
        <ele>616</ele>
        <time>2017-07-02T11:39:20Z</time>
      </trkpt>
      <trkpt lat="42.40837" lon="0.10782">
        <ele>614.8</ele>
        <time>2017-07-02T11:39:22Z</time>
      </trkpt>
      <trkpt lat="42.40839" lon="0.10777">
        <ele>613.5</ele>
        <time>2017-07-02T11:39:25Z</time>
      </trkpt>
      <trkpt lat="42.4084" lon="0.10771">
        <ele>612.4</ele>
        <time>2017-07-02T11:39:27Z</time>
      </trkpt>
      <trkpt lat="42.40841" lon="0.10765">
        <ele>611.3</ele>
        <time>2017-07-02T11:39:29Z</time>
      </trkpt>
      <trkpt lat="42.40841" lon="0.10761">
        <ele>610.6</ele>
        <time>2017-07-02T11:39:30Z</time>
      </trkpt>
      <trkpt lat="42.40842" lon="0.10755">
        <ele>609.4</ele>
        <time>2017-07-02T11:39:32Z</time>
      </trkpt>
      <trkpt lat="42.40843" lon="0.10751">
        <ele>608.6</ele>
        <time>2017-07-02T11:39:37Z</time>
      </trkpt>
      <trkpt lat="42.40842" lon="0.10748">
        <ele>607.9</ele>
        <time>2017-07-02T11:39:48Z</time>
      </trkpt>
      <trkpt lat="42.40844" lon="0.10744">
        <ele>607.2</ele>
        <time>2017-07-02T11:39:52Z</time>
      </trkpt>
      <trkpt lat="42.40847" lon="0.10742">
        <ele>606.4</ele>
        <time>2017-07-02T11:39:55Z</time>
      </trkpt>
      <trkpt lat="42.40851" lon="0.10739">
        <ele>605.3</ele>
        <time>2017-07-02T11:39:57Z</time>
      </trkpt>
      <trkpt lat="42.40853" lon="0.10736">
        <ele>604.6</ele>
        <time>2017-07-02T11:39:58Z</time>
      </trkpt>
      <trkpt lat="42.40855" lon="0.10732">
        <ele>603.8</ele>
        <time>2017-07-02T11:39:59Z</time>
      </trkpt>
      <trkpt lat="42.40856" lon="0.10729">
        <ele>603</ele>
        <time>2017-07-02T11:40:00Z</time>
      </trkpt>
      <trkpt lat="42.40859" lon="0.10725">
        <ele>601.8</ele>
        <time>2017-07-02T11:40:02Z</time>
      </trkpt>
      <trkpt lat="42.40865" lon="0.10722">
        <ele>600.3</ele>
        <time>2017-07-02T11:40:04Z</time>
      </trkpt>
      <trkpt lat="42.40867" lon="0.1072">
        <ele>599.5</ele>
        <time>2017-07-02T11:40:05Z</time>
      </trkpt>
      <trkpt lat="42.40869" lon="0.10718">
        <ele>598.8</ele>
        <time>2017-07-02T11:40:06Z</time>
      </trkpt>
      <trkpt lat="42.40872" lon="0.10713">
        <ele>597.5</ele>
        <time>2017-07-02T11:40:08Z</time>
      </trkpt>
      <trkpt lat="42.40875" lon="0.1071">
        <ele>596.7</ele>
        <time>2017-07-02T11:40:10Z</time>
      </trkpt>
      <trkpt lat="42.40876" lon="0.10705">
        <ele>595.7</ele>
        <time>2017-07-02T11:40:12Z</time>
      </trkpt>
      <trkpt lat="42.40874" lon="0.10699">
        <ele>594.6</ele>
        <time>2017-07-02T11:40:14Z</time>
      </trkpt>
      <trkpt lat="42.40872" lon="0.10693">
        <ele>593.5</ele>
        <time>2017-07-02T11:40:16Z</time>
      </trkpt>
      <trkpt lat="42.40871" lon="0.10688">
        <ele>592.7</ele>
        <time>2017-07-02T11:40:18Z</time>
      </trkpt>
      <trkpt lat="42.40873" lon="0.10683">
        <ele>591.5</ele>
        <time>2017-07-02T11:40:20Z</time>
      </trkpt>
      <trkpt lat="42.40874" lon="0.10677">
        <ele>590.4</ele>
        <time>2017-07-02T11:40:22Z</time>
      </trkpt>
      <trkpt lat="42.40874" lon="0.10673">
        <ele>589.2</ele>
        <time>2017-07-02T11:40:24Z</time>
      </trkpt>
      <trkpt lat="42.40877" lon="0.1067">
        <ele>587.7</ele>
        <time>2017-07-02T11:40:37Z</time>
      </trkpt>
      <trkpt lat="42.4088" lon="0.10673">
        <ele>586.9</ele>
        <time>2017-07-02T11:40:40Z</time>
      </trkpt>
      <trkpt lat="42.40881" lon="0.10679">
        <ele>586.1</ele>
        <time>2017-07-02T11:40:42Z</time>
      </trkpt>
      <trkpt lat="42.40883" lon="0.10684">
        <ele>585.4</ele>
        <time>2017-07-02T11:40:44Z</time>
      </trkpt>
      <trkpt lat="42.40883" lon="0.10689">
        <ele>584.9</ele>
        <time>2017-07-02T11:40:45Z</time>
      </trkpt>
      <trkpt lat="42.40884" lon="0.10693">
        <ele>584.3</ele>
        <time>2017-07-02T11:40:46Z</time>
      </trkpt>
      <trkpt lat="42.40885" lon="0.10699">
        <ele>583.6</ele>
        <time>2017-07-02T11:40:47Z</time>
      </trkpt>
      <trkpt lat="42.40886" lon="0.10704">
        <ele>583</ele>
        <time>2017-07-02T11:40:48Z</time>
      </trkpt>
      <trkpt lat="42.40888" lon="0.10709">
        <ele>582.2</ele>
        <time>2017-07-02T11:40:49Z</time>
      </trkpt>
      <trkpt lat="42.40889" lon="0.10714">
        <ele>581.4</ele>
        <time>2017-07-02T11:40:50Z</time>
      </trkpt>
      <trkpt lat="42.40891" lon="0.10718">
        <ele>580.6</ele>
        <time>2017-07-02T11:40:51Z</time>
      </trkpt>
      <trkpt lat="42.40892" lon="0.10722">
        <ele>579.7</ele>
        <time>2017-07-02T11:40:52Z</time>
      </trkpt>
      <trkpt lat="42.40894" lon="0.10725">
        <ele>578.9</ele>
        <time>2017-07-02T11:40:53Z</time>
      </trkpt>
      <trkpt lat="42.40896" lon="0.10728">
        <ele>577.9</ele>
        <time>2017-07-02T11:40:54Z</time>
      </trkpt>
      <trkpt lat="42.40898" lon="0.10731">
        <ele>577</ele>
        <time>2017-07-02T11:40:55Z</time>
      </trkpt>
      <trkpt lat="42.409" lon="0.10735">
        <ele>576</ele>
        <time>2017-07-02T11:40:57Z</time>
      </trkpt>
      <trkpt lat="42.40903" lon="0.10734">
        <ele>575.2</ele>
        <time>2017-07-02T11:40:59Z</time>
      </trkpt>
      <trkpt lat="42.40905" lon="0.10731">
        <ele>574.4</ele>
        <time>2017-07-02T11:41:00Z</time>
      </trkpt>
      <trkpt lat="42.40908" lon="0.10726">
        <ele>573.2</ele>
        <time>2017-07-02T11:41:01Z</time>
      </trkpt>
      <trkpt lat="42.4091" lon="0.10721">
        <ele>572.1</ele>
        <time>2017-07-02T11:41:02Z</time>
      </trkpt>
      <trkpt lat="42.40912" lon="0.10716">
        <ele>571.2</ele>
        <time>2017-07-02T11:41:03Z</time>
      </trkpt>
      <trkpt lat="42.40914" lon="0.10712">
        <ele>570.6</ele>
        <time>2017-07-02T11:41:04Z</time>
      </trkpt>
      <trkpt lat="42.40917" lon="0.1071">
        <ele>570.1</ele>
        <time>2017-07-02T11:41:05Z</time>
      </trkpt>
      <trkpt lat="42.40921" lon="0.10708">
        <ele>569.2</ele>
        <time>2017-07-02T11:41:07Z</time>
      </trkpt>
      <trkpt lat="42.40924" lon="0.10706">
        <ele>568.4</ele>
        <time>2017-07-02T11:41:09Z</time>
      </trkpt>
      <trkpt lat="42.40925" lon="0.10702">
        <ele>567.3</ele>
        <time>2017-07-02T11:41:10Z</time>
      </trkpt>
      <trkpt lat="42.40927" lon="0.10698">
        <ele>566.3</ele>
        <time>2017-07-02T11:41:11Z</time>
      </trkpt>
      <trkpt lat="42.40927" lon="0.10694">
        <ele>565.7</ele>
        <time>2017-07-02T11:41:12Z</time>
      </trkpt>
      <trkpt lat="42.40928" lon="0.10689">
        <ele>565.4</ele>
        <time>2017-07-02T11:41:13Z</time>
      </trkpt>
      <trkpt lat="42.40929" lon="0.10684">
        <ele>565.1</ele>
        <time>2017-07-02T11:41:14Z</time>
      </trkpt>
      <trkpt lat="42.40931" lon="0.10681">
        <ele>564.5</ele>
        <time>2017-07-02T11:41:15Z</time>
      </trkpt>
      <trkpt lat="42.40934" lon="0.10681">
        <ele>563.9</ele>
        <time>2017-07-02T11:41:18Z</time>
      </trkpt>
      <trkpt lat="42.4093" lon="0.10681">
        <ele>563.4</ele>
        <time>2017-07-02T11:41:24Z</time>
      </trkpt>
      <trkpt lat="42.40929" lon="0.10685">
        <ele>563.3</ele>
        <time>2017-07-02T11:41:29Z</time>
      </trkpt>
      <trkpt lat="42.40927" lon="0.10689">
        <ele>563.2</ele>
        <time>2017-07-02T11:41:32Z</time>
      </trkpt>
      <trkpt lat="42.40926" lon="0.10693">
        <ele>563.1</ele>
        <time>2017-07-02T11:41:53Z</time>
      </trkpt>
      <trkpt lat="42.40925" lon="0.10698">
        <ele>563.1</ele>
        <time>2017-07-02T11:41:56Z</time>
      </trkpt>
      <trkpt lat="42.40925" lon="0.10702">
        <ele>563.1</ele>
        <time>2017-07-02T11:41:59Z</time>
      </trkpt>
      <trkpt lat="42.40928" lon="0.10703">
        <ele>563.1</ele>
        <time>2017-07-02T11:42:32Z</time>
      </trkpt>
      <trkpt lat="42.40931" lon="0.10705">
        <ele>563.2</ele>
        <time>2017-07-02T11:42:34Z</time>
      </trkpt>
      <trkpt lat="42.40936" lon="0.10709">
        <ele>563.2</ele>
        <time>2017-07-02T11:43:25Z</time>
      </trkpt>
      <trkpt lat="42.40939" lon="0.10711">
        <ele>563.2</ele>
        <time>2017-07-02T11:43:28Z</time>
      </trkpt>
      <trkpt lat="42.40939" lon="0.10715">
        <ele>563.2</ele>
        <time>2017-07-02T11:43:31Z</time>
      </trkpt>
      <trkpt lat="42.40939" lon="0.10721">
        <ele>563.2</ele>
        <time>2017-07-02T11:43:33Z</time>
      </trkpt>
      <trkpt lat="42.40939" lon="0.10727">
        <ele>563.2</ele>
        <time>2017-07-02T11:43:35Z</time>
      </trkpt>
      <trkpt lat="42.4094" lon="0.10734">
        <ele>563.3</ele>
        <time>2017-07-02T11:43:37Z</time>
      </trkpt>
      <trkpt lat="42.4094" lon="0.10738">
        <ele>563.3</ele>
        <time>2017-07-02T11:43:38Z</time>
      </trkpt>
      <trkpt lat="42.4094" lon="0.10742">
        <ele>563.3</ele>
        <time>2017-07-02T11:43:39Z</time>
      </trkpt>
      <trkpt lat="42.4094" lon="0.10746">
        <ele>563.3</ele>
        <time>2017-07-02T11:43:40Z</time>
      </trkpt>
      <trkpt lat="42.4094" lon="0.1075">
        <ele>563.4</ele>
        <time>2017-07-02T11:43:41Z</time>
      </trkpt>
      <trkpt lat="42.40941" lon="0.10754">
        <ele>563.4</ele>
        <time>2017-07-02T11:43:42Z</time>
      </trkpt>
      <trkpt lat="42.40941" lon="0.10759">
        <ele>563.4</ele>
        <time>2017-07-02T11:43:43Z</time>
      </trkpt>
      <trkpt lat="42.40941" lon="0.10765">
        <ele>563.5</ele>
        <time>2017-07-02T11:43:45Z</time>
      </trkpt>
      <trkpt lat="42.40942" lon="0.1077">
        <ele>563.5</ele>
        <time>2017-07-02T11:43:47Z</time>
      </trkpt>
      <trkpt lat="42.40941" lon="0.10776">
        <ele>563.6</ele>
        <time>2017-07-02T11:43:49Z</time>
      </trkpt>
      <trkpt lat="42.40939" lon="0.10781">
        <ele>563.7</ele>
        <time>2017-07-02T11:43:51Z</time>
      </trkpt>
      <trkpt lat="42.40939" lon="0.10789">
        <ele>563.8</ele>
        <time>2017-07-02T11:43:53Z</time>
      </trkpt>
      <trkpt lat="42.4094" lon="0.10795">
        <ele>563.9</ele>
        <time>2017-07-02T11:43:54Z</time>
      </trkpt>
      <trkpt lat="42.40941" lon="0.10801">
        <ele>564.1</ele>
        <time>2017-07-02T11:43:55Z</time>
      </trkpt>
      <trkpt lat="42.40941" lon="0.10806">
        <ele>564.2</ele>
        <time>2017-07-02T11:43:56Z</time>
      </trkpt>
      <trkpt lat="42.40942" lon="0.10811">
        <ele>564.3</ele>
        <time>2017-07-02T11:43:57Z</time>
      </trkpt>
      <trkpt lat="42.40943" lon="0.10817">
        <ele>564.6</ele>
        <time>2017-07-02T11:43:58Z</time>
      </trkpt>
      <trkpt lat="42.40944" lon="0.10822">
        <ele>564.9</ele>
        <time>2017-07-02T11:43:59Z</time>
      </trkpt>
      <trkpt lat="42.40946" lon="0.10827">
        <ele>565.2</ele>
        <time>2017-07-02T11:44:00Z</time>
      </trkpt>
      <trkpt lat="42.40948" lon="0.10832">
        <ele>565.3</ele>
        <time>2017-07-02T11:44:01Z</time>
      </trkpt>
      <trkpt lat="42.4095" lon="0.10836">
        <ele>565.4</ele>
        <time>2017-07-02T11:44:02Z</time>
      </trkpt>
      <trkpt lat="42.40951" lon="0.1084">
        <ele>565.5</ele>
        <time>2017-07-02T11:44:03Z</time>
      </trkpt>
      <trkpt lat="42.40953" lon="0.10845">
        <ele>565.6</ele>
        <time>2017-07-02T11:44:04Z</time>
      </trkpt>
      <trkpt lat="42.40956" lon="0.10849">
        <ele>565.6</ele>
        <time>2017-07-02T11:44:05Z</time>
      </trkpt>
      <trkpt lat="42.40958" lon="0.10854">
        <ele>565.6</ele>
        <time>2017-07-02T11:44:06Z</time>
      </trkpt>
      <trkpt lat="42.40962" lon="0.10858">
        <ele>565.6</ele>
        <time>2017-07-02T11:44:07Z</time>
      </trkpt>
      <trkpt lat="42.40967" lon="0.10861">
        <ele>565.7</ele>
        <time>2017-07-02T11:44:08Z</time>
      </trkpt>
      <trkpt lat="42.40972" lon="0.10864">
        <ele>565.7</ele>
        <time>2017-07-02T11:44:09Z</time>
      </trkpt>
      <trkpt lat="42.40977" lon="0.10866">
        <ele>565.7</ele>
        <time>2017-07-02T11:44:10Z</time>
      </trkpt>
      <trkpt lat="42.40983" lon="0.10868">
        <ele>565.7</ele>
        <time>2017-07-02T11:44:11Z</time>
      </trkpt>
      <trkpt lat="42.40988" lon="0.10871">
        <ele>565.6</ele>
        <time>2017-07-02T11:44:12Z</time>
      </trkpt>
      <trkpt lat="42.40994" lon="0.10874">
        <ele>565.4</ele>
        <time>2017-07-02T11:44:13Z</time>
      </trkpt>
      <trkpt lat="42.40999" lon="0.10877">
        <ele>565.2</ele>
        <time>2017-07-02T11:44:14Z</time>
      </trkpt>
      <trkpt lat="42.41003" lon="0.10881">
        <ele>565.1</ele>
        <time>2017-07-02T11:44:15Z</time>
      </trkpt>
      <trkpt lat="42.41009" lon="0.10885">
        <ele>564.7</ele>
        <time>2017-07-02T11:44:16Z</time>
      </trkpt>
      <trkpt lat="42.41014" lon="0.1089">
        <ele>564.4</ele>
        <time>2017-07-02T11:44:17Z</time>
      </trkpt>
      <trkpt lat="42.4102" lon="0.10894">
        <ele>564.1</ele>
        <time>2017-07-02T11:44:18Z</time>
      </trkpt>
      <trkpt lat="42.41026" lon="0.10897">
        <ele>564</ele>
        <time>2017-07-02T11:44:19Z</time>
      </trkpt>
      <trkpt lat="42.41032" lon="0.10899">
        <ele>563.9</ele>
        <time>2017-07-02T11:44:20Z</time>
      </trkpt>
      <trkpt lat="42.41038" lon="0.109">
        <ele>563.8</ele>
        <time>2017-07-02T11:44:21Z</time>
      </trkpt>
      <trkpt lat="42.41047" lon="0.10898">
        <ele>563.7</ele>
        <time>2017-07-02T11:44:22Z</time>
      </trkpt>
      <trkpt lat="42.41053" lon="0.10898">
        <ele>563.7</ele>
        <time>2017-07-02T11:44:23Z</time>
      </trkpt>
      <trkpt lat="42.41057" lon="0.10898">
        <ele>563.7</ele>
        <time>2017-07-02T11:44:24Z</time>
      </trkpt>
      <trkpt lat="42.41062" lon="0.10899">
        <ele>563.7</ele>
        <time>2017-07-02T11:44:25Z</time>
      </trkpt>
      <trkpt lat="42.41069" lon="0.109">
        <ele>563.7</ele>
        <time>2017-07-02T11:44:26Z</time>
      </trkpt>
      <trkpt lat="42.41075" lon="0.10901">
        <ele>563.7</ele>
        <time>2017-07-02T11:44:27Z</time>
      </trkpt>
      <trkpt lat="42.41081" lon="0.10899">
        <ele>563.8</ele>
        <time>2017-07-02T11:44:28Z</time>
      </trkpt>
      <trkpt lat="42.41087" lon="0.10898">
        <ele>563.8</ele>
        <time>2017-07-02T11:44:29Z</time>
      </trkpt>
      <trkpt lat="42.41093" lon="0.10897">
        <ele>563.8</ele>
        <time>2017-07-02T11:44:30Z</time>
      </trkpt>
      <trkpt lat="42.41097" lon="0.10895">
        <ele>563.8</ele>
        <time>2017-07-02T11:44:31Z</time>
      </trkpt>
      <trkpt lat="42.41102" lon="0.10891">
        <ele>563.8</ele>
        <time>2017-07-02T11:44:32Z</time>
      </trkpt>
      <trkpt lat="42.41107" lon="0.10887">
        <ele>563.8</ele>
        <time>2017-07-02T11:44:33Z</time>
      </trkpt>
      <trkpt lat="42.4111" lon="0.10885">
        <ele>563.8</ele>
        <time>2017-07-02T11:44:34Z</time>
      </trkpt>
      <trkpt lat="42.41116" lon="0.10885">
        <ele>563.7</ele>
        <time>2017-07-02T11:44:35Z</time>
      </trkpt>
      <trkpt lat="42.41122" lon="0.10885">
        <ele>563.7</ele>
        <time>2017-07-02T11:44:36Z</time>
      </trkpt>
      <trkpt lat="42.41126" lon="0.10883">
        <ele>563.6</ele>
        <time>2017-07-02T11:44:37Z</time>
      </trkpt>
      <trkpt lat="42.41131" lon="0.10883">
        <ele>563.5</ele>
        <time>2017-07-02T11:44:38Z</time>
      </trkpt>
      <trkpt lat="42.41136" lon="0.10883">
        <ele>563.4</ele>
        <time>2017-07-02T11:44:39Z</time>
      </trkpt>
      <trkpt lat="42.41142" lon="0.1088">
        <ele>563.2</ele>
        <time>2017-07-02T11:44:40Z</time>
      </trkpt>
      <trkpt lat="42.41148" lon="0.10879">
        <ele>563</ele>
        <time>2017-07-02T11:44:41Z</time>
      </trkpt>
      <trkpt lat="42.41153" lon="0.10877">
        <ele>563</ele>
        <time>2017-07-02T11:44:42Z</time>
      </trkpt>
      <trkpt lat="42.41158" lon="0.10874">
        <ele>563.1</ele>
        <time>2017-07-02T11:44:43Z</time>
      </trkpt>
      <trkpt lat="42.41161" lon="0.1087">
        <ele>563.3</ele>
        <time>2017-07-02T11:44:44Z</time>
      </trkpt>
      <trkpt lat="42.41164" lon="0.10867">
        <ele>563.9</ele>
        <time>2017-07-02T11:44:45Z</time>
      </trkpt>
      <trkpt lat="42.41167" lon="0.10864">
        <ele>564.8</ele>
        <time>2017-07-02T11:44:46Z</time>
      </trkpt>
      <trkpt lat="42.4117" lon="0.10863">
        <ele>565.5</ele>
        <time>2017-07-02T11:44:58Z</time>
      </trkpt>
      <trkpt lat="42.41173" lon="0.10864">
        <ele>566</ele>
        <time>2017-07-02T11:45:03Z</time>
      </trkpt>
      <trkpt lat="42.41175" lon="0.10866">
        <ele>566.2</ele>
        <time>2017-07-02T11:45:07Z</time>
      </trkpt>
      <trkpt lat="42.41178" lon="0.10869">
        <ele>566.4</ele>
        <time>2017-07-02T11:45:10Z</time>
      </trkpt>
      <trkpt lat="42.41181" lon="0.10871">
        <ele>566.5</ele>
        <time>2017-07-02T11:45:14Z</time>
      </trkpt>
      <trkpt lat="42.41184" lon="0.10875">
        <ele>566.5</ele>
        <time>2017-07-02T11:45:17Z</time>
      </trkpt>
      <trkpt lat="42.41186" lon="0.10878">
        <ele>566.6</ele>
        <time>2017-07-02T11:45:19Z</time>
      </trkpt>
      <trkpt lat="42.41191" lon="0.10881">
        <ele>566.7</ele>
        <time>2017-07-02T11:45:21Z</time>
      </trkpt>
      <trkpt lat="42.41194" lon="0.10883">
        <ele>566.7</ele>
        <time>2017-07-02T11:45:22Z</time>
      </trkpt>
      <trkpt lat="42.41198" lon="0.10884">
        <ele>566.7</ele>
        <time>2017-07-02T11:45:23Z</time>
      </trkpt>
      <trkpt lat="42.41202" lon="0.10886">
        <ele>566.8</ele>
        <time>2017-07-02T11:45:24Z</time>
      </trkpt>
      <trkpt lat="42.41206" lon="0.10888">
        <ele>566.8</ele>
        <time>2017-07-02T11:45:25Z</time>
      </trkpt>
      <trkpt lat="42.41209" lon="0.1089">
        <ele>566.8</ele>
        <time>2017-07-02T11:45:26Z</time>
      </trkpt>
      <trkpt lat="42.41213" lon="0.10893">
        <ele>566.8</ele>
        <time>2017-07-02T11:45:27Z</time>
      </trkpt>
      <trkpt lat="42.41217" lon="0.10894">
        <ele>566.8</ele>
        <time>2017-07-02T11:45:28Z</time>
      </trkpt>
      <trkpt lat="42.4122" lon="0.10895">
        <ele>566.8</ele>
        <time>2017-07-02T11:45:29Z</time>
      </trkpt>
      <trkpt lat="42.41223" lon="0.10896">
        <ele>566.8</ele>
        <time>2017-07-02T11:45:30Z</time>
      </trkpt>
      <trkpt lat="42.41226" lon="0.10897">
        <ele>566.8</ele>
        <time>2017-07-02T11:45:31Z</time>
      </trkpt>
      <trkpt lat="42.41229" lon="0.10898">
        <ele>566.8</ele>
        <time>2017-07-02T11:45:32Z</time>
      </trkpt>
      <trkpt lat="42.41232" lon="0.109">
        <ele>566.8</ele>
        <time>2017-07-02T11:45:33Z</time>
      </trkpt>
      <trkpt lat="42.41236" lon="0.10903">
        <ele>566.8</ele>
        <time>2017-07-02T11:45:35Z</time>
      </trkpt>
      <trkpt lat="42.41239" lon="0.10906">
        <ele>566.8</ele>
        <time>2017-07-02T11:45:36Z</time>
      </trkpt>
      <trkpt lat="42.41242" lon="0.10908">
        <ele>566.7</ele>
        <time>2017-07-02T11:45:37Z</time>
      </trkpt>
      <trkpt lat="42.41245" lon="0.1091">
        <ele>566.7</ele>
        <time>2017-07-02T11:45:38Z</time>
      </trkpt>
      <trkpt lat="42.41248" lon="0.10911">
        <ele>566.6</ele>
        <time>2017-07-02T11:45:39Z</time>
      </trkpt>
      <trkpt lat="42.41254" lon="0.10911">
        <ele>566.4</ele>
        <time>2017-07-02T11:45:41Z</time>
      </trkpt>
      <trkpt lat="42.41257" lon="0.10912">
        <ele>566.4</ele>
        <time>2017-07-02T11:45:42Z</time>
      </trkpt>
      <trkpt lat="42.41261" lon="0.10914">
        <ele>566.1</ele>
        <time>2017-07-02T11:45:44Z</time>
      </trkpt>
      <trkpt lat="42.41266" lon="0.10916">
        <ele>565.9</ele>
        <time>2017-07-02T11:45:46Z</time>
      </trkpt>
      <trkpt lat="42.41269" lon="0.10915">
        <ele>565.7</ele>
        <time>2017-07-02T11:45:47Z</time>
      </trkpt>
      <trkpt lat="42.41271" lon="0.10915">
        <ele>565.6</ele>
        <time>2017-07-02T11:45:48Z</time>
      </trkpt>
      <trkpt lat="42.41275" lon="0.10918">
        <ele>565.4</ele>
        <time>2017-07-02T11:45:50Z</time>
      </trkpt>
      <trkpt lat="42.41275" lon="0.10923">
        <ele>565.4</ele>
        <time>2017-07-02T11:45:51Z</time>
      </trkpt>
      <trkpt lat="42.41276" lon="0.10929">
        <ele>565.3</ele>
        <time>2017-07-02T11:45:53Z</time>
      </trkpt>
      <trkpt lat="42.41278" lon="0.10932">
        <ele>565.3</ele>
        <time>2017-07-02T11:45:55Z</time>
      </trkpt>
      <trkpt lat="42.41282" lon="0.10934">
        <ele>565.2</ele>
        <time>2017-07-02T11:45:57Z</time>
      </trkpt>
      <trkpt lat="42.41285" lon="0.10935">
        <ele>565.2</ele>
        <time>2017-07-02T11:45:59Z</time>
      </trkpt>
      <trkpt lat="42.41288" lon="0.10936">
        <ele>565.2</ele>
        <time>2017-07-02T11:46:01Z</time>
      </trkpt>
      <trkpt lat="42.41292" lon="0.10941">
        <ele>565.1</ele>
        <time>2017-07-02T11:46:03Z</time>
      </trkpt>
      <trkpt lat="42.41295" lon="0.10945">
        <ele>565.1</ele>
        <time>2017-07-02T11:46:04Z</time>
      </trkpt>
      <trkpt lat="42.41298" lon="0.1095">
        <ele>565</ele>
        <time>2017-07-02T11:46:05Z</time>
      </trkpt>
      <trkpt lat="42.41301" lon="0.10953">
        <ele>564.9</ele>
        <time>2017-07-02T11:46:06Z</time>
      </trkpt>
      <trkpt lat="42.41304" lon="0.10956">
        <ele>564.8</ele>
        <time>2017-07-02T11:46:07Z</time>
      </trkpt>
      <trkpt lat="42.41307" lon="0.10959">
        <ele>564.7</ele>
        <time>2017-07-02T11:46:09Z</time>
      </trkpt>
      <trkpt lat="42.41309" lon="0.10962">
        <ele>564.5</ele>
        <time>2017-07-02T11:46:10Z</time>
      </trkpt>
      <trkpt lat="42.41311" lon="0.10966">
        <ele>564.3</ele>
        <time>2017-07-02T11:46:11Z</time>
      </trkpt>
      <trkpt lat="42.41313" lon="0.10969">
        <ele>564.1</ele>
        <time>2017-07-02T11:46:12Z</time>
      </trkpt>
      <trkpt lat="42.41315" lon="0.10972">
        <ele>564</ele>
        <time>2017-07-02T11:46:13Z</time>
      </trkpt>
      <trkpt lat="42.41318" lon="0.10977">
        <ele>563.7</ele>
        <time>2017-07-02T11:46:15Z</time>
      </trkpt>
      <trkpt lat="42.4132" lon="0.1098">
        <ele>563.5</ele>
        <time>2017-07-02T11:46:17Z</time>
      </trkpt>
      <trkpt lat="42.41324" lon="0.10986">
        <ele>563.3</ele>
        <time>2017-07-02T11:46:19Z</time>
      </trkpt>
      <trkpt lat="42.41326" lon="0.1099">
        <ele>563.2</ele>
        <time>2017-07-02T11:46:20Z</time>
      </trkpt>
      <trkpt lat="42.41329" lon="0.10994">
        <ele>563.1</ele>
        <time>2017-07-02T11:46:21Z</time>
      </trkpt>
      <trkpt lat="42.41331" lon="0.10997">
        <ele>562.9</ele>
        <time>2017-07-02T11:46:22Z</time>
      </trkpt>
      <trkpt lat="42.41333" lon="0.11">
        <ele>562.8</ele>
        <time>2017-07-02T11:46:23Z</time>
      </trkpt>
      <trkpt lat="42.41336" lon="0.11003">
        <ele>562.7</ele>
        <time>2017-07-02T11:46:24Z</time>
      </trkpt>
      <trkpt lat="42.41338" lon="0.11006">
        <ele>562.5</ele>
        <time>2017-07-02T11:46:25Z</time>
      </trkpt>
      <trkpt lat="42.4134" lon="0.11009">
        <ele>562.3</ele>
        <time>2017-07-02T11:46:26Z</time>
      </trkpt>
      <trkpt lat="42.41342" lon="0.11014">
        <ele>562</ele>
        <time>2017-07-02T11:46:27Z</time>
      </trkpt>
      <trkpt lat="42.41343" lon="0.11019">
        <ele>561.7</ele>
        <time>2017-07-02T11:46:28Z</time>
      </trkpt>
      <trkpt lat="42.41345" lon="0.11024">
        <ele>561.3</ele>
        <time>2017-07-02T11:46:29Z</time>
      </trkpt>
      <trkpt lat="42.41347" lon="0.11029">
        <ele>560.7</ele>
        <time>2017-07-02T11:46:30Z</time>
      </trkpt>
      <trkpt lat="42.41349" lon="0.11033">
        <ele>560.6</ele>
        <time>2017-07-02T11:46:31Z</time>
      </trkpt>
      <trkpt lat="42.41352" lon="0.11036">
        <ele>560.4</ele>
        <time>2017-07-02T11:46:32Z</time>
      </trkpt>
      <trkpt lat="42.41356" lon="0.11037">
        <ele>560.3</ele>
        <time>2017-07-02T11:46:33Z</time>
      </trkpt>
      <trkpt lat="42.41359" lon="0.11038">
        <ele>560.2</ele>
        <time>2017-07-02T11:46:34Z</time>
      </trkpt>
      <trkpt lat="42.41363" lon="0.1104">
        <ele>560.1</ele>
        <time>2017-07-02T11:46:35Z</time>
      </trkpt>
      <trkpt lat="42.41366" lon="0.11042">
        <ele>560</ele>
        <time>2017-07-02T11:46:36Z</time>
      </trkpt>
      <trkpt lat="42.41369" lon="0.11044">
        <ele>559.9</ele>
        <time>2017-07-02T11:46:37Z</time>
      </trkpt>
      <trkpt lat="42.41373" lon="0.11047">
        <ele>559.8</ele>
        <time>2017-07-02T11:46:38Z</time>
      </trkpt>
      <trkpt lat="42.41376" lon="0.11049">
        <ele>559.6</ele>
        <time>2017-07-02T11:46:39Z</time>
      </trkpt>
      <trkpt lat="42.41379" lon="0.11053">
        <ele>559.5</ele>
        <time>2017-07-02T11:46:40Z</time>
      </trkpt>
      <trkpt lat="42.41382" lon="0.11056">
        <ele>559.4</ele>
        <time>2017-07-02T11:46:41Z</time>
      </trkpt>
      <trkpt lat="42.41385" lon="0.1106">
        <ele>559.2</ele>
        <time>2017-07-02T11:46:42Z</time>
      </trkpt>
      <trkpt lat="42.41387" lon="0.11065">
        <ele>559.1</ele>
        <time>2017-07-02T11:46:43Z</time>
      </trkpt>
      <trkpt lat="42.4139" lon="0.11069">
        <ele>559</ele>
        <time>2017-07-02T11:46:44Z</time>
      </trkpt>
      <trkpt lat="42.41392" lon="0.11073">
        <ele>558.9</ele>
        <time>2017-07-02T11:46:45Z</time>
      </trkpt>
      <trkpt lat="42.41394" lon="0.11078">
        <ele>558.9</ele>
        <time>2017-07-02T11:46:46Z</time>
      </trkpt>
      <trkpt lat="42.41396" lon="0.11082">
        <ele>558.8</ele>
        <time>2017-07-02T11:46:47Z</time>
      </trkpt>
      <trkpt lat="42.41398" lon="0.11086">
        <ele>558.7</ele>
        <time>2017-07-02T11:46:48Z</time>
      </trkpt>
      <trkpt lat="42.414" lon="0.1109">
        <ele>558.6</ele>
        <time>2017-07-02T11:46:49Z</time>
      </trkpt>
      <trkpt lat="42.41402" lon="0.11093">
        <ele>558.5</ele>
        <time>2017-07-02T11:46:50Z</time>
      </trkpt>
      <trkpt lat="42.41404" lon="0.11096">
        <ele>558.4</ele>
        <time>2017-07-02T11:46:51Z</time>
      </trkpt>
      <trkpt lat="42.41407" lon="0.11101">
        <ele>558.3</ele>
        <time>2017-07-02T11:46:53Z</time>
      </trkpt>
      <trkpt lat="42.41409" lon="0.11105">
        <ele>558.3</ele>
        <time>2017-07-02T11:46:55Z</time>
      </trkpt>
      <trkpt lat="42.41412" lon="0.1111">
        <ele>558.3</ele>
        <time>2017-07-02T11:46:57Z</time>
      </trkpt>
      <trkpt lat="42.41413" lon="0.11115">
        <ele>558.4</ele>
        <time>2017-07-02T11:46:59Z</time>
      </trkpt>
      <trkpt lat="42.41414" lon="0.1112">
        <ele>558.4</ele>
        <time>2017-07-02T11:47:01Z</time>
      </trkpt>
      <trkpt lat="42.41415" lon="0.11125">
        <ele>558.5</ele>
        <time>2017-07-02T11:47:03Z</time>
      </trkpt>
      <trkpt lat="42.41415" lon="0.11129">
        <ele>558.5</ele>
        <time>2017-07-02T11:47:05Z</time>
      </trkpt>
      <trkpt lat="42.41414" lon="0.11134">
        <ele>558.6</ele>
        <time>2017-07-02T11:47:07Z</time>
      </trkpt>
      <trkpt lat="42.41413" lon="0.11139">
        <ele>558.5</ele>
        <time>2017-07-02T11:47:09Z</time>
      </trkpt>
      <trkpt lat="42.41412" lon="0.11144">
        <ele>558.4</ele>
        <time>2017-07-02T11:47:11Z</time>
      </trkpt>
      <trkpt lat="42.41411" lon="0.11149">
        <ele>558.2</ele>
        <time>2017-07-02T11:47:13Z</time>
      </trkpt>
      <trkpt lat="42.41409" lon="0.11155">
        <ele>558.1</ele>
        <time>2017-07-02T11:47:15Z</time>
      </trkpt>
      <trkpt lat="42.41407" lon="0.11161">
        <ele>558</ele>
        <time>2017-07-02T11:47:17Z</time>
      </trkpt>
      <trkpt lat="42.41406" lon="0.11167">
        <ele>557.9</ele>
        <time>2017-07-02T11:47:19Z</time>
      </trkpt>
      <trkpt lat="42.41406" lon="0.11172">
        <ele>557.8</ele>
        <time>2017-07-02T11:47:21Z</time>
      </trkpt>
      <trkpt lat="42.41407" lon="0.11177">
        <ele>557.8</ele>
        <time>2017-07-02T11:47:23Z</time>
      </trkpt>
      <trkpt lat="42.41408" lon="0.11181">
        <ele>557.9</ele>
        <time>2017-07-02T11:47:25Z</time>
      </trkpt>
      <trkpt lat="42.4141" lon="0.11179">
        <ele>558</ele>
        <time>2017-07-02T11:49:40Z</time>
      </trkpt>
      <trkpt lat="42.41411" lon="0.11175">
        <ele>558.3</ele>
        <time>2017-07-02T11:49:42Z</time>
      </trkpt>
      <trkpt lat="42.41412" lon="0.1117">
        <ele>559.2</ele>
        <time>2017-07-02T11:49:44Z</time>
      </trkpt>
      <trkpt lat="42.41413" lon="0.11164">
        <ele>560.4</ele>
        <time>2017-07-02T11:49:46Z</time>
      </trkpt>
      <trkpt lat="42.41413" lon="0.1116">
        <ele>561.2</ele>
        <time>2017-07-02T11:49:48Z</time>
      </trkpt>
      <trkpt lat="42.41414" lon="0.11157">
        <ele>562.1</ele>
        <time>2017-07-02T11:49:50Z</time>
      </trkpt>
      <trkpt lat="42.41417" lon="0.11153">
        <ele>563</ele>
        <time>2017-07-02T11:49:52Z</time>
      </trkpt>
      <trkpt lat="42.41419" lon="0.1115">
        <ele>563.9</ele>
        <time>2017-07-02T11:49:54Z</time>
      </trkpt>
      <trkpt lat="42.41422" lon="0.11147">
        <ele>564.7</ele>
        <time>2017-07-02T11:49:56Z</time>
      </trkpt>
      <trkpt lat="42.41424" lon="0.11145">
        <ele>565.4</ele>
        <time>2017-07-02T11:49:58Z</time>
      </trkpt>
      <trkpt lat="42.41426" lon="0.1114">
        <ele>566.3</ele>
        <time>2017-07-02T11:50:01Z</time>
      </trkpt>
      <trkpt lat="42.41428" lon="0.11137">
        <ele>567</ele>
        <time>2017-07-02T11:50:04Z</time>
      </trkpt>
      <trkpt lat="42.41429" lon="0.11133">
        <ele>567.9</ele>
        <time>2017-07-02T11:50:07Z</time>
      </trkpt>
      <trkpt lat="42.41431" lon="0.11128">
        <ele>568.8</ele>
        <time>2017-07-02T11:50:10Z</time>
      </trkpt>
      <trkpt lat="42.41432" lon="0.11125">
        <ele>569.4</ele>
        <time>2017-07-02T11:50:12Z</time>
      </trkpt>
      <trkpt lat="42.41432" lon="0.11121">
        <ele>570.2</ele>
        <time>2017-07-02T11:50:14Z</time>
      </trkpt>
      <trkpt lat="42.41433" lon="0.11117">
        <ele>571</ele>
        <time>2017-07-02T11:50:16Z</time>
      </trkpt>
      <trkpt lat="42.41435" lon="0.11112">
        <ele>572</ele>
        <time>2017-07-02T11:50:19Z</time>
      </trkpt>
      <trkpt lat="42.41436" lon="0.11108">
        <ele>573</ele>
        <time>2017-07-02T11:50:22Z</time>
      </trkpt>
      <trkpt lat="42.41438" lon="0.11104">
        <ele>574</ele>
        <time>2017-07-02T11:50:25Z</time>
      </trkpt>
      <trkpt lat="42.4144" lon="0.11101">
        <ele>574.7</ele>
        <time>2017-07-02T11:50:27Z</time>
      </trkpt>
      <trkpt lat="42.41443" lon="0.11097">
        <ele>575.7</ele>
        <time>2017-07-02T11:50:30Z</time>
      </trkpt>
      <trkpt lat="42.41445" lon="0.11094">
        <ele>576.7</ele>
        <time>2017-07-02T11:50:33Z</time>
      </trkpt>
      <trkpt lat="42.41448" lon="0.1109">
        <ele>577.7</ele>
        <time>2017-07-02T11:50:36Z</time>
      </trkpt>
      <trkpt lat="42.41451" lon="0.11087">
        <ele>578.7</ele>
        <time>2017-07-02T11:50:39Z</time>
      </trkpt>
      <trkpt lat="42.41454" lon="0.11085">
        <ele>579.5</ele>
        <time>2017-07-02T11:50:43Z</time>
      </trkpt>
      <trkpt lat="42.41456" lon="0.11082">
        <ele>580.3</ele>
        <time>2017-07-02T11:50:47Z</time>
      </trkpt>
      <trkpt lat="42.41458" lon="0.11079">
        <ele>581.1</ele>
        <time>2017-07-02T11:50:50Z</time>
      </trkpt>
      <trkpt lat="42.4146" lon="0.11077">
        <ele>581.8</ele>
        <time>2017-07-02T11:50:53Z</time>
      </trkpt>
      <trkpt lat="42.41462" lon="0.11074">
        <ele>582.4</ele>
        <time>2017-07-02T11:50:56Z</time>
      </trkpt>
      <trkpt lat="42.41465" lon="0.11072">
        <ele>583.2</ele>
        <time>2017-07-02T11:50:59Z</time>
      </trkpt>
      <trkpt lat="42.41467" lon="0.11069">
        <ele>584</ele>
        <time>2017-07-02T11:51:02Z</time>
      </trkpt>
      <trkpt lat="42.4147" lon="0.11066">
        <ele>584.7</ele>
        <time>2017-07-02T11:51:05Z</time>
      </trkpt>
      <trkpt lat="42.41472" lon="0.11062">
        <ele>585.6</ele>
        <time>2017-07-02T11:51:08Z</time>
      </trkpt>
      <trkpt lat="42.41474" lon="0.11058">
        <ele>586.5</ele>
        <time>2017-07-02T11:51:11Z</time>
      </trkpt>
      <trkpt lat="42.41476" lon="0.11054">
        <ele>587.3</ele>
        <time>2017-07-02T11:51:14Z</time>
      </trkpt>
      <trkpt lat="42.41478" lon="0.1105">
        <ele>588.1</ele>
        <time>2017-07-02T11:51:17Z</time>
      </trkpt>
      <trkpt lat="42.41481" lon="0.11048">
        <ele>588.9</ele>
        <time>2017-07-02T11:51:20Z</time>
      </trkpt>
      <trkpt lat="42.41484" lon="0.11046">
        <ele>589.7</ele>
        <time>2017-07-02T11:51:24Z</time>
      </trkpt>
      <trkpt lat="42.41485" lon="0.11042">
        <ele>590.4</ele>
        <time>2017-07-02T11:51:27Z</time>
      </trkpt>
      <trkpt lat="42.41486" lon="0.11038">
        <ele>591</ele>
        <time>2017-07-02T11:51:30Z</time>
      </trkpt>
      <trkpt lat="42.41488" lon="0.11035">
        <ele>591.6</ele>
        <time>2017-07-02T11:51:33Z</time>
      </trkpt>
      <trkpt lat="42.41489" lon="0.11029">
        <ele>592.3</ele>
        <time>2017-07-02T11:51:36Z</time>
      </trkpt>
      <trkpt lat="42.41489" lon="0.11025">
        <ele>592.8</ele>
        <time>2017-07-02T11:51:38Z</time>
      </trkpt>
      <trkpt lat="42.41489" lon="0.11021">
        <ele>593.4</ele>
        <time>2017-07-02T11:51:41Z</time>
      </trkpt>
      <trkpt lat="42.41487" lon="0.11016">
        <ele>594.1</ele>
        <time>2017-07-02T11:51:44Z</time>
      </trkpt>
      <trkpt lat="42.41487" lon="0.11011">
        <ele>594.6</ele>
        <time>2017-07-02T11:51:47Z</time>
      </trkpt>
      <trkpt lat="42.41485" lon="0.11007">
        <ele>595.2</ele>
        <time>2017-07-02T11:51:50Z</time>
      </trkpt>
      <trkpt lat="42.41484" lon="0.11003">
        <ele>595.8</ele>
        <time>2017-07-02T11:51:53Z</time>
      </trkpt>
      <trkpt lat="42.41483" lon="0.10999">
        <ele>596.2</ele>
        <time>2017-07-02T11:51:56Z</time>
      </trkpt>
      <trkpt lat="42.41482" lon="0.10995">
        <ele>596.6</ele>
        <time>2017-07-02T11:51:59Z</time>
      </trkpt>
      <trkpt lat="42.4148" lon="0.10992">
        <ele>596.9</ele>
        <time>2017-07-02T11:52:01Z</time>
      </trkpt>
      <trkpt lat="42.41478" lon="0.10987">
        <ele>597.5</ele>
        <time>2017-07-02T11:52:04Z</time>
      </trkpt>
      <trkpt lat="42.41475" lon="0.10983">
        <ele>598.4</ele>
        <time>2017-07-02T11:52:07Z</time>
      </trkpt>
      <trkpt lat="42.41473" lon="0.10981">
        <ele>599.1</ele>
        <time>2017-07-02T11:52:09Z</time>
      </trkpt>
      <trkpt lat="42.41471" lon="0.10979">
        <ele>600</ele>
        <time>2017-07-02T11:52:11Z</time>
      </trkpt>
      <trkpt lat="42.41468" lon="0.10976">
        <ele>601</ele>
        <time>2017-07-02T11:52:14Z</time>
      </trkpt>
      <trkpt lat="42.41466" lon="0.10973">
        <ele>601.6</ele>
        <time>2017-07-02T11:52:16Z</time>
      </trkpt>
      <trkpt lat="42.41464" lon="0.10968">
        <ele>602.3</ele>
        <time>2017-07-02T11:52:19Z</time>
      </trkpt>
      <trkpt lat="42.41463" lon="0.10965">
        <ele>602.8</ele>
        <time>2017-07-02T11:52:21Z</time>
      </trkpt>
      <trkpt lat="42.41462" lon="0.1096">
        <ele>603.4</ele>
        <time>2017-07-02T11:52:24Z</time>
      </trkpt>
      <trkpt lat="42.41461" lon="0.10956">
        <ele>603.9</ele>
        <time>2017-07-02T11:52:27Z</time>
      </trkpt>
      <trkpt lat="42.41459" lon="0.10951">
        <ele>604.5</ele>
        <time>2017-07-02T11:52:30Z</time>
      </trkpt>
      <trkpt lat="42.41458" lon="0.10947">
        <ele>604.9</ele>
        <time>2017-07-02T11:52:32Z</time>
      </trkpt>
      <trkpt lat="42.41457" lon="0.10942">
        <ele>605.6</ele>
        <time>2017-07-02T11:52:35Z</time>
      </trkpt>
      <trkpt lat="42.41455" lon="0.10937">
        <ele>606.4</ele>
        <time>2017-07-02T11:52:38Z</time>
      </trkpt>
      <trkpt lat="42.41455" lon="0.10933">
        <ele>607</ele>
        <time>2017-07-02T11:52:40Z</time>
      </trkpt>
      <trkpt lat="42.41454" lon="0.1093">
        <ele>607.6</ele>
        <time>2017-07-02T11:52:42Z</time>
      </trkpt>
      <trkpt lat="42.41454" lon="0.10925">
        <ele>608.3</ele>
        <time>2017-07-02T11:52:45Z</time>
      </trkpt>
      <trkpt lat="42.41453" lon="0.10921">
        <ele>608.9</ele>
        <time>2017-07-02T11:52:48Z</time>
      </trkpt>
      <trkpt lat="42.41453" lon="0.10917">
        <ele>609.6</ele>
        <time>2017-07-02T11:52:51Z</time>
      </trkpt>
      <trkpt lat="42.41452" lon="0.10912">
        <ele>610.5</ele>
        <time>2017-07-02T11:52:54Z</time>
      </trkpt>
      <trkpt lat="42.41452" lon="0.10908">
        <ele>611.3</ele>
        <time>2017-07-02T11:52:57Z</time>
      </trkpt>
      <trkpt lat="42.41453" lon="0.10904">
        <ele>612</ele>
        <time>2017-07-02T11:53:00Z</time>
      </trkpt>
      <trkpt lat="42.41455" lon="0.10899">
        <ele>613.6</ele>
        <time>2017-07-02T11:53:03Z</time>
      </trkpt>
      <trkpt lat="42.41458" lon="0.10896">
        <ele>614.9</ele>
        <time>2017-07-02T11:53:05Z</time>
      </trkpt>
      <trkpt lat="42.41458" lon="0.10891">
        <ele>615.8</ele>
        <time>2017-07-02T11:53:07Z</time>
      </trkpt>
      <trkpt lat="42.41458" lon="0.10888">
        <ele>616.6</ele>
        <time>2017-07-02T11:53:09Z</time>
      </trkpt>
      <trkpt lat="42.41459" lon="0.10884">
        <ele>617.3</ele>
        <time>2017-07-02T11:53:12Z</time>
      </trkpt>
      <trkpt lat="42.41461" lon="0.10881">
        <ele>617.9</ele>
        <time>2017-07-02T11:53:15Z</time>
      </trkpt>
      <trkpt lat="42.41465" lon="0.10878">
        <ele>618.4</ele>
        <time>2017-07-02T11:53:18Z</time>
      </trkpt>
      <trkpt lat="42.41467" lon="0.10876">
        <ele>618.7</ele>
        <time>2017-07-02T11:53:20Z</time>
      </trkpt>
      <trkpt lat="42.4147" lon="0.10874">
        <ele>618.9</ele>
        <time>2017-07-02T11:53:22Z</time>
      </trkpt>
      <trkpt lat="42.41472" lon="0.10872">
        <ele>619.1</ele>
        <time>2017-07-02T11:53:24Z</time>
      </trkpt>
      <trkpt lat="42.41475" lon="0.1087">
        <ele>619.3</ele>
        <time>2017-07-02T11:53:26Z</time>
      </trkpt>
      <trkpt lat="42.41477" lon="0.10868">
        <ele>619.6</ele>
        <time>2017-07-02T11:53:28Z</time>
      </trkpt>
      <trkpt lat="42.41479" lon="0.10865">
        <ele>619.8</ele>
        <time>2017-07-02T11:53:30Z</time>
      </trkpt>
      <trkpt lat="42.41481" lon="0.10862">
        <ele>620</ele>
        <time>2017-07-02T11:53:32Z</time>
      </trkpt>
      <trkpt lat="42.41483" lon="0.10859">
        <ele>620.2</ele>
        <time>2017-07-02T11:53:34Z</time>
      </trkpt>
      <trkpt lat="42.41485" lon="0.10857">
        <ele>620.4</ele>
        <time>2017-07-02T11:53:36Z</time>
      </trkpt>
      <trkpt lat="42.41488" lon="0.10854">
        <ele>620.5</ele>
        <time>2017-07-02T11:53:39Z</time>
      </trkpt>
      <trkpt lat="42.41489" lon="0.10849">
        <ele>620.6</ele>
        <time>2017-07-02T11:53:42Z</time>
      </trkpt>
      <trkpt lat="42.4149" lon="0.10844">
        <ele>622.6</ele>
        <time>2017-07-02T11:53:45Z</time>
      </trkpt>
      <trkpt lat="42.41487" lon="0.10841">
        <ele>623</ele>
        <time>2017-07-02T11:53:48Z</time>
      </trkpt>
      <trkpt lat="42.41484" lon="0.10841">
        <ele>623.2</ele>
        <time>2017-07-02T11:53:49Z</time>
      </trkpt>
      <trkpt lat="42.41481" lon="0.10842">
        <ele>623.5</ele>
        <time>2017-07-02T11:53:50Z</time>
      </trkpt>
      <trkpt lat="42.41478" lon="0.10843">
        <ele>623.8</ele>
        <time>2017-07-02T11:53:51Z</time>
      </trkpt>
      <trkpt lat="42.41473" lon="0.10844">
        <ele>624.2</ele>
        <time>2017-07-02T11:53:53Z</time>
      </trkpt>
      <trkpt lat="42.41469" lon="0.10845">
        <ele>624.6</ele>
        <time>2017-07-02T11:53:55Z</time>
      </trkpt>
      <trkpt lat="42.41465" lon="0.10846">
        <ele>624.9</ele>
        <time>2017-07-02T11:53:57Z</time>
      </trkpt>
      <trkpt lat="42.41462" lon="0.10846">
        <ele>625.2</ele>
        <time>2017-07-02T11:53:59Z</time>
      </trkpt>
      <trkpt lat="42.4146" lon="0.10846">
        <ele>625.4</ele>
        <time>2017-07-02T11:54:01Z</time>
      </trkpt>
      <trkpt lat="42.41456" lon="0.10846">
        <ele>625.7</ele>
        <time>2017-07-02T11:54:04Z</time>
      </trkpt>
      <trkpt lat="42.41454" lon="0.10847">
        <ele>625.9</ele>
        <time>2017-07-02T11:54:07Z</time>
      </trkpt>
      <trkpt lat="42.4145" lon="0.10846">
        <ele>626.2</ele>
        <time>2017-07-02T11:54:11Z</time>
      </trkpt>
      <trkpt lat="42.41448" lon="0.10847">
        <ele>626.5</ele>
        <time>2017-07-02T11:54:14Z</time>
      </trkpt>
      <trkpt lat="42.41444" lon="0.10846">
        <ele>626.7</ele>
        <time>2017-07-02T11:54:17Z</time>
      </trkpt>
      <trkpt lat="42.41442" lon="0.10845">
        <ele>627</ele>
        <time>2017-07-02T11:54:19Z</time>
      </trkpt>
      <trkpt lat="42.41438" lon="0.10844">
        <ele>627.3</ele>
        <time>2017-07-02T11:54:22Z</time>
      </trkpt>
      <trkpt lat="42.41435" lon="0.10843">
        <ele>627.5</ele>
        <time>2017-07-02T11:54:24Z</time>
      </trkpt>
      <trkpt lat="42.41432" lon="0.10842">
        <ele>627.7</ele>
        <time>2017-07-02T11:54:26Z</time>
      </trkpt>
      <trkpt lat="42.41429" lon="0.10842">
        <ele>628</ele>
        <time>2017-07-02T11:54:28Z</time>
      </trkpt>
      <trkpt lat="42.41426" lon="0.10841">
        <ele>628.2</ele>
        <time>2017-07-02T11:54:30Z</time>
      </trkpt>
      <trkpt lat="42.41422" lon="0.1084">
        <ele>628.5</ele>
        <time>2017-07-02T11:54:32Z</time>
      </trkpt>
      <trkpt lat="42.41419" lon="0.1084">
        <ele>628.7</ele>
        <time>2017-07-02T11:54:34Z</time>
      </trkpt>
      <trkpt lat="42.41414" lon="0.10839">
        <ele>629.1</ele>
        <time>2017-07-02T11:54:36Z</time>
      </trkpt>
      <trkpt lat="42.41411" lon="0.10838">
        <ele>629.3</ele>
        <time>2017-07-02T11:54:38Z</time>
      </trkpt>
      <trkpt lat="42.41408" lon="0.10837">
        <ele>629.6</ele>
        <time>2017-07-02T11:54:40Z</time>
      </trkpt>
      <trkpt lat="42.41405" lon="0.10835">
        <ele>629.8</ele>
        <time>2017-07-02T11:54:42Z</time>
      </trkpt>
      <trkpt lat="42.41402" lon="0.10833">
        <ele>630.1</ele>
        <time>2017-07-02T11:54:44Z</time>
      </trkpt>
      <trkpt lat="42.41399" lon="0.10831">
        <ele>630.3</ele>
        <time>2017-07-02T11:54:46Z</time>
      </trkpt>
      <trkpt lat="42.41396" lon="0.10829">
        <ele>630.5</ele>
        <time>2017-07-02T11:54:48Z</time>
      </trkpt>
      <trkpt lat="42.41393" lon="0.10827">
        <ele>630.7</ele>
        <time>2017-07-02T11:54:50Z</time>
      </trkpt>
      <trkpt lat="42.4139" lon="0.10824">
        <ele>630.9</ele>
        <time>2017-07-02T11:54:52Z</time>
      </trkpt>
      <trkpt lat="42.41387" lon="0.10822">
        <ele>631.2</ele>
        <time>2017-07-02T11:54:54Z</time>
      </trkpt>
      <trkpt lat="42.41384" lon="0.1082">
        <ele>631.4</ele>
        <time>2017-07-02T11:54:56Z</time>
      </trkpt>
      <trkpt lat="42.41381" lon="0.10817">
        <ele>631.6</ele>
        <time>2017-07-02T11:54:58Z</time>
      </trkpt>
      <trkpt lat="42.41378" lon="0.10814">
        <ele>631.8</ele>
        <time>2017-07-02T11:55:00Z</time>
      </trkpt>
      <trkpt lat="42.41376" lon="0.10812">
        <ele>632</ele>
        <time>2017-07-02T11:55:02Z</time>
      </trkpt>
      <trkpt lat="42.41374" lon="0.10809">
        <ele>632.1</ele>
        <time>2017-07-02T11:55:04Z</time>
      </trkpt>
      <trkpt lat="42.41371" lon="0.10807">
        <ele>632.3</ele>
        <time>2017-07-02T11:55:06Z</time>
      </trkpt>
      <trkpt lat="42.41369" lon="0.10804">
        <ele>632.5</ele>
        <time>2017-07-02T11:55:08Z</time>
      </trkpt>
      <trkpt lat="42.41366" lon="0.10801">
        <ele>632.7</ele>
        <time>2017-07-02T11:55:11Z</time>
      </trkpt>
      <trkpt lat="42.41364" lon="0.10798">
        <ele>632.9</ele>
        <time>2017-07-02T11:55:13Z</time>
      </trkpt>
      <trkpt lat="42.41362" lon="0.10795">
        <ele>633</ele>
        <time>2017-07-02T11:55:15Z</time>
      </trkpt>
      <trkpt lat="42.41359" lon="0.10792">
        <ele>633.2</ele>
        <time>2017-07-02T11:55:17Z</time>
      </trkpt>
      <trkpt lat="42.41356" lon="0.1079">
        <ele>633.4</ele>
        <time>2017-07-02T11:55:19Z</time>
      </trkpt>
      <trkpt lat="42.41353" lon="0.10788">
        <ele>633.6</ele>
        <time>2017-07-02T11:55:21Z</time>
      </trkpt>
      <trkpt lat="42.4135" lon="0.10785">
        <ele>633.8</ele>
        <time>2017-07-02T11:55:23Z</time>
      </trkpt>
      <trkpt lat="42.41348" lon="0.10782">
        <ele>634</ele>
        <time>2017-07-02T11:55:25Z</time>
      </trkpt>
      <trkpt lat="42.41345" lon="0.1078">
        <ele>634.2</ele>
        <time>2017-07-02T11:55:27Z</time>
      </trkpt>
      <trkpt lat="42.41342" lon="0.10777">
        <ele>634.4</ele>
        <time>2017-07-02T11:55:29Z</time>
      </trkpt>
      <trkpt lat="42.4134" lon="0.10774">
        <ele>634.6</ele>
        <time>2017-07-02T11:55:31Z</time>
      </trkpt>
      <trkpt lat="42.41338" lon="0.1077">
        <ele>634.9</ele>
        <time>2017-07-02T11:55:33Z</time>
      </trkpt>
      <trkpt lat="42.41336" lon="0.10766">
        <ele>635.1</ele>
        <time>2017-07-02T11:55:35Z</time>
      </trkpt>
      <trkpt lat="42.41333" lon="0.10762">
        <ele>635.4</ele>
        <time>2017-07-02T11:55:37Z</time>
      </trkpt>
      <trkpt lat="42.4133" lon="0.10758">
        <ele>635.6</ele>
        <time>2017-07-02T11:55:39Z</time>
      </trkpt>
      <trkpt lat="42.41327" lon="0.10755">
        <ele>635.9</ele>
        <time>2017-07-02T11:55:41Z</time>
      </trkpt>
      <trkpt lat="42.41324" lon="0.10752">
        <ele>636.2</ele>
        <time>2017-07-02T11:55:43Z</time>
      </trkpt>
      <trkpt lat="42.41321" lon="0.10748">
        <ele>636.5</ele>
        <time>2017-07-02T11:55:45Z</time>
      </trkpt>
      <trkpt lat="42.41318" lon="0.10744">
        <ele>636.8</ele>
        <time>2017-07-02T11:55:47Z</time>
      </trkpt>
      <trkpt lat="42.41315" lon="0.10741">
        <ele>637.1</ele>
        <time>2017-07-02T11:55:49Z</time>
      </trkpt>
      <trkpt lat="42.41312" lon="0.10738">
        <ele>637.3</ele>
        <time>2017-07-02T11:55:51Z</time>
      </trkpt>
      <trkpt lat="42.41309" lon="0.10735">
        <ele>637.6</ele>
        <time>2017-07-02T11:55:53Z</time>
      </trkpt>
      <trkpt lat="42.41306" lon="0.10733">
        <ele>637.8</ele>
        <time>2017-07-02T11:55:55Z</time>
      </trkpt>
      <trkpt lat="42.41303" lon="0.10731">
        <ele>638.1</ele>
        <time>2017-07-02T11:55:57Z</time>
      </trkpt>
      <trkpt lat="42.413" lon="0.10728">
        <ele>638.4</ele>
        <time>2017-07-02T11:55:59Z</time>
      </trkpt>
      <trkpt lat="42.41296" lon="0.10726">
        <ele>638.7</ele>
        <time>2017-07-02T11:56:01Z</time>
      </trkpt>
      <trkpt lat="42.41293" lon="0.10722">
        <ele>638.9</ele>
        <time>2017-07-02T11:56:03Z</time>
      </trkpt>
      <trkpt lat="42.41289" lon="0.10719">
        <ele>639.2</ele>
        <time>2017-07-02T11:56:05Z</time>
      </trkpt>
      <trkpt lat="42.41285" lon="0.10718">
        <ele>639.5</ele>
        <time>2017-07-02T11:56:07Z</time>
      </trkpt>
      <trkpt lat="42.41281" lon="0.10717">
        <ele>639.7</ele>
        <time>2017-07-02T11:56:09Z</time>
      </trkpt>
      <trkpt lat="42.41278" lon="0.10716">
        <ele>639.8</ele>
        <time>2017-07-02T11:56:11Z</time>
      </trkpt>
      <trkpt lat="42.41274" lon="0.10714">
        <ele>640</ele>
        <time>2017-07-02T11:56:13Z</time>
      </trkpt>
      <trkpt lat="42.41271" lon="0.10712">
        <ele>640.2</ele>
        <time>2017-07-02T11:56:15Z</time>
      </trkpt>
      <trkpt lat="42.41269" lon="0.1071">
        <ele>640.3</ele>
        <time>2017-07-02T11:56:17Z</time>
      </trkpt>
      <trkpt lat="42.41266" lon="0.10709">
        <ele>640.4</ele>
        <time>2017-07-02T11:56:19Z</time>
      </trkpt>
      <trkpt lat="42.41262" lon="0.10707">
        <ele>640.5</ele>
        <time>2017-07-02T11:56:21Z</time>
      </trkpt>
      <trkpt lat="42.41259" lon="0.10706">
        <ele>640.6</ele>
        <time>2017-07-02T11:56:23Z</time>
      </trkpt>
      <trkpt lat="42.41256" lon="0.10703">
        <ele>640.7</ele>
        <time>2017-07-02T11:56:25Z</time>
      </trkpt>
      <trkpt lat="42.41253" lon="0.10702">
        <ele>640.8</ele>
        <time>2017-07-02T11:56:27Z</time>
      </trkpt>
      <trkpt lat="42.41249" lon="0.10702">
        <ele>640.9</ele>
        <time>2017-07-02T11:56:29Z</time>
      </trkpt>
      <trkpt lat="42.41246" lon="0.10701">
        <ele>640.9</ele>
        <time>2017-07-02T11:56:31Z</time>
      </trkpt>
      <trkpt lat="42.41242" lon="0.107">
        <ele>641</ele>
        <time>2017-07-02T11:56:33Z</time>
      </trkpt>
      <trkpt lat="42.41239" lon="0.10699">
        <ele>641</ele>
        <time>2017-07-02T11:56:35Z</time>
      </trkpt>
      <trkpt lat="42.41236" lon="0.10698">
        <ele>641.1</ele>
        <time>2017-07-02T11:56:37Z</time>
      </trkpt>
      <trkpt lat="42.41232" lon="0.10696">
        <ele>641.1</ele>
        <time>2017-07-02T11:56:39Z</time>
      </trkpt>
      <trkpt lat="42.41229" lon="0.10695">
        <ele>641.1</ele>
        <time>2017-07-02T11:56:41Z</time>
      </trkpt>
      <trkpt lat="42.41225" lon="0.10693">
        <ele>641.1</ele>
        <time>2017-07-02T11:56:43Z</time>
      </trkpt>
      <trkpt lat="42.41221" lon="0.10691">
        <ele>641.2</ele>
        <time>2017-07-02T11:56:45Z</time>
      </trkpt>
      <trkpt lat="42.41217" lon="0.1069">
        <ele>641.2</ele>
        <time>2017-07-02T11:56:47Z</time>
      </trkpt>
      <trkpt lat="42.41213" lon="0.10688">
        <ele>641.2</ele>
        <time>2017-07-02T11:56:49Z</time>
      </trkpt>
      <trkpt lat="42.41209" lon="0.10684">
        <ele>641.2</ele>
        <time>2017-07-02T11:56:51Z</time>
      </trkpt>
      <trkpt lat="42.41205" lon="0.1068">
        <ele>641.3</ele>
        <time>2017-07-02T11:56:53Z</time>
      </trkpt>
      <trkpt lat="42.41202" lon="0.10675">
        <ele>641.3</ele>
        <time>2017-07-02T11:56:55Z</time>
      </trkpt>
      <trkpt lat="42.41199" lon="0.10669">
        <ele>641.3</ele>
        <time>2017-07-02T11:56:57Z</time>
      </trkpt>
      <trkpt lat="42.41198" lon="0.10662">
        <ele>641.4</ele>
        <time>2017-07-02T11:56:59Z</time>
      </trkpt>
      <trkpt lat="42.41197" lon="0.10658">
        <ele>641.4</ele>
        <time>2017-07-02T11:57:00Z</time>
      </trkpt>
      <trkpt lat="42.41197" lon="0.10654">
        <ele>641.4</ele>
        <time>2017-07-02T11:57:01Z</time>
      </trkpt>
      <trkpt lat="42.41197" lon="0.10651">
        <ele>641.4</ele>
        <time>2017-07-02T11:57:02Z</time>
      </trkpt>
      <trkpt lat="42.41197" lon="0.10647">
        <ele>641.5</ele>
        <time>2017-07-02T11:57:03Z</time>
      </trkpt>
      <trkpt lat="42.41197" lon="0.10643">
        <ele>641.5</ele>
        <time>2017-07-02T11:57:04Z</time>
      </trkpt>
      <trkpt lat="42.41198" lon="0.1064">
        <ele>641.5</ele>
        <time>2017-07-02T11:57:05Z</time>
      </trkpt>
      <trkpt lat="42.41198" lon="0.10636">
        <ele>641.5</ele>
        <time>2017-07-02T11:57:06Z</time>
      </trkpt>
      <trkpt lat="42.41198" lon="0.10632">
        <ele>641.5</ele>
        <time>2017-07-02T11:57:07Z</time>
      </trkpt>
      <trkpt lat="42.41198" lon="0.10628">
        <ele>641.5</ele>
        <time>2017-07-02T11:57:08Z</time>
      </trkpt>
      <trkpt lat="42.41199" lon="0.10624">
        <ele>641.5</ele>
        <time>2017-07-02T11:57:09Z</time>
      </trkpt>
      <trkpt lat="42.41199" lon="0.10621">
        <ele>641.6</ele>
        <time>2017-07-02T11:57:10Z</time>
      </trkpt>
      <trkpt lat="42.412" lon="0.10617">
        <ele>641.6</ele>
        <time>2017-07-02T11:57:11Z</time>
      </trkpt>
      <trkpt lat="42.412" lon="0.10614">
        <ele>641.7</ele>
        <time>2017-07-02T11:57:12Z</time>
      </trkpt>
      <trkpt lat="42.41201" lon="0.1061">
        <ele>641.8</ele>
        <time>2017-07-02T11:57:13Z</time>
      </trkpt>
      <trkpt lat="42.41201" lon="0.10603">
        <ele>642</ele>
        <time>2017-07-02T11:57:15Z</time>
      </trkpt>
      <trkpt lat="42.41201" lon="0.10599">
        <ele>642.1</ele>
        <time>2017-07-02T11:57:16Z</time>
      </trkpt>
      <trkpt lat="42.412" lon="0.10595">
        <ele>642.2</ele>
        <time>2017-07-02T11:57:17Z</time>
      </trkpt>
      <trkpt lat="42.41198" lon="0.10589">
        <ele>642.5</ele>
        <time>2017-07-02T11:57:19Z</time>
      </trkpt>
      <trkpt lat="42.41195" lon="0.10584">
        <ele>642.7</ele>
        <time>2017-07-02T11:57:21Z</time>
      </trkpt>
      <trkpt lat="42.41191" lon="0.10579">
        <ele>643</ele>
        <time>2017-07-02T11:57:23Z</time>
      </trkpt>
      <trkpt lat="42.41188" lon="0.10575">
        <ele>643.1</ele>
        <time>2017-07-02T11:57:25Z</time>
      </trkpt>
      <trkpt lat="42.41183" lon="0.10573">
        <ele>643.2</ele>
        <time>2017-07-02T11:57:27Z</time>
      </trkpt>
      <trkpt lat="42.41179" lon="0.10573">
        <ele>643.3</ele>
        <time>2017-07-02T11:57:29Z</time>
      </trkpt>
      <trkpt lat="42.41174" lon="0.10574">
        <ele>643.2</ele>
        <time>2017-07-02T11:57:31Z</time>
      </trkpt>
      <trkpt lat="42.41169" lon="0.10575">
        <ele>643.2</ele>
        <time>2017-07-02T11:57:33Z</time>
      </trkpt>
      <trkpt lat="42.41166" lon="0.10578">
        <ele>643.1</ele>
        <time>2017-07-02T11:57:35Z</time>
      </trkpt>
      <trkpt lat="42.41163" lon="0.10581">
        <ele>643.1</ele>
        <time>2017-07-02T11:57:37Z</time>
      </trkpt>
      <trkpt lat="42.4116" lon="0.10584">
        <ele>643</ele>
        <time>2017-07-02T11:57:40Z</time>
      </trkpt>
      <trkpt lat="42.41158" lon="0.10581">
        <ele>643</ele>
        <time>2017-07-02T11:57:43Z</time>
      </trkpt>
      <trkpt lat="42.4116" lon="0.10575">
        <ele>643.5</ele>
        <time>2017-07-02T11:57:45Z</time>
      </trkpt>
      <trkpt lat="42.41164" lon="0.10571">
        <ele>644.1</ele>
        <time>2017-07-02T11:57:47Z</time>
      </trkpt>
      <trkpt lat="42.41167" lon="0.10569">
        <ele>644.5</ele>
        <time>2017-07-02T11:57:48Z</time>
      </trkpt>
      <trkpt lat="42.41169" lon="0.10567">
        <ele>644.8</ele>
        <time>2017-07-02T11:57:49Z</time>
      </trkpt>
      <trkpt lat="42.41174" lon="0.10565">
        <ele>645.4</ele>
        <time>2017-07-02T11:57:51Z</time>
      </trkpt>
      <trkpt lat="42.41178" lon="0.10562">
        <ele>646</ele>
        <time>2017-07-02T11:57:53Z</time>
      </trkpt>
      <trkpt lat="42.41182" lon="0.1056">
        <ele>646.5</ele>
        <time>2017-07-02T11:57:55Z</time>
      </trkpt>
      <trkpt lat="42.41186" lon="0.10558">
        <ele>647.1</ele>
        <time>2017-07-02T11:57:57Z</time>
      </trkpt>
      <trkpt lat="42.41189" lon="0.10554">
        <ele>647.7</ele>
        <time>2017-07-02T11:57:59Z</time>
      </trkpt>
      <trkpt lat="42.41192" lon="0.10551">
        <ele>648.3</ele>
        <time>2017-07-02T11:58:01Z</time>
      </trkpt>
      <trkpt lat="42.41194" lon="0.10547">
        <ele>648.8</ele>
        <time>2017-07-02T11:58:03Z</time>
      </trkpt>
      <trkpt lat="42.41197" lon="0.10543">
        <ele>649.2</ele>
        <time>2017-07-02T11:58:05Z</time>
      </trkpt>
      <trkpt lat="42.41201" lon="0.10542">
        <ele>649.6</ele>
        <time>2017-07-02T11:58:07Z</time>
      </trkpt>
      <trkpt lat="42.41205" lon="0.10542">
        <ele>650</ele>
        <time>2017-07-02T11:58:09Z</time>
      </trkpt>
      <trkpt lat="42.41209" lon="0.10543">
        <ele>650.3</ele>
        <time>2017-07-02T11:58:11Z</time>
      </trkpt>
      <trkpt lat="42.41213" lon="0.10543">
        <ele>650.7</ele>
        <time>2017-07-02T11:58:13Z</time>
      </trkpt>
      <trkpt lat="42.41217" lon="0.10543">
        <ele>651.1</ele>
        <time>2017-07-02T11:58:15Z</time>
      </trkpt>
      <trkpt lat="42.41221" lon="0.10542">
        <ele>651.4</ele>
        <time>2017-07-02T11:58:17Z</time>
      </trkpt>
      <trkpt lat="42.41224" lon="0.10543">
        <ele>651.7</ele>
        <time>2017-07-02T11:58:19Z</time>
      </trkpt>
      <trkpt lat="42.41227" lon="0.10543">
        <ele>652</ele>
        <time>2017-07-02T11:58:21Z</time>
      </trkpt>
      <trkpt lat="42.41231" lon="0.10544">
        <ele>652.3</ele>
        <time>2017-07-02T11:58:23Z</time>
      </trkpt>
      <trkpt lat="42.41234" lon="0.10543">
        <ele>652.6</ele>
        <time>2017-07-02T11:58:25Z</time>
      </trkpt>
      <trkpt lat="42.41237" lon="0.10542">
        <ele>652.8</ele>
        <time>2017-07-02T11:58:27Z</time>
      </trkpt>
      <trkpt lat="42.41241" lon="0.10541">
        <ele>653.9</ele>
        <time>2017-07-02T11:58:30Z</time>
      </trkpt>
      <trkpt lat="42.41243" lon="0.10539">
        <ele>655.1</ele>
        <time>2017-07-02T11:58:32Z</time>
      </trkpt>
      <trkpt lat="42.41246" lon="0.10536">
        <ele>656.7</ele>
        <time>2017-07-02T11:58:35Z</time>
      </trkpt>
      <trkpt lat="42.41248" lon="0.10533">
        <ele>657.8</ele>
        <time>2017-07-02T11:58:37Z</time>
      </trkpt>
      <trkpt lat="42.41249" lon="0.1053">
        <ele>659</ele>
        <time>2017-07-02T11:58:39Z</time>
      </trkpt>
      <trkpt lat="42.41251" lon="0.10525">
        <ele>660.4</ele>
        <time>2017-07-02T11:58:42Z</time>
      </trkpt>
      <trkpt lat="42.41252" lon="0.10521">
        <ele>662</ele>
        <time>2017-07-02T11:58:45Z</time>
      </trkpt>
      <trkpt lat="42.41255" lon="0.10516">
        <ele>663.6</ele>
        <time>2017-07-02T11:58:48Z</time>
      </trkpt>
      <trkpt lat="42.41256" lon="0.10512">
        <ele>665</ele>
        <time>2017-07-02T11:58:51Z</time>
      </trkpt>
      <trkpt lat="42.41258" lon="0.10509">
        <ele>666.4</ele>
        <time>2017-07-02T11:58:54Z</time>
      </trkpt>
      <trkpt lat="42.41262" lon="0.10507">
        <ele>668</ele>
        <time>2017-07-02T11:58:57Z</time>
      </trkpt>
      <trkpt lat="42.41265" lon="0.10507">
        <ele>668.1</ele>
        <time>2017-07-02T11:58:59Z</time>
      </trkpt>
      <trkpt lat="42.41268" lon="0.10506">
        <ele>668.2</ele>
        <time>2017-07-02T11:59:01Z</time>
      </trkpt>
      <trkpt lat="42.4127" lon="0.10504">
        <ele>668.4</ele>
        <time>2017-07-02T11:59:09Z</time>
      </trkpt>
      <trkpt lat="42.41271" lon="0.105">
        <ele>668.5</ele>
        <time>2017-07-02T11:59:15Z</time>
      </trkpt>
      <trkpt lat="42.41272" lon="0.10497">
        <ele>668.6</ele>
        <time>2017-07-02T11:59:23Z</time>
      </trkpt>
      <trkpt lat="42.41275" lon="0.10496">
        <ele>668.8</ele>
        <time>2017-07-02T11:59:28Z</time>
      </trkpt>
      <trkpt lat="42.41277" lon="0.10495">
        <ele>669.3</ele>
        <time>2017-07-02T11:59:34Z</time>
      </trkpt>
      <trkpt lat="42.4128" lon="0.10492">
        <ele>669.8</ele>
        <time>2017-07-02T11:59:36Z</time>
      </trkpt>
      <trkpt lat="42.41282" lon="0.10489">
        <ele>670.1</ele>
        <time>2017-07-02T11:59:38Z</time>
      </trkpt>
      <trkpt lat="42.41284" lon="0.10487">
        <ele>670.4</ele>
        <time>2017-07-02T11:59:40Z</time>
      </trkpt>
      <trkpt lat="42.41287" lon="0.10485">
        <ele>670.6</ele>
        <time>2017-07-02T11:59:42Z</time>
      </trkpt>
      <trkpt lat="42.4129" lon="0.10484">
        <ele>670.9</ele>
        <time>2017-07-02T11:59:44Z</time>
      </trkpt>
      <trkpt lat="42.41293" lon="0.10483">
        <ele>671.2</ele>
        <time>2017-07-02T11:59:46Z</time>
      </trkpt>
      <trkpt lat="42.41297" lon="0.10481">
        <ele>671.8</ele>
        <time>2017-07-02T11:59:48Z</time>
      </trkpt>
      <trkpt lat="42.413" lon="0.10479">
        <ele>672.6</ele>
        <time>2017-07-02T11:59:50Z</time>
      </trkpt>
      <trkpt lat="42.41303" lon="0.10477">
        <ele>672.9</ele>
        <time>2017-07-02T11:59:52Z</time>
      </trkpt>
      <trkpt lat="42.41306" lon="0.10476">
        <ele>673.3</ele>
        <time>2017-07-02T11:59:54Z</time>
      </trkpt>
      <trkpt lat="42.41309" lon="0.10474">
        <ele>673.8</ele>
        <time>2017-07-02T11:59:56Z</time>
      </trkpt>
      <trkpt lat="42.41311" lon="0.10471">
        <ele>674.3</ele>
        <time>2017-07-02T11:59:58Z</time>
      </trkpt>
      <trkpt lat="42.41314" lon="0.10468">
        <ele>674.7</ele>
        <time>2017-07-02T12:00:01Z</time>
      </trkpt>
      <trkpt lat="42.41317" lon="0.10465">
        <ele>675.1</ele>
        <time>2017-07-02T12:00:04Z</time>
      </trkpt>
      <trkpt lat="42.4132" lon="0.10463">
        <ele>675.3</ele>
        <time>2017-07-02T12:00:06Z</time>
      </trkpt>
      <trkpt lat="42.41323" lon="0.10461">
        <ele>675.6</ele>
        <time>2017-07-02T12:00:08Z</time>
      </trkpt>
      <trkpt lat="42.41325" lon="0.10458">
        <ele>676.2</ele>
        <time>2017-07-02T12:00:10Z</time>
      </trkpt>
      <trkpt lat="42.41327" lon="0.10456">
        <ele>676.8</ele>
        <time>2017-07-02T12:00:12Z</time>
      </trkpt>
      <trkpt lat="42.4133" lon="0.10453">
        <ele>677.1</ele>
        <time>2017-07-02T12:00:14Z</time>
      </trkpt>
      <trkpt lat="42.41332" lon="0.10451">
        <ele>677.3</ele>
        <time>2017-07-02T12:00:16Z</time>
      </trkpt>
      <trkpt lat="42.41334" lon="0.10447">
        <ele>677.5</ele>
        <time>2017-07-02T12:00:18Z</time>
      </trkpt>
      <trkpt lat="42.41336" lon="0.10444">
        <ele>677.8</ele>
        <time>2017-07-02T12:00:20Z</time>
      </trkpt>
      <trkpt lat="42.41338" lon="0.10441">
        <ele>678.1</ele>
        <time>2017-07-02T12:00:22Z</time>
      </trkpt>
      <trkpt lat="42.41341" lon="0.10438">
        <ele>678.8</ele>
        <time>2017-07-02T12:00:24Z</time>
      </trkpt>
      <trkpt lat="42.41344" lon="0.10436">
        <ele>679.3</ele>
        <time>2017-07-02T12:00:26Z</time>
      </trkpt>
      <trkpt lat="42.41345" lon="0.10433">
        <ele>679.6</ele>
        <time>2017-07-02T12:00:28Z</time>
      </trkpt>
      <trkpt lat="42.41348" lon="0.10429">
        <ele>679.9</ele>
        <time>2017-07-02T12:00:31Z</time>
      </trkpt>
      <trkpt lat="42.4135" lon="0.10426">
        <ele>680.5</ele>
        <time>2017-07-02T12:00:33Z</time>
      </trkpt>
      <trkpt lat="42.41352" lon="0.10423">
        <ele>681</ele>
        <time>2017-07-02T12:00:35Z</time>
      </trkpt>
      <trkpt lat="42.41355" lon="0.1042">
        <ele>681.4</ele>
        <time>2017-07-02T12:00:37Z</time>
      </trkpt>
      <trkpt lat="42.41357" lon="0.10419">
        <ele>681.5</ele>
        <time>2017-07-02T12:00:39Z</time>
      </trkpt>
      <trkpt lat="42.4136" lon="0.10418">
        <ele>681.6</ele>
        <time>2017-07-02T12:00:41Z</time>
      </trkpt>
      <trkpt lat="42.41362" lon="0.10416">
        <ele>681.8</ele>
        <time>2017-07-02T12:00:43Z</time>
      </trkpt>
      <trkpt lat="42.41366" lon="0.10413">
        <ele>681.9</ele>
        <time>2017-07-02T12:00:46Z</time>
      </trkpt>
      <trkpt lat="42.41369" lon="0.1041">
        <ele>682.1</ele>
        <time>2017-07-02T12:00:48Z</time>
      </trkpt>
      <trkpt lat="42.41371" lon="0.10408">
        <ele>682.2</ele>
        <time>2017-07-02T12:00:50Z</time>
      </trkpt>
      <trkpt lat="42.41375" lon="0.10406">
        <ele>682.3</ele>
        <time>2017-07-02T12:00:52Z</time>
      </trkpt>
      <trkpt lat="42.41377" lon="0.10404">
        <ele>682.5</ele>
        <time>2017-07-02T12:00:54Z</time>
      </trkpt>
      <trkpt lat="42.4138" lon="0.10402">
        <ele>682.7</ele>
        <time>2017-07-02T12:00:56Z</time>
      </trkpt>
      <trkpt lat="42.41383" lon="0.10399">
        <ele>683.1</ele>
        <time>2017-07-02T12:00:58Z</time>
      </trkpt>
      <trkpt lat="42.41385" lon="0.10397">
        <ele>683.5</ele>
        <time>2017-07-02T12:01:00Z</time>
      </trkpt>
      <trkpt lat="42.41389" lon="0.10394">
        <ele>683.7</ele>
        <time>2017-07-02T12:01:02Z</time>
      </trkpt>
      <trkpt lat="42.41392" lon="0.10392">
        <ele>684</ele>
        <time>2017-07-02T12:01:04Z</time>
      </trkpt>
      <trkpt lat="42.41396" lon="0.10391">
        <ele>684.2</ele>
        <time>2017-07-02T12:01:06Z</time>
      </trkpt>
      <trkpt lat="42.41398" lon="0.1039">
        <ele>684.3</ele>
        <time>2017-07-02T12:01:08Z</time>
      </trkpt>
      <trkpt lat="42.41402" lon="0.10387">
        <ele>684.5</ele>
        <time>2017-07-02T12:01:11Z</time>
      </trkpt>
      <trkpt lat="42.41404" lon="0.10384">
        <ele>684.7</ele>
        <time>2017-07-02T12:01:13Z</time>
      </trkpt>
      <trkpt lat="42.41406" lon="0.10381">
        <ele>684.8</ele>
        <time>2017-07-02T12:01:15Z</time>
      </trkpt>
      <trkpt lat="42.41409" lon="0.10376">
        <ele>685</ele>
        <time>2017-07-02T12:01:17Z</time>
      </trkpt>
      <trkpt lat="42.41411" lon="0.10371">
        <ele>685.5</ele>
        <time>2017-07-02T12:01:19Z</time>
      </trkpt>
      <trkpt lat="42.41414" lon="0.10365">
        <ele>686.1</ele>
        <time>2017-07-02T12:01:21Z</time>
      </trkpt>
      <trkpt lat="42.41417" lon="0.10361">
        <ele>686.5</ele>
        <time>2017-07-02T12:01:23Z</time>
      </trkpt>
      <trkpt lat="42.4142" lon="0.10357">
        <ele>686.8</ele>
        <time>2017-07-02T12:01:25Z</time>
      </trkpt>
      <trkpt lat="42.41423" lon="0.10353">
        <ele>687.1</ele>
        <time>2017-07-02T12:01:27Z</time>
      </trkpt>
      <trkpt lat="42.41427" lon="0.1035">
        <ele>687.6</ele>
        <time>2017-07-02T12:01:29Z</time>
      </trkpt>
      <trkpt lat="42.41431" lon="0.10349">
        <ele>688.4</ele>
        <time>2017-07-02T12:01:31Z</time>
      </trkpt>
      <trkpt lat="42.41435" lon="0.10349">
        <ele>688.9</ele>
        <time>2017-07-02T12:01:33Z</time>
      </trkpt>
      <trkpt lat="42.41438" lon="0.10349">
        <ele>689.1</ele>
        <time>2017-07-02T12:01:35Z</time>
      </trkpt>
      <trkpt lat="42.41442" lon="0.10348">
        <ele>689.5</ele>
        <time>2017-07-02T12:01:37Z</time>
      </trkpt>
      <trkpt lat="42.41446" lon="0.10347">
        <ele>690.2</ele>
        <time>2017-07-02T12:01:39Z</time>
      </trkpt>
      <trkpt lat="42.41448" lon="0.10345">
        <ele>690.9</ele>
        <time>2017-07-02T12:01:41Z</time>
      </trkpt>
      <trkpt lat="42.41451" lon="0.10342">
        <ele>691.3</ele>
        <time>2017-07-02T12:01:43Z</time>
      </trkpt>
      <trkpt lat="42.41454" lon="0.1034">
        <ele>691.5</ele>
        <time>2017-07-02T12:01:45Z</time>
      </trkpt>
      <trkpt lat="42.41457" lon="0.10338">
        <ele>691.8</ele>
        <time>2017-07-02T12:01:47Z</time>
      </trkpt>
      <trkpt lat="42.41459" lon="0.10337">
        <ele>692.1</ele>
        <time>2017-07-02T12:01:49Z</time>
      </trkpt>
      <trkpt lat="42.41462" lon="0.10335">
        <ele>692.7</ele>
        <time>2017-07-02T12:01:51Z</time>
      </trkpt>
      <trkpt lat="42.41465" lon="0.10332">
        <ele>693.4</ele>
        <time>2017-07-02T12:01:53Z</time>
      </trkpt>
      <trkpt lat="42.41468" lon="0.10328">
        <ele>693.9</ele>
        <time>2017-07-02T12:01:55Z</time>
      </trkpt>
      <trkpt lat="42.4147" lon="0.10326">
        <ele>694.1</ele>
        <time>2017-07-02T12:01:57Z</time>
      </trkpt>
      <trkpt lat="42.41473" lon="0.10324">
        <ele>694.3</ele>
        <time>2017-07-02T12:01:59Z</time>
      </trkpt>
      <trkpt lat="42.41476" lon="0.10322">
        <ele>694.8</ele>
        <time>2017-07-02T12:02:01Z</time>
      </trkpt>
      <trkpt lat="42.41478" lon="0.10319">
        <ele>695.3</ele>
        <time>2017-07-02T12:02:03Z</time>
      </trkpt>
      <trkpt lat="42.41481" lon="0.10316">
        <ele>695.6</ele>
        <time>2017-07-02T12:02:05Z</time>
      </trkpt>
      <trkpt lat="42.41483" lon="0.10313">
        <ele>695.8</ele>
        <time>2017-07-02T12:02:07Z</time>
      </trkpt>
      <trkpt lat="42.41485" lon="0.10311">
        <ele>696.1</ele>
        <time>2017-07-02T12:02:09Z</time>
      </trkpt>
      <trkpt lat="42.41487" lon="0.10307">
        <ele>696.4</ele>
        <time>2017-07-02T12:02:34Z</time>
      </trkpt>
      <trkpt lat="42.4149" lon="0.10304">
        <ele>696.6</ele>
        <time>2017-07-02T12:02:36Z</time>
      </trkpt>
      <trkpt lat="42.41492" lon="0.103">
        <ele>696.9</ele>
        <time>2017-07-02T12:02:38Z</time>
      </trkpt>
      <trkpt lat="42.41496" lon="0.10296">
        <ele>697.3</ele>
        <time>2017-07-02T12:02:40Z</time>
      </trkpt>
      <trkpt lat="42.41499" lon="0.10294">
        <ele>698.2</ele>
        <time>2017-07-02T12:02:42Z</time>
      </trkpt>
      <trkpt lat="42.41502" lon="0.1029">
        <ele>699.2</ele>
        <time>2017-07-02T12:02:44Z</time>
      </trkpt>
      <trkpt lat="42.41505" lon="0.10285">
        <ele>699.7</ele>
        <time>2017-07-02T12:02:46Z</time>
      </trkpt>
      <trkpt lat="42.41506" lon="0.10281">
        <ele>700</ele>
        <time>2017-07-02T12:02:48Z</time>
      </trkpt>
      <trkpt lat="42.41508" lon="0.10277">
        <ele>700.3</ele>
        <time>2017-07-02T12:02:50Z</time>
      </trkpt>
      <trkpt lat="42.41508" lon="0.10271">
        <ele>700.9</ele>
        <time>2017-07-02T12:02:52Z</time>
      </trkpt>
      <trkpt lat="42.4151" lon="0.10268">
        <ele>701.8</ele>
        <time>2017-07-02T12:03:10Z</time>
      </trkpt>
      <trkpt lat="42.4151" lon="0.10264">
        <ele>702.3</ele>
        <time>2017-07-02T12:03:13Z</time>
      </trkpt>
      <trkpt lat="42.41511" lon="0.1026">
        <ele>702.7</ele>
        <time>2017-07-02T12:03:16Z</time>
      </trkpt>
      <trkpt lat="42.41514" lon="0.10257">
        <ele>703</ele>
        <time>2017-07-02T12:03:20Z</time>
      </trkpt>
      <trkpt lat="42.41516" lon="0.10254">
        <ele>703.2</ele>
        <time>2017-07-02T12:03:23Z</time>
      </trkpt>
      <trkpt lat="42.41519" lon="0.10252">
        <ele>703.3</ele>
        <time>2017-07-02T12:03:25Z</time>
      </trkpt>
      <trkpt lat="42.41521" lon="0.10249">
        <ele>703.6</ele>
        <time>2017-07-02T12:03:27Z</time>
      </trkpt>
      <trkpt lat="42.41524" lon="0.10248">
        <ele>703.9</ele>
        <time>2017-07-02T12:03:29Z</time>
      </trkpt>
      <trkpt lat="42.41528" lon="0.10248">
        <ele>704.1</ele>
        <time>2017-07-02T12:03:31Z</time>
      </trkpt>
      <trkpt lat="42.41531" lon="0.10246">
        <ele>704.5</ele>
        <time>2017-07-02T12:03:33Z</time>
      </trkpt>
      <trkpt lat="42.41533" lon="0.10243">
        <ele>705.1</ele>
        <time>2017-07-02T12:03:35Z</time>
      </trkpt>
      <trkpt lat="42.41535" lon="0.10239">
        <ele>705.5</ele>
        <time>2017-07-02T12:03:37Z</time>
      </trkpt>
      <trkpt lat="42.41538" lon="0.10236">
        <ele>705.8</ele>
        <time>2017-07-02T12:03:39Z</time>
      </trkpt>
      <trkpt lat="42.41541" lon="0.10234">
        <ele>706.1</ele>
        <time>2017-07-02T12:03:41Z</time>
      </trkpt>
      <trkpt lat="42.41543" lon="0.10232">
        <ele>706.4</ele>
        <time>2017-07-02T12:03:43Z</time>
      </trkpt>
      <trkpt lat="42.41545" lon="0.1023">
        <ele>707</ele>
        <time>2017-07-02T12:03:45Z</time>
      </trkpt>
      <trkpt lat="42.41548" lon="0.10228">
        <ele>707.8</ele>
        <time>2017-07-02T12:03:47Z</time>
      </trkpt>
      <trkpt lat="42.4155" lon="0.10226">
        <ele>708.4</ele>
        <time>2017-07-02T12:03:49Z</time>
      </trkpt>
      <trkpt lat="42.41553" lon="0.10223">
        <ele>709.5</ele>
        <time>2017-07-02T12:03:51Z</time>
      </trkpt>
      <trkpt lat="42.41557" lon="0.10221">
        <ele>710.4</ele>
        <time>2017-07-02T12:03:54Z</time>
      </trkpt>
      <trkpt lat="42.4156" lon="0.10219">
        <ele>711</ele>
        <time>2017-07-02T12:03:56Z</time>
      </trkpt>
      <trkpt lat="42.41562" lon="0.10214">
        <ele>711.7</ele>
        <time>2017-07-02T12:03:58Z</time>
      </trkpt>
      <trkpt lat="42.41563" lon="0.10211">
        <ele>712.3</ele>
        <time>2017-07-02T12:04:03Z</time>
      </trkpt>
      <trkpt lat="42.41566" lon="0.10209">
        <ele>712.4</ele>
        <time>2017-07-02T12:04:08Z</time>
      </trkpt>
      <trkpt lat="42.41569" lon="0.10208">
        <ele>712.6</ele>
        <time>2017-07-02T12:04:12Z</time>
      </trkpt>
      <trkpt lat="42.41571" lon="0.10206">
        <ele>712.7</ele>
        <time>2017-07-02T12:04:17Z</time>
      </trkpt>
      <trkpt lat="42.41572" lon="0.10202">
        <ele>712.7</ele>
        <time>2017-07-02T12:04:22Z</time>
      </trkpt>
      <trkpt lat="42.41574" lon="0.10199">
        <ele>712.7</ele>
        <time>2017-07-02T12:04:26Z</time>
      </trkpt>
      <trkpt lat="42.41577" lon="0.10197">
        <ele>712.7</ele>
        <time>2017-07-02T12:04:32Z</time>
      </trkpt>
      <trkpt lat="42.41584" lon="0.10195">
        <ele>712.7</ele>
        <time>2017-07-02T12:05:04Z</time>
      </trkpt>
      <trkpt lat="42.41589" lon="0.10194">
        <ele>712.6</ele>
        <time>2017-07-02T12:05:06Z</time>
      </trkpt>
      <trkpt lat="42.41592" lon="0.10194">
        <ele>712.6</ele>
        <time>2017-07-02T12:05:07Z</time>
      </trkpt>
      <trkpt lat="42.41596" lon="0.10194">
        <ele>712.5</ele>
        <time>2017-07-02T12:05:08Z</time>
      </trkpt>
      <trkpt lat="42.41599" lon="0.10193">
        <ele>712.4</ele>
        <time>2017-07-02T12:05:09Z</time>
      </trkpt>
      <trkpt lat="42.41602" lon="0.10192">
        <ele>712.3</ele>
        <time>2017-07-02T12:05:10Z</time>
      </trkpt>
      <trkpt lat="42.41605" lon="0.10192">
        <ele>712.2</ele>
        <time>2017-07-02T12:05:11Z</time>
      </trkpt>
      <trkpt lat="42.41608" lon="0.10191">
        <ele>712.1</ele>
        <time>2017-07-02T12:05:12Z</time>
      </trkpt>
      <trkpt lat="42.41611" lon="0.10189">
        <ele>711.8</ele>
        <time>2017-07-02T12:05:13Z</time>
      </trkpt>
      <trkpt lat="42.41614" lon="0.10188">
        <ele>711.5</ele>
        <time>2017-07-02T12:05:14Z</time>
      </trkpt>
      <trkpt lat="42.41618" lon="0.10187">
        <ele>711.2</ele>
        <time>2017-07-02T12:05:15Z</time>
      </trkpt>
      <trkpt lat="42.41623" lon="0.10185">
        <ele>710.8</ele>
        <time>2017-07-02T12:05:16Z</time>
      </trkpt>
      <trkpt lat="42.41627" lon="0.10183">
        <ele>710.4</ele>
        <time>2017-07-02T12:05:17Z</time>
      </trkpt>
      <trkpt lat="42.41631" lon="0.1018">
        <ele>710.1</ele>
        <time>2017-07-02T12:05:18Z</time>
      </trkpt>
      <trkpt lat="42.41635" lon="0.10177">
        <ele>709.8</ele>
        <time>2017-07-02T12:05:19Z</time>
      </trkpt>
      <trkpt lat="42.41639" lon="0.10176">
        <ele>709.6</ele>
        <time>2017-07-02T12:05:20Z</time>
      </trkpt>
      <trkpt lat="42.41643" lon="0.10176">
        <ele>709.5</ele>
        <time>2017-07-02T12:05:21Z</time>
      </trkpt>
      <trkpt lat="42.41646" lon="0.10176">
        <ele>709.5</ele>
        <time>2017-07-02T12:05:22Z</time>
      </trkpt>
      <trkpt lat="42.41649" lon="0.10177">
        <ele>709.5</ele>
        <time>2017-07-02T12:05:23Z</time>
      </trkpt>
      <trkpt lat="42.41653" lon="0.10177">
        <ele>709.5</ele>
        <time>2017-07-02T12:05:25Z</time>
      </trkpt>
      <trkpt lat="42.41656" lon="0.10175">
        <ele>709.5</ele>
        <time>2017-07-02T12:05:27Z</time>
      </trkpt>
      <trkpt lat="42.41659" lon="0.10173">
        <ele>709.6</ele>
        <time>2017-07-02T12:05:29Z</time>
      </trkpt>
      <trkpt lat="42.41662" lon="0.1017">
        <ele>709.7</ele>
        <time>2017-07-02T12:05:31Z</time>
      </trkpt>
      <trkpt lat="42.41666" lon="0.10167">
        <ele>709.7</ele>
        <time>2017-07-02T12:05:33Z</time>
      </trkpt>
      <trkpt lat="42.41668" lon="0.10163">
        <ele>709.8</ele>
        <time>2017-07-02T12:05:35Z</time>
      </trkpt>
      <trkpt lat="42.41671" lon="0.10159">
        <ele>710.1</ele>
        <time>2017-07-02T12:05:37Z</time>
      </trkpt>
      <trkpt lat="42.41673" lon="0.10155">
        <ele>710.5</ele>
        <time>2017-07-02T12:05:39Z</time>
      </trkpt>
      <trkpt lat="42.41676" lon="0.10153">
        <ele>710.9</ele>
        <time>2017-07-02T12:05:41Z</time>
      </trkpt>
      <trkpt lat="42.4168" lon="0.10153">
        <ele>711.1</ele>
        <time>2017-07-02T12:05:43Z</time>
      </trkpt>
      <trkpt lat="42.41684" lon="0.10154">
        <ele>711.3</ele>
        <time>2017-07-02T12:05:45Z</time>
      </trkpt>
      <trkpt lat="42.41688" lon="0.10156">
        <ele>711.4</ele>
        <time>2017-07-02T12:05:47Z</time>
      </trkpt>
      <trkpt lat="42.41692" lon="0.10156">
        <ele>711.6</ele>
        <time>2017-07-02T12:05:49Z</time>
      </trkpt>
      <trkpt lat="42.41696" lon="0.10154">
        <ele>711.8</ele>
        <time>2017-07-02T12:05:51Z</time>
      </trkpt>
      <trkpt lat="42.417" lon="0.10153">
        <ele>712.1</ele>
        <time>2017-07-02T12:05:53Z</time>
      </trkpt>
      <trkpt lat="42.41704" lon="0.10151">
        <ele>712.6</ele>
        <time>2017-07-02T12:05:55Z</time>
      </trkpt>
      <trkpt lat="42.41708" lon="0.10149">
        <ele>713.3</ele>
        <time>2017-07-02T12:05:57Z</time>
      </trkpt>
      <trkpt lat="42.41711" lon="0.10145">
        <ele>714</ele>
        <time>2017-07-02T12:06:00Z</time>
      </trkpt>
      <trkpt lat="42.41714" lon="0.10144">
        <ele>714.3</ele>
        <time>2017-07-02T12:06:02Z</time>
      </trkpt>
      <trkpt lat="42.41717" lon="0.10142">
        <ele>714.7</ele>
        <time>2017-07-02T12:06:04Z</time>
      </trkpt>
      <trkpt lat="42.4172" lon="0.10139">
        <ele>715.4</ele>
        <time>2017-07-02T12:06:06Z</time>
      </trkpt>
      <trkpt lat="42.41723" lon="0.10136">
        <ele>715.7</ele>
        <time>2017-07-02T12:06:08Z</time>
      </trkpt>
      <trkpt lat="42.41725" lon="0.10133">
        <ele>715.9</ele>
        <time>2017-07-02T12:06:10Z</time>
      </trkpt>
      <trkpt lat="42.41727" lon="0.10131">
        <ele>715.9</ele>
        <time>2017-07-02T12:06:12Z</time>
      </trkpt>
      <trkpt lat="42.41731" lon="0.10127">
        <ele>716</ele>
        <time>2017-07-02T12:06:14Z</time>
      </trkpt>
      <trkpt lat="42.41735" lon="0.10122">
        <ele>716.1</ele>
        <time>2017-07-02T12:06:16Z</time>
      </trkpt>
      <trkpt lat="42.41737" lon="0.1012">
        <ele>716.2</ele>
        <time>2017-07-02T12:06:17Z</time>
      </trkpt>
      <trkpt lat="42.41739" lon="0.10117">
        <ele>716.2</ele>
        <time>2017-07-02T12:06:18Z</time>
      </trkpt>
      <trkpt lat="42.41742" lon="0.10114">
        <ele>716.3</ele>
        <time>2017-07-02T12:06:19Z</time>
      </trkpt>
      <trkpt lat="42.41744" lon="0.10111">
        <ele>716.3</ele>
        <time>2017-07-02T12:06:20Z</time>
      </trkpt>
      <trkpt lat="42.41747" lon="0.10108">
        <ele>716.2</ele>
        <time>2017-07-02T12:06:21Z</time>
      </trkpt>
      <trkpt lat="42.4175" lon="0.10105">
        <ele>716.2</ele>
        <time>2017-07-02T12:06:22Z</time>
      </trkpt>
      <trkpt lat="42.41753" lon="0.10101">
        <ele>716.2</ele>
        <time>2017-07-02T12:06:23Z</time>
      </trkpt>
      <trkpt lat="42.41756" lon="0.10097">
        <ele>716.1</ele>
        <time>2017-07-02T12:06:24Z</time>
      </trkpt>
      <trkpt lat="42.41759" lon="0.10093">
        <ele>716.1</ele>
        <time>2017-07-02T12:06:25Z</time>
      </trkpt>
      <trkpt lat="42.41761" lon="0.10089">
        <ele>715.9</ele>
        <time>2017-07-02T12:06:26Z</time>
      </trkpt>
      <trkpt lat="42.41764" lon="0.10085">
        <ele>715.8</ele>
        <time>2017-07-02T12:06:27Z</time>
      </trkpt>
      <trkpt lat="42.41766" lon="0.10081">
        <ele>715.7</ele>
        <time>2017-07-02T12:06:28Z</time>
      </trkpt>
      <trkpt lat="42.41768" lon="0.10077">
        <ele>715.4</ele>
        <time>2017-07-02T12:06:29Z</time>
      </trkpt>
      <trkpt lat="42.41771" lon="0.10072">
        <ele>715</ele>
        <time>2017-07-02T12:06:30Z</time>
      </trkpt>
      <trkpt lat="42.41774" lon="0.10066">
        <ele>714.5</ele>
        <time>2017-07-02T12:06:31Z</time>
      </trkpt>
      <trkpt lat="42.41777" lon="0.1006">
        <ele>714.1</ele>
        <time>2017-07-02T12:06:32Z</time>
      </trkpt>
      <trkpt lat="42.4178" lon="0.10055">
        <ele>713.7</ele>
        <time>2017-07-02T12:06:33Z</time>
      </trkpt>
      <trkpt lat="42.41783" lon="0.10048">
        <ele>713.4</ele>
        <time>2017-07-02T12:06:34Z</time>
      </trkpt>
      <trkpt lat="42.41786" lon="0.10042">
        <ele>713.1</ele>
        <time>2017-07-02T12:06:35Z</time>
      </trkpt>
      <trkpt lat="42.41789" lon="0.10035">
        <ele>712.9</ele>
        <time>2017-07-02T12:06:36Z</time>
      </trkpt>
      <trkpt lat="42.41791" lon="0.10028">
        <ele>712.8</ele>
        <time>2017-07-02T12:06:37Z</time>
      </trkpt>
      <trkpt lat="42.41794" lon="0.10021">
        <ele>712.7</ele>
        <time>2017-07-02T12:06:38Z</time>
      </trkpt>
      <trkpt lat="42.41796" lon="0.10015">
        <ele>712.6</ele>
        <time>2017-07-02T12:06:39Z</time>
      </trkpt>
      <trkpt lat="42.41797" lon="0.10009">
        <ele>712.5</ele>
        <time>2017-07-02T12:06:40Z</time>
      </trkpt>
      <trkpt lat="42.418" lon="0.10003">
        <ele>712.4</ele>
        <time>2017-07-02T12:06:41Z</time>
      </trkpt>
      <trkpt lat="42.41802" lon="0.09997">
        <ele>712.3</ele>
        <time>2017-07-02T12:06:42Z</time>
      </trkpt>
      <trkpt lat="42.41804" lon="0.09991">
        <ele>712.2</ele>
        <time>2017-07-02T12:06:43Z</time>
      </trkpt>
      <trkpt lat="42.41806" lon="0.09985">
        <ele>712.1</ele>
        <time>2017-07-02T12:06:44Z</time>
      </trkpt>
      <trkpt lat="42.41808" lon="0.09979">
        <ele>712</ele>
        <time>2017-07-02T12:06:45Z</time>
      </trkpt>
      <trkpt lat="42.41811" lon="0.09974">
        <ele>711.9</ele>
        <time>2017-07-02T12:06:46Z</time>
      </trkpt>
      <trkpt lat="42.41813" lon="0.09968">
        <ele>711.8</ele>
        <time>2017-07-02T12:06:47Z</time>
      </trkpt>
      <trkpt lat="42.41815" lon="0.09963">
        <ele>711.6</ele>
        <time>2017-07-02T12:06:48Z</time>
      </trkpt>
      <trkpt lat="42.41817" lon="0.0996">
        <ele>711.4</ele>
        <time>2017-07-02T12:06:49Z</time>
      </trkpt>
      <trkpt lat="42.4182" lon="0.09953">
        <ele>711</ele>
        <time>2017-07-02T12:06:51Z</time>
      </trkpt>
      <trkpt lat="42.41821" lon="0.0995">
        <ele>710.7</ele>
        <time>2017-07-02T12:06:52Z</time>
      </trkpt>
      <trkpt lat="42.41823" lon="0.09946">
        <ele>710.4</ele>
        <time>2017-07-02T12:06:53Z</time>
      </trkpt>
      <trkpt lat="42.41824" lon="0.09941">
        <ele>709.9</ele>
        <time>2017-07-02T12:06:54Z</time>
      </trkpt>
      <trkpt lat="42.41824" lon="0.09937">
        <ele>709.6</ele>
        <time>2017-07-02T12:06:55Z</time>
      </trkpt>
      <trkpt lat="42.41826" lon="0.09931">
        <ele>709</ele>
        <time>2017-07-02T12:06:57Z</time>
      </trkpt>
      <trkpt lat="42.41829" lon="0.09926">
        <ele>708.6</ele>
        <time>2017-07-02T12:06:59Z</time>
      </trkpt>
      <trkpt lat="42.41832" lon="0.09921">
        <ele>708.2</ele>
        <time>2017-07-02T12:07:01Z</time>
      </trkpt>
      <trkpt lat="42.41834" lon="0.09917">
        <ele>707.9</ele>
        <time>2017-07-02T12:07:02Z</time>
      </trkpt>
      <trkpt lat="42.41837" lon="0.09913">
        <ele>707.5</ele>
        <time>2017-07-02T12:07:03Z</time>
      </trkpt>
      <trkpt lat="42.41839" lon="0.09908">
        <ele>707.2</ele>
        <time>2017-07-02T12:07:04Z</time>
      </trkpt>
      <trkpt lat="42.41841" lon="0.09903">
        <ele>706.9</ele>
        <time>2017-07-02T12:07:05Z</time>
      </trkpt>
      <trkpt lat="42.41843" lon="0.09898">
        <ele>706.6</ele>
        <time>2017-07-02T12:07:06Z</time>
      </trkpt>
      <trkpt lat="42.41844" lon="0.09893">
        <ele>706.4</ele>
        <time>2017-07-02T12:07:07Z</time>
      </trkpt>
      <trkpt lat="42.41846" lon="0.09888">
        <ele>706.1</ele>
        <time>2017-07-02T12:07:08Z</time>
      </trkpt>
      <trkpt lat="42.41847" lon="0.09883">
        <ele>705.8</ele>
        <time>2017-07-02T12:07:09Z</time>
      </trkpt>
      <trkpt lat="42.4185" lon="0.09877">
        <ele>705.5</ele>
        <time>2017-07-02T12:07:10Z</time>
      </trkpt>
      <trkpt lat="42.41852" lon="0.09871">
        <ele>705</ele>
        <time>2017-07-02T12:07:11Z</time>
      </trkpt>
      <trkpt lat="42.41855" lon="0.09865">
        <ele>704.5</ele>
        <time>2017-07-02T12:07:12Z</time>
      </trkpt>
      <trkpt lat="42.41857" lon="0.09859">
        <ele>704</ele>
        <time>2017-07-02T12:07:13Z</time>
      </trkpt>
      <trkpt lat="42.4186" lon="0.09853">
        <ele>703.5</ele>
        <time>2017-07-02T12:07:14Z</time>
      </trkpt>
      <trkpt lat="42.41862" lon="0.09847">
        <ele>703</ele>
        <time>2017-07-02T12:07:15Z</time>
      </trkpt>
      <trkpt lat="42.41863" lon="0.09842">
        <ele>702.5</ele>
        <time>2017-07-02T12:07:16Z</time>
      </trkpt>
      <trkpt lat="42.41866" lon="0.09835">
        <ele>702</ele>
        <time>2017-07-02T12:07:17Z</time>
      </trkpt>
      <trkpt lat="42.41868" lon="0.09829">
        <ele>701.4</ele>
        <time>2017-07-02T12:07:18Z</time>
      </trkpt>
      <trkpt lat="42.4187" lon="0.09822">
        <ele>700.8</ele>
        <time>2017-07-02T12:07:19Z</time>
      </trkpt>
      <trkpt lat="42.41872" lon="0.09817">
        <ele>700.4</ele>
        <time>2017-07-02T12:07:20Z</time>
      </trkpt>
      <trkpt lat="42.41874" lon="0.09812">
        <ele>699.9</ele>
        <time>2017-07-02T12:07:21Z</time>
      </trkpt>
      <trkpt lat="42.41875" lon="0.09807">
        <ele>699.5</ele>
        <time>2017-07-02T12:07:22Z</time>
      </trkpt>
      <trkpt lat="42.41877" lon="0.09802">
        <ele>699</ele>
        <time>2017-07-02T12:07:23Z</time>
      </trkpt>
      <trkpt lat="42.41877" lon="0.09797">
        <ele>698.5</ele>
        <time>2017-07-02T12:07:24Z</time>
      </trkpt>
      <trkpt lat="42.41879" lon="0.09793">
        <ele>698.1</ele>
        <time>2017-07-02T12:07:25Z</time>
      </trkpt>
      <trkpt lat="42.41881" lon="0.09789">
        <ele>697.6</ele>
        <time>2017-07-02T12:07:26Z</time>
      </trkpt>
      <trkpt lat="42.41882" lon="0.09785">
        <ele>697.2</ele>
        <time>2017-07-02T12:07:27Z</time>
      </trkpt>
      <trkpt lat="42.41884" lon="0.09782">
        <ele>696.8</ele>
        <time>2017-07-02T12:07:28Z</time>
      </trkpt>
      <trkpt lat="42.41885" lon="0.09776">
        <ele>696.4</ele>
        <time>2017-07-02T12:07:30Z</time>
      </trkpt>
      <trkpt lat="42.41886" lon="0.09773">
        <ele>696</ele>
        <time>2017-07-02T12:07:32Z</time>
      </trkpt>
      <trkpt lat="42.41887" lon="0.09769">
        <ele>695.6</ele>
        <time>2017-07-02T12:07:34Z</time>
      </trkpt>
      <trkpt lat="42.41889" lon="0.09764">
        <ele>695.1</ele>
        <time>2017-07-02T12:07:36Z</time>
      </trkpt>
      <trkpt lat="42.41891" lon="0.09758">
        <ele>694.4</ele>
        <time>2017-07-02T12:07:38Z</time>
      </trkpt>
      <trkpt lat="42.41893" lon="0.09753">
        <ele>693.9</ele>
        <time>2017-07-02T12:07:40Z</time>
      </trkpt>
      <trkpt lat="42.41895" lon="0.0975">
        <ele>693.4</ele>
        <time>2017-07-02T12:07:42Z</time>
      </trkpt>
      <trkpt lat="42.41896" lon="0.09746">
        <ele>692.9</ele>
        <time>2017-07-02T12:07:45Z</time>
      </trkpt>
      <trkpt lat="42.41896" lon="0.09741">
        <ele>692.3</ele>
        <time>2017-07-02T12:07:49Z</time>
      </trkpt>
      <trkpt lat="42.41897" lon="0.09736">
        <ele>691.8</ele>
        <time>2017-07-02T12:07:52Z</time>
      </trkpt>
      <trkpt lat="42.41899" lon="0.09731">
        <ele>691.2</ele>
        <time>2017-07-02T12:07:54Z</time>
      </trkpt>
      <trkpt lat="42.419" lon="0.09727">
        <ele>690.8</ele>
        <time>2017-07-02T12:07:55Z</time>
      </trkpt>
      <trkpt lat="42.41901" lon="0.09724">
        <ele>690.5</ele>
        <time>2017-07-02T12:07:56Z</time>
      </trkpt>
      <trkpt lat="42.41901" lon="0.09717">
        <ele>690.1</ele>
        <time>2017-07-02T12:07:58Z</time>
      </trkpt>
      <trkpt lat="42.41902" lon="0.09713">
        <ele>689.8</ele>
        <time>2017-07-02T12:07:59Z</time>
      </trkpt>
      <trkpt lat="42.41903" lon="0.09708">
        <ele>689.6</ele>
        <time>2017-07-02T12:08:00Z</time>
      </trkpt>
      <trkpt lat="42.41904" lon="0.09703">
        <ele>689.3</ele>
        <time>2017-07-02T12:08:01Z</time>
      </trkpt>
      <trkpt lat="42.41905" lon="0.09699">
        <ele>689</ele>
        <time>2017-07-02T12:08:02Z</time>
      </trkpt>
      <trkpt lat="42.41906" lon="0.09694">
        <ele>688.8</ele>
        <time>2017-07-02T12:08:03Z</time>
      </trkpt>
      <trkpt lat="42.41907" lon="0.09689">
        <ele>688.6</ele>
        <time>2017-07-02T12:08:04Z</time>
      </trkpt>
      <trkpt lat="42.41909" lon="0.09685">
        <ele>688.5</ele>
        <time>2017-07-02T12:08:05Z</time>
      </trkpt>
      <trkpt lat="42.41911" lon="0.09681">
        <ele>688.4</ele>
        <time>2017-07-02T12:08:06Z</time>
      </trkpt>
      <trkpt lat="42.41913" lon="0.09676">
        <ele>688.3</ele>
        <time>2017-07-02T12:08:07Z</time>
      </trkpt>
      <trkpt lat="42.41914" lon="0.09671">
        <ele>688.1</ele>
        <time>2017-07-02T12:08:08Z</time>
      </trkpt>
      <trkpt lat="42.41915" lon="0.09665">
        <ele>688</ele>
        <time>2017-07-02T12:08:09Z</time>
      </trkpt>
      <trkpt lat="42.41917" lon="0.0966">
        <ele>687.8</ele>
        <time>2017-07-02T12:08:10Z</time>
      </trkpt>
      <trkpt lat="42.41918" lon="0.09655">
        <ele>687.6</ele>
        <time>2017-07-02T12:08:11Z</time>
      </trkpt>
      <trkpt lat="42.41919" lon="0.0965">
        <ele>687.4</ele>
        <time>2017-07-02T12:08:12Z</time>
      </trkpt>
      <trkpt lat="42.41919" lon="0.09645">
        <ele>687.2</ele>
        <time>2017-07-02T12:08:13Z</time>
      </trkpt>
      <trkpt lat="42.4192" lon="0.0964">
        <ele>686.9</ele>
        <time>2017-07-02T12:08:14Z</time>
      </trkpt>
      <trkpt lat="42.41921" lon="0.09634">
        <ele>686.7</ele>
        <time>2017-07-02T12:08:15Z</time>
      </trkpt>
      <trkpt lat="42.41922" lon="0.09628">
        <ele>686.5</ele>
        <time>2017-07-02T12:08:16Z</time>
      </trkpt>
      <trkpt lat="42.41923" lon="0.09623">
        <ele>686.3</ele>
        <time>2017-07-02T12:08:17Z</time>
      </trkpt>
      <trkpt lat="42.41923" lon="0.09619">
        <ele>686.2</ele>
        <time>2017-07-02T12:08:18Z</time>
      </trkpt>
      <trkpt lat="42.41925" lon="0.09614">
        <ele>686.1</ele>
        <time>2017-07-02T12:08:19Z</time>
      </trkpt>
      <trkpt lat="42.41927" lon="0.09608">
        <ele>685.9</ele>
        <time>2017-07-02T12:08:20Z</time>
      </trkpt>
      <trkpt lat="42.4193" lon="0.09603">
        <ele>685.7</ele>
        <time>2017-07-02T12:08:21Z</time>
      </trkpt>
      <trkpt lat="42.41933" lon="0.09597">
        <ele>685.4</ele>
        <time>2017-07-02T12:08:22Z</time>
      </trkpt>
      <trkpt lat="42.41935" lon="0.09591">
        <ele>685</ele>
        <time>2017-07-02T12:08:23Z</time>
      </trkpt>
      <trkpt lat="42.41937" lon="0.09585">
        <ele>684.7</ele>
        <time>2017-07-02T12:08:24Z</time>
      </trkpt>
      <trkpt lat="42.41939" lon="0.0958">
        <ele>684.5</ele>
        <time>2017-07-02T12:08:25Z</time>
      </trkpt>
      <trkpt lat="42.4194" lon="0.09574">
        <ele>684.3</ele>
        <time>2017-07-02T12:08:26Z</time>
      </trkpt>
      <trkpt lat="42.41942" lon="0.09569">
        <ele>684.1</ele>
        <time>2017-07-02T12:08:27Z</time>
      </trkpt>
      <trkpt lat="42.41943" lon="0.09564">
        <ele>683.9</ele>
        <time>2017-07-02T12:08:28Z</time>
      </trkpt>
      <trkpt lat="42.41944" lon="0.09559">
        <ele>683.6</ele>
        <time>2017-07-02T12:08:29Z</time>
      </trkpt>
      <trkpt lat="42.41947" lon="0.09555">
        <ele>683.3</ele>
        <time>2017-07-02T12:08:30Z</time>
      </trkpt>
      <trkpt lat="42.41949" lon="0.09551">
        <ele>682.9</ele>
        <time>2017-07-02T12:08:31Z</time>
      </trkpt>
      <trkpt lat="42.41952" lon="0.09546">
        <ele>682.5</ele>
        <time>2017-07-02T12:08:32Z</time>
      </trkpt>
      <trkpt lat="42.41954" lon="0.0954">
        <ele>682</ele>
        <time>2017-07-02T12:08:33Z</time>
      </trkpt>
      <trkpt lat="42.41955" lon="0.09534">
        <ele>681.4</ele>
        <time>2017-07-02T12:08:34Z</time>
      </trkpt>
      <trkpt lat="42.41956" lon="0.09527">
        <ele>680.8</ele>
        <time>2017-07-02T12:08:35Z</time>
      </trkpt>
      <trkpt lat="42.41957" lon="0.09521">
        <ele>680.2</ele>
        <time>2017-07-02T12:08:36Z</time>
      </trkpt>
      <trkpt lat="42.41958" lon="0.09515">
        <ele>679.6</ele>
        <time>2017-07-02T12:08:37Z</time>
      </trkpt>
      <trkpt lat="42.41959" lon="0.09509">
        <ele>679</ele>
        <time>2017-07-02T12:08:38Z</time>
      </trkpt>
      <trkpt lat="42.41961" lon="0.09505">
        <ele>678.4</ele>
        <time>2017-07-02T12:08:39Z</time>
      </trkpt>
      <trkpt lat="42.41961" lon="0.095">
        <ele>677.7</ele>
        <time>2017-07-02T12:08:41Z</time>
      </trkpt>
      <trkpt lat="42.41964" lon="0.09501">
        <ele>676.9</ele>
        <time>2017-07-02T12:08:45Z</time>
      </trkpt>
      <trkpt lat="42.41966" lon="0.09498">
        <ele>676</ele>
        <time>2017-07-02T12:08:47Z</time>
      </trkpt>
      <trkpt lat="42.41967" lon="0.09492">
        <ele>675.1</ele>
        <time>2017-07-02T12:08:49Z</time>
      </trkpt>
      <trkpt lat="42.4197" lon="0.09489">
        <ele>674.3</ele>
        <time>2017-07-02T12:08:51Z</time>
      </trkpt>
      <trkpt lat="42.41975" lon="0.09488">
        <ele>673.8</ele>
        <time>2017-07-02T12:08:53Z</time>
      </trkpt>
      <trkpt lat="42.41978" lon="0.09487">
        <ele>673.6</ele>
        <time>2017-07-02T12:08:54Z</time>
      </trkpt>
      <trkpt lat="42.4198" lon="0.09484">
        <ele>673.4</ele>
        <time>2017-07-02T12:08:55Z</time>
      </trkpt>
      <trkpt lat="42.41983" lon="0.09481">
        <ele>673.2</ele>
        <time>2017-07-02T12:08:56Z</time>
      </trkpt>
      <trkpt lat="42.41985" lon="0.09479">
        <ele>673</ele>
        <time>2017-07-02T12:08:57Z</time>
      </trkpt>
      <trkpt lat="42.41986" lon="0.09475">
        <ele>672.9</ele>
        <time>2017-07-02T12:08:58Z</time>
      </trkpt>
      <trkpt lat="42.41988" lon="0.09472">
        <ele>672.6</ele>
        <time>2017-07-02T12:08:59Z</time>
      </trkpt>
      <trkpt lat="42.4199" lon="0.09467">
        <ele>672.2</ele>
        <time>2017-07-02T12:09:01Z</time>
      </trkpt>
      <trkpt lat="42.41991" lon="0.09462">
        <ele>671.7</ele>
        <time>2017-07-02T12:09:03Z</time>
      </trkpt>
      <trkpt lat="42.41992" lon="0.09456">
        <ele>671.2</ele>
        <time>2017-07-02T12:09:05Z</time>
      </trkpt>
      <trkpt lat="42.41992" lon="0.0945">
        <ele>670.5</ele>
        <time>2017-07-02T12:09:07Z</time>
      </trkpt>
      <trkpt lat="42.41992" lon="0.09445">
        <ele>669.8</ele>
        <time>2017-07-02T12:09:09Z</time>
      </trkpt>
      <trkpt lat="42.41992" lon="0.09439">
        <ele>669</ele>
        <time>2017-07-02T12:09:11Z</time>
      </trkpt>
      <trkpt lat="42.41991" lon="0.09433">
        <ele>668.2</ele>
        <time>2017-07-02T12:09:14Z</time>
      </trkpt>
      <trkpt lat="42.41991" lon="0.09429">
        <ele>667.6</ele>
        <time>2017-07-02T12:09:16Z</time>
      </trkpt>
      <trkpt lat="42.4199" lon="0.09425">
        <ele>666.9</ele>
        <time>2017-07-02T12:09:18Z</time>
      </trkpt>
      <trkpt lat="42.41989" lon="0.09418">
        <ele>666</ele>
        <time>2017-07-02T12:09:20Z</time>
      </trkpt>
      <trkpt lat="42.41988" lon="0.09412">
        <ele>665.2</ele>
        <time>2017-07-02T12:09:22Z</time>
      </trkpt>
      <trkpt lat="42.41987" lon="0.09408">
        <ele>664.6</ele>
        <time>2017-07-02T12:09:24Z</time>
      </trkpt>
      <trkpt lat="42.41986" lon="0.09403">
        <ele>663.8</ele>
        <time>2017-07-02T12:09:26Z</time>
      </trkpt>
      <trkpt lat="42.41985" lon="0.09399">
        <ele>663.1</ele>
        <time>2017-07-02T12:09:28Z</time>
      </trkpt>
      <trkpt lat="42.41984" lon="0.09394">
        <ele>662.2</ele>
        <time>2017-07-02T12:09:30Z</time>
      </trkpt>
      <trkpt lat="42.41984" lon="0.09389">
        <ele>661.4</ele>
        <time>2017-07-02T12:09:32Z</time>
      </trkpt>
      <trkpt lat="42.41982" lon="0.09385">
        <ele>660.7</ele>
        <time>2017-07-02T12:09:39Z</time>
      </trkpt>
      <trkpt lat="42.41979" lon="0.09384">
        <ele>660.1</ele>
        <time>2017-07-02T12:09:45Z</time>
      </trkpt>
      <trkpt lat="42.41977" lon="0.09381">
        <ele>659.4</ele>
        <time>2017-07-02T12:09:50Z</time>
      </trkpt>
      <trkpt lat="42.41976" lon="0.09378">
        <ele>658.7</ele>
        <time>2017-07-02T12:09:55Z</time>
      </trkpt>
      <trkpt lat="42.41978" lon="0.09374">
        <ele>657.8</ele>
        <time>2017-07-02T12:10:01Z</time>
      </trkpt>
      <trkpt lat="42.41981" lon="0.09375">
        <ele>656.8</ele>
        <time>2017-07-02T12:10:09Z</time>
      </trkpt>
      <trkpt lat="42.41984" lon="0.09373">
        <ele>655.7</ele>
        <time>2017-07-02T12:10:14Z</time>
      </trkpt>
      <trkpt lat="42.41986" lon="0.09375">
        <ele>654.7</ele>
        <time>2017-07-02T12:10:16Z</time>
      </trkpt>
      <trkpt lat="42.4199" lon="0.09378">
        <ele>652.9</ele>
        <time>2017-07-02T12:10:18Z</time>
      </trkpt>
      <trkpt lat="42.41992" lon="0.0938">
        <ele>652.4</ele>
        <time>2017-07-02T12:10:19Z</time>
      </trkpt>
      <trkpt lat="42.41995" lon="0.09382">
        <ele>651.9</ele>
        <time>2017-07-02T12:10:20Z</time>
      </trkpt>
      <trkpt lat="42.41999" lon="0.09387">
        <ele>650.7</ele>
        <time>2017-07-02T12:10:22Z</time>
      </trkpt>
      <trkpt lat="42.42001" lon="0.09389">
        <ele>650.4</ele>
        <time>2017-07-02T12:10:23Z</time>
      </trkpt>
      <trkpt lat="42.42004" lon="0.09391">
        <ele>650.2</ele>
        <time>2017-07-02T12:10:24Z</time>
      </trkpt>
      <trkpt lat="42.42007" lon="0.09393">
        <ele>649.8</ele>
        <time>2017-07-02T12:10:25Z</time>
      </trkpt>
      <trkpt lat="42.42011" lon="0.09395">
        <ele>649.2</ele>
        <time>2017-07-02T12:10:26Z</time>
      </trkpt>
      <trkpt lat="42.42015" lon="0.09398">
        <ele>648.9</ele>
        <time>2017-07-02T12:10:27Z</time>
      </trkpt>
      <trkpt lat="42.42019" lon="0.09401">
        <ele>648.7</ele>
        <time>2017-07-02T12:10:28Z</time>
      </trkpt>
      <trkpt lat="42.42022" lon="0.09405">
        <ele>648.6</ele>
        <time>2017-07-02T12:10:29Z</time>
      </trkpt>
      <trkpt lat="42.42025" lon="0.09409">
        <ele>648.5</ele>
        <time>2017-07-02T12:10:30Z</time>
      </trkpt>
      <trkpt lat="42.42028" lon="0.09414">
        <ele>648.4</ele>
        <time>2017-07-02T12:10:31Z</time>
      </trkpt>
      <trkpt lat="42.42031" lon="0.09418">
        <ele>648.3</ele>
        <time>2017-07-02T12:10:32Z</time>
      </trkpt>
      <trkpt lat="42.42034" lon="0.09422">
        <ele>648.2</ele>
        <time>2017-07-02T12:10:33Z</time>
      </trkpt>
      <trkpt lat="42.42037" lon="0.09425">
        <ele>648.2</ele>
        <time>2017-07-02T12:10:34Z</time>
      </trkpt>
      <trkpt lat="42.4204" lon="0.09429">
        <ele>648</ele>
        <time>2017-07-02T12:10:36Z</time>
      </trkpt>
      <trkpt lat="42.42044" lon="0.0943">
        <ele>648</ele>
        <time>2017-07-02T12:10:38Z</time>
      </trkpt>
      <trkpt lat="42.4205" lon="0.09425">
        <ele>647.8</ele>
        <time>2017-07-02T12:10:40Z</time>
      </trkpt>
      <trkpt lat="42.42052" lon="0.09421">
        <ele>647.7</ele>
        <time>2017-07-02T12:10:41Z</time>
      </trkpt>
      <trkpt lat="42.42054" lon="0.09416">
        <ele>647.6</ele>
        <time>2017-07-02T12:10:42Z</time>
      </trkpt>
      <trkpt lat="42.42057" lon="0.09412">
        <ele>647.5</ele>
        <time>2017-07-02T12:10:43Z</time>
      </trkpt>
      <trkpt lat="42.4206" lon="0.09407">
        <ele>647.4</ele>
        <time>2017-07-02T12:10:44Z</time>
      </trkpt>
      <trkpt lat="42.42063" lon="0.09403">
        <ele>647.4</ele>
        <time>2017-07-02T12:10:45Z</time>
      </trkpt>
      <trkpt lat="42.42068" lon="0.094">
        <ele>647.5</ele>
        <time>2017-07-02T12:10:46Z</time>
      </trkpt>
      <trkpt lat="42.42072" lon="0.09397">
        <ele>647.5</ele>
        <time>2017-07-02T12:10:47Z</time>
      </trkpt>
      <trkpt lat="42.42077" lon="0.09393">
        <ele>647.5</ele>
        <time>2017-07-02T12:10:48Z</time>
      </trkpt>
      <trkpt lat="42.42082" lon="0.09389">
        <ele>647.6</ele>
        <time>2017-07-02T12:10:49Z</time>
      </trkpt>
      <trkpt lat="42.42086" lon="0.09385">
        <ele>647.6</ele>
        <time>2017-07-02T12:10:50Z</time>
      </trkpt>
      <trkpt lat="42.42091" lon="0.0938">
        <ele>647.7</ele>
        <time>2017-07-02T12:10:51Z</time>
      </trkpt>
      <trkpt lat="42.42095" lon="0.09374">
        <ele>647.8</ele>
        <time>2017-07-02T12:10:52Z</time>
      </trkpt>
      <trkpt lat="42.42098" lon="0.09369">
        <ele>647.8</ele>
        <time>2017-07-02T12:10:53Z</time>
      </trkpt>
      <trkpt lat="42.42101" lon="0.09363">
        <ele>647.9</ele>
        <time>2017-07-02T12:10:54Z</time>
      </trkpt>
      <trkpt lat="42.42104" lon="0.09354">
        <ele>647.7</ele>
        <time>2017-07-02T12:10:55Z</time>
      </trkpt>
      <trkpt lat="42.42105" lon="0.09347">
        <ele>647.5</ele>
        <time>2017-07-02T12:10:56Z</time>
      </trkpt>
      <trkpt lat="42.42106" lon="0.09341">
        <ele>647.4</ele>
        <time>2017-07-02T12:10:57Z</time>
      </trkpt>
      <trkpt lat="42.4211" lon="0.09335">
        <ele>647.2</ele>
        <time>2017-07-02T12:10:58Z</time>
      </trkpt>
      <trkpt lat="42.42113" lon="0.09329">
        <ele>647</ele>
        <time>2017-07-02T12:10:59Z</time>
      </trkpt>
      <trkpt lat="42.42116" lon="0.09324">
        <ele>646.8</ele>
        <time>2017-07-02T12:11:00Z</time>
      </trkpt>
      <trkpt lat="42.4212" lon="0.09319">
        <ele>646.4</ele>
        <time>2017-07-02T12:11:01Z</time>
      </trkpt>
      <trkpt lat="42.42124" lon="0.09314">
        <ele>645.7</ele>
        <time>2017-07-02T12:11:02Z</time>
      </trkpt>
      <trkpt lat="42.42128" lon="0.0931">
        <ele>645.2</ele>
        <time>2017-07-02T12:11:03Z</time>
      </trkpt>
      <trkpt lat="42.4213" lon="0.09305">
        <ele>644.7</ele>
        <time>2017-07-02T12:11:04Z</time>
      </trkpt>
      <trkpt lat="42.42133" lon="0.09301">
        <ele>644.2</ele>
        <time>2017-07-02T12:11:05Z</time>
      </trkpt>
      <trkpt lat="42.42138" lon="0.09297">
        <ele>643.5</ele>
        <time>2017-07-02T12:11:06Z</time>
      </trkpt>
      <trkpt lat="42.42144" lon="0.09294">
        <ele>642.9</ele>
        <time>2017-07-02T12:11:07Z</time>
      </trkpt>
      <trkpt lat="42.4215" lon="0.09288">
        <ele>642.4</ele>
        <time>2017-07-02T12:11:08Z</time>
      </trkpt>
      <trkpt lat="42.42156" lon="0.09283">
        <ele>641.7</ele>
        <time>2017-07-02T12:11:09Z</time>
      </trkpt>
      <trkpt lat="42.42164" lon="0.09279">
        <ele>641.1</ele>
        <time>2017-07-02T12:11:10Z</time>
      </trkpt>
      <trkpt lat="42.42173" lon="0.09276">
        <ele>640.6</ele>
        <time>2017-07-02T12:11:11Z</time>
      </trkpt>
      <trkpt lat="42.4218" lon="0.0927">
        <ele>640.3</ele>
        <time>2017-07-02T12:11:12Z</time>
      </trkpt>
      <trkpt lat="42.42187" lon="0.09267">
        <ele>640</ele>
        <time>2017-07-02T12:11:13Z</time>
      </trkpt>
      <trkpt lat="42.42194" lon="0.09262">
        <ele>639.8</ele>
        <time>2017-07-02T12:11:14Z</time>
      </trkpt>
      <trkpt lat="42.422" lon="0.09257">
        <ele>639.7</ele>
        <time>2017-07-02T12:11:15Z</time>
      </trkpt>
      <trkpt lat="42.42207" lon="0.09254">
        <ele>639.6</ele>
        <time>2017-07-02T12:11:16Z</time>
      </trkpt>
      <trkpt lat="42.42214" lon="0.0925">
        <ele>639.5</ele>
        <time>2017-07-02T12:11:17Z</time>
      </trkpt>
      <trkpt lat="42.42221" lon="0.09246">
        <ele>639.3</ele>
        <time>2017-07-02T12:11:18Z</time>
      </trkpt>
      <trkpt lat="42.42228" lon="0.09241">
        <ele>639.1</ele>
        <time>2017-07-02T12:11:19Z</time>
      </trkpt>
      <trkpt lat="42.42233" lon="0.09236">
        <ele>638.9</ele>
        <time>2017-07-02T12:11:20Z</time>
      </trkpt>
      <trkpt lat="42.4224" lon="0.09232">
        <ele>638.7</ele>
        <time>2017-07-02T12:11:21Z</time>
      </trkpt>
      <trkpt lat="42.42246" lon="0.09228">
        <ele>638.6</ele>
        <time>2017-07-02T12:11:22Z</time>
      </trkpt>
      <trkpt lat="42.42252" lon="0.09223">
        <ele>638.4</ele>
        <time>2017-07-02T12:11:23Z</time>
      </trkpt>
      <trkpt lat="42.42257" lon="0.09218">
        <ele>638.3</ele>
        <time>2017-07-02T12:11:24Z</time>
      </trkpt>
      <trkpt lat="42.42262" lon="0.09214">
        <ele>638.2</ele>
        <time>2017-07-02T12:11:25Z</time>
      </trkpt>
      <trkpt lat="42.42268" lon="0.0921">
        <ele>638.1</ele>
        <time>2017-07-02T12:11:26Z</time>
      </trkpt>
      <trkpt lat="42.42274" lon="0.09208">
        <ele>638</ele>
        <time>2017-07-02T12:11:27Z</time>
      </trkpt>
      <trkpt lat="42.42279" lon="0.09205">
        <ele>637.9</ele>
        <time>2017-07-02T12:11:28Z</time>
      </trkpt>
      <trkpt lat="42.42285" lon="0.09202">
        <ele>637.8</ele>
        <time>2017-07-02T12:11:29Z</time>
      </trkpt>
      <trkpt lat="42.42291" lon="0.09199">
        <ele>637.8</ele>
        <time>2017-07-02T12:11:30Z</time>
      </trkpt>
      <trkpt lat="42.42297" lon="0.09196">
        <ele>637.8</ele>
        <time>2017-07-02T12:11:31Z</time>
      </trkpt>
      <trkpt lat="42.42303" lon="0.09194">
        <ele>637.8</ele>
        <time>2017-07-02T12:11:32Z</time>
      </trkpt>
      <trkpt lat="42.42308" lon="0.09192">
        <ele>637.8</ele>
        <time>2017-07-02T12:11:33Z</time>
      </trkpt>
      <trkpt lat="42.42313" lon="0.0919">
        <ele>637.8</ele>
        <time>2017-07-02T12:11:34Z</time>
      </trkpt>
      <trkpt lat="42.42317" lon="0.09189">
        <ele>637.8</ele>
        <time>2017-07-02T12:11:35Z</time>
      </trkpt>
      <trkpt lat="42.42321" lon="0.09189">
        <ele>637.8</ele>
        <time>2017-07-02T12:11:36Z</time>
      </trkpt>
      <trkpt lat="42.42325" lon="0.09189">
        <ele>637.8</ele>
        <time>2017-07-02T12:11:38Z</time>
      </trkpt>
      <trkpt lat="42.42329" lon="0.0919">
        <ele>637.7</ele>
        <time>2017-07-02T12:11:40Z</time>
      </trkpt>
      <trkpt lat="42.42332" lon="0.09191">
        <ele>637.7</ele>
        <time>2017-07-02T12:11:42Z</time>
      </trkpt>
      <trkpt lat="42.42334" lon="0.09192">
        <ele>637.6</ele>
        <time>2017-07-02T12:11:44Z</time>
      </trkpt>
      <trkpt lat="42.42337" lon="0.09194">
        <ele>637.6</ele>
        <time>2017-07-02T12:11:46Z</time>
      </trkpt>
      <trkpt lat="42.4234" lon="0.09195">
        <ele>637.5</ele>
        <time>2017-07-02T12:11:48Z</time>
      </trkpt>
      <trkpt lat="42.42343" lon="0.09195">
        <ele>637.4</ele>
        <time>2017-07-02T12:11:50Z</time>
      </trkpt>
      <trkpt lat="42.42346" lon="0.09192">
        <ele>637.3</ele>
        <time>2017-07-02T12:11:52Z</time>
      </trkpt>
      <trkpt lat="42.42349" lon="0.09188">
        <ele>637.2</ele>
        <time>2017-07-02T12:11:54Z</time>
      </trkpt>
      <trkpt lat="42.42351" lon="0.09185">
        <ele>637</ele>
        <time>2017-07-02T12:11:55Z</time>
      </trkpt>
      <trkpt lat="42.42354" lon="0.09182">
        <ele>636.8</ele>
        <time>2017-07-02T12:11:56Z</time>
      </trkpt>
      <trkpt lat="42.42358" lon="0.09179">
        <ele>636.6</ele>
        <time>2017-07-02T12:11:57Z</time>
      </trkpt>
      <trkpt lat="42.42362" lon="0.09177">
        <ele>636.4</ele>
        <time>2017-07-02T12:11:58Z</time>
      </trkpt>
      <trkpt lat="42.42367" lon="0.09175">
        <ele>636.2</ele>
        <time>2017-07-02T12:11:59Z</time>
      </trkpt>
      <trkpt lat="42.42372" lon="0.09173">
        <ele>636</ele>
        <time>2017-07-02T12:12:00Z</time>
      </trkpt>
      <trkpt lat="42.42378" lon="0.09171">
        <ele>635.8</ele>
        <time>2017-07-02T12:12:01Z</time>
      </trkpt>
      <trkpt lat="42.42383" lon="0.09169">
        <ele>635.5</ele>
        <time>2017-07-02T12:12:02Z</time>
      </trkpt>
      <trkpt lat="42.42389" lon="0.09166">
        <ele>635.4</ele>
        <time>2017-07-02T12:12:03Z</time>
      </trkpt>
      <trkpt lat="42.42394" lon="0.09164">
        <ele>635.2</ele>
        <time>2017-07-02T12:12:04Z</time>
      </trkpt>
      <trkpt lat="42.424" lon="0.09161">
        <ele>635</ele>
        <time>2017-07-02T12:12:05Z</time>
      </trkpt>
      <trkpt lat="42.42405" lon="0.09158">
        <ele>634.8</ele>
        <time>2017-07-02T12:12:06Z</time>
      </trkpt>
      <trkpt lat="42.42411" lon="0.09155">
        <ele>634.6</ele>
        <time>2017-07-02T12:12:07Z</time>
      </trkpt>
      <trkpt lat="42.42416" lon="0.09152">
        <ele>634.6</ele>
        <time>2017-07-02T12:12:08Z</time>
      </trkpt>
      <trkpt lat="42.42421" lon="0.09149">
        <ele>634.5</ele>
        <time>2017-07-02T12:12:09Z</time>
      </trkpt>
      <trkpt lat="42.42427" lon="0.09145">
        <ele>634.5</ele>
        <time>2017-07-02T12:12:10Z</time>
      </trkpt>
      <trkpt lat="42.42432" lon="0.09142">
        <ele>634.4</ele>
        <time>2017-07-02T12:12:11Z</time>
      </trkpt>
      <trkpt lat="42.42438" lon="0.09138">
        <ele>634.4</ele>
        <time>2017-07-02T12:12:12Z</time>
      </trkpt>
      <trkpt lat="42.42443" lon="0.09134">
        <ele>634.4</ele>
        <time>2017-07-02T12:12:13Z</time>
      </trkpt>
      <trkpt lat="42.42448" lon="0.09131">
        <ele>634.4</ele>
        <time>2017-07-02T12:12:14Z</time>
      </trkpt>
      <trkpt lat="42.42453" lon="0.09127">
        <ele>634.4</ele>
        <time>2017-07-02T12:12:15Z</time>
      </trkpt>
      <trkpt lat="42.42458" lon="0.09125">
        <ele>634.3</ele>
        <time>2017-07-02T12:12:16Z</time>
      </trkpt>
      <trkpt lat="42.42464" lon="0.09122">
        <ele>634.3</ele>
        <time>2017-07-02T12:12:17Z</time>
      </trkpt>
      <trkpt lat="42.42468" lon="0.09118">
        <ele>634.4</ele>
        <time>2017-07-02T12:12:18Z</time>
      </trkpt>
      <trkpt lat="42.42473" lon="0.09115">
        <ele>634.4</ele>
        <time>2017-07-02T12:12:19Z</time>
      </trkpt>
      <trkpt lat="42.42478" lon="0.09112">
        <ele>634.4</ele>
        <time>2017-07-02T12:12:20Z</time>
      </trkpt>
      <trkpt lat="42.42483" lon="0.0911">
        <ele>634.4</ele>
        <time>2017-07-02T12:12:21Z</time>
      </trkpt>
      <trkpt lat="42.42487" lon="0.09107">
        <ele>634.4</ele>
        <time>2017-07-02T12:12:22Z</time>
      </trkpt>
      <trkpt lat="42.42491" lon="0.09105">
        <ele>634.4</ele>
        <time>2017-07-02T12:12:23Z</time>
      </trkpt>
      <trkpt lat="42.42495" lon="0.09103">
        <ele>634.3</ele>
        <time>2017-07-02T12:12:24Z</time>
      </trkpt>
      <trkpt lat="42.42499" lon="0.09102">
        <ele>634.3</ele>
        <time>2017-07-02T12:12:25Z</time>
      </trkpt>
      <trkpt lat="42.42503" lon="0.091">
        <ele>634.3</ele>
        <time>2017-07-02T12:12:27Z</time>
      </trkpt>
      <trkpt lat="42.42509" lon="0.09099">
        <ele>634.2</ele>
        <time>2017-07-02T12:12:29Z</time>
      </trkpt>
      <trkpt lat="42.42513" lon="0.09098">
        <ele>634.1</ele>
        <time>2017-07-02T12:12:30Z</time>
      </trkpt>
      <trkpt lat="42.42516" lon="0.09097">
        <ele>634</ele>
        <time>2017-07-02T12:12:31Z</time>
      </trkpt>
      <trkpt lat="42.4252" lon="0.09096">
        <ele>634</ele>
        <time>2017-07-02T12:12:32Z</time>
      </trkpt>
      <trkpt lat="42.42524" lon="0.09094">
        <ele>633.9</ele>
        <time>2017-07-02T12:12:33Z</time>
      </trkpt>
      <trkpt lat="42.42528" lon="0.09092">
        <ele>633.8</ele>
        <time>2017-07-02T12:12:34Z</time>
      </trkpt>
      <trkpt lat="42.42531" lon="0.0909">
        <ele>633.8</ele>
        <time>2017-07-02T12:12:35Z</time>
      </trkpt>
      <trkpt lat="42.42534" lon="0.09088">
        <ele>633.7</ele>
        <time>2017-07-02T12:12:36Z</time>
      </trkpt>
      <trkpt lat="42.42537" lon="0.09086">
        <ele>633.7</ele>
        <time>2017-07-02T12:12:37Z</time>
      </trkpt>
      <trkpt lat="42.4254" lon="0.09084">
        <ele>633.7</ele>
        <time>2017-07-02T12:12:38Z</time>
      </trkpt>
      <trkpt lat="42.42543" lon="0.09081">
        <ele>633.6</ele>
        <time>2017-07-02T12:12:39Z</time>
      </trkpt>
      <trkpt lat="42.42547" lon="0.09079">
        <ele>633.6</ele>
        <time>2017-07-02T12:12:40Z</time>
      </trkpt>
      <trkpt lat="42.4255" lon="0.09076">
        <ele>633.5</ele>
        <time>2017-07-02T12:12:41Z</time>
      </trkpt>
      <trkpt lat="42.42554" lon="0.09074">
        <ele>633.4</ele>
        <time>2017-07-02T12:12:42Z</time>
      </trkpt>
      <trkpt lat="42.42559" lon="0.09073">
        <ele>633.2</ele>
        <time>2017-07-02T12:12:43Z</time>
      </trkpt>
      <trkpt lat="42.42563" lon="0.0907">
        <ele>633.1</ele>
        <time>2017-07-02T12:12:44Z</time>
      </trkpt>
      <trkpt lat="42.42568" lon="0.09068">
        <ele>632.8</ele>
        <time>2017-07-02T12:12:45Z</time>
      </trkpt>
      <trkpt lat="42.42573" lon="0.09065">
        <ele>632.5</ele>
        <time>2017-07-02T12:12:46Z</time>
      </trkpt>
      <trkpt lat="42.42577" lon="0.09064">
        <ele>632.3</ele>
        <time>2017-07-02T12:12:47Z</time>
      </trkpt>
      <trkpt lat="42.42582" lon="0.0906">
        <ele>631.8</ele>
        <time>2017-07-02T12:12:48Z</time>
      </trkpt>
      <trkpt lat="42.42588" lon="0.09051">
        <ele>631.4</ele>
        <time>2017-07-02T12:12:50Z</time>
      </trkpt>
      <trkpt lat="42.42596" lon="0.09046">
        <ele>631.1</ele>
        <time>2017-07-02T12:12:51Z</time>
      </trkpt>
      <trkpt lat="42.42599" lon="0.09045">
        <ele>630.9</ele>
        <time>2017-07-02T12:12:52Z</time>
      </trkpt>
      <trkpt lat="42.42605" lon="0.09041">
        <ele>630.7</ele>
        <time>2017-07-02T12:12:53Z</time>
      </trkpt>
      <trkpt lat="42.42612" lon="0.09038">
        <ele>630.3</ele>
        <time>2017-07-02T12:12:54Z</time>
      </trkpt>
      <trkpt lat="42.42616" lon="0.09035">
        <ele>630.1</ele>
        <time>2017-07-02T12:12:55Z</time>
      </trkpt>
      <trkpt lat="42.42623" lon="0.09035">
        <ele>629.8</ele>
        <time>2017-07-02T12:12:56Z</time>
      </trkpt>
      <trkpt lat="42.42628" lon="0.09032">
        <ele>629.7</ele>
        <time>2017-07-02T12:12:57Z</time>
      </trkpt>
      <trkpt lat="42.42632" lon="0.09025">
        <ele>629.6</ele>
        <time>2017-07-02T12:12:58Z</time>
      </trkpt>
      <trkpt lat="42.42636" lon="0.09021">
        <ele>629.5</ele>
        <time>2017-07-02T12:12:59Z</time>
      </trkpt>
      <trkpt lat="42.42641" lon="0.09017">
        <ele>629.4</ele>
        <time>2017-07-02T12:13:00Z</time>
      </trkpt>
      <trkpt lat="42.42645" lon="0.09016">
        <ele>629.4</ele>
        <time>2017-07-02T12:13:01Z</time>
      </trkpt>
      <trkpt lat="42.42649" lon="0.09015">
        <ele>629.3</ele>
        <time>2017-07-02T12:13:02Z</time>
      </trkpt>
      <trkpt lat="42.42652" lon="0.09011">
        <ele>629.3</ele>
        <time>2017-07-02T12:13:03Z</time>
      </trkpt>
      <trkpt lat="42.42652" lon="0.09005">
        <ele>629.2</ele>
        <time>2017-07-02T12:13:04Z</time>
      </trkpt>
      <trkpt lat="42.42654" lon="0.09002">
        <ele>629.2</ele>
        <time>2017-07-02T12:13:05Z</time>
      </trkpt>
      <trkpt lat="42.42658" lon="0.09">
        <ele>629.2</ele>
        <time>2017-07-02T12:13:06Z</time>
      </trkpt>
      <trkpt lat="42.42663" lon="0.09001">
        <ele>629.1</ele>
        <time>2017-07-02T12:13:07Z</time>
      </trkpt>
      <trkpt lat="42.42667" lon="0.09003">
        <ele>629.1</ele>
        <time>2017-07-02T12:13:08Z</time>
      </trkpt>
      <trkpt lat="42.4267" lon="0.09002">
        <ele>629.1</ele>
        <time>2017-07-02T12:13:09Z</time>
      </trkpt>
      <trkpt lat="42.42674" lon="0.08999">
        <ele>629</ele>
        <time>2017-07-02T12:13:10Z</time>
      </trkpt>
      <trkpt lat="42.42677" lon="0.08994">
        <ele>628.9</ele>
        <time>2017-07-02T12:13:11Z</time>
      </trkpt>
      <trkpt lat="42.4268" lon="0.08991">
        <ele>628.9</ele>
        <time>2017-07-02T12:13:12Z</time>
      </trkpt>
      <trkpt lat="42.42683" lon="0.08988">
        <ele>628.8</ele>
        <time>2017-07-02T12:13:13Z</time>
      </trkpt>
      <trkpt lat="42.42687" lon="0.08985">
        <ele>628.8</ele>
        <time>2017-07-02T12:13:14Z</time>
      </trkpt>
      <trkpt lat="42.4269" lon="0.08982">
        <ele>628.7</ele>
        <time>2017-07-02T12:13:15Z</time>
      </trkpt>
      <trkpt lat="42.42694" lon="0.08978">
        <ele>628.6</ele>
        <time>2017-07-02T12:13:16Z</time>
      </trkpt>
      <trkpt lat="42.42697" lon="0.08975">
        <ele>628.5</ele>
        <time>2017-07-02T12:13:17Z</time>
      </trkpt>
      <trkpt lat="42.42699" lon="0.08971">
        <ele>628.5</ele>
        <time>2017-07-02T12:13:18Z</time>
      </trkpt>
      <trkpt lat="42.42702" lon="0.08967">
        <ele>628.4</ele>
        <time>2017-07-02T12:13:19Z</time>
      </trkpt>
      <trkpt lat="42.42705" lon="0.08962">
        <ele>628.3</ele>
        <time>2017-07-02T12:13:20Z</time>
      </trkpt>
      <trkpt lat="42.42706" lon="0.08959">
        <ele>628.2</ele>
        <time>2017-07-02T12:13:21Z</time>
      </trkpt>
      <trkpt lat="42.42707" lon="0.08955">
        <ele>628.1</ele>
        <time>2017-07-02T12:13:27Z</time>
      </trkpt>
      <trkpt lat="42.42709" lon="0.08952">
        <ele>628</ele>
        <time>2017-07-02T12:13:38Z</time>
      </trkpt>
      <trkpt lat="42.42712" lon="0.08951">
        <ele>627.9</ele>
        <time>2017-07-02T12:13:42Z</time>
      </trkpt>
      <trkpt lat="42.42715" lon="0.0895">
        <ele>627.8</ele>
        <time>2017-07-02T12:13:44Z</time>
      </trkpt>
      <trkpt lat="42.42719" lon="0.08946">
        <ele>627.6</ele>
        <time>2017-07-02T12:13:46Z</time>
      </trkpt>
      <trkpt lat="42.42722" lon="0.0894">
        <ele>627.4</ele>
        <time>2017-07-02T12:13:48Z</time>
      </trkpt>
      <trkpt lat="42.42723" lon="0.08936">
        <ele>627.2</ele>
        <time>2017-07-02T12:13:49Z</time>
      </trkpt>
      <trkpt lat="42.42724" lon="0.08933">
        <ele>627.1</ele>
        <time>2017-07-02T12:13:50Z</time>
      </trkpt>
      <trkpt lat="42.42724" lon="0.08929">
        <ele>626.9</ele>
        <time>2017-07-02T12:13:51Z</time>
      </trkpt>
      <trkpt lat="42.42725" lon="0.08922">
        <ele>626.6</ele>
        <time>2017-07-02T12:13:53Z</time>
      </trkpt>
      <trkpt lat="42.42727" lon="0.08917">
        <ele>626.2</ele>
        <time>2017-07-02T12:13:55Z</time>
      </trkpt>
      <trkpt lat="42.42728" lon="0.08909">
        <ele>625.7</ele>
        <time>2017-07-02T12:13:57Z</time>
      </trkpt>
      <trkpt lat="42.4273" lon="0.08904">
        <ele>625.3</ele>
        <time>2017-07-02T12:13:58Z</time>
      </trkpt>
      <trkpt lat="42.42731" lon="0.08898">
        <ele>624.9</ele>
        <time>2017-07-02T12:13:59Z</time>
      </trkpt>
      <trkpt lat="42.42732" lon="0.08893">
        <ele>624.5</ele>
        <time>2017-07-02T12:14:00Z</time>
      </trkpt>
      <trkpt lat="42.42734" lon="0.08888">
        <ele>624.1</ele>
        <time>2017-07-02T12:14:01Z</time>
      </trkpt>
      <trkpt lat="42.42735" lon="0.08883">
        <ele>623.7</ele>
        <time>2017-07-02T12:14:02Z</time>
      </trkpt>
      <trkpt lat="42.42736" lon="0.08879">
        <ele>623.1</ele>
        <time>2017-07-02T12:14:03Z</time>
      </trkpt>
      <trkpt lat="42.42737" lon="0.08875">
        <ele>622.7</ele>
        <time>2017-07-02T12:14:04Z</time>
      </trkpt>
      <trkpt lat="42.42738" lon="0.08871">
        <ele>622.2</ele>
        <time>2017-07-02T12:14:05Z</time>
      </trkpt>
      <trkpt lat="42.42738" lon="0.08867">
        <ele>621.7</ele>
        <time>2017-07-02T12:14:06Z</time>
      </trkpt>
      <trkpt lat="42.42737" lon="0.08863">
        <ele>621.3</ele>
        <time>2017-07-02T12:14:07Z</time>
      </trkpt>
      <trkpt lat="42.42737" lon="0.08858">
        <ele>620.8</ele>
        <time>2017-07-02T12:14:08Z</time>
      </trkpt>
      <trkpt lat="42.42736" lon="0.08853">
        <ele>620.3</ele>
        <time>2017-07-02T12:14:09Z</time>
      </trkpt>
      <trkpt lat="42.42735" lon="0.08849">
        <ele>619.7</ele>
        <time>2017-07-02T12:14:10Z</time>
      </trkpt>
      <trkpt lat="42.42734" lon="0.08844">
        <ele>619.2</ele>
        <time>2017-07-02T12:14:11Z</time>
      </trkpt>
      <trkpt lat="42.42733" lon="0.0884">
        <ele>618.6</ele>
        <time>2017-07-02T12:14:12Z</time>
      </trkpt>
      <trkpt lat="42.42732" lon="0.08835">
        <ele>618</ele>
        <time>2017-07-02T12:14:13Z</time>
      </trkpt>
      <trkpt lat="42.4273" lon="0.0883">
        <ele>617.3</ele>
        <time>2017-07-02T12:14:14Z</time>
      </trkpt>
      <trkpt lat="42.42728" lon="0.08825">
        <ele>616.6</ele>
        <time>2017-07-02T12:14:15Z</time>
      </trkpt>
      <trkpt lat="42.42725" lon="0.08821">
        <ele>615.9</ele>
        <time>2017-07-02T12:14:16Z</time>
      </trkpt>
      <trkpt lat="42.42723" lon="0.08816">
        <ele>615</ele>
        <time>2017-07-02T12:14:17Z</time>
      </trkpt>
      <trkpt lat="42.42718" lon="0.08806">
        <ele>613.6</ele>
        <time>2017-07-02T12:14:18Z</time>
      </trkpt>
      <trkpt lat="42.42717" lon="0.08799">
        <ele>612.7</ele>
        <time>2017-07-02T12:14:19Z</time>
      </trkpt>
      <trkpt lat="42.42714" lon="0.0879">
        <ele>611.1</ele>
        <time>2017-07-02T12:14:20Z</time>
      </trkpt>
      <trkpt lat="42.42716" lon="0.08787">
        <ele>610.5</ele>
        <time>2017-07-02T12:14:21Z</time>
      </trkpt>
      <trkpt lat="42.42713" lon="0.08784">
        <ele>609.6</ele>
        <time>2017-07-02T12:14:22Z</time>
      </trkpt>
      <trkpt lat="42.42709" lon="0.08777">
        <ele>608.6</ele>
        <time>2017-07-02T12:14:23Z</time>
      </trkpt>
      <trkpt lat="42.42707" lon="0.08768">
        <ele>607.7</ele>
        <time>2017-07-02T12:14:24Z</time>
      </trkpt>
      <trkpt lat="42.4271" lon="0.08761">
        <ele>606.7</ele>
        <time>2017-07-02T12:14:25Z</time>
      </trkpt>
      <trkpt lat="42.42706" lon="0.08753">
        <ele>605.6</ele>
        <time>2017-07-02T12:14:26Z</time>
      </trkpt>
      <trkpt lat="42.42706" lon="0.08745">
        <ele>604.8</ele>
        <time>2017-07-02T12:14:27Z</time>
      </trkpt>
      <trkpt lat="42.42704" lon="0.08737">
        <ele>603.9</ele>
        <time>2017-07-02T12:14:28Z</time>
      </trkpt>
      <trkpt lat="42.42703" lon="0.08731">
        <ele>603.3</ele>
        <time>2017-07-02T12:14:29Z</time>
      </trkpt>
      <trkpt lat="42.42705" lon="0.08722">
        <ele>602.4</ele>
        <time>2017-07-02T12:14:30Z</time>
      </trkpt>
      <trkpt lat="42.42707" lon="0.08714">
        <ele>601.7</ele>
        <time>2017-07-02T12:14:31Z</time>
      </trkpt>
      <trkpt lat="42.42711" lon="0.08708">
        <ele>601.2</ele>
        <time>2017-07-02T12:14:32Z</time>
      </trkpt>
      <trkpt lat="42.42715" lon="0.087">
        <ele>600.8</ele>
        <time>2017-07-02T12:14:33Z</time>
      </trkpt>
      <trkpt lat="42.42714" lon="0.0869">
        <ele>600.4</ele>
        <time>2017-07-02T12:14:34Z</time>
      </trkpt>
      <trkpt lat="42.42718" lon="0.08681">
        <ele>600</ele>
        <time>2017-07-02T12:14:35Z</time>
      </trkpt>
      <trkpt lat="42.42722" lon="0.08676">
        <ele>599.7</ele>
        <time>2017-07-02T12:14:36Z</time>
      </trkpt>
      <trkpt lat="42.42726" lon="0.0867">
        <ele>599.4</ele>
        <time>2017-07-02T12:14:37Z</time>
      </trkpt>
      <trkpt lat="42.42731" lon="0.08665">
        <ele>599.2</ele>
        <time>2017-07-02T12:14:38Z</time>
      </trkpt>
      <trkpt lat="42.42736" lon="0.0866">
        <ele>599</ele>
        <time>2017-07-02T12:14:39Z</time>
      </trkpt>
      <trkpt lat="42.42741" lon="0.08656">
        <ele>598.8</ele>
        <time>2017-07-02T12:14:40Z</time>
      </trkpt>
      <trkpt lat="42.42745" lon="0.0865">
        <ele>598.6</ele>
        <time>2017-07-02T12:14:41Z</time>
      </trkpt>
      <trkpt lat="42.42749" lon="0.08645">
        <ele>598.3</ele>
        <time>2017-07-02T12:14:42Z</time>
      </trkpt>
      <trkpt lat="42.42752" lon="0.08639">
        <ele>598</ele>
        <time>2017-07-02T12:14:43Z</time>
      </trkpt>
      <trkpt lat="42.42756" lon="0.08636">
        <ele>597.5</ele>
        <time>2017-07-02T12:14:44Z</time>
      </trkpt>
      <trkpt lat="42.4276" lon="0.08634">
        <ele>597.1</ele>
        <time>2017-07-02T12:14:45Z</time>
      </trkpt>
      <trkpt lat="42.42766" lon="0.08634">
        <ele>596.5</ele>
        <time>2017-07-02T12:14:46Z</time>
      </trkpt>
      <trkpt lat="42.42769" lon="0.08633">
        <ele>596.2</ele>
        <time>2017-07-02T12:14:47Z</time>
      </trkpt>
      <trkpt lat="42.42774" lon="0.08631">
        <ele>595.8</ele>
        <time>2017-07-02T12:14:48Z</time>
      </trkpt>
      <trkpt lat="42.4278" lon="0.0863">
        <ele>595.3</ele>
        <time>2017-07-02T12:14:49Z</time>
      </trkpt>
      <trkpt lat="42.42784" lon="0.08626">
        <ele>594.7</ele>
        <time>2017-07-02T12:14:50Z</time>
      </trkpt>
      <trkpt lat="42.42789" lon="0.08622">
        <ele>594.2</ele>
        <time>2017-07-02T12:14:51Z</time>
      </trkpt>
      <trkpt lat="42.42795" lon="0.08617">
        <ele>593.5</ele>
        <time>2017-07-02T12:14:52Z</time>
      </trkpt>
      <trkpt lat="42.42799" lon="0.08614">
        <ele>593.1</ele>
        <time>2017-07-02T12:14:53Z</time>
      </trkpt>
      <trkpt lat="42.42804" lon="0.08612">
        <ele>592.6</ele>
        <time>2017-07-02T12:14:54Z</time>
      </trkpt>
      <trkpt lat="42.4281" lon="0.0861">
        <ele>592.1</ele>
        <time>2017-07-02T12:14:55Z</time>
      </trkpt>
      <trkpt lat="42.42816" lon="0.08611">
        <ele>591.6</ele>
        <time>2017-07-02T12:14:56Z</time>
      </trkpt>
      <trkpt lat="42.42823" lon="0.08611">
        <ele>591</ele>
        <time>2017-07-02T12:14:57Z</time>
      </trkpt>
      <trkpt lat="42.42828" lon="0.08611">
        <ele>590.4</ele>
        <time>2017-07-02T12:14:58Z</time>
      </trkpt>
      <trkpt lat="42.42835" lon="0.08611">
        <ele>590</ele>
        <time>2017-07-02T12:14:59Z</time>
      </trkpt>
      <trkpt lat="42.42841" lon="0.08608">
        <ele>589.5</ele>
        <time>2017-07-02T12:15:00Z</time>
      </trkpt>
      <trkpt lat="42.42846" lon="0.08602">
        <ele>589.1</ele>
        <time>2017-07-02T12:15:01Z</time>
      </trkpt>
      <trkpt lat="42.42849" lon="0.08595">
        <ele>588.8</ele>
        <time>2017-07-02T12:15:02Z</time>
      </trkpt>
      <trkpt lat="42.42852" lon="0.08588">
        <ele>588.4</ele>
        <time>2017-07-02T12:15:03Z</time>
      </trkpt>
      <trkpt lat="42.42855" lon="0.0858">
        <ele>587.8</ele>
        <time>2017-07-02T12:15:04Z</time>
      </trkpt>
      <trkpt lat="42.42855" lon="0.08574">
        <ele>587.3</ele>
        <time>2017-07-02T12:15:05Z</time>
      </trkpt>
      <trkpt lat="42.42856" lon="0.08567">
        <ele>586.9</ele>
        <time>2017-07-02T12:15:06Z</time>
      </trkpt>
      <trkpt lat="42.42856" lon="0.0856">
        <ele>586.6</ele>
        <time>2017-07-02T12:15:07Z</time>
      </trkpt>
      <trkpt lat="42.42854" lon="0.08553">
        <ele>586.2</ele>
        <time>2017-07-02T12:15:08Z</time>
      </trkpt>
      <trkpt lat="42.42856" lon="0.08546">
        <ele>585.8</ele>
        <time>2017-07-02T12:15:09Z</time>
      </trkpt>
      <trkpt lat="42.42858" lon="0.0854">
        <ele>585.6</ele>
        <time>2017-07-02T12:15:10Z</time>
      </trkpt>
      <trkpt lat="42.42861" lon="0.08536">
        <ele>585.4</ele>
        <time>2017-07-02T12:15:11Z</time>
      </trkpt>
      <trkpt lat="42.42865" lon="0.08531">
        <ele>585.3</ele>
        <time>2017-07-02T12:15:12Z</time>
      </trkpt>
      <trkpt lat="42.42868" lon="0.08527">
        <ele>585.2</ele>
        <time>2017-07-02T12:15:13Z</time>
      </trkpt>
      <trkpt lat="42.42869" lon="0.08521">
        <ele>585.2</ele>
        <time>2017-07-02T12:15:14Z</time>
      </trkpt>
      <trkpt lat="42.4287" lon="0.08516">
        <ele>585.2</ele>
        <time>2017-07-02T12:15:15Z</time>
      </trkpt>
      <trkpt lat="42.42871" lon="0.08511">
        <ele>585.2</ele>
        <time>2017-07-02T12:15:16Z</time>
      </trkpt>
      <trkpt lat="42.42872" lon="0.08504">
        <ele>585.2</ele>
        <time>2017-07-02T12:15:17Z</time>
      </trkpt>
      <trkpt lat="42.42872" lon="0.08498">
        <ele>585.2</ele>
        <time>2017-07-02T12:15:18Z</time>
      </trkpt>
      <trkpt lat="42.42873" lon="0.08492">
        <ele>585.2</ele>
        <time>2017-07-02T12:15:19Z</time>
      </trkpt>
      <trkpt lat="42.42874" lon="0.08486">
        <ele>585.2</ele>
        <time>2017-07-02T12:15:20Z</time>
      </trkpt>
      <trkpt lat="42.42874" lon="0.0848">
        <ele>585.2</ele>
        <time>2017-07-02T12:15:21Z</time>
      </trkpt>
      <trkpt lat="42.42873" lon="0.08474">
        <ele>585.2</ele>
        <time>2017-07-02T12:15:22Z</time>
      </trkpt>
      <trkpt lat="42.42874" lon="0.0847">
        <ele>585.2</ele>
        <time>2017-07-02T12:15:23Z</time>
      </trkpt>
      <trkpt lat="42.42873" lon="0.08464">
        <ele>585.3</ele>
        <time>2017-07-02T12:15:24Z</time>
      </trkpt>
      <trkpt lat="42.42873" lon="0.08458">
        <ele>585.3</ele>
        <time>2017-07-02T12:15:25Z</time>
      </trkpt>
      <trkpt lat="42.42874" lon="0.08452">
        <ele>585.3</ele>
        <time>2017-07-02T12:15:26Z</time>
      </trkpt>
      <trkpt lat="42.42875" lon="0.08447">
        <ele>585.4</ele>
        <time>2017-07-02T12:15:27Z</time>
      </trkpt>
      <trkpt lat="42.42876" lon="0.08442">
        <ele>585.4</ele>
        <time>2017-07-02T12:15:28Z</time>
      </trkpt>
      <trkpt lat="42.42877" lon="0.08437">
        <ele>585.5</ele>
        <time>2017-07-02T12:15:29Z</time>
      </trkpt>
      <trkpt lat="42.42878" lon="0.08432">
        <ele>585.5</ele>
        <time>2017-07-02T12:15:30Z</time>
      </trkpt>
      <trkpt lat="42.42878" lon="0.08427">
        <ele>585.6</ele>
        <time>2017-07-02T12:15:31Z</time>
      </trkpt>
      <trkpt lat="42.42878" lon="0.08422">
        <ele>585.6</ele>
        <time>2017-07-02T12:15:32Z</time>
      </trkpt>
      <trkpt lat="42.42879" lon="0.08416">
        <ele>585.7</ele>
        <time>2017-07-02T12:15:33Z</time>
      </trkpt>
      <trkpt lat="42.42879" lon="0.08411">
        <ele>585.8</ele>
        <time>2017-07-02T12:15:34Z</time>
      </trkpt>
      <trkpt lat="42.4288" lon="0.08406">
        <ele>585.8</ele>
        <time>2017-07-02T12:15:35Z</time>
      </trkpt>
      <trkpt lat="42.42881" lon="0.08401">
        <ele>585.9</ele>
        <time>2017-07-02T12:15:36Z</time>
      </trkpt>
      <trkpt lat="42.42881" lon="0.08396">
        <ele>586</ele>
        <time>2017-07-02T12:15:37Z</time>
      </trkpt>
      <trkpt lat="42.42882" lon="0.08391">
        <ele>586</ele>
        <time>2017-07-02T12:15:38Z</time>
      </trkpt>
      <trkpt lat="42.42882" lon="0.08385">
        <ele>586.1</ele>
        <time>2017-07-02T12:15:39Z</time>
      </trkpt>
      <trkpt lat="42.42883" lon="0.08379">
        <ele>586.2</ele>
        <time>2017-07-02T12:15:40Z</time>
      </trkpt>
      <trkpt lat="42.42883" lon="0.08373">
        <ele>586.3</ele>
        <time>2017-07-02T12:15:41Z</time>
      </trkpt>
      <trkpt lat="42.42883" lon="0.08368">
        <ele>586.4</ele>
        <time>2017-07-02T12:15:42Z</time>
      </trkpt>
      <trkpt lat="42.42883" lon="0.08362">
        <ele>586.4</ele>
        <time>2017-07-02T12:15:43Z</time>
      </trkpt>
      <trkpt lat="42.42883" lon="0.08357">
        <ele>586.4</ele>
        <time>2017-07-02T12:15:44Z</time>
      </trkpt>
      <trkpt lat="42.42883" lon="0.08352">
        <ele>586.5</ele>
        <time>2017-07-02T12:15:45Z</time>
      </trkpt>
      <trkpt lat="42.42882" lon="0.08347">
        <ele>586.5</ele>
        <time>2017-07-02T12:15:46Z</time>
      </trkpt>
      <trkpt lat="42.42881" lon="0.08341">
        <ele>586.6</ele>
        <time>2017-07-02T12:15:47Z</time>
      </trkpt>
      <trkpt lat="42.42881" lon="0.08336">
        <ele>586.6</ele>
        <time>2017-07-02T12:15:48Z</time>
      </trkpt>
      <trkpt lat="42.42881" lon="0.0833">
        <ele>586.7</ele>
        <time>2017-07-02T12:15:49Z</time>
      </trkpt>
      <trkpt lat="42.42881" lon="0.08325">
        <ele>586.7</ele>
        <time>2017-07-02T12:15:50Z</time>
      </trkpt>
      <trkpt lat="42.42882" lon="0.08319">
        <ele>586.8</ele>
        <time>2017-07-02T12:15:51Z</time>
      </trkpt>
      <trkpt lat="42.42882" lon="0.08313">
        <ele>586.8</ele>
        <time>2017-07-02T12:15:52Z</time>
      </trkpt>
      <trkpt lat="42.42883" lon="0.08308">
        <ele>586.9</ele>
        <time>2017-07-02T12:15:53Z</time>
      </trkpt>
      <trkpt lat="42.42883" lon="0.08302">
        <ele>586.9</ele>
        <time>2017-07-02T12:15:54Z</time>
      </trkpt>
      <trkpt lat="42.42883" lon="0.08296">
        <ele>587</ele>
        <time>2017-07-02T12:15:55Z</time>
      </trkpt>
      <trkpt lat="42.42882" lon="0.0829">
        <ele>587.1</ele>
        <time>2017-07-02T12:15:56Z</time>
      </trkpt>
      <trkpt lat="42.42881" lon="0.08285">
        <ele>587.1</ele>
        <time>2017-07-02T12:15:57Z</time>
      </trkpt>
      <trkpt lat="42.4288" lon="0.0828">
        <ele>587.2</ele>
        <time>2017-07-02T12:15:58Z</time>
      </trkpt>
      <trkpt lat="42.42879" lon="0.08275">
        <ele>587.4</ele>
        <time>2017-07-02T12:15:59Z</time>
      </trkpt>
      <trkpt lat="42.42878" lon="0.08269">
        <ele>587.5</ele>
        <time>2017-07-02T12:16:00Z</time>
      </trkpt>
      <trkpt lat="42.42876" lon="0.08265">
        <ele>587.6</ele>
        <time>2017-07-02T12:16:01Z</time>
      </trkpt>
      <trkpt lat="42.42875" lon="0.0826">
        <ele>587.7</ele>
        <time>2017-07-02T12:16:02Z</time>
      </trkpt>
      <trkpt lat="42.42873" lon="0.08256">
        <ele>587.8</ele>
        <time>2017-07-02T12:16:03Z</time>
      </trkpt>
      <trkpt lat="42.42872" lon="0.08252">
        <ele>587.8</ele>
        <time>2017-07-02T12:16:04Z</time>
      </trkpt>
      <trkpt lat="42.4287" lon="0.08249">
        <ele>587.9</ele>
        <time>2017-07-02T12:16:05Z</time>
      </trkpt>
      <trkpt lat="42.42869" lon="0.08245">
        <ele>588</ele>
        <time>2017-07-02T12:16:06Z</time>
      </trkpt>
      <trkpt lat="42.42868" lon="0.08241">
        <ele>588</ele>
        <time>2017-07-02T12:16:07Z</time>
      </trkpt>
      <trkpt lat="42.42866" lon="0.08235">
        <ele>588.2</ele>
        <time>2017-07-02T12:16:09Z</time>
      </trkpt>
      <trkpt lat="42.42865" lon="0.08229">
        <ele>588.2</ele>
        <time>2017-07-02T12:16:11Z</time>
      </trkpt>
      <trkpt lat="42.42865" lon="0.08224">
        <ele>588.3</ele>
        <time>2017-07-02T12:16:13Z</time>
      </trkpt>
      <trkpt lat="42.42866" lon="0.08219">
        <ele>588.3</ele>
        <time>2017-07-02T12:16:14Z</time>
      </trkpt>
      <trkpt lat="42.42868" lon="0.08213">
        <ele>588.1</ele>
        <time>2017-07-02T12:16:15Z</time>
      </trkpt>
      <trkpt lat="42.42869" lon="0.08207">
        <ele>587.9</ele>
        <time>2017-07-02T12:16:16Z</time>
      </trkpt>
      <trkpt lat="42.42871" lon="0.08203">
        <ele>587.7</ele>
        <time>2017-07-02T12:16:17Z</time>
      </trkpt>
      <trkpt lat="42.42873" lon="0.08199">
        <ele>587.5</ele>
        <time>2017-07-02T12:16:18Z</time>
      </trkpt>
      <trkpt lat="42.42875" lon="0.08195">
        <ele>587.3</ele>
        <time>2017-07-02T12:16:19Z</time>
      </trkpt>
      <trkpt lat="42.42878" lon="0.0819">
        <ele>587.3</ele>
        <time>2017-07-02T12:16:20Z</time>
      </trkpt>
      <trkpt lat="42.4288" lon="0.08187">
        <ele>587.2</ele>
        <time>2017-07-02T12:16:21Z</time>
      </trkpt>
      <trkpt lat="42.42882" lon="0.08184">
        <ele>587.1</ele>
        <time>2017-07-02T12:16:22Z</time>
      </trkpt>
      <trkpt lat="42.42884" lon="0.08182">
        <ele>587.1</ele>
        <time>2017-07-02T12:16:23Z</time>
      </trkpt>
      <trkpt lat="42.42887" lon="0.0818">
        <ele>587</ele>
        <time>2017-07-02T12:16:24Z</time>
      </trkpt>
      <trkpt lat="42.42891" lon="0.08177">
        <ele>587</ele>
        <time>2017-07-02T12:16:26Z</time>
      </trkpt>
      <trkpt lat="42.42895" lon="0.08174">
        <ele>587</ele>
        <time>2017-07-02T12:16:28Z</time>
      </trkpt>
      <trkpt lat="42.42898" lon="0.08172">
        <ele>587</ele>
        <time>2017-07-02T12:16:30Z</time>
      </trkpt>
      <trkpt lat="42.42901" lon="0.08172">
        <ele>587</ele>
        <time>2017-07-02T12:16:32Z</time>
      </trkpt>
      <trkpt lat="42.42905" lon="0.08174">
        <ele>587</ele>
        <time>2017-07-02T12:16:34Z</time>
      </trkpt>
      <trkpt lat="42.42909" lon="0.08178">
        <ele>587</ele>
        <time>2017-07-02T12:16:36Z</time>
      </trkpt>
      <trkpt lat="42.42914" lon="0.08181">
        <ele>587</ele>
        <time>2017-07-02T12:16:38Z</time>
      </trkpt>
      <trkpt lat="42.42918" lon="0.08183">
        <ele>587</ele>
        <time>2017-07-02T12:16:40Z</time>
      </trkpt>
      <trkpt lat="42.42921" lon="0.08184">
        <ele>586.8</ele>
        <time>2017-07-02T12:16:41Z</time>
      </trkpt>
      <trkpt lat="42.42924" lon="0.08186">
        <ele>586.6</ele>
        <time>2017-07-02T12:16:42Z</time>
      </trkpt>
      <trkpt lat="42.42926" lon="0.08187">
        <ele>586.5</ele>
        <time>2017-07-02T12:16:43Z</time>
      </trkpt>
      <trkpt lat="42.42929" lon="0.08189">
        <ele>586.5</ele>
        <time>2017-07-02T12:16:44Z</time>
      </trkpt>
      <trkpt lat="42.42932" lon="0.0819">
        <ele>586.5</ele>
        <time>2017-07-02T12:16:45Z</time>
      </trkpt>
      <trkpt lat="42.42935" lon="0.08192">
        <ele>586.5</ele>
        <time>2017-07-02T12:16:46Z</time>
      </trkpt>
      <trkpt lat="42.42938" lon="0.08193">
        <ele>586.6</ele>
        <time>2017-07-02T12:16:47Z</time>
      </trkpt>
      <trkpt lat="42.42941" lon="0.08195">
        <ele>586.7</ele>
        <time>2017-07-02T12:16:48Z</time>
      </trkpt>
      <trkpt lat="42.42945" lon="0.08197">
        <ele>586.8</ele>
        <time>2017-07-02T12:16:49Z</time>
      </trkpt>
      <trkpt lat="42.42948" lon="0.08198">
        <ele>586.8</ele>
        <time>2017-07-02T12:16:50Z</time>
      </trkpt>
      <trkpt lat="42.42952" lon="0.082">
        <ele>586.9</ele>
        <time>2017-07-02T12:16:51Z</time>
      </trkpt>
      <trkpt lat="42.42956" lon="0.08202">
        <ele>587</ele>
        <time>2017-07-02T12:16:52Z</time>
      </trkpt>
      <trkpt lat="42.42959" lon="0.08205">
        <ele>586.6</ele>
        <time>2017-07-02T12:16:53Z</time>
      </trkpt>
      <trkpt lat="42.42963" lon="0.08207">
        <ele>585.7</ele>
        <time>2017-07-02T12:16:54Z</time>
      </trkpt>
      <trkpt lat="42.42967" lon="0.08209">
        <ele>584.9</ele>
        <time>2017-07-02T12:16:55Z</time>
      </trkpt>
      <trkpt lat="42.4297" lon="0.08212">
        <ele>584.2</ele>
        <time>2017-07-02T12:16:56Z</time>
      </trkpt>
      <trkpt lat="42.42974" lon="0.08214">
        <ele>583.5</ele>
        <time>2017-07-02T12:16:57Z</time>
      </trkpt>
      <trkpt lat="42.42978" lon="0.08217">
        <ele>582.9</ele>
        <time>2017-07-02T12:16:58Z</time>
      </trkpt>
      <trkpt lat="42.42982" lon="0.08219">
        <ele>582.5</ele>
        <time>2017-07-02T12:16:59Z</time>
      </trkpt>
      <trkpt lat="42.42986" lon="0.08222">
        <ele>582.4</ele>
        <time>2017-07-02T12:17:00Z</time>
      </trkpt>
      <trkpt lat="42.4299" lon="0.08225">
        <ele>582.2</ele>
        <time>2017-07-02T12:17:01Z</time>
      </trkpt>
      <trkpt lat="42.42994" lon="0.08228">
        <ele>582.1</ele>
        <time>2017-07-02T12:17:02Z</time>
      </trkpt>
      <trkpt lat="42.42998" lon="0.08232">
        <ele>581.9</ele>
        <time>2017-07-02T12:17:03Z</time>
      </trkpt>
      <trkpt lat="42.43002" lon="0.08235">
        <ele>581.8</ele>
        <time>2017-07-02T12:17:04Z</time>
      </trkpt>
      <trkpt lat="42.43005" lon="0.08238">
        <ele>581.6</ele>
        <time>2017-07-02T12:17:05Z</time>
      </trkpt>
      <trkpt lat="42.4301" lon="0.08241">
        <ele>581.5</ele>
        <time>2017-07-02T12:17:06Z</time>
      </trkpt>
      <trkpt lat="42.43014" lon="0.08245">
        <ele>581.3</ele>
        <time>2017-07-02T12:17:07Z</time>
      </trkpt>
      <trkpt lat="42.43019" lon="0.08247">
        <ele>581.2</ele>
        <time>2017-07-02T12:17:08Z</time>
      </trkpt>
      <trkpt lat="42.43023" lon="0.0825">
        <ele>581</ele>
        <time>2017-07-02T12:17:09Z</time>
      </trkpt>
      <trkpt lat="42.43029" lon="0.08253">
        <ele>580.9</ele>
        <time>2017-07-02T12:17:10Z</time>
      </trkpt>
      <trkpt lat="42.43033" lon="0.08255">
        <ele>580.8</ele>
        <time>2017-07-02T12:17:11Z</time>
      </trkpt>
      <trkpt lat="42.43038" lon="0.08258">
        <ele>580.7</ele>
        <time>2017-07-02T12:17:12Z</time>
      </trkpt>
      <trkpt lat="42.43043" lon="0.0826">
        <ele>580.6</ele>
        <time>2017-07-02T12:17:13Z</time>
      </trkpt>
      <trkpt lat="42.43048" lon="0.08262">
        <ele>580.4</ele>
        <time>2017-07-02T12:17:14Z</time>
      </trkpt>
      <trkpt lat="42.43053" lon="0.08265">
        <ele>580.3</ele>
        <time>2017-07-02T12:17:15Z</time>
      </trkpt>
      <trkpt lat="42.43057" lon="0.08267">
        <ele>580.2</ele>
        <time>2017-07-02T12:17:16Z</time>
      </trkpt>
      <trkpt lat="42.43062" lon="0.08269">
        <ele>580.1</ele>
        <time>2017-07-02T12:17:17Z</time>
      </trkpt>
      <trkpt lat="42.43066" lon="0.08271">
        <ele>580</ele>
        <time>2017-07-02T12:17:18Z</time>
      </trkpt>
      <trkpt lat="42.4307" lon="0.08274">
        <ele>580</ele>
        <time>2017-07-02T12:17:19Z</time>
      </trkpt>
      <trkpt lat="42.43075" lon="0.08277">
        <ele>579.9</ele>
        <time>2017-07-02T12:17:20Z</time>
      </trkpt>
      <trkpt lat="42.43079" lon="0.0828">
        <ele>579.8</ele>
        <time>2017-07-02T12:17:21Z</time>
      </trkpt>
      <trkpt lat="42.43084" lon="0.08283">
        <ele>579.7</ele>
        <time>2017-07-02T12:17:22Z</time>
      </trkpt>
      <trkpt lat="42.4309" lon="0.08286">
        <ele>579.6</ele>
        <time>2017-07-02T12:17:23Z</time>
      </trkpt>
      <trkpt lat="42.43095" lon="0.08289">
        <ele>579.5</ele>
        <time>2017-07-02T12:17:24Z</time>
      </trkpt>
      <trkpt lat="42.431" lon="0.08292">
        <ele>579.4</ele>
        <time>2017-07-02T12:17:25Z</time>
      </trkpt>
      <trkpt lat="42.43105" lon="0.08295">
        <ele>579.3</ele>
        <time>2017-07-02T12:17:26Z</time>
      </trkpt>
      <trkpt lat="42.43111" lon="0.08299">
        <ele>579.2</ele>
        <time>2017-07-02T12:17:27Z</time>
      </trkpt>
      <trkpt lat="42.43116" lon="0.08302">
        <ele>579.2</ele>
        <time>2017-07-02T12:17:28Z</time>
      </trkpt>
      <trkpt lat="42.43121" lon="0.08305">
        <ele>579.1</ele>
        <time>2017-07-02T12:17:29Z</time>
      </trkpt>
      <trkpt lat="42.43127" lon="0.08308">
        <ele>579</ele>
        <time>2017-07-02T12:17:30Z</time>
      </trkpt>
      <trkpt lat="42.43132" lon="0.08311">
        <ele>578.9</ele>
        <time>2017-07-02T12:17:31Z</time>
      </trkpt>
      <trkpt lat="42.43137" lon="0.08314">
        <ele>578.8</ele>
        <time>2017-07-02T12:17:32Z</time>
      </trkpt>
      <trkpt lat="42.43142" lon="0.08317">
        <ele>578.8</ele>
        <time>2017-07-02T12:17:33Z</time>
      </trkpt>
      <trkpt lat="42.43148" lon="0.0832">
        <ele>578.7</ele>
        <time>2017-07-02T12:17:34Z</time>
      </trkpt>
      <trkpt lat="42.43153" lon="0.08323">
        <ele>578.6</ele>
        <time>2017-07-02T12:17:35Z</time>
      </trkpt>
      <trkpt lat="42.43157" lon="0.08326">
        <ele>578.5</ele>
        <time>2017-07-02T12:17:36Z</time>
      </trkpt>
      <trkpt lat="42.43162" lon="0.08328">
        <ele>578.5</ele>
        <time>2017-07-02T12:17:37Z</time>
      </trkpt>
      <trkpt lat="42.43166" lon="0.08331">
        <ele>578.4</ele>
        <time>2017-07-02T12:17:38Z</time>
      </trkpt>
      <trkpt lat="42.43171" lon="0.08334">
        <ele>578.3</ele>
        <time>2017-07-02T12:17:39Z</time>
      </trkpt>
      <trkpt lat="42.43175" lon="0.08337">
        <ele>578.3</ele>
        <time>2017-07-02T12:17:40Z</time>
      </trkpt>
      <trkpt lat="42.4318" lon="0.0834">
        <ele>578.2</ele>
        <time>2017-07-02T12:17:41Z</time>
      </trkpt>
      <trkpt lat="42.43185" lon="0.08343">
        <ele>578.1</ele>
        <time>2017-07-02T12:17:42Z</time>
      </trkpt>
      <trkpt lat="42.43189" lon="0.08346">
        <ele>578</ele>
        <time>2017-07-02T12:17:43Z</time>
      </trkpt>
      <trkpt lat="42.43194" lon="0.08349">
        <ele>578</ele>
        <time>2017-07-02T12:17:44Z</time>
      </trkpt>
      <trkpt lat="42.43198" lon="0.08352">
        <ele>577.9</ele>
        <time>2017-07-02T12:17:45Z</time>
      </trkpt>
      <trkpt lat="42.43203" lon="0.08355">
        <ele>577.8</ele>
        <time>2017-07-02T12:17:46Z</time>
      </trkpt>
      <trkpt lat="42.43208" lon="0.08357">
        <ele>577.8</ele>
        <time>2017-07-02T12:17:47Z</time>
      </trkpt>
      <trkpt lat="42.43213" lon="0.08359">
        <ele>577.7</ele>
        <time>2017-07-02T12:17:48Z</time>
      </trkpt>
      <trkpt lat="42.43218" lon="0.08362">
        <ele>577.6</ele>
        <time>2017-07-02T12:17:49Z</time>
      </trkpt>
      <trkpt lat="42.43221" lon="0.08365">
        <ele>577.5</ele>
        <time>2017-07-02T12:17:50Z</time>
      </trkpt>
      <trkpt lat="42.43226" lon="0.08368">
        <ele>577.4</ele>
        <time>2017-07-02T12:17:51Z</time>
      </trkpt>
      <trkpt lat="42.43229" lon="0.08373">
        <ele>577.4</ele>
        <time>2017-07-02T12:17:52Z</time>
      </trkpt>
      <trkpt lat="42.43234" lon="0.08374">
        <ele>577.3</ele>
        <time>2017-07-02T12:17:53Z</time>
      </trkpt>
      <trkpt lat="42.43239" lon="0.08375">
        <ele>577.2</ele>
        <time>2017-07-02T12:17:54Z</time>
      </trkpt>
      <trkpt lat="42.43244" lon="0.08377">
        <ele>577.1</ele>
        <time>2017-07-02T12:17:55Z</time>
      </trkpt>
      <trkpt lat="42.43249" lon="0.08379">
        <ele>577</ele>
        <time>2017-07-02T12:17:56Z</time>
      </trkpt>
      <trkpt lat="42.43253" lon="0.08381">
        <ele>577</ele>
        <time>2017-07-02T12:17:57Z</time>
      </trkpt>
      <trkpt lat="42.43258" lon="0.08384">
        <ele>577</ele>
        <time>2017-07-02T12:17:58Z</time>
      </trkpt>
      <trkpt lat="42.43261" lon="0.08388">
        <ele>576.9</ele>
        <time>2017-07-02T12:17:59Z</time>
      </trkpt>
      <trkpt lat="42.43265" lon="0.08392">
        <ele>576.8</ele>
        <time>2017-07-02T12:18:00Z</time>
      </trkpt>
      <trkpt lat="42.43268" lon="0.08398">
        <ele>576.6</ele>
        <time>2017-07-02T12:18:01Z</time>
      </trkpt>
      <trkpt lat="42.43271" lon="0.08404">
        <ele>576.4</ele>
        <time>2017-07-02T12:18:02Z</time>
      </trkpt>
      <trkpt lat="42.43274" lon="0.0841">
        <ele>576.3</ele>
        <time>2017-07-02T12:18:03Z</time>
      </trkpt>
      <trkpt lat="42.43278" lon="0.08416">
        <ele>576.1</ele>
        <time>2017-07-02T12:18:04Z</time>
      </trkpt>
      <trkpt lat="42.43283" lon="0.08421">
        <ele>576</ele>
        <time>2017-07-02T12:18:05Z</time>
      </trkpt>
      <trkpt lat="42.43287" lon="0.08426">
        <ele>576</ele>
        <time>2017-07-02T12:18:06Z</time>
      </trkpt>
      <trkpt lat="42.43292" lon="0.0843">
        <ele>576</ele>
        <time>2017-07-02T12:18:07Z</time>
      </trkpt>
      <trkpt lat="42.43297" lon="0.08434">
        <ele>576</ele>
        <time>2017-07-02T12:18:08Z</time>
      </trkpt>
      <trkpt lat="42.43302" lon="0.08438">
        <ele>576</ele>
        <time>2017-07-02T12:18:09Z</time>
      </trkpt>
      <trkpt lat="42.43307" lon="0.08443">
        <ele>576</ele>
        <time>2017-07-02T12:18:10Z</time>
      </trkpt>
      <trkpt lat="42.43311" lon="0.08448">
        <ele>576</ele>
        <time>2017-07-02T12:18:11Z</time>
      </trkpt>
      <trkpt lat="42.43316" lon="0.08452">
        <ele>576</ele>
        <time>2017-07-02T12:18:12Z</time>
      </trkpt>
      <trkpt lat="42.43321" lon="0.08456">
        <ele>576</ele>
        <time>2017-07-02T12:18:13Z</time>
      </trkpt>
      <trkpt lat="42.43325" lon="0.08461">
        <ele>576</ele>
        <time>2017-07-02T12:18:14Z</time>
      </trkpt>
      <trkpt lat="42.43329" lon="0.08466">
        <ele>576</ele>
        <time>2017-07-02T12:18:15Z</time>
      </trkpt>
      <trkpt lat="42.43329" lon="0.08475">
        <ele>576</ele>
        <time>2017-07-02T12:18:16Z</time>
      </trkpt>
      <trkpt lat="42.43328" lon="0.08482">
        <ele>576.2</ele>
        <time>2017-07-02T12:18:17Z</time>
      </trkpt>
      <trkpt lat="42.43325" lon="0.0849">
        <ele>576.4</ele>
        <time>2017-07-02T12:18:18Z</time>
      </trkpt>
      <trkpt lat="42.43322" lon="0.08495">
        <ele>576.5</ele>
        <time>2017-07-02T12:18:19Z</time>
      </trkpt>
      <trkpt lat="42.43319" lon="0.08499">
        <ele>576.5</ele>
        <time>2017-07-02T12:18:20Z</time>
      </trkpt>
      <trkpt lat="42.43316" lon="0.08504">
        <ele>576.6</ele>
        <time>2017-07-02T12:18:21Z</time>
      </trkpt>
      <trkpt lat="42.43311" lon="0.08507">
        <ele>576.6</ele>
        <time>2017-07-02T12:18:22Z</time>
      </trkpt>
      <trkpt lat="42.43308" lon="0.08511">
        <ele>576.6</ele>
        <time>2017-07-02T12:18:23Z</time>
      </trkpt>
      <trkpt lat="42.43305" lon="0.08515">
        <ele>576.3</ele>
        <time>2017-07-02T12:18:24Z</time>
      </trkpt>
      <trkpt lat="42.43302" lon="0.08519">
        <ele>576.1</ele>
        <time>2017-07-02T12:18:25Z</time>
      </trkpt>
      <trkpt lat="42.43299" lon="0.08523">
        <ele>576</ele>
        <time>2017-07-02T12:18:26Z</time>
      </trkpt>
      <trkpt lat="42.43295" lon="0.08527">
        <ele>576</ele>
        <time>2017-07-02T12:18:27Z</time>
      </trkpt>
      <trkpt lat="42.43292" lon="0.08531">
        <ele>576</ele>
        <time>2017-07-02T12:18:28Z</time>
      </trkpt>
      <trkpt lat="42.43289" lon="0.08535">
        <ele>576</ele>
        <time>2017-07-02T12:18:29Z</time>
      </trkpt>
      <trkpt lat="42.43285" lon="0.08539">
        <ele>576</ele>
        <time>2017-07-02T12:18:30Z</time>
      </trkpt>
      <trkpt lat="42.43282" lon="0.08543">
        <ele>576</ele>
        <time>2017-07-02T12:18:31Z</time>
      </trkpt>
      <trkpt lat="42.43279" lon="0.08548">
        <ele>576</ele>
        <time>2017-07-02T12:18:32Z</time>
      </trkpt>
      <trkpt lat="42.43275" lon="0.08553">
        <ele>576</ele>
        <time>2017-07-02T12:18:33Z</time>
      </trkpt>
      <trkpt lat="42.43272" lon="0.08558">
        <ele>575.9</ele>
        <time>2017-07-02T12:18:34Z</time>
      </trkpt>
      <trkpt lat="42.4327" lon="0.08565">
        <ele>575.9</ele>
        <time>2017-07-02T12:18:35Z</time>
      </trkpt>
      <trkpt lat="42.43268" lon="0.08571">
        <ele>575.8</ele>
        <time>2017-07-02T12:18:36Z</time>
      </trkpt>
      <trkpt lat="42.43265" lon="0.08578">
        <ele>575.8</ele>
        <time>2017-07-02T12:18:37Z</time>
      </trkpt>
      <trkpt lat="42.43263" lon="0.08585">
        <ele>575.7</ele>
        <time>2017-07-02T12:18:38Z</time>
      </trkpt>
      <trkpt lat="42.4326" lon="0.08591">
        <ele>575.6</ele>
        <time>2017-07-02T12:18:39Z</time>
      </trkpt>
      <trkpt lat="42.43257" lon="0.08596">
        <ele>575.6</ele>
        <time>2017-07-02T12:18:40Z</time>
      </trkpt>
      <trkpt lat="42.43254" lon="0.08602">
        <ele>575.5</ele>
        <time>2017-07-02T12:18:41Z</time>
      </trkpt>
      <trkpt lat="42.4325" lon="0.08608">
        <ele>575.4</ele>
        <time>2017-07-02T12:18:42Z</time>
      </trkpt>
      <trkpt lat="42.43248" lon="0.08613">
        <ele>575.4</ele>
        <time>2017-07-02T12:18:43Z</time>
      </trkpt>
      <trkpt lat="42.43245" lon="0.08618">
        <ele>575.3</ele>
        <time>2017-07-02T12:18:44Z</time>
      </trkpt>
      <trkpt lat="42.43242" lon="0.08624">
        <ele>575.1</ele>
        <time>2017-07-02T12:18:45Z</time>
      </trkpt>
      <trkpt lat="42.43239" lon="0.0863">
        <ele>574.8</ele>
        <time>2017-07-02T12:18:46Z</time>
      </trkpt>
      <trkpt lat="42.43236" lon="0.08635">
        <ele>574.4</ele>
        <time>2017-07-02T12:18:47Z</time>
      </trkpt>
      <trkpt lat="42.43234" lon="0.08641">
        <ele>574.1</ele>
        <time>2017-07-02T12:18:48Z</time>
      </trkpt>
      <trkpt lat="42.43231" lon="0.08646">
        <ele>573.9</ele>
        <time>2017-07-02T12:18:49Z</time>
      </trkpt>
      <trkpt lat="42.43228" lon="0.08652">
        <ele>573.8</ele>
        <time>2017-07-02T12:18:50Z</time>
      </trkpt>
      <trkpt lat="42.43225" lon="0.08658">
        <ele>573.6</ele>
        <time>2017-07-02T12:18:51Z</time>
      </trkpt>
      <trkpt lat="42.43222" lon="0.08664">
        <ele>573.5</ele>
        <time>2017-07-02T12:18:52Z</time>
      </trkpt>
      <trkpt lat="42.43219" lon="0.08669">
        <ele>573.4</ele>
        <time>2017-07-02T12:18:53Z</time>
      </trkpt>
      <trkpt lat="42.43217" lon="0.08675">
        <ele>573.3</ele>
        <time>2017-07-02T12:18:54Z</time>
      </trkpt>
      <trkpt lat="42.43214" lon="0.0868">
        <ele>573.3</ele>
        <time>2017-07-02T12:18:55Z</time>
      </trkpt>
      <trkpt lat="42.43211" lon="0.08685">
        <ele>573.2</ele>
        <time>2017-07-02T12:18:56Z</time>
      </trkpt>
      <trkpt lat="42.43208" lon="0.0869">
        <ele>573.2</ele>
        <time>2017-07-02T12:18:57Z</time>
      </trkpt>
      <trkpt lat="42.43206" lon="0.08695">
        <ele>573.2</ele>
        <time>2017-07-02T12:18:58Z</time>
      </trkpt>
      <trkpt lat="42.43204" lon="0.087">
        <ele>573.2</ele>
        <time>2017-07-02T12:18:59Z</time>
      </trkpt>
      <trkpt lat="42.43201" lon="0.08705">
        <ele>573.1</ele>
        <time>2017-07-02T12:19:00Z</time>
      </trkpt>
      <trkpt lat="42.43199" lon="0.0871">
        <ele>573.1</ele>
        <time>2017-07-02T12:19:01Z</time>
      </trkpt>
      <trkpt lat="42.43196" lon="0.08715">
        <ele>573.1</ele>
        <time>2017-07-02T12:19:02Z</time>
      </trkpt>
      <trkpt lat="42.43194" lon="0.0872">
        <ele>573.1</ele>
        <time>2017-07-02T12:19:03Z</time>
      </trkpt>
      <trkpt lat="42.43191" lon="0.08725">
        <ele>573.1</ele>
        <time>2017-07-02T12:19:04Z</time>
      </trkpt>
      <trkpt lat="42.43188" lon="0.08731">
        <ele>573.1</ele>
        <time>2017-07-02T12:19:05Z</time>
      </trkpt>
      <trkpt lat="42.43185" lon="0.08736">
        <ele>573</ele>
        <time>2017-07-02T12:19:06Z</time>
      </trkpt>
      <trkpt lat="42.43182" lon="0.08741">
        <ele>573</ele>
        <time>2017-07-02T12:19:07Z</time>
      </trkpt>
      <trkpt lat="42.43179" lon="0.08746">
        <ele>573</ele>
        <time>2017-07-02T12:19:08Z</time>
      </trkpt>
      <trkpt lat="42.43176" lon="0.08751">
        <ele>572.9</ele>
        <time>2017-07-02T12:19:09Z</time>
      </trkpt>
      <trkpt lat="42.43172" lon="0.08756">
        <ele>572.9</ele>
        <time>2017-07-02T12:19:10Z</time>
      </trkpt>
      <trkpt lat="42.43168" lon="0.08759">
        <ele>572.9</ele>
        <time>2017-07-02T12:19:11Z</time>
      </trkpt>
      <trkpt lat="42.43162" lon="0.08761">
        <ele>572.8</ele>
        <time>2017-07-02T12:19:12Z</time>
      </trkpt>
      <trkpt lat="42.43157" lon="0.08763">
        <ele>572.8</ele>
        <time>2017-07-02T12:19:13Z</time>
      </trkpt>
      <trkpt lat="42.43151" lon="0.08764">
        <ele>572.7</ele>
        <time>2017-07-02T12:19:14Z</time>
      </trkpt>
      <trkpt lat="42.43145" lon="0.08765">
        <ele>572.6</ele>
        <time>2017-07-02T12:19:15Z</time>
      </trkpt>
      <trkpt lat="42.43139" lon="0.08767">
        <ele>572.5</ele>
        <time>2017-07-02T12:19:16Z</time>
      </trkpt>
      <trkpt lat="42.43133" lon="0.08769">
        <ele>572.5</ele>
        <time>2017-07-02T12:19:17Z</time>
      </trkpt>
      <trkpt lat="42.43128" lon="0.08773">
        <ele>572.4</ele>
        <time>2017-07-02T12:19:18Z</time>
      </trkpt>
      <trkpt lat="42.43124" lon="0.08779">
        <ele>572.2</ele>
        <time>2017-07-02T12:19:19Z</time>
      </trkpt>
      <trkpt lat="42.4312" lon="0.08784">
        <ele>572</ele>
        <time>2017-07-02T12:19:20Z</time>
      </trkpt>
      <trkpt lat="42.43117" lon="0.0879">
        <ele>571.6</ele>
        <time>2017-07-02T12:19:21Z</time>
      </trkpt>
      <trkpt lat="42.43114" lon="0.08795">
        <ele>571.3</ele>
        <time>2017-07-02T12:19:22Z</time>
      </trkpt>
      <trkpt lat="42.43111" lon="0.08801">
        <ele>571</ele>
        <time>2017-07-02T12:19:23Z</time>
      </trkpt>
      <trkpt lat="42.43108" lon="0.08807">
        <ele>571</ele>
        <time>2017-07-02T12:19:24Z</time>
      </trkpt>
      <trkpt lat="42.43105" lon="0.08813">
        <ele>571</ele>
        <time>2017-07-02T12:19:25Z</time>
      </trkpt>
      <trkpt lat="42.43102" lon="0.08817">
        <ele>571</ele>
        <time>2017-07-02T12:19:26Z</time>
      </trkpt>
      <trkpt lat="42.43099" lon="0.08822">
        <ele>571</ele>
        <time>2017-07-02T12:19:27Z</time>
      </trkpt>
      <trkpt lat="42.43095" lon="0.08827">
        <ele>571</ele>
        <time>2017-07-02T12:19:28Z</time>
      </trkpt>
      <trkpt lat="42.4309" lon="0.08832">
        <ele>571</ele>
        <time>2017-07-02T12:19:29Z</time>
      </trkpt>
      <trkpt lat="42.43083" lon="0.08836">
        <ele>571</ele>
        <time>2017-07-02T12:19:30Z</time>
      </trkpt>
      <trkpt lat="42.43077" lon="0.08841">
        <ele>571</ele>
        <time>2017-07-02T12:19:31Z</time>
      </trkpt>
      <trkpt lat="42.43072" lon="0.08847">
        <ele>571</ele>
        <time>2017-07-02T12:19:32Z</time>
      </trkpt>
      <trkpt lat="42.43068" lon="0.08853">
        <ele>571</ele>
        <time>2017-07-02T12:19:33Z</time>
      </trkpt>
      <trkpt lat="42.43065" lon="0.08858">
        <ele>571</ele>
        <time>2017-07-02T12:19:34Z</time>
      </trkpt>
      <trkpt lat="42.43061" lon="0.08864">
        <ele>571</ele>
        <time>2017-07-02T12:19:35Z</time>
      </trkpt>
      <trkpt lat="42.43059" lon="0.08871">
        <ele>571</ele>
        <time>2017-07-02T12:19:36Z</time>
      </trkpt>
      <trkpt lat="42.43056" lon="0.08878">
        <ele>571</ele>
        <time>2017-07-02T12:19:37Z</time>
      </trkpt>
      <trkpt lat="42.43053" lon="0.08886">
        <ele>571</ele>
        <time>2017-07-02T12:19:38Z</time>
      </trkpt>
      <trkpt lat="42.43049" lon="0.08893">
        <ele>571.1</ele>
        <time>2017-07-02T12:19:39Z</time>
      </trkpt>
      <trkpt lat="42.43046" lon="0.08901">
        <ele>571.1</ele>
        <time>2017-07-02T12:19:40Z</time>
      </trkpt>
      <trkpt lat="42.43042" lon="0.08908">
        <ele>571.1</ele>
        <time>2017-07-02T12:19:41Z</time>
      </trkpt>
      <trkpt lat="42.43039" lon="0.08916">
        <ele>571.1</ele>
        <time>2017-07-02T12:19:42Z</time>
      </trkpt>
      <trkpt lat="42.43035" lon="0.08923">
        <ele>571.1</ele>
        <time>2017-07-02T12:19:43Z</time>
      </trkpt>
      <trkpt lat="42.43032" lon="0.08931">
        <ele>571.1</ele>
        <time>2017-07-02T12:19:44Z</time>
      </trkpt>
      <trkpt lat="42.43028" lon="0.08938">
        <ele>571.1</ele>
        <time>2017-07-02T12:19:45Z</time>
      </trkpt>
      <trkpt lat="42.43026" lon="0.08945">
        <ele>571.1</ele>
        <time>2017-07-02T12:19:46Z</time>
      </trkpt>
      <trkpt lat="42.43022" lon="0.08953">
        <ele>571.1</ele>
        <time>2017-07-02T12:19:47Z</time>
      </trkpt>
      <trkpt lat="42.43019" lon="0.0896">
        <ele>571.1</ele>
        <time>2017-07-02T12:19:48Z</time>
      </trkpt>
      <trkpt lat="42.43016" lon="0.08968">
        <ele>571.1</ele>
        <time>2017-07-02T12:19:49Z</time>
      </trkpt>
      <trkpt lat="42.43013" lon="0.08975">
        <ele>571.2</ele>
        <time>2017-07-02T12:19:50Z</time>
      </trkpt>
      <trkpt lat="42.4301" lon="0.08982">
        <ele>571.2</ele>
        <time>2017-07-02T12:19:51Z</time>
      </trkpt>
      <trkpt lat="42.43006" lon="0.08989">
        <ele>571.2</ele>
        <time>2017-07-02T12:19:52Z</time>
      </trkpt>
      <trkpt lat="42.43002" lon="0.08995">
        <ele>571.2</ele>
        <time>2017-07-02T12:19:53Z</time>
      </trkpt>
      <trkpt lat="42.42999" lon="0.09002">
        <ele>571.2</ele>
        <time>2017-07-02T12:19:54Z</time>
      </trkpt>
      <trkpt lat="42.42996" lon="0.09009">
        <ele>571.3</ele>
        <time>2017-07-02T12:19:55Z</time>
      </trkpt>
      <trkpt lat="42.42992" lon="0.09015">
        <ele>571.3</ele>
        <time>2017-07-02T12:19:56Z</time>
      </trkpt>
      <trkpt lat="42.42987" lon="0.09021">
        <ele>571.4</ele>
        <time>2017-07-02T12:19:57Z</time>
      </trkpt>
      <trkpt lat="42.42983" lon="0.09026">
        <ele>571.4</ele>
        <time>2017-07-02T12:19:58Z</time>
      </trkpt>
      <trkpt lat="42.42978" lon="0.0903">
        <ele>571.5</ele>
        <time>2017-07-02T12:19:59Z</time>
      </trkpt>
      <trkpt lat="42.42974" lon="0.09034">
        <ele>571.5</ele>
        <time>2017-07-02T12:20:00Z</time>
      </trkpt>
      <trkpt lat="42.42969" lon="0.0904">
        <ele>571.6</ele>
        <time>2017-07-02T12:20:01Z</time>
      </trkpt>
      <trkpt lat="42.42965" lon="0.09045">
        <ele>571.7</ele>
        <time>2017-07-02T12:20:02Z</time>
      </trkpt>
      <trkpt lat="42.42961" lon="0.0905">
        <ele>571.9</ele>
        <time>2017-07-02T12:20:03Z</time>
      </trkpt>
      <trkpt lat="42.42957" lon="0.09054">
        <ele>572.1</ele>
        <time>2017-07-02T12:20:04Z</time>
      </trkpt>
      <trkpt lat="42.42953" lon="0.09059">
        <ele>572.4</ele>
        <time>2017-07-02T12:20:05Z</time>
      </trkpt>
      <trkpt lat="42.42949" lon="0.09065">
        <ele>572.7</ele>
        <time>2017-07-02T12:20:06Z</time>
      </trkpt>
      <trkpt lat="42.42945" lon="0.09071">
        <ele>572.9</ele>
        <time>2017-07-02T12:20:07Z</time>
      </trkpt>
      <trkpt lat="42.42941" lon="0.09077">
        <ele>573.1</ele>
        <time>2017-07-02T12:20:08Z</time>
      </trkpt>
      <trkpt lat="42.42937" lon="0.09082">
        <ele>573.3</ele>
        <time>2017-07-02T12:20:09Z</time>
      </trkpt>
      <trkpt lat="42.42933" lon="0.09086">
        <ele>573.3</ele>
        <time>2017-07-02T12:20:10Z</time>
      </trkpt>
      <trkpt lat="42.42929" lon="0.0909">
        <ele>573.3</ele>
        <time>2017-07-02T12:20:11Z</time>
      </trkpt>
      <trkpt lat="42.42925" lon="0.09094">
        <ele>573.4</ele>
        <time>2017-07-02T12:20:12Z</time>
      </trkpt>
      <trkpt lat="42.4292" lon="0.09098">
        <ele>573.4</ele>
        <time>2017-07-02T12:20:13Z</time>
      </trkpt>
      <trkpt lat="42.42916" lon="0.09102">
        <ele>573.4</ele>
        <time>2017-07-02T12:20:14Z</time>
      </trkpt>
      <trkpt lat="42.42912" lon="0.09106">
        <ele>573.5</ele>
        <time>2017-07-02T12:20:15Z</time>
      </trkpt>
      <trkpt lat="42.42908" lon="0.09111">
        <ele>573.5</ele>
        <time>2017-07-02T12:20:16Z</time>
      </trkpt>
      <trkpt lat="42.42904" lon="0.09115">
        <ele>573.5</ele>
        <time>2017-07-02T12:20:17Z</time>
      </trkpt>
      <trkpt lat="42.429" lon="0.09119">
        <ele>573.5</ele>
        <time>2017-07-02T12:20:18Z</time>
      </trkpt>
      <trkpt lat="42.42897" lon="0.09123">
        <ele>573.5</ele>
        <time>2017-07-02T12:20:19Z</time>
      </trkpt>
      <trkpt lat="42.42893" lon="0.09128">
        <ele>573.5</ele>
        <time>2017-07-02T12:20:20Z</time>
      </trkpt>
      <trkpt lat="42.42889" lon="0.09132">
        <ele>573.5</ele>
        <time>2017-07-02T12:20:21Z</time>
      </trkpt>
      <trkpt lat="42.42885" lon="0.09137">
        <ele>573.6</ele>
        <time>2017-07-02T12:20:22Z</time>
      </trkpt>
      <trkpt lat="42.42881" lon="0.09143">
        <ele>573.6</ele>
        <time>2017-07-02T12:20:23Z</time>
      </trkpt>
      <trkpt lat="42.42877" lon="0.09148">
        <ele>573.6</ele>
        <time>2017-07-02T12:20:24Z</time>
      </trkpt>
      <trkpt lat="42.42873" lon="0.09153">
        <ele>573.6</ele>
        <time>2017-07-02T12:20:25Z</time>
      </trkpt>
      <trkpt lat="42.42869" lon="0.09159">
        <ele>573.6</ele>
        <time>2017-07-02T12:20:26Z</time>
      </trkpt>
      <trkpt lat="42.42865" lon="0.09165">
        <ele>573.6</ele>
        <time>2017-07-02T12:20:27Z</time>
      </trkpt>
      <trkpt lat="42.42862" lon="0.0917">
        <ele>573.6</ele>
        <time>2017-07-02T12:20:28Z</time>
      </trkpt>
      <trkpt lat="42.42858" lon="0.09176">
        <ele>573.6</ele>
        <time>2017-07-02T12:20:29Z</time>
      </trkpt>
      <trkpt lat="42.42854" lon="0.09182">
        <ele>573.6</ele>
        <time>2017-07-02T12:20:30Z</time>
      </trkpt>
      <trkpt lat="42.4285" lon="0.09187">
        <ele>573.6</ele>
        <time>2017-07-02T12:20:31Z</time>
      </trkpt>
      <trkpt lat="42.42845" lon="0.09193">
        <ele>573.6</ele>
        <time>2017-07-02T12:20:32Z</time>
      </trkpt>
      <trkpt lat="42.42842" lon="0.09199">
        <ele>573.6</ele>
        <time>2017-07-02T12:20:33Z</time>
      </trkpt>
      <trkpt lat="42.42838" lon="0.09204">
        <ele>573.6</ele>
        <time>2017-07-02T12:20:34Z</time>
      </trkpt>
      <trkpt lat="42.42834" lon="0.0921">
        <ele>573.6</ele>
        <time>2017-07-02T12:20:35Z</time>
      </trkpt>
      <trkpt lat="42.42831" lon="0.09215">
        <ele>573.6</ele>
        <time>2017-07-02T12:20:36Z</time>
      </trkpt>
      <trkpt lat="42.42827" lon="0.09219">
        <ele>573.6</ele>
        <time>2017-07-02T12:20:37Z</time>
      </trkpt>
      <trkpt lat="42.42824" lon="0.09225">
        <ele>573.6</ele>
        <time>2017-07-02T12:20:38Z</time>
      </trkpt>
      <trkpt lat="42.4282" lon="0.0923">
        <ele>573.7</ele>
        <time>2017-07-02T12:20:39Z</time>
      </trkpt>
      <trkpt lat="42.42816" lon="0.09234">
        <ele>573.7</ele>
        <time>2017-07-02T12:20:40Z</time>
      </trkpt>
      <trkpt lat="42.42813" lon="0.0924">
        <ele>573.7</ele>
        <time>2017-07-02T12:20:41Z</time>
      </trkpt>
      <trkpt lat="42.4281" lon="0.09245">
        <ele>573.7</ele>
        <time>2017-07-02T12:20:42Z</time>
      </trkpt>
      <trkpt lat="42.42807" lon="0.0925">
        <ele>573.7</ele>
        <time>2017-07-02T12:20:43Z</time>
      </trkpt>
      <trkpt lat="42.42804" lon="0.09255">
        <ele>573.7</ele>
        <time>2017-07-02T12:20:44Z</time>
      </trkpt>
      <trkpt lat="42.428" lon="0.09262">
        <ele>573.7</ele>
        <time>2017-07-02T12:20:45Z</time>
      </trkpt>
      <trkpt lat="42.42797" lon="0.09268">
        <ele>573.7</ele>
        <time>2017-07-02T12:20:46Z</time>
      </trkpt>
      <trkpt lat="42.42794" lon="0.09273">
        <ele>573.7</ele>
        <time>2017-07-02T12:20:47Z</time>
      </trkpt>
      <trkpt lat="42.42791" lon="0.09277">
        <ele>573.7</ele>
        <time>2017-07-02T12:20:48Z</time>
      </trkpt>
      <trkpt lat="42.42788" lon="0.09281">
        <ele>573.7</ele>
        <time>2017-07-02T12:20:49Z</time>
      </trkpt>
      <trkpt lat="42.42785" lon="0.09287">
        <ele>573.7</ele>
        <time>2017-07-02T12:20:50Z</time>
      </trkpt>
      <trkpt lat="42.42783" lon="0.09292">
        <ele>573.7</ele>
        <time>2017-07-02T12:20:51Z</time>
      </trkpt>
      <trkpt lat="42.42781" lon="0.09297">
        <ele>573.7</ele>
        <time>2017-07-02T12:20:52Z</time>
      </trkpt>
      <trkpt lat="42.42778" lon="0.09303">
        <ele>573.7</ele>
        <time>2017-07-02T12:20:53Z</time>
      </trkpt>
      <trkpt lat="42.42777" lon="0.09308">
        <ele>573.7</ele>
        <time>2017-07-02T12:20:54Z</time>
      </trkpt>
      <trkpt lat="42.42775" lon="0.09314">
        <ele>573.7</ele>
        <time>2017-07-02T12:20:55Z</time>
      </trkpt>
      <trkpt lat="42.42773" lon="0.09319">
        <ele>573.7</ele>
        <time>2017-07-02T12:20:56Z</time>
      </trkpt>
      <trkpt lat="42.42771" lon="0.09325">
        <ele>573.6</ele>
        <time>2017-07-02T12:20:57Z</time>
      </trkpt>
      <trkpt lat="42.4277" lon="0.09331">
        <ele>573.6</ele>
        <time>2017-07-02T12:20:58Z</time>
      </trkpt>
      <trkpt lat="42.42769" lon="0.09337">
        <ele>573.6</ele>
        <time>2017-07-02T12:20:59Z</time>
      </trkpt>
      <trkpt lat="42.42768" lon="0.09343">
        <ele>573.5</ele>
        <time>2017-07-02T12:21:00Z</time>
      </trkpt>
      <trkpt lat="42.42768" lon="0.09349">
        <ele>573.5</ele>
        <time>2017-07-02T12:21:01Z</time>
      </trkpt>
      <trkpt lat="42.42767" lon="0.09354">
        <ele>573.3</ele>
        <time>2017-07-02T12:21:02Z</time>
      </trkpt>
      <trkpt lat="42.42766" lon="0.0936">
        <ele>573</ele>
        <time>2017-07-02T12:21:03Z</time>
      </trkpt>
      <trkpt lat="42.42766" lon="0.09367">
        <ele>572.6</ele>
        <time>2017-07-02T12:21:04Z</time>
      </trkpt>
      <trkpt lat="42.42766" lon="0.09373">
        <ele>572.3</ele>
        <time>2017-07-02T12:21:05Z</time>
      </trkpt>
      <trkpt lat="42.42767" lon="0.09381">
        <ele>572.1</ele>
        <time>2017-07-02T12:21:06Z</time>
      </trkpt>
      <trkpt lat="42.42766" lon="0.09389">
        <ele>571.9</ele>
        <time>2017-07-02T12:21:07Z</time>
      </trkpt>
      <trkpt lat="42.42766" lon="0.09397">
        <ele>571.7</ele>
        <time>2017-07-02T12:21:08Z</time>
      </trkpt>
      <trkpt lat="42.42765" lon="0.09406">
        <ele>571.3</ele>
        <time>2017-07-02T12:21:09Z</time>
      </trkpt>
      <trkpt lat="42.42764" lon="0.09414">
        <ele>570.9</ele>
        <time>2017-07-02T12:21:10Z</time>
      </trkpt>
      <trkpt lat="42.42764" lon="0.09424">
        <ele>570.6</ele>
        <time>2017-07-02T12:21:11Z</time>
      </trkpt>
      <trkpt lat="42.42764" lon="0.09434">
        <ele>570.5</ele>
        <time>2017-07-02T12:21:12Z</time>
      </trkpt>
      <trkpt lat="42.42764" lon="0.09444">
        <ele>570.3</ele>
        <time>2017-07-02T12:21:13Z</time>
      </trkpt>
      <trkpt lat="42.42764" lon="0.09454">
        <ele>570.2</ele>
        <time>2017-07-02T12:21:14Z</time>
      </trkpt>
      <trkpt lat="42.42764" lon="0.09463">
        <ele>570.2</ele>
        <time>2017-07-02T12:21:15Z</time>
      </trkpt>
      <trkpt lat="42.42765" lon="0.09473">
        <ele>570.2</ele>
        <time>2017-07-02T12:21:16Z</time>
      </trkpt>
      <trkpt lat="42.42766" lon="0.09482">
        <ele>570.2</ele>
        <time>2017-07-02T12:21:17Z</time>
      </trkpt>
      <trkpt lat="42.42767" lon="0.09491">
        <ele>570.2</ele>
        <time>2017-07-02T12:21:18Z</time>
      </trkpt>
      <trkpt lat="42.42769" lon="0.09501">
        <ele>570.2</ele>
        <time>2017-07-02T12:21:19Z</time>
      </trkpt>
      <trkpt lat="42.4277" lon="0.0951">
        <ele>570.2</ele>
        <time>2017-07-02T12:21:20Z</time>
      </trkpt>
      <trkpt lat="42.42771" lon="0.0952">
        <ele>570.2</ele>
        <time>2017-07-02T12:21:21Z</time>
      </trkpt>
      <trkpt lat="42.42773" lon="0.0953">
        <ele>570.2</ele>
        <time>2017-07-02T12:21:22Z</time>
      </trkpt>
      <trkpt lat="42.42776" lon="0.09539">
        <ele>570.2</ele>
        <time>2017-07-02T12:21:23Z</time>
      </trkpt>
      <trkpt lat="42.42778" lon="0.09549">
        <ele>570.2</ele>
        <time>2017-07-02T12:21:24Z</time>
      </trkpt>
      <trkpt lat="42.4278" lon="0.09559">
        <ele>570.2</ele>
        <time>2017-07-02T12:21:25Z</time>
      </trkpt>
      <trkpt lat="42.42782" lon="0.09567">
        <ele>570.2</ele>
        <time>2017-07-02T12:21:26Z</time>
      </trkpt>
      <trkpt lat="42.42784" lon="0.09576">
        <ele>570.2</ele>
        <time>2017-07-02T12:21:27Z</time>
      </trkpt>
      <trkpt lat="42.42785" lon="0.09585">
        <ele>570.2</ele>
        <time>2017-07-02T12:21:28Z</time>
      </trkpt>
      <trkpt lat="42.42785" lon="0.09594">
        <ele>570.2</ele>
        <time>2017-07-02T12:21:29Z</time>
      </trkpt>
      <trkpt lat="42.42785" lon="0.09603">
        <ele>570.2</ele>
        <time>2017-07-02T12:21:30Z</time>
      </trkpt>
      <trkpt lat="42.42788" lon="0.09612">
        <ele>570.1</ele>
        <time>2017-07-02T12:21:31Z</time>
      </trkpt>
      <trkpt lat="42.42791" lon="0.09619">
        <ele>570</ele>
        <time>2017-07-02T12:21:32Z</time>
      </trkpt>
      <trkpt lat="42.42793" lon="0.09628">
        <ele>569.7</ele>
        <time>2017-07-02T12:21:33Z</time>
      </trkpt>
      <trkpt lat="42.42796" lon="0.09636">
        <ele>569.3</ele>
        <time>2017-07-02T12:21:34Z</time>
      </trkpt>
      <trkpt lat="42.42799" lon="0.09646">
        <ele>569.1</ele>
        <time>2017-07-02T12:21:35Z</time>
      </trkpt>
      <trkpt lat="42.42801" lon="0.09656">
        <ele>569</ele>
        <time>2017-07-02T12:21:36Z</time>
      </trkpt>
      <trkpt lat="42.42804" lon="0.09666">
        <ele>568.9</ele>
        <time>2017-07-02T12:21:37Z</time>
      </trkpt>
      <trkpt lat="42.42806" lon="0.09674">
        <ele>568.7</ele>
        <time>2017-07-02T12:21:38Z</time>
      </trkpt>
      <trkpt lat="42.4281" lon="0.09682">
        <ele>568.7</ele>
        <time>2017-07-02T12:21:39Z</time>
      </trkpt>
      <trkpt lat="42.42813" lon="0.09692">
        <ele>568.6</ele>
        <time>2017-07-02T12:21:40Z</time>
      </trkpt>
      <trkpt lat="42.42816" lon="0.09699">
        <ele>568.6</ele>
        <time>2017-07-02T12:21:41Z</time>
      </trkpt>
      <trkpt lat="42.4282" lon="0.09708">
        <ele>568.5</ele>
        <time>2017-07-02T12:21:42Z</time>
      </trkpt>
      <trkpt lat="42.42821" lon="0.09718">
        <ele>568.4</ele>
        <time>2017-07-02T12:21:43Z</time>
      </trkpt>
      <trkpt lat="42.4282" lon="0.09726">
        <ele>568.3</ele>
        <time>2017-07-02T12:21:44Z</time>
      </trkpt>
      <trkpt lat="42.42818" lon="0.09733">
        <ele>568.1</ele>
        <time>2017-07-02T12:21:45Z</time>
      </trkpt>
      <trkpt lat="42.42816" lon="0.0974">
        <ele>567.8</ele>
        <time>2017-07-02T12:21:46Z</time>
      </trkpt>
      <trkpt lat="42.42814" lon="0.09746">
        <ele>567.4</ele>
        <time>2017-07-02T12:21:47Z</time>
      </trkpt>
      <trkpt lat="42.42813" lon="0.09751">
        <ele>567.2</ele>
        <time>2017-07-02T12:21:48Z</time>
      </trkpt>
      <trkpt lat="42.42813" lon="0.09756">
        <ele>567.1</ele>
        <time>2017-07-02T12:21:49Z</time>
      </trkpt>
      <trkpt lat="42.42811" lon="0.09763">
        <ele>566.9</ele>
        <time>2017-07-02T12:21:50Z</time>
      </trkpt>
      <trkpt lat="42.4281" lon="0.09772">
        <ele>566.8</ele>
        <time>2017-07-02T12:21:51Z</time>
      </trkpt>
      <trkpt lat="42.4281" lon="0.0978">
        <ele>566.7</ele>
        <time>2017-07-02T12:21:52Z</time>
      </trkpt>
      <trkpt lat="42.4281" lon="0.09789">
        <ele>566.6</ele>
        <time>2017-07-02T12:21:53Z</time>
      </trkpt>
      <trkpt lat="42.42813" lon="0.09794">
        <ele>566.6</ele>
        <time>2017-07-02T12:21:54Z</time>
      </trkpt>
      <trkpt lat="42.42814" lon="0.09803">
        <ele>566.5</ele>
        <time>2017-07-02T12:21:55Z</time>
      </trkpt>
      <trkpt lat="42.42814" lon="0.09813">
        <ele>566.4</ele>
        <time>2017-07-02T12:21:56Z</time>
      </trkpt>
      <trkpt lat="42.42816" lon="0.09819">
        <ele>566.3</ele>
        <time>2017-07-02T12:21:57Z</time>
      </trkpt>
      <trkpt lat="42.42818" lon="0.09827">
        <ele>566</ele>
        <time>2017-07-02T12:21:58Z</time>
      </trkpt>
      <trkpt lat="42.42819" lon="0.09835">
        <ele>565.7</ele>
        <time>2017-07-02T12:21:59Z</time>
      </trkpt>
      <trkpt lat="42.42819" lon="0.09842">
        <ele>565.4</ele>
        <time>2017-07-02T12:22:00Z</time>
      </trkpt>
      <trkpt lat="42.42817" lon="0.09851">
        <ele>565.3</ele>
        <time>2017-07-02T12:22:01Z</time>
      </trkpt>
      <trkpt lat="42.42818" lon="0.0986">
        <ele>565.1</ele>
        <time>2017-07-02T12:22:02Z</time>
      </trkpt>
      <trkpt lat="42.42818" lon="0.09869">
        <ele>565</ele>
        <time>2017-07-02T12:22:03Z</time>
      </trkpt>
      <trkpt lat="42.42818" lon="0.09878">
        <ele>564.9</ele>
        <time>2017-07-02T12:22:04Z</time>
      </trkpt>
      <trkpt lat="42.42818" lon="0.09886">
        <ele>564.9</ele>
        <time>2017-07-02T12:22:05Z</time>
      </trkpt>
      <trkpt lat="42.42817" lon="0.09895">
        <ele>564.8</ele>
        <time>2017-07-02T12:22:06Z</time>
      </trkpt>
      <trkpt lat="42.42816" lon="0.09904">
        <ele>564.8</ele>
        <time>2017-07-02T12:22:07Z</time>
      </trkpt>
      <trkpt lat="42.42816" lon="0.09912">
        <ele>564.8</ele>
        <time>2017-07-02T12:22:08Z</time>
      </trkpt>
      <trkpt lat="42.42816" lon="0.09921">
        <ele>564.8</ele>
        <time>2017-07-02T12:22:09Z</time>
      </trkpt>
      <trkpt lat="42.42818" lon="0.0993">
        <ele>564.8</ele>
        <time>2017-07-02T12:22:10Z</time>
      </trkpt>
      <trkpt lat="42.4282" lon="0.09938">
        <ele>564.8</ele>
        <time>2017-07-02T12:22:11Z</time>
      </trkpt>
      <trkpt lat="42.42822" lon="0.09948">
        <ele>564.9</ele>
        <time>2017-07-02T12:22:12Z</time>
      </trkpt>
      <trkpt lat="42.42824" lon="0.09956">
        <ele>564.9</ele>
        <time>2017-07-02T12:22:13Z</time>
      </trkpt>
      <trkpt lat="42.42821" lon="0.09964">
        <ele>564.9</ele>
        <time>2017-07-02T12:22:14Z</time>
      </trkpt>
      <trkpt lat="42.42822" lon="0.09971">
        <ele>564.9</ele>
        <time>2017-07-02T12:22:15Z</time>
      </trkpt>
      <trkpt lat="42.42821" lon="0.0998">
        <ele>564.9</ele>
        <time>2017-07-02T12:22:16Z</time>
      </trkpt>
      <trkpt lat="42.42823" lon="0.09988">
        <ele>564.9</ele>
        <time>2017-07-02T12:22:17Z</time>
      </trkpt>
      <trkpt lat="42.42823" lon="0.09997">
        <ele>564.9</ele>
        <time>2017-07-02T12:22:18Z</time>
      </trkpt>
      <trkpt lat="42.42823" lon="0.10005">
        <ele>565</ele>
        <time>2017-07-02T12:22:19Z</time>
      </trkpt>
      <trkpt lat="42.42822" lon="0.10013">
        <ele>565</ele>
        <time>2017-07-02T12:22:20Z</time>
      </trkpt>
      <trkpt lat="42.42821" lon="0.10021">
        <ele>565</ele>
        <time>2017-07-02T12:22:21Z</time>
      </trkpt>
      <trkpt lat="42.4282" lon="0.10029">
        <ele>565</ele>
        <time>2017-07-02T12:22:22Z</time>
      </trkpt>
      <trkpt lat="42.4282" lon="0.10037">
        <ele>565</ele>
        <time>2017-07-02T12:22:23Z</time>
      </trkpt>
      <trkpt lat="42.4282" lon="0.10045">
        <ele>565</ele>
        <time>2017-07-02T12:22:24Z</time>
      </trkpt>
      <trkpt lat="42.42822" lon="0.10053">
        <ele>565</ele>
        <time>2017-07-02T12:22:25Z</time>
      </trkpt>
      <trkpt lat="42.42823" lon="0.1006">
        <ele>565</ele>
        <time>2017-07-02T12:22:26Z</time>
      </trkpt>
      <trkpt lat="42.42825" lon="0.10068">
        <ele>564.9</ele>
        <time>2017-07-02T12:22:27Z</time>
      </trkpt>
      <trkpt lat="42.42826" lon="0.10077">
        <ele>564.9</ele>
        <time>2017-07-02T12:22:28Z</time>
      </trkpt>
      <trkpt lat="42.42829" lon="0.10084">
        <ele>564.9</ele>
        <time>2017-07-02T12:22:29Z</time>
      </trkpt>
      <trkpt lat="42.4283" lon="0.10091">
        <ele>564.8</ele>
        <time>2017-07-02T12:22:30Z</time>
      </trkpt>
      <trkpt lat="42.42832" lon="0.10099">
        <ele>564.8</ele>
        <time>2017-07-02T12:22:31Z</time>
      </trkpt>
      <trkpt lat="42.42832" lon="0.10104">
        <ele>564.8</ele>
        <time>2017-07-02T12:22:32Z</time>
      </trkpt>
      <trkpt lat="42.42834" lon="0.10111">
        <ele>564.7</ele>
        <time>2017-07-02T12:22:33Z</time>
      </trkpt>
      <trkpt lat="42.42837" lon="0.10118">
        <ele>564.7</ele>
        <time>2017-07-02T12:22:34Z</time>
      </trkpt>
      <trkpt lat="42.42841" lon="0.10124">
        <ele>564.7</ele>
        <time>2017-07-02T12:22:35Z</time>
      </trkpt>
      <trkpt lat="42.42845" lon="0.10127">
        <ele>564.6</ele>
        <time>2017-07-02T12:22:36Z</time>
      </trkpt>
      <trkpt lat="42.42848" lon="0.10131">
        <ele>564.6</ele>
        <time>2017-07-02T12:22:37Z</time>
      </trkpt>
      <trkpt lat="42.42853" lon="0.10135">
        <ele>564.5</ele>
        <time>2017-07-02T12:22:38Z</time>
      </trkpt>
      <trkpt lat="42.42856" lon="0.1014">
        <ele>564.5</ele>
        <time>2017-07-02T12:22:39Z</time>
      </trkpt>
      <trkpt lat="42.42858" lon="0.10146">
        <ele>564.5</ele>
        <time>2017-07-02T12:22:40Z</time>
      </trkpt>
      <trkpt lat="42.4286" lon="0.10152">
        <ele>564.4</ele>
        <time>2017-07-02T12:22:41Z</time>
      </trkpt>
      <trkpt lat="42.42861" lon="0.10159">
        <ele>564.4</ele>
        <time>2017-07-02T12:22:42Z</time>
      </trkpt>
      <trkpt lat="42.42862" lon="0.10165">
        <ele>564.4</ele>
        <time>2017-07-02T12:22:43Z</time>
      </trkpt>
      <trkpt lat="42.42862" lon="0.10173">
        <ele>564.3</ele>
        <time>2017-07-02T12:22:44Z</time>
      </trkpt>
      <trkpt lat="42.42861" lon="0.10181">
        <ele>564.3</ele>
        <time>2017-07-02T12:22:45Z</time>
      </trkpt>
      <trkpt lat="42.42858" lon="0.10188">
        <ele>564.2</ele>
        <time>2017-07-02T12:22:46Z</time>
      </trkpt>
      <trkpt lat="42.42856" lon="0.10196">
        <ele>564.2</ele>
        <time>2017-07-02T12:22:47Z</time>
      </trkpt>
      <trkpt lat="42.42855" lon="0.10203">
        <ele>564.1</ele>
        <time>2017-07-02T12:22:48Z</time>
      </trkpt>
      <trkpt lat="42.42856" lon="0.1021">
        <ele>563.6</ele>
        <time>2017-07-02T12:22:49Z</time>
      </trkpt>
      <trkpt lat="42.42857" lon="0.10217">
        <ele>563.5</ele>
        <time>2017-07-02T12:22:50Z</time>
      </trkpt>
      <trkpt lat="42.4286" lon="0.10224">
        <ele>563.4</ele>
        <time>2017-07-02T12:22:51Z</time>
      </trkpt>
      <trkpt lat="42.42868" lon="0.10224">
        <ele>563.3</ele>
        <time>2017-07-02T12:22:52Z</time>
      </trkpt>
      <trkpt lat="42.4287" lon="0.10231">
        <ele>563.3</ele>
        <time>2017-07-02T12:22:53Z</time>
      </trkpt>
      <trkpt lat="42.42872" lon="0.10236">
        <ele>563.2</ele>
        <time>2017-07-02T12:22:54Z</time>
      </trkpt>
      <trkpt lat="42.42873" lon="0.10244">
        <ele>563.2</ele>
        <time>2017-07-02T12:22:55Z</time>
      </trkpt>
      <trkpt lat="42.42874" lon="0.10251">
        <ele>563.1</ele>
        <time>2017-07-02T12:22:56Z</time>
      </trkpt>
      <trkpt lat="42.42875" lon="0.10257">
        <ele>563.1</ele>
        <time>2017-07-02T12:22:57Z</time>
      </trkpt>
      <trkpt lat="42.42875" lon="0.10266">
        <ele>563</ele>
        <time>2017-07-02T12:22:58Z</time>
      </trkpt>
      <trkpt lat="42.42874" lon="0.10274">
        <ele>562.9</ele>
        <time>2017-07-02T12:22:59Z</time>
      </trkpt>
      <trkpt lat="42.42873" lon="0.10282">
        <ele>562.8</ele>
        <time>2017-07-02T12:23:00Z</time>
      </trkpt>
      <trkpt lat="42.42872" lon="0.1029">
        <ele>562.7</ele>
        <time>2017-07-02T12:23:01Z</time>
      </trkpt>
      <trkpt lat="42.42871" lon="0.10299">
        <ele>562.6</ele>
        <time>2017-07-02T12:23:02Z</time>
      </trkpt>
      <trkpt lat="42.4287" lon="0.10306">
        <ele>562.5</ele>
        <time>2017-07-02T12:23:03Z</time>
      </trkpt>
      <trkpt lat="42.42869" lon="0.10313">
        <ele>562.4</ele>
        <time>2017-07-02T12:23:04Z</time>
      </trkpt>
      <trkpt lat="42.42868" lon="0.10321">
        <ele>562.3</ele>
        <time>2017-07-02T12:23:05Z</time>
      </trkpt>
      <trkpt lat="42.42867" lon="0.10328">
        <ele>562.2</ele>
        <time>2017-07-02T12:23:06Z</time>
      </trkpt>
      <trkpt lat="42.42866" lon="0.10335">
        <ele>562.1</ele>
        <time>2017-07-02T12:23:07Z</time>
      </trkpt>
      <trkpt lat="42.42866" lon="0.10341">
        <ele>561.9</ele>
        <time>2017-07-02T12:23:08Z</time>
      </trkpt>
      <trkpt lat="42.42865" lon="0.10348">
        <ele>561.8</ele>
        <time>2017-07-02T12:23:09Z</time>
      </trkpt>
      <trkpt lat="42.42864" lon="0.10355">
        <ele>561.7</ele>
        <time>2017-07-02T12:23:10Z</time>
      </trkpt>
      <trkpt lat="42.42863" lon="0.10363">
        <ele>561.7</ele>
        <time>2017-07-02T12:23:11Z</time>
      </trkpt>
      <trkpt lat="42.42862" lon="0.1037">
        <ele>561.6</ele>
        <time>2017-07-02T12:23:12Z</time>
      </trkpt>
      <trkpt lat="42.42861" lon="0.10377">
        <ele>561.5</ele>
        <time>2017-07-02T12:23:13Z</time>
      </trkpt>
      <trkpt lat="42.42861" lon="0.10385">
        <ele>561.5</ele>
        <time>2017-07-02T12:23:14Z</time>
      </trkpt>
      <trkpt lat="42.42859" lon="0.10392">
        <ele>561.4</ele>
        <time>2017-07-02T12:23:15Z</time>
      </trkpt>
      <trkpt lat="42.42858" lon="0.10399">
        <ele>561.4</ele>
        <time>2017-07-02T12:23:16Z</time>
      </trkpt>
      <trkpt lat="42.42857" lon="0.10406">
        <ele>561.2</ele>
        <time>2017-07-02T12:23:17Z</time>
      </trkpt>
      <trkpt lat="42.42856" lon="0.10414">
        <ele>561.1</ele>
        <time>2017-07-02T12:23:18Z</time>
      </trkpt>
      <trkpt lat="42.42855" lon="0.10421">
        <ele>561</ele>
        <time>2017-07-02T12:23:19Z</time>
      </trkpt>
      <trkpt lat="42.42855" lon="0.10428">
        <ele>560.9</ele>
        <time>2017-07-02T12:23:20Z</time>
      </trkpt>
      <trkpt lat="42.42855" lon="0.10436">
        <ele>560.8</ele>
        <time>2017-07-02T12:23:21Z</time>
      </trkpt>
      <trkpt lat="42.42853" lon="0.10443">
        <ele>560.6</ele>
        <time>2017-07-02T12:23:22Z</time>
      </trkpt>
      <trkpt lat="42.42852" lon="0.1045">
        <ele>560.5</ele>
        <time>2017-07-02T12:23:23Z</time>
      </trkpt>
      <trkpt lat="42.4285" lon="0.10458">
        <ele>560.4</ele>
        <time>2017-07-02T12:23:24Z</time>
      </trkpt>
      <trkpt lat="42.4285" lon="0.10466">
        <ele>560.3</ele>
        <time>2017-07-02T12:23:25Z</time>
      </trkpt>
      <trkpt lat="42.4285" lon="0.10473">
        <ele>560.2</ele>
        <time>2017-07-02T12:23:26Z</time>
      </trkpt>
      <trkpt lat="42.42849" lon="0.1048">
        <ele>560.1</ele>
        <time>2017-07-02T12:23:27Z</time>
      </trkpt>
      <trkpt lat="42.42847" lon="0.10487">
        <ele>559.8</ele>
        <time>2017-07-02T12:23:28Z</time>
      </trkpt>
      <trkpt lat="42.42847" lon="0.10495">
        <ele>559.3</ele>
        <time>2017-07-02T12:23:29Z</time>
      </trkpt>
      <trkpt lat="42.42846" lon="0.10502">
        <ele>558.9</ele>
        <time>2017-07-02T12:23:30Z</time>
      </trkpt>
      <trkpt lat="42.42845" lon="0.10509">
        <ele>558.4</ele>
        <time>2017-07-02T12:23:31Z</time>
      </trkpt>
      <trkpt lat="42.42844" lon="0.10516">
        <ele>558.2</ele>
        <time>2017-07-02T12:23:32Z</time>
      </trkpt>
      <trkpt lat="42.42843" lon="0.10523">
        <ele>558</ele>
        <time>2017-07-02T12:23:33Z</time>
      </trkpt>
      <trkpt lat="42.42842" lon="0.1053">
        <ele>557.8</ele>
        <time>2017-07-02T12:23:34Z</time>
      </trkpt>
      <trkpt lat="42.42842" lon="0.10537">
        <ele>557.6</ele>
        <time>2017-07-02T12:23:35Z</time>
      </trkpt>
      <trkpt lat="42.42841" lon="0.10544">
        <ele>557.3</ele>
        <time>2017-07-02T12:23:36Z</time>
      </trkpt>
      <trkpt lat="42.42839" lon="0.10552">
        <ele>557.1</ele>
        <time>2017-07-02T12:23:37Z</time>
      </trkpt>
      <trkpt lat="42.42839" lon="0.10559">
        <ele>557</ele>
        <time>2017-07-02T12:23:38Z</time>
      </trkpt>
      <trkpt lat="42.42837" lon="0.10566">
        <ele>556.8</ele>
        <time>2017-07-02T12:23:39Z</time>
      </trkpt>
      <trkpt lat="42.42836" lon="0.10573">
        <ele>556.7</ele>
        <time>2017-07-02T12:23:40Z</time>
      </trkpt>
      <trkpt lat="42.42835" lon="0.1058">
        <ele>556.4</ele>
        <time>2017-07-02T12:23:41Z</time>
      </trkpt>
      <trkpt lat="42.42834" lon="0.10587">
        <ele>556.2</ele>
        <time>2017-07-02T12:23:42Z</time>
      </trkpt>
      <trkpt lat="42.42833" lon="0.10594">
        <ele>556</ele>
        <time>2017-07-02T12:23:43Z</time>
      </trkpt>
      <trkpt lat="42.42833" lon="0.10602">
        <ele>556</ele>
        <time>2017-07-02T12:23:44Z</time>
      </trkpt>
      <trkpt lat="42.42832" lon="0.10608">
        <ele>556</ele>
        <time>2017-07-02T12:23:45Z</time>
      </trkpt>
      <trkpt lat="42.42831" lon="0.10616">
        <ele>556</ele>
        <time>2017-07-02T12:23:46Z</time>
      </trkpt>
      <trkpt lat="42.42831" lon="0.10623">
        <ele>556</ele>
        <time>2017-07-02T12:23:47Z</time>
      </trkpt>
      <trkpt lat="42.42831" lon="0.10631">
        <ele>556</ele>
        <time>2017-07-02T12:23:48Z</time>
      </trkpt>
      <trkpt lat="42.4283" lon="0.10639">
        <ele>556</ele>
        <time>2017-07-02T12:23:49Z</time>
      </trkpt>
      <trkpt lat="42.42831" lon="0.10648">
        <ele>556</ele>
        <time>2017-07-02T12:23:50Z</time>
      </trkpt>
      <trkpt lat="42.42832" lon="0.10656">
        <ele>556</ele>
        <time>2017-07-02T12:23:51Z</time>
      </trkpt>
      <trkpt lat="42.42832" lon="0.10663">
        <ele>556</ele>
        <time>2017-07-02T12:23:52Z</time>
      </trkpt>
      <trkpt lat="42.42832" lon="0.10672">
        <ele>556</ele>
        <time>2017-07-02T12:23:53Z</time>
      </trkpt>
      <trkpt lat="42.42833" lon="0.10679">
        <ele>556</ele>
        <time>2017-07-02T12:23:54Z</time>
      </trkpt>
      <trkpt lat="42.42833" lon="0.10687">
        <ele>556</ele>
        <time>2017-07-02T12:23:55Z</time>
      </trkpt>
      <trkpt lat="42.42833" lon="0.10695">
        <ele>556</ele>
        <time>2017-07-02T12:23:56Z</time>
      </trkpt>
      <trkpt lat="42.42833" lon="0.10703">
        <ele>555.9</ele>
        <time>2017-07-02T12:23:57Z</time>
      </trkpt>
      <trkpt lat="42.42834" lon="0.10711">
        <ele>555.8</ele>
        <time>2017-07-02T12:23:58Z</time>
      </trkpt>
      <trkpt lat="42.42833" lon="0.10718">
        <ele>555.7</ele>
        <time>2017-07-02T12:23:59Z</time>
      </trkpt>
      <trkpt lat="42.42833" lon="0.10725">
        <ele>555.5</ele>
        <time>2017-07-02T12:24:00Z</time>
      </trkpt>
      <trkpt lat="42.42833" lon="0.10733">
        <ele>555.3</ele>
        <time>2017-07-02T12:24:01Z</time>
      </trkpt>
      <trkpt lat="42.42832" lon="0.1074">
        <ele>555.3</ele>
        <time>2017-07-02T12:24:02Z</time>
      </trkpt>
      <trkpt lat="42.42832" lon="0.10747">
        <ele>555.2</ele>
        <time>2017-07-02T12:24:03Z</time>
      </trkpt>
      <trkpt lat="42.42832" lon="0.10754">
        <ele>555.2</ele>
        <time>2017-07-02T12:24:04Z</time>
      </trkpt>
      <trkpt lat="42.42831" lon="0.10761">
        <ele>555.1</ele>
        <time>2017-07-02T12:24:05Z</time>
      </trkpt>
      <trkpt lat="42.42831" lon="0.10768">
        <ele>555.1</ele>
        <time>2017-07-02T12:24:06Z</time>
      </trkpt>
      <trkpt lat="42.42831" lon="0.10775">
        <ele>555</ele>
        <time>2017-07-02T12:24:07Z</time>
      </trkpt>
      <trkpt lat="42.42832" lon="0.10783">
        <ele>554.9</ele>
        <time>2017-07-02T12:24:08Z</time>
      </trkpt>
      <trkpt lat="42.42832" lon="0.1079">
        <ele>554.9</ele>
        <time>2017-07-02T12:24:09Z</time>
      </trkpt>
      <trkpt lat="42.42832" lon="0.10797">
        <ele>554.9</ele>
        <time>2017-07-02T12:24:10Z</time>
      </trkpt>
      <trkpt lat="42.42832" lon="0.10805">
        <ele>554.8</ele>
        <time>2017-07-02T12:24:11Z</time>
      </trkpt>
      <trkpt lat="42.42831" lon="0.10812">
        <ele>554.8</ele>
        <time>2017-07-02T12:24:12Z</time>
      </trkpt>
      <trkpt lat="42.42832" lon="0.1082">
        <ele>554.8</ele>
        <time>2017-07-02T12:24:13Z</time>
      </trkpt>
      <trkpt lat="42.42832" lon="0.10827">
        <ele>554.7</ele>
        <time>2017-07-02T12:24:14Z</time>
      </trkpt>
      <trkpt lat="42.42833" lon="0.10834">
        <ele>554.7</ele>
        <time>2017-07-02T12:24:15Z</time>
      </trkpt>
      <trkpt lat="42.42834" lon="0.10842">
        <ele>554.7</ele>
        <time>2017-07-02T12:24:16Z</time>
      </trkpt>
      <trkpt lat="42.42834" lon="0.10849">
        <ele>554.7</ele>
        <time>2017-07-02T12:24:17Z</time>
      </trkpt>
      <trkpt lat="42.42835" lon="0.10857">
        <ele>554.7</ele>
        <time>2017-07-02T12:24:18Z</time>
      </trkpt>
      <trkpt lat="42.42834" lon="0.10865">
        <ele>554.7</ele>
        <time>2017-07-02T12:24:19Z</time>
      </trkpt>
      <trkpt lat="42.42835" lon="0.10873">
        <ele>554.7</ele>
        <time>2017-07-02T12:24:20Z</time>
      </trkpt>
      <trkpt lat="42.42835" lon="0.1088">
        <ele>554.7</ele>
        <time>2017-07-02T12:24:21Z</time>
      </trkpt>
      <trkpt lat="42.42834" lon="0.10888">
        <ele>554.8</ele>
        <time>2017-07-02T12:24:22Z</time>
      </trkpt>
      <trkpt lat="42.42835" lon="0.10894">
        <ele>554.8</ele>
        <time>2017-07-02T12:24:23Z</time>
      </trkpt>
      <trkpt lat="42.42836" lon="0.10902">
        <ele>554.8</ele>
        <time>2017-07-02T12:24:24Z</time>
      </trkpt>
      <trkpt lat="42.42837" lon="0.1091">
        <ele>554.8</ele>
        <time>2017-07-02T12:24:25Z</time>
      </trkpt>
      <trkpt lat="42.42835" lon="0.10918">
        <ele>554.8</ele>
        <time>2017-07-02T12:24:26Z</time>
      </trkpt>
      <trkpt lat="42.42836" lon="0.10925">
        <ele>554.9</ele>
        <time>2017-07-02T12:24:27Z</time>
      </trkpt>
      <trkpt lat="42.42838" lon="0.10933">
        <ele>554.9</ele>
        <time>2017-07-02T12:24:28Z</time>
      </trkpt>
      <trkpt lat="42.42839" lon="0.10941">
        <ele>555</ele>
        <time>2017-07-02T12:24:29Z</time>
      </trkpt>
      <trkpt lat="42.42841" lon="0.10949">
        <ele>555</ele>
        <time>2017-07-02T12:24:30Z</time>
      </trkpt>
      <trkpt lat="42.42842" lon="0.10957">
        <ele>554.9</ele>
        <time>2017-07-02T12:24:31Z</time>
      </trkpt>
      <trkpt lat="42.42845" lon="0.10964">
        <ele>554.9</ele>
        <time>2017-07-02T12:24:32Z</time>
      </trkpt>
      <trkpt lat="42.42846" lon="0.10972">
        <ele>554.8</ele>
        <time>2017-07-02T12:24:33Z</time>
      </trkpt>
      <trkpt lat="42.42847" lon="0.1098">
        <ele>554.8</ele>
        <time>2017-07-02T12:24:34Z</time>
      </trkpt>
      <trkpt lat="42.42849" lon="0.10986">
        <ele>554.7</ele>
        <time>2017-07-02T12:24:35Z</time>
      </trkpt>
      <trkpt lat="42.42854" lon="0.10992">
        <ele>554.5</ele>
        <time>2017-07-02T12:24:36Z</time>
      </trkpt>
      <trkpt lat="42.42857" lon="0.11">
        <ele>554.1</ele>
        <time>2017-07-02T12:24:37Z</time>
      </trkpt>
      <trkpt lat="42.4286" lon="0.11006">
        <ele>553.8</ele>
        <time>2017-07-02T12:24:38Z</time>
      </trkpt>
      <trkpt lat="42.42863" lon="0.11013">
        <ele>553.4</ele>
        <time>2017-07-02T12:24:39Z</time>
      </trkpt>
      <trkpt lat="42.42865" lon="0.11021">
        <ele>553.1</ele>
        <time>2017-07-02T12:24:40Z</time>
      </trkpt>
      <trkpt lat="42.42868" lon="0.11026">
        <ele>552.9</ele>
        <time>2017-07-02T12:24:41Z</time>
      </trkpt>
      <trkpt lat="42.4287" lon="0.11033">
        <ele>552.8</ele>
        <time>2017-07-02T12:24:42Z</time>
      </trkpt>
      <trkpt lat="42.42873" lon="0.11041">
        <ele>552.8</ele>
        <time>2017-07-02T12:24:43Z</time>
      </trkpt>
      <trkpt lat="42.42876" lon="0.11047">
        <ele>552.7</ele>
        <time>2017-07-02T12:24:44Z</time>
      </trkpt>
      <trkpt lat="42.42877" lon="0.11053">
        <ele>552.7</ele>
        <time>2017-07-02T12:24:45Z</time>
      </trkpt>
      <trkpt lat="42.4288" lon="0.1106">
        <ele>552.7</ele>
        <time>2017-07-02T12:24:46Z</time>
      </trkpt>
      <trkpt lat="42.42882" lon="0.11064">
        <ele>552.6</ele>
        <time>2017-07-02T12:24:47Z</time>
      </trkpt>
      <trkpt lat="42.42883" lon="0.11071">
        <ele>552.6</ele>
        <time>2017-07-02T12:24:48Z</time>
      </trkpt>
      <trkpt lat="42.42884" lon="0.11077">
        <ele>552.6</ele>
        <time>2017-07-02T12:24:49Z</time>
      </trkpt>
      <trkpt lat="42.42883" lon="0.11083">
        <ele>552.6</ele>
        <time>2017-07-02T12:24:50Z</time>
      </trkpt>
      <trkpt lat="42.42883" lon="0.11091">
        <ele>552.6</ele>
        <time>2017-07-02T12:24:51Z</time>
      </trkpt>
      <trkpt lat="42.42881" lon="0.11097">
        <ele>552.6</ele>
        <time>2017-07-02T12:24:52Z</time>
      </trkpt>
      <trkpt lat="42.42881" lon="0.11104">
        <ele>552.6</ele>
        <time>2017-07-02T12:24:53Z</time>
      </trkpt>
      <trkpt lat="42.4288" lon="0.11111">
        <ele>552.6</ele>
        <time>2017-07-02T12:24:54Z</time>
      </trkpt>
      <trkpt lat="42.42878" lon="0.11117">
        <ele>552.6</ele>
        <time>2017-07-02T12:24:55Z</time>
      </trkpt>
      <trkpt lat="42.42878" lon="0.11124">
        <ele>552.6</ele>
        <time>2017-07-02T12:24:56Z</time>
      </trkpt>
      <trkpt lat="42.42876" lon="0.1113">
        <ele>552.6</ele>
        <time>2017-07-02T12:24:57Z</time>
      </trkpt>
      <trkpt lat="42.42875" lon="0.11136">
        <ele>552.6</ele>
        <time>2017-07-02T12:24:58Z</time>
      </trkpt>
      <trkpt lat="42.42873" lon="0.11142">
        <ele>552.6</ele>
        <time>2017-07-02T12:24:59Z</time>
      </trkpt>
      <trkpt lat="42.42871" lon="0.11149">
        <ele>552.6</ele>
        <time>2017-07-02T12:25:00Z</time>
      </trkpt>
      <trkpt lat="42.42869" lon="0.11156">
        <ele>552.6</ele>
        <time>2017-07-02T12:25:01Z</time>
      </trkpt>
      <trkpt lat="42.42868" lon="0.11163">
        <ele>552.6</ele>
        <time>2017-07-02T12:25:02Z</time>
      </trkpt>
      <trkpt lat="42.42866" lon="0.11169">
        <ele>552.6</ele>
        <time>2017-07-02T12:25:03Z</time>
      </trkpt>
      <trkpt lat="42.42866" lon="0.11177">
        <ele>552.6</ele>
        <time>2017-07-02T12:25:04Z</time>
      </trkpt>
      <trkpt lat="42.42865" lon="0.11183">
        <ele>552.6</ele>
        <time>2017-07-02T12:25:05Z</time>
      </trkpt>
      <trkpt lat="42.42863" lon="0.1119">
        <ele>552.6</ele>
        <time>2017-07-02T12:25:06Z</time>
      </trkpt>
      <trkpt lat="42.42862" lon="0.11196">
        <ele>552.6</ele>
        <time>2017-07-02T12:25:07Z</time>
      </trkpt>
      <trkpt lat="42.4286" lon="0.11203">
        <ele>552.6</ele>
        <time>2017-07-02T12:25:08Z</time>
      </trkpt>
      <trkpt lat="42.42858" lon="0.1121">
        <ele>552.6</ele>
        <time>2017-07-02T12:25:09Z</time>
      </trkpt>
      <trkpt lat="42.42857" lon="0.11217">
        <ele>552.6</ele>
        <time>2017-07-02T12:25:10Z</time>
      </trkpt>
      <trkpt lat="42.42855" lon="0.11224">
        <ele>552.6</ele>
        <time>2017-07-02T12:25:11Z</time>
      </trkpt>
      <trkpt lat="42.42854" lon="0.1123">
        <ele>552.6</ele>
        <time>2017-07-02T12:25:12Z</time>
      </trkpt>
      <trkpt lat="42.42852" lon="0.11236">
        <ele>552.6</ele>
        <time>2017-07-02T12:25:13Z</time>
      </trkpt>
      <trkpt lat="42.4285" lon="0.11244">
        <ele>552.6</ele>
        <time>2017-07-02T12:25:14Z</time>
      </trkpt>
      <trkpt lat="42.42848" lon="0.1125">
        <ele>552.6</ele>
        <time>2017-07-02T12:25:15Z</time>
      </trkpt>
      <trkpt lat="42.42846" lon="0.11257">
        <ele>552.6</ele>
        <time>2017-07-02T12:25:16Z</time>
      </trkpt>
      <trkpt lat="42.42845" lon="0.11264">
        <ele>552.5</ele>
        <time>2017-07-02T12:25:17Z</time>
      </trkpt>
      <trkpt lat="42.42842" lon="0.11271">
        <ele>552.5</ele>
        <time>2017-07-02T12:25:18Z</time>
      </trkpt>
      <trkpt lat="42.42839" lon="0.11278">
        <ele>552.5</ele>
        <time>2017-07-02T12:25:19Z</time>
      </trkpt>
      <trkpt lat="42.42836" lon="0.11285">
        <ele>552.4</ele>
        <time>2017-07-02T12:25:20Z</time>
      </trkpt>
      <trkpt lat="42.42833" lon="0.11292">
        <ele>552.3</ele>
        <time>2017-07-02T12:25:21Z</time>
      </trkpt>
      <trkpt lat="42.4283" lon="0.11298">
        <ele>552.3</ele>
        <time>2017-07-02T12:25:22Z</time>
      </trkpt>
      <trkpt lat="42.42827" lon="0.11305">
        <ele>552.2</ele>
        <time>2017-07-02T12:25:23Z</time>
      </trkpt>
      <trkpt lat="42.42824" lon="0.11312">
        <ele>551.9</ele>
        <time>2017-07-02T12:25:24Z</time>
      </trkpt>
      <trkpt lat="42.42821" lon="0.11318">
        <ele>551.6</ele>
        <time>2017-07-02T12:25:25Z</time>
      </trkpt>
      <trkpt lat="42.42818" lon="0.11326">
        <ele>551.3</ele>
        <time>2017-07-02T12:25:26Z</time>
      </trkpt>
      <trkpt lat="42.42815" lon="0.11332">
        <ele>551.2</ele>
        <time>2017-07-02T12:25:27Z</time>
      </trkpt>
      <trkpt lat="42.42811" lon="0.11339">
        <ele>551.1</ele>
        <time>2017-07-02T12:25:28Z</time>
      </trkpt>
      <trkpt lat="42.42808" lon="0.11345">
        <ele>551</ele>
        <time>2017-07-02T12:25:29Z</time>
      </trkpt>
      <trkpt lat="42.42804" lon="0.11351">
        <ele>550.9</ele>
        <time>2017-07-02T12:25:30Z</time>
      </trkpt>
      <trkpt lat="42.42801" lon="0.11357">
        <ele>550.9</ele>
        <time>2017-07-02T12:25:31Z</time>
      </trkpt>
      <trkpt lat="42.42798" lon="0.11363">
        <ele>550.8</ele>
        <time>2017-07-02T12:25:32Z</time>
      </trkpt>
      <trkpt lat="42.42794" lon="0.11369">
        <ele>550.7</ele>
        <time>2017-07-02T12:25:33Z</time>
      </trkpt>
      <trkpt lat="42.4279" lon="0.11375">
        <ele>550.7</ele>
        <time>2017-07-02T12:25:34Z</time>
      </trkpt>
      <trkpt lat="42.42787" lon="0.11381">
        <ele>550.7</ele>
        <time>2017-07-02T12:25:35Z</time>
      </trkpt>
      <trkpt lat="42.42784" lon="0.11387">
        <ele>550.6</ele>
        <time>2017-07-02T12:25:36Z</time>
      </trkpt>
      <trkpt lat="42.42781" lon="0.11392">
        <ele>550.6</ele>
        <time>2017-07-02T12:25:37Z</time>
      </trkpt>
      <trkpt lat="42.42777" lon="0.11398">
        <ele>550.5</ele>
        <time>2017-07-02T12:25:38Z</time>
      </trkpt>
      <trkpt lat="42.42773" lon="0.11403">
        <ele>550.5</ele>
        <time>2017-07-02T12:25:39Z</time>
      </trkpt>
      <trkpt lat="42.42769" lon="0.11408">
        <ele>550.5</ele>
        <time>2017-07-02T12:25:40Z</time>
      </trkpt>
      <trkpt lat="42.42765" lon="0.11413">
        <ele>550.4</ele>
        <time>2017-07-02T12:25:41Z</time>
      </trkpt>
      <trkpt lat="42.42761" lon="0.11419">
        <ele>550.4</ele>
        <time>2017-07-02T12:25:42Z</time>
      </trkpt>
      <trkpt lat="42.42757" lon="0.11423">
        <ele>550.4</ele>
        <time>2017-07-02T12:25:43Z</time>
      </trkpt>
      <trkpt lat="42.42753" lon="0.11428">
        <ele>550.4</ele>
        <time>2017-07-02T12:25:44Z</time>
      </trkpt>
      <trkpt lat="42.42749" lon="0.11433">
        <ele>550.4</ele>
        <time>2017-07-02T12:25:45Z</time>
      </trkpt>
      <trkpt lat="42.42745" lon="0.11437">
        <ele>550.4</ele>
        <time>2017-07-02T12:25:46Z</time>
      </trkpt>
      <trkpt lat="42.4274" lon="0.11441">
        <ele>550.4</ele>
        <time>2017-07-02T12:25:47Z</time>
      </trkpt>
      <trkpt lat="42.42735" lon="0.11445">
        <ele>550.4</ele>
        <time>2017-07-02T12:25:48Z</time>
      </trkpt>
      <trkpt lat="42.42731" lon="0.1145">
        <ele>550.4</ele>
        <time>2017-07-02T12:25:49Z</time>
      </trkpt>
      <trkpt lat="42.42727" lon="0.11454">
        <ele>550.4</ele>
        <time>2017-07-02T12:25:50Z</time>
      </trkpt>
      <trkpt lat="42.42723" lon="0.11458">
        <ele>550.4</ele>
        <time>2017-07-02T12:25:51Z</time>
      </trkpt>
      <trkpt lat="42.42718" lon="0.11464">
        <ele>550.3</ele>
        <time>2017-07-02T12:25:52Z</time>
      </trkpt>
      <trkpt lat="42.42714" lon="0.11468">
        <ele>550.3</ele>
        <time>2017-07-02T12:25:53Z</time>
      </trkpt>
      <trkpt lat="42.4271" lon="0.11474">
        <ele>550.3</ele>
        <time>2017-07-02T12:25:54Z</time>
      </trkpt>
      <trkpt lat="42.42706" lon="0.11478">
        <ele>550.3</ele>
        <time>2017-07-02T12:25:55Z</time>
      </trkpt>
      <trkpt lat="42.42702" lon="0.11483">
        <ele>550.2</ele>
        <time>2017-07-02T12:25:56Z</time>
      </trkpt>
      <trkpt lat="42.42698" lon="0.11488">
        <ele>550.2</ele>
        <time>2017-07-02T12:25:57Z</time>
      </trkpt>
      <trkpt lat="42.42694" lon="0.11492">
        <ele>550.2</ele>
        <time>2017-07-02T12:25:58Z</time>
      </trkpt>
      <trkpt lat="42.4269" lon="0.11497">
        <ele>550.1</ele>
        <time>2017-07-02T12:25:59Z</time>
      </trkpt>
      <trkpt lat="42.42685" lon="0.11502">
        <ele>550</ele>
        <time>2017-07-02T12:26:00Z</time>
      </trkpt>
      <trkpt lat="42.42681" lon="0.11507">
        <ele>549.7</ele>
        <time>2017-07-02T12:26:01Z</time>
      </trkpt>
      <trkpt lat="42.42676" lon="0.11511">
        <ele>549.4</ele>
        <time>2017-07-02T12:26:02Z</time>
      </trkpt>
      <trkpt lat="42.42672" lon="0.11516">
        <ele>549.2</ele>
        <time>2017-07-02T12:26:03Z</time>
      </trkpt>
      <trkpt lat="42.42668" lon="0.11521">
        <ele>548.9</ele>
        <time>2017-07-02T12:26:04Z</time>
      </trkpt>
      <trkpt lat="42.42664" lon="0.11526">
        <ele>548.8</ele>
        <time>2017-07-02T12:26:05Z</time>
      </trkpt>
      <trkpt lat="42.4266" lon="0.1153">
        <ele>548.8</ele>
        <time>2017-07-02T12:26:06Z</time>
      </trkpt>
      <trkpt lat="42.42656" lon="0.11535">
        <ele>548.7</ele>
        <time>2017-07-02T12:26:07Z</time>
      </trkpt>
      <trkpt lat="42.42651" lon="0.1154">
        <ele>548.7</ele>
        <time>2017-07-02T12:26:08Z</time>
      </trkpt>
      <trkpt lat="42.42647" lon="0.11544">
        <ele>548.6</ele>
        <time>2017-07-02T12:26:09Z</time>
      </trkpt>
      <trkpt lat="42.42643" lon="0.11548">
        <ele>548.6</ele>
        <time>2017-07-02T12:26:10Z</time>
      </trkpt>
      <trkpt lat="42.42638" lon="0.11553">
        <ele>548.5</ele>
        <time>2017-07-02T12:26:11Z</time>
      </trkpt>
      <trkpt lat="42.42634" lon="0.11558">
        <ele>548.5</ele>
        <time>2017-07-02T12:26:12Z</time>
      </trkpt>
      <trkpt lat="42.4263" lon="0.11564">
        <ele>548.5</ele>
        <time>2017-07-02T12:26:13Z</time>
      </trkpt>
      <trkpt lat="42.42627" lon="0.11569">
        <ele>548.4</ele>
        <time>2017-07-02T12:26:14Z</time>
      </trkpt>
      <trkpt lat="42.42622" lon="0.11573">
        <ele>548.4</ele>
        <time>2017-07-02T12:26:15Z</time>
      </trkpt>
      <trkpt lat="42.42618" lon="0.11578">
        <ele>548.4</ele>
        <time>2017-07-02T12:26:16Z</time>
      </trkpt>
      <trkpt lat="42.42614" lon="0.11582">
        <ele>548.4</ele>
        <time>2017-07-02T12:26:17Z</time>
      </trkpt>
      <trkpt lat="42.4261" lon="0.11586">
        <ele>548.4</ele>
        <time>2017-07-02T12:26:18Z</time>
      </trkpt>
      <trkpt lat="42.42606" lon="0.11591">
        <ele>548.4</ele>
        <time>2017-07-02T12:26:19Z</time>
      </trkpt>
      <trkpt lat="42.42602" lon="0.11595">
        <ele>548.4</ele>
        <time>2017-07-02T12:26:20Z</time>
      </trkpt>
      <trkpt lat="42.42598" lon="0.11599">
        <ele>548.4</ele>
        <time>2017-07-02T12:26:21Z</time>
      </trkpt>
      <trkpt lat="42.42594" lon="0.11603">
        <ele>548.4</ele>
        <time>2017-07-02T12:26:22Z</time>
      </trkpt>
      <trkpt lat="42.4259" lon="0.11608">
        <ele>548.4</ele>
        <time>2017-07-02T12:26:23Z</time>
      </trkpt>
      <trkpt lat="42.42586" lon="0.11612">
        <ele>548.4</ele>
        <time>2017-07-02T12:26:24Z</time>
      </trkpt>
      <trkpt lat="42.42582" lon="0.11617">
        <ele>548.4</ele>
        <time>2017-07-02T12:26:25Z</time>
      </trkpt>
      <trkpt lat="42.42578" lon="0.11621">
        <ele>548.4</ele>
        <time>2017-07-02T12:26:26Z</time>
      </trkpt>
      <trkpt lat="42.42574" lon="0.11626">
        <ele>548.4</ele>
        <time>2017-07-02T12:26:27Z</time>
      </trkpt>
      <trkpt lat="42.4257" lon="0.11631">
        <ele>548.4</ele>
        <time>2017-07-02T12:26:28Z</time>
      </trkpt>
      <trkpt lat="42.42566" lon="0.11636">
        <ele>548.4</ele>
        <time>2017-07-02T12:26:29Z</time>
      </trkpt>
      <trkpt lat="42.42562" lon="0.11641">
        <ele>548.4</ele>
        <time>2017-07-02T12:26:30Z</time>
      </trkpt>
      <trkpt lat="42.42558" lon="0.11646">
        <ele>548.4</ele>
        <time>2017-07-02T12:26:31Z</time>
      </trkpt>
      <trkpt lat="42.42554" lon="0.11651">
        <ele>548.4</ele>
        <time>2017-07-02T12:26:32Z</time>
      </trkpt>
      <trkpt lat="42.4255" lon="0.11656">
        <ele>548.4</ele>
        <time>2017-07-02T12:26:33Z</time>
      </trkpt>
      <trkpt lat="42.42546" lon="0.11661">
        <ele>548.3</ele>
        <time>2017-07-02T12:26:34Z</time>
      </trkpt>
      <trkpt lat="42.42541" lon="0.11666">
        <ele>548.2</ele>
        <time>2017-07-02T12:26:35Z</time>
      </trkpt>
      <trkpt lat="42.42537" lon="0.11671">
        <ele>548.2</ele>
        <time>2017-07-02T12:26:36Z</time>
      </trkpt>
      <trkpt lat="42.42532" lon="0.11676">
        <ele>548.1</ele>
        <time>2017-07-02T12:26:37Z</time>
      </trkpt>
      <trkpt lat="42.42527" lon="0.11681">
        <ele>547.8</ele>
        <time>2017-07-02T12:26:38Z</time>
      </trkpt>
      <trkpt lat="42.42522" lon="0.11686">
        <ele>547.5</ele>
        <time>2017-07-02T12:26:39Z</time>
      </trkpt>
      <trkpt lat="42.42518" lon="0.11691">
        <ele>547.1</ele>
        <time>2017-07-02T12:26:40Z</time>
      </trkpt>
      <trkpt lat="42.42513" lon="0.11697">
        <ele>546.9</ele>
        <time>2017-07-02T12:26:41Z</time>
      </trkpt>
      <trkpt lat="42.42509" lon="0.11702">
        <ele>546.8</ele>
        <time>2017-07-02T12:26:42Z</time>
      </trkpt>
      <trkpt lat="42.42504" lon="0.11706">
        <ele>546.7</ele>
        <time>2017-07-02T12:26:43Z</time>
      </trkpt>
      <trkpt lat="42.42498" lon="0.11711">
        <ele>546.6</ele>
        <time>2017-07-02T12:26:44Z</time>
      </trkpt>
      <trkpt lat="42.42494" lon="0.11715">
        <ele>546.5</ele>
        <time>2017-07-02T12:26:45Z</time>
      </trkpt>
      <trkpt lat="42.42489" lon="0.1172">
        <ele>546.3</ele>
        <time>2017-07-02T12:26:46Z</time>
      </trkpt>
      <trkpt lat="42.42483" lon="0.11724">
        <ele>546.3</ele>
        <time>2017-07-02T12:26:47Z</time>
      </trkpt>
      <trkpt lat="42.42478" lon="0.11728">
        <ele>546.3</ele>
        <time>2017-07-02T12:26:48Z</time>
      </trkpt>
      <trkpt lat="42.42474" lon="0.1173">
        <ele>546.2</ele>
        <time>2017-07-02T12:26:49Z</time>
      </trkpt>
      <trkpt lat="42.4247" lon="0.11736">
        <ele>546.2</ele>
        <time>2017-07-02T12:26:50Z</time>
      </trkpt>
      <trkpt lat="42.42465" lon="0.11739">
        <ele>546.2</ele>
        <time>2017-07-02T12:26:51Z</time>
      </trkpt>
      <trkpt lat="42.4246" lon="0.11743">
        <ele>546.2</ele>
        <time>2017-07-02T12:26:52Z</time>
      </trkpt>
      <trkpt lat="42.42454" lon="0.11748">
        <ele>546.2</ele>
        <time>2017-07-02T12:26:53Z</time>
      </trkpt>
      <trkpt lat="42.42449" lon="0.11753">
        <ele>546.2</ele>
        <time>2017-07-02T12:26:54Z</time>
      </trkpt>
      <trkpt lat="42.42444" lon="0.11758">
        <ele>546.2</ele>
        <time>2017-07-02T12:26:55Z</time>
      </trkpt>
      <trkpt lat="42.42439" lon="0.11762">
        <ele>546.2</ele>
        <time>2017-07-02T12:26:56Z</time>
      </trkpt>
      <trkpt lat="42.42433" lon="0.11766">
        <ele>546.2</ele>
        <time>2017-07-02T12:26:57Z</time>
      </trkpt>
      <trkpt lat="42.42428" lon="0.1177">
        <ele>546.2</ele>
        <time>2017-07-02T12:26:58Z</time>
      </trkpt>
      <trkpt lat="42.42422" lon="0.11775">
        <ele>546.2</ele>
        <time>2017-07-02T12:26:59Z</time>
      </trkpt>
      <trkpt lat="42.42417" lon="0.11779">
        <ele>546.2</ele>
        <time>2017-07-02T12:27:00Z</time>
      </trkpt>
      <trkpt lat="42.42412" lon="0.11784">
        <ele>546.2</ele>
        <time>2017-07-02T12:27:01Z</time>
      </trkpt>
      <trkpt lat="42.42406" lon="0.11789">
        <ele>546.2</ele>
        <time>2017-07-02T12:27:02Z</time>
      </trkpt>
      <trkpt lat="42.42401" lon="0.11794">
        <ele>546.2</ele>
        <time>2017-07-02T12:27:03Z</time>
      </trkpt>
      <trkpt lat="42.42395" lon="0.11797">
        <ele>546.2</ele>
        <time>2017-07-02T12:27:04Z</time>
      </trkpt>
      <trkpt lat="42.42389" lon="0.11802">
        <ele>546.2</ele>
        <time>2017-07-02T12:27:05Z</time>
      </trkpt>
      <trkpt lat="42.42384" lon="0.11807">
        <ele>546.2</ele>
        <time>2017-07-02T12:27:06Z</time>
      </trkpt>
      <trkpt lat="42.42379" lon="0.11811">
        <ele>546.2</ele>
        <time>2017-07-02T12:27:07Z</time>
      </trkpt>
      <trkpt lat="42.42376" lon="0.11815">
        <ele>546.2</ele>
        <time>2017-07-02T12:27:08Z</time>
      </trkpt>
      <trkpt lat="42.42371" lon="0.11821">
        <ele>546.2</ele>
        <time>2017-07-02T12:27:09Z</time>
      </trkpt>
      <trkpt lat="42.42365" lon="0.11826">
        <ele>546.2</ele>
        <time>2017-07-02T12:27:10Z</time>
      </trkpt>
      <trkpt lat="42.42361" lon="0.11832">
        <ele>546.2</ele>
        <time>2017-07-02T12:27:11Z</time>
      </trkpt>
      <trkpt lat="42.42357" lon="0.11837">
        <ele>546.2</ele>
        <time>2017-07-02T12:27:12Z</time>
      </trkpt>
      <trkpt lat="42.42354" lon="0.11843">
        <ele>546.2</ele>
        <time>2017-07-02T12:27:13Z</time>
      </trkpt>
      <trkpt lat="42.42349" lon="0.11848">
        <ele>546.2</ele>
        <time>2017-07-02T12:27:14Z</time>
      </trkpt>
      <trkpt lat="42.42345" lon="0.11853">
        <ele>546.2</ele>
        <time>2017-07-02T12:27:15Z</time>
      </trkpt>
      <trkpt lat="42.4234" lon="0.11859">
        <ele>546.2</ele>
        <time>2017-07-02T12:27:16Z</time>
      </trkpt>
      <trkpt lat="42.42337" lon="0.11866">
        <ele>546.2</ele>
        <time>2017-07-02T12:27:17Z</time>
      </trkpt>
      <trkpt lat="42.42333" lon="0.11872">
        <ele>546.2</ele>
        <time>2017-07-02T12:27:18Z</time>
      </trkpt>
      <trkpt lat="42.42329" lon="0.11877">
        <ele>546.1</ele>
        <time>2017-07-02T12:27:19Z</time>
      </trkpt>
      <trkpt lat="42.42325" lon="0.11884">
        <ele>546.1</ele>
        <time>2017-07-02T12:27:20Z</time>
      </trkpt>
      <trkpt lat="42.42321" lon="0.11889">
        <ele>546.1</ele>
        <time>2017-07-02T12:27:21Z</time>
      </trkpt>
      <trkpt lat="42.42318" lon="0.11895">
        <ele>546.1</ele>
        <time>2017-07-02T12:27:22Z</time>
      </trkpt>
      <trkpt lat="42.42314" lon="0.11901">
        <ele>546.1</ele>
        <time>2017-07-02T12:27:23Z</time>
      </trkpt>
      <trkpt lat="42.42311" lon="0.11907">
        <ele>546</ele>
        <time>2017-07-02T12:27:24Z</time>
      </trkpt>
      <trkpt lat="42.42307" lon="0.11913">
        <ele>546</ele>
        <time>2017-07-02T12:27:25Z</time>
      </trkpt>
      <trkpt lat="42.42303" lon="0.1192">
        <ele>546</ele>
        <time>2017-07-02T12:27:26Z</time>
      </trkpt>
      <trkpt lat="42.423" lon="0.11926">
        <ele>545.9</ele>
        <time>2017-07-02T12:27:27Z</time>
      </trkpt>
      <trkpt lat="42.42296" lon="0.11932">
        <ele>545.8</ele>
        <time>2017-07-02T12:27:28Z</time>
      </trkpt>
      <trkpt lat="42.42292" lon="0.11938">
        <ele>545.8</ele>
        <time>2017-07-02T12:27:29Z</time>
      </trkpt>
      <trkpt lat="42.42289" lon="0.11944">
        <ele>545.5</ele>
        <time>2017-07-02T12:27:30Z</time>
      </trkpt>
      <trkpt lat="42.42285" lon="0.11951">
        <ele>545.2</ele>
        <time>2017-07-02T12:27:31Z</time>
      </trkpt>
      <trkpt lat="42.42282" lon="0.11957">
        <ele>545</ele>
        <time>2017-07-02T12:27:32Z</time>
      </trkpt>
      <trkpt lat="42.42278" lon="0.11964">
        <ele>544.8</ele>
        <time>2017-07-02T12:27:33Z</time>
      </trkpt>
      <trkpt lat="42.42275" lon="0.1197">
        <ele>544.7</ele>
        <time>2017-07-02T12:27:34Z</time>
      </trkpt>
      <trkpt lat="42.42271" lon="0.11977">
        <ele>544.6</ele>
        <time>2017-07-02T12:27:35Z</time>
      </trkpt>
      <trkpt lat="42.42267" lon="0.11983">
        <ele>544.5</ele>
        <time>2017-07-02T12:27:36Z</time>
      </trkpt>
      <trkpt lat="42.42264" lon="0.1199">
        <ele>544.4</ele>
        <time>2017-07-02T12:27:37Z</time>
      </trkpt>
      <trkpt lat="42.4226" lon="0.11997">
        <ele>544.3</ele>
        <time>2017-07-02T12:27:38Z</time>
      </trkpt>
      <trkpt lat="42.42256" lon="0.12004">
        <ele>544.3</ele>
        <time>2017-07-02T12:27:39Z</time>
      </trkpt>
      <trkpt lat="42.42253" lon="0.1201">
        <ele>544.2</ele>
        <time>2017-07-02T12:27:40Z</time>
      </trkpt>
      <trkpt lat="42.42249" lon="0.12017">
        <ele>544.2</ele>
        <time>2017-07-02T12:27:41Z</time>
      </trkpt>
      <trkpt lat="42.42245" lon="0.12024">
        <ele>544.1</ele>
        <time>2017-07-02T12:27:42Z</time>
      </trkpt>
      <trkpt lat="42.42241" lon="0.1203">
        <ele>544.1</ele>
        <time>2017-07-02T12:27:43Z</time>
      </trkpt>
      <trkpt lat="42.42237" lon="0.12037">
        <ele>544.1</ele>
        <time>2017-07-02T12:27:44Z</time>
      </trkpt>
      <trkpt lat="42.42233" lon="0.12043">
        <ele>544</ele>
        <time>2017-07-02T12:27:45Z</time>
      </trkpt>
      <trkpt lat="42.42229" lon="0.1205">
        <ele>544</ele>
        <time>2017-07-02T12:27:46Z</time>
      </trkpt>
      <trkpt lat="42.42226" lon="0.12056">
        <ele>543.9</ele>
        <time>2017-07-02T12:27:47Z</time>
      </trkpt>
      <trkpt lat="42.42222" lon="0.12063">
        <ele>543.8</ele>
        <time>2017-07-02T12:27:48Z</time>
      </trkpt>
      <trkpt lat="42.42219" lon="0.12069">
        <ele>543.7</ele>
        <time>2017-07-02T12:27:49Z</time>
      </trkpt>
      <trkpt lat="42.42215" lon="0.12076">
        <ele>543.6</ele>
        <time>2017-07-02T12:27:50Z</time>
      </trkpt>
      <trkpt lat="42.42211" lon="0.12083">
        <ele>543.4</ele>
        <time>2017-07-02T12:27:51Z</time>
      </trkpt>
      <trkpt lat="42.42207" lon="0.12088">
        <ele>543.1</ele>
        <time>2017-07-02T12:27:52Z</time>
      </trkpt>
      <trkpt lat="42.42203" lon="0.12094">
        <ele>542.8</ele>
        <time>2017-07-02T12:27:53Z</time>
      </trkpt>
      <trkpt lat="42.422" lon="0.121">
        <ele>542.6</ele>
        <time>2017-07-02T12:27:54Z</time>
      </trkpt>
      <trkpt lat="42.42196" lon="0.12107">
        <ele>542.5</ele>
        <time>2017-07-02T12:27:55Z</time>
      </trkpt>
      <trkpt lat="42.42192" lon="0.12113">
        <ele>542.4</ele>
        <time>2017-07-02T12:27:56Z</time>
      </trkpt>
      <trkpt lat="42.42188" lon="0.12119">
        <ele>542.3</ele>
        <time>2017-07-02T12:27:57Z</time>
      </trkpt>
      <trkpt lat="42.42185" lon="0.12126">
        <ele>542.2</ele>
        <time>2017-07-02T12:27:58Z</time>
      </trkpt>
      <trkpt lat="42.42181" lon="0.12132">
        <ele>542.1</ele>
        <time>2017-07-02T12:27:59Z</time>
      </trkpt>
      <trkpt lat="42.42177" lon="0.12139">
        <ele>542.1</ele>
        <time>2017-07-02T12:28:00Z</time>
      </trkpt>
      <trkpt lat="42.42174" lon="0.12145">
        <ele>542.1</ele>
        <time>2017-07-02T12:28:01Z</time>
      </trkpt>
      <trkpt lat="42.4217" lon="0.12152">
        <ele>542.1</ele>
        <time>2017-07-02T12:28:02Z</time>
      </trkpt>
      <trkpt lat="42.42166" lon="0.12158">
        <ele>542</ele>
        <time>2017-07-02T12:28:03Z</time>
      </trkpt>
      <trkpt lat="42.42162" lon="0.12164">
        <ele>542</ele>
        <time>2017-07-02T12:28:04Z</time>
      </trkpt>
      <trkpt lat="42.42158" lon="0.1217">
        <ele>542</ele>
        <time>2017-07-02T12:28:05Z</time>
      </trkpt>
      <trkpt lat="42.42155" lon="0.12176">
        <ele>542</ele>
        <time>2017-07-02T12:28:06Z</time>
      </trkpt>
      <trkpt lat="42.42151" lon="0.12182">
        <ele>542</ele>
        <time>2017-07-02T12:28:07Z</time>
      </trkpt>
      <trkpt lat="42.42147" lon="0.12188">
        <ele>542</ele>
        <time>2017-07-02T12:28:08Z</time>
      </trkpt>
      <trkpt lat="42.42144" lon="0.12196">
        <ele>542</ele>
        <time>2017-07-02T12:28:09Z</time>
      </trkpt>
      <trkpt lat="42.4214" lon="0.12202">
        <ele>542</ele>
        <time>2017-07-02T12:28:10Z</time>
      </trkpt>
      <trkpt lat="42.42136" lon="0.12209">
        <ele>542</ele>
        <time>2017-07-02T12:28:11Z</time>
      </trkpt>
      <trkpt lat="42.42132" lon="0.12215">
        <ele>542</ele>
        <time>2017-07-02T12:28:12Z</time>
      </trkpt>
      <trkpt lat="42.42128" lon="0.12221">
        <ele>541.9</ele>
        <time>2017-07-02T12:28:13Z</time>
      </trkpt>
      <trkpt lat="42.42124" lon="0.12228">
        <ele>541.9</ele>
        <time>2017-07-02T12:28:14Z</time>
      </trkpt>
      <trkpt lat="42.4212" lon="0.12235">
        <ele>541.9</ele>
        <time>2017-07-02T12:28:15Z</time>
      </trkpt>
      <trkpt lat="42.42116" lon="0.12241">
        <ele>541.9</ele>
        <time>2017-07-02T12:28:16Z</time>
      </trkpt>
      <trkpt lat="42.42113" lon="0.12247">
        <ele>541.9</ele>
        <time>2017-07-02T12:28:17Z</time>
      </trkpt>
      <trkpt lat="42.4211" lon="0.12254">
        <ele>541.8</ele>
        <time>2017-07-02T12:28:18Z</time>
      </trkpt>
      <trkpt lat="42.42107" lon="0.12261">
        <ele>541.8</ele>
        <time>2017-07-02T12:28:19Z</time>
      </trkpt>
      <trkpt lat="42.42103" lon="0.12267">
        <ele>541.8</ele>
        <time>2017-07-02T12:28:20Z</time>
      </trkpt>
      <trkpt lat="42.42099" lon="0.12274">
        <ele>541.7</ele>
        <time>2017-07-02T12:28:21Z</time>
      </trkpt>
      <trkpt lat="42.42096" lon="0.1228">
        <ele>541.6</ele>
        <time>2017-07-02T12:28:22Z</time>
      </trkpt>
      <trkpt lat="42.42093" lon="0.12287">
        <ele>541.2</ele>
        <time>2017-07-02T12:28:23Z</time>
      </trkpt>
      <trkpt lat="42.42089" lon="0.12293">
        <ele>540.9</ele>
        <time>2017-07-02T12:28:24Z</time>
      </trkpt>
      <trkpt lat="42.42086" lon="0.12299">
        <ele>540.6</ele>
        <time>2017-07-02T12:28:25Z</time>
      </trkpt>
      <trkpt lat="42.42083" lon="0.12306">
        <ele>540.5</ele>
        <time>2017-07-02T12:28:26Z</time>
      </trkpt>
      <trkpt lat="42.4208" lon="0.12313">
        <ele>540.4</ele>
        <time>2017-07-02T12:28:27Z</time>
      </trkpt>
      <trkpt lat="42.42077" lon="0.12319">
        <ele>540.3</ele>
        <time>2017-07-02T12:28:28Z</time>
      </trkpt>
      <trkpt lat="42.42073" lon="0.12324">
        <ele>540.2</ele>
        <time>2017-07-02T12:28:29Z</time>
      </trkpt>
      <trkpt lat="42.42069" lon="0.1233">
        <ele>540.1</ele>
        <time>2017-07-02T12:28:30Z</time>
      </trkpt>
      <trkpt lat="42.42065" lon="0.12336">
        <ele>540.1</ele>
        <time>2017-07-02T12:28:31Z</time>
      </trkpt>
      <trkpt lat="42.42062" lon="0.12342">
        <ele>540.1</ele>
        <time>2017-07-02T12:28:32Z</time>
      </trkpt>
      <trkpt lat="42.42058" lon="0.12348">
        <ele>540</ele>
        <time>2017-07-02T12:28:33Z</time>
      </trkpt>
      <trkpt lat="42.42054" lon="0.12354">
        <ele>540</ele>
        <time>2017-07-02T12:28:34Z</time>
      </trkpt>
      <trkpt lat="42.42051" lon="0.12361">
        <ele>540</ele>
        <time>2017-07-02T12:28:35Z</time>
      </trkpt>
      <trkpt lat="42.42048" lon="0.12366">
        <ele>540</ele>
        <time>2017-07-02T12:28:36Z</time>
      </trkpt>
      <trkpt lat="42.42045" lon="0.12372">
        <ele>540</ele>
        <time>2017-07-02T12:28:37Z</time>
      </trkpt>
      <trkpt lat="42.42041" lon="0.12379">
        <ele>540</ele>
        <time>2017-07-02T12:28:38Z</time>
      </trkpt>
      <trkpt lat="42.42038" lon="0.12385">
        <ele>540</ele>
        <time>2017-07-02T12:28:39Z</time>
      </trkpt>
      <trkpt lat="42.42034" lon="0.1239">
        <ele>540</ele>
        <time>2017-07-02T12:28:40Z</time>
      </trkpt>
      <trkpt lat="42.42031" lon="0.12396">
        <ele>540</ele>
        <time>2017-07-02T12:28:41Z</time>
      </trkpt>
      <trkpt lat="42.42027" lon="0.12402">
        <ele>540</ele>
        <time>2017-07-02T12:28:42Z</time>
      </trkpt>
      <trkpt lat="42.42024" lon="0.12408">
        <ele>540</ele>
        <time>2017-07-02T12:28:43Z</time>
      </trkpt>
      <trkpt lat="42.42021" lon="0.12413">
        <ele>540</ele>
        <time>2017-07-02T12:28:44Z</time>
      </trkpt>
      <trkpt lat="42.42016" lon="0.12419">
        <ele>540</ele>
        <time>2017-07-02T12:28:45Z</time>
      </trkpt>
      <trkpt lat="42.42013" lon="0.12426">
        <ele>540</ele>
        <time>2017-07-02T12:28:46Z</time>
      </trkpt>
      <trkpt lat="42.42009" lon="0.12432">
        <ele>540</ele>
        <time>2017-07-02T12:28:47Z</time>
      </trkpt>
      <trkpt lat="42.42006" lon="0.12439">
        <ele>540</ele>
        <time>2017-07-02T12:28:48Z</time>
      </trkpt>
      <trkpt lat="42.42002" lon="0.12444">
        <ele>540</ele>
        <time>2017-07-02T12:28:49Z</time>
      </trkpt>
      <trkpt lat="42.41998" lon="0.1245">
        <ele>540</ele>
        <time>2017-07-02T12:28:50Z</time>
      </trkpt>
      <trkpt lat="42.41995" lon="0.12456">
        <ele>540</ele>
        <time>2017-07-02T12:28:51Z</time>
      </trkpt>
      <trkpt lat="42.41991" lon="0.12462">
        <ele>540</ele>
        <time>2017-07-02T12:28:52Z</time>
      </trkpt>
      <trkpt lat="42.41987" lon="0.12468">
        <ele>540</ele>
        <time>2017-07-02T12:28:53Z</time>
      </trkpt>
      <trkpt lat="42.41984" lon="0.12473">
        <ele>540</ele>
        <time>2017-07-02T12:28:54Z</time>
      </trkpt>
      <trkpt lat="42.41981" lon="0.12479">
        <ele>540</ele>
        <time>2017-07-02T12:28:55Z</time>
      </trkpt>
      <trkpt lat="42.41977" lon="0.12484">
        <ele>539.9</ele>
        <time>2017-07-02T12:28:56Z</time>
      </trkpt>
      <trkpt lat="42.41973" lon="0.12491">
        <ele>539.9</ele>
        <time>2017-07-02T12:28:57Z</time>
      </trkpt>
      <trkpt lat="42.4197" lon="0.12497">
        <ele>539.9</ele>
        <time>2017-07-02T12:28:58Z</time>
      </trkpt>
      <trkpt lat="42.41966" lon="0.12503">
        <ele>539.9</ele>
        <time>2017-07-02T12:28:59Z</time>
      </trkpt>
      <trkpt lat="42.41962" lon="0.12509">
        <ele>539.8</ele>
        <time>2017-07-02T12:29:00Z</time>
      </trkpt>
      <trkpt lat="42.41959" lon="0.12515">
        <ele>539.8</ele>
        <time>2017-07-02T12:29:01Z</time>
      </trkpt>
      <trkpt lat="42.41956" lon="0.12521">
        <ele>539.8</ele>
        <time>2017-07-02T12:29:02Z</time>
      </trkpt>
      <trkpt lat="42.41953" lon="0.12527">
        <ele>539.6</ele>
        <time>2017-07-02T12:29:03Z</time>
      </trkpt>
      <trkpt lat="42.41949" lon="0.12533">
        <ele>539.4</ele>
        <time>2017-07-02T12:29:04Z</time>
      </trkpt>
      <trkpt lat="42.41946" lon="0.1254">
        <ele>539</ele>
        <time>2017-07-02T12:29:05Z</time>
      </trkpt>
      <trkpt lat="42.41941" lon="0.12546">
        <ele>538.7</ele>
        <time>2017-07-02T12:29:06Z</time>
      </trkpt>
      <trkpt lat="42.41938" lon="0.12552">
        <ele>538.5</ele>
        <time>2017-07-02T12:29:07Z</time>
      </trkpt>
      <trkpt lat="42.41936" lon="0.12559">
        <ele>538.4</ele>
        <time>2017-07-02T12:29:08Z</time>
      </trkpt>
      <trkpt lat="42.41932" lon="0.12565">
        <ele>538.2</ele>
        <time>2017-07-02T12:29:09Z</time>
      </trkpt>
      <trkpt lat="42.41928" lon="0.12571">
        <ele>538.1</ele>
        <time>2017-07-02T12:29:10Z</time>
      </trkpt>
      <trkpt lat="42.41924" lon="0.12578">
        <ele>538.1</ele>
        <time>2017-07-02T12:29:11Z</time>
      </trkpt>
      <trkpt lat="42.41921" lon="0.12584">
        <ele>538</ele>
        <time>2017-07-02T12:29:12Z</time>
      </trkpt>
      <trkpt lat="42.41917" lon="0.12589">
        <ele>538</ele>
        <time>2017-07-02T12:29:13Z</time>
      </trkpt>
      <trkpt lat="42.41913" lon="0.12593">
        <ele>537.9</ele>
        <time>2017-07-02T12:29:14Z</time>
      </trkpt>
      <trkpt lat="42.41908" lon="0.12594">
        <ele>537.9</ele>
        <time>2017-07-02T12:29:15Z</time>
      </trkpt>
      <trkpt lat="42.41903" lon="0.12594">
        <ele>537.8</ele>
        <time>2017-07-02T12:29:16Z</time>
      </trkpt>
      <trkpt lat="42.41897" lon="0.12594">
        <ele>537.7</ele>
        <time>2017-07-02T12:29:17Z</time>
      </trkpt>
      <trkpt lat="42.41891" lon="0.12596">
        <ele>537.6</ele>
        <time>2017-07-02T12:29:18Z</time>
      </trkpt>
      <trkpt lat="42.41886" lon="0.12598">
        <ele>537.5</ele>
        <time>2017-07-02T12:29:19Z</time>
      </trkpt>
      <trkpt lat="42.41882" lon="0.12601">
        <ele>537.3</ele>
        <time>2017-07-02T12:29:20Z</time>
      </trkpt>
      <trkpt lat="42.41878" lon="0.12605">
        <ele>537</ele>
        <time>2017-07-02T12:29:21Z</time>
      </trkpt>
      <trkpt lat="42.41874" lon="0.1261">
        <ele>536.7</ele>
        <time>2017-07-02T12:29:22Z</time>
      </trkpt>
      <trkpt lat="42.4187" lon="0.12613">
        <ele>536.4</ele>
        <time>2017-07-02T12:29:23Z</time>
      </trkpt>
      <trkpt lat="42.41865" lon="0.12616">
        <ele>536.1</ele>
        <time>2017-07-02T12:29:24Z</time>
      </trkpt>
      <trkpt lat="42.41859" lon="0.12621">
        <ele>536.1</ele>
        <time>2017-07-02T12:29:25Z</time>
      </trkpt>
      <trkpt lat="42.41854" lon="0.12624">
        <ele>536</ele>
        <time>2017-07-02T12:29:26Z</time>
      </trkpt>
      <trkpt lat="42.4185" lon="0.12627">
        <ele>535.9</ele>
        <time>2017-07-02T12:29:27Z</time>
      </trkpt>
      <trkpt lat="42.41845" lon="0.12629">
        <ele>535.9</ele>
        <time>2017-07-02T12:29:28Z</time>
      </trkpt>
      <trkpt lat="42.41841" lon="0.12634">
        <ele>535.9</ele>
        <time>2017-07-02T12:29:29Z</time>
      </trkpt>
      <trkpt lat="42.41837" lon="0.1264">
        <ele>535.8</ele>
        <time>2017-07-02T12:29:30Z</time>
      </trkpt>
      <trkpt lat="42.41834" lon="0.12646">
        <ele>535.8</ele>
        <time>2017-07-02T12:29:31Z</time>
      </trkpt>
      <trkpt lat="42.4183" lon="0.12652">
        <ele>535.8</ele>
        <time>2017-07-02T12:29:32Z</time>
      </trkpt>
      <trkpt lat="42.41827" lon="0.12659">
        <ele>535.8</ele>
        <time>2017-07-02T12:29:33Z</time>
      </trkpt>
      <trkpt lat="42.41824" lon="0.12666">
        <ele>535.7</ele>
        <time>2017-07-02T12:29:34Z</time>
      </trkpt>
      <trkpt lat="42.4182" lon="0.12673">
        <ele>535.7</ele>
        <time>2017-07-02T12:29:35Z</time>
      </trkpt>
      <trkpt lat="42.41818" lon="0.12679">
        <ele>535.7</ele>
        <time>2017-07-02T12:29:36Z</time>
      </trkpt>
      <trkpt lat="42.41814" lon="0.12687">
        <ele>535.7</ele>
        <time>2017-07-02T12:29:37Z</time>
      </trkpt>
      <trkpt lat="42.41811" lon="0.12694">
        <ele>535.7</ele>
        <time>2017-07-02T12:29:38Z</time>
      </trkpt>
      <trkpt lat="42.41808" lon="0.12701">
        <ele>535.7</ele>
        <time>2017-07-02T12:29:39Z</time>
      </trkpt>
      <trkpt lat="42.41803" lon="0.12707">
        <ele>535.7</ele>
        <time>2017-07-02T12:29:40Z</time>
      </trkpt>
      <trkpt lat="42.41798" lon="0.12713">
        <ele>535.7</ele>
        <time>2017-07-02T12:29:41Z</time>
      </trkpt>
      <trkpt lat="42.41793" lon="0.12719">
        <ele>535.7</ele>
        <time>2017-07-02T12:29:42Z</time>
      </trkpt>
      <trkpt lat="42.41787" lon="0.12724">
        <ele>535.7</ele>
        <time>2017-07-02T12:29:43Z</time>
      </trkpt>
      <trkpt lat="42.41782" lon="0.12729">
        <ele>535.7</ele>
        <time>2017-07-02T12:29:44Z</time>
      </trkpt>
      <trkpt lat="42.41778" lon="0.12734">
        <ele>535.7</ele>
        <time>2017-07-02T12:29:45Z</time>
      </trkpt>
      <trkpt lat="42.41773" lon="0.12739">
        <ele>535.7</ele>
        <time>2017-07-02T12:29:46Z</time>
      </trkpt>
      <trkpt lat="42.41768" lon="0.12743">
        <ele>535.7</ele>
        <time>2017-07-02T12:29:47Z</time>
      </trkpt>
      <trkpt lat="42.41764" lon="0.12749">
        <ele>535.7</ele>
        <time>2017-07-02T12:29:48Z</time>
      </trkpt>
      <trkpt lat="42.41759" lon="0.12754">
        <ele>535.8</ele>
        <time>2017-07-02T12:29:49Z</time>
      </trkpt>
      <trkpt lat="42.41755" lon="0.1276">
        <ele>535.8</ele>
        <time>2017-07-02T12:29:50Z</time>
      </trkpt>
      <trkpt lat="42.4175" lon="0.12766">
        <ele>535.8</ele>
        <time>2017-07-02T12:29:51Z</time>
      </trkpt>
      <trkpt lat="42.41746" lon="0.12772">
        <ele>535.8</ele>
        <time>2017-07-02T12:29:52Z</time>
      </trkpt>
      <trkpt lat="42.41742" lon="0.12777">
        <ele>535.8</ele>
        <time>2017-07-02T12:29:53Z</time>
      </trkpt>
      <trkpt lat="42.41738" lon="0.12783">
        <ele>535.8</ele>
        <time>2017-07-02T12:29:54Z</time>
      </trkpt>
      <trkpt lat="42.41734" lon="0.12788">
        <ele>535.8</ele>
        <time>2017-07-02T12:29:55Z</time>
      </trkpt>
      <trkpt lat="42.41732" lon="0.12794">
        <ele>535.8</ele>
        <time>2017-07-02T12:29:56Z</time>
      </trkpt>
      <trkpt lat="42.4173" lon="0.12801">
        <ele>535.8</ele>
        <time>2017-07-02T12:29:57Z</time>
      </trkpt>
      <trkpt lat="42.41727" lon="0.12807">
        <ele>535.8</ele>
        <time>2017-07-02T12:29:58Z</time>
      </trkpt>
      <trkpt lat="42.41725" lon="0.12814">
        <ele>535.8</ele>
        <time>2017-07-02T12:29:59Z</time>
      </trkpt>
      <trkpt lat="42.41723" lon="0.12821">
        <ele>535.8</ele>
        <time>2017-07-02T12:30:00Z</time>
      </trkpt>
      <trkpt lat="42.41722" lon="0.12829">
        <ele>535.8</ele>
        <time>2017-07-02T12:30:01Z</time>
      </trkpt>
      <trkpt lat="42.4172" lon="0.12836">
        <ele>535.8</ele>
        <time>2017-07-02T12:30:02Z</time>
      </trkpt>
      <trkpt lat="42.41716" lon="0.12843">
        <ele>535.8</ele>
        <time>2017-07-02T12:30:03Z</time>
      </trkpt>
      <trkpt lat="42.41712" lon="0.12849">
        <ele>535.8</ele>
        <time>2017-07-02T12:30:04Z</time>
      </trkpt>
      <trkpt lat="42.4171" lon="0.12856">
        <ele>535.8</ele>
        <time>2017-07-02T12:30:05Z</time>
      </trkpt>
      <trkpt lat="42.41706" lon="0.12861">
        <ele>535.8</ele>
        <time>2017-07-02T12:30:06Z</time>
      </trkpt>
      <trkpt lat="42.41702" lon="0.12866">
        <ele>535.8</ele>
        <time>2017-07-02T12:30:07Z</time>
      </trkpt>
      <trkpt lat="42.41698" lon="0.12871">
        <ele>535.8</ele>
        <time>2017-07-02T12:30:08Z</time>
      </trkpt>
      <trkpt lat="42.41694" lon="0.12876">
        <ele>535.8</ele>
        <time>2017-07-02T12:30:09Z</time>
      </trkpt>
      <trkpt lat="42.41689" lon="0.12878">
        <ele>535.8</ele>
        <time>2017-07-02T12:30:10Z</time>
      </trkpt>
      <trkpt lat="42.41684" lon="0.12879">
        <ele>535.8</ele>
        <time>2017-07-02T12:30:11Z</time>
      </trkpt>
      <trkpt lat="42.41679" lon="0.12879">
        <ele>535.8</ele>
        <time>2017-07-02T12:30:12Z</time>
      </trkpt>
      <trkpt lat="42.41674" lon="0.12875">
        <ele>535.9</ele>
        <time>2017-07-02T12:30:13Z</time>
      </trkpt>
      <trkpt lat="42.41669" lon="0.12872">
        <ele>535.9</ele>
        <time>2017-07-02T12:30:14Z</time>
      </trkpt>
      <trkpt lat="42.41663" lon="0.1287">
        <ele>535.9</ele>
        <time>2017-07-02T12:30:15Z</time>
      </trkpt>
      <trkpt lat="42.41658" lon="0.12868">
        <ele>535.9</ele>
        <time>2017-07-02T12:30:16Z</time>
      </trkpt>
      <trkpt lat="42.41654" lon="0.12866">
        <ele>535.9</ele>
        <time>2017-07-02T12:30:17Z</time>
      </trkpt>
      <trkpt lat="42.41649" lon="0.12864">
        <ele>536</ele>
        <time>2017-07-02T12:30:18Z</time>
      </trkpt>
      <trkpt lat="42.41645" lon="0.12861">
        <ele>536</ele>
        <time>2017-07-02T12:30:19Z</time>
      </trkpt>
      <trkpt lat="42.4164" lon="0.1286">
        <ele>536</ele>
        <time>2017-07-02T12:30:20Z</time>
      </trkpt>
      <trkpt lat="42.41636" lon="0.12858">
        <ele>536</ele>
        <time>2017-07-02T12:30:21Z</time>
      </trkpt>
      <trkpt lat="42.41629" lon="0.12857">
        <ele>536.1</ele>
        <time>2017-07-02T12:30:22Z</time>
      </trkpt>
      <trkpt lat="42.41623" lon="0.12857">
        <ele>536.1</ele>
        <time>2017-07-02T12:30:23Z</time>
      </trkpt>
      <trkpt lat="42.41619" lon="0.12854">
        <ele>536.2</ele>
        <time>2017-07-02T12:30:24Z</time>
      </trkpt>
      <trkpt lat="42.41614" lon="0.12854">
        <ele>536.3</ele>
        <time>2017-07-02T12:30:25Z</time>
      </trkpt>
      <trkpt lat="42.41609" lon="0.12851">
        <ele>536.5</ele>
        <time>2017-07-02T12:30:26Z</time>
      </trkpt>
      <trkpt lat="42.41604" lon="0.1285">
        <ele>536.8</ele>
        <time>2017-07-02T12:30:27Z</time>
      </trkpt>
      <trkpt lat="42.41599" lon="0.12848">
        <ele>537.1</ele>
        <time>2017-07-02T12:30:28Z</time>
      </trkpt>
      <trkpt lat="42.41593" lon="0.12847">
        <ele>537.3</ele>
        <time>2017-07-02T12:30:29Z</time>
      </trkpt>
      <trkpt lat="42.41588" lon="0.12845">
        <ele>537.4</ele>
        <time>2017-07-02T12:30:30Z</time>
      </trkpt>
      <trkpt lat="42.41582" lon="0.12843">
        <ele>537.5</ele>
        <time>2017-07-02T12:30:31Z</time>
      </trkpt>
      <trkpt lat="42.41577" lon="0.12841">
        <ele>537.7</ele>
        <time>2017-07-02T12:30:32Z</time>
      </trkpt>
      <trkpt lat="42.41573" lon="0.12838">
        <ele>537.8</ele>
        <time>2017-07-02T12:30:33Z</time>
      </trkpt>
      <trkpt lat="42.41568" lon="0.12835">
        <ele>537.8</ele>
        <time>2017-07-02T12:30:34Z</time>
      </trkpt>
      <trkpt lat="42.41564" lon="0.12832">
        <ele>537.8</ele>
        <time>2017-07-02T12:30:35Z</time>
      </trkpt>
      <trkpt lat="42.41559" lon="0.12829">
        <ele>537.8</ele>
        <time>2017-07-02T12:30:36Z</time>
      </trkpt>
      <trkpt lat="42.41555" lon="0.12826">
        <ele>537.9</ele>
        <time>2017-07-02T12:30:37Z</time>
      </trkpt>
      <trkpt lat="42.41551" lon="0.12822">
        <ele>537.9</ele>
        <time>2017-07-02T12:30:38Z</time>
      </trkpt>
      <trkpt lat="42.41546" lon="0.12818">
        <ele>537.9</ele>
        <time>2017-07-02T12:30:39Z</time>
      </trkpt>
      <trkpt lat="42.41543" lon="0.12813">
        <ele>537.9</ele>
        <time>2017-07-02T12:30:40Z</time>
      </trkpt>
      <trkpt lat="42.41538" lon="0.1281">
        <ele>538</ele>
        <time>2017-07-02T12:30:41Z</time>
      </trkpt>
      <trkpt lat="42.41534" lon="0.12804">
        <ele>538</ele>
        <time>2017-07-02T12:30:42Z</time>
      </trkpt>
      <trkpt lat="42.41531" lon="0.128">
        <ele>538</ele>
        <time>2017-07-02T12:30:43Z</time>
      </trkpt>
      <trkpt lat="42.41527" lon="0.12795">
        <ele>538</ele>
        <time>2017-07-02T12:30:44Z</time>
      </trkpt>
      <trkpt lat="42.41524" lon="0.12791">
        <ele>538</ele>
        <time>2017-07-02T12:30:45Z</time>
      </trkpt>
      <trkpt lat="42.4152" lon="0.12787">
        <ele>538</ele>
        <time>2017-07-02T12:30:46Z</time>
      </trkpt>
      <trkpt lat="42.41514" lon="0.12785">
        <ele>538.1</ele>
        <time>2017-07-02T12:30:47Z</time>
      </trkpt>
      <trkpt lat="42.41509" lon="0.12785">
        <ele>538.1</ele>
        <time>2017-07-02T12:30:48Z</time>
      </trkpt>
      <trkpt lat="42.41504" lon="0.12787">
        <ele>538.2</ele>
        <time>2017-07-02T12:30:49Z</time>
      </trkpt>
      <trkpt lat="42.41499" lon="0.12788">
        <ele>538.3</ele>
        <time>2017-07-02T12:30:50Z</time>
      </trkpt>
      <trkpt lat="42.41493" lon="0.12788">
        <ele>538.4</ele>
        <time>2017-07-02T12:30:51Z</time>
      </trkpt>
      <trkpt lat="42.41488" lon="0.12787">
        <ele>538.6</ele>
        <time>2017-07-02T12:30:52Z</time>
      </trkpt>
      <trkpt lat="42.41483" lon="0.12787">
        <ele>538.9</ele>
        <time>2017-07-02T12:30:53Z</time>
      </trkpt>
      <trkpt lat="42.41478" lon="0.12786">
        <ele>539.1</ele>
        <time>2017-07-02T12:30:54Z</time>
      </trkpt>
      <trkpt lat="42.41473" lon="0.12785">
        <ele>539.3</ele>
        <time>2017-07-02T12:30:55Z</time>
      </trkpt>
      <trkpt lat="42.41468" lon="0.12783">
        <ele>539.6</ele>
        <time>2017-07-02T12:30:56Z</time>
      </trkpt>
      <trkpt lat="42.41463" lon="0.12783">
        <ele>539.8</ele>
        <time>2017-07-02T12:30:57Z</time>
      </trkpt>
      <trkpt lat="42.41458" lon="0.12781">
        <ele>539.9</ele>
        <time>2017-07-02T12:30:58Z</time>
      </trkpt>
      <trkpt lat="42.41453" lon="0.12778">
        <ele>540.1</ele>
        <time>2017-07-02T12:30:59Z</time>
      </trkpt>
      <trkpt lat="42.41449" lon="0.12775">
        <ele>540.4</ele>
        <time>2017-07-02T12:31:00Z</time>
      </trkpt>
      <trkpt lat="42.41446" lon="0.12771">
        <ele>540.6</ele>
        <time>2017-07-02T12:31:01Z</time>
      </trkpt>
      <trkpt lat="42.41444" lon="0.12766">
        <ele>540.8</ele>
        <time>2017-07-02T12:31:02Z</time>
      </trkpt>
      <trkpt lat="42.41441" lon="0.12762">
        <ele>541</ele>
        <time>2017-07-02T12:31:03Z</time>
      </trkpt>
      <trkpt lat="42.4144" lon="0.12757">
        <ele>541.2</ele>
        <time>2017-07-02T12:31:04Z</time>
      </trkpt>
      <trkpt lat="42.41438" lon="0.12753">
        <ele>541.3</ele>
        <time>2017-07-02T12:31:05Z</time>
      </trkpt>
      <trkpt lat="42.41436" lon="0.12746">
        <ele>541.4</ele>
        <time>2017-07-02T12:31:07Z</time>
      </trkpt>
      <trkpt lat="42.41435" lon="0.12741">
        <ele>541.5</ele>
        <time>2017-07-02T12:31:08Z</time>
      </trkpt>
      <trkpt lat="42.41434" lon="0.12737">
        <ele>541.5</ele>
        <time>2017-07-02T12:31:09Z</time>
      </trkpt>
      <trkpt lat="42.41433" lon="0.12734">
        <ele>541.6</ele>
        <time>2017-07-02T12:31:10Z</time>
      </trkpt>
      <trkpt lat="42.41432" lon="0.1273">
        <ele>541.7</ele>
        <time>2017-07-02T12:31:11Z</time>
      </trkpt>
      <trkpt lat="42.41432" lon="0.12725">
        <ele>541.7</ele>
        <time>2017-07-02T12:31:12Z</time>
      </trkpt>
      <trkpt lat="42.41431" lon="0.12719">
        <ele>541.8</ele>
        <time>2017-07-02T12:31:13Z</time>
      </trkpt>
      <trkpt lat="42.41429" lon="0.12714">
        <ele>541.9</ele>
        <time>2017-07-02T12:31:14Z</time>
      </trkpt>
      <trkpt lat="42.41428" lon="0.12708">
        <ele>541.9</ele>
        <time>2017-07-02T12:31:15Z</time>
      </trkpt>
      <trkpt lat="42.41426" lon="0.12701">
        <ele>541.9</ele>
        <time>2017-07-02T12:31:16Z</time>
      </trkpt>
      <trkpt lat="42.41424" lon="0.12696">
        <ele>541.9</ele>
        <time>2017-07-02T12:31:17Z</time>
      </trkpt>
      <trkpt lat="42.41422" lon="0.12691">
        <ele>542</ele>
        <time>2017-07-02T12:31:18Z</time>
      </trkpt>
      <trkpt lat="42.41422" lon="0.12684">
        <ele>542</ele>
        <time>2017-07-02T12:31:19Z</time>
      </trkpt>
      <trkpt lat="42.41422" lon="0.12676">
        <ele>542</ele>
        <time>2017-07-02T12:31:20Z</time>
      </trkpt>
      <trkpt lat="42.41422" lon="0.1267">
        <ele>541.9</ele>
        <time>2017-07-02T12:31:21Z</time>
      </trkpt>
      <trkpt lat="42.4142" lon="0.12664">
        <ele>541.9</ele>
        <time>2017-07-02T12:31:22Z</time>
      </trkpt>
      <trkpt lat="42.4142" lon="0.12659">
        <ele>541.8</ele>
        <time>2017-07-02T12:31:23Z</time>
      </trkpt>
      <trkpt lat="42.41418" lon="0.12654">
        <ele>541.8</ele>
        <time>2017-07-02T12:31:24Z</time>
      </trkpt>
      <trkpt lat="42.41417" lon="0.12648">
        <ele>541.7</ele>
        <time>2017-07-02T12:31:25Z</time>
      </trkpt>
      <trkpt lat="42.41416" lon="0.12643">
        <ele>541.6</ele>
        <time>2017-07-02T12:31:26Z</time>
      </trkpt>
      <trkpt lat="42.41414" lon="0.12637">
        <ele>541.5</ele>
        <time>2017-07-02T12:31:27Z</time>
      </trkpt>
      <trkpt lat="42.41412" lon="0.12633">
        <ele>541.4</ele>
        <time>2017-07-02T12:31:28Z</time>
      </trkpt>
      <trkpt lat="42.4141" lon="0.12629">
        <ele>541.3</ele>
        <time>2017-07-02T12:31:29Z</time>
      </trkpt>
      <trkpt lat="42.41407" lon="0.12627">
        <ele>541.2</ele>
        <time>2017-07-02T12:31:30Z</time>
      </trkpt>
      <trkpt lat="42.41405" lon="0.12625">
        <ele>541.2</ele>
        <time>2017-07-02T12:31:31Z</time>
      </trkpt>
      <trkpt lat="42.41402" lon="0.12624">
        <ele>541</ele>
        <time>2017-07-02T12:31:32Z</time>
      </trkpt>
      <trkpt lat="42.41399" lon="0.12624">
        <ele>541</ele>
        <time>2017-07-02T12:31:33Z</time>
      </trkpt>
      <trkpt lat="42.41396" lon="0.12625">
        <ele>541</ele>
        <time>2017-07-02T12:31:34Z</time>
      </trkpt>
      <trkpt lat="42.41394" lon="0.12627">
        <ele>541</ele>
        <time>2017-07-02T12:31:35Z</time>
      </trkpt>
      <trkpt lat="42.41391" lon="0.12632">
        <ele>540.9</ele>
        <time>2017-07-02T12:31:36Z</time>
      </trkpt>
      <trkpt lat="42.41389" lon="0.12636">
        <ele>540.7</ele>
        <time>2017-07-02T12:31:37Z</time>
      </trkpt>
      <trkpt lat="42.41386" lon="0.12641">
        <ele>540.7</ele>
        <time>2017-07-02T12:31:38Z</time>
      </trkpt>
      <trkpt lat="42.41384" lon="0.12646">
        <ele>540.6</ele>
        <time>2017-07-02T12:31:39Z</time>
      </trkpt>
      <trkpt lat="42.41381" lon="0.12652">
        <ele>540.6</ele>
        <time>2017-07-02T12:31:40Z</time>
      </trkpt>
      <trkpt lat="42.41378" lon="0.12659">
        <ele>540.8</ele>
        <time>2017-07-02T12:31:41Z</time>
      </trkpt>
      <trkpt lat="42.41375" lon="0.12663">
        <ele>541.1</ele>
        <time>2017-07-02T12:31:42Z</time>
      </trkpt>
      <trkpt lat="42.41372" lon="0.12668">
        <ele>541.5</ele>
        <time>2017-07-02T12:31:43Z</time>
      </trkpt>
      <trkpt lat="42.41369" lon="0.12673">
        <ele>541.9</ele>
        <time>2017-07-02T12:31:44Z</time>
      </trkpt>
      <trkpt lat="42.41366" lon="0.12677">
        <ele>542</ele>
        <time>2017-07-02T12:31:45Z</time>
      </trkpt>
      <trkpt lat="42.41364" lon="0.12682">
        <ele>542</ele>
        <time>2017-07-02T12:31:46Z</time>
      </trkpt>
      <trkpt lat="42.41363" lon="0.12688">
        <ele>542</ele>
        <time>2017-07-02T12:31:47Z</time>
      </trkpt>
      <trkpt lat="42.41364" lon="0.12694">
        <ele>542</ele>
        <time>2017-07-02T12:31:48Z</time>
      </trkpt>
      <trkpt lat="42.41366" lon="0.127">
        <ele>542</ele>
        <time>2017-07-02T12:31:49Z</time>
      </trkpt>
      <trkpt lat="42.41369" lon="0.12707">
        <ele>542</ele>
        <time>2017-07-02T12:31:50Z</time>
      </trkpt>
      <trkpt lat="42.41371" lon="0.12715">
        <ele>542</ele>
        <time>2017-07-02T12:31:51Z</time>
      </trkpt>
      <trkpt lat="42.41374" lon="0.12722">
        <ele>542</ele>
        <time>2017-07-02T12:31:52Z</time>
      </trkpt>
      <trkpt lat="42.41376" lon="0.1273">
        <ele>542</ele>
        <time>2017-07-02T12:31:53Z</time>
      </trkpt>
      <trkpt lat="42.41377" lon="0.1274">
        <ele>542</ele>
        <time>2017-07-02T12:31:54Z</time>
      </trkpt>
      <trkpt lat="42.41379" lon="0.12748">
        <ele>541.8</ele>
        <time>2017-07-02T12:31:55Z</time>
      </trkpt>
      <trkpt lat="42.41381" lon="0.12756">
        <ele>541.5</ele>
        <time>2017-07-02T12:31:56Z</time>
      </trkpt>
      <trkpt lat="42.41383" lon="0.12765">
        <ele>541.3</ele>
        <time>2017-07-02T12:31:57Z</time>
      </trkpt>
      <trkpt lat="42.41383" lon="0.12773">
        <ele>541.2</ele>
        <time>2017-07-02T12:31:58Z</time>
      </trkpt>
      <trkpt lat="42.41384" lon="0.12782">
        <ele>541.2</ele>
        <time>2017-07-02T12:31:59Z</time>
      </trkpt>
      <trkpt lat="42.41384" lon="0.12789">
        <ele>541.2</ele>
        <time>2017-07-02T12:32:00Z</time>
      </trkpt>
      <trkpt lat="42.41386" lon="0.12796">
        <ele>541.2</ele>
        <time>2017-07-02T12:32:01Z</time>
      </trkpt>
      <trkpt lat="42.41388" lon="0.12804">
        <ele>541.1</ele>
        <time>2017-07-02T12:32:02Z</time>
      </trkpt>
      <trkpt lat="42.41389" lon="0.12813">
        <ele>541.1</ele>
        <time>2017-07-02T12:32:03Z</time>
      </trkpt>
      <trkpt lat="42.4139" lon="0.12822">
        <ele>541.1</ele>
        <time>2017-07-02T12:32:04Z</time>
      </trkpt>
      <trkpt lat="42.41392" lon="0.1283">
        <ele>541.1</ele>
        <time>2017-07-02T12:32:05Z</time>
      </trkpt>
      <trkpt lat="42.41394" lon="0.12839">
        <ele>541.1</ele>
        <time>2017-07-02T12:32:06Z</time>
      </trkpt>
      <trkpt lat="42.41395" lon="0.12848">
        <ele>541.1</ele>
        <time>2017-07-02T12:32:07Z</time>
      </trkpt>
      <trkpt lat="42.41397" lon="0.12857">
        <ele>541.1</ele>
        <time>2017-07-02T12:32:08Z</time>
      </trkpt>
      <trkpt lat="42.41398" lon="0.12867">
        <ele>541</ele>
        <time>2017-07-02T12:32:09Z</time>
      </trkpt>
      <trkpt lat="42.414" lon="0.12877">
        <ele>541</ele>
        <time>2017-07-02T12:32:10Z</time>
      </trkpt>
      <trkpt lat="42.41402" lon="0.12884">
        <ele>540.9</ele>
        <time>2017-07-02T12:32:11Z</time>
      </trkpt>
      <trkpt lat="42.41403" lon="0.12894">
        <ele>540.6</ele>
        <time>2017-07-02T12:32:12Z</time>
      </trkpt>
      <trkpt lat="42.41404" lon="0.12903">
        <ele>540.4</ele>
        <time>2017-07-02T12:32:13Z</time>
      </trkpt>
      <trkpt lat="42.41405" lon="0.12912">
        <ele>540.2</ele>
        <time>2017-07-02T12:32:14Z</time>
      </trkpt>
      <trkpt lat="42.41408" lon="0.12921">
        <ele>540.1</ele>
        <time>2017-07-02T12:32:15Z</time>
      </trkpt>
      <trkpt lat="42.41409" lon="0.12929">
        <ele>540</ele>
        <time>2017-07-02T12:32:16Z</time>
      </trkpt>
      <trkpt lat="42.4141" lon="0.12939">
        <ele>540</ele>
        <time>2017-07-02T12:32:17Z</time>
      </trkpt>
      <trkpt lat="42.41412" lon="0.12948">
        <ele>540</ele>
        <time>2017-07-02T12:32:18Z</time>
      </trkpt>
      <trkpt lat="42.41414" lon="0.12957">
        <ele>539.9</ele>
        <time>2017-07-02T12:32:19Z</time>
      </trkpt>
      <trkpt lat="42.41416" lon="0.12966">
        <ele>539.8</ele>
        <time>2017-07-02T12:32:20Z</time>
      </trkpt>
      <trkpt lat="42.41417" lon="0.12975">
        <ele>539.8</ele>
        <time>2017-07-02T12:32:21Z</time>
      </trkpt>
      <trkpt lat="42.41419" lon="0.12983">
        <ele>539.7</ele>
        <time>2017-07-02T12:32:22Z</time>
      </trkpt>
      <trkpt lat="42.41421" lon="0.12992">
        <ele>539.7</ele>
        <time>2017-07-02T12:32:23Z</time>
      </trkpt>
      <trkpt lat="42.41423" lon="0.13001">
        <ele>539.6</ele>
        <time>2017-07-02T12:32:24Z</time>
      </trkpt>
      <trkpt lat="42.41425" lon="0.13009">
        <ele>539.6</ele>
        <time>2017-07-02T12:32:25Z</time>
      </trkpt>
      <trkpt lat="42.41426" lon="0.13018">
        <ele>539.5</ele>
        <time>2017-07-02T12:32:26Z</time>
      </trkpt>
      <trkpt lat="42.41428" lon="0.13028">
        <ele>539.3</ele>
        <time>2017-07-02T12:32:27Z</time>
      </trkpt>
      <trkpt lat="42.41429" lon="0.13036">
        <ele>539.1</ele>
        <time>2017-07-02T12:32:28Z</time>
      </trkpt>
      <trkpt lat="42.4143" lon="0.13046">
        <ele>539</ele>
        <time>2017-07-02T12:32:29Z</time>
      </trkpt>
      <trkpt lat="42.41431" lon="0.13053">
        <ele>539</ele>
        <time>2017-07-02T12:32:30Z</time>
      </trkpt>
      <trkpt lat="42.41433" lon="0.13062">
        <ele>539</ele>
        <time>2017-07-02T12:32:31Z</time>
      </trkpt>
      <trkpt lat="42.41434" lon="0.1307">
        <ele>538.9</ele>
        <time>2017-07-02T12:32:32Z</time>
      </trkpt>
      <trkpt lat="42.41436" lon="0.13077">
        <ele>538.9</ele>
        <time>2017-07-02T12:32:33Z</time>
      </trkpt>
      <trkpt lat="42.41437" lon="0.13086">
        <ele>538.9</ele>
        <time>2017-07-02T12:32:34Z</time>
      </trkpt>
      <trkpt lat="42.41439" lon="0.13094">
        <ele>538.9</ele>
        <time>2017-07-02T12:32:35Z</time>
      </trkpt>
      <trkpt lat="42.4144" lon="0.13102">
        <ele>538.9</ele>
        <time>2017-07-02T12:32:36Z</time>
      </trkpt>
      <trkpt lat="42.41442" lon="0.13109">
        <ele>538.9</ele>
        <time>2017-07-02T12:32:37Z</time>
      </trkpt>
      <trkpt lat="42.41444" lon="0.13119">
        <ele>538.9</ele>
        <time>2017-07-02T12:32:38Z</time>
      </trkpt>
      <trkpt lat="42.41445" lon="0.13126">
        <ele>538.9</ele>
        <time>2017-07-02T12:32:39Z</time>
      </trkpt>
      <trkpt lat="42.41447" lon="0.13134">
        <ele>538.9</ele>
        <time>2017-07-02T12:32:40Z</time>
      </trkpt>
      <trkpt lat="42.41448" lon="0.1314">
        <ele>538.9</ele>
        <time>2017-07-02T12:32:41Z</time>
      </trkpt>
      <trkpt lat="42.4145" lon="0.13147">
        <ele>538.9</ele>
        <time>2017-07-02T12:32:42Z</time>
      </trkpt>
      <trkpt lat="42.41452" lon="0.13154">
        <ele>538.9</ele>
        <time>2017-07-02T12:32:43Z</time>
      </trkpt>
      <trkpt lat="42.41454" lon="0.13162">
        <ele>538.9</ele>
        <time>2017-07-02T12:32:44Z</time>
      </trkpt>
      <trkpt lat="42.41456" lon="0.13169">
        <ele>539</ele>
        <time>2017-07-02T12:32:45Z</time>
      </trkpt>
      <trkpt lat="42.41457" lon="0.13176">
        <ele>539</ele>
        <time>2017-07-02T12:32:46Z</time>
      </trkpt>
      <trkpt lat="42.41458" lon="0.13183">
        <ele>539</ele>
        <time>2017-07-02T12:32:47Z</time>
      </trkpt>
      <trkpt lat="42.4146" lon="0.1319">
        <ele>539</ele>
        <time>2017-07-02T12:32:48Z</time>
      </trkpt>
      <trkpt lat="42.41461" lon="0.13197">
        <ele>539</ele>
        <time>2017-07-02T12:32:49Z</time>
      </trkpt>
      <trkpt lat="42.41462" lon="0.13205">
        <ele>539</ele>
        <time>2017-07-02T12:32:50Z</time>
      </trkpt>
      <trkpt lat="42.41464" lon="0.13213">
        <ele>539</ele>
        <time>2017-07-02T12:32:51Z</time>
      </trkpt>
      <trkpt lat="42.41465" lon="0.13221">
        <ele>539</ele>
        <time>2017-07-02T12:32:52Z</time>
      </trkpt>
      <trkpt lat="42.41466" lon="0.13229">
        <ele>539</ele>
        <time>2017-07-02T12:32:53Z</time>
      </trkpt>
      <trkpt lat="42.41467" lon="0.13238">
        <ele>539</ele>
        <time>2017-07-02T12:32:54Z</time>
      </trkpt>
      <trkpt lat="42.41468" lon="0.13245">
        <ele>539</ele>
        <time>2017-07-02T12:32:55Z</time>
      </trkpt>
      <trkpt lat="42.41468" lon="0.13254">
        <ele>539</ele>
        <time>2017-07-02T12:32:56Z</time>
      </trkpt>
      <trkpt lat="42.4147" lon="0.13261">
        <ele>538.9</ele>
        <time>2017-07-02T12:32:57Z</time>
      </trkpt>
      <trkpt lat="42.4147" lon="0.13268">
        <ele>538.9</ele>
        <time>2017-07-02T12:32:58Z</time>
      </trkpt>
      <trkpt lat="42.4147" lon="0.13276">
        <ele>538.9</ele>
        <time>2017-07-02T12:32:59Z</time>
      </trkpt>
      <trkpt lat="42.4147" lon="0.13284">
        <ele>538.8</ele>
        <time>2017-07-02T12:33:00Z</time>
      </trkpt>
      <trkpt lat="42.4147" lon="0.13293">
        <ele>538.7</ele>
        <time>2017-07-02T12:33:01Z</time>
      </trkpt>
      <trkpt lat="42.41469" lon="0.13301">
        <ele>538.5</ele>
        <time>2017-07-02T12:33:02Z</time>
      </trkpt>
      <trkpt lat="42.41467" lon="0.13309">
        <ele>538.3</ele>
        <time>2017-07-02T12:33:03Z</time>
      </trkpt>
      <trkpt lat="42.41466" lon="0.13316">
        <ele>538.2</ele>
        <time>2017-07-02T12:33:04Z</time>
      </trkpt>
      <trkpt lat="42.41465" lon="0.13324">
        <ele>538.2</ele>
        <time>2017-07-02T12:33:05Z</time>
      </trkpt>
      <trkpt lat="42.41464" lon="0.1333">
        <ele>538.2</ele>
        <time>2017-07-02T12:33:06Z</time>
      </trkpt>
      <trkpt lat="42.41462" lon="0.13337">
        <ele>538.2</ele>
        <time>2017-07-02T12:33:07Z</time>
      </trkpt>
      <trkpt lat="42.41461" lon="0.13343">
        <ele>538.2</ele>
        <time>2017-07-02T12:33:08Z</time>
      </trkpt>
      <trkpt lat="42.4146" lon="0.1335">
        <ele>538.2</ele>
        <time>2017-07-02T12:33:09Z</time>
      </trkpt>
      <trkpt lat="42.41458" lon="0.13356">
        <ele>538.2</ele>
        <time>2017-07-02T12:33:10Z</time>
      </trkpt>
      <trkpt lat="42.41458" lon="0.13363">
        <ele>538.2</ele>
        <time>2017-07-02T12:33:11Z</time>
      </trkpt>
      <trkpt lat="42.41456" lon="0.1337">
        <ele>538.2</ele>
        <time>2017-07-02T12:33:12Z</time>
      </trkpt>
      <trkpt lat="42.41454" lon="0.13377">
        <ele>538.2</ele>
        <time>2017-07-02T12:33:13Z</time>
      </trkpt>
      <trkpt lat="42.41452" lon="0.13384">
        <ele>538.2</ele>
        <time>2017-07-02T12:33:14Z</time>
      </trkpt>
      <trkpt lat="42.41451" lon="0.1339">
        <ele>538.2</ele>
        <time>2017-07-02T12:33:15Z</time>
      </trkpt>
      <trkpt lat="42.4145" lon="0.13397">
        <ele>538.2</ele>
        <time>2017-07-02T12:33:16Z</time>
      </trkpt>
      <trkpt lat="42.4145" lon="0.13404">
        <ele>538.2</ele>
        <time>2017-07-02T12:33:17Z</time>
      </trkpt>
      <trkpt lat="42.41449" lon="0.13411">
        <ele>538.3</ele>
        <time>2017-07-02T12:33:18Z</time>
      </trkpt>
      <trkpt lat="42.41447" lon="0.13419">
        <ele>538.3</ele>
        <time>2017-07-02T12:33:19Z</time>
      </trkpt>
      <trkpt lat="42.41445" lon="0.13426">
        <ele>538.3</ele>
        <time>2017-07-02T12:33:20Z</time>
      </trkpt>
      <trkpt lat="42.41443" lon="0.13434">
        <ele>538.3</ele>
        <time>2017-07-02T12:33:21Z</time>
      </trkpt>
      <trkpt lat="42.41441" lon="0.13441">
        <ele>538.3</ele>
        <time>2017-07-02T12:33:22Z</time>
      </trkpt>
      <trkpt lat="42.41439" lon="0.13449">
        <ele>538.3</ele>
        <time>2017-07-02T12:33:23Z</time>
      </trkpt>
      <trkpt lat="42.41436" lon="0.13457">
        <ele>538.4</ele>
        <time>2017-07-02T12:33:24Z</time>
      </trkpt>
      <trkpt lat="42.41434" lon="0.13465">
        <ele>538.4</ele>
        <time>2017-07-02T12:33:25Z</time>
      </trkpt>
      <trkpt lat="42.41431" lon="0.13473">
        <ele>538.4</ele>
        <time>2017-07-02T12:33:26Z</time>
      </trkpt>
      <trkpt lat="42.41428" lon="0.13481">
        <ele>538.4</ele>
        <time>2017-07-02T12:33:27Z</time>
      </trkpt>
      <trkpt lat="42.41425" lon="0.1349">
        <ele>538.4</ele>
        <time>2017-07-02T12:33:28Z</time>
      </trkpt>
      <trkpt lat="42.41423" lon="0.13497">
        <ele>538.4</ele>
        <time>2017-07-02T12:33:29Z</time>
      </trkpt>
      <trkpt lat="42.4142" lon="0.13504">
        <ele>538.5</ele>
        <time>2017-07-02T12:33:30Z</time>
      </trkpt>
      <trkpt lat="42.41417" lon="0.13511">
        <ele>538.5</ele>
        <time>2017-07-02T12:33:31Z</time>
      </trkpt>
      <trkpt lat="42.41415" lon="0.13518">
        <ele>538.5</ele>
        <time>2017-07-02T12:33:32Z</time>
      </trkpt>
      <trkpt lat="42.41412" lon="0.13525">
        <ele>538.5</ele>
        <time>2017-07-02T12:33:33Z</time>
      </trkpt>
      <trkpt lat="42.41409" lon="0.13533">
        <ele>538.5</ele>
        <time>2017-07-02T12:33:34Z</time>
      </trkpt>
      <trkpt lat="42.41406" lon="0.1354">
        <ele>538.6</ele>
        <time>2017-07-02T12:33:35Z</time>
      </trkpt>
      <trkpt lat="42.41403" lon="0.13547">
        <ele>538.6</ele>
        <time>2017-07-02T12:33:36Z</time>
      </trkpt>
      <trkpt lat="42.414" lon="0.13554">
        <ele>538.6</ele>
        <time>2017-07-02T12:33:37Z</time>
      </trkpt>
      <trkpt lat="42.41396" lon="0.1356">
        <ele>538.6</ele>
        <time>2017-07-02T12:33:38Z</time>
      </trkpt>
      <trkpt lat="42.41393" lon="0.13566">
        <ele>538.6</ele>
        <time>2017-07-02T12:33:39Z</time>
      </trkpt>
      <trkpt lat="42.41389" lon="0.13573">
        <ele>538.6</ele>
        <time>2017-07-02T12:33:40Z</time>
      </trkpt>
      <trkpt lat="42.41386" lon="0.13579">
        <ele>538.6</ele>
        <time>2017-07-02T12:33:41Z</time>
      </trkpt>
      <trkpt lat="42.41383" lon="0.13586">
        <ele>538.7</ele>
        <time>2017-07-02T12:33:42Z</time>
      </trkpt>
      <trkpt lat="42.41378" lon="0.13592">
        <ele>538.6</ele>
        <time>2017-07-02T12:33:43Z</time>
      </trkpt>
      <trkpt lat="42.41375" lon="0.13598">
        <ele>538.6</ele>
        <time>2017-07-02T12:33:44Z</time>
      </trkpt>
      <trkpt lat="42.41371" lon="0.13605">
        <ele>538.6</ele>
        <time>2017-07-02T12:33:45Z</time>
      </trkpt>
      <trkpt lat="42.41368" lon="0.13611">
        <ele>538.6</ele>
        <time>2017-07-02T12:33:46Z</time>
      </trkpt>
      <trkpt lat="42.41365" lon="0.13617">
        <ele>538.6</ele>
        <time>2017-07-02T12:33:47Z</time>
      </trkpt>
      <trkpt lat="42.41361" lon="0.13624">
        <ele>538.5</ele>
        <time>2017-07-02T12:33:48Z</time>
      </trkpt>
      <trkpt lat="42.41357" lon="0.13629">
        <ele>538.3</ele>
        <time>2017-07-02T12:33:49Z</time>
      </trkpt>
      <trkpt lat="42.41353" lon="0.13636">
        <ele>538.2</ele>
        <time>2017-07-02T12:33:50Z</time>
      </trkpt>
      <trkpt lat="42.4135" lon="0.13643">
        <ele>538</ele>
        <time>2017-07-02T12:33:51Z</time>
      </trkpt>
      <trkpt lat="42.41347" lon="0.1365">
        <ele>537.9</ele>
        <time>2017-07-02T12:33:52Z</time>
      </trkpt>
      <trkpt lat="42.41343" lon="0.13656">
        <ele>537.8</ele>
        <time>2017-07-02T12:33:53Z</time>
      </trkpt>
      <trkpt lat="42.4134" lon="0.13661">
        <ele>537.8</ele>
        <time>2017-07-02T12:33:54Z</time>
      </trkpt>
      <trkpt lat="42.41337" lon="0.13667">
        <ele>537.8</ele>
        <time>2017-07-02T12:33:55Z</time>
      </trkpt>
      <trkpt lat="42.41334" lon="0.13675">
        <ele>537.8</ele>
        <time>2017-07-02T12:33:56Z</time>
      </trkpt>
      <trkpt lat="42.4133" lon="0.13682">
        <ele>537.8</ele>
        <time>2017-07-02T12:33:57Z</time>
      </trkpt>
      <trkpt lat="42.41326" lon="0.1369">
        <ele>537.8</ele>
        <time>2017-07-02T12:33:58Z</time>
      </trkpt>
      <trkpt lat="42.41322" lon="0.13697">
        <ele>537.8</ele>
        <time>2017-07-02T12:33:59Z</time>
      </trkpt>
      <trkpt lat="42.41318" lon="0.13705">
        <ele>537.8</ele>
        <time>2017-07-02T12:34:00Z</time>
      </trkpt>
      <trkpt lat="42.41314" lon="0.13712">
        <ele>537.8</ele>
        <time>2017-07-02T12:34:01Z</time>
      </trkpt>
      <trkpt lat="42.4131" lon="0.13719">
        <ele>537.8</ele>
        <time>2017-07-02T12:34:02Z</time>
      </trkpt>
      <trkpt lat="42.41306" lon="0.13726">
        <ele>537.8</ele>
        <time>2017-07-02T12:34:03Z</time>
      </trkpt>
      <trkpt lat="42.41303" lon="0.13733">
        <ele>537.8</ele>
        <time>2017-07-02T12:34:04Z</time>
      </trkpt>
      <trkpt lat="42.413" lon="0.1374">
        <ele>537.8</ele>
        <time>2017-07-02T12:34:05Z</time>
      </trkpt>
      <trkpt lat="42.41297" lon="0.13746">
        <ele>537.8</ele>
        <time>2017-07-02T12:34:06Z</time>
      </trkpt>
      <trkpt lat="42.41295" lon="0.13753">
        <ele>537.8</ele>
        <time>2017-07-02T12:34:07Z</time>
      </trkpt>
      <trkpt lat="42.41293" lon="0.1376">
        <ele>537.8</ele>
        <time>2017-07-02T12:34:08Z</time>
      </trkpt>
      <trkpt lat="42.41291" lon="0.13766">
        <ele>537.8</ele>
        <time>2017-07-02T12:34:09Z</time>
      </trkpt>
      <trkpt lat="42.41289" lon="0.13772">
        <ele>537.8</ele>
        <time>2017-07-02T12:34:10Z</time>
      </trkpt>
      <trkpt lat="42.41288" lon="0.13778">
        <ele>537.8</ele>
        <time>2017-07-02T12:34:11Z</time>
      </trkpt>
      <trkpt lat="42.41286" lon="0.13785">
        <ele>537.8</ele>
        <time>2017-07-02T12:34:12Z</time>
      </trkpt>
      <trkpt lat="42.41284" lon="0.13791">
        <ele>537.8</ele>
        <time>2017-07-02T12:34:13Z</time>
      </trkpt>
      <trkpt lat="42.41282" lon="0.13798">
        <ele>537.8</ele>
        <time>2017-07-02T12:34:14Z</time>
      </trkpt>
      <trkpt lat="42.4128" lon="0.13805">
        <ele>537.7</ele>
        <time>2017-07-02T12:34:15Z</time>
      </trkpt>
      <trkpt lat="42.41279" lon="0.13812">
        <ele>537.7</ele>
        <time>2017-07-02T12:34:16Z</time>
      </trkpt>
      <trkpt lat="42.41277" lon="0.13819">
        <ele>537.6</ele>
        <time>2017-07-02T12:34:17Z</time>
      </trkpt>
      <trkpt lat="42.41275" lon="0.13826">
        <ele>537.6</ele>
        <time>2017-07-02T12:34:18Z</time>
      </trkpt>
      <trkpt lat="42.41274" lon="0.13834">
        <ele>537.5</ele>
        <time>2017-07-02T12:34:19Z</time>
      </trkpt>
      <trkpt lat="42.41273" lon="0.13842">
        <ele>537.4</ele>
        <time>2017-07-02T12:34:20Z</time>
      </trkpt>
      <trkpt lat="42.41272" lon="0.1385">
        <ele>537.2</ele>
        <time>2017-07-02T12:34:21Z</time>
      </trkpt>
      <trkpt lat="42.41272" lon="0.13857">
        <ele>537</ele>
        <time>2017-07-02T12:34:22Z</time>
      </trkpt>
      <trkpt lat="42.41272" lon="0.13864">
        <ele>537</ele>
        <time>2017-07-02T12:34:23Z</time>
      </trkpt>
      <trkpt lat="42.41272" lon="0.13872">
        <ele>536.9</ele>
        <time>2017-07-02T12:34:24Z</time>
      </trkpt>
      <trkpt lat="42.41272" lon="0.13879">
        <ele>536.9</ele>
        <time>2017-07-02T12:34:25Z</time>
      </trkpt>
      <trkpt lat="42.41272" lon="0.13887">
        <ele>536.9</ele>
        <time>2017-07-02T12:34:26Z</time>
      </trkpt>
      <trkpt lat="42.41273" lon="0.13894">
        <ele>536.8</ele>
        <time>2017-07-02T12:34:27Z</time>
      </trkpt>
      <trkpt lat="42.41273" lon="0.13901">
        <ele>536.8</ele>
        <time>2017-07-02T12:34:28Z</time>
      </trkpt>
      <trkpt lat="42.41273" lon="0.13909">
        <ele>536.8</ele>
        <time>2017-07-02T12:34:29Z</time>
      </trkpt>
      <trkpt lat="42.41273" lon="0.13916">
        <ele>536.8</ele>
        <time>2017-07-02T12:34:30Z</time>
      </trkpt>
      <trkpt lat="42.41273" lon="0.13923">
        <ele>536.8</ele>
        <time>2017-07-02T12:34:31Z</time>
      </trkpt>
      <trkpt lat="42.41272" lon="0.1393">
        <ele>536.8</ele>
        <time>2017-07-02T12:34:32Z</time>
      </trkpt>
      <trkpt lat="42.41271" lon="0.13937">
        <ele>536.8</ele>
        <time>2017-07-02T12:34:33Z</time>
      </trkpt>
      <trkpt lat="42.41269" lon="0.13944">
        <ele>536.8</ele>
        <time>2017-07-02T12:34:34Z</time>
      </trkpt>
      <trkpt lat="42.41268" lon="0.13949">
        <ele>536.8</ele>
        <time>2017-07-02T12:34:35Z</time>
      </trkpt>
      <trkpt lat="42.41266" lon="0.13954">
        <ele>536.8</ele>
        <time>2017-07-02T12:34:36Z</time>
      </trkpt>
      <trkpt lat="42.41262" lon="0.13959">
        <ele>536.8</ele>
        <time>2017-07-02T12:34:37Z</time>
      </trkpt>
      <trkpt lat="42.41259" lon="0.13962">
        <ele>536.8</ele>
        <time>2017-07-02T12:34:38Z</time>
      </trkpt>
      <trkpt lat="42.41256" lon="0.13965">
        <ele>536.9</ele>
        <time>2017-07-02T12:34:39Z</time>
      </trkpt>
      <trkpt lat="42.41253" lon="0.13967">
        <ele>536.9</ele>
        <time>2017-07-02T12:34:40Z</time>
      </trkpt>
      <trkpt lat="42.41249" lon="0.13968">
        <ele>536.9</ele>
        <time>2017-07-02T12:34:41Z</time>
      </trkpt>
      <trkpt lat="42.41246" lon="0.13969">
        <ele>537</ele>
        <time>2017-07-02T12:34:42Z</time>
      </trkpt>
      <trkpt lat="42.41242" lon="0.1397">
        <ele>537</ele>
        <time>2017-07-02T12:34:43Z</time>
      </trkpt>
      <trkpt lat="42.41239" lon="0.13971">
        <ele>537</ele>
        <time>2017-07-02T12:34:44Z</time>
      </trkpt>
      <trkpt lat="42.41236" lon="0.13973">
        <ele>537</ele>
        <time>2017-07-02T12:34:45Z</time>
      </trkpt>
      <trkpt lat="42.41234" lon="0.13975">
        <ele>537</ele>
        <time>2017-07-02T12:34:46Z</time>
      </trkpt>
      <trkpt lat="42.41231" lon="0.13977">
        <ele>537</ele>
        <time>2017-07-02T12:34:47Z</time>
      </trkpt>
      <trkpt lat="42.41228" lon="0.1398">
        <ele>537</ele>
        <time>2017-07-02T12:34:48Z</time>
      </trkpt>
      <trkpt lat="42.41225" lon="0.13982">
        <ele>537</ele>
        <time>2017-07-02T12:34:49Z</time>
      </trkpt>
      <trkpt lat="42.41222" lon="0.13984">
        <ele>537</ele>
        <time>2017-07-02T12:34:50Z</time>
      </trkpt>
      <trkpt lat="42.41219" lon="0.13985">
        <ele>537</ele>
        <time>2017-07-02T12:34:51Z</time>
      </trkpt>
      <trkpt lat="42.41216" lon="0.13986">
        <ele>537</ele>
        <time>2017-07-02T12:34:52Z</time>
      </trkpt>
      <trkpt lat="42.41214" lon="0.13988">
        <ele>537</ele>
        <time>2017-07-02T12:34:53Z</time>
      </trkpt>
      <trkpt lat="42.41212" lon="0.13991">
        <ele>537</ele>
        <time>2017-07-02T12:34:54Z</time>
      </trkpt>
      <trkpt lat="42.4121" lon="0.13994">
        <ele>537</ele>
        <time>2017-07-02T12:34:55Z</time>
      </trkpt>
      <trkpt lat="42.4121" lon="0.13998">
        <ele>537</ele>
        <time>2017-07-02T12:34:56Z</time>
      </trkpt>
      <trkpt lat="42.4121" lon="0.14003">
        <ele>537</ele>
        <time>2017-07-02T12:34:57Z</time>
      </trkpt>
      <trkpt lat="42.41212" lon="0.14009">
        <ele>537</ele>
        <time>2017-07-02T12:34:58Z</time>
      </trkpt>
      <trkpt lat="42.41214" lon="0.14016">
        <ele>537</ele>
        <time>2017-07-02T12:34:59Z</time>
      </trkpt>
      <trkpt lat="42.41218" lon="0.14022">
        <ele>537</ele>
        <time>2017-07-02T12:35:00Z</time>
      </trkpt>
      <trkpt lat="42.41222" lon="0.14028">
        <ele>537</ele>
        <time>2017-07-02T12:35:01Z</time>
      </trkpt>
      <trkpt lat="42.41226" lon="0.14033">
        <ele>537</ele>
        <time>2017-07-02T12:35:02Z</time>
      </trkpt>
      <trkpt lat="42.4123" lon="0.14037">
        <ele>537</ele>
        <time>2017-07-02T12:35:03Z</time>
      </trkpt>
      <trkpt lat="42.41234" lon="0.14041">
        <ele>537</ele>
        <time>2017-07-02T12:35:04Z</time>
      </trkpt>
      <trkpt lat="42.41237" lon="0.14045">
        <ele>537</ele>
        <time>2017-07-02T12:35:05Z</time>
      </trkpt>
      <trkpt lat="42.41241" lon="0.14048">
        <ele>536.1</ele>
        <time>2017-07-02T12:35:06Z</time>
      </trkpt>
      <trkpt lat="42.41245" lon="0.14049">
        <ele>534.7</ele>
        <time>2017-07-02T12:35:07Z</time>
      </trkpt>
      <trkpt lat="42.4125" lon="0.1405">
        <ele>533</ele>
        <time>2017-07-02T12:35:08Z</time>
      </trkpt>
      <trkpt lat="42.41255" lon="0.14049">
        <ele>533</ele>
        <time>2017-07-02T12:35:09Z</time>
      </trkpt>
      <trkpt lat="42.41261" lon="0.14049">
        <ele>533</ele>
        <time>2017-07-02T12:35:10Z</time>
      </trkpt>
      <trkpt lat="42.41266" lon="0.14049">
        <ele>533</ele>
        <time>2017-07-02T12:35:11Z</time>
      </trkpt>
      <trkpt lat="42.41272" lon="0.14049">
        <ele>532.8</ele>
        <time>2017-07-02T12:35:12Z</time>
      </trkpt>
      <trkpt lat="42.41277" lon="0.14048">
        <ele>532.5</ele>
        <time>2017-07-02T12:35:13Z</time>
      </trkpt>
      <trkpt lat="42.41283" lon="0.14047">
        <ele>532.2</ele>
        <time>2017-07-02T12:35:14Z</time>
      </trkpt>
      <trkpt lat="42.41288" lon="0.14046">
        <ele>531.9</ele>
        <time>2017-07-02T12:35:15Z</time>
      </trkpt>
      <trkpt lat="42.41294" lon="0.14046">
        <ele>531.5</ele>
        <time>2017-07-02T12:35:16Z</time>
      </trkpt>
      <trkpt lat="42.413" lon="0.14045">
        <ele>531.1</ele>
        <time>2017-07-02T12:35:17Z</time>
      </trkpt>
      <trkpt lat="42.41305" lon="0.14044">
        <ele>530.7</ele>
        <time>2017-07-02T12:35:18Z</time>
      </trkpt>
      <trkpt lat="42.41311" lon="0.14043">
        <ele>530.3</ele>
        <time>2017-07-02T12:35:19Z</time>
      </trkpt>
      <trkpt lat="42.41317" lon="0.14042">
        <ele>530</ele>
        <time>2017-07-02T12:35:20Z</time>
      </trkpt>
      <trkpt lat="42.41322" lon="0.14042">
        <ele>529.7</ele>
        <time>2017-07-02T12:35:21Z</time>
      </trkpt>
      <trkpt lat="42.41328" lon="0.14041">
        <ele>529.4</ele>
        <time>2017-07-02T12:35:22Z</time>
      </trkpt>
      <trkpt lat="42.41333" lon="0.1404">
        <ele>529.2</ele>
        <time>2017-07-02T12:35:23Z</time>
      </trkpt>
      <trkpt lat="42.41337" lon="0.14039">
        <ele>529.1</ele>
        <time>2017-07-02T12:35:24Z</time>
      </trkpt>
      <trkpt lat="42.41341" lon="0.14039">
        <ele>528.9</ele>
        <time>2017-07-02T12:35:25Z</time>
      </trkpt>
      <trkpt lat="42.41346" lon="0.14039">
        <ele>528.7</ele>
        <time>2017-07-02T12:35:26Z</time>
      </trkpt>
      <trkpt lat="42.41352" lon="0.14039">
        <ele>528.5</ele>
        <time>2017-07-02T12:35:27Z</time>
      </trkpt>
      <trkpt lat="42.41358" lon="0.14039">
        <ele>528.2</ele>
        <time>2017-07-02T12:35:28Z</time>
      </trkpt>
      <trkpt lat="42.41364" lon="0.14039">
        <ele>528</ele>
        <time>2017-07-02T12:35:29Z</time>
      </trkpt>
      <trkpt lat="42.41369" lon="0.14038">
        <ele>528</ele>
        <time>2017-07-02T12:35:30Z</time>
      </trkpt>
      <trkpt lat="42.41374" lon="0.14038">
        <ele>529</ele>
        <time>2017-07-02T12:35:31Z</time>
      </trkpt>
      <trkpt lat="42.41381" lon="0.14037">
        <ele>529.8</ele>
        <time>2017-07-02T12:35:32Z</time>
      </trkpt>
      <trkpt lat="42.41386" lon="0.14037">
        <ele>530.5</ele>
        <time>2017-07-02T12:35:33Z</time>
      </trkpt>
      <trkpt lat="42.41391" lon="0.14037">
        <ele>531.2</ele>
        <time>2017-07-02T12:35:34Z</time>
      </trkpt>
      <trkpt lat="42.41397" lon="0.14036">
        <ele>532</ele>
        <time>2017-07-02T12:35:35Z</time>
      </trkpt>
      <trkpt lat="42.41402" lon="0.14035">
        <ele>532.5</ele>
        <time>2017-07-02T12:35:36Z</time>
      </trkpt>
      <trkpt lat="42.41407" lon="0.14034">
        <ele>532.8</ele>
        <time>2017-07-02T12:35:37Z</time>
      </trkpt>
      <trkpt lat="42.41413" lon="0.14033">
        <ele>533.3</ele>
        <time>2017-07-02T12:35:38Z</time>
      </trkpt>
      <trkpt lat="42.41419" lon="0.14032">
        <ele>533.7</ele>
        <time>2017-07-02T12:35:39Z</time>
      </trkpt>
      <trkpt lat="42.41423" lon="0.14029">
        <ele>533.9</ele>
        <time>2017-07-02T12:35:40Z</time>
      </trkpt>
      <trkpt lat="42.41427" lon="0.14027">
        <ele>534</ele>
        <time>2017-07-02T12:35:41Z</time>
      </trkpt>
      <trkpt lat="42.41432" lon="0.14027">
        <ele>534</ele>
        <time>2017-07-02T12:35:42Z</time>
      </trkpt>
      <trkpt lat="42.41437" lon="0.14027">
        <ele>534</ele>
        <time>2017-07-02T12:35:43Z</time>
      </trkpt>
      <trkpt lat="42.41442" lon="0.14027">
        <ele>534</ele>
        <time>2017-07-02T12:35:44Z</time>
      </trkpt>
      <trkpt lat="42.41446" lon="0.14027">
        <ele>534</ele>
        <time>2017-07-02T12:35:45Z</time>
      </trkpt>
      <trkpt lat="42.41449" lon="0.14028">
        <ele>534</ele>
        <time>2017-07-02T12:35:46Z</time>
      </trkpt>
      <trkpt lat="42.41453" lon="0.14028">
        <ele>534</ele>
        <time>2017-07-02T12:35:48Z</time>
      </trkpt>
      <trkpt lat="42.41456" lon="0.14031">
        <ele>534</ele>
        <time>2017-07-02T12:35:51Z</time>
      </trkpt>
      <trkpt lat="42.4146" lon="0.14036">
        <ele>534</ele>
        <time>2017-07-02T12:35:53Z</time>
      </trkpt>
      <trkpt lat="42.41462" lon="0.1404">
        <ele>534</ele>
        <time>2017-07-02T12:35:54Z</time>
      </trkpt>
      <trkpt lat="42.41463" lon="0.14045">
        <ele>534</ele>
        <time>2017-07-02T12:35:55Z</time>
      </trkpt>
      <trkpt lat="42.41464" lon="0.1405">
        <ele>534</ele>
        <time>2017-07-02T12:35:56Z</time>
      </trkpt>
      <trkpt lat="42.41465" lon="0.14055">
        <ele>534</ele>
        <time>2017-07-02T12:35:57Z</time>
      </trkpt>
      <trkpt lat="42.41465" lon="0.14061">
        <ele>534</ele>
        <time>2017-07-02T12:35:58Z</time>
      </trkpt>
      <trkpt lat="42.41466" lon="0.14067">
        <ele>534.1</ele>
        <time>2017-07-02T12:35:59Z</time>
      </trkpt>
      <trkpt lat="42.41467" lon="0.14073">
        <ele>534.2</ele>
        <time>2017-07-02T12:36:00Z</time>
      </trkpt>
      <trkpt lat="42.41468" lon="0.14078">
        <ele>534.3</ele>
        <time>2017-07-02T12:36:01Z</time>
      </trkpt>
      <trkpt lat="42.41468" lon="0.14084">
        <ele>534.4</ele>
        <time>2017-07-02T12:36:02Z</time>
      </trkpt>
      <trkpt lat="42.41469" lon="0.1409">
        <ele>534.5</ele>
        <time>2017-07-02T12:36:03Z</time>
      </trkpt>
      <trkpt lat="42.4147" lon="0.14096">
        <ele>534.6</ele>
        <time>2017-07-02T12:36:04Z</time>
      </trkpt>
      <trkpt lat="42.4147" lon="0.14101">
        <ele>534.7</ele>
        <time>2017-07-02T12:36:05Z</time>
      </trkpt>
      <trkpt lat="42.41471" lon="0.14107">
        <ele>534.8</ele>
        <time>2017-07-02T12:36:06Z</time>
      </trkpt>
      <trkpt lat="42.41471" lon="0.14113">
        <ele>535</ele>
        <time>2017-07-02T12:36:07Z</time>
      </trkpt>
      <trkpt lat="42.41472" lon="0.14118">
        <ele>535.1</ele>
        <time>2017-07-02T12:36:08Z</time>
      </trkpt>
      <trkpt lat="42.41473" lon="0.14124">
        <ele>535.2</ele>
        <time>2017-07-02T12:36:09Z</time>
      </trkpt>
      <trkpt lat="42.41473" lon="0.14129">
        <ele>535.4</ele>
        <time>2017-07-02T12:36:10Z</time>
      </trkpt>
      <trkpt lat="42.41474" lon="0.14134">
        <ele>535.5</ele>
        <time>2017-07-02T12:36:11Z</time>
      </trkpt>
      <trkpt lat="42.41475" lon="0.1414">
        <ele>535.6</ele>
        <time>2017-07-02T12:36:12Z</time>
      </trkpt>
      <trkpt lat="42.41476" lon="0.14147">
        <ele>535.7</ele>
        <time>2017-07-02T12:36:13Z</time>
      </trkpt>
      <trkpt lat="42.41478" lon="0.14154">
        <ele>535.9</ele>
        <time>2017-07-02T12:36:14Z</time>
      </trkpt>
      <trkpt lat="42.41478" lon="0.1416">
        <ele>536</ele>
        <time>2017-07-02T12:36:15Z</time>
      </trkpt>
      <trkpt lat="42.41479" lon="0.14167">
        <ele>536</ele>
        <time>2017-07-02T12:36:16Z</time>
      </trkpt>
      <trkpt lat="42.4148" lon="0.14173">
        <ele>535.7</ele>
        <time>2017-07-02T12:36:17Z</time>
      </trkpt>
      <trkpt lat="42.41482" lon="0.14179">
        <ele>535.4</ele>
        <time>2017-07-02T12:36:18Z</time>
      </trkpt>
      <trkpt lat="42.41483" lon="0.14185">
        <ele>535.1</ele>
        <time>2017-07-02T12:36:19Z</time>
      </trkpt>
      <trkpt lat="42.41483" lon="0.14192">
        <ele>534.8</ele>
        <time>2017-07-02T12:36:20Z</time>
      </trkpt>
      <trkpt lat="42.41484" lon="0.14199">
        <ele>534.5</ele>
        <time>2017-07-02T12:36:21Z</time>
      </trkpt>
      <trkpt lat="42.41485" lon="0.14205">
        <ele>534.2</ele>
        <time>2017-07-02T12:36:22Z</time>
      </trkpt>
      <trkpt lat="42.41486" lon="0.14211">
        <ele>533.9</ele>
        <time>2017-07-02T12:36:23Z</time>
      </trkpt>
      <trkpt lat="42.41487" lon="0.14217">
        <ele>533.6</ele>
        <time>2017-07-02T12:36:24Z</time>
      </trkpt>
      <trkpt lat="42.41488" lon="0.14223">
        <ele>533.3</ele>
        <time>2017-07-02T12:36:25Z</time>
      </trkpt>
      <trkpt lat="42.41489" lon="0.1423">
        <ele>533.1</ele>
        <time>2017-07-02T12:36:26Z</time>
      </trkpt>
      <trkpt lat="42.4149" lon="0.14236">
        <ele>532.8</ele>
        <time>2017-07-02T12:36:27Z</time>
      </trkpt>
      <trkpt lat="42.4149" lon="0.14242">
        <ele>532.6</ele>
        <time>2017-07-02T12:36:28Z</time>
      </trkpt>
      <trkpt lat="42.41491" lon="0.14248">
        <ele>532.3</ele>
        <time>2017-07-02T12:36:29Z</time>
      </trkpt>
      <trkpt lat="42.41492" lon="0.14254">
        <ele>532.1</ele>
        <time>2017-07-02T12:36:30Z</time>
      </trkpt>
      <trkpt lat="42.41493" lon="0.1426">
        <ele>531.8</ele>
        <time>2017-07-02T12:36:31Z</time>
      </trkpt>
      <trkpt lat="42.41494" lon="0.14266">
        <ele>531.6</ele>
        <time>2017-07-02T12:36:32Z</time>
      </trkpt>
      <trkpt lat="42.41495" lon="0.14272">
        <ele>531.4</ele>
        <time>2017-07-02T12:36:33Z</time>
      </trkpt>
      <trkpt lat="42.41496" lon="0.14278">
        <ele>531.1</ele>
        <time>2017-07-02T12:36:34Z</time>
      </trkpt>
      <trkpt lat="42.41497" lon="0.14284">
        <ele>530.8</ele>
        <time>2017-07-02T12:36:35Z</time>
      </trkpt>
      <trkpt lat="42.41498" lon="0.14289">
        <ele>530.4</ele>
        <time>2017-07-02T12:36:36Z</time>
      </trkpt>
      <trkpt lat="42.41498" lon="0.14295">
        <ele>530.1</ele>
        <time>2017-07-02T12:36:37Z</time>
      </trkpt>
      <trkpt lat="42.41499" lon="0.14301">
        <ele>529.7</ele>
        <time>2017-07-02T12:36:38Z</time>
      </trkpt>
      <trkpt lat="42.415" lon="0.14307">
        <ele>529.2</ele>
        <time>2017-07-02T12:36:39Z</time>
      </trkpt>
      <trkpt lat="42.41501" lon="0.14312">
        <ele>528.9</ele>
        <time>2017-07-02T12:36:40Z</time>
      </trkpt>
      <trkpt lat="42.41502" lon="0.14318">
        <ele>528.5</ele>
        <time>2017-07-02T12:36:41Z</time>
      </trkpt>
      <trkpt lat="42.41503" lon="0.14323">
        <ele>528.1</ele>
        <time>2017-07-02T12:36:42Z</time>
      </trkpt>
      <trkpt lat="42.41504" lon="0.14329">
        <ele>527.6</ele>
        <time>2017-07-02T12:36:43Z</time>
      </trkpt>
      <trkpt lat="42.41504" lon="0.14334">
        <ele>526.9</ele>
        <time>2017-07-02T12:36:44Z</time>
      </trkpt>
      <trkpt lat="42.41505" lon="0.1434">
        <ele>526.5</ele>
        <time>2017-07-02T12:36:45Z</time>
      </trkpt>
      <trkpt lat="42.41506" lon="0.14345">
        <ele>526.1</ele>
        <time>2017-07-02T12:36:46Z</time>
      </trkpt>
      <trkpt lat="42.41507" lon="0.1435">
        <ele>525.6</ele>
        <time>2017-07-02T12:36:47Z</time>
      </trkpt>
      <trkpt lat="42.41508" lon="0.14356">
        <ele>525.2</ele>
        <time>2017-07-02T12:36:48Z</time>
      </trkpt>
      <trkpt lat="42.41509" lon="0.14361">
        <ele>525</ele>
        <time>2017-07-02T12:36:49Z</time>
      </trkpt>
      <trkpt lat="42.4151" lon="0.14367">
        <ele>525</ele>
        <time>2017-07-02T12:36:50Z</time>
      </trkpt>
      <trkpt lat="42.41511" lon="0.14373">
        <ele>525</ele>
        <time>2017-07-02T12:36:51Z</time>
      </trkpt>
      <trkpt lat="42.41511" lon="0.14378">
        <ele>525</ele>
        <time>2017-07-02T12:36:52Z</time>
      </trkpt>
      <trkpt lat="42.41512" lon="0.14384">
        <ele>525</ele>
        <time>2017-07-02T12:36:53Z</time>
      </trkpt>
      <trkpt lat="42.41512" lon="0.14389">
        <ele>525</ele>
        <time>2017-07-02T12:36:54Z</time>
      </trkpt>
      <trkpt lat="42.41513" lon="0.14395">
        <ele>525</ele>
        <time>2017-07-02T12:36:55Z</time>
      </trkpt>
      <trkpt lat="42.41513" lon="0.144">
        <ele>525</ele>
        <time>2017-07-02T12:36:56Z</time>
      </trkpt>
      <trkpt lat="42.41512" lon="0.14406">
        <ele>525</ele>
        <time>2017-07-02T12:36:57Z</time>
      </trkpt>
      <trkpt lat="42.41512" lon="0.14411">
        <ele>526.1</ele>
        <time>2017-07-02T12:36:58Z</time>
      </trkpt>
      <trkpt lat="42.4151" lon="0.14416">
        <ele>528</ele>
        <time>2017-07-02T12:36:59Z</time>
      </trkpt>
      <trkpt lat="42.41509" lon="0.1442">
        <ele>530</ele>
        <time>2017-07-02T12:37:00Z</time>
      </trkpt>
      <trkpt lat="42.41507" lon="0.14425">
        <ele>530</ele>
        <time>2017-07-02T12:37:01Z</time>
      </trkpt>
      <trkpt lat="42.41505" lon="0.14429">
        <ele>530</ele>
        <time>2017-07-02T12:37:02Z</time>
      </trkpt>
      <trkpt lat="42.41503" lon="0.14433">
        <ele>530</ele>
        <time>2017-07-02T12:37:03Z</time>
      </trkpt>
      <trkpt lat="42.41501" lon="0.14436">
        <ele>530</ele>
        <time>2017-07-02T12:37:04Z</time>
      </trkpt>
      <trkpt lat="42.41499" lon="0.14438">
        <ele>530</ele>
        <time>2017-07-02T12:37:05Z</time>
      </trkpt>
      <trkpt lat="42.41496" lon="0.14438">
        <ele>530</ele>
        <time>2017-07-02T12:37:06Z</time>
      </trkpt>
      <trkpt lat="42.41492" lon="0.14436">
        <ele>530</ele>
        <time>2017-07-02T12:37:07Z</time>
      </trkpt>
      <trkpt lat="42.4149" lon="0.14433">
        <ele>530</ele>
        <time>2017-07-02T12:37:08Z</time>
      </trkpt>
      <trkpt lat="42.41489" lon="0.14428">
        <ele>530</ele>
        <time>2017-07-02T12:37:09Z</time>
      </trkpt>
      <trkpt lat="42.41489" lon="0.14424">
        <ele>530</ele>
        <time>2017-07-02T12:37:10Z</time>
      </trkpt>
      <trkpt lat="42.41491" lon="0.1442">
        <ele>530</ele>
        <time>2017-07-02T12:37:11Z</time>
      </trkpt>
      <trkpt lat="42.41494" lon="0.14418">
        <ele>530</ele>
        <time>2017-07-02T12:37:12Z</time>
      </trkpt>
      <trkpt lat="42.41498" lon="0.14416">
        <ele>530</ele>
        <time>2017-07-02T12:37:14Z</time>
      </trkpt>
      <trkpt lat="42.41501" lon="0.14414">
        <ele>530</ele>
        <time>2017-07-02T12:37:16Z</time>
      </trkpt>
    </trkseg>
  </trk>
</gpx>